<?xml version="1.0" encoding="UTF-8" standalone="no" ?>
<gpx xmlns="http://www.topografix.com/GPX/1/1" xmlns:xsi="http://www.w3.org/2001/XMLSchema-instance" xsi:schemaLocation="http://www.topografix.com/GPX/1/1 http://www.topografix.com/GPX/1/1/gpx.xsd" version="1.1" creator="VisuGPX - https://www.visugpx.com">
  <metadata>
    <name>Lorp - Pérégrinations gravellistiques sur les hauteurs de Saint-Lizier</name>
    <desc><![CDATA[Circuit adapté au gravel, alternant pistes roulantes, petites routes et portions typées VTT.]]></desc>
  </metadata>
  <trk>
    <name><![CDATA[Pérégrinations gravellistiques et vttistes sur les hauteurs de Saint-Lizier🌞🌬🌬]]></name>
    <trkseg>
      <trkpt lat="43.00919" lon="1.12438">
        <ele>377</ele>
        <time>2024-04-21T12:31:27.171Z</time>
      </trkpt>
      <trkpt lat="43.00874" lon="1.1255">
        <ele>378</ele>
        <time>2024-04-21T12:32:05.401Z</time>
      </trkpt>
      <trkpt lat="43.00849" lon="1.12598">
        <ele>378.3</ele>
        <time>2024-04-21T12:32:22.810Z</time>
      </trkpt>
      <trkpt lat="43.00842" lon="1.12614">
        <ele>378.3</ele>
        <time>2024-04-21T12:32:28.578Z</time>
      </trkpt>
      <trkpt lat="43.00819" lon="1.12653">
        <ele>378.3</ele>
        <time>2024-04-21T12:32:43.410Z</time>
      </trkpt>
      <trkpt lat="43.00813" lon="1.12654">
        <ele>381.6</ele>
        <time>2024-04-21T12:32:45.994Z</time>
      </trkpt>
      <trkpt lat="43.00813" lon="1.12654">
        <ele>381.6</ele>
        <time>2024-04-21T12:32:46.994Z</time>
      </trkpt>
      <trkpt lat="43.0081" lon="1.1266">
        <ele>381.6</ele>
        <time>2024-04-21T12:32:47.994Z</time>
      </trkpt>
      <trkpt lat="43.00806" lon="1.12665">
        <ele>381.6</ele>
        <time>2024-04-21T12:32:48.994Z</time>
      </trkpt>
      <trkpt lat="43.00803" lon="1.12671">
        <ele>381.6</ele>
        <time>2024-04-21T12:32:49.994Z</time>
      </trkpt>
      <trkpt lat="43.00799" lon="1.12676">
        <ele>381.6</ele>
        <time>2024-04-21T12:32:50.994Z</time>
      </trkpt>
      <trkpt lat="43.00796" lon="1.12681">
        <ele>381.8</ele>
        <time>2024-04-21T12:32:51.994Z</time>
      </trkpt>
      <trkpt lat="43.00792" lon="1.12686">
        <ele>381.8</ele>
        <time>2024-04-21T12:32:52.994Z</time>
      </trkpt>
      <trkpt lat="43.00789" lon="1.12691">
        <ele>382</ele>
        <time>2024-04-21T12:32:53.994Z</time>
      </trkpt>
      <trkpt lat="43.00786" lon="1.12697">
        <ele>382</ele>
        <time>2024-04-21T12:32:54.994Z</time>
      </trkpt>
      <trkpt lat="43.00782" lon="1.12702">
        <ele>382</ele>
        <time>2024-04-21T12:32:55.994Z</time>
      </trkpt>
      <trkpt lat="43.00778" lon="1.12706">
        <ele>382</ele>
        <time>2024-04-21T12:32:56.994Z</time>
      </trkpt>
      <trkpt lat="43.00775" lon="1.12711">
        <ele>382</ele>
        <time>2024-04-21T12:32:57.994Z</time>
      </trkpt>
      <trkpt lat="43.00772" lon="1.12716">
        <ele>382</ele>
        <time>2024-04-21T12:32:58.994Z</time>
      </trkpt>
      <trkpt lat="43.00769" lon="1.12721">
        <ele>382</ele>
        <time>2024-04-21T12:32:59.994Z</time>
      </trkpt>
      <trkpt lat="43.00764" lon="1.12726">
        <ele>382</ele>
        <time>2024-04-21T12:33:00.994Z</time>
      </trkpt>
      <trkpt lat="43.0076" lon="1.1273">
        <ele>382</ele>
        <time>2024-04-21T12:33:01.994Z</time>
      </trkpt>
      <trkpt lat="43.00757" lon="1.12734">
        <ele>382</ele>
        <time>2024-04-21T12:33:02.994Z</time>
      </trkpt>
      <trkpt lat="43.00753" lon="1.12739">
        <ele>382</ele>
        <time>2024-04-21T12:33:03.994Z</time>
      </trkpt>
      <trkpt lat="43.00749" lon="1.12745">
        <ele>382</ele>
        <time>2024-04-21T12:33:04.994Z</time>
      </trkpt>
      <trkpt lat="43.00746" lon="1.12749">
        <ele>382</ele>
        <time>2024-04-21T12:33:05.994Z</time>
      </trkpt>
      <trkpt lat="43.00742" lon="1.12754">
        <ele>382</ele>
        <time>2024-04-21T12:33:06.994Z</time>
      </trkpt>
      <trkpt lat="43.00739" lon="1.12758">
        <ele>382</ele>
        <time>2024-04-21T12:33:07.994Z</time>
      </trkpt>
      <trkpt lat="43.00733" lon="1.12764">
        <ele>382</ele>
        <time>2024-04-21T12:33:08.994Z</time>
      </trkpt>
      <trkpt lat="43.00729" lon="1.12768">
        <ele>382</ele>
        <time>2024-04-21T12:33:09.994Z</time>
      </trkpt>
      <trkpt lat="43.00725" lon="1.12773">
        <ele>382</ele>
        <time>2024-04-21T12:33:10.994Z</time>
      </trkpt>
      <trkpt lat="43.00721" lon="1.12778">
        <ele>382.2</ele>
        <time>2024-04-21T12:33:11.994Z</time>
      </trkpt>
      <trkpt lat="43.00716" lon="1.12784">
        <ele>382.2</ele>
        <time>2024-04-21T12:33:12.994Z</time>
      </trkpt>
      <trkpt lat="43.00713" lon="1.12788">
        <ele>382.6</ele>
        <time>2024-04-21T12:33:13.994Z</time>
      </trkpt>
      <trkpt lat="43.00709" lon="1.12793">
        <ele>382.6</ele>
        <time>2024-04-21T12:33:14.994Z</time>
      </trkpt>
      <trkpt lat="43.00705" lon="1.12797">
        <ele>382.4</ele>
        <time>2024-04-21T12:33:15.994Z</time>
      </trkpt>
      <trkpt lat="43.00697" lon="1.12806">
        <ele>382.6</ele>
        <time>2024-04-21T12:33:16.994Z</time>
      </trkpt>
      <trkpt lat="43.00693" lon="1.1281">
        <ele>382.6</ele>
        <time>2024-04-21T12:33:17.994Z</time>
      </trkpt>
      <trkpt lat="43.00689" lon="1.12814">
        <ele>382.6</ele>
        <time>2024-04-21T12:33:18.994Z</time>
      </trkpt>
      <trkpt lat="43.00685" lon="1.12818">
        <ele>382.6</ele>
        <time>2024-04-21T12:33:19.994Z</time>
      </trkpt>
      <trkpt lat="43.00681" lon="1.12822">
        <ele>383</ele>
        <time>2024-04-21T12:33:20.994Z</time>
      </trkpt>
      <trkpt lat="43.00677" lon="1.12827">
        <ele>382.6</ele>
        <time>2024-04-21T12:33:21.994Z</time>
      </trkpt>
      <trkpt lat="43.00673" lon="1.12831">
        <ele>382.6</ele>
        <time>2024-04-21T12:33:22.994Z</time>
      </trkpt>
      <trkpt lat="43.00668" lon="1.12834">
        <ele>382.6</ele>
        <time>2024-04-21T12:33:23.994Z</time>
      </trkpt>
      <trkpt lat="43.00664" lon="1.12838">
        <ele>383</ele>
        <time>2024-04-21T12:33:24.994Z</time>
      </trkpt>
      <trkpt lat="43.00659" lon="1.12841">
        <ele>383.4</ele>
        <time>2024-04-21T12:33:25.994Z</time>
      </trkpt>
      <trkpt lat="43.00655" lon="1.12844">
        <ele>383.4</ele>
        <time>2024-04-21T12:33:26.994Z</time>
      </trkpt>
      <trkpt lat="43.00651" lon="1.12847">
        <ele>383.2</ele>
        <time>2024-04-21T12:33:27.994Z</time>
      </trkpt>
      <trkpt lat="43.00646" lon="1.12847">
        <ele>383.2</ele>
        <time>2024-04-21T12:33:28.994Z</time>
      </trkpt>
      <trkpt lat="43.00642" lon="1.12846">
        <ele>383.4</ele>
        <time>2024-04-21T12:33:29.994Z</time>
      </trkpt>
      <trkpt lat="43.00639" lon="1.12845">
        <ele>383.6</ele>
        <time>2024-04-21T12:33:30.994Z</time>
      </trkpt>
      <trkpt lat="43.00637" lon="1.12845">
        <ele>383.8</ele>
        <time>2024-04-21T12:33:31.994Z</time>
      </trkpt>
      <trkpt lat="43.00634" lon="1.12841">
        <ele>384.2</ele>
        <time>2024-04-21T12:33:32.994Z</time>
      </trkpt>
      <trkpt lat="43.00632" lon="1.12838">
        <ele>384.4</ele>
        <time>2024-04-21T12:33:33.994Z</time>
      </trkpt>
      <trkpt lat="43.0063" lon="1.12835">
        <ele>384.6</ele>
        <time>2024-04-21T12:33:34.994Z</time>
      </trkpt>
      <trkpt lat="43.00626" lon="1.12835">
        <ele>384.6</ele>
        <time>2024-04-21T12:33:35.994Z</time>
      </trkpt>
      <trkpt lat="43.00624" lon="1.12837">
        <ele>385</ele>
        <time>2024-04-21T12:33:36.994Z</time>
      </trkpt>
      <trkpt lat="43.00622" lon="1.1284">
        <ele>385</ele>
        <time>2024-04-21T12:33:37.994Z</time>
      </trkpt>
      <trkpt lat="43.00621" lon="1.12842">
        <ele>385</ele>
        <time>2024-04-21T12:33:38.994Z</time>
      </trkpt>
      <trkpt lat="43.00622" lon="1.12846">
        <ele>385.2</ele>
        <time>2024-04-21T12:33:39.994Z</time>
      </trkpt>
      <trkpt lat="43.00623" lon="1.12851">
        <ele>385.2</ele>
        <time>2024-04-21T12:33:40.994Z</time>
      </trkpt>
      <trkpt lat="43.00625" lon="1.12856">
        <ele>385.2</ele>
        <time>2024-04-21T12:33:41.994Z</time>
      </trkpt>
      <trkpt lat="43.00625" lon="1.12863">
        <ele>385</ele>
        <time>2024-04-21T12:33:42.994Z</time>
      </trkpt>
      <trkpt lat="43.00625" lon="1.12871">
        <ele>384.4</ele>
        <time>2024-04-21T12:33:43.994Z</time>
      </trkpt>
      <trkpt lat="43.00622" lon="1.12876">
        <ele>383.8</ele>
        <time>2024-04-21T12:33:44.994Z</time>
      </trkpt>
      <trkpt lat="43.00618" lon="1.12882">
        <ele>383.6</ele>
        <time>2024-04-21T12:33:45.994Z</time>
      </trkpt>
      <trkpt lat="43.00613" lon="1.12887">
        <ele>383.6</ele>
        <time>2024-04-21T12:33:46.994Z</time>
      </trkpt>
      <trkpt lat="43.00608" lon="1.12892">
        <ele>383.6</ele>
        <time>2024-04-21T12:33:47.994Z</time>
      </trkpt>
      <trkpt lat="43.00603" lon="1.12896">
        <ele>383.6</ele>
        <time>2024-04-21T12:33:48.994Z</time>
      </trkpt>
      <trkpt lat="43.00599" lon="1.129">
        <ele>383.4</ele>
        <time>2024-04-21T12:33:49.994Z</time>
      </trkpt>
      <trkpt lat="43.00594" lon="1.12904">
        <ele>383.4</ele>
        <time>2024-04-21T12:33:50.994Z</time>
      </trkpt>
      <trkpt lat="43.0059" lon="1.12909">
        <ele>383.4</ele>
        <time>2024-04-21T12:33:51.994Z</time>
      </trkpt>
      <trkpt lat="43.00585" lon="1.12913">
        <ele>383.2</ele>
        <time>2024-04-21T12:33:52.994Z</time>
      </trkpt>
      <trkpt lat="43.00581" lon="1.12917">
        <ele>383.4</ele>
        <time>2024-04-21T12:33:53.994Z</time>
      </trkpt>
      <trkpt lat="43.00577" lon="1.12922">
        <ele>383.6</ele>
        <time>2024-04-21T12:33:54.994Z</time>
      </trkpt>
      <trkpt lat="43.00572" lon="1.12926">
        <ele>383.4</ele>
        <time>2024-04-21T12:33:55.994Z</time>
      </trkpt>
      <trkpt lat="43.00568" lon="1.1293">
        <ele>383.4</ele>
        <time>2024-04-21T12:33:56.994Z</time>
      </trkpt>
      <trkpt lat="43.00563" lon="1.12934">
        <ele>383.4</ele>
        <time>2024-04-21T12:33:57.994Z</time>
      </trkpt>
      <trkpt lat="43.00558" lon="1.12938">
        <ele>383.6</ele>
        <time>2024-04-21T12:33:58.994Z</time>
      </trkpt>
      <trkpt lat="43.00554" lon="1.12942">
        <ele>383.6</ele>
        <time>2024-04-21T12:33:59.994Z</time>
      </trkpt>
      <trkpt lat="43.0055" lon="1.12946">
        <ele>383.6</ele>
        <time>2024-04-21T12:34:00.994Z</time>
      </trkpt>
      <trkpt lat="43.00545" lon="1.1295">
        <ele>384</ele>
        <time>2024-04-21T12:34:01.994Z</time>
      </trkpt>
      <trkpt lat="43.00541" lon="1.12954">
        <ele>384</ele>
        <time>2024-04-21T12:34:02.994Z</time>
      </trkpt>
      <trkpt lat="43.00537" lon="1.12958">
        <ele>384</ele>
        <time>2024-04-21T12:34:03.994Z</time>
      </trkpt>
      <trkpt lat="43.00532" lon="1.12962">
        <ele>384</ele>
        <time>2024-04-21T12:34:04.994Z</time>
      </trkpt>
      <trkpt lat="43.00528" lon="1.12967">
        <ele>384</ele>
        <time>2024-04-21T12:34:05.994Z</time>
      </trkpt>
      <trkpt lat="43.00523" lon="1.12971">
        <ele>384</ele>
        <time>2024-04-21T12:34:06.994Z</time>
      </trkpt>
      <trkpt lat="43.00519" lon="1.12975">
        <ele>384</ele>
        <time>2024-04-21T12:34:07.994Z</time>
      </trkpt>
      <trkpt lat="43.00515" lon="1.1298">
        <ele>383.6</ele>
        <time>2024-04-21T12:34:08.994Z</time>
      </trkpt>
      <trkpt lat="43.0051" lon="1.12984">
        <ele>383.8</ele>
        <time>2024-04-21T12:34:09.994Z</time>
      </trkpt>
      <trkpt lat="43.00506" lon="1.12988">
        <ele>383.8</ele>
        <time>2024-04-21T12:34:10.994Z</time>
      </trkpt>
      <trkpt lat="43.00502" lon="1.12992">
        <ele>383.4</ele>
        <time>2024-04-21T12:34:11.994Z</time>
      </trkpt>
      <trkpt lat="43.00497" lon="1.12997">
        <ele>383.4</ele>
        <time>2024-04-21T12:34:12.994Z</time>
      </trkpt>
      <trkpt lat="43.00493" lon="1.13001">
        <ele>384</ele>
        <time>2024-04-21T12:34:13.994Z</time>
      </trkpt>
      <trkpt lat="43.00489" lon="1.13005">
        <ele>384</ele>
        <time>2024-04-21T12:34:14.994Z</time>
      </trkpt>
      <trkpt lat="43.00485" lon="1.1301">
        <ele>383.8</ele>
        <time>2024-04-21T12:34:15.994Z</time>
      </trkpt>
      <trkpt lat="43.00481" lon="1.13014">
        <ele>383.8</ele>
        <time>2024-04-21T12:34:16.994Z</time>
      </trkpt>
      <trkpt lat="43.00477" lon="1.13018">
        <ele>384.8</ele>
        <time>2024-04-21T12:34:17.994Z</time>
      </trkpt>
      <trkpt lat="43.00473" lon="1.13022">
        <ele>385.2</ele>
        <time>2024-04-21T12:34:18.994Z</time>
      </trkpt>
      <trkpt lat="43.00469" lon="1.13026">
        <ele>385.2</ele>
        <time>2024-04-21T12:34:19.994Z</time>
      </trkpt>
      <trkpt lat="43.00465" lon="1.13029">
        <ele>384.8</ele>
        <time>2024-04-21T12:34:20.994Z</time>
      </trkpt>
      <trkpt lat="43.0046" lon="1.13033">
        <ele>384.8</ele>
        <time>2024-04-21T12:34:21.994Z</time>
      </trkpt>
      <trkpt lat="43.00456" lon="1.13038">
        <ele>384.6</ele>
        <time>2024-04-21T12:34:22.994Z</time>
      </trkpt>
      <trkpt lat="43.00452" lon="1.13042">
        <ele>385.6</ele>
        <time>2024-04-21T12:34:23.994Z</time>
      </trkpt>
      <trkpt lat="43.00448" lon="1.13046">
        <ele>385.6</ele>
        <time>2024-04-21T12:34:24.994Z</time>
      </trkpt>
      <trkpt lat="43.00444" lon="1.13049">
        <ele>385.4</ele>
        <time>2024-04-21T12:34:25.994Z</time>
      </trkpt>
      <trkpt lat="43.0044" lon="1.13052">
        <ele>385.2</ele>
        <time>2024-04-21T12:34:26.994Z</time>
      </trkpt>
      <trkpt lat="43.00435" lon="1.13057">
        <ele>385.2</ele>
        <time>2024-04-21T12:34:27.994Z</time>
      </trkpt>
      <trkpt lat="43.00431" lon="1.1306">
        <ele>385.2</ele>
        <time>2024-04-21T12:34:28.994Z</time>
      </trkpt>
      <trkpt lat="43.00426" lon="1.13065">
        <ele>385.4</ele>
        <time>2024-04-21T12:34:29.994Z</time>
      </trkpt>
      <trkpt lat="43.00422" lon="1.13069">
        <ele>385.4</ele>
        <time>2024-04-21T12:34:30.994Z</time>
      </trkpt>
      <trkpt lat="43.00418" lon="1.13073">
        <ele>385.4</ele>
        <time>2024-04-21T12:34:31.994Z</time>
      </trkpt>
      <trkpt lat="43.00414" lon="1.13077">
        <ele>385.4</ele>
        <time>2024-04-21T12:34:32.994Z</time>
      </trkpt>
      <trkpt lat="43.00409" lon="1.13081">
        <ele>385.4</ele>
        <time>2024-04-21T12:34:33.994Z</time>
      </trkpt>
      <trkpt lat="43.00405" lon="1.13084">
        <ele>385.6</ele>
        <time>2024-04-21T12:34:34.994Z</time>
      </trkpt>
      <trkpt lat="43.00401" lon="1.13088">
        <ele>385.6</ele>
        <time>2024-04-21T12:34:35.994Z</time>
      </trkpt>
      <trkpt lat="43.00397" lon="1.13093">
        <ele>385.6</ele>
        <time>2024-04-21T12:34:36.994Z</time>
      </trkpt>
      <trkpt lat="43.00392" lon="1.13097">
        <ele>385.6</ele>
        <time>2024-04-21T12:34:37.994Z</time>
      </trkpt>
      <trkpt lat="43.00388" lon="1.13101">
        <ele>385.6</ele>
        <time>2024-04-21T12:34:38.994Z</time>
      </trkpt>
      <trkpt lat="43.00385" lon="1.13106">
        <ele>385.6</ele>
        <time>2024-04-21T12:34:39.994Z</time>
      </trkpt>
      <trkpt lat="43.00381" lon="1.13111">
        <ele>385</ele>
        <time>2024-04-21T12:34:40.994Z</time>
      </trkpt>
      <trkpt lat="43.00377" lon="1.13115">
        <ele>385</ele>
        <time>2024-04-21T12:34:41.994Z</time>
      </trkpt>
      <trkpt lat="43.00373" lon="1.1312">
        <ele>384.8</ele>
        <time>2024-04-21T12:34:42.994Z</time>
      </trkpt>
      <trkpt lat="43.00369" lon="1.13124">
        <ele>384.6</ele>
        <time>2024-04-21T12:34:43.994Z</time>
      </trkpt>
      <trkpt lat="43.00364" lon="1.13129">
        <ele>384.6</ele>
        <time>2024-04-21T12:34:44.994Z</time>
      </trkpt>
      <trkpt lat="43.0036" lon="1.13134">
        <ele>384.2</ele>
        <time>2024-04-21T12:34:45.994Z</time>
      </trkpt>
      <trkpt lat="43.00356" lon="1.13139">
        <ele>384.2</ele>
        <time>2024-04-21T12:34:46.994Z</time>
      </trkpt>
      <trkpt lat="43.00351" lon="1.13144">
        <ele>384.2</ele>
        <time>2024-04-21T12:34:47.994Z</time>
      </trkpt>
      <trkpt lat="43.00346" lon="1.13148">
        <ele>384.2</ele>
        <time>2024-04-21T12:34:48.994Z</time>
      </trkpt>
      <trkpt lat="43.00341" lon="1.13154">
        <ele>384</ele>
        <time>2024-04-21T12:34:49.994Z</time>
      </trkpt>
      <trkpt lat="43.00337" lon="1.1316">
        <ele>383.6</ele>
        <time>2024-04-21T12:34:50.994Z</time>
      </trkpt>
      <trkpt lat="43.00331" lon="1.13166">
        <ele>383</ele>
        <time>2024-04-21T12:34:51.994Z</time>
      </trkpt>
      <trkpt lat="43.00327" lon="1.13171">
        <ele>382.6</ele>
        <time>2024-04-21T12:34:52.994Z</time>
      </trkpt>
      <trkpt lat="43.00323" lon="1.13176">
        <ele>382.4</ele>
        <time>2024-04-21T12:34:53.994Z</time>
      </trkpt>
      <trkpt lat="43.0032" lon="1.13179">
        <ele>382.4</ele>
        <time>2024-04-21T12:34:54.994Z</time>
      </trkpt>
      <trkpt lat="43.00317" lon="1.13182">
        <ele>382.4</ele>
        <time>2024-04-21T12:34:55.994Z</time>
      </trkpt>
      <trkpt lat="43.00316" lon="1.13185">
        <ele>381.8</ele>
        <time>2024-04-21T12:34:56.994Z</time>
      </trkpt>
      <trkpt lat="43.00314" lon="1.13187">
        <ele>381.4</ele>
        <time>2024-04-21T12:34:57.994Z</time>
      </trkpt>
      <trkpt lat="43.00313" lon="1.13189">
        <ele>381.4</ele>
        <time>2024-04-21T12:34:58.994Z</time>
      </trkpt>
      <trkpt lat="43.00312" lon="1.1319">
        <ele>381</ele>
        <time>2024-04-21T12:34:59.994Z</time>
      </trkpt>
      <trkpt lat="43.00312" lon="1.13191">
        <ele>380.8</ele>
        <time>2024-04-21T12:35:00.994Z</time>
      </trkpt>
      <trkpt lat="43.00313" lon="1.1319">
        <ele>380.8</ele>
        <time>2024-04-21T12:35:01.994Z</time>
      </trkpt>
      <trkpt lat="43.00312" lon="1.1319">
        <ele>380.8</ele>
        <time>2024-04-21T12:35:02.994Z</time>
      </trkpt>
      <trkpt lat="43.00311" lon="1.13192">
        <ele>380.6</ele>
        <time>2024-04-21T12:35:03.994Z</time>
      </trkpt>
      <trkpt lat="43.0031" lon="1.13193">
        <ele>380.6</ele>
        <time>2024-04-21T12:35:04.994Z</time>
      </trkpt>
      <trkpt lat="43.00308" lon="1.13195">
        <ele>380.4</ele>
        <time>2024-04-21T12:35:05.994Z</time>
      </trkpt>
      <trkpt lat="43.00307" lon="1.13198">
        <ele>380.4</ele>
        <time>2024-04-21T12:35:06.994Z</time>
      </trkpt>
      <trkpt lat="43.00305" lon="1.13201">
        <ele>380.4</ele>
        <time>2024-04-21T12:35:07.994Z</time>
      </trkpt>
      <trkpt lat="43.00304" lon="1.13203">
        <ele>380.4</ele>
        <time>2024-04-21T12:35:08.994Z</time>
      </trkpt>
      <trkpt lat="43.00303" lon="1.13205">
        <ele>380.4</ele>
        <time>2024-04-21T12:35:09.994Z</time>
      </trkpt>
      <trkpt lat="43.00301" lon="1.13208">
        <ele>380.4</ele>
        <time>2024-04-21T12:35:10.994Z</time>
      </trkpt>
      <trkpt lat="43.00298" lon="1.13213">
        <ele>380.4</ele>
        <time>2024-04-21T12:35:11.994Z</time>
      </trkpt>
      <trkpt lat="43.00296" lon="1.13218">
        <ele>380</ele>
        <time>2024-04-21T12:35:12.994Z</time>
      </trkpt>
      <trkpt lat="43.00293" lon="1.13224">
        <ele>380</ele>
        <time>2024-04-21T12:35:13.994Z</time>
      </trkpt>
      <trkpt lat="43.0029" lon="1.13228">
        <ele>380</ele>
        <time>2024-04-21T12:35:14.994Z</time>
      </trkpt>
      <trkpt lat="43.00286" lon="1.13232">
        <ele>379.8</ele>
        <time>2024-04-21T12:35:15.994Z</time>
      </trkpt>
      <trkpt lat="43.00282" lon="1.13236">
        <ele>379.8</ele>
        <time>2024-04-21T12:35:16.994Z</time>
      </trkpt>
      <trkpt lat="43.00279" lon="1.13241">
        <ele>379.8</ele>
        <time>2024-04-21T12:35:17.994Z</time>
      </trkpt>
      <trkpt lat="43.00275" lon="1.13245">
        <ele>379.8</ele>
        <time>2024-04-21T12:35:18.994Z</time>
      </trkpt>
      <trkpt lat="43.00271" lon="1.1325">
        <ele>379.4</ele>
        <time>2024-04-21T12:35:19.994Z</time>
      </trkpt>
      <trkpt lat="43.00267" lon="1.13255">
        <ele>379.4</ele>
        <time>2024-04-21T12:35:20.994Z</time>
      </trkpt>
      <trkpt lat="43.00263" lon="1.13259">
        <ele>379.4</ele>
        <time>2024-04-21T12:35:21.994Z</time>
      </trkpt>
      <trkpt lat="43.00259" lon="1.13264">
        <ele>379.4</ele>
        <time>2024-04-21T12:35:22.994Z</time>
      </trkpt>
      <trkpt lat="43.00256" lon="1.13268">
        <ele>379.6</ele>
        <time>2024-04-21T12:35:23.994Z</time>
      </trkpt>
      <trkpt lat="43.00252" lon="1.13272">
        <ele>379.6</ele>
        <time>2024-04-21T12:35:24.994Z</time>
      </trkpt>
      <trkpt lat="43.00249" lon="1.13276">
        <ele>379.8</ele>
        <time>2024-04-21T12:35:25.994Z</time>
      </trkpt>
      <trkpt lat="43.00245" lon="1.13281">
        <ele>379.8</ele>
        <time>2024-04-21T12:35:26.994Z</time>
      </trkpt>
      <trkpt lat="43.00241" lon="1.13285">
        <ele>380</ele>
        <time>2024-04-21T12:35:27.994Z</time>
      </trkpt>
      <trkpt lat="43.00238" lon="1.1329">
        <ele>380</ele>
        <time>2024-04-21T12:35:28.994Z</time>
      </trkpt>
      <trkpt lat="43.00234" lon="1.13294">
        <ele>380</ele>
        <time>2024-04-21T12:35:29.994Z</time>
      </trkpt>
      <trkpt lat="43.0023" lon="1.13298">
        <ele>380</ele>
        <time>2024-04-21T12:35:30.994Z</time>
      </trkpt>
      <trkpt lat="43.00227" lon="1.13303">
        <ele>380</ele>
        <time>2024-04-21T12:35:31.994Z</time>
      </trkpt>
      <trkpt lat="43.00223" lon="1.13307">
        <ele>380</ele>
        <time>2024-04-21T12:35:32.994Z</time>
      </trkpt>
      <trkpt lat="43.00219" lon="1.13311">
        <ele>380.4</ele>
        <time>2024-04-21T12:35:33.994Z</time>
      </trkpt>
      <trkpt lat="43.00215" lon="1.13315">
        <ele>380.4</ele>
        <time>2024-04-21T12:35:34.994Z</time>
      </trkpt>
      <trkpt lat="43.00212" lon="1.1332">
        <ele>380.4</ele>
        <time>2024-04-21T12:35:35.994Z</time>
      </trkpt>
      <trkpt lat="43.00209" lon="1.13324">
        <ele>380.4</ele>
        <time>2024-04-21T12:35:36.994Z</time>
      </trkpt>
      <trkpt lat="43.00206" lon="1.13329">
        <ele>380.6</ele>
        <time>2024-04-21T12:35:37.994Z</time>
      </trkpt>
      <trkpt lat="43.00202" lon="1.13334">
        <ele>380.6</ele>
        <time>2024-04-21T12:35:38.994Z</time>
      </trkpt>
      <trkpt lat="43.002" lon="1.13339">
        <ele>380.8</ele>
        <time>2024-04-21T12:35:39.994Z</time>
      </trkpt>
      <trkpt lat="43.00197" lon="1.13344">
        <ele>380.8</ele>
        <time>2024-04-21T12:35:40.994Z</time>
      </trkpt>
      <trkpt lat="43.00194" lon="1.13349">
        <ele>380.8</ele>
        <time>2024-04-21T12:35:41.994Z</time>
      </trkpt>
      <trkpt lat="43.0019" lon="1.13353">
        <ele>381.2</ele>
        <time>2024-04-21T12:35:42.994Z</time>
      </trkpt>
      <trkpt lat="43.00186" lon="1.13357">
        <ele>381.4</ele>
        <time>2024-04-21T12:35:43.994Z</time>
      </trkpt>
      <trkpt lat="43.00182" lon="1.13361">
        <ele>381.4</ele>
        <time>2024-04-21T12:35:44.994Z</time>
      </trkpt>
      <trkpt lat="43.00179" lon="1.13364">
        <ele>381.6</ele>
        <time>2024-04-21T12:35:45.994Z</time>
      </trkpt>
      <trkpt lat="43.00175" lon="1.13368">
        <ele>381.6</ele>
        <time>2024-04-21T12:35:46.994Z</time>
      </trkpt>
      <trkpt lat="43.00172" lon="1.13372">
        <ele>382</ele>
        <time>2024-04-21T12:35:47.994Z</time>
      </trkpt>
      <trkpt lat="43.00168" lon="1.13375">
        <ele>382</ele>
        <time>2024-04-21T12:35:48.994Z</time>
      </trkpt>
      <trkpt lat="43.00164" lon="1.13378">
        <ele>382</ele>
        <time>2024-04-21T12:35:49.994Z</time>
      </trkpt>
      <trkpt lat="43.0016" lon="1.13381">
        <ele>382.2</ele>
        <time>2024-04-21T12:35:50.994Z</time>
      </trkpt>
      <trkpt lat="43.00156" lon="1.13384">
        <ele>382.6</ele>
        <time>2024-04-21T12:35:51.994Z</time>
      </trkpt>
      <trkpt lat="43.00152" lon="1.13386">
        <ele>382.8</ele>
        <time>2024-04-21T12:35:52.994Z</time>
      </trkpt>
      <trkpt lat="43.00148" lon="1.13389">
        <ele>383</ele>
        <time>2024-04-21T12:35:53.994Z</time>
      </trkpt>
      <trkpt lat="43.00144" lon="1.13392">
        <ele>383</ele>
        <time>2024-04-21T12:35:54.994Z</time>
      </trkpt>
      <trkpt lat="43.00139" lon="1.13395">
        <ele>383.6</ele>
        <time>2024-04-21T12:35:55.994Z</time>
      </trkpt>
      <trkpt lat="43.00135" lon="1.13398">
        <ele>383.6</ele>
        <time>2024-04-21T12:35:56.994Z</time>
      </trkpt>
      <trkpt lat="43.0013" lon="1.134">
        <ele>383.8</ele>
        <time>2024-04-21T12:35:57.994Z</time>
      </trkpt>
      <trkpt lat="43.00126" lon="1.13403">
        <ele>383.8</ele>
        <time>2024-04-21T12:35:58.994Z</time>
      </trkpt>
      <trkpt lat="43.00122" lon="1.13405">
        <ele>383.8</ele>
        <time>2024-04-21T12:35:59.994Z</time>
      </trkpt>
      <trkpt lat="43.00118" lon="1.13408">
        <ele>384.2</ele>
        <time>2024-04-21T12:36:00.994Z</time>
      </trkpt>
      <trkpt lat="43.00114" lon="1.1341">
        <ele>384.2</ele>
        <time>2024-04-21T12:36:01.994Z</time>
      </trkpt>
      <trkpt lat="43.0011" lon="1.13413">
        <ele>384.6</ele>
        <time>2024-04-21T12:36:02.994Z</time>
      </trkpt>
      <trkpt lat="43.00106" lon="1.13415">
        <ele>385</ele>
        <time>2024-04-21T12:36:03.994Z</time>
      </trkpt>
      <trkpt lat="43.00102" lon="1.13416">
        <ele>385.2</ele>
        <time>2024-04-21T12:36:04.994Z</time>
      </trkpt>
      <trkpt lat="43.00098" lon="1.13418">
        <ele>385.6</ele>
        <time>2024-04-21T12:36:05.994Z</time>
      </trkpt>
      <trkpt lat="43.00095" lon="1.1342">
        <ele>385.6</ele>
        <time>2024-04-21T12:36:06.994Z</time>
      </trkpt>
      <trkpt lat="43.00091" lon="1.13421">
        <ele>385.6</ele>
        <time>2024-04-21T12:36:07.994Z</time>
      </trkpt>
      <trkpt lat="43.00088" lon="1.13423">
        <ele>385.8</ele>
        <time>2024-04-21T12:36:08.994Z</time>
      </trkpt>
      <trkpt lat="43.00084" lon="1.13425">
        <ele>385.8</ele>
        <time>2024-04-21T12:36:09.994Z</time>
      </trkpt>
      <trkpt lat="43.00081" lon="1.13426">
        <ele>386.2</ele>
        <time>2024-04-21T12:36:10.994Z</time>
      </trkpt>
      <trkpt lat="43.00078" lon="1.13427">
        <ele>386.2</ele>
        <time>2024-04-21T12:36:11.994Z</time>
      </trkpt>
      <trkpt lat="43.00074" lon="1.13428">
        <ele>386.2</ele>
        <time>2024-04-21T12:36:12.994Z</time>
      </trkpt>
      <trkpt lat="43.00071" lon="1.13429">
        <ele>386.2</ele>
        <time>2024-04-21T12:36:13.994Z</time>
      </trkpt>
      <trkpt lat="43.00067" lon="1.1343">
        <ele>386.2</ele>
        <time>2024-04-21T12:36:14.994Z</time>
      </trkpt>
      <trkpt lat="43.00064" lon="1.13432">
        <ele>386.2</ele>
        <time>2024-04-21T12:36:15.994Z</time>
      </trkpt>
      <trkpt lat="43.0006" lon="1.13434">
        <ele>386.4</ele>
        <time>2024-04-21T12:36:16.994Z</time>
      </trkpt>
      <trkpt lat="43.00056" lon="1.13436">
        <ele>386.4</ele>
        <time>2024-04-21T12:36:17.994Z</time>
      </trkpt>
      <trkpt lat="43.00053" lon="1.13437">
        <ele>386.4</ele>
        <time>2024-04-21T12:36:18.994Z</time>
      </trkpt>
      <trkpt lat="43.00049" lon="1.13439">
        <ele>386.4</ele>
        <time>2024-04-21T12:36:19.994Z</time>
      </trkpt>
      <trkpt lat="43.00046" lon="1.1344">
        <ele>386.4</ele>
        <time>2024-04-21T12:36:20.994Z</time>
      </trkpt>
      <trkpt lat="43.00043" lon="1.13442">
        <ele>386.8</ele>
        <time>2024-04-21T12:36:21.994Z</time>
      </trkpt>
      <trkpt lat="43.0004" lon="1.13443">
        <ele>386.8</ele>
        <time>2024-04-21T12:36:22.994Z</time>
      </trkpt>
      <trkpt lat="43.00038" lon="1.13445">
        <ele>386.8</ele>
        <time>2024-04-21T12:36:23.994Z</time>
      </trkpt>
      <trkpt lat="43.00036" lon="1.13448">
        <ele>386.8</ele>
        <time>2024-04-21T12:36:24.994Z</time>
      </trkpt>
      <trkpt lat="43.00036" lon="1.13448">
        <ele>386.8</ele>
        <time>2024-04-21T12:36:25.994Z</time>
      </trkpt>
      <trkpt lat="43.00035" lon="1.13452">
        <ele>386.8</ele>
        <time>2024-04-21T12:36:26.994Z</time>
      </trkpt>
      <trkpt lat="43.00036" lon="1.13455">
        <ele>387</ele>
        <time>2024-04-21T12:36:27.994Z</time>
      </trkpt>
      <trkpt lat="43.00037" lon="1.13459">
        <ele>387</ele>
        <time>2024-04-21T12:36:28.994Z</time>
      </trkpt>
      <trkpt lat="43.00039" lon="1.13463">
        <ele>387.4</ele>
        <time>2024-04-21T12:36:29.994Z</time>
      </trkpt>
      <trkpt lat="43.0004" lon="1.13466">
        <ele>387.4</ele>
        <time>2024-04-21T12:36:30.994Z</time>
      </trkpt>
      <trkpt lat="43.00042" lon="1.13469">
        <ele>387.6</ele>
        <time>2024-04-21T12:36:31.994Z</time>
      </trkpt>
      <trkpt lat="43.00043" lon="1.13473">
        <ele>387.6</ele>
        <time>2024-04-21T12:36:32.994Z</time>
      </trkpt>
      <trkpt lat="43.00043" lon="1.13476">
        <ele>387.6</ele>
        <time>2024-04-21T12:36:33.994Z</time>
      </trkpt>
      <trkpt lat="43.00045" lon="1.13479">
        <ele>387.6</ele>
        <time>2024-04-21T12:36:34.994Z</time>
      </trkpt>
      <trkpt lat="43.00046" lon="1.13483">
        <ele>387.6</ele>
        <time>2024-04-21T12:36:35.994Z</time>
      </trkpt>
      <trkpt lat="43.00047" lon="1.13487">
        <ele>387.6</ele>
        <time>2024-04-21T12:36:36.994Z</time>
      </trkpt>
      <trkpt lat="43.00049" lon="1.13491">
        <ele>387.6</ele>
        <time>2024-04-21T12:36:37.994Z</time>
      </trkpt>
      <trkpt lat="43.0005" lon="1.13494">
        <ele>387.6</ele>
        <time>2024-04-21T12:36:38.994Z</time>
      </trkpt>
      <trkpt lat="43.00051" lon="1.13496">
        <ele>387.8</ele>
        <time>2024-04-21T12:36:39.994Z</time>
      </trkpt>
      <trkpt lat="43.00052" lon="1.13498">
        <ele>387.8</ele>
        <time>2024-04-21T12:36:40.994Z</time>
      </trkpt>
      <trkpt lat="43.00053" lon="1.13498">
        <ele>387.8</ele>
        <time>2024-04-21T12:36:41.994Z</time>
      </trkpt>
      <trkpt lat="43.00053" lon="1.13499">
        <ele>387.8</ele>
        <time>2024-04-21T12:36:42.994Z</time>
      </trkpt>
      <trkpt lat="43.00052" lon="1.13501">
        <ele>387.8</ele>
        <time>2024-04-21T12:36:43.994Z</time>
      </trkpt>
      <trkpt lat="43.00051" lon="1.13503">
        <ele>387.6</ele>
        <time>2024-04-21T12:36:44.994Z</time>
      </trkpt>
      <trkpt lat="43.0005" lon="1.13506">
        <ele>387.6</ele>
        <time>2024-04-21T12:36:45.994Z</time>
      </trkpt>
      <trkpt lat="43.00048" lon="1.13509">
        <ele>387.6</ele>
        <time>2024-04-21T12:36:46.994Z</time>
      </trkpt>
      <trkpt lat="43.00047" lon="1.13513">
        <ele>387.6</ele>
        <time>2024-04-21T12:36:47.994Z</time>
      </trkpt>
      <trkpt lat="43.00045" lon="1.13517">
        <ele>387.6</ele>
        <time>2024-04-21T12:36:48.994Z</time>
      </trkpt>
      <trkpt lat="43.00043" lon="1.13522">
        <ele>387.6</ele>
        <time>2024-04-21T12:36:49.994Z</time>
      </trkpt>
      <trkpt lat="43.00041" lon="1.13526">
        <ele>387.6</ele>
        <time>2024-04-21T12:36:50.994Z</time>
      </trkpt>
      <trkpt lat="43.00038" lon="1.13534">
        <ele>388</ele>
        <time>2024-04-21T12:36:51.994Z</time>
      </trkpt>
      <trkpt lat="43.00037" lon="1.13538">
        <ele>388</ele>
        <time>2024-04-21T12:36:52.994Z</time>
      </trkpt>
      <trkpt lat="43.00037" lon="1.13542">
        <ele>388.2</ele>
        <time>2024-04-21T12:36:53.994Z</time>
      </trkpt>
      <trkpt lat="43.00036" lon="1.13546">
        <ele>388.6</ele>
        <time>2024-04-21T12:36:54.994Z</time>
      </trkpt>
      <trkpt lat="43.00035" lon="1.1355">
        <ele>388.8</ele>
        <time>2024-04-21T12:36:55.994Z</time>
      </trkpt>
      <trkpt lat="43.00034" lon="1.13554">
        <ele>389</ele>
        <time>2024-04-21T12:36:56.994Z</time>
      </trkpt>
      <trkpt lat="43.00033" lon="1.13557">
        <ele>389</ele>
        <time>2024-04-21T12:36:57.994Z</time>
      </trkpt>
      <trkpt lat="43.00032" lon="1.13561">
        <ele>389.4</ele>
        <time>2024-04-21T12:36:58.994Z</time>
      </trkpt>
      <trkpt lat="43.00031" lon="1.13564">
        <ele>389.4</ele>
        <time>2024-04-21T12:36:59.994Z</time>
      </trkpt>
      <trkpt lat="43.0003" lon="1.13568">
        <ele>389.8</ele>
        <time>2024-04-21T12:37:00.994Z</time>
      </trkpt>
      <trkpt lat="43.00029" lon="1.13571">
        <ele>390</ele>
        <time>2024-04-21T12:37:01.994Z</time>
      </trkpt>
      <trkpt lat="43.00028" lon="1.13575">
        <ele>390</ele>
        <time>2024-04-21T12:37:02.994Z</time>
      </trkpt>
      <trkpt lat="43.00026" lon="1.13578">
        <ele>390.2</ele>
        <time>2024-04-21T12:37:03.994Z</time>
      </trkpt>
      <trkpt lat="43.00025" lon="1.13581">
        <ele>390.6</ele>
        <time>2024-04-21T12:37:04.994Z</time>
      </trkpt>
      <trkpt lat="43.00024" lon="1.13584">
        <ele>391.2</ele>
        <time>2024-04-21T12:37:05.994Z</time>
      </trkpt>
      <trkpt lat="43.00023" lon="1.13588">
        <ele>391.2</ele>
        <time>2024-04-21T12:37:06.994Z</time>
      </trkpt>
      <trkpt lat="43.00022" lon="1.13591">
        <ele>391.8</ele>
        <time>2024-04-21T12:37:07.994Z</time>
      </trkpt>
      <trkpt lat="43.00021" lon="1.13594">
        <ele>392.2</ele>
        <time>2024-04-21T12:37:08.994Z</time>
      </trkpt>
      <trkpt lat="43.00021" lon="1.13597">
        <ele>392.4</ele>
        <time>2024-04-21T12:37:09.994Z</time>
      </trkpt>
      <trkpt lat="43.00021" lon="1.136">
        <ele>392.6</ele>
        <time>2024-04-21T12:37:10.994Z</time>
      </trkpt>
      <trkpt lat="43.00021" lon="1.13604">
        <ele>393.2</ele>
        <time>2024-04-21T12:37:11.994Z</time>
      </trkpt>
      <trkpt lat="43.0002" lon="1.13608">
        <ele>393.4</ele>
        <time>2024-04-21T12:37:12.994Z</time>
      </trkpt>
      <trkpt lat="43.0002" lon="1.13611">
        <ele>393.6</ele>
        <time>2024-04-21T12:37:13.994Z</time>
      </trkpt>
      <trkpt lat="43.00019" lon="1.13614">
        <ele>394.2</ele>
        <time>2024-04-21T12:37:14.994Z</time>
      </trkpt>
      <trkpt lat="43.00018" lon="1.13617">
        <ele>394.4</ele>
        <time>2024-04-21T12:37:15.994Z</time>
      </trkpt>
      <trkpt lat="43.00017" lon="1.1362">
        <ele>394.8</ele>
        <time>2024-04-21T12:37:16.994Z</time>
      </trkpt>
      <trkpt lat="43.00016" lon="1.13623">
        <ele>394.8</ele>
        <time>2024-04-21T12:37:17.994Z</time>
      </trkpt>
      <trkpt lat="43.00015" lon="1.13626">
        <ele>395.2</ele>
        <time>2024-04-21T12:37:18.994Z</time>
      </trkpt>
      <trkpt lat="43.00014" lon="1.13629">
        <ele>395.6</ele>
        <time>2024-04-21T12:37:19.994Z</time>
      </trkpt>
      <trkpt lat="43.00014" lon="1.13633">
        <ele>395.8</ele>
        <time>2024-04-21T12:37:20.994Z</time>
      </trkpt>
      <trkpt lat="43.00013" lon="1.13636">
        <ele>396.2</ele>
        <time>2024-04-21T12:37:21.994Z</time>
      </trkpt>
      <trkpt lat="43.00011" lon="1.13638">
        <ele>396.2</ele>
        <time>2024-04-21T12:37:22.994Z</time>
      </trkpt>
      <trkpt lat="43.0001" lon="1.13641">
        <ele>396.8</ele>
        <time>2024-04-21T12:37:23.994Z</time>
      </trkpt>
      <trkpt lat="43.00009" lon="1.13643">
        <ele>397</ele>
        <time>2024-04-21T12:37:24.994Z</time>
      </trkpt>
      <trkpt lat="43.00008" lon="1.13646">
        <ele>397.4</ele>
        <time>2024-04-21T12:37:25.994Z</time>
      </trkpt>
      <trkpt lat="43.00007" lon="1.13648">
        <ele>397.4</ele>
        <time>2024-04-21T12:37:26.994Z</time>
      </trkpt>
      <trkpt lat="43.00005" lon="1.13651">
        <ele>398.4</ele>
        <time>2024-04-21T12:37:27.994Z</time>
      </trkpt>
      <trkpt lat="43.00004" lon="1.13653">
        <ele>398.6</ele>
        <time>2024-04-21T12:37:28.994Z</time>
      </trkpt>
      <trkpt lat="43.00003" lon="1.13656">
        <ele>399</ele>
        <time>2024-04-21T12:37:29.994Z</time>
      </trkpt>
      <trkpt lat="43.00002" lon="1.13659">
        <ele>399.2</ele>
        <time>2024-04-21T12:37:30.994Z</time>
      </trkpt>
      <trkpt lat="43" lon="1.13662">
        <ele>399.4</ele>
        <time>2024-04-21T12:37:31.994Z</time>
      </trkpt>
      <trkpt lat="42.99999" lon="1.13664">
        <ele>399.8</ele>
        <time>2024-04-21T12:37:32.994Z</time>
      </trkpt>
      <trkpt lat="42.99997" lon="1.13667">
        <ele>400.2</ele>
        <time>2024-04-21T12:37:33.994Z</time>
      </trkpt>
      <trkpt lat="42.99995" lon="1.1367">
        <ele>400.6</ele>
        <time>2024-04-21T12:37:34.994Z</time>
      </trkpt>
      <trkpt lat="42.99994" lon="1.13673">
        <ele>401</ele>
        <time>2024-04-21T12:37:35.994Z</time>
      </trkpt>
      <trkpt lat="42.99992" lon="1.13676">
        <ele>401.2</ele>
        <time>2024-04-21T12:37:36.994Z</time>
      </trkpt>
      <trkpt lat="42.99991" lon="1.13679">
        <ele>401.6</ele>
        <time>2024-04-21T12:37:37.994Z</time>
      </trkpt>
      <trkpt lat="42.99989" lon="1.13682">
        <ele>401.8</ele>
        <time>2024-04-21T12:37:38.994Z</time>
      </trkpt>
      <trkpt lat="42.99988" lon="1.13684">
        <ele>401.8</ele>
        <time>2024-04-21T12:37:39.994Z</time>
      </trkpt>
      <trkpt lat="42.99987" lon="1.13687">
        <ele>402.2</ele>
        <time>2024-04-21T12:37:40.994Z</time>
      </trkpt>
      <trkpt lat="42.99985" lon="1.13689">
        <ele>402.4</ele>
        <time>2024-04-21T12:37:41.994Z</time>
      </trkpt>
      <trkpt lat="42.99984" lon="1.13692">
        <ele>402.8</ele>
        <time>2024-04-21T12:37:42.994Z</time>
      </trkpt>
      <trkpt lat="42.99983" lon="1.13695">
        <ele>403</ele>
        <time>2024-04-21T12:37:43.994Z</time>
      </trkpt>
      <trkpt lat="42.99981" lon="1.13698">
        <ele>403.4</ele>
        <time>2024-04-21T12:37:44.994Z</time>
      </trkpt>
      <trkpt lat="42.9998" lon="1.137">
        <ele>403.6</ele>
        <time>2024-04-21T12:37:45.994Z</time>
      </trkpt>
      <trkpt lat="42.9998" lon="1.13703">
        <ele>403.8</ele>
        <time>2024-04-21T12:37:46.994Z</time>
      </trkpt>
      <trkpt lat="42.9998" lon="1.13706">
        <ele>404.2</ele>
        <time>2024-04-21T12:37:47.994Z</time>
      </trkpt>
      <trkpt lat="42.9998" lon="1.1371">
        <ele>404.4</ele>
        <time>2024-04-21T12:37:48.994Z</time>
      </trkpt>
      <trkpt lat="42.9998" lon="1.13712">
        <ele>404.6</ele>
        <time>2024-04-21T12:37:49.994Z</time>
      </trkpt>
      <trkpt lat="42.99981" lon="1.13715">
        <ele>405</ele>
        <time>2024-04-21T12:37:50.994Z</time>
      </trkpt>
      <trkpt lat="42.99982" lon="1.13718">
        <ele>405.4</ele>
        <time>2024-04-21T12:37:51.994Z</time>
      </trkpt>
      <trkpt lat="42.99983" lon="1.13721">
        <ele>405.4</ele>
        <time>2024-04-21T12:37:52.994Z</time>
      </trkpt>
      <trkpt lat="42.99984" lon="1.13724">
        <ele>405.8</ele>
        <time>2024-04-21T12:37:53.994Z</time>
      </trkpt>
      <trkpt lat="42.99986" lon="1.13728">
        <ele>406</ele>
        <time>2024-04-21T12:37:54.994Z</time>
      </trkpt>
      <trkpt lat="42.99988" lon="1.13731">
        <ele>406.4</ele>
        <time>2024-04-21T12:37:55.994Z</time>
      </trkpt>
      <trkpt lat="42.99989" lon="1.13734">
        <ele>406.4</ele>
        <time>2024-04-21T12:37:56.994Z</time>
      </trkpt>
      <trkpt lat="42.9999" lon="1.13737">
        <ele>406.6</ele>
        <time>2024-04-21T12:37:57.994Z</time>
      </trkpt>
      <trkpt lat="42.99992" lon="1.13741">
        <ele>407</ele>
        <time>2024-04-21T12:37:58.994Z</time>
      </trkpt>
      <trkpt lat="42.99993" lon="1.13744">
        <ele>407.2</ele>
        <time>2024-04-21T12:37:59.994Z</time>
      </trkpt>
      <trkpt lat="42.99994" lon="1.13747">
        <ele>407.4</ele>
        <time>2024-04-21T12:38:00.994Z</time>
      </trkpt>
      <trkpt lat="42.99996" lon="1.13749">
        <ele>407.8</ele>
        <time>2024-04-21T12:38:01.994Z</time>
      </trkpt>
      <trkpt lat="42.99999" lon="1.13751">
        <ele>408</ele>
        <time>2024-04-21T12:38:02.994Z</time>
      </trkpt>
      <trkpt lat="43.00001" lon="1.13752">
        <ele>408</ele>
        <time>2024-04-21T12:38:03.994Z</time>
      </trkpt>
      <trkpt lat="43.00004" lon="1.13751">
        <ele>408.4</ele>
        <time>2024-04-21T12:38:04.994Z</time>
      </trkpt>
      <trkpt lat="43.00007" lon="1.1375">
        <ele>408.4</ele>
        <time>2024-04-21T12:38:05.994Z</time>
      </trkpt>
      <trkpt lat="43.0001" lon="1.13749">
        <ele>408.6</ele>
        <time>2024-04-21T12:38:06.994Z</time>
      </trkpt>
      <trkpt lat="43.00013" lon="1.13748">
        <ele>408.6</ele>
        <time>2024-04-21T12:38:07.994Z</time>
      </trkpt>
      <trkpt lat="43.00016" lon="1.13746">
        <ele>408.6</ele>
        <time>2024-04-21T12:38:08.994Z</time>
      </trkpt>
      <trkpt lat="43.00019" lon="1.13745">
        <ele>409</ele>
        <time>2024-04-21T12:38:09.994Z</time>
      </trkpt>
      <trkpt lat="43.00021" lon="1.13743">
        <ele>409.2</ele>
        <time>2024-04-21T12:38:10.994Z</time>
      </trkpt>
      <trkpt lat="43.00023" lon="1.13741">
        <ele>409.2</ele>
        <time>2024-04-21T12:38:11.994Z</time>
      </trkpt>
      <trkpt lat="43.00026" lon="1.13738">
        <ele>409.6</ele>
        <time>2024-04-21T12:38:12.994Z</time>
      </trkpt>
      <trkpt lat="43.00028" lon="1.13736">
        <ele>409.8</ele>
        <time>2024-04-21T12:38:13.994Z</time>
      </trkpt>
      <trkpt lat="43.0003" lon="1.13734">
        <ele>410.2</ele>
        <time>2024-04-21T12:38:14.994Z</time>
      </trkpt>
      <trkpt lat="43.00032" lon="1.13732">
        <ele>410.4</ele>
        <time>2024-04-21T12:38:15.994Z</time>
      </trkpt>
      <trkpt lat="43.00034" lon="1.1373">
        <ele>410.6</ele>
        <time>2024-04-21T12:38:16.994Z</time>
      </trkpt>
      <trkpt lat="43.00036" lon="1.13728">
        <ele>411</ele>
        <time>2024-04-21T12:38:17.994Z</time>
      </trkpt>
      <trkpt lat="43.00039" lon="1.13726">
        <ele>411.2</ele>
        <time>2024-04-21T12:38:18.994Z</time>
      </trkpt>
      <trkpt lat="43.00041" lon="1.13724">
        <ele>411.6</ele>
        <time>2024-04-21T12:38:19.994Z</time>
      </trkpt>
      <trkpt lat="43.00043" lon="1.13722">
        <ele>411.8</ele>
        <time>2024-04-21T12:38:20.994Z</time>
      </trkpt>
      <trkpt lat="43.00046" lon="1.1372">
        <ele>411.8</ele>
        <time>2024-04-21T12:38:21.994Z</time>
      </trkpt>
      <trkpt lat="43.00048" lon="1.13718">
        <ele>412.4</ele>
        <time>2024-04-21T12:38:22.994Z</time>
      </trkpt>
      <trkpt lat="43.0005" lon="1.13716">
        <ele>412.4</ele>
        <time>2024-04-21T12:38:23.994Z</time>
      </trkpt>
      <trkpt lat="43.00052" lon="1.13714">
        <ele>412.6</ele>
        <time>2024-04-21T12:38:24.994Z</time>
      </trkpt>
      <trkpt lat="43.00054" lon="1.13712">
        <ele>412.8</ele>
        <time>2024-04-21T12:38:25.994Z</time>
      </trkpt>
      <trkpt lat="43.00056" lon="1.13711">
        <ele>412.8</ele>
        <time>2024-04-21T12:38:26.994Z</time>
      </trkpt>
      <trkpt lat="43.00058" lon="1.13709">
        <ele>413.4</ele>
        <time>2024-04-21T12:38:27.994Z</time>
      </trkpt>
      <trkpt lat="43.0006" lon="1.13707">
        <ele>413.8</ele>
        <time>2024-04-21T12:38:28.994Z</time>
      </trkpt>
      <trkpt lat="43.00063" lon="1.13705">
        <ele>414</ele>
        <time>2024-04-21T12:38:29.994Z</time>
      </trkpt>
      <trkpt lat="43.00065" lon="1.13703">
        <ele>414.2</ele>
        <time>2024-04-21T12:38:30.994Z</time>
      </trkpt>
      <trkpt lat="43.00067" lon="1.13701">
        <ele>414.2</ele>
        <time>2024-04-21T12:38:31.994Z</time>
      </trkpt>
      <trkpt lat="43.00069" lon="1.137">
        <ele>414.6</ele>
        <time>2024-04-21T12:38:32.994Z</time>
      </trkpt>
      <trkpt lat="43.00071" lon="1.13698">
        <ele>415.2</ele>
        <time>2024-04-21T12:38:33.994Z</time>
      </trkpt>
      <trkpt lat="43.00073" lon="1.13697">
        <ele>415.6</ele>
        <time>2024-04-21T12:38:34.994Z</time>
      </trkpt>
      <trkpt lat="43.00075" lon="1.13697">
        <ele>416</ele>
        <time>2024-04-21T12:38:35.994Z</time>
      </trkpt>
      <trkpt lat="43.00078" lon="1.137">
        <ele>416.4</ele>
        <time>2024-04-21T12:38:36.994Z</time>
      </trkpt>
      <trkpt lat="43.00079" lon="1.13704">
        <ele>416.6</ele>
        <time>2024-04-21T12:38:37.994Z</time>
      </trkpt>
      <trkpt lat="43.00081" lon="1.13708">
        <ele>416.8</ele>
        <time>2024-04-21T12:38:38.994Z</time>
      </trkpt>
      <trkpt lat="43.00081" lon="1.13712">
        <ele>417</ele>
        <time>2024-04-21T12:38:39.994Z</time>
      </trkpt>
      <trkpt lat="43.00081" lon="1.13716">
        <ele>417.4</ele>
        <time>2024-04-21T12:38:40.994Z</time>
      </trkpt>
      <trkpt lat="43.0008" lon="1.1372">
        <ele>417.4</ele>
        <time>2024-04-21T12:38:41.994Z</time>
      </trkpt>
      <trkpt lat="43.00079" lon="1.13724">
        <ele>417.4</ele>
        <time>2024-04-21T12:38:42.994Z</time>
      </trkpt>
      <trkpt lat="43.00079" lon="1.13728">
        <ele>417.6</ele>
        <time>2024-04-21T12:38:43.994Z</time>
      </trkpt>
      <trkpt lat="43.00079" lon="1.13732">
        <ele>417.8</ele>
        <time>2024-04-21T12:38:44.994Z</time>
      </trkpt>
      <trkpt lat="43.00078" lon="1.13736">
        <ele>417.8</ele>
        <time>2024-04-21T12:38:45.994Z</time>
      </trkpt>
      <trkpt lat="43.00078" lon="1.1374">
        <ele>418</ele>
        <time>2024-04-21T12:38:46.994Z</time>
      </trkpt>
      <trkpt lat="43.00077" lon="1.13744">
        <ele>418</ele>
        <time>2024-04-21T12:38:47.994Z</time>
      </trkpt>
      <trkpt lat="43.00077" lon="1.13749">
        <ele>418</ele>
        <time>2024-04-21T12:38:48.994Z</time>
      </trkpt>
      <trkpt lat="43.00077" lon="1.13753">
        <ele>418.4</ele>
        <time>2024-04-21T12:38:49.994Z</time>
      </trkpt>
      <trkpt lat="43.00077" lon="1.13756">
        <ele>418.6</ele>
        <time>2024-04-21T12:38:50.994Z</time>
      </trkpt>
      <trkpt lat="43.00076" lon="1.1376">
        <ele>418.6</ele>
        <time>2024-04-21T12:38:51.994Z</time>
      </trkpt>
      <trkpt lat="43.00076" lon="1.13763">
        <ele>418.6</ele>
        <time>2024-04-21T12:38:52.994Z</time>
      </trkpt>
      <trkpt lat="43.00076" lon="1.13766">
        <ele>418.6</ele>
        <time>2024-04-21T12:38:53.994Z</time>
      </trkpt>
      <trkpt lat="43.00076" lon="1.13768">
        <ele>419</ele>
        <time>2024-04-21T12:38:54.994Z</time>
      </trkpt>
      <trkpt lat="43.00076" lon="1.13769">
        <ele>419</ele>
        <time>2024-04-21T12:38:55.994Z</time>
      </trkpt>
      <trkpt lat="43.00076" lon="1.13771">
        <ele>419</ele>
        <time>2024-04-21T12:38:56.994Z</time>
      </trkpt>
      <trkpt lat="43.00076" lon="1.13773">
        <ele>419.2</ele>
        <time>2024-04-21T12:38:57.994Z</time>
      </trkpt>
      <trkpt lat="43.00078" lon="1.13776">
        <ele>419.2</ele>
        <time>2024-04-21T12:38:58.994Z</time>
      </trkpt>
      <trkpt lat="43.0008" lon="1.13778">
        <ele>419.2</ele>
        <time>2024-04-21T12:38:59.994Z</time>
      </trkpt>
      <trkpt lat="43.00083" lon="1.1378">
        <ele>419.6</ele>
        <time>2024-04-21T12:39:00.994Z</time>
      </trkpt>
      <trkpt lat="43.00086" lon="1.13781">
        <ele>419.8</ele>
        <time>2024-04-21T12:39:01.994Z</time>
      </trkpt>
      <trkpt lat="43.00089" lon="1.13782">
        <ele>420</ele>
        <time>2024-04-21T12:39:02.994Z</time>
      </trkpt>
      <trkpt lat="43.00092" lon="1.13783">
        <ele>420.2</ele>
        <time>2024-04-21T12:39:03.994Z</time>
      </trkpt>
      <trkpt lat="43.00095" lon="1.13783">
        <ele>420.2</ele>
        <time>2024-04-21T12:39:04.994Z</time>
      </trkpt>
      <trkpt lat="43.00098" lon="1.13784">
        <ele>420.6</ele>
        <time>2024-04-21T12:39:05.994Z</time>
      </trkpt>
      <trkpt lat="43.00101" lon="1.13784">
        <ele>420.6</ele>
        <time>2024-04-21T12:39:06.994Z</time>
      </trkpt>
      <trkpt lat="43.00104" lon="1.13784">
        <ele>421.2</ele>
        <time>2024-04-21T12:39:07.994Z</time>
      </trkpt>
      <trkpt lat="43.00107" lon="1.13784">
        <ele>421.6</ele>
        <time>2024-04-21T12:39:08.994Z</time>
      </trkpt>
      <trkpt lat="43.0011" lon="1.13785">
        <ele>422</ele>
        <time>2024-04-21T12:39:09.994Z</time>
      </trkpt>
      <trkpt lat="43.00112" lon="1.13785">
        <ele>422.2</ele>
        <time>2024-04-21T12:39:10.994Z</time>
      </trkpt>
      <trkpt lat="43.00115" lon="1.13786">
        <ele>422.6</ele>
        <time>2024-04-21T12:39:11.994Z</time>
      </trkpt>
      <trkpt lat="43.00118" lon="1.13786">
        <ele>422.6</ele>
        <time>2024-04-21T12:39:12.994Z</time>
      </trkpt>
      <trkpt lat="43.00121" lon="1.13786">
        <ele>423</ele>
        <time>2024-04-21T12:39:13.994Z</time>
      </trkpt>
      <trkpt lat="43.00123" lon="1.13787">
        <ele>423.2</ele>
        <time>2024-04-21T12:39:14.994Z</time>
      </trkpt>
      <trkpt lat="43.00126" lon="1.13788">
        <ele>423.2</ele>
        <time>2024-04-21T12:39:15.994Z</time>
      </trkpt>
      <trkpt lat="43.00129" lon="1.13788">
        <ele>423.6</ele>
        <time>2024-04-21T12:39:16.994Z</time>
      </trkpt>
      <trkpt lat="43.00131" lon="1.13788">
        <ele>423.6</ele>
        <time>2024-04-21T12:39:17.994Z</time>
      </trkpt>
      <trkpt lat="43.00134" lon="1.13789">
        <ele>424</ele>
        <time>2024-04-21T12:39:18.994Z</time>
      </trkpt>
      <trkpt lat="43.00136" lon="1.13789">
        <ele>424.2</ele>
        <time>2024-04-21T12:39:19.994Z</time>
      </trkpt>
      <trkpt lat="43.00139" lon="1.13789">
        <ele>424.4</ele>
        <time>2024-04-21T12:39:20.994Z</time>
      </trkpt>
      <trkpt lat="43.00141" lon="1.13789">
        <ele>424.6</ele>
        <time>2024-04-21T12:39:21.994Z</time>
      </trkpt>
      <trkpt lat="43.00143" lon="1.13789">
        <ele>425</ele>
        <time>2024-04-21T12:39:22.994Z</time>
      </trkpt>
      <trkpt lat="43.00146" lon="1.13789">
        <ele>425.2</ele>
        <time>2024-04-21T12:39:23.994Z</time>
      </trkpt>
      <trkpt lat="43.00149" lon="1.13788">
        <ele>425.6</ele>
        <time>2024-04-21T12:39:24.994Z</time>
      </trkpt>
      <trkpt lat="43.00152" lon="1.13788">
        <ele>426</ele>
        <time>2024-04-21T12:39:25.994Z</time>
      </trkpt>
      <trkpt lat="43.00155" lon="1.13787">
        <ele>426.4</ele>
        <time>2024-04-21T12:39:26.994Z</time>
      </trkpt>
      <trkpt lat="43.00158" lon="1.13788">
        <ele>426.8</ele>
        <time>2024-04-21T12:39:27.994Z</time>
      </trkpt>
      <trkpt lat="43.00161" lon="1.13789">
        <ele>427.2</ele>
        <time>2024-04-21T12:39:28.994Z</time>
      </trkpt>
      <trkpt lat="43.00164" lon="1.1379">
        <ele>427.4</ele>
        <time>2024-04-21T12:39:29.994Z</time>
      </trkpt>
      <trkpt lat="43.00167" lon="1.1379">
        <ele>427.8</ele>
        <time>2024-04-21T12:39:30.994Z</time>
      </trkpt>
      <trkpt lat="43.0017" lon="1.1379">
        <ele>428.2</ele>
        <time>2024-04-21T12:39:31.994Z</time>
      </trkpt>
      <trkpt lat="43.00173" lon="1.1379">
        <ele>428.6</ele>
        <time>2024-04-21T12:39:32.994Z</time>
      </trkpt>
      <trkpt lat="43.00176" lon="1.13789">
        <ele>429</ele>
        <time>2024-04-21T12:39:33.994Z</time>
      </trkpt>
      <trkpt lat="43.00178" lon="1.13788">
        <ele>429</ele>
        <time>2024-04-21T12:39:34.994Z</time>
      </trkpt>
      <trkpt lat="43.00181" lon="1.13788">
        <ele>429.6</ele>
        <time>2024-04-21T12:39:35.994Z</time>
      </trkpt>
      <trkpt lat="43.00184" lon="1.13788">
        <ele>430</ele>
        <time>2024-04-21T12:39:36.994Z</time>
      </trkpt>
      <trkpt lat="43.00186" lon="1.13789">
        <ele>430.4</ele>
        <time>2024-04-21T12:39:37.994Z</time>
      </trkpt>
      <trkpt lat="43.00189" lon="1.13792">
        <ele>430.6</ele>
        <time>2024-04-21T12:39:38.994Z</time>
      </trkpt>
      <trkpt lat="43.00191" lon="1.13796">
        <ele>430.6</ele>
        <time>2024-04-21T12:39:39.994Z</time>
      </trkpt>
      <trkpt lat="43.00191" lon="1.138">
        <ele>431</ele>
        <time>2024-04-21T12:39:40.994Z</time>
      </trkpt>
      <trkpt lat="43.00191" lon="1.13805">
        <ele>431</ele>
        <time>2024-04-21T12:39:41.994Z</time>
      </trkpt>
      <trkpt lat="43.00191" lon="1.1381">
        <ele>431</ele>
        <time>2024-04-21T12:39:42.994Z</time>
      </trkpt>
      <trkpt lat="43.00192" lon="1.13816">
        <ele>431</ele>
        <time>2024-04-21T12:39:43.994Z</time>
      </trkpt>
      <trkpt lat="43.00193" lon="1.13823">
        <ele>431</ele>
        <time>2024-04-21T12:39:44.994Z</time>
      </trkpt>
      <trkpt lat="43.00193" lon="1.1383">
        <ele>430.6</ele>
        <time>2024-04-21T12:39:45.994Z</time>
      </trkpt>
      <trkpt lat="43.00194" lon="1.13837">
        <ele>430.6</ele>
        <time>2024-04-21T12:39:46.994Z</time>
      </trkpt>
      <trkpt lat="43.00195" lon="1.13845">
        <ele>429.8</ele>
        <time>2024-04-21T12:39:47.994Z</time>
      </trkpt>
      <trkpt lat="43.00196" lon="1.13853">
        <ele>429.6</ele>
        <time>2024-04-21T12:39:48.994Z</time>
      </trkpt>
      <trkpt lat="43.00197" lon="1.13861">
        <ele>429.2</ele>
        <time>2024-04-21T12:39:49.994Z</time>
      </trkpt>
      <trkpt lat="43.00198" lon="1.13868">
        <ele>428.8</ele>
        <time>2024-04-21T12:39:50.994Z</time>
      </trkpt>
      <trkpt lat="43.002" lon="1.13875">
        <ele>428.4</ele>
        <time>2024-04-21T12:39:51.994Z</time>
      </trkpt>
      <trkpt lat="43.00203" lon="1.13882">
        <ele>428.4</ele>
        <time>2024-04-21T12:39:52.994Z</time>
      </trkpt>
      <trkpt lat="43.00206" lon="1.13888">
        <ele>427.8</ele>
        <time>2024-04-21T12:39:53.994Z</time>
      </trkpt>
      <trkpt lat="43.00209" lon="1.13894">
        <ele>427.2</ele>
        <time>2024-04-21T12:39:54.994Z</time>
      </trkpt>
      <trkpt lat="43.00211" lon="1.13901">
        <ele>426.6</ele>
        <time>2024-04-21T12:39:55.994Z</time>
      </trkpt>
      <trkpt lat="43.00214" lon="1.13909">
        <ele>426.2</ele>
        <time>2024-04-21T12:39:56.994Z</time>
      </trkpt>
      <trkpt lat="43.00215" lon="1.13917">
        <ele>425.6</ele>
        <time>2024-04-21T12:39:57.994Z</time>
      </trkpt>
      <trkpt lat="43.00218" lon="1.13926">
        <ele>425</ele>
        <time>2024-04-21T12:39:58.994Z</time>
      </trkpt>
      <trkpt lat="43.0022" lon="1.13935">
        <ele>423.8</ele>
        <time>2024-04-21T12:39:59.994Z</time>
      </trkpt>
      <trkpt lat="43.00221" lon="1.13944">
        <ele>423.8</ele>
        <time>2024-04-21T12:40:00.994Z</time>
      </trkpt>
      <trkpt lat="43.00224" lon="1.1395">
        <ele>423.4</ele>
        <time>2024-04-21T12:40:01.994Z</time>
      </trkpt>
      <trkpt lat="43.00227" lon="1.13957">
        <ele>423.6</ele>
        <time>2024-04-21T12:40:02.994Z</time>
      </trkpt>
      <trkpt lat="43.00229" lon="1.13963">
        <ele>423.4</ele>
        <time>2024-04-21T12:40:03.994Z</time>
      </trkpt>
      <trkpt lat="43.00232" lon="1.13969">
        <ele>423.2</ele>
        <time>2024-04-21T12:40:04.994Z</time>
      </trkpt>
      <trkpt lat="43.00235" lon="1.13974">
        <ele>423.2</ele>
        <time>2024-04-21T12:40:05.994Z</time>
      </trkpt>
      <trkpt lat="43.00238" lon="1.13979">
        <ele>423.4</ele>
        <time>2024-04-21T12:40:06.994Z</time>
      </trkpt>
      <trkpt lat="43.00242" lon="1.13982">
        <ele>423.4</ele>
        <time>2024-04-21T12:40:07.994Z</time>
      </trkpt>
      <trkpt lat="43.00246" lon="1.13985">
        <ele>423.4</ele>
        <time>2024-04-21T12:40:08.994Z</time>
      </trkpt>
      <trkpt lat="43.00246" lon="1.13985">
        <ele>423.6</ele>
        <time>2024-04-21T12:40:09.994Z</time>
      </trkpt>
      <trkpt lat="43.0025" lon="1.13987">
        <ele>424</ele>
        <time>2024-04-21T12:40:10.994Z</time>
      </trkpt>
      <trkpt lat="43.00254" lon="1.13988">
        <ele>424</ele>
        <time>2024-04-21T12:40:11.994Z</time>
      </trkpt>
      <trkpt lat="43.00258" lon="1.13988">
        <ele>424.2</ele>
        <time>2024-04-21T12:40:12.994Z</time>
      </trkpt>
      <trkpt lat="43.00262" lon="1.13988">
        <ele>424.2</ele>
        <time>2024-04-21T12:40:13.994Z</time>
      </trkpt>
      <trkpt lat="43.00267" lon="1.13987">
        <ele>424.6</ele>
        <time>2024-04-21T12:40:14.994Z</time>
      </trkpt>
      <trkpt lat="43.0027" lon="1.13987">
        <ele>424.8</ele>
        <time>2024-04-21T12:40:15.994Z</time>
      </trkpt>
      <trkpt lat="43.00274" lon="1.13987">
        <ele>425.2</ele>
        <time>2024-04-21T12:40:16.994Z</time>
      </trkpt>
      <trkpt lat="43.00278" lon="1.13987">
        <ele>425.4</ele>
        <time>2024-04-21T12:40:17.994Z</time>
      </trkpt>
      <trkpt lat="43.00281" lon="1.13988">
        <ele>425.8</ele>
        <time>2024-04-21T12:40:18.994Z</time>
      </trkpt>
      <trkpt lat="43.00283" lon="1.13988">
        <ele>426.2</ele>
        <time>2024-04-21T12:40:19.994Z</time>
      </trkpt>
      <trkpt lat="43.00286" lon="1.13991">
        <ele>426.4</ele>
        <time>2024-04-21T12:40:20.994Z</time>
      </trkpt>
      <trkpt lat="43.00288" lon="1.13994">
        <ele>426.8</ele>
        <time>2024-04-21T12:40:21.994Z</time>
      </trkpt>
      <trkpt lat="43.00291" lon="1.13998">
        <ele>427</ele>
        <time>2024-04-21T12:40:22.994Z</time>
      </trkpt>
      <trkpt lat="43.00293" lon="1.14001">
        <ele>427</ele>
        <time>2024-04-21T12:40:23.994Z</time>
      </trkpt>
      <trkpt lat="43.00296" lon="1.14005">
        <ele>427.4</ele>
        <time>2024-04-21T12:40:24.994Z</time>
      </trkpt>
      <trkpt lat="43.00299" lon="1.14009">
        <ele>427.4</ele>
        <time>2024-04-21T12:40:25.994Z</time>
      </trkpt>
      <trkpt lat="43.00302" lon="1.14013">
        <ele>427.4</ele>
        <time>2024-04-21T12:40:26.994Z</time>
      </trkpt>
      <trkpt lat="43.00305" lon="1.14017">
        <ele>427.6</ele>
        <time>2024-04-21T12:40:27.994Z</time>
      </trkpt>
      <trkpt lat="43.00308" lon="1.14021">
        <ele>427.4</ele>
        <time>2024-04-21T12:40:28.994Z</time>
      </trkpt>
      <trkpt lat="43.00311" lon="1.14027">
        <ele>427.4</ele>
        <time>2024-04-21T12:40:29.994Z</time>
      </trkpt>
      <trkpt lat="43.00317" lon="1.14036">
        <ele>427.4</ele>
        <time>2024-04-21T12:40:30.994Z</time>
      </trkpt>
      <trkpt lat="43.00321" lon="1.1404">
        <ele>427.4</ele>
        <time>2024-04-21T12:40:31.994Z</time>
      </trkpt>
      <trkpt lat="43.00324" lon="1.14043">
        <ele>427.6</ele>
        <time>2024-04-21T12:40:32.994Z</time>
      </trkpt>
      <trkpt lat="43.00327" lon="1.14047">
        <ele>427.6</ele>
        <time>2024-04-21T12:40:33.994Z</time>
      </trkpt>
      <trkpt lat="43.00331" lon="1.14052">
        <ele>427.6</ele>
        <time>2024-04-21T12:40:34.994Z</time>
      </trkpt>
      <trkpt lat="43.00334" lon="1.14055">
        <ele>427.6</ele>
        <time>2024-04-21T12:40:35.994Z</time>
      </trkpt>
      <trkpt lat="43.00338" lon="1.14059">
        <ele>427.6</ele>
        <time>2024-04-21T12:40:36.994Z</time>
      </trkpt>
      <trkpt lat="43.00342" lon="1.14062">
        <ele>427.8</ele>
        <time>2024-04-21T12:40:37.994Z</time>
      </trkpt>
      <trkpt lat="43.00345" lon="1.14064">
        <ele>427.8</ele>
        <time>2024-04-21T12:40:38.994Z</time>
      </trkpt>
      <trkpt lat="43.00348" lon="1.14068">
        <ele>427.8</ele>
        <time>2024-04-21T12:40:39.994Z</time>
      </trkpt>
      <trkpt lat="43.00351" lon="1.14071">
        <ele>427.8</ele>
        <time>2024-04-21T12:40:40.994Z</time>
      </trkpt>
      <trkpt lat="43.00354" lon="1.14075">
        <ele>428</ele>
        <time>2024-04-21T12:40:41.994Z</time>
      </trkpt>
      <trkpt lat="43.00358" lon="1.14079">
        <ele>428</ele>
        <time>2024-04-21T12:40:42.994Z</time>
      </trkpt>
      <trkpt lat="43.00361" lon="1.14082">
        <ele>428</ele>
        <time>2024-04-21T12:40:43.994Z</time>
      </trkpt>
      <trkpt lat="43.00365" lon="1.14086">
        <ele>428</ele>
        <time>2024-04-21T12:40:44.994Z</time>
      </trkpt>
      <trkpt lat="43.00368" lon="1.1409">
        <ele>428</ele>
        <time>2024-04-21T12:40:45.994Z</time>
      </trkpt>
      <trkpt lat="43.00372" lon="1.14094">
        <ele>428.4</ele>
        <time>2024-04-21T12:40:46.994Z</time>
      </trkpt>
      <trkpt lat="43.00374" lon="1.14099">
        <ele>428.4</ele>
        <time>2024-04-21T12:40:47.994Z</time>
      </trkpt>
      <trkpt lat="43.00377" lon="1.14102">
        <ele>428.4</ele>
        <time>2024-04-21T12:40:48.994Z</time>
      </trkpt>
      <trkpt lat="43.0038" lon="1.14105">
        <ele>428.6</ele>
        <time>2024-04-21T12:40:49.994Z</time>
      </trkpt>
      <trkpt lat="43.00383" lon="1.14109">
        <ele>428.6</ele>
        <time>2024-04-21T12:40:50.994Z</time>
      </trkpt>
      <trkpt lat="43.00385" lon="1.14113">
        <ele>428.6</ele>
        <time>2024-04-21T12:40:51.994Z</time>
      </trkpt>
      <trkpt lat="43.00388" lon="1.14117">
        <ele>428.6</ele>
        <time>2024-04-21T12:40:52.994Z</time>
      </trkpt>
      <trkpt lat="43.00391" lon="1.14121">
        <ele>428.6</ele>
        <time>2024-04-21T12:40:53.994Z</time>
      </trkpt>
      <trkpt lat="43.00394" lon="1.14124">
        <ele>428.6</ele>
        <time>2024-04-21T12:40:54.994Z</time>
      </trkpt>
      <trkpt lat="43.00397" lon="1.14128">
        <ele>428.6</ele>
        <time>2024-04-21T12:40:55.994Z</time>
      </trkpt>
      <trkpt lat="43.00401" lon="1.14131">
        <ele>429</ele>
        <time>2024-04-21T12:40:56.994Z</time>
      </trkpt>
      <trkpt lat="43.00404" lon="1.14135">
        <ele>429</ele>
        <time>2024-04-21T12:40:57.994Z</time>
      </trkpt>
      <trkpt lat="43.00407" lon="1.14139">
        <ele>429.2</ele>
        <time>2024-04-21T12:40:58.994Z</time>
      </trkpt>
      <trkpt lat="43.0041" lon="1.14142">
        <ele>429.2</ele>
        <time>2024-04-21T12:40:59.994Z</time>
      </trkpt>
      <trkpt lat="43.00413" lon="1.14147">
        <ele>429.2</ele>
        <time>2024-04-21T12:41:00.994Z</time>
      </trkpt>
      <trkpt lat="43.00415" lon="1.14151">
        <ele>429.2</ele>
        <time>2024-04-21T12:41:01.994Z</time>
      </trkpt>
      <trkpt lat="43.00417" lon="1.14154">
        <ele>429.2</ele>
        <time>2024-04-21T12:41:02.994Z</time>
      </trkpt>
      <trkpt lat="43.00419" lon="1.1416">
        <ele>429.4</ele>
        <time>2024-04-21T12:41:03.994Z</time>
      </trkpt>
      <trkpt lat="43.00419" lon="1.14165">
        <ele>429.4</ele>
        <time>2024-04-21T12:41:04.994Z</time>
      </trkpt>
      <trkpt lat="43.00421" lon="1.1417">
        <ele>429.4</ele>
        <time>2024-04-21T12:41:05.994Z</time>
      </trkpt>
      <trkpt lat="43.00421" lon="1.14176">
        <ele>429.6</ele>
        <time>2024-04-21T12:41:06.994Z</time>
      </trkpt>
      <trkpt lat="43.00422" lon="1.14182">
        <ele>429.6</ele>
        <time>2024-04-21T12:41:07.994Z</time>
      </trkpt>
      <trkpt lat="43.00423" lon="1.14188">
        <ele>429.6</ele>
        <time>2024-04-21T12:41:08.994Z</time>
      </trkpt>
      <trkpt lat="43.00424" lon="1.14193">
        <ele>430</ele>
        <time>2024-04-21T12:41:09.994Z</time>
      </trkpt>
      <trkpt lat="43.00426" lon="1.14199">
        <ele>430</ele>
        <time>2024-04-21T12:41:10.994Z</time>
      </trkpt>
      <trkpt lat="43.00427" lon="1.14205">
        <ele>430.2</ele>
        <time>2024-04-21T12:41:11.994Z</time>
      </trkpt>
      <trkpt lat="43.00429" lon="1.1421">
        <ele>430.2</ele>
        <time>2024-04-21T12:41:12.994Z</time>
      </trkpt>
      <trkpt lat="43.0043" lon="1.14215">
        <ele>430.4</ele>
        <time>2024-04-21T12:41:13.994Z</time>
      </trkpt>
      <trkpt lat="43.00433" lon="1.1422">
        <ele>430.4</ele>
        <time>2024-04-21T12:41:14.994Z</time>
      </trkpt>
      <trkpt lat="43.00436" lon="1.14224">
        <ele>430.8</ele>
        <time>2024-04-21T12:41:15.994Z</time>
      </trkpt>
      <trkpt lat="43.00438" lon="1.14229">
        <ele>430.8</ele>
        <time>2024-04-21T12:41:16.994Z</time>
      </trkpt>
      <trkpt lat="43.0044" lon="1.14234">
        <ele>431</ele>
        <time>2024-04-21T12:41:17.994Z</time>
      </trkpt>
      <trkpt lat="43.00442" lon="1.14239">
        <ele>431.4</ele>
        <time>2024-04-21T12:41:18.994Z</time>
      </trkpt>
      <trkpt lat="43.00444" lon="1.14244">
        <ele>431.4</ele>
        <time>2024-04-21T12:41:19.994Z</time>
      </trkpt>
      <trkpt lat="43.00446" lon="1.14248">
        <ele>431.4</ele>
        <time>2024-04-21T12:41:20.994Z</time>
      </trkpt>
      <trkpt lat="43.00448" lon="1.14253">
        <ele>431.4</ele>
        <time>2024-04-21T12:41:21.994Z</time>
      </trkpt>
      <trkpt lat="43.0045" lon="1.14259">
        <ele>431.4</ele>
        <time>2024-04-21T12:41:22.994Z</time>
      </trkpt>
      <trkpt lat="43.00453" lon="1.14264">
        <ele>431.4</ele>
        <time>2024-04-21T12:41:23.994Z</time>
      </trkpt>
      <trkpt lat="43.00454" lon="1.14269">
        <ele>431.8</ele>
        <time>2024-04-21T12:41:24.994Z</time>
      </trkpt>
      <trkpt lat="43.00456" lon="1.14274">
        <ele>431.8</ele>
        <time>2024-04-21T12:41:25.994Z</time>
      </trkpt>
      <trkpt lat="43.00457" lon="1.14279">
        <ele>432</ele>
        <time>2024-04-21T12:41:26.994Z</time>
      </trkpt>
      <trkpt lat="43.00458" lon="1.14284">
        <ele>432.4</ele>
        <time>2024-04-21T12:41:27.994Z</time>
      </trkpt>
      <trkpt lat="43.00458" lon="1.14289">
        <ele>432.4</ele>
        <time>2024-04-21T12:41:28.994Z</time>
      </trkpt>
      <trkpt lat="43.00457" lon="1.14294">
        <ele>432.6</ele>
        <time>2024-04-21T12:41:29.994Z</time>
      </trkpt>
      <trkpt lat="43.00457" lon="1.14299">
        <ele>433</ele>
        <time>2024-04-21T12:41:30.994Z</time>
      </trkpt>
      <trkpt lat="43.00455" lon="1.14304">
        <ele>433.2</ele>
        <time>2024-04-21T12:41:31.994Z</time>
      </trkpt>
      <trkpt lat="43.00453" lon="1.14309">
        <ele>433.2</ele>
        <time>2024-04-21T12:41:32.994Z</time>
      </trkpt>
      <trkpt lat="43.00451" lon="1.14313">
        <ele>433.8</ele>
        <time>2024-04-21T12:41:33.994Z</time>
      </trkpt>
      <trkpt lat="43.00449" lon="1.14317">
        <ele>433.8</ele>
        <time>2024-04-21T12:41:34.994Z</time>
      </trkpt>
      <trkpt lat="43.00447" lon="1.14321">
        <ele>433.8</ele>
        <time>2024-04-21T12:41:35.994Z</time>
      </trkpt>
      <trkpt lat="43.00445" lon="1.14325">
        <ele>434</ele>
        <time>2024-04-21T12:41:36.994Z</time>
      </trkpt>
      <trkpt lat="43.00443" lon="1.14329">
        <ele>434.4</ele>
        <time>2024-04-21T12:41:37.994Z</time>
      </trkpt>
      <trkpt lat="43.0044" lon="1.14333">
        <ele>434.4</ele>
        <time>2024-04-21T12:41:38.994Z</time>
      </trkpt>
      <trkpt lat="43.00439" lon="1.14336">
        <ele>434.4</ele>
        <time>2024-04-21T12:41:39.994Z</time>
      </trkpt>
      <trkpt lat="43.00437" lon="1.1434">
        <ele>434.4</ele>
        <time>2024-04-21T12:41:40.994Z</time>
      </trkpt>
      <trkpt lat="43.00436" lon="1.14344">
        <ele>434.4</ele>
        <time>2024-04-21T12:41:41.994Z</time>
      </trkpt>
      <trkpt lat="43.00434" lon="1.14348">
        <ele>434.8</ele>
        <time>2024-04-21T12:41:42.994Z</time>
      </trkpt>
      <trkpt lat="43.00432" lon="1.14351">
        <ele>435.2</ele>
        <time>2024-04-21T12:41:43.994Z</time>
      </trkpt>
      <trkpt lat="43.00431" lon="1.14355">
        <ele>435.2</ele>
        <time>2024-04-21T12:41:44.994Z</time>
      </trkpt>
      <trkpt lat="43.0043" lon="1.14359">
        <ele>435.4</ele>
        <time>2024-04-21T12:41:45.994Z</time>
      </trkpt>
      <trkpt lat="43.00431" lon="1.14363">
        <ele>435.8</ele>
        <time>2024-04-21T12:41:46.994Z</time>
      </trkpt>
      <trkpt lat="43.00431" lon="1.14367">
        <ele>435.8</ele>
        <time>2024-04-21T12:41:47.994Z</time>
      </trkpt>
      <trkpt lat="43.00432" lon="1.1437">
        <ele>436</ele>
        <time>2024-04-21T12:41:48.994Z</time>
      </trkpt>
      <trkpt lat="43.00434" lon="1.14374">
        <ele>436.4</ele>
        <time>2024-04-21T12:41:49.994Z</time>
      </trkpt>
      <trkpt lat="43.00435" lon="1.14377">
        <ele>436.4</ele>
        <time>2024-04-21T12:41:50.994Z</time>
      </trkpt>
      <trkpt lat="43.00437" lon="1.14381">
        <ele>436</ele>
        <time>2024-04-21T12:41:51.994Z</time>
      </trkpt>
      <trkpt lat="43.0044" lon="1.14384">
        <ele>436.6</ele>
        <time>2024-04-21T12:41:52.994Z</time>
      </trkpt>
      <trkpt lat="43.00442" lon="1.14387">
        <ele>436.6</ele>
        <time>2024-04-21T12:41:53.994Z</time>
      </trkpt>
      <trkpt lat="43.00444" lon="1.1439">
        <ele>436.6</ele>
        <time>2024-04-21T12:41:54.994Z</time>
      </trkpt>
      <trkpt lat="43.00447" lon="1.14394">
        <ele>436.6</ele>
        <time>2024-04-21T12:41:55.994Z</time>
      </trkpt>
      <trkpt lat="43.00449" lon="1.14396">
        <ele>436.6</ele>
        <time>2024-04-21T12:41:56.994Z</time>
      </trkpt>
      <trkpt lat="43.00451" lon="1.14399">
        <ele>437</ele>
        <time>2024-04-21T12:41:57.994Z</time>
      </trkpt>
      <trkpt lat="43.00453" lon="1.14403">
        <ele>437.2</ele>
        <time>2024-04-21T12:41:58.994Z</time>
      </trkpt>
      <trkpt lat="43.00455" lon="1.14405">
        <ele>437.6</ele>
        <time>2024-04-21T12:41:59.994Z</time>
      </trkpt>
      <trkpt lat="43.00458" lon="1.14408">
        <ele>437.6</ele>
        <time>2024-04-21T12:42:00.994Z</time>
      </trkpt>
      <trkpt lat="43.0046" lon="1.1441">
        <ele>438</ele>
        <time>2024-04-21T12:42:01.994Z</time>
      </trkpt>
      <trkpt lat="43.00462" lon="1.14413">
        <ele>438</ele>
        <time>2024-04-21T12:42:02.994Z</time>
      </trkpt>
      <trkpt lat="43.00464" lon="1.14416">
        <ele>438</ele>
        <time>2024-04-21T12:42:03.994Z</time>
      </trkpt>
      <trkpt lat="43.00466" lon="1.14419">
        <ele>438</ele>
        <time>2024-04-21T12:42:04.994Z</time>
      </trkpt>
      <trkpt lat="43.00468" lon="1.14421">
        <ele>438.6</ele>
        <time>2024-04-21T12:42:05.994Z</time>
      </trkpt>
      <trkpt lat="43.0047" lon="1.14424">
        <ele>438.6</ele>
        <time>2024-04-21T12:42:06.994Z</time>
      </trkpt>
      <trkpt lat="43.00473" lon="1.14427">
        <ele>439</ele>
        <time>2024-04-21T12:42:07.994Z</time>
      </trkpt>
      <trkpt lat="43.00475" lon="1.14429">
        <ele>439</ele>
        <time>2024-04-21T12:42:08.994Z</time>
      </trkpt>
      <trkpt lat="43.00477" lon="1.14431">
        <ele>439.2</ele>
        <time>2024-04-21T12:42:09.994Z</time>
      </trkpt>
      <trkpt lat="43.00479" lon="1.14434">
        <ele>439.2</ele>
        <time>2024-04-21T12:42:10.994Z</time>
      </trkpt>
      <trkpt lat="43.00481" lon="1.14436">
        <ele>439.2</ele>
        <time>2024-04-21T12:42:11.994Z</time>
      </trkpt>
      <trkpt lat="43.00483" lon="1.14439">
        <ele>439.4</ele>
        <time>2024-04-21T12:42:12.994Z</time>
      </trkpt>
      <trkpt lat="43.00485" lon="1.14441">
        <ele>440</ele>
        <time>2024-04-21T12:42:13.994Z</time>
      </trkpt>
      <trkpt lat="43.00487" lon="1.14444">
        <ele>440.2</ele>
        <time>2024-04-21T12:42:14.994Z</time>
      </trkpt>
      <trkpt lat="43.00489" lon="1.14447">
        <ele>440.6</ele>
        <time>2024-04-21T12:42:15.994Z</time>
      </trkpt>
      <trkpt lat="43.00491" lon="1.1445">
        <ele>440.6</ele>
        <time>2024-04-21T12:42:16.994Z</time>
      </trkpt>
      <trkpt lat="43.00493" lon="1.14453">
        <ele>440.8</ele>
        <time>2024-04-21T12:42:17.994Z</time>
      </trkpt>
      <trkpt lat="43.00495" lon="1.14455">
        <ele>441</ele>
        <time>2024-04-21T12:42:18.994Z</time>
      </trkpt>
      <trkpt lat="43.00497" lon="1.14458">
        <ele>441</ele>
        <time>2024-04-21T12:42:19.994Z</time>
      </trkpt>
      <trkpt lat="43.00499" lon="1.1446">
        <ele>441</ele>
        <time>2024-04-21T12:42:20.994Z</time>
      </trkpt>
      <trkpt lat="43.00501" lon="1.14462">
        <ele>441.4</ele>
        <time>2024-04-21T12:42:21.994Z</time>
      </trkpt>
      <trkpt lat="43.00503" lon="1.14464">
        <ele>442</ele>
        <time>2024-04-21T12:42:22.994Z</time>
      </trkpt>
      <trkpt lat="43.00505" lon="1.14466">
        <ele>442</ele>
        <time>2024-04-21T12:42:23.994Z</time>
      </trkpt>
      <trkpt lat="43.00507" lon="1.14469">
        <ele>442.2</ele>
        <time>2024-04-21T12:42:24.994Z</time>
      </trkpt>
      <trkpt lat="43.00509" lon="1.14471">
        <ele>442.8</ele>
        <time>2024-04-21T12:42:25.994Z</time>
      </trkpt>
      <trkpt lat="43.00511" lon="1.14473">
        <ele>442.8</ele>
        <time>2024-04-21T12:42:26.994Z</time>
      </trkpt>
      <trkpt lat="43.00513" lon="1.14475">
        <ele>443.6</ele>
        <time>2024-04-21T12:42:27.994Z</time>
      </trkpt>
      <trkpt lat="43.00515" lon="1.14478">
        <ele>444</ele>
        <time>2024-04-21T12:42:28.994Z</time>
      </trkpt>
      <trkpt lat="43.00517" lon="1.1448">
        <ele>444</ele>
        <time>2024-04-21T12:42:29.994Z</time>
      </trkpt>
      <trkpt lat="43.00519" lon="1.14483">
        <ele>444</ele>
        <time>2024-04-21T12:42:30.994Z</time>
      </trkpt>
      <trkpt lat="43.00521" lon="1.14485">
        <ele>444.8</ele>
        <time>2024-04-21T12:42:31.994Z</time>
      </trkpt>
      <trkpt lat="43.00523" lon="1.14488">
        <ele>444.8</ele>
        <time>2024-04-21T12:42:32.994Z</time>
      </trkpt>
      <trkpt lat="43.00525" lon="1.14491">
        <ele>444.8</ele>
        <time>2024-04-21T12:42:33.994Z</time>
      </trkpt>
      <trkpt lat="43.00527" lon="1.14494">
        <ele>445.2</ele>
        <time>2024-04-21T12:42:34.994Z</time>
      </trkpt>
      <trkpt lat="43.00529" lon="1.14496">
        <ele>445.2</ele>
        <time>2024-04-21T12:42:35.994Z</time>
      </trkpt>
      <trkpt lat="43.00531" lon="1.14499">
        <ele>445.2</ele>
        <time>2024-04-21T12:42:36.994Z</time>
      </trkpt>
      <trkpt lat="43.00533" lon="1.14502">
        <ele>445.6</ele>
        <time>2024-04-21T12:42:37.994Z</time>
      </trkpt>
      <trkpt lat="43.00535" lon="1.14504">
        <ele>446</ele>
        <time>2024-04-21T12:42:38.994Z</time>
      </trkpt>
      <trkpt lat="43.00537" lon="1.14506">
        <ele>446.4</ele>
        <time>2024-04-21T12:42:39.994Z</time>
      </trkpt>
      <trkpt lat="43.00539" lon="1.14509">
        <ele>446.6</ele>
        <time>2024-04-21T12:42:40.994Z</time>
      </trkpt>
      <trkpt lat="43.00541" lon="1.14511">
        <ele>446.6</ele>
        <time>2024-04-21T12:42:41.994Z</time>
      </trkpt>
      <trkpt lat="43.00543" lon="1.14514">
        <ele>447</ele>
        <time>2024-04-21T12:42:42.994Z</time>
      </trkpt>
      <trkpt lat="43.00545" lon="1.14516">
        <ele>447.4</ele>
        <time>2024-04-21T12:42:43.994Z</time>
      </trkpt>
      <trkpt lat="43.00547" lon="1.14518">
        <ele>447.4</ele>
        <time>2024-04-21T12:42:44.994Z</time>
      </trkpt>
      <trkpt lat="43.00549" lon="1.1452">
        <ele>447.6</ele>
        <time>2024-04-21T12:42:45.994Z</time>
      </trkpt>
      <trkpt lat="43.0055" lon="1.14523">
        <ele>447.8</ele>
        <time>2024-04-21T12:42:46.994Z</time>
      </trkpt>
      <trkpt lat="43.00552" lon="1.14525">
        <ele>448.2</ele>
        <time>2024-04-21T12:42:47.994Z</time>
      </trkpt>
      <trkpt lat="43.00554" lon="1.14528">
        <ele>448.4</ele>
        <time>2024-04-21T12:42:48.994Z</time>
      </trkpt>
      <trkpt lat="43.00556" lon="1.1453">
        <ele>448.6</ele>
        <time>2024-04-21T12:42:49.994Z</time>
      </trkpt>
      <trkpt lat="43.00558" lon="1.14531">
        <ele>449</ele>
        <time>2024-04-21T12:42:50.994Z</time>
      </trkpt>
      <trkpt lat="43.0056" lon="1.14533">
        <ele>449.2</ele>
        <time>2024-04-21T12:42:51.994Z</time>
      </trkpt>
      <trkpt lat="43.00562" lon="1.14536">
        <ele>449.8</ele>
        <time>2024-04-21T12:42:52.994Z</time>
      </trkpt>
      <trkpt lat="43.00564" lon="1.14538">
        <ele>449.8</ele>
        <time>2024-04-21T12:42:53.994Z</time>
      </trkpt>
      <trkpt lat="43.00566" lon="1.1454">
        <ele>450.4</ele>
        <time>2024-04-21T12:42:54.994Z</time>
      </trkpt>
      <trkpt lat="43.00568" lon="1.14542">
        <ele>450.4</ele>
        <time>2024-04-21T12:42:55.994Z</time>
      </trkpt>
      <trkpt lat="43.0057" lon="1.14544">
        <ele>450.6</ele>
        <time>2024-04-21T12:42:56.994Z</time>
      </trkpt>
      <trkpt lat="43.00572" lon="1.14546">
        <ele>450.6</ele>
        <time>2024-04-21T12:42:57.994Z</time>
      </trkpt>
      <trkpt lat="43.00574" lon="1.14548">
        <ele>451</ele>
        <time>2024-04-21T12:42:58.994Z</time>
      </trkpt>
      <trkpt lat="43.00576" lon="1.1455">
        <ele>451</ele>
        <time>2024-04-21T12:42:59.994Z</time>
      </trkpt>
      <trkpt lat="43.00578" lon="1.14552">
        <ele>451</ele>
        <time>2024-04-21T12:43:00.994Z</time>
      </trkpt>
      <trkpt lat="43.0058" lon="1.14554">
        <ele>451</ele>
        <time>2024-04-21T12:43:01.994Z</time>
      </trkpt>
      <trkpt lat="43.00581" lon="1.14556">
        <ele>451.2</ele>
        <time>2024-04-21T12:43:02.994Z</time>
      </trkpt>
      <trkpt lat="43.00583" lon="1.14558">
        <ele>451.6</ele>
        <time>2024-04-21T12:43:03.994Z</time>
      </trkpt>
      <trkpt lat="43.00585" lon="1.1456">
        <ele>451.8</ele>
        <time>2024-04-21T12:43:04.994Z</time>
      </trkpt>
      <trkpt lat="43.00586" lon="1.14561">
        <ele>452.2</ele>
        <time>2024-04-21T12:43:05.994Z</time>
      </trkpt>
      <trkpt lat="43.00588" lon="1.14563">
        <ele>452.4</ele>
        <time>2024-04-21T12:43:06.994Z</time>
      </trkpt>
      <trkpt lat="43.0059" lon="1.14566">
        <ele>452.4</ele>
        <time>2024-04-21T12:43:07.994Z</time>
      </trkpt>
      <trkpt lat="43.00592" lon="1.14568">
        <ele>453</ele>
        <time>2024-04-21T12:43:08.994Z</time>
      </trkpt>
      <trkpt lat="43.00593" lon="1.1457">
        <ele>453</ele>
        <time>2024-04-21T12:43:09.994Z</time>
      </trkpt>
      <trkpt lat="43.00595" lon="1.14572">
        <ele>453.4</ele>
        <time>2024-04-21T12:43:10.994Z</time>
      </trkpt>
      <trkpt lat="43.00597" lon="1.14574">
        <ele>453.8</ele>
        <time>2024-04-21T12:43:11.994Z</time>
      </trkpt>
      <trkpt lat="43.00598" lon="1.14575">
        <ele>454</ele>
        <time>2024-04-21T12:43:12.994Z</time>
      </trkpt>
      <trkpt lat="43.006" lon="1.14576">
        <ele>454.4</ele>
        <time>2024-04-21T12:43:13.994Z</time>
      </trkpt>
      <trkpt lat="43.00601" lon="1.14578">
        <ele>454.4</ele>
        <time>2024-04-21T12:43:14.994Z</time>
      </trkpt>
      <trkpt lat="43.00603" lon="1.1458">
        <ele>454.8</ele>
        <time>2024-04-21T12:43:15.994Z</time>
      </trkpt>
      <trkpt lat="43.00605" lon="1.14582">
        <ele>455.2</ele>
        <time>2024-04-21T12:43:16.994Z</time>
      </trkpt>
      <trkpt lat="43.00606" lon="1.14584">
        <ele>455.2</ele>
        <time>2024-04-21T12:43:17.994Z</time>
      </trkpt>
      <trkpt lat="43.00607" lon="1.14587">
        <ele>455.6</ele>
        <time>2024-04-21T12:43:18.994Z</time>
      </trkpt>
      <trkpt lat="43.00609" lon="1.14589">
        <ele>455.6</ele>
        <time>2024-04-21T12:43:19.994Z</time>
      </trkpt>
      <trkpt lat="43.00611" lon="1.14591">
        <ele>456</ele>
        <time>2024-04-21T12:43:20.994Z</time>
      </trkpt>
      <trkpt lat="43.00612" lon="1.14593">
        <ele>456.2</ele>
        <time>2024-04-21T12:43:21.994Z</time>
      </trkpt>
      <trkpt lat="43.00613" lon="1.14594">
        <ele>456.6</ele>
        <time>2024-04-21T12:43:22.994Z</time>
      </trkpt>
      <trkpt lat="43.00614" lon="1.14596">
        <ele>457.2</ele>
        <time>2024-04-21T12:43:23.994Z</time>
      </trkpt>
      <trkpt lat="43.00615" lon="1.14598">
        <ele>457.4</ele>
        <time>2024-04-21T12:43:24.994Z</time>
      </trkpt>
      <trkpt lat="43.00617" lon="1.146">
        <ele>457.4</ele>
        <time>2024-04-21T12:43:25.994Z</time>
      </trkpt>
      <trkpt lat="43.00618" lon="1.14602">
        <ele>457.6</ele>
        <time>2024-04-21T12:43:26.994Z</time>
      </trkpt>
      <trkpt lat="43.0062" lon="1.14604">
        <ele>457.8</ele>
        <time>2024-04-21T12:43:27.994Z</time>
      </trkpt>
      <trkpt lat="43.00622" lon="1.14606">
        <ele>458.2</ele>
        <time>2024-04-21T12:43:28.994Z</time>
      </trkpt>
      <trkpt lat="43.00624" lon="1.14607">
        <ele>458.2</ele>
        <time>2024-04-21T12:43:29.994Z</time>
      </trkpt>
      <trkpt lat="43.00625" lon="1.14609">
        <ele>458.6</ele>
        <time>2024-04-21T12:43:30.994Z</time>
      </trkpt>
      <trkpt lat="43.00627" lon="1.14612">
        <ele>458.6</ele>
        <time>2024-04-21T12:43:31.994Z</time>
      </trkpt>
      <trkpt lat="43.00629" lon="1.14614">
        <ele>458.6</ele>
        <time>2024-04-21T12:43:32.994Z</time>
      </trkpt>
      <trkpt lat="43.00631" lon="1.14616">
        <ele>459.2</ele>
        <time>2024-04-21T12:43:33.994Z</time>
      </trkpt>
      <trkpt lat="43.00632" lon="1.14618">
        <ele>459.6</ele>
        <time>2024-04-21T12:43:34.994Z</time>
      </trkpt>
      <trkpt lat="43.00633" lon="1.1462">
        <ele>459.8</ele>
        <time>2024-04-21T12:43:35.994Z</time>
      </trkpt>
      <trkpt lat="43.00635" lon="1.14622">
        <ele>459.8</ele>
        <time>2024-04-21T12:43:36.994Z</time>
      </trkpt>
      <trkpt lat="43.00636" lon="1.14624">
        <ele>460.2</ele>
        <time>2024-04-21T12:43:37.994Z</time>
      </trkpt>
      <trkpt lat="43.00638" lon="1.14626">
        <ele>460.4</ele>
        <time>2024-04-21T12:43:38.994Z</time>
      </trkpt>
      <trkpt lat="43.00639" lon="1.14628">
        <ele>460.8</ele>
        <time>2024-04-21T12:43:39.994Z</time>
      </trkpt>
      <trkpt lat="43.0064" lon="1.1463">
        <ele>461.2</ele>
        <time>2024-04-21T12:43:40.994Z</time>
      </trkpt>
      <trkpt lat="43.00641" lon="1.14632">
        <ele>461.2</ele>
        <time>2024-04-21T12:43:41.994Z</time>
      </trkpt>
      <trkpt lat="43.00642" lon="1.14634">
        <ele>461.6</ele>
        <time>2024-04-21T12:43:42.994Z</time>
      </trkpt>
      <trkpt lat="43.00644" lon="1.14637">
        <ele>461.8</ele>
        <time>2024-04-21T12:43:43.994Z</time>
      </trkpt>
      <trkpt lat="43.00644" lon="1.14637">
        <ele>462.2</ele>
        <time>2024-04-21T12:43:44.994Z</time>
      </trkpt>
      <trkpt lat="43.00645" lon="1.14639">
        <ele>462.4</ele>
        <time>2024-04-21T12:43:45.994Z</time>
      </trkpt>
      <trkpt lat="43.00647" lon="1.14641">
        <ele>462.4</ele>
        <time>2024-04-21T12:43:46.994Z</time>
      </trkpt>
      <trkpt lat="43.00648" lon="1.14645">
        <ele>462.8</ele>
        <time>2024-04-21T12:43:47.994Z</time>
      </trkpt>
      <trkpt lat="43.0065" lon="1.14649">
        <ele>463</ele>
        <time>2024-04-21T12:43:48.994Z</time>
      </trkpt>
      <trkpt lat="43.00652" lon="1.14652">
        <ele>463.4</ele>
        <time>2024-04-21T12:43:49.994Z</time>
      </trkpt>
      <trkpt lat="43.00653" lon="1.14654">
        <ele>463.6</ele>
        <time>2024-04-21T12:43:50.994Z</time>
      </trkpt>
      <trkpt lat="43.00655" lon="1.14657">
        <ele>463.6</ele>
        <time>2024-04-21T12:43:51.994Z</time>
      </trkpt>
      <trkpt lat="43.00656" lon="1.14659">
        <ele>464</ele>
        <time>2024-04-21T12:43:52.994Z</time>
      </trkpt>
      <trkpt lat="43.00657" lon="1.14661">
        <ele>464.4</ele>
        <time>2024-04-21T12:43:53.994Z</time>
      </trkpt>
      <trkpt lat="43.00659" lon="1.14664">
        <ele>464.6</ele>
        <time>2024-04-21T12:43:54.994Z</time>
      </trkpt>
      <trkpt lat="43.0066" lon="1.14666">
        <ele>465.2</ele>
        <time>2024-04-21T12:43:55.994Z</time>
      </trkpt>
      <trkpt lat="43.0066" lon="1.14668">
        <ele>465.4</ele>
        <time>2024-04-21T12:43:56.994Z</time>
      </trkpt>
      <trkpt lat="43.00661" lon="1.1467">
        <ele>465.4</ele>
        <time>2024-04-21T12:43:57.994Z</time>
      </trkpt>
      <trkpt lat="43.00662" lon="1.14673">
        <ele>466</ele>
        <time>2024-04-21T12:43:58.994Z</time>
      </trkpt>
      <trkpt lat="43.00664" lon="1.14675">
        <ele>466.4</ele>
        <time>2024-04-21T12:43:59.994Z</time>
      </trkpt>
      <trkpt lat="43.00665" lon="1.14677">
        <ele>466.4</ele>
        <time>2024-04-21T12:44:00.994Z</time>
      </trkpt>
      <trkpt lat="43.00666" lon="1.1468">
        <ele>467.2</ele>
        <time>2024-04-21T12:44:01.994Z</time>
      </trkpt>
      <trkpt lat="43.00668" lon="1.14682">
        <ele>467.8</ele>
        <time>2024-04-21T12:44:02.994Z</time>
      </trkpt>
      <trkpt lat="43.00669" lon="1.14684">
        <ele>467.8</ele>
        <time>2024-04-21T12:44:03.994Z</time>
      </trkpt>
      <trkpt lat="43.00671" lon="1.14687">
        <ele>468</ele>
        <time>2024-04-21T12:44:04.994Z</time>
      </trkpt>
      <trkpt lat="43.00672" lon="1.14689">
        <ele>468</ele>
        <time>2024-04-21T12:44:05.994Z</time>
      </trkpt>
      <trkpt lat="43.00674" lon="1.14691">
        <ele>468.6</ele>
        <time>2024-04-21T12:44:06.994Z</time>
      </trkpt>
      <trkpt lat="43.00675" lon="1.14693">
        <ele>469</ele>
        <time>2024-04-21T12:44:07.994Z</time>
      </trkpt>
      <trkpt lat="43.00676" lon="1.14696">
        <ele>469</ele>
        <time>2024-04-21T12:44:08.994Z</time>
      </trkpt>
      <trkpt lat="43.00678" lon="1.147">
        <ele>469.4</ele>
        <time>2024-04-21T12:44:09.994Z</time>
      </trkpt>
      <trkpt lat="43.0068" lon="1.14702">
        <ele>469.8</ele>
        <time>2024-04-21T12:44:10.994Z</time>
      </trkpt>
      <trkpt lat="43.00681" lon="1.14704">
        <ele>469.8</ele>
        <time>2024-04-21T12:44:11.994Z</time>
      </trkpt>
      <trkpt lat="43.00682" lon="1.14707">
        <ele>470</ele>
        <time>2024-04-21T12:44:12.994Z</time>
      </trkpt>
      <trkpt lat="43.00683" lon="1.14709">
        <ele>470.4</ele>
        <time>2024-04-21T12:44:13.994Z</time>
      </trkpt>
      <trkpt lat="43.00685" lon="1.14712">
        <ele>470.6</ele>
        <time>2024-04-21T12:44:14.994Z</time>
      </trkpt>
      <trkpt lat="43.00686" lon="1.14714">
        <ele>470.6</ele>
        <time>2024-04-21T12:44:15.994Z</time>
      </trkpt>
      <trkpt lat="43.00687" lon="1.14716">
        <ele>471</ele>
        <time>2024-04-21T12:44:16.994Z</time>
      </trkpt>
      <trkpt lat="43.00688" lon="1.14717">
        <ele>471.4</ele>
        <time>2024-04-21T12:44:17.994Z</time>
      </trkpt>
      <trkpt lat="43.0069" lon="1.14719">
        <ele>471.6</ele>
        <time>2024-04-21T12:44:18.994Z</time>
      </trkpt>
      <trkpt lat="43.00691" lon="1.1472">
        <ele>471.8</ele>
        <time>2024-04-21T12:44:19.994Z</time>
      </trkpt>
      <trkpt lat="43.00692" lon="1.14722">
        <ele>472.2</ele>
        <time>2024-04-21T12:44:20.994Z</time>
      </trkpt>
      <trkpt lat="43.00694" lon="1.14725">
        <ele>472.2</ele>
        <time>2024-04-21T12:44:21.994Z</time>
      </trkpt>
      <trkpt lat="43.00695" lon="1.14728">
        <ele>472.4</ele>
        <time>2024-04-21T12:44:22.994Z</time>
      </trkpt>
      <trkpt lat="43.00697" lon="1.1473">
        <ele>472.8</ele>
        <time>2024-04-21T12:44:23.994Z</time>
      </trkpt>
      <trkpt lat="43.00698" lon="1.14733">
        <ele>472.8</ele>
        <time>2024-04-21T12:44:24.994Z</time>
      </trkpt>
      <trkpt lat="43.00699" lon="1.14735">
        <ele>473</ele>
        <time>2024-04-21T12:44:25.994Z</time>
      </trkpt>
      <trkpt lat="43.007" lon="1.14737">
        <ele>473.4</ele>
        <time>2024-04-21T12:44:26.994Z</time>
      </trkpt>
      <trkpt lat="43.00701" lon="1.14739">
        <ele>473.4</ele>
        <time>2024-04-21T12:44:27.994Z</time>
      </trkpt>
      <trkpt lat="43.00702" lon="1.14742">
        <ele>473.8</ele>
        <time>2024-04-21T12:44:28.994Z</time>
      </trkpt>
      <trkpt lat="43.00703" lon="1.14744">
        <ele>474.2</ele>
        <time>2024-04-21T12:44:29.994Z</time>
      </trkpt>
      <trkpt lat="43.00704" lon="1.14745">
        <ele>474.2</ele>
        <time>2024-04-21T12:44:30.994Z</time>
      </trkpt>
      <trkpt lat="43.00704" lon="1.14747">
        <ele>474.6</ele>
        <time>2024-04-21T12:44:31.994Z</time>
      </trkpt>
      <trkpt lat="43.00705" lon="1.1475">
        <ele>475</ele>
        <time>2024-04-21T12:44:32.994Z</time>
      </trkpt>
      <trkpt lat="43.00706" lon="1.14754">
        <ele>475.4</ele>
        <time>2024-04-21T12:44:33.994Z</time>
      </trkpt>
      <trkpt lat="43.00707" lon="1.14755">
        <ele>475.6</ele>
        <time>2024-04-21T12:44:34.994Z</time>
      </trkpt>
      <trkpt lat="43.00707" lon="1.14757">
        <ele>475.8</ele>
        <time>2024-04-21T12:44:35.994Z</time>
      </trkpt>
      <trkpt lat="43.00709" lon="1.1476">
        <ele>476.2</ele>
        <time>2024-04-21T12:44:36.994Z</time>
      </trkpt>
      <trkpt lat="43.0071" lon="1.14762">
        <ele>476.4</ele>
        <time>2024-04-21T12:44:37.994Z</time>
      </trkpt>
      <trkpt lat="43.00711" lon="1.14765">
        <ele>476.6</ele>
        <time>2024-04-21T12:44:38.994Z</time>
      </trkpt>
      <trkpt lat="43.00712" lon="1.14768">
        <ele>476.8</ele>
        <time>2024-04-21T12:44:39.994Z</time>
      </trkpt>
      <trkpt lat="43.00712" lon="1.14769">
        <ele>477</ele>
        <time>2024-04-21T12:44:40.994Z</time>
      </trkpt>
      <trkpt lat="43.00712" lon="1.14771">
        <ele>477</ele>
        <time>2024-04-21T12:44:41.994Z</time>
      </trkpt>
      <trkpt lat="43.00712" lon="1.14773">
        <ele>477.6</ele>
        <time>2024-04-21T12:44:42.994Z</time>
      </trkpt>
      <trkpt lat="43.00712" lon="1.14774">
        <ele>477.8</ele>
        <time>2024-04-21T12:44:43.994Z</time>
      </trkpt>
      <trkpt lat="43.00713" lon="1.14777">
        <ele>478</ele>
        <time>2024-04-21T12:44:44.994Z</time>
      </trkpt>
      <trkpt lat="43.00714" lon="1.14779">
        <ele>478.6</ele>
        <time>2024-04-21T12:44:45.994Z</time>
      </trkpt>
      <trkpt lat="43.00715" lon="1.14781">
        <ele>478.6</ele>
        <time>2024-04-21T12:44:46.994Z</time>
      </trkpt>
      <trkpt lat="43.00717" lon="1.14783">
        <ele>478.6</ele>
        <time>2024-04-21T12:44:47.994Z</time>
      </trkpt>
      <trkpt lat="43.00717" lon="1.14784">
        <ele>479</ele>
        <time>2024-04-21T12:44:48.994Z</time>
      </trkpt>
      <trkpt lat="43.00718" lon="1.14786">
        <ele>479.4</ele>
        <time>2024-04-21T12:44:49.994Z</time>
      </trkpt>
      <trkpt lat="43.00718" lon="1.14787">
        <ele>479.6</ele>
        <time>2024-04-21T12:44:50.994Z</time>
      </trkpt>
      <trkpt lat="43.00719" lon="1.14789">
        <ele>479.8</ele>
        <time>2024-04-21T12:44:51.994Z</time>
      </trkpt>
      <trkpt lat="43.0072" lon="1.14791">
        <ele>480.2</ele>
        <time>2024-04-21T12:44:52.994Z</time>
      </trkpt>
      <trkpt lat="43.00721" lon="1.14792">
        <ele>480.4</ele>
        <time>2024-04-21T12:44:53.994Z</time>
      </trkpt>
      <trkpt lat="43.00722" lon="1.14795">
        <ele>480.6</ele>
        <time>2024-04-21T12:44:54.994Z</time>
      </trkpt>
      <trkpt lat="43.00723" lon="1.14797">
        <ele>481</ele>
        <time>2024-04-21T12:44:55.994Z</time>
      </trkpt>
      <trkpt lat="43.00724" lon="1.148">
        <ele>481</ele>
        <time>2024-04-21T12:44:56.994Z</time>
      </trkpt>
      <trkpt lat="43.00725" lon="1.14803">
        <ele>481.8</ele>
        <time>2024-04-21T12:44:57.994Z</time>
      </trkpt>
      <trkpt lat="43.00726" lon="1.14806">
        <ele>482</ele>
        <time>2024-04-21T12:44:58.994Z</time>
      </trkpt>
      <trkpt lat="43.00727" lon="1.14807">
        <ele>482.4</ele>
        <time>2024-04-21T12:44:59.994Z</time>
      </trkpt>
      <trkpt lat="43.00727" lon="1.14808">
        <ele>482.6</ele>
        <time>2024-04-21T12:45:00.994Z</time>
      </trkpt>
      <trkpt lat="43.00727" lon="1.14809">
        <ele>482.8</ele>
        <time>2024-04-21T12:45:01.994Z</time>
      </trkpt>
      <trkpt lat="43.00728" lon="1.14812">
        <ele>483.2</ele>
        <time>2024-04-21T12:45:02.994Z</time>
      </trkpt>
      <trkpt lat="43.00729" lon="1.14814">
        <ele>483.2</ele>
        <time>2024-04-21T12:45:03.994Z</time>
      </trkpt>
      <trkpt lat="43.00731" lon="1.14817">
        <ele>483.6</ele>
        <time>2024-04-21T12:45:04.994Z</time>
      </trkpt>
      <trkpt lat="43.00732" lon="1.14819">
        <ele>483.8</ele>
        <time>2024-04-21T12:45:05.994Z</time>
      </trkpt>
      <trkpt lat="43.00732" lon="1.14821">
        <ele>483.8</ele>
        <time>2024-04-21T12:45:06.994Z</time>
      </trkpt>
      <trkpt lat="43.00733" lon="1.14823">
        <ele>484.4</ele>
        <time>2024-04-21T12:45:07.994Z</time>
      </trkpt>
      <trkpt lat="43.00734" lon="1.14825">
        <ele>484.6</ele>
        <time>2024-04-21T12:45:08.994Z</time>
      </trkpt>
      <trkpt lat="43.00735" lon="1.14827">
        <ele>484.8</ele>
        <time>2024-04-21T12:45:09.994Z</time>
      </trkpt>
      <trkpt lat="43.00736" lon="1.14829">
        <ele>485</ele>
        <time>2024-04-21T12:45:10.994Z</time>
      </trkpt>
      <trkpt lat="43.00736" lon="1.14832">
        <ele>485.6</ele>
        <time>2024-04-21T12:45:11.994Z</time>
      </trkpt>
      <trkpt lat="43.00737" lon="1.14834">
        <ele>485.6</ele>
        <time>2024-04-21T12:45:12.994Z</time>
      </trkpt>
      <trkpt lat="43.00737" lon="1.14835">
        <ele>486.2</ele>
        <time>2024-04-21T12:45:13.994Z</time>
      </trkpt>
      <trkpt lat="43.00737" lon="1.14837">
        <ele>486.4</ele>
        <time>2024-04-21T12:45:14.994Z</time>
      </trkpt>
      <trkpt lat="43.00738" lon="1.14838">
        <ele>486.8</ele>
        <time>2024-04-21T12:45:15.994Z</time>
      </trkpt>
      <trkpt lat="43.00739" lon="1.1484">
        <ele>487</ele>
        <time>2024-04-21T12:45:16.994Z</time>
      </trkpt>
      <trkpt lat="43.0074" lon="1.14842">
        <ele>487</ele>
        <time>2024-04-21T12:45:17.994Z</time>
      </trkpt>
      <trkpt lat="43.00741" lon="1.14844">
        <ele>487.4</ele>
        <time>2024-04-21T12:45:18.994Z</time>
      </trkpt>
      <trkpt lat="43.00742" lon="1.14846">
        <ele>487.8</ele>
        <time>2024-04-21T12:45:19.994Z</time>
      </trkpt>
      <trkpt lat="43.00743" lon="1.14847">
        <ele>487.8</ele>
        <time>2024-04-21T12:45:20.994Z</time>
      </trkpt>
      <trkpt lat="43.00744" lon="1.14849">
        <ele>488.2</ele>
        <time>2024-04-21T12:45:21.994Z</time>
      </trkpt>
      <trkpt lat="43.00744" lon="1.1485">
        <ele>488.6</ele>
        <time>2024-04-21T12:45:22.994Z</time>
      </trkpt>
      <trkpt lat="43.00745" lon="1.14851">
        <ele>488.6</ele>
        <time>2024-04-21T12:45:23.994Z</time>
      </trkpt>
      <trkpt lat="43.00746" lon="1.14852">
        <ele>488.8</ele>
        <time>2024-04-21T12:45:24.994Z</time>
      </trkpt>
      <trkpt lat="43.00747" lon="1.14853">
        <ele>489.2</ele>
        <time>2024-04-21T12:45:25.994Z</time>
      </trkpt>
      <trkpt lat="43.00747" lon="1.14853">
        <ele>489.6</ele>
        <time>2024-04-21T12:45:26.994Z</time>
      </trkpt>
      <trkpt lat="43.00747" lon="1.14853">
        <ele>489.8</ele>
        <time>2024-04-21T12:45:27.994Z</time>
      </trkpt>
      <trkpt lat="43.00748" lon="1.14853">
        <ele>489.8</ele>
        <time>2024-04-21T12:45:28.994Z</time>
      </trkpt>
      <trkpt lat="43.00748" lon="1.14854">
        <ele>489.8</ele>
        <time>2024-04-21T12:45:29.994Z</time>
      </trkpt>
      <trkpt lat="43.00748" lon="1.14856">
        <ele>490</ele>
        <time>2024-04-21T12:45:30.994Z</time>
      </trkpt>
      <trkpt lat="43.00749" lon="1.14858">
        <ele>490.2</ele>
        <time>2024-04-21T12:45:31.994Z</time>
      </trkpt>
      <trkpt lat="43.0075" lon="1.1486">
        <ele>490.4</ele>
        <time>2024-04-21T12:45:32.994Z</time>
      </trkpt>
      <trkpt lat="43.00751" lon="1.14861">
        <ele>490.4</ele>
        <time>2024-04-21T12:45:33.994Z</time>
      </trkpt>
      <trkpt lat="43.00751" lon="1.14861">
        <ele>490.8</ele>
        <time>2024-04-21T12:45:34.994Z</time>
      </trkpt>
      <trkpt lat="43.00751" lon="1.14862">
        <ele>490.8</ele>
        <time>2024-04-21T12:45:35.994Z</time>
      </trkpt>
      <trkpt lat="43.00751" lon="1.14864">
        <ele>490.8</ele>
        <time>2024-04-21T12:45:36.994Z</time>
      </trkpt>
      <trkpt lat="43.00751" lon="1.14864">
        <ele>491.2</ele>
        <time>2024-04-21T12:45:37.994Z</time>
      </trkpt>
      <trkpt lat="43.00751" lon="1.14864">
        <ele>491.6</ele>
        <time>2024-04-21T12:45:38.994Z</time>
      </trkpt>
      <trkpt lat="43.00751" lon="1.14864">
        <ele>491.6</ele>
        <time>2024-04-21T12:45:39.994Z</time>
      </trkpt>
      <trkpt lat="43.00751" lon="1.14864">
        <ele>491.8</ele>
        <time>2024-04-21T12:45:40.994Z</time>
      </trkpt>
      <trkpt lat="43.00751" lon="1.14864">
        <ele>491.8</ele>
        <time>2024-04-21T12:45:41.994Z</time>
      </trkpt>
      <trkpt lat="43.00751" lon="1.14864">
        <ele>491.8</ele>
        <time>2024-04-21T12:45:42.994Z</time>
      </trkpt>
      <trkpt lat="43.00751" lon="1.14868">
        <ele>492.2</ele>
        <time>2024-04-21T12:45:58.994Z</time>
      </trkpt>
      <trkpt lat="43.00752" lon="1.14869">
        <ele>492.4</ele>
        <time>2024-04-21T12:45:59.994Z</time>
      </trkpt>
      <trkpt lat="43.00753" lon="1.1487">
        <ele>492.4</ele>
        <time>2024-04-21T12:46:00.994Z</time>
      </trkpt>
      <trkpt lat="43.00753" lon="1.14871">
        <ele>492.8</ele>
        <time>2024-04-21T12:46:01.994Z</time>
      </trkpt>
      <trkpt lat="43.00753" lon="1.14871">
        <ele>492.8</ele>
        <time>2024-04-21T12:46:02.994Z</time>
      </trkpt>
      <trkpt lat="43.00754" lon="1.14872">
        <ele>493</ele>
        <time>2024-04-21T12:46:03.994Z</time>
      </trkpt>
      <trkpt lat="43.00755" lon="1.14873">
        <ele>493</ele>
        <time>2024-04-21T12:46:04.994Z</time>
      </trkpt>
      <trkpt lat="43.00755" lon="1.14874">
        <ele>493</ele>
        <time>2024-04-21T12:46:05.994Z</time>
      </trkpt>
      <trkpt lat="43.00755" lon="1.14874">
        <ele>493.4</ele>
        <time>2024-04-21T12:46:06.994Z</time>
      </trkpt>
      <trkpt lat="43.00755" lon="1.14876">
        <ele>493.4</ele>
        <time>2024-04-21T12:46:07.994Z</time>
      </trkpt>
      <trkpt lat="43.00755" lon="1.14877">
        <ele>493.6</ele>
        <time>2024-04-21T12:46:08.994Z</time>
      </trkpt>
      <trkpt lat="43.00755" lon="1.14878">
        <ele>493.6</ele>
        <time>2024-04-21T12:46:09.994Z</time>
      </trkpt>
      <trkpt lat="43.00755" lon="1.1488">
        <ele>494</ele>
        <time>2024-04-21T12:46:10.994Z</time>
      </trkpt>
      <trkpt lat="43.00755" lon="1.14881">
        <ele>494.2</ele>
        <time>2024-04-21T12:46:11.994Z</time>
      </trkpt>
      <trkpt lat="43.00755" lon="1.14882">
        <ele>494.4</ele>
        <time>2024-04-21T12:46:12.994Z</time>
      </trkpt>
      <trkpt lat="43.00756" lon="1.14883">
        <ele>494.8</ele>
        <time>2024-04-21T12:46:13.994Z</time>
      </trkpt>
      <trkpt lat="43.00757" lon="1.14884">
        <ele>494.8</ele>
        <time>2024-04-21T12:46:14.994Z</time>
      </trkpt>
      <trkpt lat="43.00757" lon="1.14885">
        <ele>495</ele>
        <time>2024-04-21T12:46:15.994Z</time>
      </trkpt>
      <trkpt lat="43.00758" lon="1.14886">
        <ele>495</ele>
        <time>2024-04-21T12:46:16.994Z</time>
      </trkpt>
      <trkpt lat="43.00759" lon="1.14887">
        <ele>495.2</ele>
        <time>2024-04-21T12:46:17.994Z</time>
      </trkpt>
      <trkpt lat="43.00759" lon="1.14887">
        <ele>495.2</ele>
        <time>2024-04-21T12:46:18.994Z</time>
      </trkpt>
      <trkpt lat="43.0076" lon="1.14888">
        <ele>495.2</ele>
        <time>2024-04-21T12:46:19.994Z</time>
      </trkpt>
      <trkpt lat="43.0076" lon="1.14888">
        <ele>495.6</ele>
        <time>2024-04-21T12:46:20.994Z</time>
      </trkpt>
      <trkpt lat="43.0076" lon="1.14889">
        <ele>495.8</ele>
        <time>2024-04-21T12:46:21.994Z</time>
      </trkpt>
      <trkpt lat="43.00761" lon="1.1489">
        <ele>495.8</ele>
        <time>2024-04-21T12:46:22.994Z</time>
      </trkpt>
      <trkpt lat="43.00762" lon="1.14892">
        <ele>495.8</ele>
        <time>2024-04-21T12:46:23.994Z</time>
      </trkpt>
      <trkpt lat="43.00763" lon="1.14893">
        <ele>496.2</ele>
        <time>2024-04-21T12:46:24.994Z</time>
      </trkpt>
      <trkpt lat="43.00763" lon="1.14893">
        <ele>496.2</ele>
        <time>2024-04-21T12:46:25.994Z</time>
      </trkpt>
      <trkpt lat="43.00763" lon="1.14895">
        <ele>496.6</ele>
        <time>2024-04-21T12:46:26.994Z</time>
      </trkpt>
      <trkpt lat="43.00764" lon="1.14896">
        <ele>496.6</ele>
        <time>2024-04-21T12:46:27.994Z</time>
      </trkpt>
      <trkpt lat="43.00764" lon="1.14897">
        <ele>496.6</ele>
        <time>2024-04-21T12:46:28.994Z</time>
      </trkpt>
      <trkpt lat="43.00764" lon="1.14898">
        <ele>497</ele>
        <time>2024-04-21T12:46:29.994Z</time>
      </trkpt>
      <trkpt lat="43.00764" lon="1.14899">
        <ele>497</ele>
        <time>2024-04-21T12:46:30.994Z</time>
      </trkpt>
      <trkpt lat="43.00765" lon="1.149">
        <ele>497.2</ele>
        <time>2024-04-21T12:46:31.994Z</time>
      </trkpt>
      <trkpt lat="43.00765" lon="1.149">
        <ele>497.2</ele>
        <time>2024-04-21T12:46:32.994Z</time>
      </trkpt>
      <trkpt lat="43.00766" lon="1.14901">
        <ele>497.2</ele>
        <time>2024-04-21T12:46:33.994Z</time>
      </trkpt>
      <trkpt lat="43.00766" lon="1.14902">
        <ele>497.2</ele>
        <time>2024-04-21T12:46:34.994Z</time>
      </trkpt>
      <trkpt lat="43.00766" lon="1.14902">
        <ele>497.2</ele>
        <time>2024-04-21T12:46:35.994Z</time>
      </trkpt>
      <trkpt lat="43.00766" lon="1.14902">
        <ele>497.6</ele>
        <time>2024-04-21T12:46:36.994Z</time>
      </trkpt>
      <trkpt lat="43.00767" lon="1.14907">
        <ele>497.8</ele>
        <time>2024-04-21T12:46:42.994Z</time>
      </trkpt>
      <trkpt lat="43.00767" lon="1.14908">
        <ele>497.8</ele>
        <time>2024-04-21T12:46:43.994Z</time>
      </trkpt>
      <trkpt lat="43.00768" lon="1.1491">
        <ele>497.8</ele>
        <time>2024-04-21T12:46:44.994Z</time>
      </trkpt>
      <trkpt lat="43.00768" lon="1.14912">
        <ele>498</ele>
        <time>2024-04-21T12:46:45.994Z</time>
      </trkpt>
      <trkpt lat="43.00769" lon="1.14914">
        <ele>498</ele>
        <time>2024-04-21T12:46:46.994Z</time>
      </trkpt>
      <trkpt lat="43.0077" lon="1.14915">
        <ele>498.4</ele>
        <time>2024-04-21T12:46:47.994Z</time>
      </trkpt>
      <trkpt lat="43.00771" lon="1.14917">
        <ele>498.6</ele>
        <time>2024-04-21T12:46:48.994Z</time>
      </trkpt>
      <trkpt lat="43.00772" lon="1.14919">
        <ele>498.6</ele>
        <time>2024-04-21T12:46:49.994Z</time>
      </trkpt>
      <trkpt lat="43.00773" lon="1.14921">
        <ele>499</ele>
        <time>2024-04-21T12:46:50.994Z</time>
      </trkpt>
      <trkpt lat="43.00773" lon="1.14924">
        <ele>499.2</ele>
        <time>2024-04-21T12:46:51.994Z</time>
      </trkpt>
      <trkpt lat="43.00774" lon="1.14926">
        <ele>499.4</ele>
        <time>2024-04-21T12:46:52.994Z</time>
      </trkpt>
      <trkpt lat="43.00774" lon="1.14928">
        <ele>499.8</ele>
        <time>2024-04-21T12:46:53.994Z</time>
      </trkpt>
      <trkpt lat="43.00775" lon="1.14931">
        <ele>500</ele>
        <time>2024-04-21T12:46:54.994Z</time>
      </trkpt>
      <trkpt lat="43.00776" lon="1.14933">
        <ele>500.2</ele>
        <time>2024-04-21T12:46:55.994Z</time>
      </trkpt>
      <trkpt lat="43.00777" lon="1.14934">
        <ele>500.6</ele>
        <time>2024-04-21T12:46:56.994Z</time>
      </trkpt>
      <trkpt lat="43.00778" lon="1.14936">
        <ele>500.8</ele>
        <time>2024-04-21T12:46:57.994Z</time>
      </trkpt>
      <trkpt lat="43.00779" lon="1.14937">
        <ele>500.8</ele>
        <time>2024-04-21T12:46:58.994Z</time>
      </trkpt>
      <trkpt lat="43.0078" lon="1.14939">
        <ele>501.2</ele>
        <time>2024-04-21T12:46:59.994Z</time>
      </trkpt>
      <trkpt lat="43.0078" lon="1.14941">
        <ele>501.4</ele>
        <time>2024-04-21T12:47:00.994Z</time>
      </trkpt>
      <trkpt lat="43.00781" lon="1.14943">
        <ele>501.6</ele>
        <time>2024-04-21T12:47:01.994Z</time>
      </trkpt>
      <trkpt lat="43.00782" lon="1.14945">
        <ele>501.6</ele>
        <time>2024-04-21T12:47:02.994Z</time>
      </trkpt>
      <trkpt lat="43.00783" lon="1.14947">
        <ele>502</ele>
        <time>2024-04-21T12:47:03.994Z</time>
      </trkpt>
      <trkpt lat="43.00784" lon="1.14949">
        <ele>502</ele>
        <time>2024-04-21T12:47:04.994Z</time>
      </trkpt>
      <trkpt lat="43.00785" lon="1.14951">
        <ele>502</ele>
        <time>2024-04-21T12:47:05.994Z</time>
      </trkpt>
      <trkpt lat="43.00786" lon="1.14954">
        <ele>502.2</ele>
        <time>2024-04-21T12:47:06.994Z</time>
      </trkpt>
      <trkpt lat="43.00787" lon="1.14956">
        <ele>502.2</ele>
        <time>2024-04-21T12:47:07.994Z</time>
      </trkpt>
      <trkpt lat="43.00787" lon="1.14958">
        <ele>502.6</ele>
        <time>2024-04-21T12:47:08.994Z</time>
      </trkpt>
      <trkpt lat="43.00788" lon="1.1496">
        <ele>502.6</ele>
        <time>2024-04-21T12:47:09.994Z</time>
      </trkpt>
      <trkpt lat="43.0079" lon="1.14962">
        <ele>503</ele>
        <time>2024-04-21T12:47:10.994Z</time>
      </trkpt>
      <trkpt lat="43.00791" lon="1.14965">
        <ele>503</ele>
        <time>2024-04-21T12:47:11.994Z</time>
      </trkpt>
      <trkpt lat="43.00792" lon="1.14967">
        <ele>503.4</ele>
        <time>2024-04-21T12:47:12.994Z</time>
      </trkpt>
      <trkpt lat="43.00793" lon="1.14969">
        <ele>503.6</ele>
        <time>2024-04-21T12:47:13.994Z</time>
      </trkpt>
      <trkpt lat="43.00793" lon="1.1497">
        <ele>503.6</ele>
        <time>2024-04-21T12:47:14.994Z</time>
      </trkpt>
      <trkpt lat="43.00794" lon="1.14971">
        <ele>504</ele>
        <time>2024-04-21T12:47:15.994Z</time>
      </trkpt>
      <trkpt lat="43.00795" lon="1.14973">
        <ele>504</ele>
        <time>2024-04-21T12:47:16.994Z</time>
      </trkpt>
      <trkpt lat="43.00797" lon="1.14975">
        <ele>504</ele>
        <time>2024-04-21T12:47:17.994Z</time>
      </trkpt>
      <trkpt lat="43.00799" lon="1.14976">
        <ele>504.2</ele>
        <time>2024-04-21T12:47:18.994Z</time>
      </trkpt>
      <trkpt lat="43.00799" lon="1.14976">
        <ele>504.2</ele>
        <time>2024-04-21T12:47:19.994Z</time>
      </trkpt>
      <trkpt lat="43.008" lon="1.14978">
        <ele>504.2</ele>
        <time>2024-04-21T12:47:20.994Z</time>
      </trkpt>
      <trkpt lat="43.00802" lon="1.14979">
        <ele>504.2</ele>
        <time>2024-04-21T12:47:21.994Z</time>
      </trkpt>
      <trkpt lat="43.00805" lon="1.14981">
        <ele>503.8</ele>
        <time>2024-04-21T12:47:22.994Z</time>
      </trkpt>
      <trkpt lat="43.00807" lon="1.14982">
        <ele>503.8</ele>
        <time>2024-04-21T12:47:23.994Z</time>
      </trkpt>
      <trkpt lat="43.0081" lon="1.14982">
        <ele>503.4</ele>
        <time>2024-04-21T12:47:24.994Z</time>
      </trkpt>
      <trkpt lat="43.00813" lon="1.14983">
        <ele>503.4</ele>
        <time>2024-04-21T12:47:25.994Z</time>
      </trkpt>
      <trkpt lat="43.00815" lon="1.14985">
        <ele>503.4</ele>
        <time>2024-04-21T12:47:26.994Z</time>
      </trkpt>
      <trkpt lat="43.00817" lon="1.14987">
        <ele>503.4</ele>
        <time>2024-04-21T12:47:27.994Z</time>
      </trkpt>
      <trkpt lat="43.00819" lon="1.14989">
        <ele>503.4</ele>
        <time>2024-04-21T12:47:28.994Z</time>
      </trkpt>
      <trkpt lat="43.00821" lon="1.1499">
        <ele>503.4</ele>
        <time>2024-04-21T12:47:29.994Z</time>
      </trkpt>
      <trkpt lat="43.00823" lon="1.14991">
        <ele>503.4</ele>
        <time>2024-04-21T12:47:30.994Z</time>
      </trkpt>
      <trkpt lat="43.00824" lon="1.14993">
        <ele>503.4</ele>
        <time>2024-04-21T12:47:31.994Z</time>
      </trkpt>
      <trkpt lat="43.00826" lon="1.14995">
        <ele>503.4</ele>
        <time>2024-04-21T12:47:32.994Z</time>
      </trkpt>
      <trkpt lat="43.00828" lon="1.14997">
        <ele>503.4</ele>
        <time>2024-04-21T12:47:33.994Z</time>
      </trkpt>
      <trkpt lat="43.0083" lon="1.14999">
        <ele>503.4</ele>
        <time>2024-04-21T12:47:34.994Z</time>
      </trkpt>
      <trkpt lat="43.00833" lon="1.15002">
        <ele>503.4</ele>
        <time>2024-04-21T12:47:35.994Z</time>
      </trkpt>
      <trkpt lat="43.00836" lon="1.15004">
        <ele>503.4</ele>
        <time>2024-04-21T12:47:36.994Z</time>
      </trkpt>
      <trkpt lat="43.00839" lon="1.15007">
        <ele>502.8</ele>
        <time>2024-04-21T12:47:37.994Z</time>
      </trkpt>
      <trkpt lat="43.00842" lon="1.1501">
        <ele>502.4</ele>
        <time>2024-04-21T12:47:38.994Z</time>
      </trkpt>
      <trkpt lat="43.00845" lon="1.15013">
        <ele>501.6</ele>
        <time>2024-04-21T12:47:39.994Z</time>
      </trkpt>
      <trkpt lat="43.00847" lon="1.15016">
        <ele>501.2</ele>
        <time>2024-04-21T12:47:40.994Z</time>
      </trkpt>
      <trkpt lat="43.0085" lon="1.15019">
        <ele>501</ele>
        <time>2024-04-21T12:47:41.994Z</time>
      </trkpt>
      <trkpt lat="43.00852" lon="1.15021">
        <ele>500.4</ele>
        <time>2024-04-21T12:47:42.994Z</time>
      </trkpt>
      <trkpt lat="43.00854" lon="1.15024">
        <ele>500</ele>
        <time>2024-04-21T12:47:43.994Z</time>
      </trkpt>
      <trkpt lat="43.00856" lon="1.15026">
        <ele>500</ele>
        <time>2024-04-21T12:47:44.994Z</time>
      </trkpt>
      <trkpt lat="43.00858" lon="1.15029">
        <ele>499.6</ele>
        <time>2024-04-21T12:47:45.994Z</time>
      </trkpt>
      <trkpt lat="43.0086" lon="1.15031">
        <ele>499.4</ele>
        <time>2024-04-21T12:47:46.994Z</time>
      </trkpt>
      <trkpt lat="43.00863" lon="1.15035">
        <ele>499.4</ele>
        <time>2024-04-21T12:47:47.994Z</time>
      </trkpt>
      <trkpt lat="43.00865" lon="1.15037">
        <ele>499.4</ele>
        <time>2024-04-21T12:47:48.994Z</time>
      </trkpt>
      <trkpt lat="43.00867" lon="1.1504">
        <ele>499</ele>
        <time>2024-04-21T12:47:49.994Z</time>
      </trkpt>
      <trkpt lat="43.00869" lon="1.15043">
        <ele>498.4</ele>
        <time>2024-04-21T12:47:50.994Z</time>
      </trkpt>
      <trkpt lat="43.00871" lon="1.15046">
        <ele>498</ele>
        <time>2024-04-21T12:47:51.994Z</time>
      </trkpt>
      <trkpt lat="43.00872" lon="1.15049">
        <ele>497.8</ele>
        <time>2024-04-21T12:47:52.994Z</time>
      </trkpt>
      <trkpt lat="43.00874" lon="1.15051">
        <ele>497.8</ele>
        <time>2024-04-21T12:47:53.994Z</time>
      </trkpt>
      <trkpt lat="43.00877" lon="1.15054">
        <ele>497.4</ele>
        <time>2024-04-21T12:47:54.994Z</time>
      </trkpt>
      <trkpt lat="43.00879" lon="1.15056">
        <ele>497.4</ele>
        <time>2024-04-21T12:47:55.994Z</time>
      </trkpt>
      <trkpt lat="43.0088" lon="1.15058">
        <ele>497.4</ele>
        <time>2024-04-21T12:47:56.994Z</time>
      </trkpt>
      <trkpt lat="43.00882" lon="1.15061">
        <ele>497.2</ele>
        <time>2024-04-21T12:47:57.994Z</time>
      </trkpt>
      <trkpt lat="43.00883" lon="1.15064">
        <ele>496.8</ele>
        <time>2024-04-21T12:47:58.994Z</time>
      </trkpt>
      <trkpt lat="43.00884" lon="1.15066">
        <ele>496.6</ele>
        <time>2024-04-21T12:47:59.994Z</time>
      </trkpt>
      <trkpt lat="43.00886" lon="1.15069">
        <ele>496.4</ele>
        <time>2024-04-21T12:48:00.994Z</time>
      </trkpt>
      <trkpt lat="43.00887" lon="1.1507">
        <ele>496</ele>
        <time>2024-04-21T12:48:01.994Z</time>
      </trkpt>
      <trkpt lat="43.00888" lon="1.15072">
        <ele>495.8</ele>
        <time>2024-04-21T12:48:02.994Z</time>
      </trkpt>
      <trkpt lat="43.0089" lon="1.15074">
        <ele>495.4</ele>
        <time>2024-04-21T12:48:03.994Z</time>
      </trkpt>
      <trkpt lat="43.00891" lon="1.15076">
        <ele>495.2</ele>
        <time>2024-04-21T12:48:04.994Z</time>
      </trkpt>
      <trkpt lat="43.00894" lon="1.15079">
        <ele>495.2</ele>
        <time>2024-04-21T12:48:05.994Z</time>
      </trkpt>
      <trkpt lat="43.00896" lon="1.15082">
        <ele>494.6</ele>
        <time>2024-04-21T12:48:06.994Z</time>
      </trkpt>
      <trkpt lat="43.00898" lon="1.15084">
        <ele>494.6</ele>
        <time>2024-04-21T12:48:07.994Z</time>
      </trkpt>
      <trkpt lat="43.00901" lon="1.15087">
        <ele>494.2</ele>
        <time>2024-04-21T12:48:08.994Z</time>
      </trkpt>
      <trkpt lat="43.00903" lon="1.15088">
        <ele>493.8</ele>
        <time>2024-04-21T12:48:09.994Z</time>
      </trkpt>
      <trkpt lat="43.00905" lon="1.1509">
        <ele>493.2</ele>
        <time>2024-04-21T12:48:10.994Z</time>
      </trkpt>
      <trkpt lat="43.00908" lon="1.15092">
        <ele>492.8</ele>
        <time>2024-04-21T12:48:11.994Z</time>
      </trkpt>
      <trkpt lat="43.00911" lon="1.15093">
        <ele>492.8</ele>
        <time>2024-04-21T12:48:12.994Z</time>
      </trkpt>
      <trkpt lat="43.00913" lon="1.15095">
        <ele>492.6</ele>
        <time>2024-04-21T12:48:13.994Z</time>
      </trkpt>
      <trkpt lat="43.00915" lon="1.15096">
        <ele>492</ele>
        <time>2024-04-21T12:48:14.994Z</time>
      </trkpt>
      <trkpt lat="43.00918" lon="1.15098">
        <ele>492</ele>
        <time>2024-04-21T12:48:15.994Z</time>
      </trkpt>
      <trkpt lat="43.0092" lon="1.15099">
        <ele>491.6</ele>
        <time>2024-04-21T12:48:16.994Z</time>
      </trkpt>
      <trkpt lat="43.00922" lon="1.15101">
        <ele>491.2</ele>
        <time>2024-04-21T12:48:17.994Z</time>
      </trkpt>
      <trkpt lat="43.00925" lon="1.15102">
        <ele>490.8</ele>
        <time>2024-04-21T12:48:18.994Z</time>
      </trkpt>
      <trkpt lat="43.00927" lon="1.15104">
        <ele>490.8</ele>
        <time>2024-04-21T12:48:19.994Z</time>
      </trkpt>
      <trkpt lat="43.0093" lon="1.15105">
        <ele>490.4</ele>
        <time>2024-04-21T12:48:20.994Z</time>
      </trkpt>
      <trkpt lat="43.00932" lon="1.15106">
        <ele>490</ele>
        <time>2024-04-21T12:48:21.994Z</time>
      </trkpt>
      <trkpt lat="43.00935" lon="1.15106">
        <ele>490</ele>
        <time>2024-04-21T12:48:22.994Z</time>
      </trkpt>
      <trkpt lat="43.00937" lon="1.15107">
        <ele>489.6</ele>
        <time>2024-04-21T12:48:23.994Z</time>
      </trkpt>
      <trkpt lat="43.00938" lon="1.15108">
        <ele>489.6</ele>
        <time>2024-04-21T12:48:24.994Z</time>
      </trkpt>
      <trkpt lat="43.0094" lon="1.15108">
        <ele>489.6</ele>
        <time>2024-04-21T12:48:25.994Z</time>
      </trkpt>
      <trkpt lat="43.00943" lon="1.15108">
        <ele>489.4</ele>
        <time>2024-04-21T12:48:26.994Z</time>
      </trkpt>
      <trkpt lat="43.00945" lon="1.15109">
        <ele>489.4</ele>
        <time>2024-04-21T12:48:27.994Z</time>
      </trkpt>
      <trkpt lat="43.00946" lon="1.1511">
        <ele>489</ele>
        <time>2024-04-21T12:48:28.994Z</time>
      </trkpt>
      <trkpt lat="43.00947" lon="1.15111">
        <ele>488.6</ele>
        <time>2024-04-21T12:48:29.994Z</time>
      </trkpt>
      <trkpt lat="43.00948" lon="1.15112">
        <ele>488.6</ele>
        <time>2024-04-21T12:48:30.994Z</time>
      </trkpt>
      <trkpt lat="43.00949" lon="1.15113">
        <ele>488.2</ele>
        <time>2024-04-21T12:48:31.994Z</time>
      </trkpt>
      <trkpt lat="43.00951" lon="1.15115">
        <ele>488.2</ele>
        <time>2024-04-21T12:48:32.994Z</time>
      </trkpt>
      <trkpt lat="43.00954" lon="1.15116">
        <ele>487.6</ele>
        <time>2024-04-21T12:48:33.994Z</time>
      </trkpt>
      <trkpt lat="43.00955" lon="1.15117">
        <ele>487.6</ele>
        <time>2024-04-21T12:48:34.994Z</time>
      </trkpt>
      <trkpt lat="43.00957" lon="1.15119">
        <ele>487.6</ele>
        <time>2024-04-21T12:48:35.994Z</time>
      </trkpt>
      <trkpt lat="43.00959" lon="1.15121">
        <ele>487.6</ele>
        <time>2024-04-21T12:48:36.994Z</time>
      </trkpt>
      <trkpt lat="43.00962" lon="1.15123">
        <ele>487.2</ele>
        <time>2024-04-21T12:48:37.994Z</time>
      </trkpt>
      <trkpt lat="43.00964" lon="1.15125">
        <ele>487</ele>
        <time>2024-04-21T12:48:38.994Z</time>
      </trkpt>
      <trkpt lat="43.00967" lon="1.15128">
        <ele>487</ele>
        <time>2024-04-21T12:48:39.994Z</time>
      </trkpt>
      <trkpt lat="43.0097" lon="1.15131">
        <ele>486.2</ele>
        <time>2024-04-21T12:48:40.994Z</time>
      </trkpt>
      <trkpt lat="43.00972" lon="1.15133">
        <ele>486.2</ele>
        <time>2024-04-21T12:48:41.994Z</time>
      </trkpt>
      <trkpt lat="43.00974" lon="1.15135">
        <ele>485.6</ele>
        <time>2024-04-21T12:48:42.994Z</time>
      </trkpt>
      <trkpt lat="43.00976" lon="1.15137">
        <ele>485.4</ele>
        <time>2024-04-21T12:48:43.994Z</time>
      </trkpt>
      <trkpt lat="43.00978" lon="1.15139">
        <ele>485</ele>
        <time>2024-04-21T12:48:44.994Z</time>
      </trkpt>
      <trkpt lat="43.0098" lon="1.1514">
        <ele>484.6</ele>
        <time>2024-04-21T12:48:45.994Z</time>
      </trkpt>
      <trkpt lat="43.00982" lon="1.15143">
        <ele>484.4</ele>
        <time>2024-04-21T12:48:46.994Z</time>
      </trkpt>
      <trkpt lat="43.00984" lon="1.15145">
        <ele>484.2</ele>
        <time>2024-04-21T12:48:47.994Z</time>
      </trkpt>
      <trkpt lat="43.00986" lon="1.15148">
        <ele>484</ele>
        <time>2024-04-21T12:48:48.994Z</time>
      </trkpt>
      <trkpt lat="43.00989" lon="1.15151">
        <ele>484</ele>
        <time>2024-04-21T12:48:49.994Z</time>
      </trkpt>
      <trkpt lat="43.00992" lon="1.15154">
        <ele>483.2</ele>
        <time>2024-04-21T12:48:50.994Z</time>
      </trkpt>
      <trkpt lat="43.00995" lon="1.15156">
        <ele>483.2</ele>
        <time>2024-04-21T12:48:51.994Z</time>
      </trkpt>
      <trkpt lat="43.00999" lon="1.15159">
        <ele>483.4</ele>
        <time>2024-04-21T12:48:52.994Z</time>
      </trkpt>
      <trkpt lat="43.01003" lon="1.15162">
        <ele>482.8</ele>
        <time>2024-04-21T12:48:53.994Z</time>
      </trkpt>
      <trkpt lat="43.01007" lon="1.15165">
        <ele>482.6</ele>
        <time>2024-04-21T12:48:54.994Z</time>
      </trkpt>
      <trkpt lat="43.0101" lon="1.15168">
        <ele>482</ele>
        <time>2024-04-21T12:48:55.994Z</time>
      </trkpt>
      <trkpt lat="43.01013" lon="1.15171">
        <ele>481.6</ele>
        <time>2024-04-21T12:48:56.994Z</time>
      </trkpt>
      <trkpt lat="43.01016" lon="1.15173">
        <ele>481.4</ele>
        <time>2024-04-21T12:48:57.994Z</time>
      </trkpt>
      <trkpt lat="43.01019" lon="1.15176">
        <ele>481.2</ele>
        <time>2024-04-21T12:48:58.994Z</time>
      </trkpt>
      <trkpt lat="43.01023" lon="1.15179">
        <ele>481.2</ele>
        <time>2024-04-21T12:48:59.994Z</time>
      </trkpt>
      <trkpt lat="43.01026" lon="1.15184">
        <ele>480.6</ele>
        <time>2024-04-21T12:49:00.994Z</time>
      </trkpt>
      <trkpt lat="43.01028" lon="1.15189">
        <ele>480.2</ele>
        <time>2024-04-21T12:49:01.994Z</time>
      </trkpt>
      <trkpt lat="43.0103" lon="1.15194">
        <ele>479.8</ele>
        <time>2024-04-21T12:49:02.994Z</time>
      </trkpt>
      <trkpt lat="43.01031" lon="1.15199">
        <ele>479.4</ele>
        <time>2024-04-21T12:49:03.994Z</time>
      </trkpt>
      <trkpt lat="43.01033" lon="1.15205">
        <ele>479.4</ele>
        <time>2024-04-21T12:49:04.994Z</time>
      </trkpt>
      <trkpt lat="43.01034" lon="1.15211">
        <ele>478.8</ele>
        <time>2024-04-21T12:49:05.994Z</time>
      </trkpt>
      <trkpt lat="43.01035" lon="1.15216">
        <ele>477.8</ele>
        <time>2024-04-21T12:49:06.994Z</time>
      </trkpt>
      <trkpt lat="43.01037" lon="1.1522">
        <ele>477.6</ele>
        <time>2024-04-21T12:49:07.994Z</time>
      </trkpt>
      <trkpt lat="43.0104" lon="1.15226">
        <ele>477.4</ele>
        <time>2024-04-21T12:49:08.994Z</time>
      </trkpt>
      <trkpt lat="43.01043" lon="1.15231">
        <ele>477.4</ele>
        <time>2024-04-21T12:49:09.994Z</time>
      </trkpt>
      <trkpt lat="43.01047" lon="1.15236">
        <ele>477.2</ele>
        <time>2024-04-21T12:49:10.994Z</time>
      </trkpt>
      <trkpt lat="43.0105" lon="1.15241">
        <ele>477</ele>
        <time>2024-04-21T12:49:11.994Z</time>
      </trkpt>
      <trkpt lat="43.01054" lon="1.15246">
        <ele>477</ele>
        <time>2024-04-21T12:49:12.994Z</time>
      </trkpt>
      <trkpt lat="43.01056" lon="1.15252">
        <ele>477</ele>
        <time>2024-04-21T12:49:13.994Z</time>
      </trkpt>
      <trkpt lat="43.01058" lon="1.15258">
        <ele>476.8</ele>
        <time>2024-04-21T12:49:14.994Z</time>
      </trkpt>
      <trkpt lat="43.01059" lon="1.15263">
        <ele>476.8</ele>
        <time>2024-04-21T12:49:15.994Z</time>
      </trkpt>
      <trkpt lat="43.0106" lon="1.15269">
        <ele>476.4</ele>
        <time>2024-04-21T12:49:16.994Z</time>
      </trkpt>
      <trkpt lat="43.0106" lon="1.15275">
        <ele>476.2</ele>
        <time>2024-04-21T12:49:17.994Z</time>
      </trkpt>
      <trkpt lat="43.01061" lon="1.15281">
        <ele>476.2</ele>
        <time>2024-04-21T12:49:18.994Z</time>
      </trkpt>
      <trkpt lat="43.01061" lon="1.15286">
        <ele>476</ele>
        <time>2024-04-21T12:49:19.994Z</time>
      </trkpt>
      <trkpt lat="43.01061" lon="1.15292">
        <ele>476</ele>
        <time>2024-04-21T12:49:20.994Z</time>
      </trkpt>
      <trkpt lat="43.01061" lon="1.15297">
        <ele>476</ele>
        <time>2024-04-21T12:49:21.994Z</time>
      </trkpt>
      <trkpt lat="43.01063" lon="1.15302">
        <ele>476</ele>
        <time>2024-04-21T12:49:22.994Z</time>
      </trkpt>
      <trkpt lat="43.01064" lon="1.15306">
        <ele>476</ele>
        <time>2024-04-21T12:49:23.994Z</time>
      </trkpt>
      <trkpt lat="43.01066" lon="1.15311">
        <ele>476</ele>
        <time>2024-04-21T12:49:24.994Z</time>
      </trkpt>
      <trkpt lat="43.01067" lon="1.15314">
        <ele>476.4</ele>
        <time>2024-04-21T12:49:25.994Z</time>
      </trkpt>
      <trkpt lat="43.01069" lon="1.15318">
        <ele>476.4</ele>
        <time>2024-04-21T12:49:26.994Z</time>
      </trkpt>
      <trkpt lat="43.0107" lon="1.15323">
        <ele>476.6</ele>
        <time>2024-04-21T12:49:27.994Z</time>
      </trkpt>
      <trkpt lat="43.01071" lon="1.15327">
        <ele>476.6</ele>
        <time>2024-04-21T12:49:28.994Z</time>
      </trkpt>
      <trkpt lat="43.01073" lon="1.15331">
        <ele>476.8</ele>
        <time>2024-04-21T12:49:29.994Z</time>
      </trkpt>
      <trkpt lat="43.01074" lon="1.15335">
        <ele>477.2</ele>
        <time>2024-04-21T12:49:30.994Z</time>
      </trkpt>
      <trkpt lat="43.01076" lon="1.15339">
        <ele>477.4</ele>
        <time>2024-04-21T12:49:31.994Z</time>
      </trkpt>
      <trkpt lat="43.01077" lon="1.15343">
        <ele>478</ele>
        <time>2024-04-21T12:49:32.994Z</time>
      </trkpt>
      <trkpt lat="43.01079" lon="1.15348">
        <ele>478</ele>
        <time>2024-04-21T12:49:33.994Z</time>
      </trkpt>
      <trkpt lat="43.0108" lon="1.15352">
        <ele>478</ele>
        <time>2024-04-21T12:49:34.994Z</time>
      </trkpt>
      <trkpt lat="43.01081" lon="1.15356">
        <ele>478.2</ele>
        <time>2024-04-21T12:49:35.994Z</time>
      </trkpt>
      <trkpt lat="43.01083" lon="1.1536">
        <ele>478.2</ele>
        <time>2024-04-21T12:49:36.994Z</time>
      </trkpt>
      <trkpt lat="43.01084" lon="1.15364">
        <ele>478.2</ele>
        <time>2024-04-21T12:49:37.994Z</time>
      </trkpt>
      <trkpt lat="43.01086" lon="1.15368">
        <ele>478.2</ele>
        <time>2024-04-21T12:49:38.994Z</time>
      </trkpt>
      <trkpt lat="43.01087" lon="1.15371">
        <ele>478.2</ele>
        <time>2024-04-21T12:49:39.994Z</time>
      </trkpt>
      <trkpt lat="43.01089" lon="1.15375">
        <ele>478.8</ele>
        <time>2024-04-21T12:49:40.994Z</time>
      </trkpt>
      <trkpt lat="43.01091" lon="1.15379">
        <ele>478.8</ele>
        <time>2024-04-21T12:49:41.994Z</time>
      </trkpt>
      <trkpt lat="43.01093" lon="1.15382">
        <ele>478.8</ele>
        <time>2024-04-21T12:49:42.994Z</time>
      </trkpt>
      <trkpt lat="43.01095" lon="1.15386">
        <ele>479.2</ele>
        <time>2024-04-21T12:49:43.994Z</time>
      </trkpt>
      <trkpt lat="43.01097" lon="1.15389">
        <ele>479.2</ele>
        <time>2024-04-21T12:49:44.994Z</time>
      </trkpt>
      <trkpt lat="43.011" lon="1.15393">
        <ele>479.4</ele>
        <time>2024-04-21T12:49:45.994Z</time>
      </trkpt>
      <trkpt lat="43.01102" lon="1.15396">
        <ele>479.4</ele>
        <time>2024-04-21T12:49:46.994Z</time>
      </trkpt>
      <trkpt lat="43.01104" lon="1.15399">
        <ele>479.4</ele>
        <time>2024-04-21T12:49:47.994Z</time>
      </trkpt>
      <trkpt lat="43.01106" lon="1.15402">
        <ele>479.4</ele>
        <time>2024-04-21T12:49:48.994Z</time>
      </trkpt>
      <trkpt lat="43.01108" lon="1.15405">
        <ele>479.4</ele>
        <time>2024-04-21T12:49:49.994Z</time>
      </trkpt>
      <trkpt lat="43.0111" lon="1.15409">
        <ele>479.4</ele>
        <time>2024-04-21T12:49:50.994Z</time>
      </trkpt>
      <trkpt lat="43.01112" lon="1.15412">
        <ele>479.4</ele>
        <time>2024-04-21T12:49:51.994Z</time>
      </trkpt>
      <trkpt lat="43.01114" lon="1.15415">
        <ele>479.6</ele>
        <time>2024-04-21T12:49:52.994Z</time>
      </trkpt>
      <trkpt lat="43.01116" lon="1.15418">
        <ele>479.6</ele>
        <time>2024-04-21T12:49:53.994Z</time>
      </trkpt>
      <trkpt lat="43.01118" lon="1.15422">
        <ele>479.6</ele>
        <time>2024-04-21T12:49:54.994Z</time>
      </trkpt>
      <trkpt lat="43.0112" lon="1.15425">
        <ele>479.4</ele>
        <time>2024-04-21T12:49:55.994Z</time>
      </trkpt>
      <trkpt lat="43.01122" lon="1.15429">
        <ele>479.4</ele>
        <time>2024-04-21T12:49:56.994Z</time>
      </trkpt>
      <trkpt lat="43.01124" lon="1.15432">
        <ele>479.8</ele>
        <time>2024-04-21T12:49:57.994Z</time>
      </trkpt>
      <trkpt lat="43.01127" lon="1.15436">
        <ele>479.4</ele>
        <time>2024-04-21T12:49:58.994Z</time>
      </trkpt>
      <trkpt lat="43.0113" lon="1.1544">
        <ele>479.4</ele>
        <time>2024-04-21T12:49:59.994Z</time>
      </trkpt>
      <trkpt lat="43.01134" lon="1.15443">
        <ele>479.2</ele>
        <time>2024-04-21T12:50:00.994Z</time>
      </trkpt>
      <trkpt lat="43.01137" lon="1.15447">
        <ele>479.2</ele>
        <time>2024-04-21T12:50:01.994Z</time>
      </trkpt>
      <trkpt lat="43.01142" lon="1.15451">
        <ele>478.8</ele>
        <time>2024-04-21T12:50:02.994Z</time>
      </trkpt>
      <trkpt lat="43.01146" lon="1.15456">
        <ele>478.2</ele>
        <time>2024-04-21T12:50:03.994Z</time>
      </trkpt>
      <trkpt lat="43.01151" lon="1.15459">
        <ele>477.8</ele>
        <time>2024-04-21T12:50:04.994Z</time>
      </trkpt>
      <trkpt lat="43.01155" lon="1.15462">
        <ele>477.8</ele>
        <time>2024-04-21T12:50:05.994Z</time>
      </trkpt>
      <trkpt lat="43.0116" lon="1.15463">
        <ele>477.4</ele>
        <time>2024-04-21T12:50:06.994Z</time>
      </trkpt>
      <trkpt lat="43.01165" lon="1.15464">
        <ele>477</ele>
        <time>2024-04-21T12:50:07.994Z</time>
      </trkpt>
      <trkpt lat="43.0117" lon="1.15465">
        <ele>476.8</ele>
        <time>2024-04-21T12:50:08.994Z</time>
      </trkpt>
      <trkpt lat="43.01175" lon="1.15465">
        <ele>476</ele>
        <time>2024-04-21T12:50:09.994Z</time>
      </trkpt>
      <trkpt lat="43.01179" lon="1.15465">
        <ele>475.2</ele>
        <time>2024-04-21T12:50:10.994Z</time>
      </trkpt>
      <trkpt lat="43.01183" lon="1.15464">
        <ele>474.6</ele>
        <time>2024-04-21T12:50:11.994Z</time>
      </trkpt>
      <trkpt lat="43.01188" lon="1.15464">
        <ele>473.6</ele>
        <time>2024-04-21T12:50:12.994Z</time>
      </trkpt>
      <trkpt lat="43.01191" lon="1.15463">
        <ele>473.2</ele>
        <time>2024-04-21T12:50:13.994Z</time>
      </trkpt>
      <trkpt lat="43.01195" lon="1.15463">
        <ele>473</ele>
        <time>2024-04-21T12:50:14.994Z</time>
      </trkpt>
      <trkpt lat="43.01199" lon="1.15462">
        <ele>473</ele>
        <time>2024-04-21T12:50:15.994Z</time>
      </trkpt>
      <trkpt lat="43.01204" lon="1.15463">
        <ele>472.2</ele>
        <time>2024-04-21T12:50:16.994Z</time>
      </trkpt>
      <trkpt lat="43.01209" lon="1.15463">
        <ele>471.6</ele>
        <time>2024-04-21T12:50:17.994Z</time>
      </trkpt>
      <trkpt lat="43.01213" lon="1.15462">
        <ele>471.4</ele>
        <time>2024-04-21T12:50:18.994Z</time>
      </trkpt>
      <trkpt lat="43.01217" lon="1.15462">
        <ele>471.2</ele>
        <time>2024-04-21T12:50:19.994Z</time>
      </trkpt>
      <trkpt lat="43.01221" lon="1.15462">
        <ele>470.8</ele>
        <time>2024-04-21T12:50:20.994Z</time>
      </trkpt>
      <trkpt lat="43.01225" lon="1.15459">
        <ele>470.8</ele>
        <time>2024-04-21T12:50:21.994Z</time>
      </trkpt>
      <trkpt lat="43.0123" lon="1.15458">
        <ele>470.4</ele>
        <time>2024-04-21T12:50:22.994Z</time>
      </trkpt>
      <trkpt lat="43.01234" lon="1.15457">
        <ele>470.2</ele>
        <time>2024-04-21T12:50:23.994Z</time>
      </trkpt>
      <trkpt lat="43.01238" lon="1.15455">
        <ele>470.2</ele>
        <time>2024-04-21T12:50:24.994Z</time>
      </trkpt>
      <trkpt lat="43.01243" lon="1.15453">
        <ele>470.2</ele>
        <time>2024-04-21T12:50:25.994Z</time>
      </trkpt>
      <trkpt lat="43.01248" lon="1.15453">
        <ele>470.2</ele>
        <time>2024-04-21T12:50:26.994Z</time>
      </trkpt>
      <trkpt lat="43.01253" lon="1.15451">
        <ele>470.2</ele>
        <time>2024-04-21T12:50:27.994Z</time>
      </trkpt>
      <trkpt lat="43.01258" lon="1.15451">
        <ele>470.2</ele>
        <time>2024-04-21T12:50:28.994Z</time>
      </trkpt>
      <trkpt lat="43.01264" lon="1.15452">
        <ele>470</ele>
        <time>2024-04-21T12:50:29.994Z</time>
      </trkpt>
      <trkpt lat="43.01269" lon="1.15452">
        <ele>469.8</ele>
        <time>2024-04-21T12:50:30.994Z</time>
      </trkpt>
      <trkpt lat="43.01274" lon="1.15454">
        <ele>469.8</ele>
        <time>2024-04-21T12:50:31.994Z</time>
      </trkpt>
      <trkpt lat="43.01278" lon="1.15456">
        <ele>470.2</ele>
        <time>2024-04-21T12:50:32.994Z</time>
      </trkpt>
      <trkpt lat="43.01283" lon="1.15458">
        <ele>470.2</ele>
        <time>2024-04-21T12:50:33.994Z</time>
      </trkpt>
      <trkpt lat="43.01287" lon="1.1546">
        <ele>470.2</ele>
        <time>2024-04-21T12:50:34.994Z</time>
      </trkpt>
      <trkpt lat="43.01291" lon="1.15462">
        <ele>470.2</ele>
        <time>2024-04-21T12:50:35.994Z</time>
      </trkpt>
      <trkpt lat="43.01296" lon="1.15464">
        <ele>470.2</ele>
        <time>2024-04-21T12:50:36.994Z</time>
      </trkpt>
      <trkpt lat="43.013" lon="1.15466">
        <ele>470.2</ele>
        <time>2024-04-21T12:50:37.994Z</time>
      </trkpt>
      <trkpt lat="43.01304" lon="1.15467">
        <ele>470.2</ele>
        <time>2024-04-21T12:50:38.994Z</time>
      </trkpt>
      <trkpt lat="43.01308" lon="1.15469">
        <ele>470.2</ele>
        <time>2024-04-21T12:50:39.994Z</time>
      </trkpt>
      <trkpt lat="43.01312" lon="1.1547">
        <ele>470.2</ele>
        <time>2024-04-21T12:50:40.994Z</time>
      </trkpt>
      <trkpt lat="43.01315" lon="1.15472">
        <ele>470.4</ele>
        <time>2024-04-21T12:50:41.994Z</time>
      </trkpt>
      <trkpt lat="43.01318" lon="1.15474">
        <ele>470.4</ele>
        <time>2024-04-21T12:50:42.994Z</time>
      </trkpt>
      <trkpt lat="43.01321" lon="1.15474">
        <ele>470.4</ele>
        <time>2024-04-21T12:50:43.994Z</time>
      </trkpt>
      <trkpt lat="43.01325" lon="1.15475">
        <ele>470.8</ele>
        <time>2024-04-21T12:50:44.994Z</time>
      </trkpt>
      <trkpt lat="43.01328" lon="1.15476">
        <ele>470.8</ele>
        <time>2024-04-21T12:50:45.994Z</time>
      </trkpt>
      <trkpt lat="43.01332" lon="1.15477">
        <ele>471</ele>
        <time>2024-04-21T12:50:46.994Z</time>
      </trkpt>
      <trkpt lat="43.01336" lon="1.15478">
        <ele>471</ele>
        <time>2024-04-21T12:50:47.994Z</time>
      </trkpt>
      <trkpt lat="43.0134" lon="1.15478">
        <ele>471</ele>
        <time>2024-04-21T12:50:48.994Z</time>
      </trkpt>
      <trkpt lat="43.01344" lon="1.15479">
        <ele>471</ele>
        <time>2024-04-21T12:50:49.994Z</time>
      </trkpt>
      <trkpt lat="43.01348" lon="1.1548">
        <ele>471.4</ele>
        <time>2024-04-21T12:50:50.994Z</time>
      </trkpt>
      <trkpt lat="43.01352" lon="1.1548">
        <ele>471.4</ele>
        <time>2024-04-21T12:50:51.994Z</time>
      </trkpt>
      <trkpt lat="43.01356" lon="1.1548">
        <ele>471.8</ele>
        <time>2024-04-21T12:50:52.994Z</time>
      </trkpt>
      <trkpt lat="43.0136" lon="1.1548">
        <ele>471.8</ele>
        <time>2024-04-21T12:50:53.994Z</time>
      </trkpt>
      <trkpt lat="43.01364" lon="1.15481">
        <ele>472</ele>
        <time>2024-04-21T12:50:54.994Z</time>
      </trkpt>
      <trkpt lat="43.01368" lon="1.15481">
        <ele>472</ele>
        <time>2024-04-21T12:50:55.994Z</time>
      </trkpt>
      <trkpt lat="43.01371" lon="1.15481">
        <ele>472</ele>
        <time>2024-04-21T12:50:56.994Z</time>
      </trkpt>
      <trkpt lat="43.01375" lon="1.15481">
        <ele>472</ele>
        <time>2024-04-21T12:50:57.994Z</time>
      </trkpt>
      <trkpt lat="43.01379" lon="1.15481">
        <ele>472</ele>
        <time>2024-04-21T12:50:58.994Z</time>
      </trkpt>
      <trkpt lat="43.01383" lon="1.15481">
        <ele>472.2</ele>
        <time>2024-04-21T12:50:59.994Z</time>
      </trkpt>
      <trkpt lat="43.01386" lon="1.15481">
        <ele>472.2</ele>
        <time>2024-04-21T12:51:00.994Z</time>
      </trkpt>
      <trkpt lat="43.0139" lon="1.15481">
        <ele>472.6</ele>
        <time>2024-04-21T12:51:01.994Z</time>
      </trkpt>
      <trkpt lat="43.01394" lon="1.15481">
        <ele>472.6</ele>
        <time>2024-04-21T12:51:02.994Z</time>
      </trkpt>
      <trkpt lat="43.01397" lon="1.15481">
        <ele>472.8</ele>
        <time>2024-04-21T12:51:03.994Z</time>
      </trkpt>
      <trkpt lat="43.01401" lon="1.15481">
        <ele>473</ele>
        <time>2024-04-21T12:51:04.994Z</time>
      </trkpt>
      <trkpt lat="43.01405" lon="1.15482">
        <ele>473</ele>
        <time>2024-04-21T12:51:05.994Z</time>
      </trkpt>
      <trkpt lat="43.01409" lon="1.15482">
        <ele>473</ele>
        <time>2024-04-21T12:51:06.994Z</time>
      </trkpt>
      <trkpt lat="43.01413" lon="1.15482">
        <ele>473</ele>
        <time>2024-04-21T12:51:07.994Z</time>
      </trkpt>
      <trkpt lat="43.01417" lon="1.15482">
        <ele>473</ele>
        <time>2024-04-21T12:51:08.994Z</time>
      </trkpt>
      <trkpt lat="43.0142" lon="1.15482">
        <ele>473.2</ele>
        <time>2024-04-21T12:51:09.994Z</time>
      </trkpt>
      <trkpt lat="43.01424" lon="1.15482">
        <ele>473.2</ele>
        <time>2024-04-21T12:51:10.994Z</time>
      </trkpt>
      <trkpt lat="43.01424" lon="1.15482">
        <ele>473.2</ele>
        <time>2024-04-21T12:51:11.994Z</time>
      </trkpt>
      <trkpt lat="43.01428" lon="1.15482">
        <ele>473.6</ele>
        <time>2024-04-21T12:51:12.994Z</time>
      </trkpt>
      <trkpt lat="43.01432" lon="1.15481">
        <ele>473.6</ele>
        <time>2024-04-21T12:51:13.994Z</time>
      </trkpt>
      <trkpt lat="43.01435" lon="1.15481">
        <ele>474</ele>
        <time>2024-04-21T12:51:14.994Z</time>
      </trkpt>
      <trkpt lat="43.01439" lon="1.15482">
        <ele>474</ele>
        <time>2024-04-21T12:51:15.994Z</time>
      </trkpt>
      <trkpt lat="43.01442" lon="1.15482">
        <ele>474</ele>
        <time>2024-04-21T12:51:16.994Z</time>
      </trkpt>
      <trkpt lat="43.01446" lon="1.15481">
        <ele>474</ele>
        <time>2024-04-21T12:51:17.994Z</time>
      </trkpt>
      <trkpt lat="43.0145" lon="1.1548">
        <ele>474.2</ele>
        <time>2024-04-21T12:51:18.994Z</time>
      </trkpt>
      <trkpt lat="43.01454" lon="1.15479">
        <ele>474.2</ele>
        <time>2024-04-21T12:51:19.994Z</time>
      </trkpt>
      <trkpt lat="43.01457" lon="1.15479">
        <ele>474.2</ele>
        <time>2024-04-21T12:51:20.994Z</time>
      </trkpt>
      <trkpt lat="43.01461" lon="1.15477">
        <ele>474.2</ele>
        <time>2024-04-21T12:51:21.994Z</time>
      </trkpt>
      <trkpt lat="43.01465" lon="1.15475">
        <ele>474.6</ele>
        <time>2024-04-21T12:51:22.994Z</time>
      </trkpt>
      <trkpt lat="43.01468" lon="1.15474">
        <ele>474.6</ele>
        <time>2024-04-21T12:51:23.994Z</time>
      </trkpt>
      <trkpt lat="43.01472" lon="1.15473">
        <ele>474.6</ele>
        <time>2024-04-21T12:51:24.994Z</time>
      </trkpt>
      <trkpt lat="43.01476" lon="1.15473">
        <ele>474.8</ele>
        <time>2024-04-21T12:51:25.994Z</time>
      </trkpt>
      <trkpt lat="43.01479" lon="1.15471">
        <ele>474.8</ele>
        <time>2024-04-21T12:51:26.994Z</time>
      </trkpt>
      <trkpt lat="43.01481" lon="1.15469">
        <ele>475.4</ele>
        <time>2024-04-21T12:51:27.994Z</time>
      </trkpt>
      <trkpt lat="43.01485" lon="1.15467">
        <ele>475.4</ele>
        <time>2024-04-21T12:51:28.994Z</time>
      </trkpt>
      <trkpt lat="43.01488" lon="1.15464">
        <ele>475.4</ele>
        <time>2024-04-21T12:51:29.994Z</time>
      </trkpt>
      <trkpt lat="43.01491" lon="1.15463">
        <ele>475.8</ele>
        <time>2024-04-21T12:51:30.994Z</time>
      </trkpt>
      <trkpt lat="43.01492" lon="1.15461">
        <ele>475.8</ele>
        <time>2024-04-21T12:51:31.994Z</time>
      </trkpt>
      <trkpt lat="43.01495" lon="1.15458">
        <ele>476.2</ele>
        <time>2024-04-21T12:51:32.994Z</time>
      </trkpt>
      <trkpt lat="43.01498" lon="1.15456">
        <ele>476.2</ele>
        <time>2024-04-21T12:51:33.994Z</time>
      </trkpt>
      <trkpt lat="43.01503" lon="1.15452">
        <ele>476.2</ele>
        <time>2024-04-21T12:51:34.994Z</time>
      </trkpt>
      <trkpt lat="43.01507" lon="1.15449">
        <ele>476.2</ele>
        <time>2024-04-21T12:51:35.994Z</time>
      </trkpt>
      <trkpt lat="43.01511" lon="1.15446">
        <ele>476.6</ele>
        <time>2024-04-21T12:51:36.994Z</time>
      </trkpt>
      <trkpt lat="43.01514" lon="1.15445">
        <ele>476.6</ele>
        <time>2024-04-21T12:51:37.994Z</time>
      </trkpt>
      <trkpt lat="43.01517" lon="1.15442">
        <ele>477</ele>
        <time>2024-04-21T12:51:38.994Z</time>
      </trkpt>
      <trkpt lat="43.01521" lon="1.1544">
        <ele>477.4</ele>
        <time>2024-04-21T12:51:39.994Z</time>
      </trkpt>
      <trkpt lat="43.01525" lon="1.15437">
        <ele>477.4</ele>
        <time>2024-04-21T12:51:40.994Z</time>
      </trkpt>
      <trkpt lat="43.01528" lon="1.15435">
        <ele>477.4</ele>
        <time>2024-04-21T12:51:41.994Z</time>
      </trkpt>
      <trkpt lat="43.01532" lon="1.15433">
        <ele>477.4</ele>
        <time>2024-04-21T12:51:42.994Z</time>
      </trkpt>
      <trkpt lat="43.01535" lon="1.1543">
        <ele>477.4</ele>
        <time>2024-04-21T12:51:43.994Z</time>
      </trkpt>
      <trkpt lat="43.01539" lon="1.15428">
        <ele>477.4</ele>
        <time>2024-04-21T12:51:44.994Z</time>
      </trkpt>
      <trkpt lat="43.01543" lon="1.15425">
        <ele>477.4</ele>
        <time>2024-04-21T12:51:45.994Z</time>
      </trkpt>
      <trkpt lat="43.01547" lon="1.15422">
        <ele>477.6</ele>
        <time>2024-04-21T12:51:46.994Z</time>
      </trkpt>
      <trkpt lat="43.01551" lon="1.1542">
        <ele>477.6</ele>
        <time>2024-04-21T12:51:47.994Z</time>
      </trkpt>
      <trkpt lat="43.01555" lon="1.15417">
        <ele>478</ele>
        <time>2024-04-21T12:51:48.994Z</time>
      </trkpt>
      <trkpt lat="43.01559" lon="1.15414">
        <ele>478</ele>
        <time>2024-04-21T12:51:49.994Z</time>
      </trkpt>
      <trkpt lat="43.01562" lon="1.15412">
        <ele>478.2</ele>
        <time>2024-04-21T12:51:50.994Z</time>
      </trkpt>
      <trkpt lat="43.01566" lon="1.15409">
        <ele>478.2</ele>
        <time>2024-04-21T12:51:51.994Z</time>
      </trkpt>
      <trkpt lat="43.0157" lon="1.15407">
        <ele>478.2</ele>
        <time>2024-04-21T12:51:52.994Z</time>
      </trkpt>
      <trkpt lat="43.01574" lon="1.15405">
        <ele>478.6</ele>
        <time>2024-04-21T12:51:53.994Z</time>
      </trkpt>
      <trkpt lat="43.01577" lon="1.15402">
        <ele>478.6</ele>
        <time>2024-04-21T12:51:54.994Z</time>
      </trkpt>
      <trkpt lat="43.01581" lon="1.154">
        <ele>478.8</ele>
        <time>2024-04-21T12:51:55.994Z</time>
      </trkpt>
      <trkpt lat="43.01585" lon="1.15398">
        <ele>478.8</ele>
        <time>2024-04-21T12:51:56.994Z</time>
      </trkpt>
      <trkpt lat="43.01588" lon="1.15395">
        <ele>479.2</ele>
        <time>2024-04-21T12:51:57.994Z</time>
      </trkpt>
      <trkpt lat="43.01592" lon="1.15392">
        <ele>479.2</ele>
        <time>2024-04-21T12:51:58.994Z</time>
      </trkpt>
      <trkpt lat="43.01595" lon="1.15389">
        <ele>479.4</ele>
        <time>2024-04-21T12:51:59.994Z</time>
      </trkpt>
      <trkpt lat="43.01599" lon="1.15387">
        <ele>479.4</ele>
        <time>2024-04-21T12:52:00.994Z</time>
      </trkpt>
      <trkpt lat="43.01603" lon="1.15384">
        <ele>479.8</ele>
        <time>2024-04-21T12:52:01.994Z</time>
      </trkpt>
      <trkpt lat="43.01606" lon="1.15382">
        <ele>480</ele>
        <time>2024-04-21T12:52:02.994Z</time>
      </trkpt>
      <trkpt lat="43.0161" lon="1.15379">
        <ele>480</ele>
        <time>2024-04-21T12:52:03.994Z</time>
      </trkpt>
      <trkpt lat="43.01614" lon="1.15376">
        <ele>480</ele>
        <time>2024-04-21T12:52:04.994Z</time>
      </trkpt>
      <trkpt lat="43.01618" lon="1.15374">
        <ele>480</ele>
        <time>2024-04-21T12:52:05.994Z</time>
      </trkpt>
      <trkpt lat="43.01621" lon="1.15372">
        <ele>480</ele>
        <time>2024-04-21T12:52:06.994Z</time>
      </trkpt>
      <trkpt lat="43.01625" lon="1.15369">
        <ele>480.4</ele>
        <time>2024-04-21T12:52:07.994Z</time>
      </trkpt>
      <trkpt lat="43.01629" lon="1.15367">
        <ele>480.4</ele>
        <time>2024-04-21T12:52:08.994Z</time>
      </trkpt>
      <trkpt lat="43.01632" lon="1.15365">
        <ele>480.8</ele>
        <time>2024-04-21T12:52:09.994Z</time>
      </trkpt>
      <trkpt lat="43.01636" lon="1.15362">
        <ele>480.8</ele>
        <time>2024-04-21T12:52:10.994Z</time>
      </trkpt>
      <trkpt lat="43.01639" lon="1.15359">
        <ele>480.8</ele>
        <time>2024-04-21T12:52:11.994Z</time>
      </trkpt>
      <trkpt lat="43.01642" lon="1.15357">
        <ele>480.8</ele>
        <time>2024-04-21T12:52:12.994Z</time>
      </trkpt>
      <trkpt lat="43.01646" lon="1.15355">
        <ele>481</ele>
        <time>2024-04-21T12:52:13.994Z</time>
      </trkpt>
      <trkpt lat="43.01649" lon="1.15353">
        <ele>481</ele>
        <time>2024-04-21T12:52:14.994Z</time>
      </trkpt>
      <trkpt lat="43.01653" lon="1.15351">
        <ele>481</ele>
        <time>2024-04-21T12:52:15.994Z</time>
      </trkpt>
      <trkpt lat="43.01656" lon="1.1535">
        <ele>481.4</ele>
        <time>2024-04-21T12:52:16.994Z</time>
      </trkpt>
      <trkpt lat="43.0166" lon="1.15348">
        <ele>481.4</ele>
        <time>2024-04-21T12:52:17.994Z</time>
      </trkpt>
      <trkpt lat="43.01663" lon="1.15346">
        <ele>481.4</ele>
        <time>2024-04-21T12:52:18.994Z</time>
      </trkpt>
      <trkpt lat="43.01666" lon="1.15345">
        <ele>481.6</ele>
        <time>2024-04-21T12:52:19.994Z</time>
      </trkpt>
      <trkpt lat="43.0167" lon="1.15343">
        <ele>481.8</ele>
        <time>2024-04-21T12:52:20.994Z</time>
      </trkpt>
      <trkpt lat="43.01673" lon="1.15342">
        <ele>482</ele>
        <time>2024-04-21T12:52:21.994Z</time>
      </trkpt>
      <trkpt lat="43.01677" lon="1.1534">
        <ele>482</ele>
        <time>2024-04-21T12:52:22.994Z</time>
      </trkpt>
      <trkpt lat="43.0168" lon="1.15339">
        <ele>482.4</ele>
        <time>2024-04-21T12:52:23.994Z</time>
      </trkpt>
      <trkpt lat="43.01683" lon="1.15337">
        <ele>482.4</ele>
        <time>2024-04-21T12:52:24.994Z</time>
      </trkpt>
      <trkpt lat="43.01686" lon="1.15335">
        <ele>482.4</ele>
        <time>2024-04-21T12:52:25.994Z</time>
      </trkpt>
      <trkpt lat="43.01689" lon="1.15333">
        <ele>482.6</ele>
        <time>2024-04-21T12:52:26.994Z</time>
      </trkpt>
      <trkpt lat="43.01693" lon="1.15331">
        <ele>483</ele>
        <time>2024-04-21T12:52:27.994Z</time>
      </trkpt>
      <trkpt lat="43.01696" lon="1.15329">
        <ele>483.4</ele>
        <time>2024-04-21T12:52:28.994Z</time>
      </trkpt>
      <trkpt lat="43.01698" lon="1.15327">
        <ele>483.4</ele>
        <time>2024-04-21T12:52:29.994Z</time>
      </trkpt>
      <trkpt lat="43.01701" lon="1.15324">
        <ele>483.4</ele>
        <time>2024-04-21T12:52:30.994Z</time>
      </trkpt>
      <trkpt lat="43.01704" lon="1.15322">
        <ele>483.6</ele>
        <time>2024-04-21T12:52:31.994Z</time>
      </trkpt>
      <trkpt lat="43.01707" lon="1.1532">
        <ele>483.6</ele>
        <time>2024-04-21T12:52:32.994Z</time>
      </trkpt>
      <trkpt lat="43.0171" lon="1.15318">
        <ele>483.8</ele>
        <time>2024-04-21T12:52:33.994Z</time>
      </trkpt>
      <trkpt lat="43.01713" lon="1.15315">
        <ele>483.8</ele>
        <time>2024-04-21T12:52:34.994Z</time>
      </trkpt>
      <trkpt lat="43.01716" lon="1.15313">
        <ele>484.2</ele>
        <time>2024-04-21T12:52:35.994Z</time>
      </trkpt>
      <trkpt lat="43.01719" lon="1.15311">
        <ele>484.6</ele>
        <time>2024-04-21T12:52:36.994Z</time>
      </trkpt>
      <trkpt lat="43.01721" lon="1.15308">
        <ele>484.6</ele>
        <time>2024-04-21T12:52:37.994Z</time>
      </trkpt>
      <trkpt lat="43.01724" lon="1.15306">
        <ele>484.6</ele>
        <time>2024-04-21T12:52:38.994Z</time>
      </trkpt>
      <trkpt lat="43.01726" lon="1.15303">
        <ele>485</ele>
        <time>2024-04-21T12:52:39.994Z</time>
      </trkpt>
      <trkpt lat="43.01729" lon="1.153">
        <ele>485</ele>
        <time>2024-04-21T12:52:40.994Z</time>
      </trkpt>
      <trkpt lat="43.01732" lon="1.15298">
        <ele>485.4</ele>
        <time>2024-04-21T12:52:41.994Z</time>
      </trkpt>
      <trkpt lat="43.01734" lon="1.15295">
        <ele>485.4</ele>
        <time>2024-04-21T12:52:42.994Z</time>
      </trkpt>
      <trkpt lat="43.01737" lon="1.15293">
        <ele>485.6</ele>
        <time>2024-04-21T12:52:43.994Z</time>
      </trkpt>
      <trkpt lat="43.01739" lon="1.1529">
        <ele>485.8</ele>
        <time>2024-04-21T12:52:44.994Z</time>
      </trkpt>
      <trkpt lat="43.01742" lon="1.15288">
        <ele>485.8</ele>
        <time>2024-04-21T12:52:45.994Z</time>
      </trkpt>
      <trkpt lat="43.01744" lon="1.15285">
        <ele>485.8</ele>
        <time>2024-04-21T12:52:46.994Z</time>
      </trkpt>
      <trkpt lat="43.01747" lon="1.15282">
        <ele>486.2</ele>
        <time>2024-04-21T12:52:47.994Z</time>
      </trkpt>
      <trkpt lat="43.0175" lon="1.15279">
        <ele>486.6</ele>
        <time>2024-04-21T12:52:48.994Z</time>
      </trkpt>
      <trkpt lat="43.01752" lon="1.15276">
        <ele>486.6</ele>
        <time>2024-04-21T12:52:49.994Z</time>
      </trkpt>
      <trkpt lat="43.01755" lon="1.15274">
        <ele>486.8</ele>
        <time>2024-04-21T12:52:50.994Z</time>
      </trkpt>
      <trkpt lat="43.01757" lon="1.15271">
        <ele>486.8</ele>
        <time>2024-04-21T12:52:51.994Z</time>
      </trkpt>
      <trkpt lat="43.0176" lon="1.15268">
        <ele>487.2</ele>
        <time>2024-04-21T12:52:52.994Z</time>
      </trkpt>
      <trkpt lat="43.01762" lon="1.15265">
        <ele>487.6</ele>
        <time>2024-04-21T12:52:53.994Z</time>
      </trkpt>
      <trkpt lat="43.01765" lon="1.15263">
        <ele>487.8</ele>
        <time>2024-04-21T12:52:54.994Z</time>
      </trkpt>
      <trkpt lat="43.01767" lon="1.1526">
        <ele>488</ele>
        <time>2024-04-21T12:52:55.994Z</time>
      </trkpt>
      <trkpt lat="43.01769" lon="1.15258">
        <ele>488</ele>
        <time>2024-04-21T12:52:56.994Z</time>
      </trkpt>
      <trkpt lat="43.01771" lon="1.15255">
        <ele>488.4</ele>
        <time>2024-04-21T12:52:57.994Z</time>
      </trkpt>
      <trkpt lat="43.01773" lon="1.15253">
        <ele>488.4</ele>
        <time>2024-04-21T12:52:58.994Z</time>
      </trkpt>
      <trkpt lat="43.01775" lon="1.1525">
        <ele>488.6</ele>
        <time>2024-04-21T12:52:59.994Z</time>
      </trkpt>
      <trkpt lat="43.01777" lon="1.15247">
        <ele>488.8</ele>
        <time>2024-04-21T12:53:00.994Z</time>
      </trkpt>
      <trkpt lat="43.01779" lon="1.15245">
        <ele>488.8</ele>
        <time>2024-04-21T12:53:01.994Z</time>
      </trkpt>
      <trkpt lat="43.01781" lon="1.15242">
        <ele>489.2</ele>
        <time>2024-04-21T12:53:02.994Z</time>
      </trkpt>
      <trkpt lat="43.01784" lon="1.1524">
        <ele>489.2</ele>
        <time>2024-04-21T12:53:03.994Z</time>
      </trkpt>
      <trkpt lat="43.01786" lon="1.15237">
        <ele>489.4</ele>
        <time>2024-04-21T12:53:04.994Z</time>
      </trkpt>
      <trkpt lat="43.01788" lon="1.15235">
        <ele>489.8</ele>
        <time>2024-04-21T12:53:05.994Z</time>
      </trkpt>
      <trkpt lat="43.0179" lon="1.15233">
        <ele>489.8</ele>
        <time>2024-04-21T12:53:06.994Z</time>
      </trkpt>
      <trkpt lat="43.01792" lon="1.15229">
        <ele>490</ele>
        <time>2024-04-21T12:53:07.994Z</time>
      </trkpt>
      <trkpt lat="43.01794" lon="1.15226">
        <ele>490.4</ele>
        <time>2024-04-21T12:53:08.994Z</time>
      </trkpt>
      <trkpt lat="43.01796" lon="1.15224">
        <ele>490.4</ele>
        <time>2024-04-21T12:53:09.994Z</time>
      </trkpt>
      <trkpt lat="43.01798" lon="1.15221">
        <ele>490.8</ele>
        <time>2024-04-21T12:53:10.994Z</time>
      </trkpt>
      <trkpt lat="43.018" lon="1.15219">
        <ele>491</ele>
        <time>2024-04-21T12:53:11.994Z</time>
      </trkpt>
      <trkpt lat="43.01802" lon="1.15216">
        <ele>491</ele>
        <time>2024-04-21T12:53:12.994Z</time>
      </trkpt>
      <trkpt lat="43.01804" lon="1.15214">
        <ele>491.4</ele>
        <time>2024-04-21T12:53:13.994Z</time>
      </trkpt>
      <trkpt lat="43.01806" lon="1.15212">
        <ele>491.4</ele>
        <time>2024-04-21T12:53:14.994Z</time>
      </trkpt>
      <trkpt lat="43.01808" lon="1.15209">
        <ele>492</ele>
        <time>2024-04-21T12:53:15.994Z</time>
      </trkpt>
      <trkpt lat="43.0181" lon="1.15207">
        <ele>492.2</ele>
        <time>2024-04-21T12:53:16.994Z</time>
      </trkpt>
      <trkpt lat="43.01812" lon="1.15204">
        <ele>492.2</ele>
        <time>2024-04-21T12:53:17.994Z</time>
      </trkpt>
      <trkpt lat="43.01815" lon="1.15202">
        <ele>492.8</ele>
        <time>2024-04-21T12:53:18.994Z</time>
      </trkpt>
      <trkpt lat="43.01817" lon="1.152">
        <ele>493.2</ele>
        <time>2024-04-21T12:53:19.994Z</time>
      </trkpt>
      <trkpt lat="43.01819" lon="1.15198">
        <ele>493.4</ele>
        <time>2024-04-21T12:53:20.994Z</time>
      </trkpt>
      <trkpt lat="43.0182" lon="1.15195">
        <ele>493.8</ele>
        <time>2024-04-21T12:53:21.994Z</time>
      </trkpt>
      <trkpt lat="43.01822" lon="1.15193">
        <ele>494</ele>
        <time>2024-04-21T12:53:22.994Z</time>
      </trkpt>
      <trkpt lat="43.01824" lon="1.1519">
        <ele>494.4</ele>
        <time>2024-04-21T12:53:23.994Z</time>
      </trkpt>
      <trkpt lat="43.01826" lon="1.15188">
        <ele>494.6</ele>
        <time>2024-04-21T12:53:24.994Z</time>
      </trkpt>
      <trkpt lat="43.01827" lon="1.15186">
        <ele>494.6</ele>
        <time>2024-04-21T12:53:25.994Z</time>
      </trkpt>
      <trkpt lat="43.01829" lon="1.15184">
        <ele>495</ele>
        <time>2024-04-21T12:53:26.994Z</time>
      </trkpt>
      <trkpt lat="43.01832" lon="1.15182">
        <ele>495.4</ele>
        <time>2024-04-21T12:53:27.994Z</time>
      </trkpt>
      <trkpt lat="43.01834" lon="1.15179">
        <ele>495.4</ele>
        <time>2024-04-21T12:53:28.994Z</time>
      </trkpt>
      <trkpt lat="43.01836" lon="1.15177">
        <ele>495.6</ele>
        <time>2024-04-21T12:53:29.994Z</time>
      </trkpt>
      <trkpt lat="43.01838" lon="1.15175">
        <ele>495.6</ele>
        <time>2024-04-21T12:53:30.994Z</time>
      </trkpt>
      <trkpt lat="43.0184" lon="1.15173">
        <ele>496</ele>
        <time>2024-04-21T12:53:31.994Z</time>
      </trkpt>
      <trkpt lat="43.01841" lon="1.1517">
        <ele>496</ele>
        <time>2024-04-21T12:53:32.994Z</time>
      </trkpt>
      <trkpt lat="43.01843" lon="1.15168">
        <ele>496.2</ele>
        <time>2024-04-21T12:53:33.994Z</time>
      </trkpt>
      <trkpt lat="43.01845" lon="1.15166">
        <ele>496.6</ele>
        <time>2024-04-21T12:53:34.994Z</time>
      </trkpt>
      <trkpt lat="43.01847" lon="1.15164">
        <ele>496.8</ele>
        <time>2024-04-21T12:53:35.994Z</time>
      </trkpt>
      <trkpt lat="43.01849" lon="1.15162">
        <ele>497.2</ele>
        <time>2024-04-21T12:53:36.994Z</time>
      </trkpt>
      <trkpt lat="43.01852" lon="1.1516">
        <ele>497.4</ele>
        <time>2024-04-21T12:53:37.994Z</time>
      </trkpt>
      <trkpt lat="43.01854" lon="1.15157">
        <ele>497.6</ele>
        <time>2024-04-21T12:53:38.994Z</time>
      </trkpt>
      <trkpt lat="43.01856" lon="1.15155">
        <ele>498</ele>
        <time>2024-04-21T12:53:39.994Z</time>
      </trkpt>
      <trkpt lat="43.01858" lon="1.15153">
        <ele>498.2</ele>
        <time>2024-04-21T12:53:40.994Z</time>
      </trkpt>
      <trkpt lat="43.0186" lon="1.15151">
        <ele>498.4</ele>
        <time>2024-04-21T12:53:41.994Z</time>
      </trkpt>
      <trkpt lat="43.01862" lon="1.15148">
        <ele>498.8</ele>
        <time>2024-04-21T12:53:42.994Z</time>
      </trkpt>
      <trkpt lat="43.01865" lon="1.15146">
        <ele>499</ele>
        <time>2024-04-21T12:53:43.994Z</time>
      </trkpt>
      <trkpt lat="43.01867" lon="1.15144">
        <ele>499</ele>
        <time>2024-04-21T12:53:44.994Z</time>
      </trkpt>
      <trkpt lat="43.01869" lon="1.15141">
        <ele>499.4</ele>
        <time>2024-04-21T12:53:45.994Z</time>
      </trkpt>
      <trkpt lat="43.01871" lon="1.15139">
        <ele>499.8</ele>
        <time>2024-04-21T12:53:46.994Z</time>
      </trkpt>
      <trkpt lat="43.01873" lon="1.15137">
        <ele>500</ele>
        <time>2024-04-21T12:53:47.994Z</time>
      </trkpt>
      <trkpt lat="43.01875" lon="1.15135">
        <ele>500.4</ele>
        <time>2024-04-21T12:53:48.994Z</time>
      </trkpt>
      <trkpt lat="43.01877" lon="1.15133">
        <ele>500.6</ele>
        <time>2024-04-21T12:53:49.994Z</time>
      </trkpt>
      <trkpt lat="43.01879" lon="1.15132">
        <ele>500.8</ele>
        <time>2024-04-21T12:53:50.994Z</time>
      </trkpt>
      <trkpt lat="43.01882" lon="1.15129">
        <ele>501</ele>
        <time>2024-04-21T12:53:51.994Z</time>
      </trkpt>
      <trkpt lat="43.01884" lon="1.15127">
        <ele>501</ele>
        <time>2024-04-21T12:53:52.994Z</time>
      </trkpt>
      <trkpt lat="43.01885" lon="1.15124">
        <ele>501.6</ele>
        <time>2024-04-21T12:53:53.994Z</time>
      </trkpt>
      <trkpt lat="43.01887" lon="1.15122">
        <ele>501.8</ele>
        <time>2024-04-21T12:53:54.994Z</time>
      </trkpt>
      <trkpt lat="43.01889" lon="1.1512">
        <ele>502.2</ele>
        <time>2024-04-21T12:53:55.994Z</time>
      </trkpt>
      <trkpt lat="43.01891" lon="1.15117">
        <ele>502.4</ele>
        <time>2024-04-21T12:53:56.994Z</time>
      </trkpt>
      <trkpt lat="43.01893" lon="1.15115">
        <ele>502.8</ele>
        <time>2024-04-21T12:53:57.994Z</time>
      </trkpt>
      <trkpt lat="43.01895" lon="1.15113">
        <ele>503</ele>
        <time>2024-04-21T12:53:58.994Z</time>
      </trkpt>
      <trkpt lat="43.01897" lon="1.15112">
        <ele>503.2</ele>
        <time>2024-04-21T12:53:59.994Z</time>
      </trkpt>
      <trkpt lat="43.019" lon="1.1511">
        <ele>503.4</ele>
        <time>2024-04-21T12:54:00.994Z</time>
      </trkpt>
      <trkpt lat="43.01903" lon="1.15109">
        <ele>503.6</ele>
        <time>2024-04-21T12:54:01.994Z</time>
      </trkpt>
      <trkpt lat="43.01906" lon="1.15107">
        <ele>504</ele>
        <time>2024-04-21T12:54:02.994Z</time>
      </trkpt>
      <trkpt lat="43.01908" lon="1.15106">
        <ele>504</ele>
        <time>2024-04-21T12:54:03.994Z</time>
      </trkpt>
      <trkpt lat="43.01911" lon="1.15106">
        <ele>504.4</ele>
        <time>2024-04-21T12:54:04.994Z</time>
      </trkpt>
      <trkpt lat="43.01914" lon="1.15105">
        <ele>504.6</ele>
        <time>2024-04-21T12:54:05.994Z</time>
      </trkpt>
      <trkpt lat="43.01917" lon="1.15105">
        <ele>505</ele>
        <time>2024-04-21T12:54:06.994Z</time>
      </trkpt>
      <trkpt lat="43.01919" lon="1.15105">
        <ele>505.2</ele>
        <time>2024-04-21T12:54:07.994Z</time>
      </trkpt>
      <trkpt lat="43.01922" lon="1.15105">
        <ele>505.2</ele>
        <time>2024-04-21T12:54:08.994Z</time>
      </trkpt>
      <trkpt lat="43.01925" lon="1.15105">
        <ele>505.6</ele>
        <time>2024-04-21T12:54:09.994Z</time>
      </trkpt>
      <trkpt lat="43.01928" lon="1.15105">
        <ele>505.8</ele>
        <time>2024-04-21T12:54:10.994Z</time>
      </trkpt>
      <trkpt lat="43.01931" lon="1.15105">
        <ele>505.8</ele>
        <time>2024-04-21T12:54:11.994Z</time>
      </trkpt>
      <trkpt lat="43.01933" lon="1.15106">
        <ele>506</ele>
        <time>2024-04-21T12:54:12.994Z</time>
      </trkpt>
      <trkpt lat="43.01936" lon="1.15106">
        <ele>506.4</ele>
        <time>2024-04-21T12:54:13.994Z</time>
      </trkpt>
      <trkpt lat="43.01939" lon="1.15107">
        <ele>506.6</ele>
        <time>2024-04-21T12:54:14.994Z</time>
      </trkpt>
      <trkpt lat="43.01941" lon="1.15107">
        <ele>506.6</ele>
        <time>2024-04-21T12:54:15.994Z</time>
      </trkpt>
      <trkpt lat="43.01943" lon="1.15107">
        <ele>506.6</ele>
        <time>2024-04-21T12:54:16.994Z</time>
      </trkpt>
      <trkpt lat="43.01945" lon="1.15108">
        <ele>507</ele>
        <time>2024-04-21T12:54:17.994Z</time>
      </trkpt>
      <trkpt lat="43.01948" lon="1.15109">
        <ele>507</ele>
        <time>2024-04-21T12:54:18.994Z</time>
      </trkpt>
      <trkpt lat="43.0195" lon="1.1511">
        <ele>507.2</ele>
        <time>2024-04-21T12:54:19.994Z</time>
      </trkpt>
      <trkpt lat="43.01953" lon="1.15111">
        <ele>507.2</ele>
        <time>2024-04-21T12:54:20.994Z</time>
      </trkpt>
      <trkpt lat="43.01956" lon="1.15111">
        <ele>507.2</ele>
        <time>2024-04-21T12:54:21.994Z</time>
      </trkpt>
      <trkpt lat="43.01958" lon="1.15111">
        <ele>507.6</ele>
        <time>2024-04-21T12:54:22.994Z</time>
      </trkpt>
      <trkpt lat="43.01961" lon="1.15112">
        <ele>507.6</ele>
        <time>2024-04-21T12:54:23.994Z</time>
      </trkpt>
      <trkpt lat="43.01963" lon="1.15112">
        <ele>508</ele>
        <time>2024-04-21T12:54:24.994Z</time>
      </trkpt>
      <trkpt lat="43.01966" lon="1.15112">
        <ele>508.2</ele>
        <time>2024-04-21T12:54:25.994Z</time>
      </trkpt>
      <trkpt lat="43.01969" lon="1.15112">
        <ele>508.2</ele>
        <time>2024-04-21T12:54:26.994Z</time>
      </trkpt>
      <trkpt lat="43.01972" lon="1.15112">
        <ele>508.8</ele>
        <time>2024-04-21T12:54:27.994Z</time>
      </trkpt>
      <trkpt lat="43.01974" lon="1.15113">
        <ele>509</ele>
        <time>2024-04-21T12:54:28.994Z</time>
      </trkpt>
      <trkpt lat="43.01977" lon="1.15114">
        <ele>509.2</ele>
        <time>2024-04-21T12:54:29.994Z</time>
      </trkpt>
      <trkpt lat="43.0198" lon="1.15115">
        <ele>509.6</ele>
        <time>2024-04-21T12:54:30.994Z</time>
      </trkpt>
      <trkpt lat="43.01982" lon="1.15115">
        <ele>509.6</ele>
        <time>2024-04-21T12:54:31.994Z</time>
      </trkpt>
      <trkpt lat="43.01984" lon="1.15115">
        <ele>510</ele>
        <time>2024-04-21T12:54:32.994Z</time>
      </trkpt>
      <trkpt lat="43.01986" lon="1.15114">
        <ele>510.2</ele>
        <time>2024-04-21T12:54:33.994Z</time>
      </trkpt>
      <trkpt lat="43.01988" lon="1.15113">
        <ele>510.4</ele>
        <time>2024-04-21T12:54:34.994Z</time>
      </trkpt>
      <trkpt lat="43.0199" lon="1.15112">
        <ele>510.4</ele>
        <time>2024-04-21T12:54:35.994Z</time>
      </trkpt>
      <trkpt lat="43.01992" lon="1.15111">
        <ele>510.8</ele>
        <time>2024-04-21T12:54:36.994Z</time>
      </trkpt>
      <trkpt lat="43.01994" lon="1.1511">
        <ele>510.8</ele>
        <time>2024-04-21T12:54:37.994Z</time>
      </trkpt>
      <trkpt lat="43.01997" lon="1.15109">
        <ele>510.8</ele>
        <time>2024-04-21T12:54:38.994Z</time>
      </trkpt>
      <trkpt lat="43.02" lon="1.15109">
        <ele>510.8</ele>
        <time>2024-04-21T12:54:39.994Z</time>
      </trkpt>
      <trkpt lat="43.02004" lon="1.15109">
        <ele>510.8</ele>
        <time>2024-04-21T12:54:40.994Z</time>
      </trkpt>
      <trkpt lat="43.02008" lon="1.15109">
        <ele>510.4</ele>
        <time>2024-04-21T12:54:41.994Z</time>
      </trkpt>
      <trkpt lat="43.02015" lon="1.15106">
        <ele>510.2</ele>
        <time>2024-04-21T12:54:42.994Z</time>
      </trkpt>
      <trkpt lat="43.02019" lon="1.15106">
        <ele>509.8</ele>
        <time>2024-04-21T12:54:43.994Z</time>
      </trkpt>
      <trkpt lat="43.02026" lon="1.15106">
        <ele>509.6</ele>
        <time>2024-04-21T12:54:44.994Z</time>
      </trkpt>
      <trkpt lat="43.02035" lon="1.15104">
        <ele>509</ele>
        <time>2024-04-21T12:54:45.994Z</time>
      </trkpt>
      <trkpt lat="43.02042" lon="1.15103">
        <ele>508</ele>
        <time>2024-04-21T12:54:46.994Z</time>
      </trkpt>
      <trkpt lat="43.02052" lon="1.15101">
        <ele>506.8</ele>
        <time>2024-04-21T12:54:47.994Z</time>
      </trkpt>
      <trkpt lat="43.02061" lon="1.15099">
        <ele>506.2</ele>
        <time>2024-04-21T12:54:48.994Z</time>
      </trkpt>
      <trkpt lat="43.0207" lon="1.15098">
        <ele>505.2</ele>
        <time>2024-04-21T12:54:49.994Z</time>
      </trkpt>
      <trkpt lat="43.0208" lon="1.15096">
        <ele>504.4</ele>
        <time>2024-04-21T12:54:50.994Z</time>
      </trkpt>
      <trkpt lat="43.0209" lon="1.15093">
        <ele>503.8</ele>
        <time>2024-04-21T12:54:51.994Z</time>
      </trkpt>
      <trkpt lat="43.021" lon="1.1509">
        <ele>503</ele>
        <time>2024-04-21T12:54:52.994Z</time>
      </trkpt>
      <trkpt lat="43.021" lon="1.1509">
        <ele>502</ele>
        <time>2024-04-21T12:54:53.994Z</time>
      </trkpt>
      <trkpt lat="43.0211" lon="1.15086">
        <ele>501.4</ele>
        <time>2024-04-21T12:54:54.994Z</time>
      </trkpt>
      <trkpt lat="43.02119" lon="1.15081">
        <ele>501</ele>
        <time>2024-04-21T12:54:55.994Z</time>
      </trkpt>
      <trkpt lat="43.02128" lon="1.15075">
        <ele>500.6</ele>
        <time>2024-04-21T12:54:56.994Z</time>
      </trkpt>
      <trkpt lat="43.02136" lon="1.15067">
        <ele>500</ele>
        <time>2024-04-21T12:54:57.994Z</time>
      </trkpt>
      <trkpt lat="43.02144" lon="1.15058">
        <ele>499.6</ele>
        <time>2024-04-21T12:54:58.994Z</time>
      </trkpt>
      <trkpt lat="43.0215" lon="1.1505">
        <ele>498.8</ele>
        <time>2024-04-21T12:54:59.994Z</time>
      </trkpt>
      <trkpt lat="43.02158" lon="1.15043">
        <ele>498.4</ele>
        <time>2024-04-21T12:55:00.994Z</time>
      </trkpt>
      <trkpt lat="43.02166" lon="1.15037">
        <ele>498.4</ele>
        <time>2024-04-21T12:55:01.994Z</time>
      </trkpt>
      <trkpt lat="43.02174" lon="1.15032">
        <ele>498</ele>
        <time>2024-04-21T12:55:02.994Z</time>
      </trkpt>
      <trkpt lat="43.02182" lon="1.15027">
        <ele>497.4</ele>
        <time>2024-04-21T12:55:03.994Z</time>
      </trkpt>
      <trkpt lat="43.0219" lon="1.15023">
        <ele>496.8</ele>
        <time>2024-04-21T12:55:04.994Z</time>
      </trkpt>
      <trkpt lat="43.02199" lon="1.15019">
        <ele>496.2</ele>
        <time>2024-04-21T12:55:05.994Z</time>
      </trkpt>
      <trkpt lat="43.02207" lon="1.15015">
        <ele>495.6</ele>
        <time>2024-04-21T12:55:06.994Z</time>
      </trkpt>
      <trkpt lat="43.02216" lon="1.1501">
        <ele>495</ele>
        <time>2024-04-21T12:55:07.994Z</time>
      </trkpt>
      <trkpt lat="43.02224" lon="1.15004">
        <ele>494.4</ele>
        <time>2024-04-21T12:55:08.994Z</time>
      </trkpt>
      <trkpt lat="43.02232" lon="1.14998">
        <ele>493.4</ele>
        <time>2024-04-21T12:55:09.994Z</time>
      </trkpt>
      <trkpt lat="43.0224" lon="1.14991">
        <ele>492.2</ele>
        <time>2024-04-21T12:55:10.994Z</time>
      </trkpt>
      <trkpt lat="43.02249" lon="1.14985">
        <ele>491.8</ele>
        <time>2024-04-21T12:55:11.994Z</time>
      </trkpt>
      <trkpt lat="43.02257" lon="1.14978">
        <ele>491.4</ele>
        <time>2024-04-21T12:55:12.994Z</time>
      </trkpt>
      <trkpt lat="43.02265" lon="1.14971">
        <ele>490.6</ele>
        <time>2024-04-21T12:55:13.994Z</time>
      </trkpt>
      <trkpt lat="43.02273" lon="1.14965">
        <ele>489.8</ele>
        <time>2024-04-21T12:55:14.994Z</time>
      </trkpt>
      <trkpt lat="43.02282" lon="1.14958">
        <ele>489</ele>
        <time>2024-04-21T12:55:15.994Z</time>
      </trkpt>
      <trkpt lat="43.0229" lon="1.1495">
        <ele>488.2</ele>
        <time>2024-04-21T12:55:16.994Z</time>
      </trkpt>
      <trkpt lat="43.02298" lon="1.14943">
        <ele>487.8</ele>
        <time>2024-04-21T12:55:17.994Z</time>
      </trkpt>
      <trkpt lat="43.02306" lon="1.14936">
        <ele>487</ele>
        <time>2024-04-21T12:55:18.994Z</time>
      </trkpt>
      <trkpt lat="43.02314" lon="1.14929">
        <ele>486.4</ele>
        <time>2024-04-21T12:55:19.994Z</time>
      </trkpt>
      <trkpt lat="43.02323" lon="1.14924">
        <ele>486</ele>
        <time>2024-04-21T12:55:20.994Z</time>
      </trkpt>
      <trkpt lat="43.0234" lon="1.14914">
        <ele>485.6</ele>
        <time>2024-04-21T12:55:21.994Z</time>
      </trkpt>
      <trkpt lat="43.02349" lon="1.14909">
        <ele>485.2</ele>
        <time>2024-04-21T12:55:22.994Z</time>
      </trkpt>
      <trkpt lat="43.02357" lon="1.14905">
        <ele>484.4</ele>
        <time>2024-04-21T12:55:23.994Z</time>
      </trkpt>
      <trkpt lat="43.02366" lon="1.14901">
        <ele>484</ele>
        <time>2024-04-21T12:55:24.994Z</time>
      </trkpt>
      <trkpt lat="43.02374" lon="1.14896">
        <ele>483.8</ele>
        <time>2024-04-21T12:55:25.994Z</time>
      </trkpt>
      <trkpt lat="43.02383" lon="1.14893">
        <ele>483.6</ele>
        <time>2024-04-21T12:55:26.994Z</time>
      </trkpt>
      <trkpt lat="43.02391" lon="1.14888">
        <ele>482.8</ele>
        <time>2024-04-21T12:55:27.994Z</time>
      </trkpt>
      <trkpt lat="43.024" lon="1.14883">
        <ele>482.4</ele>
        <time>2024-04-21T12:55:28.994Z</time>
      </trkpt>
      <trkpt lat="43.02409" lon="1.14879">
        <ele>482</ele>
        <time>2024-04-21T12:55:29.994Z</time>
      </trkpt>
      <trkpt lat="43.02418" lon="1.14874">
        <ele>481.4</ele>
        <time>2024-04-21T12:55:30.994Z</time>
      </trkpt>
      <trkpt lat="43.02428" lon="1.14869">
        <ele>480.8</ele>
        <time>2024-04-21T12:55:31.994Z</time>
      </trkpt>
      <trkpt lat="43.02437" lon="1.14865">
        <ele>480.6</ele>
        <time>2024-04-21T12:55:32.994Z</time>
      </trkpt>
      <trkpt lat="43.02446" lon="1.14859">
        <ele>479.8</ele>
        <time>2024-04-21T12:55:33.994Z</time>
      </trkpt>
      <trkpt lat="43.02456" lon="1.14856">
        <ele>479.2</ele>
        <time>2024-04-21T12:55:34.994Z</time>
      </trkpt>
      <trkpt lat="43.02464" lon="1.1485">
        <ele>478.8</ele>
        <time>2024-04-21T12:55:35.994Z</time>
      </trkpt>
      <trkpt lat="43.02472" lon="1.14845">
        <ele>478.4</ele>
        <time>2024-04-21T12:55:36.994Z</time>
      </trkpt>
      <trkpt lat="43.02479" lon="1.1484">
        <ele>478.2</ele>
        <time>2024-04-21T12:55:37.994Z</time>
      </trkpt>
      <trkpt lat="43.02487" lon="1.14836">
        <ele>478.2</ele>
        <time>2024-04-21T12:55:38.994Z</time>
      </trkpt>
      <trkpt lat="43.02494" lon="1.14832">
        <ele>478.2</ele>
        <time>2024-04-21T12:55:39.994Z</time>
      </trkpt>
      <trkpt lat="43.025" lon="1.14828">
        <ele>477.6</ele>
        <time>2024-04-21T12:55:40.994Z</time>
      </trkpt>
      <trkpt lat="43.02507" lon="1.14823">
        <ele>477.6</ele>
        <time>2024-04-21T12:55:41.994Z</time>
      </trkpt>
      <trkpt lat="43.02512" lon="1.14819">
        <ele>478</ele>
        <time>2024-04-21T12:55:42.994Z</time>
      </trkpt>
      <trkpt lat="43.02518" lon="1.14816">
        <ele>478</ele>
        <time>2024-04-21T12:55:43.994Z</time>
      </trkpt>
      <trkpt lat="43.02523" lon="1.14812">
        <ele>478</ele>
        <time>2024-04-21T12:55:44.994Z</time>
      </trkpt>
      <trkpt lat="43.02528" lon="1.14809">
        <ele>478</ele>
        <time>2024-04-21T12:55:45.994Z</time>
      </trkpt>
      <trkpt lat="43.02533" lon="1.14805">
        <ele>478</ele>
        <time>2024-04-21T12:55:46.994Z</time>
      </trkpt>
      <trkpt lat="43.02538" lon="1.14803">
        <ele>478</ele>
        <time>2024-04-21T12:55:47.994Z</time>
      </trkpt>
      <trkpt lat="43.02543" lon="1.14802">
        <ele>478</ele>
        <time>2024-04-21T12:55:48.994Z</time>
      </trkpt>
      <trkpt lat="43.02548" lon="1.14799">
        <ele>478.2</ele>
        <time>2024-04-21T12:55:49.994Z</time>
      </trkpt>
      <trkpt lat="43.02553" lon="1.14796">
        <ele>478.2</ele>
        <time>2024-04-21T12:55:50.994Z</time>
      </trkpt>
      <trkpt lat="43.02558" lon="1.14793">
        <ele>478.4</ele>
        <time>2024-04-21T12:55:51.994Z</time>
      </trkpt>
      <trkpt lat="43.02562" lon="1.14789">
        <ele>478.4</ele>
        <time>2024-04-21T12:55:52.994Z</time>
      </trkpt>
      <trkpt lat="43.02566" lon="1.14787">
        <ele>478.4</ele>
        <time>2024-04-21T12:55:53.994Z</time>
      </trkpt>
      <trkpt lat="43.0257" lon="1.14784">
        <ele>478.4</ele>
        <time>2024-04-21T12:55:54.994Z</time>
      </trkpt>
      <trkpt lat="43.02575" lon="1.14781">
        <ele>478.6</ele>
        <time>2024-04-21T12:55:55.994Z</time>
      </trkpt>
      <trkpt lat="43.02577" lon="1.14779">
        <ele>478.6</ele>
        <time>2024-04-21T12:55:56.994Z</time>
      </trkpt>
      <trkpt lat="43.02582" lon="1.14776">
        <ele>478.6</ele>
        <time>2024-04-21T12:55:57.994Z</time>
      </trkpt>
      <trkpt lat="43.02587" lon="1.14774">
        <ele>478.6</ele>
        <time>2024-04-21T12:55:58.994Z</time>
      </trkpt>
      <trkpt lat="43.02591" lon="1.14771">
        <ele>478.6</ele>
        <time>2024-04-21T12:55:59.994Z</time>
      </trkpt>
      <trkpt lat="43.02597" lon="1.1477">
        <ele>478.6</ele>
        <time>2024-04-21T12:56:00.994Z</time>
      </trkpt>
      <trkpt lat="43.02602" lon="1.14766">
        <ele>478.4</ele>
        <time>2024-04-21T12:56:01.994Z</time>
      </trkpt>
      <trkpt lat="43.02607" lon="1.14763">
        <ele>478.4</ele>
        <time>2024-04-21T12:56:02.994Z</time>
      </trkpt>
      <trkpt lat="43.02612" lon="1.14761">
        <ele>478.4</ele>
        <time>2024-04-21T12:56:03.994Z</time>
      </trkpt>
      <trkpt lat="43.02617" lon="1.14757">
        <ele>478.4</ele>
        <time>2024-04-21T12:56:04.994Z</time>
      </trkpt>
      <trkpt lat="43.02622" lon="1.14755">
        <ele>478.4</ele>
        <time>2024-04-21T12:56:05.994Z</time>
      </trkpt>
      <trkpt lat="43.02626" lon="1.14752">
        <ele>477.8</ele>
        <time>2024-04-21T12:56:06.994Z</time>
      </trkpt>
      <trkpt lat="43.02631" lon="1.14749">
        <ele>477.8</ele>
        <time>2024-04-21T12:56:07.994Z</time>
      </trkpt>
      <trkpt lat="43.02635" lon="1.14747">
        <ele>477.8</ele>
        <time>2024-04-21T12:56:08.994Z</time>
      </trkpt>
      <trkpt lat="43.0264" lon="1.14744">
        <ele>478.2</ele>
        <time>2024-04-21T12:56:09.994Z</time>
      </trkpt>
      <trkpt lat="43.02645" lon="1.14741">
        <ele>478.2</ele>
        <time>2024-04-21T12:56:10.994Z</time>
      </trkpt>
      <trkpt lat="43.02649" lon="1.14739">
        <ele>478.2</ele>
        <time>2024-04-21T12:56:11.994Z</time>
      </trkpt>
      <trkpt lat="43.02653" lon="1.14735">
        <ele>478.2</ele>
        <time>2024-04-21T12:56:12.994Z</time>
      </trkpt>
      <trkpt lat="43.02657" lon="1.14732">
        <ele>478.2</ele>
        <time>2024-04-21T12:56:13.994Z</time>
      </trkpt>
      <trkpt lat="43.02662" lon="1.14729">
        <ele>477.8</ele>
        <time>2024-04-21T12:56:14.994Z</time>
      </trkpt>
      <trkpt lat="43.02667" lon="1.14727">
        <ele>478.2</ele>
        <time>2024-04-21T12:56:15.994Z</time>
      </trkpt>
      <trkpt lat="43.0267" lon="1.14724">
        <ele>478</ele>
        <time>2024-04-21T12:56:16.994Z</time>
      </trkpt>
      <trkpt lat="43.02675" lon="1.14721">
        <ele>478</ele>
        <time>2024-04-21T12:56:17.994Z</time>
      </trkpt>
      <trkpt lat="43.02678" lon="1.14719">
        <ele>477.4</ele>
        <time>2024-04-21T12:56:18.994Z</time>
      </trkpt>
      <trkpt lat="43.02682" lon="1.14717">
        <ele>477.4</ele>
        <time>2024-04-21T12:56:19.994Z</time>
      </trkpt>
      <trkpt lat="43.02688" lon="1.14714">
        <ele>477.4</ele>
        <time>2024-04-21T12:56:20.994Z</time>
      </trkpt>
      <trkpt lat="43.02692" lon="1.14712">
        <ele>477.4</ele>
        <time>2024-04-21T12:56:21.994Z</time>
      </trkpt>
      <trkpt lat="43.02697" lon="1.14709">
        <ele>477.4</ele>
        <time>2024-04-21T12:56:22.994Z</time>
      </trkpt>
      <trkpt lat="43.02702" lon="1.14708">
        <ele>477.2</ele>
        <time>2024-04-21T12:56:23.994Z</time>
      </trkpt>
      <trkpt lat="43.02706" lon="1.14706">
        <ele>477.2</ele>
        <time>2024-04-21T12:56:24.994Z</time>
      </trkpt>
      <trkpt lat="43.02711" lon="1.14705">
        <ele>477.2</ele>
        <time>2024-04-21T12:56:25.994Z</time>
      </trkpt>
      <trkpt lat="43.02716" lon="1.14704">
        <ele>477.2</ele>
        <time>2024-04-21T12:56:26.994Z</time>
      </trkpt>
      <trkpt lat="43.0272" lon="1.14704">
        <ele>477.6</ele>
        <time>2024-04-21T12:56:27.994Z</time>
      </trkpt>
      <trkpt lat="43.02726" lon="1.14707">
        <ele>477.6</ele>
        <time>2024-04-21T12:56:28.994Z</time>
      </trkpt>
      <trkpt lat="43.0273" lon="1.14706">
        <ele>477.6</ele>
        <time>2024-04-21T12:56:29.994Z</time>
      </trkpt>
      <trkpt lat="43.02734" lon="1.14706">
        <ele>477.8</ele>
        <time>2024-04-21T12:56:30.994Z</time>
      </trkpt>
      <trkpt lat="43.02738" lon="1.14706">
        <ele>477.8</ele>
        <time>2024-04-21T12:56:31.994Z</time>
      </trkpt>
      <trkpt lat="43.02743" lon="1.14706">
        <ele>478</ele>
        <time>2024-04-21T12:56:32.994Z</time>
      </trkpt>
      <trkpt lat="43.02746" lon="1.14706">
        <ele>478</ele>
        <time>2024-04-21T12:56:33.994Z</time>
      </trkpt>
      <trkpt lat="43.02751" lon="1.14707">
        <ele>478.2</ele>
        <time>2024-04-21T12:56:34.994Z</time>
      </trkpt>
      <trkpt lat="43.02755" lon="1.14708">
        <ele>478</ele>
        <time>2024-04-21T12:56:35.994Z</time>
      </trkpt>
      <trkpt lat="43.0276" lon="1.14708">
        <ele>478</ele>
        <time>2024-04-21T12:56:36.994Z</time>
      </trkpt>
      <trkpt lat="43.02765" lon="1.1471">
        <ele>477.8</ele>
        <time>2024-04-21T12:56:37.994Z</time>
      </trkpt>
      <trkpt lat="43.02772" lon="1.14711">
        <ele>477.4</ele>
        <time>2024-04-21T12:56:38.994Z</time>
      </trkpt>
      <trkpt lat="43.02777" lon="1.14711">
        <ele>477.4</ele>
        <time>2024-04-21T12:56:39.994Z</time>
      </trkpt>
      <trkpt lat="43.02783" lon="1.14711">
        <ele>477.2</ele>
        <time>2024-04-21T12:56:40.994Z</time>
      </trkpt>
      <trkpt lat="43.02789" lon="1.14712">
        <ele>477.2</ele>
        <time>2024-04-21T12:56:41.994Z</time>
      </trkpt>
      <trkpt lat="43.02795" lon="1.14711">
        <ele>477</ele>
        <time>2024-04-21T12:56:42.994Z</time>
      </trkpt>
      <trkpt lat="43.02801" lon="1.14711">
        <ele>476.8</ele>
        <time>2024-04-21T12:56:43.994Z</time>
      </trkpt>
      <trkpt lat="43.02807" lon="1.1471">
        <ele>476.4</ele>
        <time>2024-04-21T12:56:44.994Z</time>
      </trkpt>
      <trkpt lat="43.02813" lon="1.14709">
        <ele>476.4</ele>
        <time>2024-04-21T12:56:45.994Z</time>
      </trkpt>
      <trkpt lat="43.0282" lon="1.14708">
        <ele>476.4</ele>
        <time>2024-04-21T12:56:46.994Z</time>
      </trkpt>
      <trkpt lat="43.02825" lon="1.14707">
        <ele>476</ele>
        <time>2024-04-21T12:56:47.994Z</time>
      </trkpt>
      <trkpt lat="43.02831" lon="1.14707">
        <ele>475.8</ele>
        <time>2024-04-21T12:56:48.994Z</time>
      </trkpt>
      <trkpt lat="43.02836" lon="1.14705">
        <ele>475.4</ele>
        <time>2024-04-21T12:56:49.994Z</time>
      </trkpt>
      <trkpt lat="43.02842" lon="1.14705">
        <ele>475.4</ele>
        <time>2024-04-21T12:56:50.994Z</time>
      </trkpt>
      <trkpt lat="43.02848" lon="1.14705">
        <ele>475.4</ele>
        <time>2024-04-21T12:56:51.994Z</time>
      </trkpt>
      <trkpt lat="43.02853" lon="1.14705">
        <ele>475</ele>
        <time>2024-04-21T12:56:52.994Z</time>
      </trkpt>
      <trkpt lat="43.02857" lon="1.14703">
        <ele>475</ele>
        <time>2024-04-21T12:56:53.994Z</time>
      </trkpt>
      <trkpt lat="43.02861" lon="1.14701">
        <ele>474.8</ele>
        <time>2024-04-21T12:56:54.994Z</time>
      </trkpt>
      <trkpt lat="43.02867" lon="1.14699">
        <ele>474.8</ele>
        <time>2024-04-21T12:56:55.994Z</time>
      </trkpt>
      <trkpt lat="43.02873" lon="1.14699">
        <ele>474.6</ele>
        <time>2024-04-21T12:56:56.994Z</time>
      </trkpt>
      <trkpt lat="43.02878" lon="1.14698">
        <ele>474</ele>
        <time>2024-04-21T12:56:57.994Z</time>
      </trkpt>
      <trkpt lat="43.02885" lon="1.14697">
        <ele>473.4</ele>
        <time>2024-04-21T12:56:58.994Z</time>
      </trkpt>
      <trkpt lat="43.02894" lon="1.14697">
        <ele>472.6</ele>
        <time>2024-04-21T12:56:59.994Z</time>
      </trkpt>
      <trkpt lat="43.02901" lon="1.14695">
        <ele>472.4</ele>
        <time>2024-04-21T12:57:00.994Z</time>
      </trkpt>
      <trkpt lat="43.02908" lon="1.14695">
        <ele>471.8</ele>
        <time>2024-04-21T12:57:01.994Z</time>
      </trkpt>
      <trkpt lat="43.02915" lon="1.14694">
        <ele>471.2</ele>
        <time>2024-04-21T12:57:02.994Z</time>
      </trkpt>
      <trkpt lat="43.02922" lon="1.14694">
        <ele>470.8</ele>
        <time>2024-04-21T12:57:03.994Z</time>
      </trkpt>
      <trkpt lat="43.02929" lon="1.14692">
        <ele>470.2</ele>
        <time>2024-04-21T12:57:04.994Z</time>
      </trkpt>
      <trkpt lat="43.02938" lon="1.14691">
        <ele>469.6</ele>
        <time>2024-04-21T12:57:05.994Z</time>
      </trkpt>
      <trkpt lat="43.02947" lon="1.14692">
        <ele>469</ele>
        <time>2024-04-21T12:57:06.994Z</time>
      </trkpt>
      <trkpt lat="43.02955" lon="1.14692">
        <ele>468.4</ele>
        <time>2024-04-21T12:57:07.994Z</time>
      </trkpt>
      <trkpt lat="43.02964" lon="1.14693">
        <ele>468</ele>
        <time>2024-04-21T12:57:08.994Z</time>
      </trkpt>
      <trkpt lat="43.02971" lon="1.14692">
        <ele>467.2</ele>
        <time>2024-04-21T12:57:09.994Z</time>
      </trkpt>
      <trkpt lat="43.02981" lon="1.14693">
        <ele>466.6</ele>
        <time>2024-04-21T12:57:10.994Z</time>
      </trkpt>
      <trkpt lat="43.02991" lon="1.14693">
        <ele>465.6</ele>
        <time>2024-04-21T12:57:11.994Z</time>
      </trkpt>
      <trkpt lat="43.03" lon="1.14694">
        <ele>465</ele>
        <time>2024-04-21T12:57:12.994Z</time>
      </trkpt>
      <trkpt lat="43.03011" lon="1.14699">
        <ele>464.2</ele>
        <time>2024-04-21T12:57:13.994Z</time>
      </trkpt>
      <trkpt lat="43.0302" lon="1.14701">
        <ele>463.8</ele>
        <time>2024-04-21T12:57:14.994Z</time>
      </trkpt>
      <trkpt lat="43.03029" lon="1.14706">
        <ele>463</ele>
        <time>2024-04-21T12:57:15.994Z</time>
      </trkpt>
      <trkpt lat="43.03038" lon="1.14709">
        <ele>462.4</ele>
        <time>2024-04-21T12:57:16.994Z</time>
      </trkpt>
      <trkpt lat="43.03047" lon="1.14712">
        <ele>461.4</ele>
        <time>2024-04-21T12:57:17.994Z</time>
      </trkpt>
      <trkpt lat="43.03054" lon="1.14717">
        <ele>460.6</ele>
        <time>2024-04-21T12:57:18.994Z</time>
      </trkpt>
      <trkpt lat="43.03062" lon="1.14722">
        <ele>459.8</ele>
        <time>2024-04-21T12:57:19.994Z</time>
      </trkpt>
      <trkpt lat="43.03069" lon="1.14728">
        <ele>458.6</ele>
        <time>2024-04-21T12:57:20.994Z</time>
      </trkpt>
      <trkpt lat="43.03075" lon="1.14734">
        <ele>457.6</ele>
        <time>2024-04-21T12:57:21.994Z</time>
      </trkpt>
      <trkpt lat="43.03083" lon="1.14747">
        <ele>456.6</ele>
        <time>2024-04-21T12:57:22.994Z</time>
      </trkpt>
      <trkpt lat="43.03089" lon="1.14757">
        <ele>456</ele>
        <time>2024-04-21T12:57:23.994Z</time>
      </trkpt>
      <trkpt lat="43.03094" lon="1.14768">
        <ele>455.2</ele>
        <time>2024-04-21T12:57:24.994Z</time>
      </trkpt>
      <trkpt lat="43.03099" lon="1.14779">
        <ele>455</ele>
        <time>2024-04-21T12:57:25.994Z</time>
      </trkpt>
      <trkpt lat="43.03103" lon="1.14789">
        <ele>454.4</ele>
        <time>2024-04-21T12:57:26.994Z</time>
      </trkpt>
      <trkpt lat="43.03106" lon="1.14797">
        <ele>453.8</ele>
        <time>2024-04-21T12:57:27.994Z</time>
      </trkpt>
      <trkpt lat="43.03108" lon="1.14807">
        <ele>453.4</ele>
        <time>2024-04-21T12:57:28.994Z</time>
      </trkpt>
      <trkpt lat="43.03111" lon="1.14818">
        <ele>453.4</ele>
        <time>2024-04-21T12:57:29.994Z</time>
      </trkpt>
      <trkpt lat="43.03116" lon="1.14826">
        <ele>453</ele>
        <time>2024-04-21T12:57:30.994Z</time>
      </trkpt>
      <trkpt lat="43.03119" lon="1.14835">
        <ele>453</ele>
        <time>2024-04-21T12:57:31.994Z</time>
      </trkpt>
      <trkpt lat="43.03122" lon="1.14842">
        <ele>453</ele>
        <time>2024-04-21T12:57:32.994Z</time>
      </trkpt>
      <trkpt lat="43.03127" lon="1.14849">
        <ele>453</ele>
        <time>2024-04-21T12:57:33.994Z</time>
      </trkpt>
      <trkpt lat="43.0313" lon="1.14856">
        <ele>453</ele>
        <time>2024-04-21T12:57:34.994Z</time>
      </trkpt>
      <trkpt lat="43.03133" lon="1.14863">
        <ele>453</ele>
        <time>2024-04-21T12:57:35.994Z</time>
      </trkpt>
      <trkpt lat="43.03135" lon="1.14871">
        <ele>453</ele>
        <time>2024-04-21T12:57:36.994Z</time>
      </trkpt>
      <trkpt lat="43.03136" lon="1.14879">
        <ele>453.4</ele>
        <time>2024-04-21T12:57:37.994Z</time>
      </trkpt>
      <trkpt lat="43.03135" lon="1.14885">
        <ele>453.4</ele>
        <time>2024-04-21T12:57:38.994Z</time>
      </trkpt>
      <trkpt lat="43.03136" lon="1.14893">
        <ele>454</ele>
        <time>2024-04-21T12:57:39.994Z</time>
      </trkpt>
      <trkpt lat="43.03134" lon="1.14899">
        <ele>454.2</ele>
        <time>2024-04-21T12:57:40.994Z</time>
      </trkpt>
      <trkpt lat="43.03132" lon="1.14905">
        <ele>454.6</ele>
        <time>2024-04-21T12:57:41.994Z</time>
      </trkpt>
      <trkpt lat="43.0313" lon="1.1491">
        <ele>455</ele>
        <time>2024-04-21T12:57:42.994Z</time>
      </trkpt>
      <trkpt lat="43.03127" lon="1.14915">
        <ele>455.4</ele>
        <time>2024-04-21T12:57:43.994Z</time>
      </trkpt>
      <trkpt lat="43.03125" lon="1.14919">
        <ele>455.8</ele>
        <time>2024-04-21T12:57:44.994Z</time>
      </trkpt>
      <trkpt lat="43.03123" lon="1.14923">
        <ele>455.8</ele>
        <time>2024-04-21T12:57:45.994Z</time>
      </trkpt>
      <trkpt lat="43.03121" lon="1.14927">
        <ele>456.2</ele>
        <time>2024-04-21T12:57:46.994Z</time>
      </trkpt>
      <trkpt lat="43.03121" lon="1.14932">
        <ele>456.4</ele>
        <time>2024-04-21T12:57:47.994Z</time>
      </trkpt>
      <trkpt lat="43.03123" lon="1.14936">
        <ele>456.8</ele>
        <time>2024-04-21T12:57:48.994Z</time>
      </trkpt>
      <trkpt lat="43.03127" lon="1.14938">
        <ele>457</ele>
        <time>2024-04-21T12:57:49.994Z</time>
      </trkpt>
      <trkpt lat="43.0313" lon="1.14937">
        <ele>457.2</ele>
        <time>2024-04-21T12:57:50.994Z</time>
      </trkpt>
      <trkpt lat="43.03132" lon="1.14933">
        <ele>457.2</ele>
        <time>2024-04-21T12:57:51.994Z</time>
      </trkpt>
      <trkpt lat="43.03133" lon="1.14929">
        <ele>457.2</ele>
        <time>2024-04-21T12:57:52.994Z</time>
      </trkpt>
      <trkpt lat="43.03135" lon="1.14924">
        <ele>457.2</ele>
        <time>2024-04-21T12:57:53.994Z</time>
      </trkpt>
      <trkpt lat="43.03138" lon="1.1492">
        <ele>457.6</ele>
        <time>2024-04-21T12:57:54.994Z</time>
      </trkpt>
      <trkpt lat="43.0314" lon="1.14916">
        <ele>457.6</ele>
        <time>2024-04-21T12:57:55.994Z</time>
      </trkpt>
      <trkpt lat="43.03143" lon="1.14912">
        <ele>458</ele>
        <time>2024-04-21T12:57:56.994Z</time>
      </trkpt>
      <trkpt lat="43.03145" lon="1.14909">
        <ele>458.2</ele>
        <time>2024-04-21T12:57:57.994Z</time>
      </trkpt>
      <trkpt lat="43.03147" lon="1.14906">
        <ele>458.4</ele>
        <time>2024-04-21T12:57:58.994Z</time>
      </trkpt>
      <trkpt lat="43.03149" lon="1.14902">
        <ele>458.4</ele>
        <time>2024-04-21T12:57:59.994Z</time>
      </trkpt>
      <trkpt lat="43.03152" lon="1.14898">
        <ele>458.6</ele>
        <time>2024-04-21T12:58:00.994Z</time>
      </trkpt>
      <trkpt lat="43.03154" lon="1.14895">
        <ele>459</ele>
        <time>2024-04-21T12:58:01.994Z</time>
      </trkpt>
      <trkpt lat="43.03157" lon="1.14892">
        <ele>459.2</ele>
        <time>2024-04-21T12:58:02.994Z</time>
      </trkpt>
      <trkpt lat="43.03159" lon="1.14889">
        <ele>459.2</ele>
        <time>2024-04-21T12:58:03.994Z</time>
      </trkpt>
      <trkpt lat="43.03162" lon="1.14886">
        <ele>459.6</ele>
        <time>2024-04-21T12:58:04.994Z</time>
      </trkpt>
      <trkpt lat="43.03164" lon="1.14882">
        <ele>459.6</ele>
        <time>2024-04-21T12:58:05.994Z</time>
      </trkpt>
      <trkpt lat="43.03166" lon="1.14879">
        <ele>459.8</ele>
        <time>2024-04-21T12:58:06.994Z</time>
      </trkpt>
      <trkpt lat="43.03168" lon="1.14876">
        <ele>460</ele>
        <time>2024-04-21T12:58:07.994Z</time>
      </trkpt>
      <trkpt lat="43.0317" lon="1.14873">
        <ele>460.4</ele>
        <time>2024-04-21T12:58:08.994Z</time>
      </trkpt>
      <trkpt lat="43.03172" lon="1.1487">
        <ele>460.4</ele>
        <time>2024-04-21T12:58:09.994Z</time>
      </trkpt>
      <trkpt lat="43.03175" lon="1.14868">
        <ele>460.6</ele>
        <time>2024-04-21T12:58:10.994Z</time>
      </trkpt>
      <trkpt lat="43.03178" lon="1.14865">
        <ele>460.6</ele>
        <time>2024-04-21T12:58:11.994Z</time>
      </trkpt>
      <trkpt lat="43.0318" lon="1.14863">
        <ele>460.6</ele>
        <time>2024-04-21T12:58:12.994Z</time>
      </trkpt>
      <trkpt lat="43.03183" lon="1.14862">
        <ele>461.2</ele>
        <time>2024-04-21T12:58:13.994Z</time>
      </trkpt>
      <trkpt lat="43.03186" lon="1.1486">
        <ele>461.4</ele>
        <time>2024-04-21T12:58:14.994Z</time>
      </trkpt>
      <trkpt lat="43.03188" lon="1.14859">
        <ele>461.8</ele>
        <time>2024-04-21T12:58:15.994Z</time>
      </trkpt>
      <trkpt lat="43.03192" lon="1.14859">
        <ele>462</ele>
        <time>2024-04-21T12:58:16.994Z</time>
      </trkpt>
      <trkpt lat="43.03195" lon="1.14859">
        <ele>462.2</ele>
        <time>2024-04-21T12:58:17.994Z</time>
      </trkpt>
      <trkpt lat="43.03198" lon="1.14861">
        <ele>462.6</ele>
        <time>2024-04-21T12:58:18.994Z</time>
      </trkpt>
      <trkpt lat="43.032" lon="1.14863">
        <ele>462.8</ele>
        <time>2024-04-21T12:58:19.994Z</time>
      </trkpt>
      <trkpt lat="43.03203" lon="1.14865">
        <ele>462.8</ele>
        <time>2024-04-21T12:58:20.994Z</time>
      </trkpt>
      <trkpt lat="43.03205" lon="1.14867">
        <ele>462.8</ele>
        <time>2024-04-21T12:58:21.994Z</time>
      </trkpt>
      <trkpt lat="43.03207" lon="1.1487">
        <ele>462.8</ele>
        <time>2024-04-21T12:58:22.994Z</time>
      </trkpt>
      <trkpt lat="43.0321" lon="1.14873">
        <ele>463.4</ele>
        <time>2024-04-21T12:58:23.994Z</time>
      </trkpt>
      <trkpt lat="43.03211" lon="1.14876">
        <ele>463.8</ele>
        <time>2024-04-21T12:58:24.994Z</time>
      </trkpt>
      <trkpt lat="43.03213" lon="1.14879">
        <ele>464.2</ele>
        <time>2024-04-21T12:58:25.994Z</time>
      </trkpt>
      <trkpt lat="43.03215" lon="1.14881">
        <ele>464.4</ele>
        <time>2024-04-21T12:58:26.994Z</time>
      </trkpt>
      <trkpt lat="43.03217" lon="1.14884">
        <ele>464.8</ele>
        <time>2024-04-21T12:58:27.994Z</time>
      </trkpt>
      <trkpt lat="43.0322" lon="1.14887">
        <ele>465</ele>
        <time>2024-04-21T12:58:28.994Z</time>
      </trkpt>
      <trkpt lat="43.03222" lon="1.14889">
        <ele>465.4</ele>
        <time>2024-04-21T12:58:29.994Z</time>
      </trkpt>
      <trkpt lat="43.03224" lon="1.14892">
        <ele>465.6</ele>
        <time>2024-04-21T12:58:30.994Z</time>
      </trkpt>
      <trkpt lat="43.03226" lon="1.14895">
        <ele>465.8</ele>
        <time>2024-04-21T12:58:31.994Z</time>
      </trkpt>
      <trkpt lat="43.03229" lon="1.14898">
        <ele>465.8</ele>
        <time>2024-04-21T12:58:32.994Z</time>
      </trkpt>
      <trkpt lat="43.03231" lon="1.149">
        <ele>466.2</ele>
        <time>2024-04-21T12:58:33.994Z</time>
      </trkpt>
      <trkpt lat="43.03233" lon="1.14903">
        <ele>466.6</ele>
        <time>2024-04-21T12:58:34.994Z</time>
      </trkpt>
      <trkpt lat="43.03236" lon="1.14906">
        <ele>466.8</ele>
        <time>2024-04-21T12:58:35.994Z</time>
      </trkpt>
      <trkpt lat="43.03238" lon="1.14909">
        <ele>466.8</ele>
        <time>2024-04-21T12:58:36.994Z</time>
      </trkpt>
      <trkpt lat="43.03241" lon="1.14912">
        <ele>467</ele>
        <time>2024-04-21T12:58:37.994Z</time>
      </trkpt>
      <trkpt lat="43.03243" lon="1.14914">
        <ele>467.4</ele>
        <time>2024-04-21T12:58:38.994Z</time>
      </trkpt>
      <trkpt lat="43.03246" lon="1.14917">
        <ele>467.6</ele>
        <time>2024-04-21T12:58:39.994Z</time>
      </trkpt>
      <trkpt lat="43.03248" lon="1.1492">
        <ele>467.8</ele>
        <time>2024-04-21T12:58:40.994Z</time>
      </trkpt>
      <trkpt lat="43.03251" lon="1.14923">
        <ele>468</ele>
        <time>2024-04-21T12:58:41.994Z</time>
      </trkpt>
      <trkpt lat="43.03253" lon="1.14926">
        <ele>468.2</ele>
        <time>2024-04-21T12:58:42.994Z</time>
      </trkpt>
      <trkpt lat="43.03256" lon="1.14929">
        <ele>468.2</ele>
        <time>2024-04-21T12:58:43.994Z</time>
      </trkpt>
      <trkpt lat="43.03258" lon="1.14931">
        <ele>468.6</ele>
        <time>2024-04-21T12:58:44.994Z</time>
      </trkpt>
      <trkpt lat="43.0326" lon="1.14933">
        <ele>469</ele>
        <time>2024-04-21T12:58:45.994Z</time>
      </trkpt>
      <trkpt lat="43.03263" lon="1.14935">
        <ele>469</ele>
        <time>2024-04-21T12:58:46.994Z</time>
      </trkpt>
      <trkpt lat="43.03265" lon="1.14938">
        <ele>469.4</ele>
        <time>2024-04-21T12:58:47.994Z</time>
      </trkpt>
      <trkpt lat="43.03267" lon="1.1494">
        <ele>469.4</ele>
        <time>2024-04-21T12:58:48.994Z</time>
      </trkpt>
      <trkpt lat="43.03269" lon="1.14943">
        <ele>469.6</ele>
        <time>2024-04-21T12:58:49.994Z</time>
      </trkpt>
      <trkpt lat="43.03269" lon="1.14943">
        <ele>470</ele>
        <time>2024-04-21T12:58:50.994Z</time>
      </trkpt>
      <trkpt lat="43.03272" lon="1.14945">
        <ele>470</ele>
        <time>2024-04-21T12:58:51.994Z</time>
      </trkpt>
      <trkpt lat="43.03274" lon="1.14947">
        <ele>470.2</ele>
        <time>2024-04-21T12:58:52.994Z</time>
      </trkpt>
      <trkpt lat="43.03276" lon="1.14948">
        <ele>470.2</ele>
        <time>2024-04-21T12:58:53.994Z</time>
      </trkpt>
      <trkpt lat="43.03278" lon="1.1495">
        <ele>470.6</ele>
        <time>2024-04-21T12:58:54.994Z</time>
      </trkpt>
      <trkpt lat="43.0328" lon="1.14952">
        <ele>471</ele>
        <time>2024-04-21T12:58:55.994Z</time>
      </trkpt>
      <trkpt lat="43.03282" lon="1.14955">
        <ele>471</ele>
        <time>2024-04-21T12:58:56.994Z</time>
      </trkpt>
      <trkpt lat="43.03284" lon="1.14957">
        <ele>471.4</ele>
        <time>2024-04-21T12:58:57.994Z</time>
      </trkpt>
      <trkpt lat="43.03286" lon="1.14959">
        <ele>471.6</ele>
        <time>2024-04-21T12:58:58.994Z</time>
      </trkpt>
      <trkpt lat="43.03288" lon="1.14962">
        <ele>471.6</ele>
        <time>2024-04-21T12:58:59.994Z</time>
      </trkpt>
      <trkpt lat="43.03291" lon="1.14964">
        <ele>472</ele>
        <time>2024-04-21T12:59:00.994Z</time>
      </trkpt>
      <trkpt lat="43.03293" lon="1.14966">
        <ele>472</ele>
        <time>2024-04-21T12:59:01.994Z</time>
      </trkpt>
      <trkpt lat="43.03295" lon="1.14968">
        <ele>472.4</ele>
        <time>2024-04-21T12:59:02.994Z</time>
      </trkpt>
      <trkpt lat="43.03297" lon="1.1497">
        <ele>472.6</ele>
        <time>2024-04-21T12:59:03.994Z</time>
      </trkpt>
      <trkpt lat="43.03299" lon="1.14972">
        <ele>472.8</ele>
        <time>2024-04-21T12:59:04.994Z</time>
      </trkpt>
      <trkpt lat="43.03302" lon="1.14973">
        <ele>472.8</ele>
        <time>2024-04-21T12:59:05.994Z</time>
      </trkpt>
      <trkpt lat="43.03305" lon="1.14973">
        <ele>473.2</ele>
        <time>2024-04-21T12:59:06.994Z</time>
      </trkpt>
      <trkpt lat="43.03308" lon="1.14973">
        <ele>473.4</ele>
        <time>2024-04-21T12:59:07.994Z</time>
      </trkpt>
      <trkpt lat="43.0331" lon="1.14971">
        <ele>473.6</ele>
        <time>2024-04-21T12:59:08.994Z</time>
      </trkpt>
      <trkpt lat="43.03312" lon="1.14969">
        <ele>473.6</ele>
        <time>2024-04-21T12:59:09.994Z</time>
      </trkpt>
      <trkpt lat="43.03314" lon="1.14966">
        <ele>474</ele>
        <time>2024-04-21T12:59:10.994Z</time>
      </trkpt>
      <trkpt lat="43.03315" lon="1.14963">
        <ele>474.4</ele>
        <time>2024-04-21T12:59:11.994Z</time>
      </trkpt>
      <trkpt lat="43.03316" lon="1.1496">
        <ele>474.6</ele>
        <time>2024-04-21T12:59:12.994Z</time>
      </trkpt>
      <trkpt lat="43.03317" lon="1.14956">
        <ele>474.8</ele>
        <time>2024-04-21T12:59:13.994Z</time>
      </trkpt>
      <trkpt lat="43.03318" lon="1.1495">
        <ele>474.8</ele>
        <time>2024-04-21T12:59:14.994Z</time>
      </trkpt>
      <trkpt lat="43.03318" lon="1.14947">
        <ele>475.2</ele>
        <time>2024-04-21T12:59:15.994Z</time>
      </trkpt>
      <trkpt lat="43.03318" lon="1.14944">
        <ele>475.2</ele>
        <time>2024-04-21T12:59:16.994Z</time>
      </trkpt>
      <trkpt lat="43.03318" lon="1.1494">
        <ele>475.6</ele>
        <time>2024-04-21T12:59:17.994Z</time>
      </trkpt>
      <trkpt lat="43.03318" lon="1.14937">
        <ele>475.6</ele>
        <time>2024-04-21T12:59:18.994Z</time>
      </trkpt>
      <trkpt lat="43.03318" lon="1.14933">
        <ele>476</ele>
        <time>2024-04-21T12:59:19.994Z</time>
      </trkpt>
      <trkpt lat="43.03318" lon="1.14929">
        <ele>476</ele>
        <time>2024-04-21T12:59:20.994Z</time>
      </trkpt>
      <trkpt lat="43.03318" lon="1.14926">
        <ele>476.4</ele>
        <time>2024-04-21T12:59:21.994Z</time>
      </trkpt>
      <trkpt lat="43.03319" lon="1.14923">
        <ele>476.4</ele>
        <time>2024-04-21T12:59:22.994Z</time>
      </trkpt>
      <trkpt lat="43.0332" lon="1.1492">
        <ele>476.4</ele>
        <time>2024-04-21T12:59:23.994Z</time>
      </trkpt>
      <trkpt lat="43.0332" lon="1.14916">
        <ele>477</ele>
        <time>2024-04-21T12:59:24.994Z</time>
      </trkpt>
      <trkpt lat="43.03322" lon="1.14913">
        <ele>477</ele>
        <time>2024-04-21T12:59:25.994Z</time>
      </trkpt>
      <trkpt lat="43.03323" lon="1.1491">
        <ele>477</ele>
        <time>2024-04-21T12:59:26.994Z</time>
      </trkpt>
      <trkpt lat="43.03325" lon="1.14907">
        <ele>477.4</ele>
        <time>2024-04-21T12:59:27.994Z</time>
      </trkpt>
      <trkpt lat="43.03327" lon="1.14905">
        <ele>477.4</ele>
        <time>2024-04-21T12:59:28.994Z</time>
      </trkpt>
      <trkpt lat="43.03329" lon="1.14903">
        <ele>477.6</ele>
        <time>2024-04-21T12:59:29.994Z</time>
      </trkpt>
      <trkpt lat="43.03331" lon="1.14902">
        <ele>477.8</ele>
        <time>2024-04-21T12:59:30.994Z</time>
      </trkpt>
      <trkpt lat="43.03334" lon="1.14901">
        <ele>478.2</ele>
        <time>2024-04-21T12:59:31.994Z</time>
      </trkpt>
      <trkpt lat="43.03336" lon="1.14901">
        <ele>478.6</ele>
        <time>2024-04-21T12:59:32.994Z</time>
      </trkpt>
      <trkpt lat="43.03338" lon="1.14902">
        <ele>479</ele>
        <time>2024-04-21T12:59:33.994Z</time>
      </trkpt>
      <trkpt lat="43.03341" lon="1.14901">
        <ele>479.4</ele>
        <time>2024-04-21T12:59:34.994Z</time>
      </trkpt>
      <trkpt lat="43.03343" lon="1.14901">
        <ele>479.8</ele>
        <time>2024-04-21T12:59:35.994Z</time>
      </trkpt>
      <trkpt lat="43.03346" lon="1.14901">
        <ele>480.2</ele>
        <time>2024-04-21T12:59:36.994Z</time>
      </trkpt>
      <trkpt lat="43.03349" lon="1.14901">
        <ele>480.6</ele>
        <time>2024-04-21T12:59:37.994Z</time>
      </trkpt>
      <trkpt lat="43.03351" lon="1.14902">
        <ele>480.8</ele>
        <time>2024-04-21T12:59:38.994Z</time>
      </trkpt>
      <trkpt lat="43.03354" lon="1.14902">
        <ele>481.2</ele>
        <time>2024-04-21T12:59:39.994Z</time>
      </trkpt>
      <trkpt lat="43.03356" lon="1.14902">
        <ele>481.4</ele>
        <time>2024-04-21T12:59:40.994Z</time>
      </trkpt>
      <trkpt lat="43.03358" lon="1.14902">
        <ele>481.8</ele>
        <time>2024-04-21T12:59:41.994Z</time>
      </trkpt>
      <trkpt lat="43.0336" lon="1.14902">
        <ele>482</ele>
        <time>2024-04-21T12:59:42.994Z</time>
      </trkpt>
      <trkpt lat="43.03362" lon="1.14902">
        <ele>482.4</ele>
        <time>2024-04-21T12:59:43.994Z</time>
      </trkpt>
      <trkpt lat="43.03364" lon="1.14902">
        <ele>482.4</ele>
        <time>2024-04-21T12:59:44.994Z</time>
      </trkpt>
      <trkpt lat="43.03367" lon="1.14901">
        <ele>483</ele>
        <time>2024-04-21T12:59:45.994Z</time>
      </trkpt>
      <trkpt lat="43.03369" lon="1.149">
        <ele>483.2</ele>
        <time>2024-04-21T12:59:46.994Z</time>
      </trkpt>
      <trkpt lat="43.03371" lon="1.14899">
        <ele>483.2</ele>
        <time>2024-04-21T12:59:47.994Z</time>
      </trkpt>
      <trkpt lat="43.03373" lon="1.14898">
        <ele>483.2</ele>
        <time>2024-04-21T12:59:48.994Z</time>
      </trkpt>
      <trkpt lat="43.03376" lon="1.14896">
        <ele>483.2</ele>
        <time>2024-04-21T12:59:49.994Z</time>
      </trkpt>
      <trkpt lat="43.03379" lon="1.14893">
        <ele>483.2</ele>
        <time>2024-04-21T12:59:50.994Z</time>
      </trkpt>
      <trkpt lat="43.03382" lon="1.14889">
        <ele>483.2</ele>
        <time>2024-04-21T12:59:51.994Z</time>
      </trkpt>
      <trkpt lat="43.03387" lon="1.14885">
        <ele>483.2</ele>
        <time>2024-04-21T12:59:52.994Z</time>
      </trkpt>
      <trkpt lat="43.03391" lon="1.14882">
        <ele>482.8</ele>
        <time>2024-04-21T12:59:53.994Z</time>
      </trkpt>
      <trkpt lat="43.03395" lon="1.14879">
        <ele>482.6</ele>
        <time>2024-04-21T12:59:54.994Z</time>
      </trkpt>
      <trkpt lat="43.03399" lon="1.14877">
        <ele>482.6</ele>
        <time>2024-04-21T12:59:55.994Z</time>
      </trkpt>
      <trkpt lat="43.03403" lon="1.14875">
        <ele>482.6</ele>
        <time>2024-04-21T12:59:56.994Z</time>
      </trkpt>
      <trkpt lat="43.03406" lon="1.14874">
        <ele>482.6</ele>
        <time>2024-04-21T12:59:57.994Z</time>
      </trkpt>
      <trkpt lat="43.03408" lon="1.14873">
        <ele>483</ele>
        <time>2024-04-21T12:59:58.994Z</time>
      </trkpt>
      <trkpt lat="43.0341" lon="1.14872">
        <ele>483</ele>
        <time>2024-04-21T12:59:59.994Z</time>
      </trkpt>
      <trkpt lat="43.03413" lon="1.14872">
        <ele>483.2</ele>
        <time>2024-04-21T13:00:00.994Z</time>
      </trkpt>
      <trkpt lat="43.03416" lon="1.14872">
        <ele>483.2</ele>
        <time>2024-04-21T13:00:01.994Z</time>
      </trkpt>
      <trkpt lat="43.03418" lon="1.14871">
        <ele>483.6</ele>
        <time>2024-04-21T13:00:02.994Z</time>
      </trkpt>
      <trkpt lat="43.03421" lon="1.14872">
        <ele>483.8</ele>
        <time>2024-04-21T13:00:03.994Z</time>
      </trkpt>
      <trkpt lat="43.03424" lon="1.14872">
        <ele>483.8</ele>
        <time>2024-04-21T13:00:04.994Z</time>
      </trkpt>
      <trkpt lat="43.03427" lon="1.14873">
        <ele>483.8</ele>
        <time>2024-04-21T13:00:05.994Z</time>
      </trkpt>
      <trkpt lat="43.0343" lon="1.14872">
        <ele>484</ele>
        <time>2024-04-21T13:00:06.994Z</time>
      </trkpt>
      <trkpt lat="43.03433" lon="1.14871">
        <ele>484</ele>
        <time>2024-04-21T13:00:07.994Z</time>
      </trkpt>
      <trkpt lat="43.03435" lon="1.1487">
        <ele>484</ele>
        <time>2024-04-21T13:00:08.994Z</time>
      </trkpt>
      <trkpt lat="43.03438" lon="1.14868">
        <ele>484.4</ele>
        <time>2024-04-21T13:00:09.994Z</time>
      </trkpt>
      <trkpt lat="43.0344" lon="1.14866">
        <ele>484.6</ele>
        <time>2024-04-21T13:00:10.994Z</time>
      </trkpt>
      <trkpt lat="43.03441" lon="1.14863">
        <ele>484.6</ele>
        <time>2024-04-21T13:00:11.994Z</time>
      </trkpt>
      <trkpt lat="43.03443" lon="1.14861">
        <ele>485</ele>
        <time>2024-04-21T13:00:12.994Z</time>
      </trkpt>
      <trkpt lat="43.03444" lon="1.14858">
        <ele>485.4</ele>
        <time>2024-04-21T13:00:13.994Z</time>
      </trkpt>
      <trkpt lat="43.03445" lon="1.14856">
        <ele>485.8</ele>
        <time>2024-04-21T13:00:14.994Z</time>
      </trkpt>
      <trkpt lat="43.03445" lon="1.14853">
        <ele>485.8</ele>
        <time>2024-04-21T13:00:15.994Z</time>
      </trkpt>
      <trkpt lat="43.03446" lon="1.1485">
        <ele>486.2</ele>
        <time>2024-04-21T13:00:16.994Z</time>
      </trkpt>
      <trkpt lat="43.03447" lon="1.14847">
        <ele>486.6</ele>
        <time>2024-04-21T13:00:17.994Z</time>
      </trkpt>
      <trkpt lat="43.03449" lon="1.14845">
        <ele>486.8</ele>
        <time>2024-04-21T13:00:18.994Z</time>
      </trkpt>
      <trkpt lat="43.0345" lon="1.14843">
        <ele>487.4</ele>
        <time>2024-04-21T13:00:19.994Z</time>
      </trkpt>
      <trkpt lat="43.03451" lon="1.14841">
        <ele>487.8</ele>
        <time>2024-04-21T13:00:20.994Z</time>
      </trkpt>
      <trkpt lat="43.03452" lon="1.14839">
        <ele>488.2</ele>
        <time>2024-04-21T13:00:21.994Z</time>
      </trkpt>
      <trkpt lat="43.03454" lon="1.14836">
        <ele>488.8</ele>
        <time>2024-04-21T13:00:22.994Z</time>
      </trkpt>
      <trkpt lat="43.03455" lon="1.14834">
        <ele>489</ele>
        <time>2024-04-21T13:00:23.994Z</time>
      </trkpt>
      <trkpt lat="43.03456" lon="1.14832">
        <ele>489.4</ele>
        <time>2024-04-21T13:00:24.994Z</time>
      </trkpt>
      <trkpt lat="43.03458" lon="1.1483">
        <ele>489.8</ele>
        <time>2024-04-21T13:00:25.994Z</time>
      </trkpt>
      <trkpt lat="43.0346" lon="1.14828">
        <ele>490.2</ele>
        <time>2024-04-21T13:00:26.994Z</time>
      </trkpt>
      <trkpt lat="43.03462" lon="1.14827">
        <ele>490.6</ele>
        <time>2024-04-21T13:00:27.994Z</time>
      </trkpt>
      <trkpt lat="43.03464" lon="1.14825">
        <ele>491</ele>
        <time>2024-04-21T13:00:28.994Z</time>
      </trkpt>
      <trkpt lat="43.03465" lon="1.14823">
        <ele>491.2</ele>
        <time>2024-04-21T13:00:29.994Z</time>
      </trkpt>
      <trkpt lat="43.03466" lon="1.14822">
        <ele>491.6</ele>
        <time>2024-04-21T13:00:30.994Z</time>
      </trkpt>
      <trkpt lat="43.03468" lon="1.1482">
        <ele>492</ele>
        <time>2024-04-21T13:00:31.994Z</time>
      </trkpt>
      <trkpt lat="43.0347" lon="1.14818">
        <ele>492.4</ele>
        <time>2024-04-21T13:00:32.994Z</time>
      </trkpt>
      <trkpt lat="43.03472" lon="1.14816">
        <ele>492.6</ele>
        <time>2024-04-21T13:00:33.994Z</time>
      </trkpt>
      <trkpt lat="43.03473" lon="1.14814">
        <ele>493</ele>
        <time>2024-04-21T13:00:34.994Z</time>
      </trkpt>
      <trkpt lat="43.03475" lon="1.14813">
        <ele>493.2</ele>
        <time>2024-04-21T13:00:35.994Z</time>
      </trkpt>
      <trkpt lat="43.03477" lon="1.14811">
        <ele>493.6</ele>
        <time>2024-04-21T13:00:36.994Z</time>
      </trkpt>
      <trkpt lat="43.03479" lon="1.1481">
        <ele>494.2</ele>
        <time>2024-04-21T13:00:37.994Z</time>
      </trkpt>
      <trkpt lat="43.03481" lon="1.14809">
        <ele>494.6</ele>
        <time>2024-04-21T13:00:38.994Z</time>
      </trkpt>
      <trkpt lat="43.03483" lon="1.14808">
        <ele>495</ele>
        <time>2024-04-21T13:00:39.994Z</time>
      </trkpt>
      <trkpt lat="43.03485" lon="1.14806">
        <ele>495.2</ele>
        <time>2024-04-21T13:00:40.994Z</time>
      </trkpt>
      <trkpt lat="43.03487" lon="1.14804">
        <ele>495.6</ele>
        <time>2024-04-21T13:00:41.994Z</time>
      </trkpt>
      <trkpt lat="43.03488" lon="1.14803">
        <ele>496</ele>
        <time>2024-04-21T13:00:42.994Z</time>
      </trkpt>
      <trkpt lat="43.0349" lon="1.14801">
        <ele>496.4</ele>
        <time>2024-04-21T13:00:43.994Z</time>
      </trkpt>
      <trkpt lat="43.03492" lon="1.148">
        <ele>496.6</ele>
        <time>2024-04-21T13:00:44.994Z</time>
      </trkpt>
      <trkpt lat="43.03494" lon="1.14798">
        <ele>497</ele>
        <time>2024-04-21T13:00:45.994Z</time>
      </trkpt>
      <trkpt lat="43.03496" lon="1.14796">
        <ele>497.4</ele>
        <time>2024-04-21T13:00:46.994Z</time>
      </trkpt>
      <trkpt lat="43.03498" lon="1.14794">
        <ele>497.6</ele>
        <time>2024-04-21T13:00:47.994Z</time>
      </trkpt>
      <trkpt lat="43.035" lon="1.14792">
        <ele>498</ele>
        <time>2024-04-21T13:00:48.994Z</time>
      </trkpt>
      <trkpt lat="43.03502" lon="1.1479">
        <ele>498</ele>
        <time>2024-04-21T13:00:49.994Z</time>
      </trkpt>
      <trkpt lat="43.03503" lon="1.14789">
        <ele>498.2</ele>
        <time>2024-04-21T13:00:50.994Z</time>
      </trkpt>
      <trkpt lat="43.03505" lon="1.14787">
        <ele>498.2</ele>
        <time>2024-04-21T13:00:51.994Z</time>
      </trkpt>
      <trkpt lat="43.03507" lon="1.14787">
        <ele>498.6</ele>
        <time>2024-04-21T13:00:52.994Z</time>
      </trkpt>
      <trkpt lat="43.03509" lon="1.14785">
        <ele>499</ele>
        <time>2024-04-21T13:00:53.994Z</time>
      </trkpt>
      <trkpt lat="43.03511" lon="1.14784">
        <ele>499.4</ele>
        <time>2024-04-21T13:00:54.994Z</time>
      </trkpt>
      <trkpt lat="43.03513" lon="1.14782">
        <ele>499.6</ele>
        <time>2024-04-21T13:00:55.994Z</time>
      </trkpt>
      <trkpt lat="43.03514" lon="1.1478">
        <ele>500</ele>
        <time>2024-04-21T13:00:56.994Z</time>
      </trkpt>
      <trkpt lat="43.03515" lon="1.14779">
        <ele>500.2</ele>
        <time>2024-04-21T13:00:57.994Z</time>
      </trkpt>
      <trkpt lat="43.03516" lon="1.14777">
        <ele>500.4</ele>
        <time>2024-04-21T13:00:58.994Z</time>
      </trkpt>
      <trkpt lat="43.03517" lon="1.14775">
        <ele>500.8</ele>
        <time>2024-04-21T13:00:59.994Z</time>
      </trkpt>
      <trkpt lat="43.03519" lon="1.14773">
        <ele>500.8</ele>
        <time>2024-04-21T13:01:00.994Z</time>
      </trkpt>
      <trkpt lat="43.03521" lon="1.14771">
        <ele>501.2</ele>
        <time>2024-04-21T13:01:01.994Z</time>
      </trkpt>
      <trkpt lat="43.03523" lon="1.14768">
        <ele>501.6</ele>
        <time>2024-04-21T13:01:02.994Z</time>
      </trkpt>
      <trkpt lat="43.03524" lon="1.14766">
        <ele>501.6</ele>
        <time>2024-04-21T13:01:03.994Z</time>
      </trkpt>
      <trkpt lat="43.03526" lon="1.14762">
        <ele>502</ele>
        <time>2024-04-21T13:01:04.994Z</time>
      </trkpt>
      <trkpt lat="43.03526" lon="1.14758">
        <ele>502</ele>
        <time>2024-04-21T13:01:05.994Z</time>
      </trkpt>
      <trkpt lat="43.03525" lon="1.14754">
        <ele>502.2</ele>
        <time>2024-04-21T13:01:06.994Z</time>
      </trkpt>
      <trkpt lat="43.03524" lon="1.14751">
        <ele>502.2</ele>
        <time>2024-04-21T13:01:07.994Z</time>
      </trkpt>
      <trkpt lat="43.03522" lon="1.14748">
        <ele>502.2</ele>
        <time>2024-04-21T13:01:08.994Z</time>
      </trkpt>
      <trkpt lat="43.03519" lon="1.14746">
        <ele>502.2</ele>
        <time>2024-04-21T13:01:09.994Z</time>
      </trkpt>
      <trkpt lat="43.03516" lon="1.14745">
        <ele>502.2</ele>
        <time>2024-04-21T13:01:10.994Z</time>
      </trkpt>
      <trkpt lat="43.03514" lon="1.14744">
        <ele>502.2</ele>
        <time>2024-04-21T13:01:11.994Z</time>
      </trkpt>
      <trkpt lat="43.03511" lon="1.14744">
        <ele>502.6</ele>
        <time>2024-04-21T13:01:12.994Z</time>
      </trkpt>
      <trkpt lat="43.03507" lon="1.14744">
        <ele>503</ele>
        <time>2024-04-21T13:01:13.994Z</time>
      </trkpt>
      <trkpt lat="43.03505" lon="1.14743">
        <ele>503</ele>
        <time>2024-04-21T13:01:14.994Z</time>
      </trkpt>
      <trkpt lat="43.03503" lon="1.14742">
        <ele>503</ele>
        <time>2024-04-21T13:01:15.994Z</time>
      </trkpt>
      <trkpt lat="43.03501" lon="1.1474">
        <ele>503.4</ele>
        <time>2024-04-21T13:01:16.994Z</time>
      </trkpt>
      <trkpt lat="43.03499" lon="1.14739">
        <ele>503.6</ele>
        <time>2024-04-21T13:01:17.994Z</time>
      </trkpt>
      <trkpt lat="43.03497" lon="1.14737">
        <ele>504</ele>
        <time>2024-04-21T13:01:18.994Z</time>
      </trkpt>
      <trkpt lat="43.03495" lon="1.14736">
        <ele>504.2</ele>
        <time>2024-04-21T13:01:19.994Z</time>
      </trkpt>
      <trkpt lat="43.03494" lon="1.14735">
        <ele>504.6</ele>
        <time>2024-04-21T13:01:20.994Z</time>
      </trkpt>
      <trkpt lat="43.03492" lon="1.14734">
        <ele>504.8</ele>
        <time>2024-04-21T13:01:21.994Z</time>
      </trkpt>
      <trkpt lat="43.03491" lon="1.14734">
        <ele>505</ele>
        <time>2024-04-21T13:01:22.994Z</time>
      </trkpt>
      <trkpt lat="43.03489" lon="1.14733">
        <ele>505.4</ele>
        <time>2024-04-21T13:01:23.994Z</time>
      </trkpt>
      <trkpt lat="43.03487" lon="1.14731">
        <ele>505.6</ele>
        <time>2024-04-21T13:01:24.994Z</time>
      </trkpt>
      <trkpt lat="43.03485" lon="1.14729">
        <ele>506</ele>
        <time>2024-04-21T13:01:25.994Z</time>
      </trkpt>
      <trkpt lat="43.03484" lon="1.14726">
        <ele>506.4</ele>
        <time>2024-04-21T13:01:26.994Z</time>
      </trkpt>
      <trkpt lat="43.03483" lon="1.14724">
        <ele>506.8</ele>
        <time>2024-04-21T13:01:27.994Z</time>
      </trkpt>
      <trkpt lat="43.03483" lon="1.14721">
        <ele>507.2</ele>
        <time>2024-04-21T13:01:28.994Z</time>
      </trkpt>
      <trkpt lat="43.03484" lon="1.14718">
        <ele>507.4</ele>
        <time>2024-04-21T13:01:29.994Z</time>
      </trkpt>
      <trkpt lat="43.03486" lon="1.14717">
        <ele>507.6</ele>
        <time>2024-04-21T13:01:30.994Z</time>
      </trkpt>
      <trkpt lat="43.03489" lon="1.14717">
        <ele>507.8</ele>
        <time>2024-04-21T13:01:31.994Z</time>
      </trkpt>
      <trkpt lat="43.03492" lon="1.14718">
        <ele>508.2</ele>
        <time>2024-04-21T13:01:32.994Z</time>
      </trkpt>
      <trkpt lat="43.03494" lon="1.14719">
        <ele>508.2</ele>
        <time>2024-04-21T13:01:33.994Z</time>
      </trkpt>
      <trkpt lat="43.03496" lon="1.1472">
        <ele>508.2</ele>
        <time>2024-04-21T13:01:34.994Z</time>
      </trkpt>
      <trkpt lat="43.03498" lon="1.14721">
        <ele>508.6</ele>
        <time>2024-04-21T13:01:35.994Z</time>
      </trkpt>
      <trkpt lat="43.03501" lon="1.14722">
        <ele>509</ele>
        <time>2024-04-21T13:01:36.994Z</time>
      </trkpt>
      <trkpt lat="43.03503" lon="1.14722">
        <ele>509.4</ele>
        <time>2024-04-21T13:01:37.994Z</time>
      </trkpt>
      <trkpt lat="43.03505" lon="1.14722">
        <ele>509.4</ele>
        <time>2024-04-21T13:01:38.994Z</time>
      </trkpt>
      <trkpt lat="43.03507" lon="1.14722">
        <ele>509.6</ele>
        <time>2024-04-21T13:01:39.994Z</time>
      </trkpt>
      <trkpt lat="43.0351" lon="1.14721">
        <ele>510</ele>
        <time>2024-04-21T13:01:40.994Z</time>
      </trkpt>
      <trkpt lat="43.03511" lon="1.14719">
        <ele>510.2</ele>
        <time>2024-04-21T13:01:41.994Z</time>
      </trkpt>
      <trkpt lat="43.03513" lon="1.14717">
        <ele>510.6</ele>
        <time>2024-04-21T13:01:42.994Z</time>
      </trkpt>
      <trkpt lat="43.03514" lon="1.14715">
        <ele>510.8</ele>
        <time>2024-04-21T13:01:43.994Z</time>
      </trkpt>
      <trkpt lat="43.03515" lon="1.14712">
        <ele>511.2</ele>
        <time>2024-04-21T13:01:44.994Z</time>
      </trkpt>
      <trkpt lat="43.03516" lon="1.14709">
        <ele>511.6</ele>
        <time>2024-04-21T13:01:45.994Z</time>
      </trkpt>
      <trkpt lat="43.03517" lon="1.14707">
        <ele>511.8</ele>
        <time>2024-04-21T13:01:46.994Z</time>
      </trkpt>
      <trkpt lat="43.03518" lon="1.14704">
        <ele>512.2</ele>
        <time>2024-04-21T13:01:47.994Z</time>
      </trkpt>
      <trkpt lat="43.03519" lon="1.14701">
        <ele>512.4</ele>
        <time>2024-04-21T13:01:48.994Z</time>
      </trkpt>
      <trkpt lat="43.0352" lon="1.14699">
        <ele>512.8</ele>
        <time>2024-04-21T13:01:49.994Z</time>
      </trkpt>
      <trkpt lat="43.0352" lon="1.14696">
        <ele>512.8</ele>
        <time>2024-04-21T13:01:50.994Z</time>
      </trkpt>
      <trkpt lat="43.03521" lon="1.14694">
        <ele>513.2</ele>
        <time>2024-04-21T13:01:51.994Z</time>
      </trkpt>
      <trkpt lat="43.03521" lon="1.14692">
        <ele>513.4</ele>
        <time>2024-04-21T13:01:52.994Z</time>
      </trkpt>
      <trkpt lat="43.03522" lon="1.1469">
        <ele>513.4</ele>
        <time>2024-04-21T13:01:53.994Z</time>
      </trkpt>
      <trkpt lat="43.03523" lon="1.14687">
        <ele>514</ele>
        <time>2024-04-21T13:01:54.994Z</time>
      </trkpt>
      <trkpt lat="43.03524" lon="1.14683">
        <ele>514</ele>
        <time>2024-04-21T13:01:55.994Z</time>
      </trkpt>
      <trkpt lat="43.03525" lon="1.1468">
        <ele>514.4</ele>
        <time>2024-04-21T13:01:56.994Z</time>
      </trkpt>
      <trkpt lat="43.03526" lon="1.14676">
        <ele>514.4</ele>
        <time>2024-04-21T13:01:57.994Z</time>
      </trkpt>
      <trkpt lat="43.03527" lon="1.14673">
        <ele>514.6</ele>
        <time>2024-04-21T13:01:58.994Z</time>
      </trkpt>
      <trkpt lat="43.03528" lon="1.1467">
        <ele>514.8</ele>
        <time>2024-04-21T13:01:59.994Z</time>
      </trkpt>
      <trkpt lat="43.03529" lon="1.14667">
        <ele>515</ele>
        <time>2024-04-21T13:02:00.994Z</time>
      </trkpt>
      <trkpt lat="43.03529" lon="1.14665">
        <ele>515.4</ele>
        <time>2024-04-21T13:02:01.994Z</time>
      </trkpt>
      <trkpt lat="43.0353" lon="1.14662">
        <ele>515.6</ele>
        <time>2024-04-21T13:02:02.994Z</time>
      </trkpt>
      <trkpt lat="43.03531" lon="1.14659">
        <ele>516</ele>
        <time>2024-04-21T13:02:03.994Z</time>
      </trkpt>
      <trkpt lat="43.03532" lon="1.14657">
        <ele>516.4</ele>
        <time>2024-04-21T13:02:04.994Z</time>
      </trkpt>
      <trkpt lat="43.03533" lon="1.14654">
        <ele>516.4</ele>
        <time>2024-04-21T13:02:05.994Z</time>
      </trkpt>
      <trkpt lat="43.03533" lon="1.14651">
        <ele>516.8</ele>
        <time>2024-04-21T13:02:06.994Z</time>
      </trkpt>
      <trkpt lat="43.03534" lon="1.14648">
        <ele>517.2</ele>
        <time>2024-04-21T13:02:07.994Z</time>
      </trkpt>
      <trkpt lat="43.03535" lon="1.14645">
        <ele>517.6</ele>
        <time>2024-04-21T13:02:08.994Z</time>
      </trkpt>
      <trkpt lat="43.03535" lon="1.14642">
        <ele>517.6</ele>
        <time>2024-04-21T13:02:09.994Z</time>
      </trkpt>
      <trkpt lat="43.03535" lon="1.14639">
        <ele>518</ele>
        <time>2024-04-21T13:02:10.994Z</time>
      </trkpt>
      <trkpt lat="43.03536" lon="1.14635">
        <ele>518.2</ele>
        <time>2024-04-21T13:02:11.994Z</time>
      </trkpt>
      <trkpt lat="43.03536" lon="1.14632">
        <ele>518.2</ele>
        <time>2024-04-21T13:02:12.994Z</time>
      </trkpt>
      <trkpt lat="43.03537" lon="1.14629">
        <ele>518.6</ele>
        <time>2024-04-21T13:02:13.994Z</time>
      </trkpt>
      <trkpt lat="43.03537" lon="1.14626">
        <ele>518.8</ele>
        <time>2024-04-21T13:02:14.994Z</time>
      </trkpt>
      <trkpt lat="43.03537" lon="1.14623">
        <ele>519</ele>
        <time>2024-04-21T13:02:15.994Z</time>
      </trkpt>
      <trkpt lat="43.03537" lon="1.14619">
        <ele>519.2</ele>
        <time>2024-04-21T13:02:16.994Z</time>
      </trkpt>
      <trkpt lat="43.03537" lon="1.14616">
        <ele>519.6</ele>
        <time>2024-04-21T13:02:17.994Z</time>
      </trkpt>
      <trkpt lat="43.03537" lon="1.14614">
        <ele>519.6</ele>
        <time>2024-04-21T13:02:18.994Z</time>
      </trkpt>
      <trkpt lat="43.03537" lon="1.14611">
        <ele>519.8</ele>
        <time>2024-04-21T13:02:19.994Z</time>
      </trkpt>
      <trkpt lat="43.03537" lon="1.14608">
        <ele>519.8</ele>
        <time>2024-04-21T13:02:20.994Z</time>
      </trkpt>
      <trkpt lat="43.03537" lon="1.14605">
        <ele>520.2</ele>
        <time>2024-04-21T13:02:21.994Z</time>
      </trkpt>
      <trkpt lat="43.03537" lon="1.14602">
        <ele>520.4</ele>
        <time>2024-04-21T13:02:22.994Z</time>
      </trkpt>
      <trkpt lat="43.03537" lon="1.146">
        <ele>520.4</ele>
        <time>2024-04-21T13:02:23.994Z</time>
      </trkpt>
      <trkpt lat="43.03537" lon="1.14597">
        <ele>520.8</ele>
        <time>2024-04-21T13:02:24.994Z</time>
      </trkpt>
      <trkpt lat="43.03537" lon="1.14595">
        <ele>521</ele>
        <time>2024-04-21T13:02:25.994Z</time>
      </trkpt>
      <trkpt lat="43.03536" lon="1.14592">
        <ele>521.2</ele>
        <time>2024-04-21T13:02:26.994Z</time>
      </trkpt>
      <trkpt lat="43.03536" lon="1.14592">
        <ele>521.6</ele>
        <time>2024-04-21T13:02:27.994Z</time>
      </trkpt>
      <trkpt lat="43.03536" lon="1.14589">
        <ele>521.6</ele>
        <time>2024-04-21T13:02:28.994Z</time>
      </trkpt>
      <trkpt lat="43.03535" lon="1.14586">
        <ele>522</ele>
        <time>2024-04-21T13:02:29.994Z</time>
      </trkpt>
      <trkpt lat="43.03535" lon="1.14582">
        <ele>522.2</ele>
        <time>2024-04-21T13:02:30.994Z</time>
      </trkpt>
      <trkpt lat="43.03534" lon="1.14579">
        <ele>522.2</ele>
        <time>2024-04-21T13:02:31.994Z</time>
      </trkpt>
      <trkpt lat="43.03534" lon="1.14575">
        <ele>522.2</ele>
        <time>2024-04-21T13:02:32.994Z</time>
      </trkpt>
      <trkpt lat="43.03534" lon="1.14572">
        <ele>522.2</ele>
        <time>2024-04-21T13:02:33.994Z</time>
      </trkpt>
      <trkpt lat="43.03533" lon="1.14569">
        <ele>522.4</ele>
        <time>2024-04-21T13:02:34.994Z</time>
      </trkpt>
      <trkpt lat="43.03533" lon="1.14565">
        <ele>522.6</ele>
        <time>2024-04-21T13:02:35.994Z</time>
      </trkpt>
      <trkpt lat="43.03532" lon="1.14562">
        <ele>522.8</ele>
        <time>2024-04-21T13:02:36.994Z</time>
      </trkpt>
      <trkpt lat="43.03531" lon="1.14558">
        <ele>522.8</ele>
        <time>2024-04-21T13:02:37.994Z</time>
      </trkpt>
      <trkpt lat="43.03531" lon="1.14555">
        <ele>523.2</ele>
        <time>2024-04-21T13:02:38.994Z</time>
      </trkpt>
      <trkpt lat="43.0353" lon="1.14553">
        <ele>523.4</ele>
        <time>2024-04-21T13:02:39.994Z</time>
      </trkpt>
      <trkpt lat="43.03529" lon="1.1455">
        <ele>523.8</ele>
        <time>2024-04-21T13:02:40.994Z</time>
      </trkpt>
      <trkpt lat="43.03528" lon="1.14547">
        <ele>524</ele>
        <time>2024-04-21T13:02:41.994Z</time>
      </trkpt>
      <trkpt lat="43.03528" lon="1.14544">
        <ele>524.4</ele>
        <time>2024-04-21T13:02:42.994Z</time>
      </trkpt>
      <trkpt lat="43.03527" lon="1.14541">
        <ele>524.4</ele>
        <time>2024-04-21T13:02:43.994Z</time>
      </trkpt>
      <trkpt lat="43.03526" lon="1.14538">
        <ele>524.8</ele>
        <time>2024-04-21T13:02:44.994Z</time>
      </trkpt>
      <trkpt lat="43.03526" lon="1.14535">
        <ele>525</ele>
        <time>2024-04-21T13:02:45.994Z</time>
      </trkpt>
      <trkpt lat="43.03525" lon="1.14531">
        <ele>525</ele>
        <time>2024-04-21T13:02:46.994Z</time>
      </trkpt>
      <trkpt lat="43.03525" lon="1.14529">
        <ele>525.4</ele>
        <time>2024-04-21T13:02:47.994Z</time>
      </trkpt>
      <trkpt lat="43.03524" lon="1.14526">
        <ele>525.4</ele>
        <time>2024-04-21T13:02:48.994Z</time>
      </trkpt>
      <trkpt lat="43.03523" lon="1.14523">
        <ele>525.4</ele>
        <time>2024-04-21T13:02:49.994Z</time>
      </trkpt>
      <trkpt lat="43.03523" lon="1.1452">
        <ele>525.8</ele>
        <time>2024-04-21T13:02:50.994Z</time>
      </trkpt>
      <trkpt lat="43.03522" lon="1.14517">
        <ele>526</ele>
        <time>2024-04-21T13:02:51.994Z</time>
      </trkpt>
      <trkpt lat="43.03521" lon="1.14511">
        <ele>526</ele>
        <time>2024-04-21T13:02:52.994Z</time>
      </trkpt>
      <trkpt lat="43.03521" lon="1.14508">
        <ele>526.4</ele>
        <time>2024-04-21T13:02:53.994Z</time>
      </trkpt>
      <trkpt lat="43.0352" lon="1.14505">
        <ele>526.4</ele>
        <time>2024-04-21T13:02:54.994Z</time>
      </trkpt>
      <trkpt lat="43.0352" lon="1.14502">
        <ele>526.8</ele>
        <time>2024-04-21T13:02:55.994Z</time>
      </trkpt>
      <trkpt lat="43.0352" lon="1.14499">
        <ele>526.8</ele>
        <time>2024-04-21T13:02:56.994Z</time>
      </trkpt>
      <trkpt lat="43.03519" lon="1.14496">
        <ele>527</ele>
        <time>2024-04-21T13:02:57.994Z</time>
      </trkpt>
      <trkpt lat="43.03518" lon="1.14493">
        <ele>527</ele>
        <time>2024-04-21T13:02:58.994Z</time>
      </trkpt>
      <trkpt lat="43.03518" lon="1.1449">
        <ele>527.2</ele>
        <time>2024-04-21T13:02:59.994Z</time>
      </trkpt>
      <trkpt lat="43.03517" lon="1.14487">
        <ele>527.6</ele>
        <time>2024-04-21T13:03:00.994Z</time>
      </trkpt>
      <trkpt lat="43.03517" lon="1.14484">
        <ele>527.6</ele>
        <time>2024-04-21T13:03:01.994Z</time>
      </trkpt>
      <trkpt lat="43.03517" lon="1.14481">
        <ele>527.6</ele>
        <time>2024-04-21T13:03:02.994Z</time>
      </trkpt>
      <trkpt lat="43.03516" lon="1.14478">
        <ele>527.6</ele>
        <time>2024-04-21T13:03:03.994Z</time>
      </trkpt>
      <trkpt lat="43.03516" lon="1.14475">
        <ele>528.2</ele>
        <time>2024-04-21T13:03:04.994Z</time>
      </trkpt>
      <trkpt lat="43.03516" lon="1.14472">
        <ele>528.4</ele>
        <time>2024-04-21T13:03:05.994Z</time>
      </trkpt>
      <trkpt lat="43.03516" lon="1.14469">
        <ele>528.6</ele>
        <time>2024-04-21T13:03:06.994Z</time>
      </trkpt>
      <trkpt lat="43.03517" lon="1.14467">
        <ele>528.6</ele>
        <time>2024-04-21T13:03:07.994Z</time>
      </trkpt>
      <trkpt lat="43.03518" lon="1.14466">
        <ele>529.2</ele>
        <time>2024-04-21T13:03:08.994Z</time>
      </trkpt>
      <trkpt lat="43.03519" lon="1.14465">
        <ele>529.4</ele>
        <time>2024-04-21T13:03:09.994Z</time>
      </trkpt>
      <trkpt lat="43.03521" lon="1.14464">
        <ele>529.8</ele>
        <time>2024-04-21T13:03:10.994Z</time>
      </trkpt>
      <trkpt lat="43.03523" lon="1.14464">
        <ele>530.2</ele>
        <time>2024-04-21T13:03:11.994Z</time>
      </trkpt>
      <trkpt lat="43.03525" lon="1.14464">
        <ele>530.6</ele>
        <time>2024-04-21T13:03:12.994Z</time>
      </trkpt>
      <trkpt lat="43.03527" lon="1.14465">
        <ele>530.8</ele>
        <time>2024-04-21T13:03:13.994Z</time>
      </trkpt>
      <trkpt lat="43.03529" lon="1.14466">
        <ele>531.4</ele>
        <time>2024-04-21T13:03:14.994Z</time>
      </trkpt>
      <trkpt lat="43.0353" lon="1.14467">
        <ele>531.8</ele>
        <time>2024-04-21T13:03:15.994Z</time>
      </trkpt>
      <trkpt lat="43.03532" lon="1.14468">
        <ele>532</ele>
        <time>2024-04-21T13:03:16.994Z</time>
      </trkpt>
      <trkpt lat="43.03533" lon="1.14471">
        <ele>532</ele>
        <time>2024-04-21T13:03:17.994Z</time>
      </trkpt>
      <trkpt lat="43.03535" lon="1.14474">
        <ele>532.6</ele>
        <time>2024-04-21T13:03:18.994Z</time>
      </trkpt>
      <trkpt lat="43.03536" lon="1.14477">
        <ele>532.6</ele>
        <time>2024-04-21T13:03:19.994Z</time>
      </trkpt>
      <trkpt lat="43.03537" lon="1.14479">
        <ele>532.8</ele>
        <time>2024-04-21T13:03:20.994Z</time>
      </trkpt>
      <trkpt lat="43.03538" lon="1.14482">
        <ele>533.2</ele>
        <time>2024-04-21T13:03:21.994Z</time>
      </trkpt>
      <trkpt lat="43.0354" lon="1.14485">
        <ele>533.4</ele>
        <time>2024-04-21T13:03:22.994Z</time>
      </trkpt>
      <trkpt lat="43.03541" lon="1.14487">
        <ele>533.4</ele>
        <time>2024-04-21T13:03:23.994Z</time>
      </trkpt>
      <trkpt lat="43.03543" lon="1.14489">
        <ele>533.8</ele>
        <time>2024-04-21T13:03:24.994Z</time>
      </trkpt>
      <trkpt lat="43.03544" lon="1.14492">
        <ele>534</ele>
        <time>2024-04-21T13:03:25.994Z</time>
      </trkpt>
      <trkpt lat="43.03545" lon="1.14494">
        <ele>534.2</ele>
        <time>2024-04-21T13:03:26.994Z</time>
      </trkpt>
      <trkpt lat="43.03547" lon="1.14497">
        <ele>534.4</ele>
        <time>2024-04-21T13:03:27.994Z</time>
      </trkpt>
      <trkpt lat="43.03548" lon="1.14499">
        <ele>534.6</ele>
        <time>2024-04-21T13:03:28.994Z</time>
      </trkpt>
      <trkpt lat="43.03549" lon="1.145">
        <ele>534.6</ele>
        <time>2024-04-21T13:03:29.994Z</time>
      </trkpt>
      <trkpt lat="43.03551" lon="1.14503">
        <ele>535</ele>
        <time>2024-04-21T13:03:30.994Z</time>
      </trkpt>
      <trkpt lat="43.03552" lon="1.14505">
        <ele>535</ele>
        <time>2024-04-21T13:03:31.994Z</time>
      </trkpt>
      <trkpt lat="43.03553" lon="1.14507">
        <ele>535</ele>
        <time>2024-04-21T13:03:32.994Z</time>
      </trkpt>
      <trkpt lat="43.03554" lon="1.1451">
        <ele>535.4</ele>
        <time>2024-04-21T13:03:33.994Z</time>
      </trkpt>
      <trkpt lat="43.03555" lon="1.14512">
        <ele>535.4</ele>
        <time>2024-04-21T13:03:34.994Z</time>
      </trkpt>
      <trkpt lat="43.03557" lon="1.14514">
        <ele>535.8</ele>
        <time>2024-04-21T13:03:35.994Z</time>
      </trkpt>
      <trkpt lat="43.03558" lon="1.14517">
        <ele>535.8</ele>
        <time>2024-04-21T13:03:36.994Z</time>
      </trkpt>
      <trkpt lat="43.03559" lon="1.14519">
        <ele>536.4</ele>
        <time>2024-04-21T13:03:37.994Z</time>
      </trkpt>
      <trkpt lat="43.03561" lon="1.14521">
        <ele>536.6</ele>
        <time>2024-04-21T13:03:38.994Z</time>
      </trkpt>
      <trkpt lat="43.03562" lon="1.14523">
        <ele>536.8</ele>
        <time>2024-04-21T13:03:39.994Z</time>
      </trkpt>
      <trkpt lat="43.03564" lon="1.14526">
        <ele>536.8</ele>
        <time>2024-04-21T13:03:40.994Z</time>
      </trkpt>
      <trkpt lat="43.03565" lon="1.14528">
        <ele>537</ele>
        <time>2024-04-21T13:03:41.994Z</time>
      </trkpt>
      <trkpt lat="43.03567" lon="1.1453">
        <ele>537.4</ele>
        <time>2024-04-21T13:03:42.994Z</time>
      </trkpt>
      <trkpt lat="43.03568" lon="1.14532">
        <ele>537.4</ele>
        <time>2024-04-21T13:03:43.994Z</time>
      </trkpt>
      <trkpt lat="43.0357" lon="1.14534">
        <ele>537.6</ele>
        <time>2024-04-21T13:03:44.994Z</time>
      </trkpt>
      <trkpt lat="43.03571" lon="1.14537">
        <ele>537.6</ele>
        <time>2024-04-21T13:03:45.994Z</time>
      </trkpt>
      <trkpt lat="43.03573" lon="1.14539">
        <ele>538</ele>
        <time>2024-04-21T13:03:46.994Z</time>
      </trkpt>
      <trkpt lat="43.03574" lon="1.14542">
        <ele>538</ele>
        <time>2024-04-21T13:03:47.994Z</time>
      </trkpt>
      <trkpt lat="43.03576" lon="1.14544">
        <ele>538.2</ele>
        <time>2024-04-21T13:03:48.994Z</time>
      </trkpt>
      <trkpt lat="43.03577" lon="1.14547">
        <ele>538.4</ele>
        <time>2024-04-21T13:03:49.994Z</time>
      </trkpt>
      <trkpt lat="43.03579" lon="1.14549">
        <ele>538.6</ele>
        <time>2024-04-21T13:03:50.994Z</time>
      </trkpt>
      <trkpt lat="43.03581" lon="1.14551">
        <ele>539</ele>
        <time>2024-04-21T13:03:51.994Z</time>
      </trkpt>
      <trkpt lat="43.03583" lon="1.14553">
        <ele>539.4</ele>
        <time>2024-04-21T13:03:52.994Z</time>
      </trkpt>
      <trkpt lat="43.03584" lon="1.14554">
        <ele>539.4</ele>
        <time>2024-04-21T13:03:53.994Z</time>
      </trkpt>
      <trkpt lat="43.03586" lon="1.14556">
        <ele>539.8</ele>
        <time>2024-04-21T13:03:54.994Z</time>
      </trkpt>
      <trkpt lat="43.03588" lon="1.14557">
        <ele>539.8</ele>
        <time>2024-04-21T13:03:55.994Z</time>
      </trkpt>
      <trkpt lat="43.0359" lon="1.14558">
        <ele>540.2</ele>
        <time>2024-04-21T13:03:56.994Z</time>
      </trkpt>
      <trkpt lat="43.03592" lon="1.14559">
        <ele>540.4</ele>
        <time>2024-04-21T13:03:57.994Z</time>
      </trkpt>
      <trkpt lat="43.03594" lon="1.14561">
        <ele>540.8</ele>
        <time>2024-04-21T13:03:58.994Z</time>
      </trkpt>
      <trkpt lat="43.03596" lon="1.14563">
        <ele>540.8</ele>
        <time>2024-04-21T13:03:59.994Z</time>
      </trkpt>
      <trkpt lat="43.03598" lon="1.14564">
        <ele>541.4</ele>
        <time>2024-04-21T13:04:00.994Z</time>
      </trkpt>
      <trkpt lat="43.036" lon="1.14565">
        <ele>541.8</ele>
        <time>2024-04-21T13:04:01.994Z</time>
      </trkpt>
      <trkpt lat="43.03602" lon="1.14565">
        <ele>542</ele>
        <time>2024-04-21T13:04:02.994Z</time>
      </trkpt>
      <trkpt lat="43.03604" lon="1.14565">
        <ele>542.2</ele>
        <time>2024-04-21T13:04:03.994Z</time>
      </trkpt>
      <trkpt lat="43.03605" lon="1.14566">
        <ele>542.4</ele>
        <time>2024-04-21T13:04:04.994Z</time>
      </trkpt>
      <trkpt lat="43.03606" lon="1.14567">
        <ele>542.4</ele>
        <time>2024-04-21T13:04:05.994Z</time>
      </trkpt>
      <trkpt lat="43.03608" lon="1.14567">
        <ele>543</ele>
        <time>2024-04-21T13:04:06.994Z</time>
      </trkpt>
      <trkpt lat="43.03611" lon="1.14568">
        <ele>543.2</ele>
        <time>2024-04-21T13:04:07.994Z</time>
      </trkpt>
      <trkpt lat="43.03613" lon="1.14568">
        <ele>543.4</ele>
        <time>2024-04-21T13:04:08.994Z</time>
      </trkpt>
      <trkpt lat="43.03615" lon="1.14567">
        <ele>543.6</ele>
        <time>2024-04-21T13:04:09.994Z</time>
      </trkpt>
      <trkpt lat="43.03617" lon="1.14567">
        <ele>543.6</ele>
        <time>2024-04-21T13:04:10.994Z</time>
      </trkpt>
      <trkpt lat="43.03619" lon="1.14567">
        <ele>544.2</ele>
        <time>2024-04-21T13:04:11.994Z</time>
      </trkpt>
      <trkpt lat="43.03621" lon="1.14567">
        <ele>544.4</ele>
        <time>2024-04-21T13:04:12.994Z</time>
      </trkpt>
      <trkpt lat="43.03623" lon="1.14568">
        <ele>545</ele>
        <time>2024-04-21T13:04:13.994Z</time>
      </trkpt>
      <trkpt lat="43.03625" lon="1.14568">
        <ele>545.2</ele>
        <time>2024-04-21T13:04:14.994Z</time>
      </trkpt>
      <trkpt lat="43.03627" lon="1.14567">
        <ele>545.2</ele>
        <time>2024-04-21T13:04:15.994Z</time>
      </trkpt>
      <trkpt lat="43.03629" lon="1.14567">
        <ele>545.6</ele>
        <time>2024-04-21T13:04:16.994Z</time>
      </trkpt>
      <trkpt lat="43.03631" lon="1.14567">
        <ele>545.8</ele>
        <time>2024-04-21T13:04:17.994Z</time>
      </trkpt>
      <trkpt lat="43.03632" lon="1.14567">
        <ele>546.2</ele>
        <time>2024-04-21T13:04:18.994Z</time>
      </trkpt>
      <trkpt lat="43.03634" lon="1.14566">
        <ele>546.6</ele>
        <time>2024-04-21T13:04:19.994Z</time>
      </trkpt>
      <trkpt lat="43.03636" lon="1.14565">
        <ele>547.2</ele>
        <time>2024-04-21T13:04:20.994Z</time>
      </trkpt>
      <trkpt lat="43.03637" lon="1.14565">
        <ele>547.8</ele>
        <time>2024-04-21T13:04:21.994Z</time>
      </trkpt>
      <trkpt lat="43.03639" lon="1.14565">
        <ele>548.2</ele>
        <time>2024-04-21T13:04:22.994Z</time>
      </trkpt>
      <trkpt lat="43.03641" lon="1.14565">
        <ele>548.6</ele>
        <time>2024-04-21T13:04:23.994Z</time>
      </trkpt>
      <trkpt lat="43.03643" lon="1.14564">
        <ele>549.2</ele>
        <time>2024-04-21T13:04:24.994Z</time>
      </trkpt>
      <trkpt lat="43.03644" lon="1.14563">
        <ele>549.4</ele>
        <time>2024-04-21T13:04:25.994Z</time>
      </trkpt>
      <trkpt lat="43.03646" lon="1.14561">
        <ele>549.6</ele>
        <time>2024-04-21T13:04:26.994Z</time>
      </trkpt>
      <trkpt lat="43.03648" lon="1.1456">
        <ele>550</ele>
        <time>2024-04-21T13:04:27.994Z</time>
      </trkpt>
      <trkpt lat="43.0365" lon="1.1456">
        <ele>550.4</ele>
        <time>2024-04-21T13:04:28.994Z</time>
      </trkpt>
      <trkpt lat="43.03652" lon="1.1456">
        <ele>550.4</ele>
        <time>2024-04-21T13:04:29.994Z</time>
      </trkpt>
      <trkpt lat="43.03653" lon="1.14559">
        <ele>550.8</ele>
        <time>2024-04-21T13:04:30.994Z</time>
      </trkpt>
      <trkpt lat="43.03655" lon="1.14559">
        <ele>551.2</ele>
        <time>2024-04-21T13:04:31.994Z</time>
      </trkpt>
      <trkpt lat="43.03657" lon="1.14559">
        <ele>551.4</ele>
        <time>2024-04-21T13:04:32.994Z</time>
      </trkpt>
      <trkpt lat="43.03659" lon="1.14558">
        <ele>552</ele>
        <time>2024-04-21T13:04:33.994Z</time>
      </trkpt>
      <trkpt lat="43.03661" lon="1.14558">
        <ele>552.2</ele>
        <time>2024-04-21T13:04:34.994Z</time>
      </trkpt>
      <trkpt lat="43.03662" lon="1.14558">
        <ele>552.4</ele>
        <time>2024-04-21T13:04:35.994Z</time>
      </trkpt>
      <trkpt lat="43.03664" lon="1.14558">
        <ele>552.6</ele>
        <time>2024-04-21T13:04:36.994Z</time>
      </trkpt>
      <trkpt lat="43.03666" lon="1.14557">
        <ele>553.2</ele>
        <time>2024-04-21T13:04:37.994Z</time>
      </trkpt>
      <trkpt lat="43.03668" lon="1.14557">
        <ele>553.2</ele>
        <time>2024-04-21T13:04:38.994Z</time>
      </trkpt>
      <trkpt lat="43.0367" lon="1.14557">
        <ele>553.6</ele>
        <time>2024-04-21T13:04:39.994Z</time>
      </trkpt>
      <trkpt lat="43.03673" lon="1.14557">
        <ele>553.6</ele>
        <time>2024-04-21T13:04:40.994Z</time>
      </trkpt>
      <trkpt lat="43.03675" lon="1.14556">
        <ele>554</ele>
        <time>2024-04-21T13:04:41.994Z</time>
      </trkpt>
      <trkpt lat="43.03677" lon="1.14556">
        <ele>554</ele>
        <time>2024-04-21T13:04:42.994Z</time>
      </trkpt>
      <trkpt lat="43.03679" lon="1.14555">
        <ele>554.6</ele>
        <time>2024-04-21T13:04:43.994Z</time>
      </trkpt>
      <trkpt lat="43.03681" lon="1.14555">
        <ele>554.6</ele>
        <time>2024-04-21T13:04:44.994Z</time>
      </trkpt>
      <trkpt lat="43.03683" lon="1.14555">
        <ele>554.8</ele>
        <time>2024-04-21T13:04:45.994Z</time>
      </trkpt>
      <trkpt lat="43.03686" lon="1.14555">
        <ele>555.2</ele>
        <time>2024-04-21T13:04:46.994Z</time>
      </trkpt>
      <trkpt lat="43.03688" lon="1.14554">
        <ele>555.4</ele>
        <time>2024-04-21T13:04:47.994Z</time>
      </trkpt>
      <trkpt lat="43.0369" lon="1.14553">
        <ele>555.6</ele>
        <time>2024-04-21T13:04:48.994Z</time>
      </trkpt>
      <trkpt lat="43.03692" lon="1.14552">
        <ele>555.6</ele>
        <time>2024-04-21T13:04:49.994Z</time>
      </trkpt>
      <trkpt lat="43.03694" lon="1.14549">
        <ele>555.6</ele>
        <time>2024-04-21T13:04:50.994Z</time>
      </trkpt>
      <trkpt lat="43.03695" lon="1.14547">
        <ele>556.2</ele>
        <time>2024-04-21T13:04:51.994Z</time>
      </trkpt>
      <trkpt lat="43.03696" lon="1.14545">
        <ele>556.4</ele>
        <time>2024-04-21T13:04:52.994Z</time>
      </trkpt>
      <trkpt lat="43.03696" lon="1.14542">
        <ele>556.8</ele>
        <time>2024-04-21T13:04:53.994Z</time>
      </trkpt>
      <trkpt lat="43.03697" lon="1.1454">
        <ele>556.8</ele>
        <time>2024-04-21T13:04:54.994Z</time>
      </trkpt>
      <trkpt lat="43.03697" lon="1.14537">
        <ele>557.2</ele>
        <time>2024-04-21T13:04:55.994Z</time>
      </trkpt>
      <trkpt lat="43.03698" lon="1.14534">
        <ele>557.4</ele>
        <time>2024-04-21T13:04:56.994Z</time>
      </trkpt>
      <trkpt lat="43.03698" lon="1.14531">
        <ele>557.8</ele>
        <time>2024-04-21T13:04:57.994Z</time>
      </trkpt>
      <trkpt lat="43.03698" lon="1.14527">
        <ele>558</ele>
        <time>2024-04-21T13:04:58.994Z</time>
      </trkpt>
      <trkpt lat="43.03698" lon="1.14524">
        <ele>558.2</ele>
        <time>2024-04-21T13:04:59.994Z</time>
      </trkpt>
      <trkpt lat="43.03697" lon="1.14522">
        <ele>558.2</ele>
        <time>2024-04-21T13:05:00.994Z</time>
      </trkpt>
      <trkpt lat="43.03696" lon="1.14519">
        <ele>558.6</ele>
        <time>2024-04-21T13:05:01.994Z</time>
      </trkpt>
      <trkpt lat="43.03695" lon="1.14516">
        <ele>558.8</ele>
        <time>2024-04-21T13:05:02.994Z</time>
      </trkpt>
      <trkpt lat="43.03693" lon="1.14514">
        <ele>559.2</ele>
        <time>2024-04-21T13:05:03.994Z</time>
      </trkpt>
      <trkpt lat="43.03691" lon="1.14512">
        <ele>559.2</ele>
        <time>2024-04-21T13:05:04.994Z</time>
      </trkpt>
      <trkpt lat="43.03689" lon="1.14511">
        <ele>559.6</ele>
        <time>2024-04-21T13:05:05.994Z</time>
      </trkpt>
      <trkpt lat="43.03686" lon="1.1451">
        <ele>559.6</ele>
        <time>2024-04-21T13:05:06.994Z</time>
      </trkpt>
      <trkpt lat="43.03684" lon="1.1451">
        <ele>560</ele>
        <time>2024-04-21T13:05:07.994Z</time>
      </trkpt>
      <trkpt lat="43.03681" lon="1.1451">
        <ele>560.2</ele>
        <time>2024-04-21T13:05:08.994Z</time>
      </trkpt>
      <trkpt lat="43.03679" lon="1.14509">
        <ele>560.2</ele>
        <time>2024-04-21T13:05:09.994Z</time>
      </trkpt>
      <trkpt lat="43.03676" lon="1.14509">
        <ele>560.6</ele>
        <time>2024-04-21T13:05:10.994Z</time>
      </trkpt>
      <trkpt lat="43.03674" lon="1.14509">
        <ele>561</ele>
        <time>2024-04-21T13:05:11.994Z</time>
      </trkpt>
      <trkpt lat="43.03672" lon="1.14508">
        <ele>561.2</ele>
        <time>2024-04-21T13:05:12.994Z</time>
      </trkpt>
      <trkpt lat="43.03669" lon="1.14508">
        <ele>561.6</ele>
        <time>2024-04-21T13:05:13.994Z</time>
      </trkpt>
      <trkpt lat="43.03667" lon="1.14508">
        <ele>561.8</ele>
        <time>2024-04-21T13:05:14.994Z</time>
      </trkpt>
      <trkpt lat="43.03665" lon="1.14507">
        <ele>562</ele>
        <time>2024-04-21T13:05:15.994Z</time>
      </trkpt>
      <trkpt lat="43.03663" lon="1.14507">
        <ele>562.4</ele>
        <time>2024-04-21T13:05:16.994Z</time>
      </trkpt>
      <trkpt lat="43.03661" lon="1.14506">
        <ele>562.6</ele>
        <time>2024-04-21T13:05:17.994Z</time>
      </trkpt>
      <trkpt lat="43.03659" lon="1.14506">
        <ele>563</ele>
        <time>2024-04-21T13:05:18.994Z</time>
      </trkpt>
      <trkpt lat="43.03657" lon="1.14505">
        <ele>563.2</ele>
        <time>2024-04-21T13:05:19.994Z</time>
      </trkpt>
      <trkpt lat="43.03655" lon="1.14503">
        <ele>563.2</ele>
        <time>2024-04-21T13:05:20.994Z</time>
      </trkpt>
      <trkpt lat="43.03653" lon="1.14502">
        <ele>563.6</ele>
        <time>2024-04-21T13:05:21.994Z</time>
      </trkpt>
      <trkpt lat="43.03651" lon="1.145">
        <ele>563.6</ele>
        <time>2024-04-21T13:05:22.994Z</time>
      </trkpt>
      <trkpt lat="43.03651" lon="1.14497">
        <ele>564</ele>
        <time>2024-04-21T13:05:23.994Z</time>
      </trkpt>
      <trkpt lat="43.0365" lon="1.14494">
        <ele>564.4</ele>
        <time>2024-04-21T13:05:24.994Z</time>
      </trkpt>
      <trkpt lat="43.03651" lon="1.14491">
        <ele>564.6</ele>
        <time>2024-04-21T13:05:25.994Z</time>
      </trkpt>
      <trkpt lat="43.03652" lon="1.14488">
        <ele>564.8</ele>
        <time>2024-04-21T13:05:26.994Z</time>
      </trkpt>
      <trkpt lat="43.03653" lon="1.14486">
        <ele>565.4</ele>
        <time>2024-04-21T13:05:27.994Z</time>
      </trkpt>
      <trkpt lat="43.03655" lon="1.14484">
        <ele>565.8</ele>
        <time>2024-04-21T13:05:28.994Z</time>
      </trkpt>
      <trkpt lat="43.03657" lon="1.14482">
        <ele>566.2</ele>
        <time>2024-04-21T13:05:29.994Z</time>
      </trkpt>
      <trkpt lat="43.03659" lon="1.14481">
        <ele>566.6</ele>
        <time>2024-04-21T13:05:30.994Z</time>
      </trkpt>
      <trkpt lat="43.03661" lon="1.1448">
        <ele>567</ele>
        <time>2024-04-21T13:05:31.994Z</time>
      </trkpt>
      <trkpt lat="43.03663" lon="1.14479">
        <ele>567.4</ele>
        <time>2024-04-21T13:05:32.994Z</time>
      </trkpt>
      <trkpt lat="43.03666" lon="1.14478">
        <ele>567.8</ele>
        <time>2024-04-21T13:05:33.994Z</time>
      </trkpt>
      <trkpt lat="43.03668" lon="1.14476">
        <ele>568.2</ele>
        <time>2024-04-21T13:05:34.994Z</time>
      </trkpt>
      <trkpt lat="43.03671" lon="1.14475">
        <ele>568.4</ele>
        <time>2024-04-21T13:05:35.994Z</time>
      </trkpt>
      <trkpt lat="43.03673" lon="1.14474">
        <ele>568.4</ele>
        <time>2024-04-21T13:05:36.994Z</time>
      </trkpt>
      <trkpt lat="43.03675" lon="1.14473">
        <ele>568.8</ele>
        <time>2024-04-21T13:05:37.994Z</time>
      </trkpt>
      <trkpt lat="43.03677" lon="1.14472">
        <ele>569</ele>
        <time>2024-04-21T13:05:38.994Z</time>
      </trkpt>
      <trkpt lat="43.03679" lon="1.14471">
        <ele>569.2</ele>
        <time>2024-04-21T13:05:39.994Z</time>
      </trkpt>
      <trkpt lat="43.03682" lon="1.1447">
        <ele>569.4</ele>
        <time>2024-04-21T13:05:40.994Z</time>
      </trkpt>
      <trkpt lat="43.03684" lon="1.14469">
        <ele>569.4</ele>
        <time>2024-04-21T13:05:41.994Z</time>
      </trkpt>
      <trkpt lat="43.03686" lon="1.14468">
        <ele>569.8</ele>
        <time>2024-04-21T13:05:42.994Z</time>
      </trkpt>
      <trkpt lat="43.03688" lon="1.14468">
        <ele>569.8</ele>
        <time>2024-04-21T13:05:43.994Z</time>
      </trkpt>
      <trkpt lat="43.03691" lon="1.14467">
        <ele>569.8</ele>
        <time>2024-04-21T13:05:44.994Z</time>
      </trkpt>
      <trkpt lat="43.03693" lon="1.14466">
        <ele>570.2</ele>
        <time>2024-04-21T13:05:45.994Z</time>
      </trkpt>
      <trkpt lat="43.03695" lon="1.14465">
        <ele>570.4</ele>
        <time>2024-04-21T13:05:46.994Z</time>
      </trkpt>
      <trkpt lat="43.03698" lon="1.14464">
        <ele>570.6</ele>
        <time>2024-04-21T13:05:47.994Z</time>
      </trkpt>
      <trkpt lat="43.037" lon="1.14464">
        <ele>570.8</ele>
        <time>2024-04-21T13:05:48.994Z</time>
      </trkpt>
      <trkpt lat="43.03702" lon="1.14463">
        <ele>571.2</ele>
        <time>2024-04-21T13:05:49.994Z</time>
      </trkpt>
      <trkpt lat="43.03704" lon="1.14463">
        <ele>571.2</ele>
        <time>2024-04-21T13:05:50.994Z</time>
      </trkpt>
      <trkpt lat="43.03706" lon="1.14462">
        <ele>571.4</ele>
        <time>2024-04-21T13:05:51.994Z</time>
      </trkpt>
      <trkpt lat="43.03708" lon="1.14462">
        <ele>571.4</ele>
        <time>2024-04-21T13:05:52.994Z</time>
      </trkpt>
      <trkpt lat="43.03711" lon="1.14462">
        <ele>571.8</ele>
        <time>2024-04-21T13:05:53.994Z</time>
      </trkpt>
      <trkpt lat="43.03713" lon="1.14463">
        <ele>572.2</ele>
        <time>2024-04-21T13:05:54.994Z</time>
      </trkpt>
      <trkpt lat="43.03716" lon="1.14463">
        <ele>572.4</ele>
        <time>2024-04-21T13:05:55.994Z</time>
      </trkpt>
      <trkpt lat="43.03718" lon="1.14463">
        <ele>572.4</ele>
        <time>2024-04-21T13:05:56.994Z</time>
      </trkpt>
      <trkpt lat="43.0372" lon="1.14463">
        <ele>572.6</ele>
        <time>2024-04-21T13:05:57.994Z</time>
      </trkpt>
      <trkpt lat="43.03722" lon="1.14464">
        <ele>572.6</ele>
        <time>2024-04-21T13:05:58.994Z</time>
      </trkpt>
      <trkpt lat="43.03725" lon="1.14464">
        <ele>573</ele>
        <time>2024-04-21T13:05:59.994Z</time>
      </trkpt>
      <trkpt lat="43.03727" lon="1.14464">
        <ele>573</ele>
        <time>2024-04-21T13:06:00.994Z</time>
      </trkpt>
      <trkpt lat="43.03729" lon="1.14465">
        <ele>573.4</ele>
        <time>2024-04-21T13:06:01.994Z</time>
      </trkpt>
      <trkpt lat="43.03732" lon="1.14465">
        <ele>573.6</ele>
        <time>2024-04-21T13:06:02.994Z</time>
      </trkpt>
      <trkpt lat="43.03734" lon="1.14465">
        <ele>573.6</ele>
        <time>2024-04-21T13:06:03.994Z</time>
      </trkpt>
      <trkpt lat="43.03736" lon="1.14465">
        <ele>574.2</ele>
        <time>2024-04-21T13:06:04.994Z</time>
      </trkpt>
      <trkpt lat="43.03739" lon="1.14466">
        <ele>574.2</ele>
        <time>2024-04-21T13:06:05.994Z</time>
      </trkpt>
      <trkpt lat="43.03741" lon="1.14467">
        <ele>574.6</ele>
        <time>2024-04-21T13:06:06.994Z</time>
      </trkpt>
      <trkpt lat="43.03743" lon="1.14467">
        <ele>574.6</ele>
        <time>2024-04-21T13:06:07.994Z</time>
      </trkpt>
      <trkpt lat="43.03744" lon="1.14467">
        <ele>574.8</ele>
        <time>2024-04-21T13:06:08.994Z</time>
      </trkpt>
      <trkpt lat="43.03746" lon="1.14468">
        <ele>575</ele>
        <time>2024-04-21T13:06:09.994Z</time>
      </trkpt>
      <trkpt lat="43.03749" lon="1.14468">
        <ele>575.2</ele>
        <time>2024-04-21T13:06:10.994Z</time>
      </trkpt>
      <trkpt lat="43.03751" lon="1.14468">
        <ele>575.2</ele>
        <time>2024-04-21T13:06:11.994Z</time>
      </trkpt>
      <trkpt lat="43.03753" lon="1.14469">
        <ele>575.2</ele>
        <time>2024-04-21T13:06:12.994Z</time>
      </trkpt>
      <trkpt lat="43.03755" lon="1.14469">
        <ele>575.6</ele>
        <time>2024-04-21T13:06:13.994Z</time>
      </trkpt>
      <trkpt lat="43.03757" lon="1.1447">
        <ele>575.8</ele>
        <time>2024-04-21T13:06:14.994Z</time>
      </trkpt>
      <trkpt lat="43.03759" lon="1.14471">
        <ele>576.2</ele>
        <time>2024-04-21T13:06:15.994Z</time>
      </trkpt>
      <trkpt lat="43.03761" lon="1.14471">
        <ele>576.4</ele>
        <time>2024-04-21T13:06:16.994Z</time>
      </trkpt>
      <trkpt lat="43.03761" lon="1.14471">
        <ele>576.6</ele>
        <time>2024-04-21T13:06:17.994Z</time>
      </trkpt>
      <trkpt lat="43.03763" lon="1.14471">
        <ele>576.6</ele>
        <time>2024-04-21T13:06:18.994Z</time>
      </trkpt>
      <trkpt lat="43.03765" lon="1.14472">
        <ele>577</ele>
        <time>2024-04-21T13:06:19.994Z</time>
      </trkpt>
      <trkpt lat="43.03768" lon="1.14473">
        <ele>577.2</ele>
        <time>2024-04-21T13:06:20.994Z</time>
      </trkpt>
      <trkpt lat="43.0377" lon="1.14473">
        <ele>577.4</ele>
        <time>2024-04-21T13:06:21.994Z</time>
      </trkpt>
      <trkpt lat="43.03772" lon="1.14473">
        <ele>577.8</ele>
        <time>2024-04-21T13:06:22.994Z</time>
      </trkpt>
      <trkpt lat="43.03773" lon="1.14474">
        <ele>578.2</ele>
        <time>2024-04-21T13:06:23.994Z</time>
      </trkpt>
      <trkpt lat="43.03775" lon="1.14474">
        <ele>578.4</ele>
        <time>2024-04-21T13:06:24.994Z</time>
      </trkpt>
      <trkpt lat="43.03777" lon="1.14475">
        <ele>578.8</ele>
        <time>2024-04-21T13:06:25.994Z</time>
      </trkpt>
      <trkpt lat="43.03779" lon="1.14475">
        <ele>578.8</ele>
        <time>2024-04-21T13:06:26.994Z</time>
      </trkpt>
      <trkpt lat="43.03781" lon="1.14476">
        <ele>579.2</ele>
        <time>2024-04-21T13:06:27.994Z</time>
      </trkpt>
      <trkpt lat="43.03783" lon="1.14477">
        <ele>579.4</ele>
        <time>2024-04-21T13:06:28.994Z</time>
      </trkpt>
      <trkpt lat="43.03785" lon="1.14477">
        <ele>579.8</ele>
        <time>2024-04-21T13:06:29.994Z</time>
      </trkpt>
      <trkpt lat="43.03787" lon="1.14477">
        <ele>580</ele>
        <time>2024-04-21T13:06:30.994Z</time>
      </trkpt>
      <trkpt lat="43.03788" lon="1.14478">
        <ele>580.2</ele>
        <time>2024-04-21T13:06:31.994Z</time>
      </trkpt>
      <trkpt lat="43.03791" lon="1.1448">
        <ele>580.6</ele>
        <time>2024-04-21T13:06:32.994Z</time>
      </trkpt>
      <trkpt lat="43.03794" lon="1.14481">
        <ele>580.8</ele>
        <time>2024-04-21T13:06:33.994Z</time>
      </trkpt>
      <trkpt lat="43.03796" lon="1.14482">
        <ele>581.2</ele>
        <time>2024-04-21T13:06:34.994Z</time>
      </trkpt>
      <trkpt lat="43.03798" lon="1.14482">
        <ele>581.4</ele>
        <time>2024-04-21T13:06:35.994Z</time>
      </trkpt>
      <trkpt lat="43.03801" lon="1.14482">
        <ele>581.4</ele>
        <time>2024-04-21T13:06:36.994Z</time>
      </trkpt>
      <trkpt lat="43.03803" lon="1.14481">
        <ele>581.6</ele>
        <time>2024-04-21T13:06:37.994Z</time>
      </trkpt>
      <trkpt lat="43.03805" lon="1.14481">
        <ele>582</ele>
        <time>2024-04-21T13:06:38.994Z</time>
      </trkpt>
      <trkpt lat="43.03807" lon="1.14481">
        <ele>582.2</ele>
        <time>2024-04-21T13:06:39.994Z</time>
      </trkpt>
      <trkpt lat="43.03809" lon="1.14481">
        <ele>582.4</ele>
        <time>2024-04-21T13:06:40.994Z</time>
      </trkpt>
      <trkpt lat="43.03814" lon="1.1448">
        <ele>582.8</ele>
        <time>2024-04-21T13:06:41.994Z</time>
      </trkpt>
      <trkpt lat="43.03816" lon="1.14479">
        <ele>583</ele>
        <time>2024-04-21T13:06:42.994Z</time>
      </trkpt>
      <trkpt lat="43.03818" lon="1.14478">
        <ele>583.2</ele>
        <time>2024-04-21T13:06:43.994Z</time>
      </trkpt>
      <trkpt lat="43.0382" lon="1.14477">
        <ele>583.6</ele>
        <time>2024-04-21T13:06:44.994Z</time>
      </trkpt>
      <trkpt lat="43.03821" lon="1.14475">
        <ele>583.8</ele>
        <time>2024-04-21T13:06:45.994Z</time>
      </trkpt>
      <trkpt lat="43.03823" lon="1.14473">
        <ele>584.2</ele>
        <time>2024-04-21T13:06:46.994Z</time>
      </trkpt>
      <trkpt lat="43.03824" lon="1.14471">
        <ele>584.4</ele>
        <time>2024-04-21T13:06:47.994Z</time>
      </trkpt>
      <trkpt lat="43.03826" lon="1.14469">
        <ele>584.8</ele>
        <time>2024-04-21T13:06:48.994Z</time>
      </trkpt>
      <trkpt lat="43.03828" lon="1.14467">
        <ele>585</ele>
        <time>2024-04-21T13:06:49.994Z</time>
      </trkpt>
      <trkpt lat="43.0383" lon="1.14465">
        <ele>585.2</ele>
        <time>2024-04-21T13:06:50.994Z</time>
      </trkpt>
      <trkpt lat="43.03832" lon="1.14462">
        <ele>585.2</ele>
        <time>2024-04-21T13:06:51.994Z</time>
      </trkpt>
      <trkpt lat="43.03833" lon="1.14461">
        <ele>585.6</ele>
        <time>2024-04-21T13:06:52.994Z</time>
      </trkpt>
      <trkpt lat="43.03835" lon="1.14459">
        <ele>585.6</ele>
        <time>2024-04-21T13:06:53.994Z</time>
      </trkpt>
      <trkpt lat="43.03837" lon="1.14458">
        <ele>586</ele>
        <time>2024-04-21T13:06:54.994Z</time>
      </trkpt>
      <trkpt lat="43.03838" lon="1.14456">
        <ele>586</ele>
        <time>2024-04-21T13:06:55.994Z</time>
      </trkpt>
      <trkpt lat="43.0384" lon="1.14455">
        <ele>586.4</ele>
        <time>2024-04-21T13:06:56.994Z</time>
      </trkpt>
      <trkpt lat="43.03843" lon="1.14452">
        <ele>586.4</ele>
        <time>2024-04-21T13:06:57.994Z</time>
      </trkpt>
      <trkpt lat="43.03845" lon="1.1445">
        <ele>586.8</ele>
        <time>2024-04-21T13:06:58.994Z</time>
      </trkpt>
      <trkpt lat="43.03846" lon="1.14448">
        <ele>586.8</ele>
        <time>2024-04-21T13:06:59.994Z</time>
      </trkpt>
      <trkpt lat="43.03848" lon="1.14446">
        <ele>587.2</ele>
        <time>2024-04-21T13:07:00.994Z</time>
      </trkpt>
      <trkpt lat="43.0385" lon="1.14444">
        <ele>587.4</ele>
        <time>2024-04-21T13:07:01.994Z</time>
      </trkpt>
      <trkpt lat="43.03852" lon="1.14442">
        <ele>587.8</ele>
        <time>2024-04-21T13:07:02.994Z</time>
      </trkpt>
      <trkpt lat="43.03853" lon="1.1444">
        <ele>587.8</ele>
        <time>2024-04-21T13:07:03.994Z</time>
      </trkpt>
      <trkpt lat="43.03855" lon="1.14439">
        <ele>588</ele>
        <time>2024-04-21T13:07:04.994Z</time>
      </trkpt>
      <trkpt lat="43.03857" lon="1.14437">
        <ele>588</ele>
        <time>2024-04-21T13:07:05.994Z</time>
      </trkpt>
      <trkpt lat="43.03858" lon="1.14435">
        <ele>588.4</ele>
        <time>2024-04-21T13:07:06.994Z</time>
      </trkpt>
      <trkpt lat="43.0386" lon="1.14434">
        <ele>588.6</ele>
        <time>2024-04-21T13:07:07.994Z</time>
      </trkpt>
      <trkpt lat="43.03862" lon="1.14432">
        <ele>588.6</ele>
        <time>2024-04-21T13:07:08.994Z</time>
      </trkpt>
      <trkpt lat="43.03865" lon="1.1443">
        <ele>588.6</ele>
        <time>2024-04-21T13:07:09.994Z</time>
      </trkpt>
      <trkpt lat="43.03867" lon="1.14428">
        <ele>588.6</ele>
        <time>2024-04-21T13:07:10.994Z</time>
      </trkpt>
      <trkpt lat="43.03868" lon="1.14427">
        <ele>588.8</ele>
        <time>2024-04-21T13:07:11.994Z</time>
      </trkpt>
      <trkpt lat="43.0387" lon="1.14425">
        <ele>589.2</ele>
        <time>2024-04-21T13:07:12.994Z</time>
      </trkpt>
      <trkpt lat="43.03873" lon="1.14424">
        <ele>589.4</ele>
        <time>2024-04-21T13:07:13.994Z</time>
      </trkpt>
      <trkpt lat="43.03875" lon="1.14423">
        <ele>589.4</ele>
        <time>2024-04-21T13:07:14.994Z</time>
      </trkpt>
      <trkpt lat="43.03877" lon="1.14423">
        <ele>589.4</ele>
        <time>2024-04-21T13:07:15.994Z</time>
      </trkpt>
      <trkpt lat="43.0388" lon="1.14424">
        <ele>589.6</ele>
        <time>2024-04-21T13:07:16.994Z</time>
      </trkpt>
      <trkpt lat="43.03882" lon="1.14426">
        <ele>589.6</ele>
        <time>2024-04-21T13:07:17.994Z</time>
      </trkpt>
      <trkpt lat="43.03884" lon="1.14428">
        <ele>589.6</ele>
        <time>2024-04-21T13:07:18.994Z</time>
      </trkpt>
      <trkpt lat="43.03886" lon="1.14431">
        <ele>589.8</ele>
        <time>2024-04-21T13:07:19.994Z</time>
      </trkpt>
      <trkpt lat="43.03888" lon="1.14434">
        <ele>589.8</ele>
        <time>2024-04-21T13:07:20.994Z</time>
      </trkpt>
      <trkpt lat="43.03889" lon="1.14436">
        <ele>590.2</ele>
        <time>2024-04-21T13:07:21.994Z</time>
      </trkpt>
      <trkpt lat="43.03891" lon="1.14439">
        <ele>590.2</ele>
        <time>2024-04-21T13:07:22.994Z</time>
      </trkpt>
      <trkpt lat="43.03893" lon="1.14442">
        <ele>590.6</ele>
        <time>2024-04-21T13:07:23.994Z</time>
      </trkpt>
      <trkpt lat="43.03894" lon="1.14446">
        <ele>590.6</ele>
        <time>2024-04-21T13:07:24.994Z</time>
      </trkpt>
      <trkpt lat="43.03896" lon="1.14449">
        <ele>590.8</ele>
        <time>2024-04-21T13:07:25.994Z</time>
      </trkpt>
      <trkpt lat="43.03897" lon="1.14453">
        <ele>590.8</ele>
        <time>2024-04-21T13:07:26.994Z</time>
      </trkpt>
      <trkpt lat="43.03899" lon="1.14456">
        <ele>590.8</ele>
        <time>2024-04-21T13:07:27.994Z</time>
      </trkpt>
      <trkpt lat="43.03901" lon="1.14459">
        <ele>590.8</ele>
        <time>2024-04-21T13:07:28.994Z</time>
      </trkpt>
      <trkpt lat="43.03902" lon="1.14462">
        <ele>591</ele>
        <time>2024-04-21T13:07:29.994Z</time>
      </trkpt>
      <trkpt lat="43.03904" lon="1.14466">
        <ele>591</ele>
        <time>2024-04-21T13:07:30.994Z</time>
      </trkpt>
      <trkpt lat="43.03905" lon="1.14469">
        <ele>591.4</ele>
        <time>2024-04-21T13:07:31.994Z</time>
      </trkpt>
      <trkpt lat="43.03907" lon="1.14473">
        <ele>591.4</ele>
        <time>2024-04-21T13:07:32.994Z</time>
      </trkpt>
      <trkpt lat="43.03909" lon="1.14477">
        <ele>591.6</ele>
        <time>2024-04-21T13:07:33.994Z</time>
      </trkpt>
      <trkpt lat="43.0391" lon="1.1448">
        <ele>591.6</ele>
        <time>2024-04-21T13:07:34.994Z</time>
      </trkpt>
      <trkpt lat="43.03912" lon="1.14483">
        <ele>591.6</ele>
        <time>2024-04-21T13:07:35.994Z</time>
      </trkpt>
      <trkpt lat="43.03914" lon="1.14487">
        <ele>592</ele>
        <time>2024-04-21T13:07:36.994Z</time>
      </trkpt>
      <trkpt lat="43.03916" lon="1.14491">
        <ele>592</ele>
        <time>2024-04-21T13:07:37.994Z</time>
      </trkpt>
      <trkpt lat="43.03917" lon="1.14494">
        <ele>592</ele>
        <time>2024-04-21T13:07:38.994Z</time>
      </trkpt>
      <trkpt lat="43.03919" lon="1.14498">
        <ele>592</ele>
        <time>2024-04-21T13:07:39.994Z</time>
      </trkpt>
      <trkpt lat="43.03921" lon="1.14502">
        <ele>592.2</ele>
        <time>2024-04-21T13:07:40.994Z</time>
      </trkpt>
      <trkpt lat="43.03922" lon="1.14505">
        <ele>592.2</ele>
        <time>2024-04-21T13:07:41.994Z</time>
      </trkpt>
      <trkpt lat="43.03924" lon="1.14509">
        <ele>592.4</ele>
        <time>2024-04-21T13:07:42.994Z</time>
      </trkpt>
      <trkpt lat="43.03926" lon="1.14512">
        <ele>592.4</ele>
        <time>2024-04-21T13:07:43.994Z</time>
      </trkpt>
      <trkpt lat="43.03927" lon="1.14516">
        <ele>592.6</ele>
        <time>2024-04-21T13:07:44.994Z</time>
      </trkpt>
      <trkpt lat="43.03929" lon="1.14519">
        <ele>592.6</ele>
        <time>2024-04-21T13:07:45.994Z</time>
      </trkpt>
      <trkpt lat="43.0393" lon="1.14523">
        <ele>592.8</ele>
        <time>2024-04-21T13:07:46.994Z</time>
      </trkpt>
      <trkpt lat="43.03932" lon="1.14526">
        <ele>592.8</ele>
        <time>2024-04-21T13:07:47.994Z</time>
      </trkpt>
      <trkpt lat="43.03934" lon="1.1453">
        <ele>592.8</ele>
        <time>2024-04-21T13:07:48.994Z</time>
      </trkpt>
      <trkpt lat="43.03935" lon="1.14533">
        <ele>592.8</ele>
        <time>2024-04-21T13:07:49.994Z</time>
      </trkpt>
      <trkpt lat="43.03937" lon="1.14537">
        <ele>593.4</ele>
        <time>2024-04-21T13:07:50.994Z</time>
      </trkpt>
      <trkpt lat="43.03938" lon="1.1454">
        <ele>593.4</ele>
        <time>2024-04-21T13:07:51.994Z</time>
      </trkpt>
      <trkpt lat="43.0394" lon="1.14544">
        <ele>593.4</ele>
        <time>2024-04-21T13:07:52.994Z</time>
      </trkpt>
      <trkpt lat="43.03941" lon="1.14548">
        <ele>593.4</ele>
        <time>2024-04-21T13:07:53.994Z</time>
      </trkpt>
      <trkpt lat="43.03943" lon="1.14551">
        <ele>593.6</ele>
        <time>2024-04-21T13:07:54.994Z</time>
      </trkpt>
      <trkpt lat="43.03945" lon="1.14555">
        <ele>593.6</ele>
        <time>2024-04-21T13:07:55.994Z</time>
      </trkpt>
      <trkpt lat="43.03946" lon="1.14558">
        <ele>593.6</ele>
        <time>2024-04-21T13:07:56.994Z</time>
      </trkpt>
      <trkpt lat="43.03947" lon="1.14562">
        <ele>593.8</ele>
        <time>2024-04-21T13:07:57.994Z</time>
      </trkpt>
      <trkpt lat="43.03949" lon="1.14565">
        <ele>593.8</ele>
        <time>2024-04-21T13:07:58.994Z</time>
      </trkpt>
      <trkpt lat="43.0395" lon="1.14569">
        <ele>594.2</ele>
        <time>2024-04-21T13:07:59.994Z</time>
      </trkpt>
      <trkpt lat="43.03951" lon="1.14572">
        <ele>594.2</ele>
        <time>2024-04-21T13:08:00.994Z</time>
      </trkpt>
      <trkpt lat="43.03953" lon="1.14576">
        <ele>594.4</ele>
        <time>2024-04-21T13:08:01.994Z</time>
      </trkpt>
      <trkpt lat="43.03954" lon="1.1458">
        <ele>594.4</ele>
        <time>2024-04-21T13:08:02.994Z</time>
      </trkpt>
      <trkpt lat="43.03955" lon="1.14584">
        <ele>594.6</ele>
        <time>2024-04-21T13:08:03.994Z</time>
      </trkpt>
      <trkpt lat="43.03956" lon="1.14588">
        <ele>594.6</ele>
        <time>2024-04-21T13:08:04.994Z</time>
      </trkpt>
      <trkpt lat="43.03958" lon="1.14592">
        <ele>595</ele>
        <time>2024-04-21T13:08:05.994Z</time>
      </trkpt>
      <trkpt lat="43.03959" lon="1.14596">
        <ele>595</ele>
        <time>2024-04-21T13:08:06.994Z</time>
      </trkpt>
      <trkpt lat="43.0396" lon="1.14599">
        <ele>595.4</ele>
        <time>2024-04-21T13:08:07.994Z</time>
      </trkpt>
      <trkpt lat="43.03961" lon="1.14603">
        <ele>595.4</ele>
        <time>2024-04-21T13:08:08.994Z</time>
      </trkpt>
      <trkpt lat="43.03962" lon="1.14607">
        <ele>595.6</ele>
        <time>2024-04-21T13:08:09.994Z</time>
      </trkpt>
      <trkpt lat="43.03963" lon="1.1461">
        <ele>595.6</ele>
        <time>2024-04-21T13:08:10.994Z</time>
      </trkpt>
      <trkpt lat="43.03964" lon="1.14614">
        <ele>596</ele>
        <time>2024-04-21T13:08:11.994Z</time>
      </trkpt>
      <trkpt lat="43.03965" lon="1.14618">
        <ele>596.2</ele>
        <time>2024-04-21T13:08:12.994Z</time>
      </trkpt>
      <trkpt lat="43.03965" lon="1.14622">
        <ele>596.2</ele>
        <time>2024-04-21T13:08:13.994Z</time>
      </trkpt>
      <trkpt lat="43.03966" lon="1.14626">
        <ele>596.6</ele>
        <time>2024-04-21T13:08:14.994Z</time>
      </trkpt>
      <trkpt lat="43.03967" lon="1.1463">
        <ele>597</ele>
        <time>2024-04-21T13:08:15.994Z</time>
      </trkpt>
      <trkpt lat="43.03968" lon="1.14634">
        <ele>597</ele>
        <time>2024-04-21T13:08:16.994Z</time>
      </trkpt>
      <trkpt lat="43.03969" lon="1.14637">
        <ele>597.2</ele>
        <time>2024-04-21T13:08:17.994Z</time>
      </trkpt>
      <trkpt lat="43.0397" lon="1.14641">
        <ele>597.2</ele>
        <time>2024-04-21T13:08:18.994Z</time>
      </trkpt>
      <trkpt lat="43.03971" lon="1.14644">
        <ele>597.6</ele>
        <time>2024-04-21T13:08:19.994Z</time>
      </trkpt>
      <trkpt lat="43.03971" lon="1.14648">
        <ele>597.6</ele>
        <time>2024-04-21T13:08:20.994Z</time>
      </trkpt>
      <trkpt lat="43.03972" lon="1.14651">
        <ele>598</ele>
        <time>2024-04-21T13:08:21.994Z</time>
      </trkpt>
      <trkpt lat="43.03972" lon="1.14654">
        <ele>598</ele>
        <time>2024-04-21T13:08:22.994Z</time>
      </trkpt>
      <trkpt lat="43.03973" lon="1.14656">
        <ele>598.2</ele>
        <time>2024-04-21T13:08:23.994Z</time>
      </trkpt>
      <trkpt lat="43.03973" lon="1.14657">
        <ele>598.2</ele>
        <time>2024-04-21T13:08:24.994Z</time>
      </trkpt>
      <trkpt lat="43.03973" lon="1.14658">
        <ele>598.4</ele>
        <time>2024-04-21T13:08:25.994Z</time>
      </trkpt>
      <trkpt lat="43.03973" lon="1.14658">
        <ele>598.4</ele>
        <time>2024-04-21T13:08:26.994Z</time>
      </trkpt>
      <trkpt lat="43.03972" lon="1.14659">
        <ele>598.4</ele>
        <time>2024-04-21T13:08:27.994Z</time>
      </trkpt>
      <trkpt lat="43.03973" lon="1.14662">
        <ele>598.4</ele>
        <time>2024-04-21T13:09:45.994Z</time>
      </trkpt>
      <trkpt lat="43.03974" lon="1.14664">
        <ele>598.4</ele>
        <time>2024-04-21T13:09:46.994Z</time>
      </trkpt>
      <trkpt lat="43.03974" lon="1.14667">
        <ele>598.4</ele>
        <time>2024-04-21T13:09:47.994Z</time>
      </trkpt>
      <trkpt lat="43.03974" lon="1.14671">
        <ele>598.6</ele>
        <time>2024-04-21T13:09:48.994Z</time>
      </trkpt>
      <trkpt lat="43.03974" lon="1.14674">
        <ele>598.6</ele>
        <time>2024-04-21T13:09:49.994Z</time>
      </trkpt>
      <trkpt lat="43.03975" lon="1.14677">
        <ele>598.6</ele>
        <time>2024-04-21T13:09:50.994Z</time>
      </trkpt>
      <trkpt lat="43.03975" lon="1.1468">
        <ele>598.8</ele>
        <time>2024-04-21T13:09:51.994Z</time>
      </trkpt>
      <trkpt lat="43.03975" lon="1.14683">
        <ele>599.2</ele>
        <time>2024-04-21T13:09:52.994Z</time>
      </trkpt>
      <trkpt lat="43.03975" lon="1.14686">
        <ele>599.2</ele>
        <time>2024-04-21T13:09:53.994Z</time>
      </trkpt>
      <trkpt lat="43.03976" lon="1.14689">
        <ele>599.4</ele>
        <time>2024-04-21T13:09:54.994Z</time>
      </trkpt>
      <trkpt lat="43.03976" lon="1.14692">
        <ele>599.4</ele>
        <time>2024-04-21T13:09:55.994Z</time>
      </trkpt>
      <trkpt lat="43.03976" lon="1.14695">
        <ele>599.6</ele>
        <time>2024-04-21T13:09:56.994Z</time>
      </trkpt>
      <trkpt lat="43.03976" lon="1.14698">
        <ele>599.6</ele>
        <time>2024-04-21T13:09:57.994Z</time>
      </trkpt>
      <trkpt lat="43.03976" lon="1.14701">
        <ele>599.8</ele>
        <time>2024-04-21T13:09:58.994Z</time>
      </trkpt>
      <trkpt lat="43.03977" lon="1.14704">
        <ele>599.8</ele>
        <time>2024-04-21T13:09:59.994Z</time>
      </trkpt>
      <trkpt lat="43.03977" lon="1.14706">
        <ele>599.8</ele>
        <time>2024-04-21T13:10:00.994Z</time>
      </trkpt>
      <trkpt lat="43.03977" lon="1.1471">
        <ele>600.2</ele>
        <time>2024-04-21T13:10:01.994Z</time>
      </trkpt>
      <trkpt lat="43.03977" lon="1.14714">
        <ele>600.2</ele>
        <time>2024-04-21T13:10:02.994Z</time>
      </trkpt>
      <trkpt lat="43.03977" lon="1.14718">
        <ele>600</ele>
        <time>2024-04-21T13:10:03.994Z</time>
      </trkpt>
      <trkpt lat="43.03977" lon="1.14721">
        <ele>600</ele>
        <time>2024-04-21T13:10:04.994Z</time>
      </trkpt>
      <trkpt lat="43.03978" lon="1.14723">
        <ele>600</ele>
        <time>2024-04-21T13:10:05.994Z</time>
      </trkpt>
      <trkpt lat="43.03978" lon="1.14724">
        <ele>600</ele>
        <time>2024-04-21T13:10:06.994Z</time>
      </trkpt>
      <trkpt lat="43.03979" lon="1.14724">
        <ele>600</ele>
        <time>2024-04-21T13:10:07.994Z</time>
      </trkpt>
      <trkpt lat="43.03979" lon="1.14724">
        <ele>600</ele>
        <time>2024-04-21T13:10:08.994Z</time>
      </trkpt>
      <trkpt lat="43.03981" lon="1.14722">
        <ele>600</ele>
        <time>2024-04-21T13:10:12.994Z</time>
      </trkpt>
      <trkpt lat="43.03981" lon="1.14722">
        <ele>600</ele>
        <time>2024-04-21T13:10:13.994Z</time>
      </trkpt>
      <trkpt lat="43.03981" lon="1.14722">
        <ele>599.6</ele>
        <time>2024-04-21T13:10:14.994Z</time>
      </trkpt>
      <trkpt lat="43.03982" lon="1.14719">
        <ele>600.8</ele>
        <time>2024-04-21T13:11:26.994Z</time>
      </trkpt>
      <trkpt lat="43.03982" lon="1.14718">
        <ele>600.8</ele>
        <time>2024-04-21T13:11:27.994Z</time>
      </trkpt>
      <trkpt lat="43.03982" lon="1.14718">
        <ele>600.8</ele>
        <time>2024-04-21T13:11:28.994Z</time>
      </trkpt>
      <trkpt lat="43.03982" lon="1.14718">
        <ele>600.8</ele>
        <time>2024-04-21T13:11:29.994Z</time>
      </trkpt>
      <trkpt lat="43.03983" lon="1.14719">
        <ele>601</ele>
        <time>2024-04-21T13:11:30.994Z</time>
      </trkpt>
      <trkpt lat="43.03984" lon="1.14718">
        <ele>601</ele>
        <time>2024-04-21T13:11:31.994Z</time>
      </trkpt>
      <trkpt lat="43.03985" lon="1.14717">
        <ele>601.2</ele>
        <time>2024-04-21T13:11:32.994Z</time>
      </trkpt>
      <trkpt lat="43.03987" lon="1.14716">
        <ele>601.2</ele>
        <time>2024-04-21T13:11:33.994Z</time>
      </trkpt>
      <trkpt lat="43.03988" lon="1.14715">
        <ele>601.2</ele>
        <time>2024-04-21T13:11:34.994Z</time>
      </trkpt>
      <trkpt lat="43.0399" lon="1.14714">
        <ele>601.2</ele>
        <time>2024-04-21T13:11:35.994Z</time>
      </trkpt>
      <trkpt lat="43.03992" lon="1.14714">
        <ele>601.6</ele>
        <time>2024-04-21T13:11:36.994Z</time>
      </trkpt>
      <trkpt lat="43.03995" lon="1.14713">
        <ele>601.6</ele>
        <time>2024-04-21T13:11:37.994Z</time>
      </trkpt>
      <trkpt lat="43.03997" lon="1.14712">
        <ele>601.6</ele>
        <time>2024-04-21T13:11:38.994Z</time>
      </trkpt>
      <trkpt lat="43.04" lon="1.14711">
        <ele>601.6</ele>
        <time>2024-04-21T13:11:39.994Z</time>
      </trkpt>
      <trkpt lat="43.04002" lon="1.14709">
        <ele>601.6</ele>
        <time>2024-04-21T13:11:40.994Z</time>
      </trkpt>
      <trkpt lat="43.04005" lon="1.14708">
        <ele>601.8</ele>
        <time>2024-04-21T13:11:41.994Z</time>
      </trkpt>
      <trkpt lat="43.04007" lon="1.14707">
        <ele>601.8</ele>
        <time>2024-04-21T13:11:42.994Z</time>
      </trkpt>
      <trkpt lat="43.0401" lon="1.14705">
        <ele>601.8</ele>
        <time>2024-04-21T13:11:43.994Z</time>
      </trkpt>
      <trkpt lat="43.04012" lon="1.14703">
        <ele>601.8</ele>
        <time>2024-04-21T13:11:44.994Z</time>
      </trkpt>
      <trkpt lat="43.04015" lon="1.14701">
        <ele>601.8</ele>
        <time>2024-04-21T13:11:45.994Z</time>
      </trkpt>
      <trkpt lat="43.04017" lon="1.14699">
        <ele>601.8</ele>
        <time>2024-04-21T13:11:46.994Z</time>
      </trkpt>
      <trkpt lat="43.0402" lon="1.14697">
        <ele>601.8</ele>
        <time>2024-04-21T13:11:47.994Z</time>
      </trkpt>
      <trkpt lat="43.04023" lon="1.14695">
        <ele>601.8</ele>
        <time>2024-04-21T13:11:48.994Z</time>
      </trkpt>
      <trkpt lat="43.04026" lon="1.14694">
        <ele>601.4</ele>
        <time>2024-04-21T13:11:49.994Z</time>
      </trkpt>
      <trkpt lat="43.0403" lon="1.14692">
        <ele>601.4</ele>
        <time>2024-04-21T13:11:50.994Z</time>
      </trkpt>
      <trkpt lat="43.04033" lon="1.1469">
        <ele>601.2</ele>
        <time>2024-04-21T13:11:51.994Z</time>
      </trkpt>
      <trkpt lat="43.04036" lon="1.14687">
        <ele>600.6</ele>
        <time>2024-04-21T13:11:52.994Z</time>
      </trkpt>
      <trkpt lat="43.0404" lon="1.14685">
        <ele>600.6</ele>
        <time>2024-04-21T13:11:53.994Z</time>
      </trkpt>
      <trkpt lat="43.04043" lon="1.14682">
        <ele>600.6</ele>
        <time>2024-04-21T13:11:54.994Z</time>
      </trkpt>
      <trkpt lat="43.04047" lon="1.1468">
        <ele>600.2</ele>
        <time>2024-04-21T13:11:55.994Z</time>
      </trkpt>
      <trkpt lat="43.04052" lon="1.14678">
        <ele>600.2</ele>
        <time>2024-04-21T13:11:56.994Z</time>
      </trkpt>
      <trkpt lat="43.04056" lon="1.14675">
        <ele>600.2</ele>
        <time>2024-04-21T13:11:57.994Z</time>
      </trkpt>
      <trkpt lat="43.04061" lon="1.14672">
        <ele>600</ele>
        <time>2024-04-21T13:11:58.994Z</time>
      </trkpt>
      <trkpt lat="43.04065" lon="1.1467">
        <ele>599.6</ele>
        <time>2024-04-21T13:11:59.994Z</time>
      </trkpt>
      <trkpt lat="43.0407" lon="1.14667">
        <ele>599.2</ele>
        <time>2024-04-21T13:12:00.994Z</time>
      </trkpt>
      <trkpt lat="43.04075" lon="1.14664">
        <ele>598.8</ele>
        <time>2024-04-21T13:12:01.994Z</time>
      </trkpt>
      <trkpt lat="43.0408" lon="1.14661">
        <ele>598.4</ele>
        <time>2024-04-21T13:12:02.994Z</time>
      </trkpt>
      <trkpt lat="43.04085" lon="1.14658">
        <ele>598.4</ele>
        <time>2024-04-21T13:12:03.994Z</time>
      </trkpt>
      <trkpt lat="43.04089" lon="1.14654">
        <ele>598</ele>
        <time>2024-04-21T13:12:04.994Z</time>
      </trkpt>
      <trkpt lat="43.04094" lon="1.14651">
        <ele>597</ele>
        <time>2024-04-21T13:12:05.994Z</time>
      </trkpt>
      <trkpt lat="43.04099" lon="1.14648">
        <ele>596.6</ele>
        <time>2024-04-21T13:12:06.994Z</time>
      </trkpt>
      <trkpt lat="43.04105" lon="1.14645">
        <ele>596.6</ele>
        <time>2024-04-21T13:12:07.994Z</time>
      </trkpt>
      <trkpt lat="43.0411" lon="1.14642">
        <ele>596.6</ele>
        <time>2024-04-21T13:12:08.994Z</time>
      </trkpt>
      <trkpt lat="43.04115" lon="1.14639">
        <ele>596.2</ele>
        <time>2024-04-21T13:12:09.994Z</time>
      </trkpt>
      <trkpt lat="43.0412" lon="1.14635">
        <ele>596.6</ele>
        <time>2024-04-21T13:12:10.994Z</time>
      </trkpt>
      <trkpt lat="43.04125" lon="1.14632">
        <ele>597</ele>
        <time>2024-04-21T13:12:11.994Z</time>
      </trkpt>
      <trkpt lat="43.04131" lon="1.14629">
        <ele>596.6</ele>
        <time>2024-04-21T13:12:12.994Z</time>
      </trkpt>
      <trkpt lat="43.04136" lon="1.14627">
        <ele>596.6</ele>
        <time>2024-04-21T13:12:13.994Z</time>
      </trkpt>
      <trkpt lat="43.04141" lon="1.14623">
        <ele>596.2</ele>
        <time>2024-04-21T13:12:14.994Z</time>
      </trkpt>
      <trkpt lat="43.04146" lon="1.1462">
        <ele>597</ele>
        <time>2024-04-21T13:12:15.994Z</time>
      </trkpt>
      <trkpt lat="43.04151" lon="1.14617">
        <ele>596</ele>
        <time>2024-04-21T13:12:16.994Z</time>
      </trkpt>
      <trkpt lat="43.04156" lon="1.14614">
        <ele>595.6</ele>
        <time>2024-04-21T13:12:17.994Z</time>
      </trkpt>
      <trkpt lat="43.04161" lon="1.14611">
        <ele>595.6</ele>
        <time>2024-04-21T13:12:18.994Z</time>
      </trkpt>
      <trkpt lat="43.04166" lon="1.14607">
        <ele>595.6</ele>
        <time>2024-04-21T13:12:19.994Z</time>
      </trkpt>
      <trkpt lat="43.04171" lon="1.14604">
        <ele>595.4</ele>
        <time>2024-04-21T13:12:20.994Z</time>
      </trkpt>
      <trkpt lat="43.04175" lon="1.146">
        <ele>595.4</ele>
        <time>2024-04-21T13:12:21.994Z</time>
      </trkpt>
      <trkpt lat="43.04179" lon="1.14596">
        <ele>595.2</ele>
        <time>2024-04-21T13:12:22.994Z</time>
      </trkpt>
      <trkpt lat="43.04184" lon="1.14593">
        <ele>594.8</ele>
        <time>2024-04-21T13:12:23.994Z</time>
      </trkpt>
      <trkpt lat="43.04188" lon="1.14589">
        <ele>594.4</ele>
        <time>2024-04-21T13:12:24.994Z</time>
      </trkpt>
      <trkpt lat="43.04192" lon="1.14585">
        <ele>594.2</ele>
        <time>2024-04-21T13:12:25.994Z</time>
      </trkpt>
      <trkpt lat="43.04195" lon="1.1458">
        <ele>594.2</ele>
        <time>2024-04-21T13:12:26.994Z</time>
      </trkpt>
      <trkpt lat="43.042" lon="1.14577">
        <ele>593.8</ele>
        <time>2024-04-21T13:12:27.994Z</time>
      </trkpt>
      <trkpt lat="43.04203" lon="1.14572">
        <ele>593.8</ele>
        <time>2024-04-21T13:12:28.994Z</time>
      </trkpt>
      <trkpt lat="43.04207" lon="1.14569">
        <ele>593.4</ele>
        <time>2024-04-21T13:12:29.994Z</time>
      </trkpt>
      <trkpt lat="43.04211" lon="1.14565">
        <ele>593.4</ele>
        <time>2024-04-21T13:12:30.994Z</time>
      </trkpt>
      <trkpt lat="43.04214" lon="1.1456">
        <ele>592.8</ele>
        <time>2024-04-21T13:12:31.994Z</time>
      </trkpt>
      <trkpt lat="43.04218" lon="1.14557">
        <ele>592.8</ele>
        <time>2024-04-21T13:12:32.994Z</time>
      </trkpt>
      <trkpt lat="43.04221" lon="1.14553">
        <ele>592.8</ele>
        <time>2024-04-21T13:12:33.994Z</time>
      </trkpt>
      <trkpt lat="43.04225" lon="1.14548">
        <ele>592.6</ele>
        <time>2024-04-21T13:12:34.994Z</time>
      </trkpt>
      <trkpt lat="43.04228" lon="1.14544">
        <ele>592.6</ele>
        <time>2024-04-21T13:12:35.994Z</time>
      </trkpt>
      <trkpt lat="43.04231" lon="1.14539">
        <ele>592.2</ele>
        <time>2024-04-21T13:12:36.994Z</time>
      </trkpt>
      <trkpt lat="43.04234" lon="1.14534">
        <ele>592.2</ele>
        <time>2024-04-21T13:12:37.994Z</time>
      </trkpt>
      <trkpt lat="43.04238" lon="1.14529">
        <ele>592.2</ele>
        <time>2024-04-21T13:12:38.994Z</time>
      </trkpt>
      <trkpt lat="43.04242" lon="1.14524">
        <ele>591.8</ele>
        <time>2024-04-21T13:12:39.994Z</time>
      </trkpt>
      <trkpt lat="43.04246" lon="1.14519">
        <ele>591.6</ele>
        <time>2024-04-21T13:12:40.994Z</time>
      </trkpt>
      <trkpt lat="43.0425" lon="1.14513">
        <ele>591.2</ele>
        <time>2024-04-21T13:12:41.994Z</time>
      </trkpt>
      <trkpt lat="43.04254" lon="1.14508">
        <ele>591</ele>
        <time>2024-04-21T13:12:42.994Z</time>
      </trkpt>
      <trkpt lat="43.04257" lon="1.145">
        <ele>591</ele>
        <time>2024-04-21T13:12:43.994Z</time>
      </trkpt>
      <trkpt lat="43.04261" lon="1.14494">
        <ele>590.4</ele>
        <time>2024-04-21T13:12:44.994Z</time>
      </trkpt>
      <trkpt lat="43.04264" lon="1.14486">
        <ele>590.4</ele>
        <time>2024-04-21T13:12:45.994Z</time>
      </trkpt>
      <trkpt lat="43.04267" lon="1.14479">
        <ele>590</ele>
        <time>2024-04-21T13:12:46.994Z</time>
      </trkpt>
      <trkpt lat="43.0427" lon="1.14473">
        <ele>589.6</ele>
        <time>2024-04-21T13:12:47.994Z</time>
      </trkpt>
      <trkpt lat="43.04273" lon="1.14467">
        <ele>589.4</ele>
        <time>2024-04-21T13:12:48.994Z</time>
      </trkpt>
      <trkpt lat="43.04276" lon="1.14461">
        <ele>589</ele>
        <time>2024-04-21T13:12:49.994Z</time>
      </trkpt>
      <trkpt lat="43.04276" lon="1.14457">
        <ele>588.4</ele>
        <time>2024-04-21T13:12:50.994Z</time>
      </trkpt>
      <trkpt lat="43.04276" lon="1.14452">
        <ele>588</ele>
        <time>2024-04-21T13:12:51.994Z</time>
      </trkpt>
      <trkpt lat="43.04276" lon="1.14447">
        <ele>587.8</ele>
        <time>2024-04-21T13:12:52.994Z</time>
      </trkpt>
      <trkpt lat="43.04274" lon="1.14443">
        <ele>587.8</ele>
        <time>2024-04-21T13:12:53.994Z</time>
      </trkpt>
      <trkpt lat="43.04271" lon="1.14439">
        <ele>587.8</ele>
        <time>2024-04-21T13:12:54.994Z</time>
      </trkpt>
      <trkpt lat="43.04268" lon="1.14436">
        <ele>587.8</ele>
        <time>2024-04-21T13:12:55.994Z</time>
      </trkpt>
      <trkpt lat="43.04265" lon="1.14433">
        <ele>587.8</ele>
        <time>2024-04-21T13:12:56.994Z</time>
      </trkpt>
      <trkpt lat="43.04262" lon="1.14431">
        <ele>588</ele>
        <time>2024-04-21T13:12:57.994Z</time>
      </trkpt>
      <trkpt lat="43.04259" lon="1.14429">
        <ele>588.4</ele>
        <time>2024-04-21T13:12:58.994Z</time>
      </trkpt>
      <trkpt lat="43.04256" lon="1.14427">
        <ele>588.4</ele>
        <time>2024-04-21T13:12:59.994Z</time>
      </trkpt>
      <trkpt lat="43.04254" lon="1.14424">
        <ele>588.8</ele>
        <time>2024-04-21T13:13:00.994Z</time>
      </trkpt>
      <trkpt lat="43.04252" lon="1.14422">
        <ele>589</ele>
        <time>2024-04-21T13:13:01.994Z</time>
      </trkpt>
      <trkpt lat="43.04249" lon="1.1442">
        <ele>589.2</ele>
        <time>2024-04-21T13:13:02.994Z</time>
      </trkpt>
      <trkpt lat="43.04247" lon="1.14418">
        <ele>589.4</ele>
        <time>2024-04-21T13:13:03.994Z</time>
      </trkpt>
      <trkpt lat="43.04244" lon="1.14415">
        <ele>589.8</ele>
        <time>2024-04-21T13:13:04.994Z</time>
      </trkpt>
      <trkpt lat="43.04242" lon="1.14412">
        <ele>589.8</ele>
        <time>2024-04-21T13:13:05.994Z</time>
      </trkpt>
      <trkpt lat="43.0424" lon="1.1441">
        <ele>589.8</ele>
        <time>2024-04-21T13:13:06.994Z</time>
      </trkpt>
      <trkpt lat="43.04238" lon="1.14407">
        <ele>590</ele>
        <time>2024-04-21T13:13:07.994Z</time>
      </trkpt>
      <trkpt lat="43.04237" lon="1.14402">
        <ele>590</ele>
        <time>2024-04-21T13:13:08.994Z</time>
      </trkpt>
      <trkpt lat="43.04236" lon="1.14397">
        <ele>590</ele>
        <time>2024-04-21T13:13:09.994Z</time>
      </trkpt>
      <trkpt lat="43.04236" lon="1.14391">
        <ele>590</ele>
        <time>2024-04-21T13:13:10.994Z</time>
      </trkpt>
      <trkpt lat="43.04239" lon="1.14385">
        <ele>589.8</ele>
        <time>2024-04-21T13:13:11.994Z</time>
      </trkpt>
      <trkpt lat="43.0424" lon="1.14379">
        <ele>589.4</ele>
        <time>2024-04-21T13:13:12.994Z</time>
      </trkpt>
      <trkpt lat="43.04241" lon="1.14372">
        <ele>589.4</ele>
        <time>2024-04-21T13:13:13.994Z</time>
      </trkpt>
      <trkpt lat="43.04242" lon="1.14365">
        <ele>589.4</ele>
        <time>2024-04-21T13:13:14.994Z</time>
      </trkpt>
      <trkpt lat="43.04243" lon="1.14358">
        <ele>589</ele>
        <time>2024-04-21T13:13:15.994Z</time>
      </trkpt>
      <trkpt lat="43.04244" lon="1.1435">
        <ele>588.6</ele>
        <time>2024-04-21T13:13:16.994Z</time>
      </trkpt>
      <trkpt lat="43.04246" lon="1.14342">
        <ele>588.4</ele>
        <time>2024-04-21T13:13:17.994Z</time>
      </trkpt>
      <trkpt lat="43.04247" lon="1.14333">
        <ele>587.6</ele>
        <time>2024-04-21T13:13:18.994Z</time>
      </trkpt>
      <trkpt lat="43.04248" lon="1.14324">
        <ele>587</ele>
        <time>2024-04-21T13:13:19.994Z</time>
      </trkpt>
      <trkpt lat="43.0425" lon="1.14316">
        <ele>586.4</ele>
        <time>2024-04-21T13:13:20.994Z</time>
      </trkpt>
      <trkpt lat="43.04252" lon="1.14307">
        <ele>585.6</ele>
        <time>2024-04-21T13:13:21.994Z</time>
      </trkpt>
      <trkpt lat="43.04253" lon="1.14298">
        <ele>584.8</ele>
        <time>2024-04-21T13:13:22.994Z</time>
      </trkpt>
      <trkpt lat="43.04255" lon="1.14289">
        <ele>584.4</ele>
        <time>2024-04-21T13:13:23.994Z</time>
      </trkpt>
      <trkpt lat="43.04258" lon="1.14279">
        <ele>584.2</ele>
        <time>2024-04-21T13:13:24.994Z</time>
      </trkpt>
      <trkpt lat="43.0426" lon="1.14269">
        <ele>583.4</ele>
        <time>2024-04-21T13:13:25.994Z</time>
      </trkpt>
      <trkpt lat="43.04262" lon="1.14259">
        <ele>582.8</ele>
        <time>2024-04-21T13:13:26.994Z</time>
      </trkpt>
      <trkpt lat="43.04265" lon="1.14249">
        <ele>582</ele>
        <time>2024-04-21T13:13:27.994Z</time>
      </trkpt>
      <trkpt lat="43.04267" lon="1.14239">
        <ele>581.4</ele>
        <time>2024-04-21T13:13:28.994Z</time>
      </trkpt>
      <trkpt lat="43.0427" lon="1.14229">
        <ele>581</ele>
        <time>2024-04-21T13:13:29.994Z</time>
      </trkpt>
      <trkpt lat="43.04274" lon="1.14219">
        <ele>580.8</ele>
        <time>2024-04-21T13:13:30.994Z</time>
      </trkpt>
      <trkpt lat="43.04277" lon="1.14209">
        <ele>580</ele>
        <time>2024-04-21T13:13:31.994Z</time>
      </trkpt>
      <trkpt lat="43.0428" lon="1.14198">
        <ele>579.4</ele>
        <time>2024-04-21T13:13:32.994Z</time>
      </trkpt>
      <trkpt lat="43.04284" lon="1.14188">
        <ele>578.6</ele>
        <time>2024-04-21T13:13:33.994Z</time>
      </trkpt>
      <trkpt lat="43.04287" lon="1.14177">
        <ele>578</ele>
        <time>2024-04-21T13:13:34.994Z</time>
      </trkpt>
      <trkpt lat="43.04291" lon="1.14167">
        <ele>577.4</ele>
        <time>2024-04-21T13:13:35.994Z</time>
      </trkpt>
      <trkpt lat="43.04294" lon="1.14155">
        <ele>576.4</ele>
        <time>2024-04-21T13:13:36.994Z</time>
      </trkpt>
      <trkpt lat="43.04298" lon="1.14144">
        <ele>575.8</ele>
        <time>2024-04-21T13:13:37.994Z</time>
      </trkpt>
      <trkpt lat="43.04301" lon="1.14133">
        <ele>575.2</ele>
        <time>2024-04-21T13:13:38.994Z</time>
      </trkpt>
      <trkpt lat="43.04305" lon="1.14121">
        <ele>574.4</ele>
        <time>2024-04-21T13:13:39.994Z</time>
      </trkpt>
      <trkpt lat="43.04308" lon="1.1411">
        <ele>573.6</ele>
        <time>2024-04-21T13:13:40.994Z</time>
      </trkpt>
      <trkpt lat="43.04312" lon="1.14101">
        <ele>572.6</ele>
        <time>2024-04-21T13:13:41.994Z</time>
      </trkpt>
      <trkpt lat="43.04315" lon="1.14092">
        <ele>571.8</ele>
        <time>2024-04-21T13:13:42.994Z</time>
      </trkpt>
      <trkpt lat="43.04319" lon="1.14083">
        <ele>571.2</ele>
        <time>2024-04-21T13:13:43.994Z</time>
      </trkpt>
      <trkpt lat="43.04324" lon="1.14075">
        <ele>570.4</ele>
        <time>2024-04-21T13:13:44.994Z</time>
      </trkpt>
      <trkpt lat="43.0433" lon="1.14068">
        <ele>569.8</ele>
        <time>2024-04-21T13:13:45.994Z</time>
      </trkpt>
      <trkpt lat="43.04336" lon="1.14061">
        <ele>569</ele>
        <time>2024-04-21T13:13:46.994Z</time>
      </trkpt>
      <trkpt lat="43.04342" lon="1.14054">
        <ele>568</ele>
        <time>2024-04-21T13:13:47.994Z</time>
      </trkpt>
      <trkpt lat="43.04349" lon="1.14046">
        <ele>567.2</ele>
        <time>2024-04-21T13:13:48.994Z</time>
      </trkpt>
      <trkpt lat="43.04355" lon="1.14038">
        <ele>566.2</ele>
        <time>2024-04-21T13:13:49.994Z</time>
      </trkpt>
      <trkpt lat="43.04361" lon="1.14031">
        <ele>565.2</ele>
        <time>2024-04-21T13:13:50.994Z</time>
      </trkpt>
      <trkpt lat="43.04364" lon="1.14024">
        <ele>564.2</ele>
        <time>2024-04-21T13:13:51.994Z</time>
      </trkpt>
      <trkpt lat="43.04365" lon="1.14016">
        <ele>563.4</ele>
        <time>2024-04-21T13:13:52.994Z</time>
      </trkpt>
      <trkpt lat="43.04363" lon="1.14011">
        <ele>562.2</ele>
        <time>2024-04-21T13:13:53.994Z</time>
      </trkpt>
      <trkpt lat="43.04359" lon="1.14007">
        <ele>561.8</ele>
        <time>2024-04-21T13:13:54.994Z</time>
      </trkpt>
      <trkpt lat="43.04355" lon="1.14001">
        <ele>561.4</ele>
        <time>2024-04-21T13:13:55.994Z</time>
      </trkpt>
      <trkpt lat="43.04351" lon="1.13997">
        <ele>561.4</ele>
        <time>2024-04-21T13:13:56.994Z</time>
      </trkpt>
      <trkpt lat="43.04346" lon="1.13991">
        <ele>560.8</ele>
        <time>2024-04-21T13:13:57.994Z</time>
      </trkpt>
      <trkpt lat="43.04341" lon="1.13987">
        <ele>560.2</ele>
        <time>2024-04-21T13:13:58.994Z</time>
      </trkpt>
      <trkpt lat="43.04337" lon="1.1398">
        <ele>559.8</ele>
        <time>2024-04-21T13:13:59.994Z</time>
      </trkpt>
      <trkpt lat="43.04333" lon="1.13975">
        <ele>559.2</ele>
        <time>2024-04-21T13:14:00.994Z</time>
      </trkpt>
      <trkpt lat="43.0433" lon="1.1397">
        <ele>558.8</ele>
        <time>2024-04-21T13:14:01.994Z</time>
      </trkpt>
      <trkpt lat="43.04328" lon="1.13965">
        <ele>558.4</ele>
        <time>2024-04-21T13:14:02.994Z</time>
      </trkpt>
      <trkpt lat="43.04327" lon="1.13958">
        <ele>557.8</ele>
        <time>2024-04-21T13:14:03.994Z</time>
      </trkpt>
      <trkpt lat="43.04328" lon="1.13953">
        <ele>557</ele>
        <time>2024-04-21T13:14:04.994Z</time>
      </trkpt>
      <trkpt lat="43.04328" lon="1.13948">
        <ele>556.4</ele>
        <time>2024-04-21T13:14:05.994Z</time>
      </trkpt>
      <trkpt lat="43.04328" lon="1.13943">
        <ele>555.8</ele>
        <time>2024-04-21T13:14:06.994Z</time>
      </trkpt>
      <trkpt lat="43.04327" lon="1.13938">
        <ele>555.2</ele>
        <time>2024-04-21T13:14:07.994Z</time>
      </trkpt>
      <trkpt lat="43.04325" lon="1.13935">
        <ele>554.8</ele>
        <time>2024-04-21T13:14:08.994Z</time>
      </trkpt>
      <trkpt lat="43.04324" lon="1.13933">
        <ele>554.2</ele>
        <time>2024-04-21T13:14:09.994Z</time>
      </trkpt>
      <trkpt lat="43.04322" lon="1.1393">
        <ele>553.8</ele>
        <time>2024-04-21T13:14:10.994Z</time>
      </trkpt>
      <trkpt lat="43.04318" lon="1.13927">
        <ele>553.4</ele>
        <time>2024-04-21T13:14:11.994Z</time>
      </trkpt>
      <trkpt lat="43.04316" lon="1.13924">
        <ele>553</ele>
        <time>2024-04-21T13:14:12.994Z</time>
      </trkpt>
      <trkpt lat="43.04312" lon="1.13922">
        <ele>553</ele>
        <time>2024-04-21T13:14:13.994Z</time>
      </trkpt>
      <trkpt lat="43.0431" lon="1.13919">
        <ele>552.6</ele>
        <time>2024-04-21T13:14:14.994Z</time>
      </trkpt>
      <trkpt lat="43.04308" lon="1.13914">
        <ele>552.4</ele>
        <time>2024-04-21T13:14:15.994Z</time>
      </trkpt>
      <trkpt lat="43.04307" lon="1.13907">
        <ele>551.8</ele>
        <time>2024-04-21T13:14:16.994Z</time>
      </trkpt>
      <trkpt lat="43.04308" lon="1.139">
        <ele>551.2</ele>
        <time>2024-04-21T13:14:17.994Z</time>
      </trkpt>
      <trkpt lat="43.0431" lon="1.13893">
        <ele>550.6</ele>
        <time>2024-04-21T13:14:18.994Z</time>
      </trkpt>
      <trkpt lat="43.04313" lon="1.13888">
        <ele>550.2</ele>
        <time>2024-04-21T13:14:19.994Z</time>
      </trkpt>
      <trkpt lat="43.04316" lon="1.13882">
        <ele>549.4</ele>
        <time>2024-04-21T13:14:20.994Z</time>
      </trkpt>
      <trkpt lat="43.04318" lon="1.13877">
        <ele>548.8</ele>
        <time>2024-04-21T13:14:21.994Z</time>
      </trkpt>
      <trkpt lat="43.0432" lon="1.13871">
        <ele>547.8</ele>
        <time>2024-04-21T13:14:22.994Z</time>
      </trkpt>
      <trkpt lat="43.0432" lon="1.13866">
        <ele>547</ele>
        <time>2024-04-21T13:14:23.994Z</time>
      </trkpt>
      <trkpt lat="43.04322" lon="1.13861">
        <ele>546.2</ele>
        <time>2024-04-21T13:14:24.994Z</time>
      </trkpt>
      <trkpt lat="43.04323" lon="1.13857">
        <ele>545.2</ele>
        <time>2024-04-21T13:14:25.994Z</time>
      </trkpt>
      <trkpt lat="43.04324" lon="1.13852">
        <ele>544.2</ele>
        <time>2024-04-21T13:14:26.994Z</time>
      </trkpt>
      <trkpt lat="43.04324" lon="1.13848">
        <ele>543.4</ele>
        <time>2024-04-21T13:14:27.994Z</time>
      </trkpt>
      <trkpt lat="43.04324" lon="1.13843">
        <ele>542.6</ele>
        <time>2024-04-21T13:14:28.994Z</time>
      </trkpt>
      <trkpt lat="43.04323" lon="1.13838">
        <ele>541.4</ele>
        <time>2024-04-21T13:14:29.994Z</time>
      </trkpt>
      <trkpt lat="43.04322" lon="1.13833">
        <ele>540.8</ele>
        <time>2024-04-21T13:14:30.994Z</time>
      </trkpt>
      <trkpt lat="43.04322" lon="1.13827">
        <ele>540.2</ele>
        <time>2024-04-21T13:14:31.994Z</time>
      </trkpt>
      <trkpt lat="43.04321" lon="1.13822">
        <ele>540</ele>
        <time>2024-04-21T13:14:32.994Z</time>
      </trkpt>
      <trkpt lat="43.0432" lon="1.13817">
        <ele>540</ele>
        <time>2024-04-21T13:14:33.994Z</time>
      </trkpt>
      <trkpt lat="43.04318" lon="1.13812">
        <ele>539.2</ele>
        <time>2024-04-21T13:14:34.994Z</time>
      </trkpt>
      <trkpt lat="43.04317" lon="1.13807">
        <ele>539</ele>
        <time>2024-04-21T13:14:35.994Z</time>
      </trkpt>
      <trkpt lat="43.04316" lon="1.13803">
        <ele>538.4</ele>
        <time>2024-04-21T13:14:36.994Z</time>
      </trkpt>
      <trkpt lat="43.04315" lon="1.13799">
        <ele>537.6</ele>
        <time>2024-04-21T13:14:37.994Z</time>
      </trkpt>
      <trkpt lat="43.04314" lon="1.13796">
        <ele>537.6</ele>
        <time>2024-04-21T13:14:38.994Z</time>
      </trkpt>
      <trkpt lat="43.04314" lon="1.13794">
        <ele>536.8</ele>
        <time>2024-04-21T13:14:39.994Z</time>
      </trkpt>
      <trkpt lat="43.04314" lon="1.13791">
        <ele>536.4</ele>
        <time>2024-04-21T13:14:40.994Z</time>
      </trkpt>
      <trkpt lat="43.04313" lon="1.13787">
        <ele>535.8</ele>
        <time>2024-04-21T13:14:41.994Z</time>
      </trkpt>
      <trkpt lat="43.04312" lon="1.13784">
        <ele>535.2</ele>
        <time>2024-04-21T13:14:42.994Z</time>
      </trkpt>
      <trkpt lat="43.04312" lon="1.13783">
        <ele>534.8</ele>
        <time>2024-04-21T13:14:43.994Z</time>
      </trkpt>
      <trkpt lat="43.04312" lon="1.13783">
        <ele>534.4</ele>
        <time>2024-04-21T13:14:44.994Z</time>
      </trkpt>
      <trkpt lat="43.04312" lon="1.13782">
        <ele>534.4</ele>
        <time>2024-04-21T13:14:45.994Z</time>
      </trkpt>
      <trkpt lat="43.04312" lon="1.13782">
        <ele>534</ele>
        <time>2024-04-21T13:14:46.994Z</time>
      </trkpt>
      <trkpt lat="43.04312" lon="1.1378">
        <ele>534</ele>
        <time>2024-04-21T13:14:47.994Z</time>
      </trkpt>
      <trkpt lat="43.04312" lon="1.13776">
        <ele>533.4</ele>
        <time>2024-04-21T13:14:48.994Z</time>
      </trkpt>
      <trkpt lat="43.04312" lon="1.13772">
        <ele>533</ele>
        <time>2024-04-21T13:14:49.994Z</time>
      </trkpt>
      <trkpt lat="43.04312" lon="1.13767">
        <ele>532.8</ele>
        <time>2024-04-21T13:14:50.994Z</time>
      </trkpt>
      <trkpt lat="43.04312" lon="1.13763">
        <ele>532.4</ele>
        <time>2024-04-21T13:14:51.994Z</time>
      </trkpt>
      <trkpt lat="43.04312" lon="1.13759">
        <ele>531.8</ele>
        <time>2024-04-21T13:14:52.994Z</time>
      </trkpt>
      <trkpt lat="43.04312" lon="1.13753">
        <ele>531.2</ele>
        <time>2024-04-21T13:14:53.994Z</time>
      </trkpt>
      <trkpt lat="43.04311" lon="1.13748">
        <ele>530.6</ele>
        <time>2024-04-21T13:14:54.994Z</time>
      </trkpt>
      <trkpt lat="43.04311" lon="1.13743">
        <ele>530.2</ele>
        <time>2024-04-21T13:14:55.994Z</time>
      </trkpt>
      <trkpt lat="43.04311" lon="1.13743">
        <ele>530</ele>
        <time>2024-04-21T13:14:56.994Z</time>
      </trkpt>
      <trkpt lat="43.04312" lon="1.13738">
        <ele>529.6</ele>
        <time>2024-04-21T13:14:57.994Z</time>
      </trkpt>
      <trkpt lat="43.04312" lon="1.13734">
        <ele>529.2</ele>
        <time>2024-04-21T13:14:58.994Z</time>
      </trkpt>
      <trkpt lat="43.04312" lon="1.13731">
        <ele>528.6</ele>
        <time>2024-04-21T13:14:59.994Z</time>
      </trkpt>
      <trkpt lat="43.04312" lon="1.13727">
        <ele>528.2</ele>
        <time>2024-04-21T13:15:00.994Z</time>
      </trkpt>
      <trkpt lat="43.04312" lon="1.13722">
        <ele>528.2</ele>
        <time>2024-04-21T13:15:01.994Z</time>
      </trkpt>
      <trkpt lat="43.04313" lon="1.13717">
        <ele>527.6</ele>
        <time>2024-04-21T13:15:02.994Z</time>
      </trkpt>
      <trkpt lat="43.04314" lon="1.13713">
        <ele>527.2</ele>
        <time>2024-04-21T13:15:03.994Z</time>
      </trkpt>
      <trkpt lat="43.04315" lon="1.13708">
        <ele>527</ele>
        <time>2024-04-21T13:15:04.994Z</time>
      </trkpt>
      <trkpt lat="43.04316" lon="1.13703">
        <ele>527</ele>
        <time>2024-04-21T13:15:05.994Z</time>
      </trkpt>
      <trkpt lat="43.04317" lon="1.137">
        <ele>527</ele>
        <time>2024-04-21T13:15:06.994Z</time>
      </trkpt>
      <trkpt lat="43.04318" lon="1.13696">
        <ele>526.4</ele>
        <time>2024-04-21T13:15:07.994Z</time>
      </trkpt>
      <trkpt lat="43.04319" lon="1.13693">
        <ele>526.4</ele>
        <time>2024-04-21T13:15:08.994Z</time>
      </trkpt>
      <trkpt lat="43.04321" lon="1.13689">
        <ele>525.8</ele>
        <time>2024-04-21T13:15:09.994Z</time>
      </trkpt>
      <trkpt lat="43.04322" lon="1.13685">
        <ele>525.4</ele>
        <time>2024-04-21T13:15:10.994Z</time>
      </trkpt>
      <trkpt lat="43.04323" lon="1.13682">
        <ele>525.4</ele>
        <time>2024-04-21T13:15:11.994Z</time>
      </trkpt>
      <trkpt lat="43.04324" lon="1.13679">
        <ele>525.4</ele>
        <time>2024-04-21T13:15:12.994Z</time>
      </trkpt>
      <trkpt lat="43.04326" lon="1.13676">
        <ele>525</ele>
        <time>2024-04-21T13:15:13.994Z</time>
      </trkpt>
      <trkpt lat="43.04327" lon="1.13673">
        <ele>524.4</ele>
        <time>2024-04-21T13:15:14.994Z</time>
      </trkpt>
      <trkpt lat="43.04328" lon="1.13669">
        <ele>524.2</ele>
        <time>2024-04-21T13:15:15.994Z</time>
      </trkpt>
      <trkpt lat="43.04329" lon="1.13665">
        <ele>523.6</ele>
        <time>2024-04-21T13:15:16.994Z</time>
      </trkpt>
      <trkpt lat="43.04331" lon="1.13662">
        <ele>523.4</ele>
        <time>2024-04-21T13:15:17.994Z</time>
      </trkpt>
      <trkpt lat="43.04332" lon="1.13658">
        <ele>523.4</ele>
        <time>2024-04-21T13:15:18.994Z</time>
      </trkpt>
      <trkpt lat="43.04333" lon="1.13654">
        <ele>523.2</ele>
        <time>2024-04-21T13:15:19.994Z</time>
      </trkpt>
      <trkpt lat="43.04335" lon="1.1365">
        <ele>522.8</ele>
        <time>2024-04-21T13:15:20.994Z</time>
      </trkpt>
      <trkpt lat="43.04336" lon="1.13645">
        <ele>522.4</ele>
        <time>2024-04-21T13:15:21.994Z</time>
      </trkpt>
      <trkpt lat="43.04338" lon="1.13641">
        <ele>522</ele>
        <time>2024-04-21T13:15:22.994Z</time>
      </trkpt>
      <trkpt lat="43.04339" lon="1.13637">
        <ele>521.2</ele>
        <time>2024-04-21T13:15:23.994Z</time>
      </trkpt>
      <trkpt lat="43.0434" lon="1.13633">
        <ele>520.8</ele>
        <time>2024-04-21T13:15:24.994Z</time>
      </trkpt>
      <trkpt lat="43.04342" lon="1.13629">
        <ele>520.8</ele>
        <time>2024-04-21T13:15:25.994Z</time>
      </trkpt>
      <trkpt lat="43.04343" lon="1.13625">
        <ele>520.4</ele>
        <time>2024-04-21T13:15:26.994Z</time>
      </trkpt>
      <trkpt lat="43.04344" lon="1.13621">
        <ele>520</ele>
        <time>2024-04-21T13:15:27.994Z</time>
      </trkpt>
      <trkpt lat="43.04347" lon="1.13613">
        <ele>520</ele>
        <time>2024-04-21T13:15:28.994Z</time>
      </trkpt>
      <trkpt lat="43.04347" lon="1.13609">
        <ele>519.8</ele>
        <time>2024-04-21T13:15:29.994Z</time>
      </trkpt>
      <trkpt lat="43.04349" lon="1.13606">
        <ele>519.8</ele>
        <time>2024-04-21T13:15:30.994Z</time>
      </trkpt>
      <trkpt lat="43.0435" lon="1.13602">
        <ele>519.2</ele>
        <time>2024-04-21T13:15:31.994Z</time>
      </trkpt>
      <trkpt lat="43.04351" lon="1.13598">
        <ele>518.8</ele>
        <time>2024-04-21T13:15:32.994Z</time>
      </trkpt>
      <trkpt lat="43.04352" lon="1.13594">
        <ele>518.4</ele>
        <time>2024-04-21T13:15:33.994Z</time>
      </trkpt>
      <trkpt lat="43.04353" lon="1.1359">
        <ele>517.8</ele>
        <time>2024-04-21T13:15:34.994Z</time>
      </trkpt>
      <trkpt lat="43.04354" lon="1.13587">
        <ele>517.8</ele>
        <time>2024-04-21T13:15:35.994Z</time>
      </trkpt>
      <trkpt lat="43.04355" lon="1.13583">
        <ele>517.8</ele>
        <time>2024-04-21T13:15:36.994Z</time>
      </trkpt>
      <trkpt lat="43.04356" lon="1.13579">
        <ele>517.6</ele>
        <time>2024-04-21T13:15:37.994Z</time>
      </trkpt>
      <trkpt lat="43.04357" lon="1.13575">
        <ele>517.6</ele>
        <time>2024-04-21T13:15:38.994Z</time>
      </trkpt>
      <trkpt lat="43.04358" lon="1.13572">
        <ele>517</ele>
        <time>2024-04-21T13:15:39.994Z</time>
      </trkpt>
      <trkpt lat="43.04359" lon="1.13568">
        <ele>516.6</ele>
        <time>2024-04-21T13:15:40.994Z</time>
      </trkpt>
      <trkpt lat="43.0436" lon="1.13564">
        <ele>516.2</ele>
        <time>2024-04-21T13:15:41.994Z</time>
      </trkpt>
      <trkpt lat="43.04361" lon="1.1356">
        <ele>515.6</ele>
        <time>2024-04-21T13:15:42.994Z</time>
      </trkpt>
      <trkpt lat="43.04362" lon="1.13556">
        <ele>515.6</ele>
        <time>2024-04-21T13:15:43.994Z</time>
      </trkpt>
      <trkpt lat="43.04362" lon="1.13552">
        <ele>515.4</ele>
        <time>2024-04-21T13:15:44.994Z</time>
      </trkpt>
      <trkpt lat="43.04363" lon="1.13547">
        <ele>515</ele>
        <time>2024-04-21T13:15:45.994Z</time>
      </trkpt>
      <trkpt lat="43.04364" lon="1.13544">
        <ele>514.6</ele>
        <time>2024-04-21T13:15:46.994Z</time>
      </trkpt>
      <trkpt lat="43.04365" lon="1.13541">
        <ele>514</ele>
        <time>2024-04-21T13:15:47.994Z</time>
      </trkpt>
      <trkpt lat="43.04365" lon="1.13538">
        <ele>514</ele>
        <time>2024-04-21T13:15:48.994Z</time>
      </trkpt>
      <trkpt lat="43.04365" lon="1.13534">
        <ele>513.4</ele>
        <time>2024-04-21T13:15:49.994Z</time>
      </trkpt>
      <trkpt lat="43.04365" lon="1.1353">
        <ele>513.2</ele>
        <time>2024-04-21T13:15:50.994Z</time>
      </trkpt>
      <trkpt lat="43.04365" lon="1.13527">
        <ele>512.6</ele>
        <time>2024-04-21T13:15:51.994Z</time>
      </trkpt>
      <trkpt lat="43.04366" lon="1.13523">
        <ele>512.6</ele>
        <time>2024-04-21T13:15:52.994Z</time>
      </trkpt>
      <trkpt lat="43.04366" lon="1.1352">
        <ele>512.4</ele>
        <time>2024-04-21T13:15:53.994Z</time>
      </trkpt>
      <trkpt lat="43.04367" lon="1.13516">
        <ele>512</ele>
        <time>2024-04-21T13:15:54.994Z</time>
      </trkpt>
      <trkpt lat="43.04367" lon="1.13513">
        <ele>511.6</ele>
        <time>2024-04-21T13:15:55.994Z</time>
      </trkpt>
      <trkpt lat="43.04367" lon="1.13509">
        <ele>511.2</ele>
        <time>2024-04-21T13:15:56.994Z</time>
      </trkpt>
      <trkpt lat="43.04367" lon="1.13506">
        <ele>510.8</ele>
        <time>2024-04-21T13:15:57.994Z</time>
      </trkpt>
      <trkpt lat="43.04368" lon="1.13503">
        <ele>508</ele>
        <time>2024-04-21T13:16:02.067Z</time>
      </trkpt>
      <trkpt lat="43.04369" lon="1.13495">
        <ele>507.3</ele>
        <time>2024-04-21T13:16:13.566Z</time>
      </trkpt>
      <trkpt lat="43.04369" lon="1.13495">
        <ele>507.3</ele>
        <time>2024-04-21T13:16:14.424Z</time>
      </trkpt>
      <trkpt lat="43.04367" lon="1.13483">
        <ele>505.3</ele>
        <time>2024-04-21T13:16:30.833Z</time>
      </trkpt>
      <trkpt lat="43.0437" lon="1.13483">
        <ele>507.4</ele>
        <time>2024-04-21T13:16:35.519Z</time>
      </trkpt>
      <trkpt lat="43.04369" lon="1.13481">
        <ele>507.2</ele>
        <time>2024-04-21T13:16:46.519Z</time>
      </trkpt>
      <trkpt lat="43.04369" lon="1.1348">
        <ele>507.2</ele>
        <time>2024-04-21T13:16:47.519Z</time>
      </trkpt>
      <trkpt lat="43.04369" lon="1.1348">
        <ele>507.2</ele>
        <time>2024-04-21T13:16:48.519Z</time>
      </trkpt>
      <trkpt lat="43.04369" lon="1.13477">
        <ele>507</ele>
        <time>2024-04-21T13:16:53.519Z</time>
      </trkpt>
      <trkpt lat="43.04369" lon="1.13477">
        <ele>507</ele>
        <time>2024-04-21T13:16:54.519Z</time>
      </trkpt>
      <trkpt lat="43.04369" lon="1.13478">
        <ele>507</ele>
        <time>2024-04-21T13:16:55.519Z</time>
      </trkpt>
      <trkpt lat="43.04367" lon="1.13475">
        <ele>506.8</ele>
        <time>2024-04-21T13:17:26.519Z</time>
      </trkpt>
      <trkpt lat="43.04367" lon="1.13472">
        <ele>506.4</ele>
        <time>2024-04-21T13:17:27.519Z</time>
      </trkpt>
      <trkpt lat="43.04366" lon="1.13469">
        <ele>506.4</ele>
        <time>2024-04-21T13:17:28.519Z</time>
      </trkpt>
      <trkpt lat="43.04365" lon="1.13465">
        <ele>506</ele>
        <time>2024-04-21T13:17:29.519Z</time>
      </trkpt>
      <trkpt lat="43.04363" lon="1.13461">
        <ele>505.6</ele>
        <time>2024-04-21T13:17:30.519Z</time>
      </trkpt>
      <trkpt lat="43.04361" lon="1.13457">
        <ele>506</ele>
        <time>2024-04-21T13:17:31.519Z</time>
      </trkpt>
      <trkpt lat="43.04359" lon="1.13453">
        <ele>505</ele>
        <time>2024-04-21T13:17:32.519Z</time>
      </trkpt>
      <trkpt lat="43.04357" lon="1.13449">
        <ele>504.4</ele>
        <time>2024-04-21T13:17:33.519Z</time>
      </trkpt>
      <trkpt lat="43.04355" lon="1.13445">
        <ele>503.6</ele>
        <time>2024-04-21T13:17:34.519Z</time>
      </trkpt>
      <trkpt lat="43.04354" lon="1.1344">
        <ele>503</ele>
        <time>2024-04-21T13:17:35.519Z</time>
      </trkpt>
      <trkpt lat="43.04352" lon="1.13435">
        <ele>503</ele>
        <time>2024-04-21T13:17:36.519Z</time>
      </trkpt>
      <trkpt lat="43.04351" lon="1.1343">
        <ele>502.6</ele>
        <time>2024-04-21T13:17:37.519Z</time>
      </trkpt>
      <trkpt lat="43.0435" lon="1.13425">
        <ele>502</ele>
        <time>2024-04-21T13:17:38.519Z</time>
      </trkpt>
      <trkpt lat="43.04349" lon="1.1342">
        <ele>502</ele>
        <time>2024-04-21T13:17:39.519Z</time>
      </trkpt>
      <trkpt lat="43.04348" lon="1.13415">
        <ele>501.6</ele>
        <time>2024-04-21T13:17:40.519Z</time>
      </trkpt>
      <trkpt lat="43.04347" lon="1.13411">
        <ele>501</ele>
        <time>2024-04-21T13:17:41.519Z</time>
      </trkpt>
      <trkpt lat="43.04346" lon="1.13405">
        <ele>500.6</ele>
        <time>2024-04-21T13:17:42.519Z</time>
      </trkpt>
      <trkpt lat="43.04346" lon="1.134">
        <ele>499.6</ele>
        <time>2024-04-21T13:17:43.519Z</time>
      </trkpt>
      <trkpt lat="43.04345" lon="1.13395">
        <ele>499.4</ele>
        <time>2024-04-21T13:17:44.519Z</time>
      </trkpt>
      <trkpt lat="43.04344" lon="1.1339">
        <ele>499.8</ele>
        <time>2024-04-21T13:17:45.519Z</time>
      </trkpt>
      <trkpt lat="43.04344" lon="1.13385">
        <ele>499.8</ele>
        <time>2024-04-21T13:17:46.519Z</time>
      </trkpt>
      <trkpt lat="43.04343" lon="1.13381">
        <ele>499.4</ele>
        <time>2024-04-21T13:17:47.519Z</time>
      </trkpt>
      <trkpt lat="43.04342" lon="1.13378">
        <ele>499.4</ele>
        <time>2024-04-21T13:17:48.519Z</time>
      </trkpt>
      <trkpt lat="43.04342" lon="1.13375">
        <ele>499.4</ele>
        <time>2024-04-21T13:17:49.519Z</time>
      </trkpt>
      <trkpt lat="43.04341" lon="1.13371">
        <ele>499.8</ele>
        <time>2024-04-21T13:17:50.519Z</time>
      </trkpt>
      <trkpt lat="43.04341" lon="1.13367">
        <ele>499.8</ele>
        <time>2024-04-21T13:17:51.519Z</time>
      </trkpt>
      <trkpt lat="43.04341" lon="1.13363">
        <ele>499.4</ele>
        <time>2024-04-21T13:17:52.519Z</time>
      </trkpt>
      <trkpt lat="43.04341" lon="1.13359">
        <ele>499.4</ele>
        <time>2024-04-21T13:17:53.519Z</time>
      </trkpt>
      <trkpt lat="43.04341" lon="1.13355">
        <ele>499.2</ele>
        <time>2024-04-21T13:17:54.519Z</time>
      </trkpt>
      <trkpt lat="43.04341" lon="1.13351">
        <ele>499.2</ele>
        <time>2024-04-21T13:17:55.519Z</time>
      </trkpt>
      <trkpt lat="43.04341" lon="1.13347">
        <ele>499.2</ele>
        <time>2024-04-21T13:17:56.519Z</time>
      </trkpt>
      <trkpt lat="43.04341" lon="1.13343">
        <ele>498.6</ele>
        <time>2024-04-21T13:17:57.519Z</time>
      </trkpt>
      <trkpt lat="43.04341" lon="1.1334">
        <ele>498.6</ele>
        <time>2024-04-21T13:17:58.519Z</time>
      </trkpt>
      <trkpt lat="43.04342" lon="1.13337">
        <ele>498.4</ele>
        <time>2024-04-21T13:17:59.519Z</time>
      </trkpt>
      <trkpt lat="43.04342" lon="1.13333">
        <ele>498.4</ele>
        <time>2024-04-21T13:18:00.519Z</time>
      </trkpt>
      <trkpt lat="43.04342" lon="1.13329">
        <ele>498.4</ele>
        <time>2024-04-21T13:18:01.519Z</time>
      </trkpt>
      <trkpt lat="43.04342" lon="1.13326">
        <ele>497.8</ele>
        <time>2024-04-21T13:18:02.519Z</time>
      </trkpt>
      <trkpt lat="43.04342" lon="1.13323">
        <ele>497.8</ele>
        <time>2024-04-21T13:18:03.519Z</time>
      </trkpt>
      <trkpt lat="43.04342" lon="1.13319">
        <ele>497.4</ele>
        <time>2024-04-21T13:18:04.519Z</time>
      </trkpt>
      <trkpt lat="43.04341" lon="1.13315">
        <ele>497.4</ele>
        <time>2024-04-21T13:18:05.519Z</time>
      </trkpt>
      <trkpt lat="43.04341" lon="1.13311">
        <ele>496.6</ele>
        <time>2024-04-21T13:18:06.519Z</time>
      </trkpt>
      <trkpt lat="43.04341" lon="1.13305">
        <ele>495.8</ele>
        <time>2024-04-21T13:18:07.519Z</time>
      </trkpt>
      <trkpt lat="43.04341" lon="1.13301">
        <ele>495.8</ele>
        <time>2024-04-21T13:18:08.519Z</time>
      </trkpt>
      <trkpt lat="43.0434" lon="1.13297">
        <ele>495.8</ele>
        <time>2024-04-21T13:18:09.519Z</time>
      </trkpt>
      <trkpt lat="43.0434" lon="1.13292">
        <ele>496</ele>
        <time>2024-04-21T13:18:10.519Z</time>
      </trkpt>
      <trkpt lat="43.0434" lon="1.13287">
        <ele>496</ele>
        <time>2024-04-21T13:18:11.519Z</time>
      </trkpt>
      <trkpt lat="43.0434" lon="1.13283">
        <ele>495.6</ele>
        <time>2024-04-21T13:18:12.519Z</time>
      </trkpt>
      <trkpt lat="43.0434" lon="1.13279">
        <ele>495.4</ele>
        <time>2024-04-21T13:18:13.519Z</time>
      </trkpt>
      <trkpt lat="43.04341" lon="1.13275">
        <ele>495</ele>
        <time>2024-04-21T13:18:14.519Z</time>
      </trkpt>
      <trkpt lat="43.04341" lon="1.13271">
        <ele>494.6</ele>
        <time>2024-04-21T13:18:15.519Z</time>
      </trkpt>
      <trkpt lat="43.04341" lon="1.13267">
        <ele>494.6</ele>
        <time>2024-04-21T13:18:16.519Z</time>
      </trkpt>
      <trkpt lat="43.04341" lon="1.13264">
        <ele>494.2</ele>
        <time>2024-04-21T13:18:17.519Z</time>
      </trkpt>
      <trkpt lat="43.04341" lon="1.1326">
        <ele>493.8</ele>
        <time>2024-04-21T13:18:18.519Z</time>
      </trkpt>
      <trkpt lat="43.04341" lon="1.13258">
        <ele>493.8</ele>
        <time>2024-04-21T13:18:19.519Z</time>
      </trkpt>
      <trkpt lat="43.04341" lon="1.13255">
        <ele>493.4</ele>
        <time>2024-04-21T13:18:20.519Z</time>
      </trkpt>
      <trkpt lat="43.04341" lon="1.13251">
        <ele>493.4</ele>
        <time>2024-04-21T13:18:21.519Z</time>
      </trkpt>
      <trkpt lat="43.04342" lon="1.13248">
        <ele>493.4</ele>
        <time>2024-04-21T13:18:22.519Z</time>
      </trkpt>
      <trkpt lat="43.04343" lon="1.13245">
        <ele>493.4</ele>
        <time>2024-04-21T13:18:23.519Z</time>
      </trkpt>
      <trkpt lat="43.04343" lon="1.13242">
        <ele>493</ele>
        <time>2024-04-21T13:18:24.519Z</time>
      </trkpt>
      <trkpt lat="43.04344" lon="1.13238">
        <ele>493</ele>
        <time>2024-04-21T13:18:25.519Z</time>
      </trkpt>
      <trkpt lat="43.04344" lon="1.13235">
        <ele>493</ele>
        <time>2024-04-21T13:18:26.519Z</time>
      </trkpt>
      <trkpt lat="43.04345" lon="1.13232">
        <ele>492.6</ele>
        <time>2024-04-21T13:18:27.519Z</time>
      </trkpt>
      <trkpt lat="43.04346" lon="1.13229">
        <ele>492.6</ele>
        <time>2024-04-21T13:18:28.519Z</time>
      </trkpt>
      <trkpt lat="43.04347" lon="1.13226">
        <ele>492.6</ele>
        <time>2024-04-21T13:18:29.519Z</time>
      </trkpt>
      <trkpt lat="43.04348" lon="1.13223">
        <ele>492.6</ele>
        <time>2024-04-21T13:18:30.519Z</time>
      </trkpt>
      <trkpt lat="43.04349" lon="1.13221">
        <ele>492.6</ele>
        <time>2024-04-21T13:18:31.519Z</time>
      </trkpt>
      <trkpt lat="43.04348" lon="1.13221">
        <ele>492.6</ele>
        <time>2024-04-21T13:18:32.519Z</time>
      </trkpt>
      <trkpt lat="43.04348" lon="1.13221">
        <ele>492.6</ele>
        <time>2024-04-21T13:18:33.519Z</time>
      </trkpt>
      <trkpt lat="43.04347" lon="1.1322">
        <ele>492.8</ele>
        <time>2024-04-21T13:18:42.519Z</time>
      </trkpt>
      <trkpt lat="43.04347" lon="1.1322">
        <ele>492.4</ele>
        <time>2024-04-21T13:18:43.519Z</time>
      </trkpt>
      <trkpt lat="43.04347" lon="1.13218">
        <ele>492.4</ele>
        <time>2024-04-21T13:18:47.519Z</time>
      </trkpt>
      <trkpt lat="43.04347" lon="1.13217">
        <ele>491.2</ele>
        <time>2024-04-21T13:18:48.519Z</time>
      </trkpt>
      <trkpt lat="43.04347" lon="1.13217">
        <ele>492</ele>
        <time>2024-04-21T13:18:49.519Z</time>
      </trkpt>
      <trkpt lat="43.04348" lon="1.13217">
        <ele>492</ele>
        <time>2024-04-21T13:18:56.519Z</time>
      </trkpt>
      <trkpt lat="43.04348" lon="1.13217">
        <ele>491.8</ele>
        <time>2024-04-21T13:18:57.519Z</time>
      </trkpt>
      <trkpt lat="43.04349" lon="1.13216">
        <ele>491.8</ele>
        <time>2024-04-21T13:18:58.519Z</time>
      </trkpt>
      <trkpt lat="43.04349" lon="1.13214">
        <ele>491.8</ele>
        <time>2024-04-21T13:18:59.519Z</time>
      </trkpt>
      <trkpt lat="43.04349" lon="1.13212">
        <ele>491.8</ele>
        <time>2024-04-21T13:19:00.519Z</time>
      </trkpt>
      <trkpt lat="43.04349" lon="1.1321">
        <ele>491.4</ele>
        <time>2024-04-21T13:19:01.519Z</time>
      </trkpt>
      <trkpt lat="43.04349" lon="1.13207">
        <ele>491.4</ele>
        <time>2024-04-21T13:19:02.519Z</time>
      </trkpt>
      <trkpt lat="43.04349" lon="1.13206">
        <ele>491.4</ele>
        <time>2024-04-21T13:19:03.519Z</time>
      </trkpt>
      <trkpt lat="43.04349" lon="1.13207">
        <ele>491.4</ele>
        <time>2024-04-21T13:19:04.519Z</time>
      </trkpt>
      <trkpt lat="43.04348" lon="1.13207">
        <ele>491.6</ele>
        <time>2024-04-21T13:19:05.519Z</time>
      </trkpt>
      <trkpt lat="43.0435" lon="1.13207">
        <ele>491.6</ele>
        <time>2024-04-21T13:19:17.519Z</time>
      </trkpt>
      <trkpt lat="43.0435" lon="1.13207">
        <ele>491.6</ele>
        <time>2024-04-21T13:19:18.519Z</time>
      </trkpt>
      <trkpt lat="43.04351" lon="1.13208">
        <ele>491.6</ele>
        <time>2024-04-21T13:19:19.519Z</time>
      </trkpt>
      <trkpt lat="43.04352" lon="1.13207">
        <ele>491.6</ele>
        <time>2024-04-21T13:19:20.519Z</time>
      </trkpt>
      <trkpt lat="43.04352" lon="1.13207">
        <ele>491.6</ele>
        <time>2024-04-21T13:19:21.519Z</time>
      </trkpt>
      <trkpt lat="43.04352" lon="1.13206">
        <ele>491.6</ele>
        <time>2024-04-21T13:19:22.519Z</time>
      </trkpt>
      <trkpt lat="43.04352" lon="1.13204">
        <ele>491.4</ele>
        <time>2024-04-21T13:19:27.519Z</time>
      </trkpt>
      <trkpt lat="43.04352" lon="1.13204">
        <ele>491.4</ele>
        <time>2024-04-21T13:19:28.519Z</time>
      </trkpt>
      <trkpt lat="43.04352" lon="1.13204">
        <ele>491.2</ele>
        <time>2024-04-21T13:19:29.519Z</time>
      </trkpt>
      <trkpt lat="43.04353" lon="1.13202">
        <ele>491.2</ele>
        <time>2024-04-21T13:19:33.519Z</time>
      </trkpt>
      <trkpt lat="43.04353" lon="1.13202">
        <ele>491</ele>
        <time>2024-04-21T13:19:34.519Z</time>
      </trkpt>
      <trkpt lat="43.04354" lon="1.13202">
        <ele>491</ele>
        <time>2024-04-21T13:19:35.519Z</time>
      </trkpt>
      <trkpt lat="43.04354" lon="1.132">
        <ele>490.8</ele>
        <time>2024-04-21T13:19:36.519Z</time>
      </trkpt>
      <trkpt lat="43.04355" lon="1.13199">
        <ele>490.8</ele>
        <time>2024-04-21T13:19:37.519Z</time>
      </trkpt>
      <trkpt lat="43.04355" lon="1.13197">
        <ele>490.2</ele>
        <time>2024-04-21T13:19:38.519Z</time>
      </trkpt>
      <trkpt lat="43.04356" lon="1.13195">
        <ele>490.2</ele>
        <time>2024-04-21T13:19:39.519Z</time>
      </trkpt>
      <trkpt lat="43.04357" lon="1.13192">
        <ele>490</ele>
        <time>2024-04-21T13:19:40.519Z</time>
      </trkpt>
      <trkpt lat="43.04357" lon="1.1319">
        <ele>490</ele>
        <time>2024-04-21T13:19:41.519Z</time>
      </trkpt>
      <trkpt lat="43.04358" lon="1.13188">
        <ele>489.8</ele>
        <time>2024-04-21T13:19:42.519Z</time>
      </trkpt>
      <trkpt lat="43.04358" lon="1.13186">
        <ele>489.8</ele>
        <time>2024-04-21T13:19:43.519Z</time>
      </trkpt>
      <trkpt lat="43.04358" lon="1.13183">
        <ele>489.8</ele>
        <time>2024-04-21T13:19:44.519Z</time>
      </trkpt>
      <trkpt lat="43.04359" lon="1.13181">
        <ele>489.4</ele>
        <time>2024-04-21T13:19:45.519Z</time>
      </trkpt>
      <trkpt lat="43.04359" lon="1.13178">
        <ele>489.4</ele>
        <time>2024-04-21T13:19:46.519Z</time>
      </trkpt>
      <trkpt lat="43.04359" lon="1.13175">
        <ele>489.4</ele>
        <time>2024-04-21T13:19:47.519Z</time>
      </trkpt>
      <trkpt lat="43.0436" lon="1.1317">
        <ele>489</ele>
        <time>2024-04-21T13:19:48.519Z</time>
      </trkpt>
      <trkpt lat="43.0436" lon="1.13168">
        <ele>488.6</ele>
        <time>2024-04-21T13:19:49.519Z</time>
      </trkpt>
      <trkpt lat="43.04359" lon="1.13164">
        <ele>488.6</ele>
        <time>2024-04-21T13:19:50.519Z</time>
      </trkpt>
      <trkpt lat="43.04359" lon="1.13161">
        <ele>488.4</ele>
        <time>2024-04-21T13:19:51.519Z</time>
      </trkpt>
      <trkpt lat="43.04358" lon="1.13158">
        <ele>488.4</ele>
        <time>2024-04-21T13:19:52.519Z</time>
      </trkpt>
      <trkpt lat="43.04356" lon="1.13156">
        <ele>488.4</ele>
        <time>2024-04-21T13:19:53.519Z</time>
      </trkpt>
      <trkpt lat="43.04355" lon="1.13153">
        <ele>488.6</ele>
        <time>2024-04-21T13:19:54.519Z</time>
      </trkpt>
      <trkpt lat="43.04353" lon="1.13151">
        <ele>488.6</ele>
        <time>2024-04-21T13:19:55.519Z</time>
      </trkpt>
      <trkpt lat="43.0435" lon="1.13148">
        <ele>488</ele>
        <time>2024-04-21T13:19:56.519Z</time>
      </trkpt>
      <trkpt lat="43.04349" lon="1.13147">
        <ele>488</ele>
        <time>2024-04-21T13:19:57.519Z</time>
      </trkpt>
      <trkpt lat="43.04348" lon="1.13145">
        <ele>488</ele>
        <time>2024-04-21T13:19:58.519Z</time>
      </trkpt>
      <trkpt lat="43.04346" lon="1.13144">
        <ele>487.6</ele>
        <time>2024-04-21T13:19:59.519Z</time>
      </trkpt>
      <trkpt lat="43.04345" lon="1.13143">
        <ele>487.6</ele>
        <time>2024-04-21T13:20:00.519Z</time>
      </trkpt>
      <trkpt lat="43.04344" lon="1.13143">
        <ele>487.6</ele>
        <time>2024-04-21T13:20:01.519Z</time>
      </trkpt>
      <trkpt lat="43.04343" lon="1.13141">
        <ele>488</ele>
        <time>2024-04-21T13:20:02.519Z</time>
      </trkpt>
      <trkpt lat="43.04341" lon="1.13139">
        <ele>488</ele>
        <time>2024-04-21T13:20:03.519Z</time>
      </trkpt>
      <trkpt lat="43.0434" lon="1.13137">
        <ele>488</ele>
        <time>2024-04-21T13:20:04.519Z</time>
      </trkpt>
      <trkpt lat="43.04339" lon="1.13135">
        <ele>488</ele>
        <time>2024-04-21T13:20:05.519Z</time>
      </trkpt>
      <trkpt lat="43.04337" lon="1.13133">
        <ele>488</ele>
        <time>2024-04-21T13:20:06.519Z</time>
      </trkpt>
      <trkpt lat="43.04335" lon="1.13131">
        <ele>488</ele>
        <time>2024-04-21T13:20:07.519Z</time>
      </trkpt>
      <trkpt lat="43.04333" lon="1.13129">
        <ele>488.4</ele>
        <time>2024-04-21T13:20:08.519Z</time>
      </trkpt>
      <trkpt lat="43.04331" lon="1.13128">
        <ele>488.4</ele>
        <time>2024-04-21T13:20:09.519Z</time>
      </trkpt>
      <trkpt lat="43.0433" lon="1.13127">
        <ele>488.8</ele>
        <time>2024-04-21T13:20:10.519Z</time>
      </trkpt>
      <trkpt lat="43.04328" lon="1.13125">
        <ele>489.2</ele>
        <time>2024-04-21T13:20:11.519Z</time>
      </trkpt>
      <trkpt lat="43.04326" lon="1.13123">
        <ele>489.2</ele>
        <time>2024-04-21T13:20:12.519Z</time>
      </trkpt>
      <trkpt lat="43.04324" lon="1.13122">
        <ele>489.2</ele>
        <time>2024-04-21T13:20:13.519Z</time>
      </trkpt>
      <trkpt lat="43.04323" lon="1.1312">
        <ele>489.2</ele>
        <time>2024-04-21T13:20:14.519Z</time>
      </trkpt>
      <trkpt lat="43.04321" lon="1.13117">
        <ele>489.2</ele>
        <time>2024-04-21T13:20:15.519Z</time>
      </trkpt>
      <trkpt lat="43.04321" lon="1.13113">
        <ele>489</ele>
        <time>2024-04-21T13:20:16.519Z</time>
      </trkpt>
      <trkpt lat="43.04322" lon="1.13109">
        <ele>489</ele>
        <time>2024-04-21T13:20:17.519Z</time>
      </trkpt>
      <trkpt lat="43.04323" lon="1.13104">
        <ele>488.4</ele>
        <time>2024-04-21T13:20:18.519Z</time>
      </trkpt>
      <trkpt lat="43.04324" lon="1.131">
        <ele>488</ele>
        <time>2024-04-21T13:20:19.519Z</time>
      </trkpt>
      <trkpt lat="43.04324" lon="1.13096">
        <ele>488</ele>
        <time>2024-04-21T13:20:20.519Z</time>
      </trkpt>
      <trkpt lat="43.04324" lon="1.13091">
        <ele>488</ele>
        <time>2024-04-21T13:20:21.519Z</time>
      </trkpt>
      <trkpt lat="43.04324" lon="1.13086">
        <ele>488</ele>
        <time>2024-04-21T13:20:22.519Z</time>
      </trkpt>
      <trkpt lat="43.04324" lon="1.13081">
        <ele>488</ele>
        <time>2024-04-21T13:20:23.519Z</time>
      </trkpt>
      <trkpt lat="43.04323" lon="1.13076">
        <ele>488</ele>
        <time>2024-04-21T13:20:24.519Z</time>
      </trkpt>
      <trkpt lat="43.04323" lon="1.13071">
        <ele>487.6</ele>
        <time>2024-04-21T13:20:25.519Z</time>
      </trkpt>
      <trkpt lat="43.04322" lon="1.13066">
        <ele>487.6</ele>
        <time>2024-04-21T13:20:26.519Z</time>
      </trkpt>
      <trkpt lat="43.04321" lon="1.13061">
        <ele>487.6</ele>
        <time>2024-04-21T13:20:27.519Z</time>
      </trkpt>
      <trkpt lat="43.04321" lon="1.13055">
        <ele>487.2</ele>
        <time>2024-04-21T13:20:28.519Z</time>
      </trkpt>
      <trkpt lat="43.04321" lon="1.1305">
        <ele>486.8</ele>
        <time>2024-04-21T13:20:29.519Z</time>
      </trkpt>
      <trkpt lat="43.04321" lon="1.13045">
        <ele>486.8</ele>
        <time>2024-04-21T13:20:30.519Z</time>
      </trkpt>
      <trkpt lat="43.04321" lon="1.13039">
        <ele>486.8</ele>
        <time>2024-04-21T13:20:31.519Z</time>
      </trkpt>
      <trkpt lat="43.0432" lon="1.13034">
        <ele>486.8</ele>
        <time>2024-04-21T13:20:32.519Z</time>
      </trkpt>
      <trkpt lat="43.0432" lon="1.13028">
        <ele>487.2</ele>
        <time>2024-04-21T13:20:33.519Z</time>
      </trkpt>
      <trkpt lat="43.04319" lon="1.13023">
        <ele>487.2</ele>
        <time>2024-04-21T13:20:34.519Z</time>
      </trkpt>
      <trkpt lat="43.04319" lon="1.13017">
        <ele>486.8</ele>
        <time>2024-04-21T13:20:35.519Z</time>
      </trkpt>
      <trkpt lat="43.04319" lon="1.13011">
        <ele>486.8</ele>
        <time>2024-04-21T13:20:36.519Z</time>
      </trkpt>
      <trkpt lat="43.04319" lon="1.13006">
        <ele>486.8</ele>
        <time>2024-04-21T13:20:37.519Z</time>
      </trkpt>
      <trkpt lat="43.04319" lon="1.13001">
        <ele>486.2</ele>
        <time>2024-04-21T13:20:38.519Z</time>
      </trkpt>
      <trkpt lat="43.04319" lon="1.12995">
        <ele>486.2</ele>
        <time>2024-04-21T13:20:39.519Z</time>
      </trkpt>
      <trkpt lat="43.04318" lon="1.12991">
        <ele>486.2</ele>
        <time>2024-04-21T13:20:40.519Z</time>
      </trkpt>
      <trkpt lat="43.04318" lon="1.12986">
        <ele>486.8</ele>
        <time>2024-04-21T13:20:41.519Z</time>
      </trkpt>
      <trkpt lat="43.04318" lon="1.12981">
        <ele>487</ele>
        <time>2024-04-21T13:20:42.519Z</time>
      </trkpt>
      <trkpt lat="43.04318" lon="1.12976">
        <ele>487.4</ele>
        <time>2024-04-21T13:20:43.519Z</time>
      </trkpt>
      <trkpt lat="43.04318" lon="1.12971">
        <ele>487.4</ele>
        <time>2024-04-21T13:20:44.519Z</time>
      </trkpt>
      <trkpt lat="43.04318" lon="1.12966">
        <ele>487.4</ele>
        <time>2024-04-21T13:20:45.519Z</time>
      </trkpt>
      <trkpt lat="43.04318" lon="1.12961">
        <ele>487.4</ele>
        <time>2024-04-21T13:20:46.519Z</time>
      </trkpt>
      <trkpt lat="43.04318" lon="1.12955">
        <ele>487.6</ele>
        <time>2024-04-21T13:20:47.519Z</time>
      </trkpt>
      <trkpt lat="43.04318" lon="1.1295">
        <ele>487.2</ele>
        <time>2024-04-21T13:20:48.519Z</time>
      </trkpt>
      <trkpt lat="43.04317" lon="1.12945">
        <ele>487.2</ele>
        <time>2024-04-21T13:20:49.519Z</time>
      </trkpt>
      <trkpt lat="43.04317" lon="1.1294">
        <ele>487.2</ele>
        <time>2024-04-21T13:20:50.519Z</time>
      </trkpt>
      <trkpt lat="43.04317" lon="1.12934">
        <ele>487.2</ele>
        <time>2024-04-21T13:20:51.519Z</time>
      </trkpt>
      <trkpt lat="43.04317" lon="1.12929">
        <ele>487.6</ele>
        <time>2024-04-21T13:20:52.519Z</time>
      </trkpt>
      <trkpt lat="43.04317" lon="1.12924">
        <ele>488.4</ele>
        <time>2024-04-21T13:20:53.519Z</time>
      </trkpt>
      <trkpt lat="43.04316" lon="1.12919">
        <ele>488.2</ele>
        <time>2024-04-21T13:20:54.519Z</time>
      </trkpt>
      <trkpt lat="43.04315" lon="1.12914">
        <ele>488.2</ele>
        <time>2024-04-21T13:20:55.519Z</time>
      </trkpt>
      <trkpt lat="43.04314" lon="1.12909">
        <ele>488</ele>
        <time>2024-04-21T13:20:56.519Z</time>
      </trkpt>
      <trkpt lat="43.04312" lon="1.12904">
        <ele>488</ele>
        <time>2024-04-21T13:20:57.519Z</time>
      </trkpt>
      <trkpt lat="43.0431" lon="1.12899">
        <ele>488</ele>
        <time>2024-04-21T13:20:58.519Z</time>
      </trkpt>
      <trkpt lat="43.04309" lon="1.12895">
        <ele>488.6</ele>
        <time>2024-04-21T13:20:59.519Z</time>
      </trkpt>
      <trkpt lat="43.04307" lon="1.1289">
        <ele>488.6</ele>
        <time>2024-04-21T13:21:00.519Z</time>
      </trkpt>
      <trkpt lat="43.04306" lon="1.12886">
        <ele>488.6</ele>
        <time>2024-04-21T13:21:01.519Z</time>
      </trkpt>
      <trkpt lat="43.04305" lon="1.12882">
        <ele>488.6</ele>
        <time>2024-04-21T13:21:02.519Z</time>
      </trkpt>
      <trkpt lat="43.04303" lon="1.12877">
        <ele>488.6</ele>
        <time>2024-04-21T13:21:03.519Z</time>
      </trkpt>
      <trkpt lat="43.04302" lon="1.12873">
        <ele>488.6</ele>
        <time>2024-04-21T13:21:04.519Z</time>
      </trkpt>
      <trkpt lat="43.04301" lon="1.12868">
        <ele>488.6</ele>
        <time>2024-04-21T13:21:05.519Z</time>
      </trkpt>
      <trkpt lat="43.04299" lon="1.12864">
        <ele>488.2</ele>
        <time>2024-04-21T13:21:06.519Z</time>
      </trkpt>
      <trkpt lat="43.04299" lon="1.12859">
        <ele>488.2</ele>
        <time>2024-04-21T13:21:07.519Z</time>
      </trkpt>
      <trkpt lat="43.04298" lon="1.12854">
        <ele>488.2</ele>
        <time>2024-04-21T13:21:08.519Z</time>
      </trkpt>
      <trkpt lat="43.04298" lon="1.12849">
        <ele>488.2</ele>
        <time>2024-04-21T13:21:09.519Z</time>
      </trkpt>
      <trkpt lat="43.04298" lon="1.12844">
        <ele>488.6</ele>
        <time>2024-04-21T13:21:10.519Z</time>
      </trkpt>
      <trkpt lat="43.04298" lon="1.12839">
        <ele>488.6</ele>
        <time>2024-04-21T13:21:11.519Z</time>
      </trkpt>
      <trkpt lat="43.04298" lon="1.12835">
        <ele>488.6</ele>
        <time>2024-04-21T13:21:12.519Z</time>
      </trkpt>
      <trkpt lat="43.04298" lon="1.1283">
        <ele>488.6</ele>
        <time>2024-04-21T13:21:13.519Z</time>
      </trkpt>
      <trkpt lat="43.04298" lon="1.12826">
        <ele>488.8</ele>
        <time>2024-04-21T13:21:14.519Z</time>
      </trkpt>
      <trkpt lat="43.04298" lon="1.12821">
        <ele>488.8</ele>
        <time>2024-04-21T13:21:15.519Z</time>
      </trkpt>
      <trkpt lat="43.04298" lon="1.12817">
        <ele>488.8</ele>
        <time>2024-04-21T13:21:16.519Z</time>
      </trkpt>
      <trkpt lat="43.04298" lon="1.12812">
        <ele>488.8</ele>
        <time>2024-04-21T13:21:17.519Z</time>
      </trkpt>
      <trkpt lat="43.04298" lon="1.12807">
        <ele>488.8</ele>
        <time>2024-04-21T13:21:18.519Z</time>
      </trkpt>
      <trkpt lat="43.04298" lon="1.12802">
        <ele>489.2</ele>
        <time>2024-04-21T13:21:19.519Z</time>
      </trkpt>
      <trkpt lat="43.04297" lon="1.12798">
        <ele>489.2</ele>
        <time>2024-04-21T13:21:20.519Z</time>
      </trkpt>
      <trkpt lat="43.04297" lon="1.12794">
        <ele>489.2</ele>
        <time>2024-04-21T13:21:21.519Z</time>
      </trkpt>
      <trkpt lat="43.04297" lon="1.12789">
        <ele>489.2</ele>
        <time>2024-04-21T13:21:22.519Z</time>
      </trkpt>
      <trkpt lat="43.04297" lon="1.12785">
        <ele>489.2</ele>
        <time>2024-04-21T13:21:23.519Z</time>
      </trkpt>
      <trkpt lat="43.04297" lon="1.1278">
        <ele>489.2</ele>
        <time>2024-04-21T13:21:24.519Z</time>
      </trkpt>
      <trkpt lat="43.04297" lon="1.12775">
        <ele>489.4</ele>
        <time>2024-04-21T13:21:25.519Z</time>
      </trkpt>
      <trkpt lat="43.04297" lon="1.12771">
        <ele>489.2</ele>
        <time>2024-04-21T13:21:26.519Z</time>
      </trkpt>
      <trkpt lat="43.04296" lon="1.12767">
        <ele>489.2</ele>
        <time>2024-04-21T13:21:27.519Z</time>
      </trkpt>
      <trkpt lat="43.04296" lon="1.12764">
        <ele>489.2</ele>
        <time>2024-04-21T13:21:28.519Z</time>
      </trkpt>
      <trkpt lat="43.04295" lon="1.1276">
        <ele>489</ele>
        <time>2024-04-21T13:21:29.519Z</time>
      </trkpt>
      <trkpt lat="43.04294" lon="1.12755">
        <ele>489</ele>
        <time>2024-04-21T13:21:30.519Z</time>
      </trkpt>
      <trkpt lat="43.04293" lon="1.1275">
        <ele>488.6</ele>
        <time>2024-04-21T13:21:31.519Z</time>
      </trkpt>
      <trkpt lat="43.04292" lon="1.12746">
        <ele>488</ele>
        <time>2024-04-21T13:21:32.519Z</time>
      </trkpt>
      <trkpt lat="43.04291" lon="1.12741">
        <ele>487.8</ele>
        <time>2024-04-21T13:21:33.519Z</time>
      </trkpt>
      <trkpt lat="43.0429" lon="1.12737">
        <ele>488</ele>
        <time>2024-04-21T13:21:34.519Z</time>
      </trkpt>
      <trkpt lat="43.04289" lon="1.12732">
        <ele>487.6</ele>
        <time>2024-04-21T13:21:35.519Z</time>
      </trkpt>
      <trkpt lat="43.04286" lon="1.12729">
        <ele>479.8</ele>
        <time>2024-04-21T13:21:36.797Z</time>
      </trkpt>
      <trkpt lat="43.04248" lon="1.12663">
        <ele>481.5</ele>
        <time>2024-04-21T13:22:00.750Z</time>
      </trkpt>
      <trkpt lat="43.04211" lon="1.12605">
        <ele>475.3</ele>
        <time>2024-04-21T13:22:22.535Z</time>
      </trkpt>
      <trkpt lat="43.04176" lon="1.12539">
        <ele>471</ele>
        <time>2024-04-21T13:22:45.377Z</time>
      </trkpt>
      <trkpt lat="43.04161" lon="1.12502">
        <ele>468.3</ele>
        <time>2024-04-21T13:22:57.391Z</time>
      </trkpt>
      <trkpt lat="43.04154" lon="1.12484">
        <ele>468.3</ele>
        <time>2024-04-21T13:23:03.357Z</time>
      </trkpt>
      <trkpt lat="43.04153" lon="1.12477">
        <ele>453.8</ele>
        <time>2024-04-21T13:23:05.181Z</time>
      </trkpt>
      <trkpt lat="43.04158" lon="1.12474">
        <ele>472.8</ele>
        <time>2024-04-21T13:23:07.471Z</time>
      </trkpt>
      <trkpt lat="43.04157" lon="1.12472">
        <ele>473.2</ele>
        <time>2024-04-21T13:23:08.471Z</time>
      </trkpt>
      <trkpt lat="43.04157" lon="1.12471">
        <ele>473.2</ele>
        <time>2024-04-21T13:23:09.471Z</time>
      </trkpt>
      <trkpt lat="43.04156" lon="1.12469">
        <ele>473.2</ele>
        <time>2024-04-21T13:23:10.471Z</time>
      </trkpt>
      <trkpt lat="43.04155" lon="1.12468">
        <ele>473.2</ele>
        <time>2024-04-21T13:23:11.471Z</time>
      </trkpt>
      <trkpt lat="43.04154" lon="1.12469">
        <ele>473.2</ele>
        <time>2024-04-21T13:23:12.471Z</time>
      </trkpt>
      <trkpt lat="43.04154" lon="1.1247">
        <ele>472.8</ele>
        <time>2024-04-21T13:23:13.471Z</time>
      </trkpt>
      <trkpt lat="43.04154" lon="1.12472">
        <ele>473.2</ele>
        <time>2024-04-21T13:23:19.471Z</time>
      </trkpt>
      <trkpt lat="43.04154" lon="1.12472">
        <ele>472.8</ele>
        <time>2024-04-21T13:23:20.471Z</time>
      </trkpt>
      <trkpt lat="43.04154" lon="1.1247">
        <ele>472.8</ele>
        <time>2024-04-21T13:23:24.471Z</time>
      </trkpt>
      <trkpt lat="43.04154" lon="1.12469">
        <ele>472.8</ele>
        <time>2024-04-21T13:23:25.471Z</time>
      </trkpt>
      <trkpt lat="43.04153" lon="1.12468">
        <ele>472.8</ele>
        <time>2024-04-21T13:23:26.471Z</time>
      </trkpt>
      <trkpt lat="43.04153" lon="1.12467">
        <ele>472.8</ele>
        <time>2024-04-21T13:23:27.471Z</time>
      </trkpt>
      <trkpt lat="43.04153" lon="1.12467">
        <ele>472.8</ele>
        <time>2024-04-21T13:23:28.471Z</time>
      </trkpt>
      <trkpt lat="43.04153" lon="1.12467">
        <ele>472.8</ele>
        <time>2024-04-21T13:23:29.471Z</time>
      </trkpt>
      <trkpt lat="43.04153" lon="1.12468">
        <ele>473.2</ele>
        <time>2024-04-21T13:23:30.471Z</time>
      </trkpt>
      <trkpt lat="43.04152" lon="1.12466">
        <ele>472.8</ele>
        <time>2024-04-21T13:23:35.471Z</time>
      </trkpt>
      <trkpt lat="43.04151" lon="1.12464">
        <ele>472.6</ele>
        <time>2024-04-21T13:23:36.471Z</time>
      </trkpt>
      <trkpt lat="43.04151" lon="1.12462">
        <ele>472.6</ele>
        <time>2024-04-21T13:23:37.471Z</time>
      </trkpt>
      <trkpt lat="43.0415" lon="1.12459">
        <ele>472.6</ele>
        <time>2024-04-21T13:23:38.471Z</time>
      </trkpt>
      <trkpt lat="43.04149" lon="1.12457">
        <ele>472.6</ele>
        <time>2024-04-21T13:23:39.471Z</time>
      </trkpt>
      <trkpt lat="43.04148" lon="1.12455">
        <ele>472.6</ele>
        <time>2024-04-21T13:23:40.471Z</time>
      </trkpt>
      <trkpt lat="43.04148" lon="1.12452">
        <ele>472.6</ele>
        <time>2024-04-21T13:23:41.471Z</time>
      </trkpt>
      <trkpt lat="43.04148" lon="1.12448">
        <ele>472.8</ele>
        <time>2024-04-21T13:23:42.471Z</time>
      </trkpt>
      <trkpt lat="43.04147" lon="1.12445">
        <ele>472.8</ele>
        <time>2024-04-21T13:23:43.471Z</time>
      </trkpt>
      <trkpt lat="43.04147" lon="1.12442">
        <ele>472.6</ele>
        <time>2024-04-21T13:23:44.471Z</time>
      </trkpt>
      <trkpt lat="43.04146" lon="1.12439">
        <ele>472.2</ele>
        <time>2024-04-21T13:23:45.471Z</time>
      </trkpt>
      <trkpt lat="43.04146" lon="1.12437">
        <ele>472.2</ele>
        <time>2024-04-21T13:23:46.471Z</time>
      </trkpt>
      <trkpt lat="43.04145" lon="1.12434">
        <ele>472</ele>
        <time>2024-04-21T13:23:47.471Z</time>
      </trkpt>
      <trkpt lat="43.04145" lon="1.12432">
        <ele>472</ele>
        <time>2024-04-21T13:23:48.471Z</time>
      </trkpt>
      <trkpt lat="43.04145" lon="1.1243">
        <ele>471.6</ele>
        <time>2024-04-21T13:23:49.471Z</time>
      </trkpt>
      <trkpt lat="43.04144" lon="1.12428">
        <ele>471.6</ele>
        <time>2024-04-21T13:23:50.471Z</time>
      </trkpt>
      <trkpt lat="43.04143" lon="1.12424">
        <ele>471.2</ele>
        <time>2024-04-21T13:23:51.471Z</time>
      </trkpt>
      <trkpt lat="43.04142" lon="1.12421">
        <ele>471.2</ele>
        <time>2024-04-21T13:23:52.471Z</time>
      </trkpt>
      <trkpt lat="43.04142" lon="1.12418">
        <ele>470.6</ele>
        <time>2024-04-21T13:23:53.471Z</time>
      </trkpt>
      <trkpt lat="43.04142" lon="1.12417">
        <ele>470.2</ele>
        <time>2024-04-21T13:23:54.471Z</time>
      </trkpt>
      <trkpt lat="43.04142" lon="1.12415">
        <ele>470.2</ele>
        <time>2024-04-21T13:23:55.471Z</time>
      </trkpt>
      <trkpt lat="43.04142" lon="1.12414">
        <ele>470.2</ele>
        <time>2024-04-21T13:23:56.471Z</time>
      </trkpt>
      <trkpt lat="43.04142" lon="1.12414">
        <ele>470.2</ele>
        <time>2024-04-21T13:23:57.471Z</time>
      </trkpt>
      <trkpt lat="43.04143" lon="1.12412">
        <ele>470.2</ele>
        <time>2024-04-21T13:23:58.471Z</time>
      </trkpt>
      <trkpt lat="43.04143" lon="1.1241">
        <ele>470</ele>
        <time>2024-04-21T13:23:59.471Z</time>
      </trkpt>
      <trkpt lat="43.04142" lon="1.12409">
        <ele>470</ele>
        <time>2024-04-21T13:24:00.471Z</time>
      </trkpt>
      <trkpt lat="43.04142" lon="1.12406">
        <ele>469.6</ele>
        <time>2024-04-21T13:24:01.471Z</time>
      </trkpt>
      <trkpt lat="43.04141" lon="1.12403">
        <ele>469.6</ele>
        <time>2024-04-21T13:24:02.471Z</time>
      </trkpt>
      <trkpt lat="43.0414" lon="1.124">
        <ele>469.4</ele>
        <time>2024-04-21T13:24:03.471Z</time>
      </trkpt>
      <trkpt lat="43.0414" lon="1.12397">
        <ele>469.4</ele>
        <time>2024-04-21T13:24:04.471Z</time>
      </trkpt>
      <trkpt lat="43.0414" lon="1.12394">
        <ele>469</ele>
        <time>2024-04-21T13:24:05.471Z</time>
      </trkpt>
      <trkpt lat="43.04139" lon="1.12392">
        <ele>468.8</ele>
        <time>2024-04-21T13:24:06.471Z</time>
      </trkpt>
      <trkpt lat="43.04139" lon="1.1239">
        <ele>468.2</ele>
        <time>2024-04-21T13:24:07.471Z</time>
      </trkpt>
      <trkpt lat="43.04138" lon="1.12388">
        <ele>468</ele>
        <time>2024-04-21T13:24:08.471Z</time>
      </trkpt>
      <trkpt lat="43.04138" lon="1.12386">
        <ele>468</ele>
        <time>2024-04-21T13:24:09.471Z</time>
      </trkpt>
      <trkpt lat="43.04137" lon="1.12384">
        <ele>467.6</ele>
        <time>2024-04-21T13:24:10.471Z</time>
      </trkpt>
      <trkpt lat="43.04137" lon="1.12383">
        <ele>467.6</ele>
        <time>2024-04-21T13:24:11.471Z</time>
      </trkpt>
      <trkpt lat="43.04136" lon="1.12382">
        <ele>467.2</ele>
        <time>2024-04-21T13:24:12.471Z</time>
      </trkpt>
      <trkpt lat="43.04136" lon="1.12381">
        <ele>467.2</ele>
        <time>2024-04-21T13:24:13.471Z</time>
      </trkpt>
      <trkpt lat="43.04136" lon="1.12381">
        <ele>467.2</ele>
        <time>2024-04-21T13:24:14.471Z</time>
      </trkpt>
      <trkpt lat="43.04136" lon="1.12376">
        <ele>466.6</ele>
        <time>2024-04-21T13:24:33.471Z</time>
      </trkpt>
      <trkpt lat="43.04135" lon="1.12373">
        <ele>466.2</ele>
        <time>2024-04-21T13:24:34.471Z</time>
      </trkpt>
      <trkpt lat="43.04135" lon="1.1237">
        <ele>466</ele>
        <time>2024-04-21T13:24:35.471Z</time>
      </trkpt>
      <trkpt lat="43.04135" lon="1.12366">
        <ele>465.6</ele>
        <time>2024-04-21T13:24:36.471Z</time>
      </trkpt>
      <trkpt lat="43.04135" lon="1.12362">
        <ele>465.6</ele>
        <time>2024-04-21T13:24:37.471Z</time>
      </trkpt>
      <trkpt lat="43.04134" lon="1.12359">
        <ele>465</ele>
        <time>2024-04-21T13:24:38.471Z</time>
      </trkpt>
      <trkpt lat="43.04133" lon="1.12357">
        <ele>464.6</ele>
        <time>2024-04-21T13:24:39.471Z</time>
      </trkpt>
      <trkpt lat="43.04132" lon="1.12355">
        <ele>464.2</ele>
        <time>2024-04-21T13:24:40.471Z</time>
      </trkpt>
      <trkpt lat="43.04132" lon="1.12352">
        <ele>464</ele>
        <time>2024-04-21T13:24:41.471Z</time>
      </trkpt>
      <trkpt lat="43.04131" lon="1.12349">
        <ele>463.4</ele>
        <time>2024-04-21T13:24:42.471Z</time>
      </trkpt>
      <trkpt lat="43.0413" lon="1.12347">
        <ele>462.8</ele>
        <time>2024-04-21T13:24:43.471Z</time>
      </trkpt>
      <trkpt lat="43.0413" lon="1.12345">
        <ele>462.6</ele>
        <time>2024-04-21T13:24:44.471Z</time>
      </trkpt>
      <trkpt lat="43.04129" lon="1.12344">
        <ele>462.6</ele>
        <time>2024-04-21T13:24:45.471Z</time>
      </trkpt>
      <trkpt lat="43.04129" lon="1.12341">
        <ele>462.6</ele>
        <time>2024-04-21T13:24:46.471Z</time>
      </trkpt>
      <trkpt lat="43.04128" lon="1.12338">
        <ele>462.2</ele>
        <time>2024-04-21T13:24:47.471Z</time>
      </trkpt>
      <trkpt lat="43.04127" lon="1.12333">
        <ele>461.8</ele>
        <time>2024-04-21T13:24:48.471Z</time>
      </trkpt>
      <trkpt lat="43.04125" lon="1.12329">
        <ele>461</ele>
        <time>2024-04-21T13:24:49.471Z</time>
      </trkpt>
      <trkpt lat="43.04124" lon="1.12326">
        <ele>461</ele>
        <time>2024-04-21T13:24:50.471Z</time>
      </trkpt>
      <trkpt lat="43.04123" lon="1.12323">
        <ele>460.8</ele>
        <time>2024-04-21T13:24:51.471Z</time>
      </trkpt>
      <trkpt lat="43.04122" lon="1.12319">
        <ele>460.4</ele>
        <time>2024-04-21T13:24:52.471Z</time>
      </trkpt>
      <trkpt lat="43.04122" lon="1.12315">
        <ele>459.8</ele>
        <time>2024-04-21T13:24:53.471Z</time>
      </trkpt>
      <trkpt lat="43.04121" lon="1.12311">
        <ele>459.8</ele>
        <time>2024-04-21T13:24:54.471Z</time>
      </trkpt>
      <trkpt lat="43.04121" lon="1.12307">
        <ele>459.4</ele>
        <time>2024-04-21T13:24:55.471Z</time>
      </trkpt>
      <trkpt lat="43.0412" lon="1.12304">
        <ele>459.4</ele>
        <time>2024-04-21T13:24:56.471Z</time>
      </trkpt>
      <trkpt lat="43.04119" lon="1.12299">
        <ele>458.8</ele>
        <time>2024-04-21T13:24:57.471Z</time>
      </trkpt>
      <trkpt lat="43.04119" lon="1.12295">
        <ele>458.4</ele>
        <time>2024-04-21T13:24:58.471Z</time>
      </trkpt>
      <trkpt lat="43.04118" lon="1.12291">
        <ele>458.4</ele>
        <time>2024-04-21T13:24:59.471Z</time>
      </trkpt>
      <trkpt lat="43.04118" lon="1.12288">
        <ele>457.6</ele>
        <time>2024-04-21T13:25:00.471Z</time>
      </trkpt>
      <trkpt lat="43.04117" lon="1.12284">
        <ele>457.2</ele>
        <time>2024-04-21T13:25:01.471Z</time>
      </trkpt>
      <trkpt lat="43.04117" lon="1.1228">
        <ele>457.2</ele>
        <time>2024-04-21T13:25:02.471Z</time>
      </trkpt>
      <trkpt lat="43.04116" lon="1.12277">
        <ele>456.6</ele>
        <time>2024-04-21T13:25:03.471Z</time>
      </trkpt>
      <trkpt lat="43.04115" lon="1.12274">
        <ele>456.6</ele>
        <time>2024-04-21T13:25:04.471Z</time>
      </trkpt>
      <trkpt lat="43.04114" lon="1.1227">
        <ele>455</ele>
        <time>2024-04-21T13:25:05.471Z</time>
      </trkpt>
      <trkpt lat="43.04114" lon="1.12266">
        <ele>455</ele>
        <time>2024-04-21T13:25:06.471Z</time>
      </trkpt>
      <trkpt lat="43.04113" lon="1.12262">
        <ele>455.2</ele>
        <time>2024-04-21T13:25:07.471Z</time>
      </trkpt>
      <trkpt lat="43.04113" lon="1.12258">
        <ele>454.6</ele>
        <time>2024-04-21T13:25:08.471Z</time>
      </trkpt>
      <trkpt lat="43.04112" lon="1.12254">
        <ele>454.6</ele>
        <time>2024-04-21T13:25:09.471Z</time>
      </trkpt>
      <trkpt lat="43.04111" lon="1.12251">
        <ele>454.6</ele>
        <time>2024-04-21T13:25:10.471Z</time>
      </trkpt>
      <trkpt lat="43.04111" lon="1.12246">
        <ele>454.8</ele>
        <time>2024-04-21T13:25:11.471Z</time>
      </trkpt>
      <trkpt lat="43.04111" lon="1.12243">
        <ele>454.8</ele>
        <time>2024-04-21T13:25:12.471Z</time>
      </trkpt>
      <trkpt lat="43.04111" lon="1.1224">
        <ele>454.8</ele>
        <time>2024-04-21T13:25:13.471Z</time>
      </trkpt>
      <trkpt lat="43.04111" lon="1.12236">
        <ele>455</ele>
        <time>2024-04-21T13:25:14.471Z</time>
      </trkpt>
      <trkpt lat="43.04111" lon="1.12233">
        <ele>455</ele>
        <time>2024-04-21T13:25:15.471Z</time>
      </trkpt>
      <trkpt lat="43.04111" lon="1.12229">
        <ele>455</ele>
        <time>2024-04-21T13:25:16.471Z</time>
      </trkpt>
      <trkpt lat="43.04111" lon="1.12226">
        <ele>455</ele>
        <time>2024-04-21T13:25:17.471Z</time>
      </trkpt>
      <trkpt lat="43.0411" lon="1.12223">
        <ele>455.4</ele>
        <time>2024-04-21T13:25:18.471Z</time>
      </trkpt>
      <trkpt lat="43.04109" lon="1.12219">
        <ele>455.4</ele>
        <time>2024-04-21T13:25:19.471Z</time>
      </trkpt>
      <trkpt lat="43.04108" lon="1.12215">
        <ele>455.6</ele>
        <time>2024-04-21T13:25:20.471Z</time>
      </trkpt>
      <trkpt lat="43.04107" lon="1.12212">
        <ele>456</ele>
        <time>2024-04-21T13:25:21.471Z</time>
      </trkpt>
      <trkpt lat="43.04106" lon="1.12209">
        <ele>456.2</ele>
        <time>2024-04-21T13:25:22.471Z</time>
      </trkpt>
      <trkpt lat="43.04106" lon="1.12205">
        <ele>456.2</ele>
        <time>2024-04-21T13:25:23.471Z</time>
      </trkpt>
      <trkpt lat="43.04105" lon="1.12203">
        <ele>456.8</ele>
        <time>2024-04-21T13:25:24.471Z</time>
      </trkpt>
      <trkpt lat="43.04104" lon="1.122">
        <ele>457</ele>
        <time>2024-04-21T13:25:25.471Z</time>
      </trkpt>
      <trkpt lat="43.04104" lon="1.12197">
        <ele>457.2</ele>
        <time>2024-04-21T13:25:26.471Z</time>
      </trkpt>
      <trkpt lat="43.04103" lon="1.12194">
        <ele>457.2</ele>
        <time>2024-04-21T13:25:27.471Z</time>
      </trkpt>
      <trkpt lat="43.04102" lon="1.12191">
        <ele>457.6</ele>
        <time>2024-04-21T13:25:28.471Z</time>
      </trkpt>
      <trkpt lat="43.04101" lon="1.12187">
        <ele>458</ele>
        <time>2024-04-21T13:25:29.471Z</time>
      </trkpt>
      <trkpt lat="43.04101" lon="1.12184">
        <ele>458.2</ele>
        <time>2024-04-21T13:25:30.471Z</time>
      </trkpt>
      <trkpt lat="43.041" lon="1.12181">
        <ele>458.4</ele>
        <time>2024-04-21T13:25:31.471Z</time>
      </trkpt>
      <trkpt lat="43.041" lon="1.12178">
        <ele>458.6</ele>
        <time>2024-04-21T13:25:32.471Z</time>
      </trkpt>
      <trkpt lat="43.04099" lon="1.12175">
        <ele>458.6</ele>
        <time>2024-04-21T13:25:33.471Z</time>
      </trkpt>
      <trkpt lat="43.04099" lon="1.12171">
        <ele>458.6</ele>
        <time>2024-04-21T13:25:34.471Z</time>
      </trkpt>
      <trkpt lat="43.04099" lon="1.12168">
        <ele>458.6</ele>
        <time>2024-04-21T13:25:35.471Z</time>
      </trkpt>
      <trkpt lat="43.04099" lon="1.12165">
        <ele>459</ele>
        <time>2024-04-21T13:25:36.471Z</time>
      </trkpt>
      <trkpt lat="43.04099" lon="1.12161">
        <ele>459</ele>
        <time>2024-04-21T13:25:37.471Z</time>
      </trkpt>
      <trkpt lat="43.04098" lon="1.12158">
        <ele>459</ele>
        <time>2024-04-21T13:25:38.471Z</time>
      </trkpt>
      <trkpt lat="43.04098" lon="1.12154">
        <ele>459</ele>
        <time>2024-04-21T13:25:39.471Z</time>
      </trkpt>
      <trkpt lat="43.04097" lon="1.12151">
        <ele>458.8</ele>
        <time>2024-04-21T13:25:40.471Z</time>
      </trkpt>
      <trkpt lat="43.04097" lon="1.12147">
        <ele>458.8</ele>
        <time>2024-04-21T13:25:41.471Z</time>
      </trkpt>
      <trkpt lat="43.04096" lon="1.12142">
        <ele>458.8</ele>
        <time>2024-04-21T13:25:42.471Z</time>
      </trkpt>
      <trkpt lat="43.04095" lon="1.12138">
        <ele>458.4</ele>
        <time>2024-04-21T13:25:43.471Z</time>
      </trkpt>
      <trkpt lat="43.04095" lon="1.12134">
        <ele>458.6</ele>
        <time>2024-04-21T13:25:44.471Z</time>
      </trkpt>
      <trkpt lat="43.04094" lon="1.1213">
        <ele>458.6</ele>
        <time>2024-04-21T13:25:45.471Z</time>
      </trkpt>
      <trkpt lat="43.04093" lon="1.12127">
        <ele>458.6</ele>
        <time>2024-04-21T13:25:46.471Z</time>
      </trkpt>
      <trkpt lat="43.04093" lon="1.12124">
        <ele>458.6</ele>
        <time>2024-04-21T13:25:47.471Z</time>
      </trkpt>
      <trkpt lat="43.04093" lon="1.1212">
        <ele>458.6</ele>
        <time>2024-04-21T13:25:48.471Z</time>
      </trkpt>
      <trkpt lat="43.04093" lon="1.12116">
        <ele>458.6</ele>
        <time>2024-04-21T13:25:49.471Z</time>
      </trkpt>
      <trkpt lat="43.04092" lon="1.12113">
        <ele>458.6</ele>
        <time>2024-04-21T13:25:50.471Z</time>
      </trkpt>
      <trkpt lat="43.04092" lon="1.12109">
        <ele>458.6</ele>
        <time>2024-04-21T13:25:51.471Z</time>
      </trkpt>
      <trkpt lat="43.04092" lon="1.12106">
        <ele>458.6</ele>
        <time>2024-04-21T13:25:52.471Z</time>
      </trkpt>
      <trkpt lat="43.04091" lon="1.12102">
        <ele>459</ele>
        <time>2024-04-21T13:25:53.471Z</time>
      </trkpt>
      <trkpt lat="43.04091" lon="1.12099">
        <ele>459</ele>
        <time>2024-04-21T13:25:54.471Z</time>
      </trkpt>
      <trkpt lat="43.0409" lon="1.12096">
        <ele>459</ele>
        <time>2024-04-21T13:25:55.471Z</time>
      </trkpt>
      <trkpt lat="43.0409" lon="1.12094">
        <ele>459</ele>
        <time>2024-04-21T13:25:56.471Z</time>
      </trkpt>
      <trkpt lat="43.04088" lon="1.12091">
        <ele>459.2</ele>
        <time>2024-04-21T13:25:57.471Z</time>
      </trkpt>
      <trkpt lat="43.04087" lon="1.12089">
        <ele>459.2</ele>
        <time>2024-04-21T13:25:58.471Z</time>
      </trkpt>
      <trkpt lat="43.04086" lon="1.12087">
        <ele>459.2</ele>
        <time>2024-04-21T13:25:59.471Z</time>
      </trkpt>
      <trkpt lat="43.04085" lon="1.12085">
        <ele>459.6</ele>
        <time>2024-04-21T13:26:00.471Z</time>
      </trkpt>
      <trkpt lat="43.04084" lon="1.12084">
        <ele>460</ele>
        <time>2024-04-21T13:26:01.471Z</time>
      </trkpt>
      <trkpt lat="43.04083" lon="1.12082">
        <ele>460.2</ele>
        <time>2024-04-21T13:26:02.471Z</time>
      </trkpt>
      <trkpt lat="43.04081" lon="1.1208">
        <ele>460.2</ele>
        <time>2024-04-21T13:26:03.471Z</time>
      </trkpt>
      <trkpt lat="43.0408" lon="1.12079">
        <ele>460.2</ele>
        <time>2024-04-21T13:26:04.471Z</time>
      </trkpt>
      <trkpt lat="43.04078" lon="1.12077">
        <ele>460.6</ele>
        <time>2024-04-21T13:26:05.471Z</time>
      </trkpt>
      <trkpt lat="43.04077" lon="1.12075">
        <ele>460.8</ele>
        <time>2024-04-21T13:26:06.471Z</time>
      </trkpt>
      <trkpt lat="43.04077" lon="1.12075">
        <ele>460.8</ele>
        <time>2024-04-21T13:26:07.471Z</time>
      </trkpt>
      <trkpt lat="43.04076" lon="1.12075">
        <ele>460.8</ele>
        <time>2024-04-21T13:26:08.471Z</time>
      </trkpt>
      <trkpt lat="43.04074" lon="1.12073">
        <ele>460.8</ele>
        <time>2024-04-21T13:26:09.471Z</time>
      </trkpt>
      <trkpt lat="43.04073" lon="1.12071">
        <ele>460.8</ele>
        <time>2024-04-21T13:26:10.471Z</time>
      </trkpt>
      <trkpt lat="43.04071" lon="1.12069">
        <ele>460.8</ele>
        <time>2024-04-21T13:26:11.471Z</time>
      </trkpt>
      <trkpt lat="43.0407" lon="1.12067">
        <ele>460.8</ele>
        <time>2024-04-21T13:26:12.471Z</time>
      </trkpt>
      <trkpt lat="43.04069" lon="1.12066">
        <ele>460.6</ele>
        <time>2024-04-21T13:26:13.471Z</time>
      </trkpt>
      <trkpt lat="43.04067" lon="1.12064">
        <ele>460.6</ele>
        <time>2024-04-21T13:26:14.471Z</time>
      </trkpt>
      <trkpt lat="43.04066" lon="1.12061">
        <ele>460.6</ele>
        <time>2024-04-21T13:26:15.471Z</time>
      </trkpt>
      <trkpt lat="43.04064" lon="1.12058">
        <ele>461</ele>
        <time>2024-04-21T13:26:16.471Z</time>
      </trkpt>
      <trkpt lat="43.04062" lon="1.12057">
        <ele>461</ele>
        <time>2024-04-21T13:26:17.471Z</time>
      </trkpt>
      <trkpt lat="43.0406" lon="1.12056">
        <ele>461</ele>
        <time>2024-04-21T13:26:18.471Z</time>
      </trkpt>
      <trkpt lat="43.04058" lon="1.12055">
        <ele>461.2</ele>
        <time>2024-04-21T13:26:19.471Z</time>
      </trkpt>
      <trkpt lat="43.04056" lon="1.12053">
        <ele>461.2</ele>
        <time>2024-04-21T13:26:20.471Z</time>
      </trkpt>
      <trkpt lat="43.04054" lon="1.12052">
        <ele>461.4</ele>
        <time>2024-04-21T13:26:21.471Z</time>
      </trkpt>
      <trkpt lat="43.04052" lon="1.12051">
        <ele>461.4</ele>
        <time>2024-04-21T13:26:22.471Z</time>
      </trkpt>
      <trkpt lat="43.0405" lon="1.12049">
        <ele>461.4</ele>
        <time>2024-04-21T13:26:23.471Z</time>
      </trkpt>
      <trkpt lat="43.04047" lon="1.12046">
        <ele>461.4</ele>
        <time>2024-04-21T13:26:24.471Z</time>
      </trkpt>
      <trkpt lat="43.04045" lon="1.12044">
        <ele>461.8</ele>
        <time>2024-04-21T13:26:25.471Z</time>
      </trkpt>
      <trkpt lat="43.04043" lon="1.12042">
        <ele>462</ele>
        <time>2024-04-21T13:26:26.471Z</time>
      </trkpt>
      <trkpt lat="43.04041" lon="1.12041">
        <ele>462.4</ele>
        <time>2024-04-21T13:26:27.471Z</time>
      </trkpt>
      <trkpt lat="43.04039" lon="1.12041">
        <ele>462.8</ele>
        <time>2024-04-21T13:26:28.471Z</time>
      </trkpt>
      <trkpt lat="43.04036" lon="1.1204">
        <ele>462.8</ele>
        <time>2024-04-21T13:26:29.471Z</time>
      </trkpt>
      <trkpt lat="43.04032" lon="1.1204">
        <ele>463.2</ele>
        <time>2024-04-21T13:26:30.471Z</time>
      </trkpt>
      <trkpt lat="43.0403" lon="1.12039">
        <ele>463.2</ele>
        <time>2024-04-21T13:26:31.471Z</time>
      </trkpt>
      <trkpt lat="43.04028" lon="1.12038">
        <ele>463.6</ele>
        <time>2024-04-21T13:26:32.471Z</time>
      </trkpt>
      <trkpt lat="43.04026" lon="1.12037">
        <ele>463.8</ele>
        <time>2024-04-21T13:26:33.471Z</time>
      </trkpt>
      <trkpt lat="43.04024" lon="1.12037">
        <ele>463.8</ele>
        <time>2024-04-21T13:26:34.471Z</time>
      </trkpt>
      <trkpt lat="43.04021" lon="1.12036">
        <ele>463.8</ele>
        <time>2024-04-21T13:26:35.471Z</time>
      </trkpt>
      <trkpt lat="43.04019" lon="1.12035">
        <ele>464.2</ele>
        <time>2024-04-21T13:26:36.471Z</time>
      </trkpt>
      <trkpt lat="43.04017" lon="1.12035">
        <ele>464.4</ele>
        <time>2024-04-21T13:26:37.471Z</time>
      </trkpt>
      <trkpt lat="43.04015" lon="1.12034">
        <ele>464.4</ele>
        <time>2024-04-21T13:26:38.471Z</time>
      </trkpt>
      <trkpt lat="43.04013" lon="1.12034">
        <ele>464.4</ele>
        <time>2024-04-21T13:26:39.471Z</time>
      </trkpt>
      <trkpt lat="43.04011" lon="1.12033">
        <ele>464.4</ele>
        <time>2024-04-21T13:26:40.471Z</time>
      </trkpt>
      <trkpt lat="43.04009" lon="1.12033">
        <ele>464.6</ele>
        <time>2024-04-21T13:26:41.471Z</time>
      </trkpt>
      <trkpt lat="43.04007" lon="1.12033">
        <ele>464</ele>
        <time>2024-04-21T13:26:42.471Z</time>
      </trkpt>
      <trkpt lat="43.04004" lon="1.12032">
        <ele>464.2</ele>
        <time>2024-04-21T13:26:43.471Z</time>
      </trkpt>
      <trkpt lat="43.04001" lon="1.12031">
        <ele>464</ele>
        <time>2024-04-21T13:26:44.471Z</time>
      </trkpt>
      <trkpt lat="43.03998" lon="1.1203">
        <ele>464</ele>
        <time>2024-04-21T13:26:45.471Z</time>
      </trkpt>
      <trkpt lat="43.03995" lon="1.1203">
        <ele>463.4</ele>
        <time>2024-04-21T13:26:46.471Z</time>
      </trkpt>
      <trkpt lat="43.03993" lon="1.1203">
        <ele>463.4</ele>
        <time>2024-04-21T13:26:47.471Z</time>
      </trkpt>
      <trkpt lat="43.0399" lon="1.1203">
        <ele>463.4</ele>
        <time>2024-04-21T13:26:48.471Z</time>
      </trkpt>
      <trkpt lat="43.03988" lon="1.12031">
        <ele>463.4</ele>
        <time>2024-04-21T13:26:49.471Z</time>
      </trkpt>
      <trkpt lat="43.03987" lon="1.12031">
        <ele>463.2</ele>
        <time>2024-04-21T13:26:50.471Z</time>
      </trkpt>
      <trkpt lat="43.03986" lon="1.12031">
        <ele>463.2</ele>
        <time>2024-04-21T13:26:51.471Z</time>
      </trkpt>
      <trkpt lat="43.03984" lon="1.12031">
        <ele>462.8</ele>
        <time>2024-04-21T13:26:52.471Z</time>
      </trkpt>
      <trkpt lat="43.03982" lon="1.12031">
        <ele>462.6</ele>
        <time>2024-04-21T13:26:53.471Z</time>
      </trkpt>
      <trkpt lat="43.03979" lon="1.12032">
        <ele>462.6</ele>
        <time>2024-04-21T13:26:54.471Z</time>
      </trkpt>
      <trkpt lat="43.03975" lon="1.12033">
        <ele>462</ele>
        <time>2024-04-21T13:26:55.471Z</time>
      </trkpt>
      <trkpt lat="43.03972" lon="1.12034">
        <ele>462</ele>
        <time>2024-04-21T13:26:56.471Z</time>
      </trkpt>
      <trkpt lat="43.03968" lon="1.12035">
        <ele>462</ele>
        <time>2024-04-21T13:26:57.471Z</time>
      </trkpt>
      <trkpt lat="43.03964" lon="1.12036">
        <ele>461.8</ele>
        <time>2024-04-21T13:26:58.471Z</time>
      </trkpt>
      <trkpt lat="43.03962" lon="1.12037">
        <ele>461.6</ele>
        <time>2024-04-21T13:26:59.471Z</time>
      </trkpt>
      <trkpt lat="43.03959" lon="1.12038">
        <ele>461.6</ele>
        <time>2024-04-21T13:27:00.471Z</time>
      </trkpt>
      <trkpt lat="43.03955" lon="1.1204">
        <ele>461.6</ele>
        <time>2024-04-21T13:27:01.471Z</time>
      </trkpt>
      <trkpt lat="43.03951" lon="1.12041">
        <ele>461.2</ele>
        <time>2024-04-21T13:27:02.471Z</time>
      </trkpt>
      <trkpt lat="43.03948" lon="1.12042">
        <ele>460.8</ele>
        <time>2024-04-21T13:27:03.471Z</time>
      </trkpt>
      <trkpt lat="43.03944" lon="1.12043">
        <ele>461.2</ele>
        <time>2024-04-21T13:27:04.471Z</time>
      </trkpt>
      <trkpt lat="43.0394" lon="1.12045">
        <ele>460.8</ele>
        <time>2024-04-21T13:27:05.471Z</time>
      </trkpt>
      <trkpt lat="43.03936" lon="1.12045">
        <ele>460.8</ele>
        <time>2024-04-21T13:27:06.471Z</time>
      </trkpt>
      <trkpt lat="43.03932" lon="1.12047">
        <ele>460.4</ele>
        <time>2024-04-21T13:27:07.471Z</time>
      </trkpt>
      <trkpt lat="43.03929" lon="1.1205">
        <ele>459.8</ele>
        <time>2024-04-21T13:27:08.471Z</time>
      </trkpt>
      <trkpt lat="43.03926" lon="1.12052">
        <ele>459.8</ele>
        <time>2024-04-21T13:27:09.471Z</time>
      </trkpt>
      <trkpt lat="43.03923" lon="1.12054">
        <ele>459.8</ele>
        <time>2024-04-21T13:27:10.471Z</time>
      </trkpt>
      <trkpt lat="43.0392" lon="1.12056">
        <ele>460.2</ele>
        <time>2024-04-21T13:27:11.471Z</time>
      </trkpt>
      <trkpt lat="43.03917" lon="1.12058">
        <ele>459.6</ele>
        <time>2024-04-21T13:27:12.471Z</time>
      </trkpt>
      <trkpt lat="43.03915" lon="1.1206">
        <ele>460</ele>
        <time>2024-04-21T13:27:13.471Z</time>
      </trkpt>
      <trkpt lat="43.03912" lon="1.12062">
        <ele>460</ele>
        <time>2024-04-21T13:27:14.471Z</time>
      </trkpt>
      <trkpt lat="43.03909" lon="1.12064">
        <ele>459.8</ele>
        <time>2024-04-21T13:27:15.471Z</time>
      </trkpt>
      <trkpt lat="43.03907" lon="1.12066">
        <ele>459.4</ele>
        <time>2024-04-21T13:27:16.471Z</time>
      </trkpt>
      <trkpt lat="43.03905" lon="1.12067">
        <ele>459.4</ele>
        <time>2024-04-21T13:27:17.471Z</time>
      </trkpt>
      <trkpt lat="43.03902" lon="1.12069">
        <ele>459.4</ele>
        <time>2024-04-21T13:27:18.471Z</time>
      </trkpt>
      <trkpt lat="43.039" lon="1.12071">
        <ele>459.4</ele>
        <time>2024-04-21T13:27:19.471Z</time>
      </trkpt>
      <trkpt lat="43.03898" lon="1.12073">
        <ele>459.4</ele>
        <time>2024-04-21T13:27:20.471Z</time>
      </trkpt>
      <trkpt lat="43.03895" lon="1.12075">
        <ele>459.4</ele>
        <time>2024-04-21T13:27:21.471Z</time>
      </trkpt>
      <trkpt lat="43.03893" lon="1.12077">
        <ele>460</ele>
        <time>2024-04-21T13:27:22.471Z</time>
      </trkpt>
      <trkpt lat="43.03891" lon="1.12078">
        <ele>459.6</ele>
        <time>2024-04-21T13:27:23.471Z</time>
      </trkpt>
      <trkpt lat="43.03889" lon="1.1208">
        <ele>460</ele>
        <time>2024-04-21T13:27:24.471Z</time>
      </trkpt>
      <trkpt lat="43.03887" lon="1.12081">
        <ele>460.4</ele>
        <time>2024-04-21T13:27:25.471Z</time>
      </trkpt>
      <trkpt lat="43.03885" lon="1.12082">
        <ele>460.4</ele>
        <time>2024-04-21T13:27:26.471Z</time>
      </trkpt>
      <trkpt lat="43.03883" lon="1.12083">
        <ele>460.4</ele>
        <time>2024-04-21T13:27:27.471Z</time>
      </trkpt>
      <trkpt lat="43.03882" lon="1.12083">
        <ele>459.8</ele>
        <time>2024-04-21T13:27:28.471Z</time>
      </trkpt>
      <trkpt lat="43.03881" lon="1.12083">
        <ele>460.2</ele>
        <time>2024-04-21T13:27:29.471Z</time>
      </trkpt>
      <trkpt lat="43.03881" lon="1.12082">
        <ele>460.2</ele>
        <time>2024-04-21T13:27:30.471Z</time>
      </trkpt>
      <trkpt lat="43.03881" lon="1.12082">
        <ele>460.2</ele>
        <time>2024-04-21T13:27:31.471Z</time>
      </trkpt>
      <trkpt lat="43.03881" lon="1.12082">
        <ele>459.8</ele>
        <time>2024-04-21T13:28:52.471Z</time>
      </trkpt>
      <trkpt lat="43.03881" lon="1.12082">
        <ele>459.8</ele>
        <time>2024-04-21T13:28:53.471Z</time>
      </trkpt>
      <trkpt lat="43.03881" lon="1.12082">
        <ele>460</ele>
        <time>2024-04-21T13:28:54.471Z</time>
      </trkpt>
      <trkpt lat="43.0388" lon="1.12081">
        <ele>460</ele>
        <time>2024-04-21T13:29:13.471Z</time>
      </trkpt>
      <trkpt lat="43.03879" lon="1.12081">
        <ele>460</ele>
        <time>2024-04-21T13:29:14.471Z</time>
      </trkpt>
      <trkpt lat="43.03879" lon="1.12081">
        <ele>460</ele>
        <time>2024-04-21T13:29:15.471Z</time>
      </trkpt>
      <trkpt lat="43.03878" lon="1.12081">
        <ele>460.2</ele>
        <time>2024-04-21T13:29:16.471Z</time>
      </trkpt>
      <trkpt lat="43.03877" lon="1.1208">
        <ele>460.2</ele>
        <time>2024-04-21T13:29:17.471Z</time>
      </trkpt>
      <trkpt lat="43.03876" lon="1.1208">
        <ele>460.2</ele>
        <time>2024-04-21T13:29:18.471Z</time>
      </trkpt>
      <trkpt lat="43.03876" lon="1.1208">
        <ele>460.2</ele>
        <time>2024-04-21T13:29:19.471Z</time>
      </trkpt>
      <trkpt lat="43.03876" lon="1.1208">
        <ele>460.6</ele>
        <time>2024-04-21T13:29:20.471Z</time>
      </trkpt>
      <trkpt lat="43.03875" lon="1.1208">
        <ele>460.6</ele>
        <time>2024-04-21T13:29:21.471Z</time>
      </trkpt>
      <trkpt lat="43.03874" lon="1.1208">
        <ele>460.6</ele>
        <time>2024-04-21T13:29:22.471Z</time>
      </trkpt>
      <trkpt lat="43.03873" lon="1.1208">
        <ele>460.6</ele>
        <time>2024-04-21T13:29:23.471Z</time>
      </trkpt>
      <trkpt lat="43.03872" lon="1.1208">
        <ele>460.6</ele>
        <time>2024-04-21T13:29:24.471Z</time>
      </trkpt>
      <trkpt lat="43.03871" lon="1.1208">
        <ele>460.6</ele>
        <time>2024-04-21T13:29:25.471Z</time>
      </trkpt>
      <trkpt lat="43.0387" lon="1.1208">
        <ele>460.6</ele>
        <time>2024-04-21T13:29:26.471Z</time>
      </trkpt>
      <trkpt lat="43.0387" lon="1.1208">
        <ele>460.8</ele>
        <time>2024-04-21T13:29:27.471Z</time>
      </trkpt>
      <trkpt lat="43.03869" lon="1.1208">
        <ele>460.8</ele>
        <time>2024-04-21T13:29:28.471Z</time>
      </trkpt>
      <trkpt lat="43.03868" lon="1.1208">
        <ele>461</ele>
        <time>2024-04-21T13:29:29.471Z</time>
      </trkpt>
      <trkpt lat="43.03868" lon="1.1208">
        <ele>461</ele>
        <time>2024-04-21T13:29:30.471Z</time>
      </trkpt>
      <trkpt lat="43.03867" lon="1.1208">
        <ele>461</ele>
        <time>2024-04-21T13:29:31.471Z</time>
      </trkpt>
      <trkpt lat="43.03866" lon="1.1208">
        <ele>461</ele>
        <time>2024-04-21T13:29:32.471Z</time>
      </trkpt>
      <trkpt lat="43.03865" lon="1.1208">
        <ele>461.4</ele>
        <time>2024-04-21T13:29:33.471Z</time>
      </trkpt>
      <trkpt lat="43.03864" lon="1.1208">
        <ele>461.4</ele>
        <time>2024-04-21T13:29:34.471Z</time>
      </trkpt>
      <trkpt lat="43.03863" lon="1.1208">
        <ele>461.4</ele>
        <time>2024-04-21T13:29:35.471Z</time>
      </trkpt>
      <trkpt lat="43.03862" lon="1.1208">
        <ele>461.4</ele>
        <time>2024-04-21T13:29:36.471Z</time>
      </trkpt>
      <trkpt lat="43.03861" lon="1.12079">
        <ele>461.4</ele>
        <time>2024-04-21T13:29:37.471Z</time>
      </trkpt>
      <trkpt lat="43.03861" lon="1.12079">
        <ele>461.4</ele>
        <time>2024-04-21T13:29:38.471Z</time>
      </trkpt>
      <trkpt lat="43.0386" lon="1.12079">
        <ele>461.4</ele>
        <time>2024-04-21T13:29:39.471Z</time>
      </trkpt>
      <trkpt lat="43.03859" lon="1.12079">
        <ele>461.4</ele>
        <time>2024-04-21T13:29:40.471Z</time>
      </trkpt>
      <trkpt lat="43.03858" lon="1.12078">
        <ele>461.2</ele>
        <time>2024-04-21T13:29:41.471Z</time>
      </trkpt>
      <trkpt lat="43.03857" lon="1.12078">
        <ele>461.2</ele>
        <time>2024-04-21T13:29:42.471Z</time>
      </trkpt>
      <trkpt lat="43.03857" lon="1.12078">
        <ele>461.2</ele>
        <time>2024-04-21T13:29:43.471Z</time>
      </trkpt>
      <trkpt lat="43.03856" lon="1.12078">
        <ele>461.4</ele>
        <time>2024-04-21T13:29:44.471Z</time>
      </trkpt>
      <trkpt lat="43.03856" lon="1.12077">
        <ele>461.4</ele>
        <time>2024-04-21T13:29:45.471Z</time>
      </trkpt>
      <trkpt lat="43.03856" lon="1.12077">
        <ele>461.4</ele>
        <time>2024-04-21T13:29:46.471Z</time>
      </trkpt>
      <trkpt lat="43.03856" lon="1.12077">
        <ele>461.4</ele>
        <time>2024-04-21T13:29:47.471Z</time>
      </trkpt>
      <trkpt lat="43.03853" lon="1.12078">
        <ele>461.6</ele>
        <time>2024-04-21T13:30:11.471Z</time>
      </trkpt>
      <trkpt lat="43.03852" lon="1.12078">
        <ele>461.6</ele>
        <time>2024-04-21T13:30:12.471Z</time>
      </trkpt>
      <trkpt lat="43.0385" lon="1.12077">
        <ele>461.6</ele>
        <time>2024-04-21T13:30:13.471Z</time>
      </trkpt>
      <trkpt lat="43.03849" lon="1.12077">
        <ele>461.6</ele>
        <time>2024-04-21T13:30:14.471Z</time>
      </trkpt>
      <trkpt lat="43.03848" lon="1.12077">
        <ele>462</ele>
        <time>2024-04-21T13:30:15.471Z</time>
      </trkpt>
      <trkpt lat="43.03847" lon="1.12077">
        <ele>462</ele>
        <time>2024-04-21T13:30:16.471Z</time>
      </trkpt>
      <trkpt lat="43.03845" lon="1.12077">
        <ele>462.4</ele>
        <time>2024-04-21T13:30:17.471Z</time>
      </trkpt>
      <trkpt lat="43.03843" lon="1.12077">
        <ele>462.6</ele>
        <time>2024-04-21T13:30:18.471Z</time>
      </trkpt>
      <trkpt lat="43.03842" lon="1.12077">
        <ele>462.6</ele>
        <time>2024-04-21T13:30:19.471Z</time>
      </trkpt>
      <trkpt lat="43.0384" lon="1.12077">
        <ele>462.2</ele>
        <time>2024-04-21T13:30:20.471Z</time>
      </trkpt>
      <trkpt lat="43.03838" lon="1.12077">
        <ele>462.2</ele>
        <time>2024-04-21T13:30:21.471Z</time>
      </trkpt>
      <trkpt lat="43.03837" lon="1.12077">
        <ele>462.2</ele>
        <time>2024-04-21T13:30:22.471Z</time>
      </trkpt>
      <trkpt lat="43.03834" lon="1.12078">
        <ele>462.2</ele>
        <time>2024-04-21T13:30:23.471Z</time>
      </trkpt>
      <trkpt lat="43.03832" lon="1.12077">
        <ele>462.2</ele>
        <time>2024-04-21T13:30:24.471Z</time>
      </trkpt>
      <trkpt lat="43.0383" lon="1.12077">
        <ele>462.2</ele>
        <time>2024-04-21T13:30:25.471Z</time>
      </trkpt>
      <trkpt lat="43.03828" lon="1.12076">
        <ele>462.6</ele>
        <time>2024-04-21T13:30:26.471Z</time>
      </trkpt>
      <trkpt lat="43.03826" lon="1.12075">
        <ele>462.6</ele>
        <time>2024-04-21T13:30:27.471Z</time>
      </trkpt>
      <trkpt lat="43.03824" lon="1.12074">
        <ele>462.6</ele>
        <time>2024-04-21T13:30:28.471Z</time>
      </trkpt>
      <trkpt lat="43.03822" lon="1.12073">
        <ele>462.6</ele>
        <time>2024-04-21T13:30:29.471Z</time>
      </trkpt>
      <trkpt lat="43.0382" lon="1.12072">
        <ele>462.6</ele>
        <time>2024-04-21T13:30:30.471Z</time>
      </trkpt>
      <trkpt lat="43.03817" lon="1.12071">
        <ele>462.6</ele>
        <time>2024-04-21T13:30:31.471Z</time>
      </trkpt>
      <trkpt lat="43.03815" lon="1.1207">
        <ele>462.6</ele>
        <time>2024-04-21T13:30:32.471Z</time>
      </trkpt>
      <trkpt lat="43.03814" lon="1.1207">
        <ele>462.6</ele>
        <time>2024-04-21T13:30:33.471Z</time>
      </trkpt>
      <trkpt lat="43.03812" lon="1.12069">
        <ele>462.6</ele>
        <time>2024-04-21T13:30:34.471Z</time>
      </trkpt>
      <trkpt lat="43.0381" lon="1.12069">
        <ele>462.6</ele>
        <time>2024-04-21T13:30:35.471Z</time>
      </trkpt>
      <trkpt lat="43.03808" lon="1.12069">
        <ele>462.6</ele>
        <time>2024-04-21T13:30:36.471Z</time>
      </trkpt>
      <trkpt lat="43.03806" lon="1.12069">
        <ele>462.6</ele>
        <time>2024-04-21T13:30:37.471Z</time>
      </trkpt>
      <trkpt lat="43.03805" lon="1.12069">
        <ele>462.6</ele>
        <time>2024-04-21T13:30:38.471Z</time>
      </trkpt>
      <trkpt lat="43.03803" lon="1.12068">
        <ele>462.6</ele>
        <time>2024-04-21T13:30:39.471Z</time>
      </trkpt>
      <trkpt lat="43.03801" lon="1.12067">
        <ele>462.2</ele>
        <time>2024-04-21T13:30:40.471Z</time>
      </trkpt>
      <trkpt lat="43.03799" lon="1.12067">
        <ele>462.2</ele>
        <time>2024-04-21T13:30:41.471Z</time>
      </trkpt>
      <trkpt lat="43.03797" lon="1.12067">
        <ele>462.2</ele>
        <time>2024-04-21T13:30:42.471Z</time>
      </trkpt>
      <trkpt lat="43.03795" lon="1.12068">
        <ele>462.2</ele>
        <time>2024-04-21T13:30:43.471Z</time>
      </trkpt>
      <trkpt lat="43.03794" lon="1.12068">
        <ele>462.2</ele>
        <time>2024-04-21T13:30:44.471Z</time>
      </trkpt>
      <trkpt lat="43.03793" lon="1.12069">
        <ele>462.2</ele>
        <time>2024-04-21T13:30:45.471Z</time>
      </trkpt>
      <trkpt lat="43.03792" lon="1.12069">
        <ele>462.6</ele>
        <time>2024-04-21T13:30:46.471Z</time>
      </trkpt>
      <trkpt lat="43.0379" lon="1.12069">
        <ele>462.6</ele>
        <time>2024-04-21T13:30:47.471Z</time>
      </trkpt>
      <trkpt lat="43.03788" lon="1.12069">
        <ele>462.6</ele>
        <time>2024-04-21T13:30:48.471Z</time>
      </trkpt>
      <trkpt lat="43.03786" lon="1.12069">
        <ele>462.8</ele>
        <time>2024-04-21T13:30:49.471Z</time>
      </trkpt>
      <trkpt lat="43.03785" lon="1.12069">
        <ele>462.8</ele>
        <time>2024-04-21T13:30:50.471Z</time>
      </trkpt>
      <trkpt lat="43.03783" lon="1.12069">
        <ele>463</ele>
        <time>2024-04-21T13:30:51.471Z</time>
      </trkpt>
      <trkpt lat="43.03781" lon="1.12069">
        <ele>463</ele>
        <time>2024-04-21T13:30:52.471Z</time>
      </trkpt>
      <trkpt lat="43.0378" lon="1.12069">
        <ele>463</ele>
        <time>2024-04-21T13:30:53.471Z</time>
      </trkpt>
      <trkpt lat="43.03779" lon="1.12069">
        <ele>463.2</ele>
        <time>2024-04-21T13:30:54.471Z</time>
      </trkpt>
      <trkpt lat="43.03778" lon="1.1207">
        <ele>463.2</ele>
        <time>2024-04-21T13:30:55.471Z</time>
      </trkpt>
      <trkpt lat="43.03776" lon="1.1207">
        <ele>463.2</ele>
        <time>2024-04-21T13:30:56.471Z</time>
      </trkpt>
      <trkpt lat="43.03773" lon="1.12071">
        <ele>463.2</ele>
        <time>2024-04-21T13:30:57.471Z</time>
      </trkpt>
      <trkpt lat="43.03772" lon="1.12071">
        <ele>463.2</ele>
        <time>2024-04-21T13:30:58.471Z</time>
      </trkpt>
      <trkpt lat="43.0377" lon="1.12072">
        <ele>463.2</ele>
        <time>2024-04-21T13:30:59.471Z</time>
      </trkpt>
      <trkpt lat="43.03768" lon="1.12072">
        <ele>463.2</ele>
        <time>2024-04-21T13:31:00.471Z</time>
      </trkpt>
      <trkpt lat="43.03766" lon="1.12072">
        <ele>463.2</ele>
        <time>2024-04-21T13:31:01.471Z</time>
      </trkpt>
      <trkpt lat="43.03764" lon="1.12072">
        <ele>463.2</ele>
        <time>2024-04-21T13:31:02.471Z</time>
      </trkpt>
      <trkpt lat="43.03762" lon="1.12072">
        <ele>463.6</ele>
        <time>2024-04-21T13:31:03.471Z</time>
      </trkpt>
      <trkpt lat="43.03761" lon="1.12072">
        <ele>463.6</ele>
        <time>2024-04-21T13:31:04.471Z</time>
      </trkpt>
      <trkpt lat="43.03759" lon="1.12072">
        <ele>463.6</ele>
        <time>2024-04-21T13:31:05.471Z</time>
      </trkpt>
      <trkpt lat="43.03756" lon="1.12072">
        <ele>463.6</ele>
        <time>2024-04-21T13:31:06.471Z</time>
      </trkpt>
      <trkpt lat="43.03755" lon="1.12073">
        <ele>463.2</ele>
        <time>2024-04-21T13:31:07.471Z</time>
      </trkpt>
      <trkpt lat="43.03753" lon="1.12074">
        <ele>462.8</ele>
        <time>2024-04-21T13:31:08.471Z</time>
      </trkpt>
      <trkpt lat="43.03751" lon="1.12075">
        <ele>462.8</ele>
        <time>2024-04-21T13:31:09.471Z</time>
      </trkpt>
      <trkpt lat="43.03749" lon="1.12076">
        <ele>463</ele>
        <time>2024-04-21T13:31:10.471Z</time>
      </trkpt>
      <trkpt lat="43.03748" lon="1.12077">
        <ele>463</ele>
        <time>2024-04-21T13:31:11.471Z</time>
      </trkpt>
      <trkpt lat="43.03747" lon="1.12077">
        <ele>463</ele>
        <time>2024-04-21T13:31:12.471Z</time>
      </trkpt>
      <trkpt lat="43.03746" lon="1.12078">
        <ele>463</ele>
        <time>2024-04-21T13:31:13.471Z</time>
      </trkpt>
      <trkpt lat="43.03746" lon="1.12078">
        <ele>463</ele>
        <time>2024-04-21T13:31:14.471Z</time>
      </trkpt>
      <trkpt lat="43.03746" lon="1.12079">
        <ele>463</ele>
        <time>2024-04-21T13:31:15.471Z</time>
      </trkpt>
      <trkpt lat="43.03744" lon="1.1208">
        <ele>462.8</ele>
        <time>2024-04-21T13:31:18.471Z</time>
      </trkpt>
      <trkpt lat="43.03743" lon="1.1208">
        <ele>462.8</ele>
        <time>2024-04-21T13:31:19.471Z</time>
      </trkpt>
      <trkpt lat="43.03742" lon="1.1208">
        <ele>462.8</ele>
        <time>2024-04-21T13:31:20.471Z</time>
      </trkpt>
      <trkpt lat="43.0374" lon="1.12079">
        <ele>462.8</ele>
        <time>2024-04-21T13:31:21.471Z</time>
      </trkpt>
      <trkpt lat="43.03739" lon="1.1208">
        <ele>462.8</ele>
        <time>2024-04-21T13:31:22.471Z</time>
      </trkpt>
      <trkpt lat="43.03737" lon="1.12081">
        <ele>462.8</ele>
        <time>2024-04-21T13:31:23.471Z</time>
      </trkpt>
      <trkpt lat="43.03736" lon="1.12082">
        <ele>462.4</ele>
        <time>2024-04-21T13:31:24.471Z</time>
      </trkpt>
      <trkpt lat="43.03736" lon="1.12082">
        <ele>462.2</ele>
        <time>2024-04-21T13:31:25.471Z</time>
      </trkpt>
      <trkpt lat="43.03735" lon="1.12082">
        <ele>462.2</ele>
        <time>2024-04-21T13:31:26.471Z</time>
      </trkpt>
      <trkpt lat="43.03732" lon="1.12082">
        <ele>462</ele>
        <time>2024-04-21T13:31:27.471Z</time>
      </trkpt>
      <trkpt lat="43.03729" lon="1.12083">
        <ele>462</ele>
        <time>2024-04-21T13:31:28.471Z</time>
      </trkpt>
      <trkpt lat="43.03727" lon="1.12083">
        <ele>462</ele>
        <time>2024-04-21T13:31:29.471Z</time>
      </trkpt>
      <trkpt lat="43.03725" lon="1.12084">
        <ele>461.8</ele>
        <time>2024-04-21T13:31:30.471Z</time>
      </trkpt>
      <trkpt lat="43.03722" lon="1.12085">
        <ele>461.8</ele>
        <time>2024-04-21T13:31:31.471Z</time>
      </trkpt>
      <trkpt lat="43.0372" lon="1.12085">
        <ele>461.8</ele>
        <time>2024-04-21T13:31:32.471Z</time>
      </trkpt>
      <trkpt lat="43.03717" lon="1.12085">
        <ele>461.4</ele>
        <time>2024-04-21T13:31:33.471Z</time>
      </trkpt>
      <trkpt lat="43.03717" lon="1.12085">
        <ele>461.4</ele>
        <time>2024-04-21T13:31:34.471Z</time>
      </trkpt>
      <trkpt lat="43.03715" lon="1.12086">
        <ele>461.4</ele>
        <time>2024-04-21T13:31:35.471Z</time>
      </trkpt>
      <trkpt lat="43.03712" lon="1.12086">
        <ele>461</ele>
        <time>2024-04-21T13:31:36.471Z</time>
      </trkpt>
      <trkpt lat="43.0371" lon="1.12087">
        <ele>461</ele>
        <time>2024-04-21T13:31:37.471Z</time>
      </trkpt>
      <trkpt lat="43.03707" lon="1.12087">
        <ele>461</ele>
        <time>2024-04-21T13:31:38.471Z</time>
      </trkpt>
      <trkpt lat="43.03704" lon="1.12087">
        <ele>461</ele>
        <time>2024-04-21T13:31:39.471Z</time>
      </trkpt>
      <trkpt lat="43.03702" lon="1.12088">
        <ele>461</ele>
        <time>2024-04-21T13:31:40.471Z</time>
      </trkpt>
      <trkpt lat="43.03701" lon="1.1209">
        <ele>461.2</ele>
        <time>2024-04-21T13:31:41.471Z</time>
      </trkpt>
      <trkpt lat="43.03701" lon="1.1209">
        <ele>461.2</ele>
        <time>2024-04-21T13:31:42.471Z</time>
      </trkpt>
      <trkpt lat="43.037" lon="1.12091">
        <ele>461.2</ele>
        <time>2024-04-21T13:31:43.471Z</time>
      </trkpt>
      <trkpt lat="43.037" lon="1.12091">
        <ele>461.6</ele>
        <time>2024-04-21T13:31:44.471Z</time>
      </trkpt>
      <trkpt lat="43.03699" lon="1.12092">
        <ele>461.6</ele>
        <time>2024-04-21T13:31:45.471Z</time>
      </trkpt>
      <trkpt lat="43.03697" lon="1.12093">
        <ele>461.6</ele>
        <time>2024-04-21T13:31:46.471Z</time>
      </trkpt>
      <trkpt lat="43.03696" lon="1.12093">
        <ele>461.6</ele>
        <time>2024-04-21T13:31:47.471Z</time>
      </trkpt>
      <trkpt lat="43.03695" lon="1.12094">
        <ele>461.6</ele>
        <time>2024-04-21T13:31:48.471Z</time>
      </trkpt>
      <trkpt lat="43.03694" lon="1.12095">
        <ele>461.8</ele>
        <time>2024-04-21T13:31:49.471Z</time>
      </trkpt>
      <trkpt lat="43.03693" lon="1.12096">
        <ele>461.8</ele>
        <time>2024-04-21T13:31:50.471Z</time>
      </trkpt>
      <trkpt lat="43.03692" lon="1.12096">
        <ele>461.8</ele>
        <time>2024-04-21T13:31:51.471Z</time>
      </trkpt>
      <trkpt lat="43.03691" lon="1.12097">
        <ele>461.6</ele>
        <time>2024-04-21T13:31:52.471Z</time>
      </trkpt>
      <trkpt lat="43.0369" lon="1.12098">
        <ele>461.4</ele>
        <time>2024-04-21T13:31:53.471Z</time>
      </trkpt>
      <trkpt lat="43.03689" lon="1.12098">
        <ele>461.4</ele>
        <time>2024-04-21T13:31:54.471Z</time>
      </trkpt>
      <trkpt lat="43.03688" lon="1.12099">
        <ele>461</ele>
        <time>2024-04-21T13:31:55.471Z</time>
      </trkpt>
      <trkpt lat="43.03686" lon="1.12101">
        <ele>461</ele>
        <time>2024-04-21T13:31:56.471Z</time>
      </trkpt>
      <trkpt lat="43.03685" lon="1.12102">
        <ele>461</ele>
        <time>2024-04-21T13:31:57.471Z</time>
      </trkpt>
      <trkpt lat="43.03684" lon="1.12103">
        <ele>461</ele>
        <time>2024-04-21T13:31:58.471Z</time>
      </trkpt>
      <trkpt lat="43.03682" lon="1.12104">
        <ele>461</ele>
        <time>2024-04-21T13:31:59.471Z</time>
      </trkpt>
      <trkpt lat="43.0368" lon="1.12105">
        <ele>460.6</ele>
        <time>2024-04-21T13:32:00.471Z</time>
      </trkpt>
      <trkpt lat="43.03678" lon="1.12106">
        <ele>460.6</ele>
        <time>2024-04-21T13:32:01.471Z</time>
      </trkpt>
      <trkpt lat="43.03677" lon="1.12108">
        <ele>460.6</ele>
        <time>2024-04-21T13:32:02.471Z</time>
      </trkpt>
      <trkpt lat="43.03676" lon="1.12109">
        <ele>460.6</ele>
        <time>2024-04-21T13:32:03.471Z</time>
      </trkpt>
      <trkpt lat="43.03675" lon="1.1211">
        <ele>460.4</ele>
        <time>2024-04-21T13:32:04.471Z</time>
      </trkpt>
      <trkpt lat="43.03674" lon="1.12111">
        <ele>460.4</ele>
        <time>2024-04-21T13:32:05.471Z</time>
      </trkpt>
      <trkpt lat="43.03673" lon="1.12112">
        <ele>460.4</ele>
        <time>2024-04-21T13:32:06.471Z</time>
      </trkpt>
      <trkpt lat="43.03672" lon="1.12113">
        <ele>460.4</ele>
        <time>2024-04-21T13:32:07.471Z</time>
      </trkpt>
      <trkpt lat="43.03671" lon="1.12115">
        <ele>460.4</ele>
        <time>2024-04-21T13:32:08.471Z</time>
      </trkpt>
      <trkpt lat="43.03669" lon="1.12116">
        <ele>460.4</ele>
        <time>2024-04-21T13:32:09.471Z</time>
      </trkpt>
      <trkpt lat="43.03668" lon="1.12118">
        <ele>460.4</ele>
        <time>2024-04-21T13:32:10.471Z</time>
      </trkpt>
      <trkpt lat="43.03666" lon="1.1212">
        <ele>460.4</ele>
        <time>2024-04-21T13:32:11.471Z</time>
      </trkpt>
      <trkpt lat="43.03665" lon="1.12122">
        <ele>460.2</ele>
        <time>2024-04-21T13:32:12.471Z</time>
      </trkpt>
      <trkpt lat="43.03663" lon="1.12124">
        <ele>460.2</ele>
        <time>2024-04-21T13:32:13.471Z</time>
      </trkpt>
      <trkpt lat="43.03661" lon="1.12126">
        <ele>460.2</ele>
        <time>2024-04-21T13:32:14.471Z</time>
      </trkpt>
      <trkpt lat="43.0366" lon="1.12128">
        <ele>460.2</ele>
        <time>2024-04-21T13:32:15.471Z</time>
      </trkpt>
      <trkpt lat="43.03658" lon="1.12129">
        <ele>460.2</ele>
        <time>2024-04-21T13:32:16.471Z</time>
      </trkpt>
      <trkpt lat="43.03657" lon="1.12131">
        <ele>460.2</ele>
        <time>2024-04-21T13:32:17.471Z</time>
      </trkpt>
      <trkpt lat="43.03655" lon="1.12133">
        <ele>460.2</ele>
        <time>2024-04-21T13:32:18.471Z</time>
      </trkpt>
      <trkpt lat="43.03653" lon="1.12135">
        <ele>460.2</ele>
        <time>2024-04-21T13:32:19.471Z</time>
      </trkpt>
      <trkpt lat="43.03651" lon="1.12137">
        <ele>460</ele>
        <time>2024-04-21T13:32:20.471Z</time>
      </trkpt>
      <trkpt lat="43.03649" lon="1.12138">
        <ele>459.8</ele>
        <time>2024-04-21T13:32:21.471Z</time>
      </trkpt>
      <trkpt lat="43.03648" lon="1.12139">
        <ele>459.8</ele>
        <time>2024-04-21T13:32:22.471Z</time>
      </trkpt>
      <trkpt lat="43.03647" lon="1.1214">
        <ele>459.8</ele>
        <time>2024-04-21T13:32:23.471Z</time>
      </trkpt>
      <trkpt lat="43.03645" lon="1.12141">
        <ele>459.8</ele>
        <time>2024-04-21T13:32:24.471Z</time>
      </trkpt>
      <trkpt lat="43.03644" lon="1.12143">
        <ele>460</ele>
        <time>2024-04-21T13:32:25.471Z</time>
      </trkpt>
      <trkpt lat="43.03642" lon="1.12144">
        <ele>460</ele>
        <time>2024-04-21T13:32:26.471Z</time>
      </trkpt>
      <trkpt lat="43.03641" lon="1.12146">
        <ele>460</ele>
        <time>2024-04-21T13:32:27.471Z</time>
      </trkpt>
      <trkpt lat="43.03639" lon="1.12147">
        <ele>460</ele>
        <time>2024-04-21T13:32:28.471Z</time>
      </trkpt>
      <trkpt lat="43.03637" lon="1.12149">
        <ele>460</ele>
        <time>2024-04-21T13:32:29.471Z</time>
      </trkpt>
      <trkpt lat="43.03636" lon="1.12151">
        <ele>460</ele>
        <time>2024-04-21T13:32:30.471Z</time>
      </trkpt>
      <trkpt lat="43.03635" lon="1.12153">
        <ele>460</ele>
        <time>2024-04-21T13:32:31.471Z</time>
      </trkpt>
      <trkpt lat="43.03633" lon="1.12155">
        <ele>460</ele>
        <time>2024-04-21T13:32:32.471Z</time>
      </trkpt>
      <trkpt lat="43.0363" lon="1.12158">
        <ele>460</ele>
        <time>2024-04-21T13:32:33.471Z</time>
      </trkpt>
      <trkpt lat="43.03629" lon="1.12161">
        <ele>460</ele>
        <time>2024-04-21T13:32:34.471Z</time>
      </trkpt>
      <trkpt lat="43.03628" lon="1.12163">
        <ele>460</ele>
        <time>2024-04-21T13:32:35.471Z</time>
      </trkpt>
      <trkpt lat="43.03626" lon="1.12165">
        <ele>460</ele>
        <time>2024-04-21T13:32:36.471Z</time>
      </trkpt>
      <trkpt lat="43.03625" lon="1.12167">
        <ele>460</ele>
        <time>2024-04-21T13:32:37.471Z</time>
      </trkpt>
      <trkpt lat="43.03624" lon="1.1217">
        <ele>460</ele>
        <time>2024-04-21T13:32:38.471Z</time>
      </trkpt>
      <trkpt lat="43.03623" lon="1.12172">
        <ele>460</ele>
        <time>2024-04-21T13:32:39.471Z</time>
      </trkpt>
      <trkpt lat="43.03622" lon="1.12174">
        <ele>460.2</ele>
        <time>2024-04-21T13:32:40.471Z</time>
      </trkpt>
      <trkpt lat="43.03621" lon="1.12177">
        <ele>460.2</ele>
        <time>2024-04-21T13:32:41.471Z</time>
      </trkpt>
      <trkpt lat="43.03621" lon="1.12179">
        <ele>460.2</ele>
        <time>2024-04-21T13:32:42.471Z</time>
      </trkpt>
      <trkpt lat="43.03621" lon="1.12181">
        <ele>460.6</ele>
        <time>2024-04-21T13:32:43.471Z</time>
      </trkpt>
      <trkpt lat="43.0362" lon="1.12183">
        <ele>460.6</ele>
        <time>2024-04-21T13:32:44.471Z</time>
      </trkpt>
      <trkpt lat="43.03619" lon="1.12185">
        <ele>460.6</ele>
        <time>2024-04-21T13:32:45.471Z</time>
      </trkpt>
      <trkpt lat="43.03618" lon="1.12187">
        <ele>460.6</ele>
        <time>2024-04-21T13:32:46.471Z</time>
      </trkpt>
      <trkpt lat="43.03617" lon="1.12189">
        <ele>460.8</ele>
        <time>2024-04-21T13:32:47.471Z</time>
      </trkpt>
      <trkpt lat="43.03615" lon="1.12191">
        <ele>460.8</ele>
        <time>2024-04-21T13:32:48.471Z</time>
      </trkpt>
      <trkpt lat="43.03613" lon="1.12193">
        <ele>460.8</ele>
        <time>2024-04-21T13:32:49.471Z</time>
      </trkpt>
      <trkpt lat="43.03612" lon="1.12195">
        <ele>460.8</ele>
        <time>2024-04-21T13:32:50.471Z</time>
      </trkpt>
      <trkpt lat="43.03611" lon="1.12197">
        <ele>460.8</ele>
        <time>2024-04-21T13:32:51.471Z</time>
      </trkpt>
      <trkpt lat="43.0361" lon="1.12199">
        <ele>460.6</ele>
        <time>2024-04-21T13:32:52.471Z</time>
      </trkpt>
      <trkpt lat="43.03609" lon="1.12201">
        <ele>460.8</ele>
        <time>2024-04-21T13:32:53.471Z</time>
      </trkpt>
      <trkpt lat="43.03608" lon="1.12203">
        <ele>461.2</ele>
        <time>2024-04-21T13:32:54.471Z</time>
      </trkpt>
      <trkpt lat="43.03607" lon="1.12204">
        <ele>461.2</ele>
        <time>2024-04-21T13:32:55.471Z</time>
      </trkpt>
      <trkpt lat="43.03606" lon="1.12205">
        <ele>461.2</ele>
        <time>2024-04-21T13:32:56.471Z</time>
      </trkpt>
      <trkpt lat="43.03605" lon="1.12207">
        <ele>461.4</ele>
        <time>2024-04-21T13:32:57.471Z</time>
      </trkpt>
      <trkpt lat="43.03604" lon="1.12208">
        <ele>461.4</ele>
        <time>2024-04-21T13:32:58.471Z</time>
      </trkpt>
      <trkpt lat="43.03603" lon="1.12209">
        <ele>461.4</ele>
        <time>2024-04-21T13:32:59.471Z</time>
      </trkpt>
      <trkpt lat="43.03602" lon="1.12212">
        <ele>461.6</ele>
        <time>2024-04-21T13:33:00.471Z</time>
      </trkpt>
      <trkpt lat="43.03601" lon="1.12214">
        <ele>461.6</ele>
        <time>2024-04-21T13:33:01.471Z</time>
      </trkpt>
      <trkpt lat="43.036" lon="1.12216">
        <ele>462</ele>
        <time>2024-04-21T13:33:02.471Z</time>
      </trkpt>
      <trkpt lat="43.03599" lon="1.12218">
        <ele>462</ele>
        <time>2024-04-21T13:33:03.471Z</time>
      </trkpt>
      <trkpt lat="43.03597" lon="1.1222">
        <ele>462</ele>
        <time>2024-04-21T13:33:04.471Z</time>
      </trkpt>
      <trkpt lat="43.03596" lon="1.12222">
        <ele>462</ele>
        <time>2024-04-21T13:33:05.471Z</time>
      </trkpt>
      <trkpt lat="43.03595" lon="1.12224">
        <ele>461.6</ele>
        <time>2024-04-21T13:33:06.471Z</time>
      </trkpt>
      <trkpt lat="43.03594" lon="1.12226">
        <ele>461.6</ele>
        <time>2024-04-21T13:33:07.471Z</time>
      </trkpt>
      <trkpt lat="43.03593" lon="1.12229">
        <ele>461.8</ele>
        <time>2024-04-21T13:33:08.471Z</time>
      </trkpt>
      <trkpt lat="43.03591" lon="1.12232">
        <ele>462.4</ele>
        <time>2024-04-21T13:33:09.471Z</time>
      </trkpt>
      <trkpt lat="43.0359" lon="1.12234">
        <ele>462.4</ele>
        <time>2024-04-21T13:33:10.471Z</time>
      </trkpt>
      <trkpt lat="43.03589" lon="1.12236">
        <ele>462.4</ele>
        <time>2024-04-21T13:33:11.471Z</time>
      </trkpt>
      <trkpt lat="43.03587" lon="1.12238">
        <ele>462.4</ele>
        <time>2024-04-21T13:33:12.471Z</time>
      </trkpt>
      <trkpt lat="43.03585" lon="1.1224">
        <ele>462</ele>
        <time>2024-04-21T13:33:13.471Z</time>
      </trkpt>
      <trkpt lat="43.03583" lon="1.12241">
        <ele>462</ele>
        <time>2024-04-21T13:33:14.471Z</time>
      </trkpt>
      <trkpt lat="43.03583" lon="1.12242">
        <ele>462</ele>
        <time>2024-04-21T13:33:15.471Z</time>
      </trkpt>
      <trkpt lat="43.03582" lon="1.12244">
        <ele>462</ele>
        <time>2024-04-21T13:33:16.471Z</time>
      </trkpt>
      <trkpt lat="43.03581" lon="1.12245">
        <ele>461.8</ele>
        <time>2024-04-21T13:33:17.471Z</time>
      </trkpt>
      <trkpt lat="43.03581" lon="1.12245">
        <ele>461.8</ele>
        <time>2024-04-21T13:33:18.471Z</time>
      </trkpt>
      <trkpt lat="43.03581" lon="1.12245">
        <ele>461.8</ele>
        <time>2024-04-21T13:33:19.471Z</time>
      </trkpt>
      <trkpt lat="43.03579" lon="1.12245">
        <ele>461.8</ele>
        <time>2024-04-21T13:33:23.471Z</time>
      </trkpt>
      <trkpt lat="43.03579" lon="1.12246">
        <ele>461.6</ele>
        <time>2024-04-21T13:33:24.471Z</time>
      </trkpt>
      <trkpt lat="43.03578" lon="1.12247">
        <ele>461.6</ele>
        <time>2024-04-21T13:33:25.471Z</time>
      </trkpt>
      <trkpt lat="43.03578" lon="1.12247">
        <ele>461.6</ele>
        <time>2024-04-21T13:33:26.471Z</time>
      </trkpt>
      <trkpt lat="43.03578" lon="1.12247">
        <ele>461.6</ele>
        <time>2024-04-21T13:33:27.471Z</time>
      </trkpt>
      <trkpt lat="43.03576" lon="1.12248">
        <ele>461.6</ele>
        <time>2024-04-21T13:33:32.471Z</time>
      </trkpt>
      <trkpt lat="43.03576" lon="1.12248">
        <ele>461.6</ele>
        <time>2024-04-21T13:33:33.471Z</time>
      </trkpt>
      <trkpt lat="43.03576" lon="1.12248">
        <ele>461.6</ele>
        <time>2024-04-21T13:33:34.471Z</time>
      </trkpt>
      <trkpt lat="43.03575" lon="1.12248">
        <ele>461.6</ele>
        <time>2024-04-21T13:33:35.471Z</time>
      </trkpt>
      <trkpt lat="43.03575" lon="1.12248">
        <ele>461.6</ele>
        <time>2024-04-21T13:33:36.471Z</time>
      </trkpt>
      <trkpt lat="43.03575" lon="1.12248">
        <ele>461.6</ele>
        <time>2024-04-21T13:33:37.471Z</time>
      </trkpt>
      <trkpt lat="43.03575" lon="1.12249">
        <ele>461.6</ele>
        <time>2024-04-21T13:33:40.471Z</time>
      </trkpt>
      <trkpt lat="43.03575" lon="1.12249">
        <ele>461.2</ele>
        <time>2024-04-21T13:33:41.471Z</time>
      </trkpt>
      <trkpt lat="43.03575" lon="1.12249">
        <ele>461.2</ele>
        <time>2024-04-21T13:33:42.471Z</time>
      </trkpt>
      <trkpt lat="43.03574" lon="1.12252">
        <ele>461</ele>
        <time>2024-04-21T13:34:02.471Z</time>
      </trkpt>
      <trkpt lat="43.03574" lon="1.12253">
        <ele>461.2</ele>
        <time>2024-04-21T13:34:03.471Z</time>
      </trkpt>
      <trkpt lat="43.03575" lon="1.12253">
        <ele>461.2</ele>
        <time>2024-04-21T13:34:04.471Z</time>
      </trkpt>
      <trkpt lat="43.03575" lon="1.12253">
        <ele>461.2</ele>
        <time>2024-04-21T13:34:05.471Z</time>
      </trkpt>
      <trkpt lat="43.03573" lon="1.12253">
        <ele>461.2</ele>
        <time>2024-04-21T13:34:27.471Z</time>
      </trkpt>
      <trkpt lat="43.03574" lon="1.12253">
        <ele>461.2</ele>
        <time>2024-04-21T13:34:28.471Z</time>
      </trkpt>
      <trkpt lat="43.03574" lon="1.12253">
        <ele>461.2</ele>
        <time>2024-04-21T13:34:29.471Z</time>
      </trkpt>
      <trkpt lat="43.03573" lon="1.12256">
        <ele>461.2</ele>
        <time>2024-04-21T13:34:34.471Z</time>
      </trkpt>
      <trkpt lat="43.03572" lon="1.12256">
        <ele>461.2</ele>
        <time>2024-04-21T13:34:35.471Z</time>
      </trkpt>
      <trkpt lat="43.03572" lon="1.12256">
        <ele>461.2</ele>
        <time>2024-04-21T13:34:36.471Z</time>
      </trkpt>
      <trkpt lat="43.03572" lon="1.12256">
        <ele>461.2</ele>
        <time>2024-04-21T13:34:37.471Z</time>
      </trkpt>
      <trkpt lat="43.03572" lon="1.12257">
        <ele>461.2</ele>
        <time>2024-04-21T13:34:38.471Z</time>
      </trkpt>
      <trkpt lat="43.03571" lon="1.12258">
        <ele>461.2</ele>
        <time>2024-04-21T13:34:39.471Z</time>
      </trkpt>
      <trkpt lat="43.0357" lon="1.1226">
        <ele>461.2</ele>
        <time>2024-04-21T13:34:40.471Z</time>
      </trkpt>
      <trkpt lat="43.03569" lon="1.12261">
        <ele>461.2</ele>
        <time>2024-04-21T13:34:41.471Z</time>
      </trkpt>
      <trkpt lat="43.03567" lon="1.12263">
        <ele>461.2</ele>
        <time>2024-04-21T13:34:42.471Z</time>
      </trkpt>
      <trkpt lat="43.03566" lon="1.12265">
        <ele>461.2</ele>
        <time>2024-04-21T13:34:43.471Z</time>
      </trkpt>
      <trkpt lat="43.03565" lon="1.12265">
        <ele>461.2</ele>
        <time>2024-04-21T13:34:44.471Z</time>
      </trkpt>
      <trkpt lat="43.03563" lon="1.12266">
        <ele>461.2</ele>
        <time>2024-04-21T13:34:45.471Z</time>
      </trkpt>
      <trkpt lat="43.03561" lon="1.12268">
        <ele>461.2</ele>
        <time>2024-04-21T13:34:46.471Z</time>
      </trkpt>
      <trkpt lat="43.03559" lon="1.1227">
        <ele>461</ele>
        <time>2024-04-21T13:34:47.471Z</time>
      </trkpt>
      <trkpt lat="43.03556" lon="1.12272">
        <ele>461</ele>
        <time>2024-04-21T13:34:48.471Z</time>
      </trkpt>
      <trkpt lat="43.03553" lon="1.12274">
        <ele>460.8</ele>
        <time>2024-04-21T13:34:49.471Z</time>
      </trkpt>
      <trkpt lat="43.03551" lon="1.12276">
        <ele>460.4</ele>
        <time>2024-04-21T13:34:50.471Z</time>
      </trkpt>
      <trkpt lat="43.03548" lon="1.12279">
        <ele>460.6</ele>
        <time>2024-04-21T13:34:51.471Z</time>
      </trkpt>
      <trkpt lat="43.03546" lon="1.12282">
        <ele>460.6</ele>
        <time>2024-04-21T13:34:52.471Z</time>
      </trkpt>
      <trkpt lat="43.03543" lon="1.12285">
        <ele>460.6</ele>
        <time>2024-04-21T13:34:53.471Z</time>
      </trkpt>
      <trkpt lat="43.03542" lon="1.12287">
        <ele>460.6</ele>
        <time>2024-04-21T13:34:54.471Z</time>
      </trkpt>
      <trkpt lat="43.0354" lon="1.1229">
        <ele>460.4</ele>
        <time>2024-04-21T13:34:55.471Z</time>
      </trkpt>
      <trkpt lat="43.03539" lon="1.12293">
        <ele>460.4</ele>
        <time>2024-04-21T13:34:56.471Z</time>
      </trkpt>
      <trkpt lat="43.03538" lon="1.12295">
        <ele>460.4</ele>
        <time>2024-04-21T13:34:57.471Z</time>
      </trkpt>
      <trkpt lat="43.03537" lon="1.12298">
        <ele>460.4</ele>
        <time>2024-04-21T13:34:58.471Z</time>
      </trkpt>
      <trkpt lat="43.03536" lon="1.123">
        <ele>460.4</ele>
        <time>2024-04-21T13:34:59.471Z</time>
      </trkpt>
      <trkpt lat="43.03535" lon="1.12303">
        <ele>460.4</ele>
        <time>2024-04-21T13:35:00.471Z</time>
      </trkpt>
      <trkpt lat="43.03535" lon="1.12306">
        <ele>460.4</ele>
        <time>2024-04-21T13:35:01.471Z</time>
      </trkpt>
      <trkpt lat="43.03534" lon="1.12309">
        <ele>460.6</ele>
        <time>2024-04-21T13:35:02.471Z</time>
      </trkpt>
      <trkpt lat="43.03533" lon="1.12312">
        <ele>460.6</ele>
        <time>2024-04-21T13:35:03.471Z</time>
      </trkpt>
      <trkpt lat="43.03532" lon="1.12315">
        <ele>460.6</ele>
        <time>2024-04-21T13:35:04.471Z</time>
      </trkpt>
      <trkpt lat="43.03531" lon="1.12317">
        <ele>460.6</ele>
        <time>2024-04-21T13:35:05.471Z</time>
      </trkpt>
      <trkpt lat="43.0353" lon="1.1232">
        <ele>460.8</ele>
        <time>2024-04-21T13:35:06.471Z</time>
      </trkpt>
      <trkpt lat="43.03529" lon="1.12322">
        <ele>461.2</ele>
        <time>2024-04-21T13:35:07.471Z</time>
      </trkpt>
      <trkpt lat="43.03528" lon="1.12324">
        <ele>461.2</ele>
        <time>2024-04-21T13:35:08.471Z</time>
      </trkpt>
      <trkpt lat="43.03527" lon="1.12326">
        <ele>461.6</ele>
        <time>2024-04-21T13:35:09.471Z</time>
      </trkpt>
      <trkpt lat="43.03526" lon="1.12327">
        <ele>461.6</ele>
        <time>2024-04-21T13:35:10.471Z</time>
      </trkpt>
      <trkpt lat="43.03525" lon="1.12329">
        <ele>462</ele>
        <time>2024-04-21T13:35:11.471Z</time>
      </trkpt>
      <trkpt lat="43.03524" lon="1.12331">
        <ele>462</ele>
        <time>2024-04-21T13:35:12.471Z</time>
      </trkpt>
      <trkpt lat="43.03523" lon="1.12333">
        <ele>462</ele>
        <time>2024-04-21T13:35:13.471Z</time>
      </trkpt>
      <trkpt lat="43.03522" lon="1.12335">
        <ele>462</ele>
        <time>2024-04-21T13:35:14.471Z</time>
      </trkpt>
      <trkpt lat="43.03521" lon="1.12337">
        <ele>462.4</ele>
        <time>2024-04-21T13:35:15.471Z</time>
      </trkpt>
      <trkpt lat="43.0352" lon="1.12339">
        <ele>462.6</ele>
        <time>2024-04-21T13:35:16.471Z</time>
      </trkpt>
      <trkpt lat="43.03518" lon="1.12341">
        <ele>462.8</ele>
        <time>2024-04-21T13:35:17.471Z</time>
      </trkpt>
      <trkpt lat="43.03517" lon="1.12343">
        <ele>462.8</ele>
        <time>2024-04-21T13:35:18.471Z</time>
      </trkpt>
      <trkpt lat="43.03516" lon="1.12345">
        <ele>463</ele>
        <time>2024-04-21T13:35:19.471Z</time>
      </trkpt>
      <trkpt lat="43.03514" lon="1.12347">
        <ele>463.4</ele>
        <time>2024-04-21T13:35:20.471Z</time>
      </trkpt>
      <trkpt lat="43.03513" lon="1.12349">
        <ele>463.6</ele>
        <time>2024-04-21T13:35:21.471Z</time>
      </trkpt>
      <trkpt lat="43.03512" lon="1.12351">
        <ele>463.8</ele>
        <time>2024-04-21T13:35:22.471Z</time>
      </trkpt>
      <trkpt lat="43.03511" lon="1.12353">
        <ele>464</ele>
        <time>2024-04-21T13:35:23.471Z</time>
      </trkpt>
      <trkpt lat="43.0351" lon="1.12355">
        <ele>464</ele>
        <time>2024-04-21T13:35:24.471Z</time>
      </trkpt>
      <trkpt lat="43.03508" lon="1.12357">
        <ele>464.4</ele>
        <time>2024-04-21T13:35:25.471Z</time>
      </trkpt>
      <trkpt lat="43.03506" lon="1.12359">
        <ele>464.4</ele>
        <time>2024-04-21T13:35:26.471Z</time>
      </trkpt>
      <trkpt lat="43.03505" lon="1.12361">
        <ele>464.8</ele>
        <time>2024-04-21T13:35:27.471Z</time>
      </trkpt>
      <trkpt lat="43.03504" lon="1.12362">
        <ele>465</ele>
        <time>2024-04-21T13:35:28.471Z</time>
      </trkpt>
      <trkpt lat="43.03502" lon="1.12364">
        <ele>465</ele>
        <time>2024-04-21T13:35:29.471Z</time>
      </trkpt>
      <trkpt lat="43.035" lon="1.12366">
        <ele>465.2</ele>
        <time>2024-04-21T13:35:30.471Z</time>
      </trkpt>
      <trkpt lat="43.03498" lon="1.12368">
        <ele>465.2</ele>
        <time>2024-04-21T13:35:31.471Z</time>
      </trkpt>
      <trkpt lat="43.03496" lon="1.1237">
        <ele>465.6</ele>
        <time>2024-04-21T13:35:32.471Z</time>
      </trkpt>
      <trkpt lat="43.03494" lon="1.12373">
        <ele>465.6</ele>
        <time>2024-04-21T13:35:33.471Z</time>
      </trkpt>
      <trkpt lat="43.03492" lon="1.12375">
        <ele>465.6</ele>
        <time>2024-04-21T13:35:34.471Z</time>
      </trkpt>
      <trkpt lat="43.0349" lon="1.12377">
        <ele>465.6</ele>
        <time>2024-04-21T13:35:35.471Z</time>
      </trkpt>
      <trkpt lat="43.03487" lon="1.12379">
        <ele>465.8</ele>
        <time>2024-04-21T13:35:36.471Z</time>
      </trkpt>
      <trkpt lat="43.03485" lon="1.12381">
        <ele>465.8</ele>
        <time>2024-04-21T13:35:37.471Z</time>
      </trkpt>
      <trkpt lat="43.03483" lon="1.12384">
        <ele>465.8</ele>
        <time>2024-04-21T13:35:38.471Z</time>
      </trkpt>
      <trkpt lat="43.0348" lon="1.12385">
        <ele>466</ele>
        <time>2024-04-21T13:35:39.471Z</time>
      </trkpt>
      <trkpt lat="43.03478" lon="1.12388">
        <ele>466</ele>
        <time>2024-04-21T13:35:40.471Z</time>
      </trkpt>
      <trkpt lat="43.03475" lon="1.12389">
        <ele>466</ele>
        <time>2024-04-21T13:35:41.471Z</time>
      </trkpt>
      <trkpt lat="43.03472" lon="1.12391">
        <ele>466</ele>
        <time>2024-04-21T13:35:42.471Z</time>
      </trkpt>
      <trkpt lat="43.03469" lon="1.12392">
        <ele>465.8</ele>
        <time>2024-04-21T13:35:43.471Z</time>
      </trkpt>
      <trkpt lat="43.03465" lon="1.12393">
        <ele>465.4</ele>
        <time>2024-04-21T13:35:44.471Z</time>
      </trkpt>
      <trkpt lat="43.03461" lon="1.12395">
        <ele>464.8</ele>
        <time>2024-04-21T13:35:45.471Z</time>
      </trkpt>
      <trkpt lat="43.03457" lon="1.12397">
        <ele>464.8</ele>
        <time>2024-04-21T13:35:46.471Z</time>
      </trkpt>
      <trkpt lat="43.03453" lon="1.12399">
        <ele>464.8</ele>
        <time>2024-04-21T13:35:47.471Z</time>
      </trkpt>
      <trkpt lat="43.03449" lon="1.12402">
        <ele>464.8</ele>
        <time>2024-04-21T13:35:48.471Z</time>
      </trkpt>
      <trkpt lat="43.03444" lon="1.12406">
        <ele>464.6</ele>
        <time>2024-04-21T13:35:49.471Z</time>
      </trkpt>
      <trkpt lat="43.03439" lon="1.12409">
        <ele>464.6</ele>
        <time>2024-04-21T13:35:50.471Z</time>
      </trkpt>
      <trkpt lat="43.03434" lon="1.12412">
        <ele>464</ele>
        <time>2024-04-21T13:35:51.471Z</time>
      </trkpt>
      <trkpt lat="43.0343" lon="1.12415">
        <ele>463.6</ele>
        <time>2024-04-21T13:35:52.471Z</time>
      </trkpt>
      <trkpt lat="43.03425" lon="1.12417">
        <ele>463.4</ele>
        <time>2024-04-21T13:35:53.471Z</time>
      </trkpt>
      <trkpt lat="43.03421" lon="1.1242">
        <ele>463.4</ele>
        <time>2024-04-21T13:35:54.471Z</time>
      </trkpt>
      <trkpt lat="43.03417" lon="1.12422">
        <ele>463</ele>
        <time>2024-04-21T13:35:55.471Z</time>
      </trkpt>
      <trkpt lat="43.03413" lon="1.12424">
        <ele>462.6</ele>
        <time>2024-04-21T13:35:56.471Z</time>
      </trkpt>
      <trkpt lat="43.03411" lon="1.12426">
        <ele>462.4</ele>
        <time>2024-04-21T13:35:57.471Z</time>
      </trkpt>
      <trkpt lat="43.03409" lon="1.12428">
        <ele>462.4</ele>
        <time>2024-04-21T13:35:58.471Z</time>
      </trkpt>
      <trkpt lat="43.03407" lon="1.12428">
        <ele>462.4</ele>
        <time>2024-04-21T13:35:59.471Z</time>
      </trkpt>
      <trkpt lat="43.03405" lon="1.12427">
        <ele>462.4</ele>
        <time>2024-04-21T13:36:00.471Z</time>
      </trkpt>
      <trkpt lat="43.03403" lon="1.12425">
        <ele>461.8</ele>
        <time>2024-04-21T13:36:01.471Z</time>
      </trkpt>
      <trkpt lat="43.03401" lon="1.12424">
        <ele>461.8</ele>
        <time>2024-04-21T13:36:02.471Z</time>
      </trkpt>
      <trkpt lat="43.03398" lon="1.12423">
        <ele>461.8</ele>
        <time>2024-04-21T13:36:03.471Z</time>
      </trkpt>
      <trkpt lat="43.03396" lon="1.12422">
        <ele>461.8</ele>
        <time>2024-04-21T13:36:04.471Z</time>
      </trkpt>
      <trkpt lat="43.03393" lon="1.12421">
        <ele>461.8</ele>
        <time>2024-04-21T13:36:05.471Z</time>
      </trkpt>
      <trkpt lat="43.0339" lon="1.1242">
        <ele>461.8</ele>
        <time>2024-04-21T13:36:06.471Z</time>
      </trkpt>
      <trkpt lat="43.03387" lon="1.12419">
        <ele>461.6</ele>
        <time>2024-04-21T13:36:07.471Z</time>
      </trkpt>
      <trkpt lat="43.03384" lon="1.12418">
        <ele>461.6</ele>
        <time>2024-04-21T13:36:08.471Z</time>
      </trkpt>
      <trkpt lat="43.03381" lon="1.12417">
        <ele>461.2</ele>
        <time>2024-04-21T13:36:09.471Z</time>
      </trkpt>
      <trkpt lat="43.03379" lon="1.12416">
        <ele>461.2</ele>
        <time>2024-04-21T13:36:10.471Z</time>
      </trkpt>
      <trkpt lat="43.03376" lon="1.12415">
        <ele>461.2</ele>
        <time>2024-04-21T13:36:11.471Z</time>
      </trkpt>
      <trkpt lat="43.03374" lon="1.12414">
        <ele>461.2</ele>
        <time>2024-04-21T13:36:12.471Z</time>
      </trkpt>
      <trkpt lat="43.03371" lon="1.12412">
        <ele>461.2</ele>
        <time>2024-04-21T13:36:13.471Z</time>
      </trkpt>
      <trkpt lat="43.03369" lon="1.12411">
        <ele>461</ele>
        <time>2024-04-21T13:36:14.471Z</time>
      </trkpt>
      <trkpt lat="43.03366" lon="1.12409">
        <ele>461</ele>
        <time>2024-04-21T13:36:15.471Z</time>
      </trkpt>
      <trkpt lat="43.03364" lon="1.12407">
        <ele>461</ele>
        <time>2024-04-21T13:36:16.471Z</time>
      </trkpt>
      <trkpt lat="43.03361" lon="1.12406">
        <ele>460.6</ele>
        <time>2024-04-21T13:36:17.471Z</time>
      </trkpt>
      <trkpt lat="43.03359" lon="1.12405">
        <ele>460.6</ele>
        <time>2024-04-21T13:36:18.471Z</time>
      </trkpt>
      <trkpt lat="43.03356" lon="1.12403">
        <ele>460.6</ele>
        <time>2024-04-21T13:36:19.471Z</time>
      </trkpt>
      <trkpt lat="43.03354" lon="1.12401">
        <ele>460.8</ele>
        <time>2024-04-21T13:36:20.471Z</time>
      </trkpt>
      <trkpt lat="43.03351" lon="1.124">
        <ele>460.6</ele>
        <time>2024-04-21T13:36:21.471Z</time>
      </trkpt>
      <trkpt lat="43.03349" lon="1.12398">
        <ele>460.6</ele>
        <time>2024-04-21T13:36:22.471Z</time>
      </trkpt>
      <trkpt lat="43.03346" lon="1.12397">
        <ele>460.8</ele>
        <time>2024-04-21T13:36:23.471Z</time>
      </trkpt>
      <trkpt lat="43.03344" lon="1.12395">
        <ele>460.8</ele>
        <time>2024-04-21T13:36:24.471Z</time>
      </trkpt>
      <trkpt lat="43.03342" lon="1.12394">
        <ele>460.8</ele>
        <time>2024-04-21T13:36:25.471Z</time>
      </trkpt>
      <trkpt lat="43.0334" lon="1.12392">
        <ele>461</ele>
        <time>2024-04-21T13:36:26.471Z</time>
      </trkpt>
      <trkpt lat="43.03337" lon="1.12391">
        <ele>461</ele>
        <time>2024-04-21T13:36:27.471Z</time>
      </trkpt>
      <trkpt lat="43.03335" lon="1.12389">
        <ele>461</ele>
        <time>2024-04-21T13:36:28.471Z</time>
      </trkpt>
      <trkpt lat="43.03333" lon="1.12388">
        <ele>461</ele>
        <time>2024-04-21T13:36:29.471Z</time>
      </trkpt>
      <trkpt lat="43.03331" lon="1.12387">
        <ele>461</ele>
        <time>2024-04-21T13:36:30.471Z</time>
      </trkpt>
      <trkpt lat="43.03328" lon="1.12386">
        <ele>461</ele>
        <time>2024-04-21T13:36:31.471Z</time>
      </trkpt>
      <trkpt lat="43.03326" lon="1.12384">
        <ele>461</ele>
        <time>2024-04-21T13:36:32.471Z</time>
      </trkpt>
      <trkpt lat="43.03324" lon="1.12383">
        <ele>461.2</ele>
        <time>2024-04-21T13:36:33.471Z</time>
      </trkpt>
      <trkpt lat="43.03322" lon="1.12381">
        <ele>461.2</ele>
        <time>2024-04-21T13:36:34.471Z</time>
      </trkpt>
      <trkpt lat="43.0332" lon="1.1238">
        <ele>461.6</ele>
        <time>2024-04-21T13:36:35.471Z</time>
      </trkpt>
      <trkpt lat="43.03318" lon="1.12379">
        <ele>461.6</ele>
        <time>2024-04-21T13:36:36.471Z</time>
      </trkpt>
      <trkpt lat="43.03316" lon="1.12377">
        <ele>461.6</ele>
        <time>2024-04-21T13:36:37.471Z</time>
      </trkpt>
      <trkpt lat="43.03314" lon="1.12376">
        <ele>461.6</ele>
        <time>2024-04-21T13:36:38.471Z</time>
      </trkpt>
      <trkpt lat="43.03312" lon="1.12374">
        <ele>462</ele>
        <time>2024-04-21T13:36:39.471Z</time>
      </trkpt>
      <trkpt lat="43.03309" lon="1.12373">
        <ele>462</ele>
        <time>2024-04-21T13:36:40.471Z</time>
      </trkpt>
      <trkpt lat="43.03307" lon="1.12371">
        <ele>462.2</ele>
        <time>2024-04-21T13:36:41.471Z</time>
      </trkpt>
      <trkpt lat="43.03305" lon="1.1237">
        <ele>462.2</ele>
        <time>2024-04-21T13:36:42.471Z</time>
      </trkpt>
      <trkpt lat="43.03303" lon="1.12369">
        <ele>461.8</ele>
        <time>2024-04-21T13:36:43.471Z</time>
      </trkpt>
      <trkpt lat="43.03301" lon="1.12368">
        <ele>461.8</ele>
        <time>2024-04-21T13:36:44.471Z</time>
      </trkpt>
      <trkpt lat="43.03299" lon="1.12367">
        <ele>462.2</ele>
        <time>2024-04-21T13:36:45.471Z</time>
      </trkpt>
      <trkpt lat="43.03297" lon="1.12366">
        <ele>462.2</ele>
        <time>2024-04-21T13:36:46.471Z</time>
      </trkpt>
      <trkpt lat="43.03295" lon="1.12366">
        <ele>462.4</ele>
        <time>2024-04-21T13:36:47.471Z</time>
      </trkpt>
      <trkpt lat="43.03292" lon="1.12365">
        <ele>462.6</ele>
        <time>2024-04-21T13:36:48.471Z</time>
      </trkpt>
      <trkpt lat="43.03291" lon="1.12364">
        <ele>462.6</ele>
        <time>2024-04-21T13:36:49.471Z</time>
      </trkpt>
      <trkpt lat="43.03289" lon="1.12364">
        <ele>463.2</ele>
        <time>2024-04-21T13:36:50.471Z</time>
      </trkpt>
      <trkpt lat="43.03287" lon="1.12364">
        <ele>463.2</ele>
        <time>2024-04-21T13:36:51.471Z</time>
      </trkpt>
      <trkpt lat="43.03285" lon="1.12364">
        <ele>463.4</ele>
        <time>2024-04-21T13:36:52.471Z</time>
      </trkpt>
      <trkpt lat="43.03283" lon="1.12363">
        <ele>463.4</ele>
        <time>2024-04-21T13:36:53.471Z</time>
      </trkpt>
      <trkpt lat="43.03281" lon="1.12363">
        <ele>463.8</ele>
        <time>2024-04-21T13:36:54.471Z</time>
      </trkpt>
      <trkpt lat="43.03279" lon="1.12363">
        <ele>464</ele>
        <time>2024-04-21T13:36:55.471Z</time>
      </trkpt>
      <trkpt lat="43.03277" lon="1.12362">
        <ele>464</ele>
        <time>2024-04-21T13:36:56.471Z</time>
      </trkpt>
      <trkpt lat="43.03276" lon="1.12362">
        <ele>464</ele>
        <time>2024-04-21T13:36:57.471Z</time>
      </trkpt>
      <trkpt lat="43.03274" lon="1.12362">
        <ele>464.4</ele>
        <time>2024-04-21T13:36:58.471Z</time>
      </trkpt>
      <trkpt lat="43.03272" lon="1.12362">
        <ele>464.4</ele>
        <time>2024-04-21T13:36:59.471Z</time>
      </trkpt>
      <trkpt lat="43.0327" lon="1.12362">
        <ele>464.8</ele>
        <time>2024-04-21T13:37:00.471Z</time>
      </trkpt>
      <trkpt lat="43.03267" lon="1.12362">
        <ele>465</ele>
        <time>2024-04-21T13:37:01.471Z</time>
      </trkpt>
      <trkpt lat="43.03265" lon="1.12362">
        <ele>465</ele>
        <time>2024-04-21T13:37:02.471Z</time>
      </trkpt>
      <trkpt lat="43.03263" lon="1.12362">
        <ele>465</ele>
        <time>2024-04-21T13:37:03.471Z</time>
      </trkpt>
      <trkpt lat="43.03261" lon="1.12363">
        <ele>465</ele>
        <time>2024-04-21T13:37:04.471Z</time>
      </trkpt>
      <trkpt lat="43.03259" lon="1.12363">
        <ele>465</ele>
        <time>2024-04-21T13:37:05.471Z</time>
      </trkpt>
      <trkpt lat="43.03257" lon="1.12364">
        <ele>465</ele>
        <time>2024-04-21T13:37:06.471Z</time>
      </trkpt>
      <trkpt lat="43.03255" lon="1.12365">
        <ele>465</ele>
        <time>2024-04-21T13:37:07.471Z</time>
      </trkpt>
      <trkpt lat="43.03254" lon="1.12366">
        <ele>465</ele>
        <time>2024-04-21T13:37:08.471Z</time>
      </trkpt>
      <trkpt lat="43.03252" lon="1.12366">
        <ele>465</ele>
        <time>2024-04-21T13:37:09.471Z</time>
      </trkpt>
      <trkpt lat="43.03252" lon="1.12367">
        <ele>465</ele>
        <time>2024-04-21T13:37:10.471Z</time>
      </trkpt>
      <trkpt lat="43.03251" lon="1.12367">
        <ele>465</ele>
        <time>2024-04-21T13:37:11.471Z</time>
      </trkpt>
      <trkpt lat="43.03251" lon="1.12368">
        <ele>465.2</ele>
        <time>2024-04-21T13:37:12.471Z</time>
      </trkpt>
      <trkpt lat="43.03251" lon="1.12368">
        <ele>465.2</ele>
        <time>2024-04-21T13:37:13.471Z</time>
      </trkpt>
      <trkpt lat="43.0325" lon="1.12367">
        <ele>465.2</ele>
        <time>2024-04-21T13:37:26.471Z</time>
      </trkpt>
      <trkpt lat="43.0325" lon="1.12367">
        <ele>465.2</ele>
        <time>2024-04-21T13:37:27.471Z</time>
      </trkpt>
      <trkpt lat="43.0325" lon="1.12367">
        <ele>465.2</ele>
        <time>2024-04-21T13:37:28.471Z</time>
      </trkpt>
      <trkpt lat="43.03249" lon="1.12368">
        <ele>465.2</ele>
        <time>2024-04-21T13:37:33.471Z</time>
      </trkpt>
      <trkpt lat="43.03249" lon="1.12368">
        <ele>465.2</ele>
        <time>2024-04-21T13:37:34.471Z</time>
      </trkpt>
      <trkpt lat="43.03249" lon="1.12368">
        <ele>465.2</ele>
        <time>2024-04-21T13:37:35.471Z</time>
      </trkpt>
      <trkpt lat="43.03247" lon="1.1237">
        <ele>465</ele>
        <time>2024-04-21T13:37:51.471Z</time>
      </trkpt>
      <trkpt lat="43.03246" lon="1.1237">
        <ele>465</ele>
        <time>2024-04-21T13:37:52.471Z</time>
      </trkpt>
      <trkpt lat="43.03244" lon="1.1237">
        <ele>464.8</ele>
        <time>2024-04-21T13:37:53.471Z</time>
      </trkpt>
      <trkpt lat="43.03242" lon="1.12371">
        <ele>464.8</ele>
        <time>2024-04-21T13:37:54.471Z</time>
      </trkpt>
      <trkpt lat="43.0324" lon="1.12371">
        <ele>464.8</ele>
        <time>2024-04-21T13:37:55.471Z</time>
      </trkpt>
      <trkpt lat="43.03239" lon="1.12372">
        <ele>464.8</ele>
        <time>2024-04-21T13:37:56.471Z</time>
      </trkpt>
      <trkpt lat="43.03237" lon="1.12372">
        <ele>464.8</ele>
        <time>2024-04-21T13:37:57.471Z</time>
      </trkpt>
      <trkpt lat="43.03235" lon="1.12372">
        <ele>464.8</ele>
        <time>2024-04-21T13:37:58.471Z</time>
      </trkpt>
      <trkpt lat="43.03233" lon="1.12372">
        <ele>464.8</ele>
        <time>2024-04-21T13:37:59.471Z</time>
      </trkpt>
      <trkpt lat="43.03231" lon="1.12371">
        <ele>464.8</ele>
        <time>2024-04-21T13:38:00.471Z</time>
      </trkpt>
      <trkpt lat="43.0323" lon="1.1237">
        <ele>465.2</ele>
        <time>2024-04-21T13:38:01.471Z</time>
      </trkpt>
      <trkpt lat="43.03228" lon="1.1237">
        <ele>465</ele>
        <time>2024-04-21T13:38:02.471Z</time>
      </trkpt>
      <trkpt lat="43.03226" lon="1.1237">
        <ele>464.8</ele>
        <time>2024-04-21T13:38:03.471Z</time>
      </trkpt>
      <trkpt lat="43.03225" lon="1.12371">
        <ele>464.8</ele>
        <time>2024-04-21T13:38:04.471Z</time>
      </trkpt>
      <trkpt lat="43.03225" lon="1.12371">
        <ele>464.8</ele>
        <time>2024-04-21T13:38:05.471Z</time>
      </trkpt>
      <trkpt lat="43.03226" lon="1.12371">
        <ele>464.8</ele>
        <time>2024-04-21T13:38:06.471Z</time>
      </trkpt>
      <trkpt lat="43.03224" lon="1.12371">
        <ele>464.8</ele>
        <time>2024-04-21T13:38:11.471Z</time>
      </trkpt>
      <trkpt lat="43.03224" lon="1.1237">
        <ele>464.8</ele>
        <time>2024-04-21T13:38:12.471Z</time>
      </trkpt>
      <trkpt lat="43.03223" lon="1.1237">
        <ele>465</ele>
        <time>2024-04-21T13:38:13.471Z</time>
      </trkpt>
      <trkpt lat="43.03223" lon="1.12369">
        <ele>465</ele>
        <time>2024-04-21T13:38:14.471Z</time>
      </trkpt>
      <trkpt lat="43.03223" lon="1.12369">
        <ele>465</ele>
        <time>2024-04-21T13:38:15.471Z</time>
      </trkpt>
      <trkpt lat="43.03222" lon="1.12371">
        <ele>465</ele>
        <time>2024-04-21T13:38:23.471Z</time>
      </trkpt>
      <trkpt lat="43.03222" lon="1.12367">
        <ele>468.3</ele>
        <time>2024-04-21T13:38:34.154Z</time>
      </trkpt>
      <trkpt lat="43.03229" lon="1.12372">
        <ele>467.3</ele>
        <time>2024-04-21T13:39:06.097Z</time>
      </trkpt>
      <trkpt lat="43.03217" lon="1.12364">
        <ele>469.3</ele>
        <time>2024-04-21T13:40:05.695Z</time>
      </trkpt>
      <trkpt lat="43.03193" lon="1.12396">
        <ele>470.2</ele>
        <time>2024-04-21T13:42:32.993Z</time>
      </trkpt>
      <trkpt lat="43.03192" lon="1.12395">
        <ele>470.2</ele>
        <time>2024-04-21T13:42:33.993Z</time>
      </trkpt>
      <trkpt lat="43.03192" lon="1.12395">
        <ele>470.6</ele>
        <time>2024-04-21T13:42:34.993Z</time>
      </trkpt>
      <trkpt lat="43.03191" lon="1.12394">
        <ele>470.6</ele>
        <time>2024-04-21T13:42:35.993Z</time>
      </trkpt>
      <trkpt lat="43.0319" lon="1.12393">
        <ele>470.6</ele>
        <time>2024-04-21T13:42:36.993Z</time>
      </trkpt>
      <trkpt lat="43.03189" lon="1.12392">
        <ele>470.8</ele>
        <time>2024-04-21T13:42:37.993Z</time>
      </trkpt>
      <trkpt lat="43.03188" lon="1.12392">
        <ele>471</ele>
        <time>2024-04-21T13:42:38.993Z</time>
      </trkpt>
      <trkpt lat="43.03187" lon="1.12391">
        <ele>471</ele>
        <time>2024-04-21T13:42:39.993Z</time>
      </trkpt>
      <trkpt lat="43.03186" lon="1.1239">
        <ele>471.4</ele>
        <time>2024-04-21T13:42:40.993Z</time>
      </trkpt>
      <trkpt lat="43.03186" lon="1.1239">
        <ele>471.4</ele>
        <time>2024-04-21T13:42:41.993Z</time>
      </trkpt>
      <trkpt lat="43.03186" lon="1.12391">
        <ele>471.8</ele>
        <time>2024-04-21T13:42:42.993Z</time>
      </trkpt>
      <trkpt lat="43.03184" lon="1.12389">
        <ele>472</ele>
        <time>2024-04-21T13:42:48.993Z</time>
      </trkpt>
      <trkpt lat="43.03183" lon="1.12388">
        <ele>472</ele>
        <time>2024-04-21T13:42:49.993Z</time>
      </trkpt>
      <trkpt lat="43.03182" lon="1.12387">
        <ele>472.4</ele>
        <time>2024-04-21T13:42:50.993Z</time>
      </trkpt>
      <trkpt lat="43.03181" lon="1.12386">
        <ele>472.4</ele>
        <time>2024-04-21T13:42:51.993Z</time>
      </trkpt>
      <trkpt lat="43.0318" lon="1.12386">
        <ele>472.6</ele>
        <time>2024-04-21T13:42:52.993Z</time>
      </trkpt>
      <trkpt lat="43.03179" lon="1.12385">
        <ele>472.6</ele>
        <time>2024-04-21T13:42:53.993Z</time>
      </trkpt>
      <trkpt lat="43.03178" lon="1.12385">
        <ele>473</ele>
        <time>2024-04-21T13:42:54.993Z</time>
      </trkpt>
      <trkpt lat="43.03177" lon="1.12385">
        <ele>473</ele>
        <time>2024-04-21T13:42:55.993Z</time>
      </trkpt>
      <trkpt lat="43.03176" lon="1.12384">
        <ele>473.4</ele>
        <time>2024-04-21T13:42:56.993Z</time>
      </trkpt>
      <trkpt lat="43.03177" lon="1.12384">
        <ele>473.4</ele>
        <time>2024-04-21T13:42:57.993Z</time>
      </trkpt>
      <trkpt lat="43.03176" lon="1.12384">
        <ele>473.6</ele>
        <time>2024-04-21T13:42:58.993Z</time>
      </trkpt>
      <trkpt lat="43.03176" lon="1.12383">
        <ele>473.8</ele>
        <time>2024-04-21T13:42:59.993Z</time>
      </trkpt>
      <trkpt lat="43.03174" lon="1.12383">
        <ele>473.8</ele>
        <time>2024-04-21T13:43:00.993Z</time>
      </trkpt>
      <trkpt lat="43.03173" lon="1.12382">
        <ele>473.8</ele>
        <time>2024-04-21T13:43:01.993Z</time>
      </trkpt>
      <trkpt lat="43.03172" lon="1.12382">
        <ele>474</ele>
        <time>2024-04-21T13:43:02.993Z</time>
      </trkpt>
      <trkpt lat="43.03172" lon="1.12381">
        <ele>474</ele>
        <time>2024-04-21T13:43:03.993Z</time>
      </trkpt>
      <trkpt lat="43.03171" lon="1.12381">
        <ele>474.2</ele>
        <time>2024-04-21T13:43:04.993Z</time>
      </trkpt>
      <trkpt lat="43.03171" lon="1.1238">
        <ele>474.2</ele>
        <time>2024-04-21T13:43:05.993Z</time>
      </trkpt>
      <trkpt lat="43.0317" lon="1.12379">
        <ele>474.2</ele>
        <time>2024-04-21T13:43:06.993Z</time>
      </trkpt>
      <trkpt lat="43.03169" lon="1.12378">
        <ele>474.6</ele>
        <time>2024-04-21T13:43:07.993Z</time>
      </trkpt>
      <trkpt lat="43.03168" lon="1.12377">
        <ele>475</ele>
        <time>2024-04-21T13:43:08.993Z</time>
      </trkpt>
      <trkpt lat="43.03167" lon="1.12377">
        <ele>475.2</ele>
        <time>2024-04-21T13:43:09.993Z</time>
      </trkpt>
      <trkpt lat="43.03166" lon="1.12376">
        <ele>475.6</ele>
        <time>2024-04-21T13:43:10.993Z</time>
      </trkpt>
      <trkpt lat="43.03165" lon="1.12375">
        <ele>475.6</ele>
        <time>2024-04-21T13:43:11.993Z</time>
      </trkpt>
      <trkpt lat="43.03165" lon="1.12375">
        <ele>475.6</ele>
        <time>2024-04-21T13:43:12.993Z</time>
      </trkpt>
      <trkpt lat="43.03164" lon="1.12374">
        <ele>475.6</ele>
        <time>2024-04-21T13:43:13.993Z</time>
      </trkpt>
      <trkpt lat="43.03163" lon="1.12373">
        <ele>475.8</ele>
        <time>2024-04-21T13:43:14.993Z</time>
      </trkpt>
      <trkpt lat="43.03162" lon="1.12372">
        <ele>475.8</ele>
        <time>2024-04-21T13:43:15.993Z</time>
      </trkpt>
      <trkpt lat="43.03162" lon="1.12372">
        <ele>475.8</ele>
        <time>2024-04-21T13:43:16.993Z</time>
      </trkpt>
      <trkpt lat="43.03161" lon="1.12372">
        <ele>476.2</ele>
        <time>2024-04-21T13:43:17.993Z</time>
      </trkpt>
      <trkpt lat="43.03159" lon="1.12371">
        <ele>476.2</ele>
        <time>2024-04-21T13:43:18.993Z</time>
      </trkpt>
      <trkpt lat="43.03158" lon="1.12371">
        <ele>476.2</ele>
        <time>2024-04-21T13:43:19.993Z</time>
      </trkpt>
      <trkpt lat="43.03157" lon="1.1237">
        <ele>476.2</ele>
        <time>2024-04-21T13:43:20.993Z</time>
      </trkpt>
      <trkpt lat="43.03157" lon="1.12369">
        <ele>476.4</ele>
        <time>2024-04-21T13:43:21.993Z</time>
      </trkpt>
      <trkpt lat="43.03156" lon="1.12369">
        <ele>476.8</ele>
        <time>2024-04-21T13:43:22.993Z</time>
      </trkpt>
      <trkpt lat="43.03155" lon="1.12368">
        <ele>476.8</ele>
        <time>2024-04-21T13:43:23.993Z</time>
      </trkpt>
      <trkpt lat="43.03154" lon="1.12368">
        <ele>476.8</ele>
        <time>2024-04-21T13:43:24.993Z</time>
      </trkpt>
      <trkpt lat="43.03153" lon="1.12367">
        <ele>477</ele>
        <time>2024-04-21T13:43:25.993Z</time>
      </trkpt>
      <trkpt lat="43.03152" lon="1.12366">
        <ele>477</ele>
        <time>2024-04-21T13:43:26.993Z</time>
      </trkpt>
      <trkpt lat="43.03151" lon="1.12365">
        <ele>477</ele>
        <time>2024-04-21T13:43:27.993Z</time>
      </trkpt>
      <trkpt lat="43.03151" lon="1.12365">
        <ele>477.2</ele>
        <time>2024-04-21T13:43:28.993Z</time>
      </trkpt>
      <trkpt lat="43.0315" lon="1.12364">
        <ele>477.6</ele>
        <time>2024-04-21T13:43:29.993Z</time>
      </trkpt>
      <trkpt lat="43.03149" lon="1.12364">
        <ele>477.6</ele>
        <time>2024-04-21T13:43:30.993Z</time>
      </trkpt>
      <trkpt lat="43.03148" lon="1.12364">
        <ele>478</ele>
        <time>2024-04-21T13:43:31.993Z</time>
      </trkpt>
      <trkpt lat="43.03147" lon="1.12364">
        <ele>478.2</ele>
        <time>2024-04-21T13:43:32.993Z</time>
      </trkpt>
      <trkpt lat="43.03146" lon="1.12364">
        <ele>478.2</ele>
        <time>2024-04-21T13:43:33.993Z</time>
      </trkpt>
      <trkpt lat="43.03145" lon="1.12364">
        <ele>478.4</ele>
        <time>2024-04-21T13:43:34.993Z</time>
      </trkpt>
      <trkpt lat="43.03144" lon="1.12364">
        <ele>478.8</ele>
        <time>2024-04-21T13:43:35.993Z</time>
      </trkpt>
      <trkpt lat="43.03143" lon="1.12363">
        <ele>479</ele>
        <time>2024-04-21T13:43:36.993Z</time>
      </trkpt>
      <trkpt lat="43.03143" lon="1.12363">
        <ele>479</ele>
        <time>2024-04-21T13:43:37.993Z</time>
      </trkpt>
      <trkpt lat="43.03143" lon="1.12363">
        <ele>479</ele>
        <time>2024-04-21T13:43:38.993Z</time>
      </trkpt>
      <trkpt lat="43.03142" lon="1.12363">
        <ele>479</ele>
        <time>2024-04-21T13:43:39.993Z</time>
      </trkpt>
      <trkpt lat="43.0314" lon="1.12362">
        <ele>479.4</ele>
        <time>2024-04-21T13:43:40.993Z</time>
      </trkpt>
      <trkpt lat="43.0314" lon="1.12362">
        <ele>479.4</ele>
        <time>2024-04-21T13:43:41.993Z</time>
      </trkpt>
      <trkpt lat="43.0314" lon="1.12362">
        <ele>479.4</ele>
        <time>2024-04-21T13:43:42.993Z</time>
      </trkpt>
      <trkpt lat="43.0314" lon="1.12362">
        <ele>479.6</ele>
        <time>2024-04-21T13:43:43.993Z</time>
      </trkpt>
      <trkpt lat="43.0314" lon="1.12362">
        <ele>479.6</ele>
        <time>2024-04-21T13:43:44.993Z</time>
      </trkpt>
      <trkpt lat="43.03137" lon="1.12361">
        <ele>479.6</ele>
        <time>2024-04-21T13:43:48.993Z</time>
      </trkpt>
      <trkpt lat="43.03137" lon="1.1236">
        <ele>479.8</ele>
        <time>2024-04-21T13:43:49.993Z</time>
      </trkpt>
      <trkpt lat="43.03136" lon="1.1236">
        <ele>479.8</ele>
        <time>2024-04-21T13:43:50.993Z</time>
      </trkpt>
      <trkpt lat="43.03135" lon="1.12359">
        <ele>479.8</ele>
        <time>2024-04-21T13:43:51.993Z</time>
      </trkpt>
      <trkpt lat="43.03134" lon="1.12358">
        <ele>480.2</ele>
        <time>2024-04-21T13:43:52.993Z</time>
      </trkpt>
      <trkpt lat="43.03133" lon="1.12357">
        <ele>480.4</ele>
        <time>2024-04-21T13:43:53.993Z</time>
      </trkpt>
      <trkpt lat="43.03132" lon="1.12355">
        <ele>480.6</ele>
        <time>2024-04-21T13:43:54.993Z</time>
      </trkpt>
      <trkpt lat="43.03131" lon="1.12354">
        <ele>481</ele>
        <time>2024-04-21T13:43:55.993Z</time>
      </trkpt>
      <trkpt lat="43.0313" lon="1.12353">
        <ele>481</ele>
        <time>2024-04-21T13:43:56.993Z</time>
      </trkpt>
      <trkpt lat="43.03129" lon="1.12352">
        <ele>481</ele>
        <time>2024-04-21T13:43:57.993Z</time>
      </trkpt>
      <trkpt lat="43.03129" lon="1.1235">
        <ele>481.2</ele>
        <time>2024-04-21T13:43:58.993Z</time>
      </trkpt>
      <trkpt lat="43.03129" lon="1.12348">
        <ele>481.6</ele>
        <time>2024-04-21T13:43:59.993Z</time>
      </trkpt>
      <trkpt lat="43.03129" lon="1.12345">
        <ele>481.8</ele>
        <time>2024-04-21T13:44:00.993Z</time>
      </trkpt>
      <trkpt lat="43.03129" lon="1.12343">
        <ele>482</ele>
        <time>2024-04-21T13:44:01.993Z</time>
      </trkpt>
      <trkpt lat="43.03129" lon="1.12341">
        <ele>482</ele>
        <time>2024-04-21T13:44:02.993Z</time>
      </trkpt>
      <trkpt lat="43.03128" lon="1.12339">
        <ele>482.4</ele>
        <time>2024-04-21T13:44:03.993Z</time>
      </trkpt>
      <trkpt lat="43.03128" lon="1.12337">
        <ele>482.4</ele>
        <time>2024-04-21T13:44:04.993Z</time>
      </trkpt>
      <trkpt lat="43.03128" lon="1.12334">
        <ele>482.4</ele>
        <time>2024-04-21T13:44:05.993Z</time>
      </trkpt>
      <trkpt lat="43.03128" lon="1.12332">
        <ele>482.8</ele>
        <time>2024-04-21T13:44:06.993Z</time>
      </trkpt>
      <trkpt lat="43.03127" lon="1.12329">
        <ele>483.2</ele>
        <time>2024-04-21T13:44:07.993Z</time>
      </trkpt>
      <trkpt lat="43.03127" lon="1.12327">
        <ele>483.4</ele>
        <time>2024-04-21T13:44:08.993Z</time>
      </trkpt>
      <trkpt lat="43.03127" lon="1.12325">
        <ele>483.8</ele>
        <time>2024-04-21T13:44:09.993Z</time>
      </trkpt>
      <trkpt lat="43.03127" lon="1.12323">
        <ele>484</ele>
        <time>2024-04-21T13:44:10.993Z</time>
      </trkpt>
      <trkpt lat="43.03127" lon="1.12321">
        <ele>484.4</ele>
        <time>2024-04-21T13:44:11.993Z</time>
      </trkpt>
      <trkpt lat="43.03127" lon="1.12318">
        <ele>484.6</ele>
        <time>2024-04-21T13:44:12.993Z</time>
      </trkpt>
      <trkpt lat="43.03127" lon="1.12315">
        <ele>484.6</ele>
        <time>2024-04-21T13:44:13.993Z</time>
      </trkpt>
      <trkpt lat="43.03126" lon="1.12313">
        <ele>484.6</ele>
        <time>2024-04-21T13:44:14.993Z</time>
      </trkpt>
      <trkpt lat="43.03125" lon="1.12311">
        <ele>485.2</ele>
        <time>2024-04-21T13:44:15.993Z</time>
      </trkpt>
      <trkpt lat="43.03125" lon="1.1231">
        <ele>485.6</ele>
        <time>2024-04-21T13:44:16.993Z</time>
      </trkpt>
      <trkpt lat="43.03124" lon="1.12308">
        <ele>485.8</ele>
        <time>2024-04-21T13:44:17.993Z</time>
      </trkpt>
      <trkpt lat="43.03124" lon="1.12306">
        <ele>486</ele>
        <time>2024-04-21T13:44:18.993Z</time>
      </trkpt>
      <trkpt lat="43.03124" lon="1.12303">
        <ele>486.4</ele>
        <time>2024-04-21T13:44:19.993Z</time>
      </trkpt>
      <trkpt lat="43.03123" lon="1.123">
        <ele>486.6</ele>
        <time>2024-04-21T13:44:20.993Z</time>
      </trkpt>
      <trkpt lat="43.03123" lon="1.12297">
        <ele>487</ele>
        <time>2024-04-21T13:44:21.993Z</time>
      </trkpt>
      <trkpt lat="43.03123" lon="1.12294">
        <ele>487.2</ele>
        <time>2024-04-21T13:44:22.993Z</time>
      </trkpt>
      <trkpt lat="43.03123" lon="1.12291">
        <ele>487.4</ele>
        <time>2024-04-21T13:44:23.993Z</time>
      </trkpt>
      <trkpt lat="43.03123" lon="1.12289">
        <ele>487.8</ele>
        <time>2024-04-21T13:44:24.993Z</time>
      </trkpt>
      <trkpt lat="43.03123" lon="1.12287">
        <ele>488</ele>
        <time>2024-04-21T13:44:25.993Z</time>
      </trkpt>
      <trkpt lat="43.03123" lon="1.12286">
        <ele>488.4</ele>
        <time>2024-04-21T13:44:26.993Z</time>
      </trkpt>
      <trkpt lat="43.03122" lon="1.12286">
        <ele>488.8</ele>
        <time>2024-04-21T13:44:27.993Z</time>
      </trkpt>
      <trkpt lat="43.03122" lon="1.12286">
        <ele>489.2</ele>
        <time>2024-04-21T13:44:28.993Z</time>
      </trkpt>
      <trkpt lat="43.03121" lon="1.12283">
        <ele>489.8</ele>
        <time>2024-04-21T13:44:33.993Z</time>
      </trkpt>
      <trkpt lat="43.03121" lon="1.12282">
        <ele>490</ele>
        <time>2024-04-21T13:44:34.993Z</time>
      </trkpt>
      <trkpt lat="43.03121" lon="1.12282">
        <ele>490</ele>
        <time>2024-04-21T13:44:35.993Z</time>
      </trkpt>
      <trkpt lat="43.0312" lon="1.12279">
        <ele>490.2</ele>
        <time>2024-04-21T13:45:42.993Z</time>
      </trkpt>
      <trkpt lat="43.0312" lon="1.12278">
        <ele>489.8</ele>
        <time>2024-04-21T13:45:43.993Z</time>
      </trkpt>
      <trkpt lat="43.0312" lon="1.12278">
        <ele>489.8</ele>
        <time>2024-04-21T13:45:44.993Z</time>
      </trkpt>
      <trkpt lat="43.03122" lon="1.12276">
        <ele>490.4</ele>
        <time>2024-04-21T13:45:54.993Z</time>
      </trkpt>
      <trkpt lat="43.03122" lon="1.12275">
        <ele>490.8</ele>
        <time>2024-04-21T13:45:55.993Z</time>
      </trkpt>
      <trkpt lat="43.03122" lon="1.12274">
        <ele>491.2</ele>
        <time>2024-04-21T13:45:56.993Z</time>
      </trkpt>
      <trkpt lat="43.03122" lon="1.12272">
        <ele>491.2</ele>
        <time>2024-04-21T13:45:57.993Z</time>
      </trkpt>
      <trkpt lat="43.03122" lon="1.12271">
        <ele>491.4</ele>
        <time>2024-04-21T13:45:58.993Z</time>
      </trkpt>
      <trkpt lat="43.03122" lon="1.1227">
        <ele>491.4</ele>
        <time>2024-04-21T13:45:59.993Z</time>
      </trkpt>
      <trkpt lat="43.03122" lon="1.12269">
        <ele>491.8</ele>
        <time>2024-04-21T13:46:00.993Z</time>
      </trkpt>
      <trkpt lat="43.03122" lon="1.12267">
        <ele>492</ele>
        <time>2024-04-21T13:46:01.993Z</time>
      </trkpt>
      <trkpt lat="43.03122" lon="1.12266">
        <ele>492.2</ele>
        <time>2024-04-21T13:46:02.993Z</time>
      </trkpt>
      <trkpt lat="43.03122" lon="1.12265">
        <ele>492.2</ele>
        <time>2024-04-21T13:46:03.993Z</time>
      </trkpt>
      <trkpt lat="43.03122" lon="1.12264">
        <ele>492.6</ele>
        <time>2024-04-21T13:46:04.993Z</time>
      </trkpt>
      <trkpt lat="43.03122" lon="1.12263">
        <ele>492.6</ele>
        <time>2024-04-21T13:46:05.993Z</time>
      </trkpt>
      <trkpt lat="43.03123" lon="1.12261">
        <ele>493</ele>
        <time>2024-04-21T13:46:06.993Z</time>
      </trkpt>
      <trkpt lat="43.03123" lon="1.1226">
        <ele>493</ele>
        <time>2024-04-21T13:46:07.993Z</time>
      </trkpt>
      <trkpt lat="43.03123" lon="1.12259">
        <ele>493.2</ele>
        <time>2024-04-21T13:46:08.993Z</time>
      </trkpt>
      <trkpt lat="43.03123" lon="1.12258">
        <ele>493.2</ele>
        <time>2024-04-21T13:46:09.993Z</time>
      </trkpt>
      <trkpt lat="43.03123" lon="1.12257">
        <ele>493.6</ele>
        <time>2024-04-21T13:46:10.993Z</time>
      </trkpt>
      <trkpt lat="43.03124" lon="1.12256">
        <ele>493.6</ele>
        <time>2024-04-21T13:46:11.993Z</time>
      </trkpt>
      <trkpt lat="43.03124" lon="1.12256">
        <ele>493.8</ele>
        <time>2024-04-21T13:46:12.993Z</time>
      </trkpt>
      <trkpt lat="43.03124" lon="1.12254">
        <ele>493.8</ele>
        <time>2024-04-21T13:46:13.993Z</time>
      </trkpt>
      <trkpt lat="43.03125" lon="1.12252">
        <ele>494.4</ele>
        <time>2024-04-21T13:46:14.993Z</time>
      </trkpt>
      <trkpt lat="43.03125" lon="1.12251">
        <ele>494.6</ele>
        <time>2024-04-21T13:46:15.993Z</time>
      </trkpt>
      <trkpt lat="43.03125" lon="1.1225">
        <ele>495</ele>
        <time>2024-04-21T13:46:16.993Z</time>
      </trkpt>
      <trkpt lat="43.03125" lon="1.12249">
        <ele>495.4</ele>
        <time>2024-04-21T13:46:17.993Z</time>
      </trkpt>
      <trkpt lat="43.03126" lon="1.12248">
        <ele>495.6</ele>
        <time>2024-04-21T13:46:18.993Z</time>
      </trkpt>
      <trkpt lat="43.03126" lon="1.12247">
        <ele>495.6</ele>
        <time>2024-04-21T13:46:19.993Z</time>
      </trkpt>
      <trkpt lat="43.03126" lon="1.12246">
        <ele>496</ele>
        <time>2024-04-21T13:46:20.993Z</time>
      </trkpt>
      <trkpt lat="43.03126" lon="1.12246">
        <ele>496</ele>
        <time>2024-04-21T13:46:21.993Z</time>
      </trkpt>
      <trkpt lat="43.03127" lon="1.12245">
        <ele>496.2</ele>
        <time>2024-04-21T13:46:22.993Z</time>
      </trkpt>
      <trkpt lat="43.03127" lon="1.12245">
        <ele>496.2</ele>
        <time>2024-04-21T13:46:23.993Z</time>
      </trkpt>
      <trkpt lat="43.03127" lon="1.12243">
        <ele>496.6</ele>
        <time>2024-04-21T13:46:24.993Z</time>
      </trkpt>
      <trkpt lat="43.03128" lon="1.12242">
        <ele>496.6</ele>
        <time>2024-04-21T13:46:25.993Z</time>
      </trkpt>
      <trkpt lat="43.03128" lon="1.12241">
        <ele>496.8</ele>
        <time>2024-04-21T13:46:26.993Z</time>
      </trkpt>
      <trkpt lat="43.03128" lon="1.1224">
        <ele>496.8</ele>
        <time>2024-04-21T13:46:27.993Z</time>
      </trkpt>
      <trkpt lat="43.03129" lon="1.12239">
        <ele>497.2</ele>
        <time>2024-04-21T13:46:28.993Z</time>
      </trkpt>
      <trkpt lat="43.03129" lon="1.12238">
        <ele>497.6</ele>
        <time>2024-04-21T13:46:29.993Z</time>
      </trkpt>
      <trkpt lat="43.03129" lon="1.12236">
        <ele>497.8</ele>
        <time>2024-04-21T13:46:30.993Z</time>
      </trkpt>
      <trkpt lat="43.0313" lon="1.12235">
        <ele>497.8</ele>
        <time>2024-04-21T13:46:31.993Z</time>
      </trkpt>
      <trkpt lat="43.0313" lon="1.12234">
        <ele>498.4</ele>
        <time>2024-04-21T13:46:32.993Z</time>
      </trkpt>
      <trkpt lat="43.0313" lon="1.12232">
        <ele>498.4</ele>
        <time>2024-04-21T13:46:33.993Z</time>
      </trkpt>
      <trkpt lat="43.0313" lon="1.12231">
        <ele>498.6</ele>
        <time>2024-04-21T13:46:34.993Z</time>
      </trkpt>
      <trkpt lat="43.0313" lon="1.1223">
        <ele>498.6</ele>
        <time>2024-04-21T13:46:35.993Z</time>
      </trkpt>
      <trkpt lat="43.03131" lon="1.12229">
        <ele>499</ele>
        <time>2024-04-21T13:46:36.993Z</time>
      </trkpt>
      <trkpt lat="43.03131" lon="1.12229">
        <ele>499</ele>
        <time>2024-04-21T13:46:37.993Z</time>
      </trkpt>
      <trkpt lat="43.03131" lon="1.12229">
        <ele>499.2</ele>
        <time>2024-04-21T13:46:38.993Z</time>
      </trkpt>
      <trkpt lat="43.03131" lon="1.12229">
        <ele>499.2</ele>
        <time>2024-04-21T13:46:39.993Z</time>
      </trkpt>
      <trkpt lat="43.03133" lon="1.12228">
        <ele>499.2</ele>
        <time>2024-04-21T13:46:45.993Z</time>
      </trkpt>
      <trkpt lat="43.03134" lon="1.12227">
        <ele>499.2</ele>
        <time>2024-04-21T13:46:46.993Z</time>
      </trkpt>
      <trkpt lat="43.03135" lon="1.12228">
        <ele>499.2</ele>
        <time>2024-04-21T13:46:47.993Z</time>
      </trkpt>
      <trkpt lat="43.03136" lon="1.12228">
        <ele>499.2</ele>
        <time>2024-04-21T13:46:48.993Z</time>
      </trkpt>
      <trkpt lat="43.03137" lon="1.12228">
        <ele>499.4</ele>
        <time>2024-04-21T13:46:49.993Z</time>
      </trkpt>
      <trkpt lat="43.03139" lon="1.12228">
        <ele>499.4</ele>
        <time>2024-04-21T13:46:50.993Z</time>
      </trkpt>
      <trkpt lat="43.03141" lon="1.12227">
        <ele>499.4</ele>
        <time>2024-04-21T13:46:51.993Z</time>
      </trkpt>
      <trkpt lat="43.03142" lon="1.12226">
        <ele>499.4</ele>
        <time>2024-04-21T13:46:52.993Z</time>
      </trkpt>
      <trkpt lat="43.03142" lon="1.12225">
        <ele>499.4</ele>
        <time>2024-04-21T13:46:53.993Z</time>
      </trkpt>
      <trkpt lat="43.03143" lon="1.12223">
        <ele>499.4</ele>
        <time>2024-04-21T13:46:54.993Z</time>
      </trkpt>
      <trkpt lat="43.03143" lon="1.12221">
        <ele>499.8</ele>
        <time>2024-04-21T13:46:55.993Z</time>
      </trkpt>
      <trkpt lat="43.03143" lon="1.1222">
        <ele>499.8</ele>
        <time>2024-04-21T13:46:56.993Z</time>
      </trkpt>
      <trkpt lat="43.03143" lon="1.12219">
        <ele>500</ele>
        <time>2024-04-21T13:46:57.993Z</time>
      </trkpt>
      <trkpt lat="43.03143" lon="1.12219">
        <ele>500</ele>
        <time>2024-04-21T13:46:58.993Z</time>
      </trkpt>
      <trkpt lat="43.03143" lon="1.12219">
        <ele>500</ele>
        <time>2024-04-21T13:46:59.993Z</time>
      </trkpt>
      <trkpt lat="43.03144" lon="1.12217">
        <ele>500.4</ele>
        <time>2024-04-21T13:47:04.993Z</time>
      </trkpt>
      <trkpt lat="43.03144" lon="1.12216">
        <ele>500.4</ele>
        <time>2024-04-21T13:47:05.993Z</time>
      </trkpt>
      <trkpt lat="43.03145" lon="1.12214">
        <ele>500.4</ele>
        <time>2024-04-21T13:47:06.993Z</time>
      </trkpt>
      <trkpt lat="43.03145" lon="1.12213">
        <ele>500.4</ele>
        <time>2024-04-21T13:47:07.993Z</time>
      </trkpt>
      <trkpt lat="43.03145" lon="1.12212">
        <ele>501</ele>
        <time>2024-04-21T13:47:08.993Z</time>
      </trkpt>
      <trkpt lat="43.03145" lon="1.1221">
        <ele>501</ele>
        <time>2024-04-21T13:47:09.993Z</time>
      </trkpt>
      <trkpt lat="43.03145" lon="1.12209">
        <ele>501.4</ele>
        <time>2024-04-21T13:47:10.993Z</time>
      </trkpt>
      <trkpt lat="43.03144" lon="1.12208">
        <ele>501.6</ele>
        <time>2024-04-21T13:47:11.993Z</time>
      </trkpt>
      <trkpt lat="43.03144" lon="1.12207">
        <ele>501.8</ele>
        <time>2024-04-21T13:47:12.993Z</time>
      </trkpt>
      <trkpt lat="43.03144" lon="1.12206">
        <ele>501.8</ele>
        <time>2024-04-21T13:47:13.993Z</time>
      </trkpt>
      <trkpt lat="43.03143" lon="1.12204">
        <ele>502.2</ele>
        <time>2024-04-21T13:47:14.993Z</time>
      </trkpt>
      <trkpt lat="43.03142" lon="1.12203">
        <ele>502.4</ele>
        <time>2024-04-21T13:47:15.993Z</time>
      </trkpt>
      <trkpt lat="43.03142" lon="1.12202">
        <ele>502.4</ele>
        <time>2024-04-21T13:47:16.993Z</time>
      </trkpt>
      <trkpt lat="43.03142" lon="1.122">
        <ele>502.6</ele>
        <time>2024-04-21T13:47:17.993Z</time>
      </trkpt>
      <trkpt lat="43.03142" lon="1.12198">
        <ele>502.6</ele>
        <time>2024-04-21T13:47:18.993Z</time>
      </trkpt>
      <trkpt lat="43.03142" lon="1.12197">
        <ele>502.6</ele>
        <time>2024-04-21T13:47:19.993Z</time>
      </trkpt>
      <trkpt lat="43.03143" lon="1.12195">
        <ele>503</ele>
        <time>2024-04-21T13:47:20.993Z</time>
      </trkpt>
      <trkpt lat="43.03143" lon="1.12194">
        <ele>503</ele>
        <time>2024-04-21T13:47:21.993Z</time>
      </trkpt>
      <trkpt lat="43.03142" lon="1.12193">
        <ele>503.4</ele>
        <time>2024-04-21T13:47:22.993Z</time>
      </trkpt>
      <trkpt lat="43.03142" lon="1.12192">
        <ele>503.4</ele>
        <time>2024-04-21T13:47:23.993Z</time>
      </trkpt>
      <trkpt lat="43.03142" lon="1.1219">
        <ele>503.8</ele>
        <time>2024-04-21T13:47:24.993Z</time>
      </trkpt>
      <trkpt lat="43.03142" lon="1.12189">
        <ele>503.8</ele>
        <time>2024-04-21T13:47:25.993Z</time>
      </trkpt>
      <trkpt lat="43.03143" lon="1.12188">
        <ele>504</ele>
        <time>2024-04-21T13:47:26.993Z</time>
      </trkpt>
      <trkpt lat="43.03144" lon="1.12187">
        <ele>504.4</ele>
        <time>2024-04-21T13:47:27.993Z</time>
      </trkpt>
      <trkpt lat="43.03144" lon="1.12185">
        <ele>504.4</ele>
        <time>2024-04-21T13:47:28.993Z</time>
      </trkpt>
      <trkpt lat="43.03144" lon="1.12183">
        <ele>504.8</ele>
        <time>2024-04-21T13:47:29.993Z</time>
      </trkpt>
      <trkpt lat="43.03144" lon="1.12182">
        <ele>504.8</ele>
        <time>2024-04-21T13:47:30.993Z</time>
      </trkpt>
      <trkpt lat="43.03144" lon="1.1218">
        <ele>505</ele>
        <time>2024-04-21T13:47:31.993Z</time>
      </trkpt>
      <trkpt lat="43.03145" lon="1.12179">
        <ele>505</ele>
        <time>2024-04-21T13:47:32.993Z</time>
      </trkpt>
      <trkpt lat="43.03145" lon="1.12178">
        <ele>505</ele>
        <time>2024-04-21T13:47:33.993Z</time>
      </trkpt>
      <trkpt lat="43.03146" lon="1.12177">
        <ele>505</ele>
        <time>2024-04-21T13:47:34.993Z</time>
      </trkpt>
      <trkpt lat="43.03147" lon="1.12175">
        <ele>505.4</ele>
        <time>2024-04-21T13:47:35.993Z</time>
      </trkpt>
      <trkpt lat="43.03148" lon="1.12173">
        <ele>505.4</ele>
        <time>2024-04-21T13:47:36.993Z</time>
      </trkpt>
      <trkpt lat="43.03149" lon="1.12171">
        <ele>505.6</ele>
        <time>2024-04-21T13:47:37.993Z</time>
      </trkpt>
      <trkpt lat="43.03149" lon="1.1217">
        <ele>505.6</ele>
        <time>2024-04-21T13:47:38.993Z</time>
      </trkpt>
      <trkpt lat="43.0315" lon="1.12168">
        <ele>505.6</ele>
        <time>2024-04-21T13:47:39.993Z</time>
      </trkpt>
      <trkpt lat="43.0315" lon="1.12167">
        <ele>506</ele>
        <time>2024-04-21T13:47:40.993Z</time>
      </trkpt>
      <trkpt lat="43.03151" lon="1.12165">
        <ele>506</ele>
        <time>2024-04-21T13:47:41.993Z</time>
      </trkpt>
      <trkpt lat="43.0315" lon="1.12164">
        <ele>506.4</ele>
        <time>2024-04-21T13:47:42.993Z</time>
      </trkpt>
      <trkpt lat="43.0315" lon="1.12163">
        <ele>506.4</ele>
        <time>2024-04-21T13:47:43.993Z</time>
      </trkpt>
      <trkpt lat="43.0315" lon="1.12162">
        <ele>506.6</ele>
        <time>2024-04-21T13:47:44.993Z</time>
      </trkpt>
      <trkpt lat="43.03149" lon="1.1216">
        <ele>506.6</ele>
        <time>2024-04-21T13:47:45.993Z</time>
      </trkpt>
      <trkpt lat="43.03149" lon="1.12159">
        <ele>507</ele>
        <time>2024-04-21T13:47:46.993Z</time>
      </trkpt>
      <trkpt lat="43.03149" lon="1.12157">
        <ele>507</ele>
        <time>2024-04-21T13:47:47.993Z</time>
      </trkpt>
      <trkpt lat="43.03149" lon="1.12156">
        <ele>507</ele>
        <time>2024-04-21T13:47:48.993Z</time>
      </trkpt>
      <trkpt lat="43.03149" lon="1.12155">
        <ele>507.2</ele>
        <time>2024-04-21T13:47:49.993Z</time>
      </trkpt>
      <trkpt lat="43.03149" lon="1.12153">
        <ele>507.2</ele>
        <time>2024-04-21T13:47:50.993Z</time>
      </trkpt>
      <trkpt lat="43.03149" lon="1.12151">
        <ele>507.2</ele>
        <time>2024-04-21T13:47:51.993Z</time>
      </trkpt>
      <trkpt lat="43.03149" lon="1.12149">
        <ele>507.2</ele>
        <time>2024-04-21T13:47:52.993Z</time>
      </trkpt>
      <trkpt lat="43.03149" lon="1.12148">
        <ele>507.4</ele>
        <time>2024-04-21T13:47:53.993Z</time>
      </trkpt>
      <trkpt lat="43.0315" lon="1.12146">
        <ele>507.4</ele>
        <time>2024-04-21T13:47:54.993Z</time>
      </trkpt>
      <trkpt lat="43.0315" lon="1.12145">
        <ele>507.4</ele>
        <time>2024-04-21T13:47:55.993Z</time>
      </trkpt>
      <trkpt lat="43.0315" lon="1.12144">
        <ele>507.4</ele>
        <time>2024-04-21T13:47:56.993Z</time>
      </trkpt>
      <trkpt lat="43.0315" lon="1.12142">
        <ele>507.4</ele>
        <time>2024-04-21T13:47:57.993Z</time>
      </trkpt>
      <trkpt lat="43.0315" lon="1.1214">
        <ele>507.4</ele>
        <time>2024-04-21T13:47:58.993Z</time>
      </trkpt>
      <trkpt lat="43.03151" lon="1.12138">
        <ele>507.4</ele>
        <time>2024-04-21T13:47:59.993Z</time>
      </trkpt>
      <trkpt lat="43.03151" lon="1.12137">
        <ele>507.8</ele>
        <time>2024-04-21T13:48:00.993Z</time>
      </trkpt>
      <trkpt lat="43.03151" lon="1.12136">
        <ele>507.8</ele>
        <time>2024-04-21T13:48:01.993Z</time>
      </trkpt>
      <trkpt lat="43.03152" lon="1.12135">
        <ele>507.8</ele>
        <time>2024-04-21T13:48:02.993Z</time>
      </trkpt>
      <trkpt lat="43.03153" lon="1.12133">
        <ele>508.2</ele>
        <time>2024-04-21T13:48:03.993Z</time>
      </trkpt>
      <trkpt lat="43.03153" lon="1.12132">
        <ele>508.4</ele>
        <time>2024-04-21T13:48:04.993Z</time>
      </trkpt>
      <trkpt lat="43.03153" lon="1.12132">
        <ele>508.4</ele>
        <time>2024-04-21T13:48:05.993Z</time>
      </trkpt>
      <trkpt lat="43.03153" lon="1.12131">
        <ele>508.4</ele>
        <time>2024-04-21T13:48:06.993Z</time>
      </trkpt>
      <trkpt lat="43.03153" lon="1.12129">
        <ele>508.8</ele>
        <time>2024-04-21T13:48:07.993Z</time>
      </trkpt>
      <trkpt lat="43.03153" lon="1.12128">
        <ele>509</ele>
        <time>2024-04-21T13:48:08.993Z</time>
      </trkpt>
      <trkpt lat="43.03153" lon="1.12126">
        <ele>509</ele>
        <time>2024-04-21T13:48:09.993Z</time>
      </trkpt>
      <trkpt lat="43.03153" lon="1.12125">
        <ele>509.4</ele>
        <time>2024-04-21T13:48:10.993Z</time>
      </trkpt>
      <trkpt lat="43.03153" lon="1.12124">
        <ele>509.4</ele>
        <time>2024-04-21T13:48:11.993Z</time>
      </trkpt>
      <trkpt lat="43.03152" lon="1.12122">
        <ele>509.4</ele>
        <time>2024-04-21T13:48:12.993Z</time>
      </trkpt>
      <trkpt lat="43.03153" lon="1.12121">
        <ele>509.6</ele>
        <time>2024-04-21T13:48:13.993Z</time>
      </trkpt>
      <trkpt lat="43.03153" lon="1.1212">
        <ele>509.6</ele>
        <time>2024-04-21T13:48:14.993Z</time>
      </trkpt>
      <trkpt lat="43.03154" lon="1.12119">
        <ele>509.6</ele>
        <time>2024-04-21T13:48:15.993Z</time>
      </trkpt>
      <trkpt lat="43.03154" lon="1.12119">
        <ele>509.8</ele>
        <time>2024-04-21T13:48:16.993Z</time>
      </trkpt>
      <trkpt lat="43.03155" lon="1.12117">
        <ele>509.6</ele>
        <time>2024-04-21T13:48:17.993Z</time>
      </trkpt>
      <trkpt lat="43.03155" lon="1.12116">
        <ele>509.6</ele>
        <time>2024-04-21T13:48:18.993Z</time>
      </trkpt>
      <trkpt lat="43.03156" lon="1.12115">
        <ele>509.8</ele>
        <time>2024-04-21T13:48:19.993Z</time>
      </trkpt>
      <trkpt lat="43.03156" lon="1.12114">
        <ele>509.8</ele>
        <time>2024-04-21T13:48:20.993Z</time>
      </trkpt>
      <trkpt lat="43.03157" lon="1.12113">
        <ele>509.8</ele>
        <time>2024-04-21T13:48:21.993Z</time>
      </trkpt>
      <trkpt lat="43.03158" lon="1.12112">
        <ele>509.8</ele>
        <time>2024-04-21T13:48:22.993Z</time>
      </trkpt>
      <trkpt lat="43.03158" lon="1.1211">
        <ele>509.8</ele>
        <time>2024-04-21T13:48:23.993Z</time>
      </trkpt>
      <trkpt lat="43.03159" lon="1.12109">
        <ele>509.8</ele>
        <time>2024-04-21T13:48:24.993Z</time>
      </trkpt>
      <trkpt lat="43.03159" lon="1.12107">
        <ele>509.8</ele>
        <time>2024-04-21T13:48:25.993Z</time>
      </trkpt>
      <trkpt lat="43.03159" lon="1.12106">
        <ele>509.8</ele>
        <time>2024-04-21T13:48:26.993Z</time>
      </trkpt>
      <trkpt lat="43.03158" lon="1.12105">
        <ele>509.6</ele>
        <time>2024-04-21T13:48:27.993Z</time>
      </trkpt>
      <trkpt lat="43.03158" lon="1.12104">
        <ele>509.6</ele>
        <time>2024-04-21T13:48:28.993Z</time>
      </trkpt>
      <trkpt lat="43.03158" lon="1.12104">
        <ele>509.6</ele>
        <time>2024-04-21T13:48:29.993Z</time>
      </trkpt>
      <trkpt lat="43.03158" lon="1.12104">
        <ele>509.4</ele>
        <time>2024-04-21T13:48:30.993Z</time>
      </trkpt>
      <trkpt lat="43.03159" lon="1.12106">
        <ele>509.4</ele>
        <time>2024-04-21T13:49:15.993Z</time>
      </trkpt>
      <trkpt lat="43.03158" lon="1.12106">
        <ele>509.4</ele>
        <time>2024-04-21T13:49:16.993Z</time>
      </trkpt>
      <trkpt lat="43.03159" lon="1.12106">
        <ele>509.6</ele>
        <time>2024-04-21T13:49:17.993Z</time>
      </trkpt>
      <trkpt lat="43.03159" lon="1.12105">
        <ele>509.6</ele>
        <time>2024-04-21T13:49:18.993Z</time>
      </trkpt>
      <trkpt lat="43.03159" lon="1.12104">
        <ele>509.6</ele>
        <time>2024-04-21T13:49:19.993Z</time>
      </trkpt>
      <trkpt lat="43.0316" lon="1.12102">
        <ele>509.6</ele>
        <time>2024-04-21T13:49:20.993Z</time>
      </trkpt>
      <trkpt lat="43.03161" lon="1.121">
        <ele>509.6</ele>
        <time>2024-04-21T13:49:21.993Z</time>
      </trkpt>
      <trkpt lat="43.03161" lon="1.12097">
        <ele>509.4</ele>
        <time>2024-04-21T13:49:22.993Z</time>
      </trkpt>
      <trkpt lat="43.03162" lon="1.12095">
        <ele>509.2</ele>
        <time>2024-04-21T13:49:23.993Z</time>
      </trkpt>
      <trkpt lat="43.03163" lon="1.12092">
        <ele>509</ele>
        <time>2024-04-21T13:49:24.993Z</time>
      </trkpt>
      <trkpt lat="43.03164" lon="1.1209">
        <ele>508.8</ele>
        <time>2024-04-21T13:49:25.993Z</time>
      </trkpt>
      <trkpt lat="43.03165" lon="1.12088">
        <ele>508.4</ele>
        <time>2024-04-21T13:49:26.993Z</time>
      </trkpt>
      <trkpt lat="43.03167" lon="1.12085">
        <ele>508</ele>
        <time>2024-04-21T13:49:27.993Z</time>
      </trkpt>
      <trkpt lat="43.03169" lon="1.12083">
        <ele>507.8</ele>
        <time>2024-04-21T13:49:28.993Z</time>
      </trkpt>
      <trkpt lat="43.0317" lon="1.12081">
        <ele>507.8</ele>
        <time>2024-04-21T13:49:29.993Z</time>
      </trkpt>
      <trkpt lat="43.03172" lon="1.12078">
        <ele>507.4</ele>
        <time>2024-04-21T13:49:30.993Z</time>
      </trkpt>
      <trkpt lat="43.03172" lon="1.12078">
        <ele>507.4</ele>
        <time>2024-04-21T13:49:31.993Z</time>
      </trkpt>
      <trkpt lat="43.03174" lon="1.12074">
        <ele>506.8</ele>
        <time>2024-04-21T13:49:32.993Z</time>
      </trkpt>
      <trkpt lat="43.03177" lon="1.12071">
        <ele>506.2</ele>
        <time>2024-04-21T13:49:33.993Z</time>
      </trkpt>
      <trkpt lat="43.03179" lon="1.12069">
        <ele>504.8</ele>
        <time>2024-04-21T13:49:34.993Z</time>
      </trkpt>
      <trkpt lat="43.0318" lon="1.12067">
        <ele>504.2</ele>
        <time>2024-04-21T13:49:35.993Z</time>
      </trkpt>
      <trkpt lat="43.03182" lon="1.12063">
        <ele>503.8</ele>
        <time>2024-04-21T13:49:36.993Z</time>
      </trkpt>
      <trkpt lat="43.03185" lon="1.1206">
        <ele>503.6</ele>
        <time>2024-04-21T13:49:37.993Z</time>
      </trkpt>
      <trkpt lat="43.03187" lon="1.12057">
        <ele>502.8</ele>
        <time>2024-04-21T13:49:38.993Z</time>
      </trkpt>
      <trkpt lat="43.03189" lon="1.12054">
        <ele>502.2</ele>
        <time>2024-04-21T13:49:39.993Z</time>
      </trkpt>
      <trkpt lat="43.03191" lon="1.1205">
        <ele>501.4</ele>
        <time>2024-04-21T13:49:40.993Z</time>
      </trkpt>
      <trkpt lat="43.03194" lon="1.12046">
        <ele>500.8</ele>
        <time>2024-04-21T13:49:41.993Z</time>
      </trkpt>
      <trkpt lat="43.03195" lon="1.12043">
        <ele>500.2</ele>
        <time>2024-04-21T13:49:42.993Z</time>
      </trkpt>
      <trkpt lat="43.03198" lon="1.12041">
        <ele>499.6</ele>
        <time>2024-04-21T13:49:43.993Z</time>
      </trkpt>
      <trkpt lat="43.032" lon="1.12038">
        <ele>499.2</ele>
        <time>2024-04-21T13:49:44.993Z</time>
      </trkpt>
      <trkpt lat="43.03203" lon="1.12034">
        <ele>498.8</ele>
        <time>2024-04-21T13:49:45.993Z</time>
      </trkpt>
      <trkpt lat="43.03205" lon="1.12031">
        <ele>498.4</ele>
        <time>2024-04-21T13:49:46.993Z</time>
      </trkpt>
      <trkpt lat="43.03207" lon="1.12028">
        <ele>498</ele>
        <time>2024-04-21T13:49:47.993Z</time>
      </trkpt>
      <trkpt lat="43.03208" lon="1.12024">
        <ele>497.6</ele>
        <time>2024-04-21T13:49:48.993Z</time>
      </trkpt>
      <trkpt lat="43.03211" lon="1.1202">
        <ele>497.4</ele>
        <time>2024-04-21T13:49:49.993Z</time>
      </trkpt>
      <trkpt lat="43.03213" lon="1.12015">
        <ele>497.2</ele>
        <time>2024-04-21T13:49:50.993Z</time>
      </trkpt>
      <trkpt lat="43.03215" lon="1.12012">
        <ele>497.2</ele>
        <time>2024-04-21T13:49:51.993Z</time>
      </trkpt>
      <trkpt lat="43.03217" lon="1.12009">
        <ele>496.6</ele>
        <time>2024-04-21T13:49:52.993Z</time>
      </trkpt>
      <trkpt lat="43.03219" lon="1.12005">
        <ele>496.2</ele>
        <time>2024-04-21T13:49:53.993Z</time>
      </trkpt>
      <trkpt lat="43.03221" lon="1.12003">
        <ele>495.8</ele>
        <time>2024-04-21T13:49:54.993Z</time>
      </trkpt>
      <trkpt lat="43.03222" lon="1.12001">
        <ele>495.2</ele>
        <time>2024-04-21T13:49:55.993Z</time>
      </trkpt>
      <trkpt lat="43.03224" lon="1.11999">
        <ele>494.8</ele>
        <time>2024-04-21T13:49:56.993Z</time>
      </trkpt>
      <trkpt lat="43.03226" lon="1.11998">
        <ele>494.6</ele>
        <time>2024-04-21T13:49:57.993Z</time>
      </trkpt>
      <trkpt lat="43.03228" lon="1.11997">
        <ele>494.6</ele>
        <time>2024-04-21T13:49:58.993Z</time>
      </trkpt>
      <trkpt lat="43.0323" lon="1.11996">
        <ele>494.6</ele>
        <time>2024-04-21T13:49:59.993Z</time>
      </trkpt>
      <trkpt lat="43.03233" lon="1.11994">
        <ele>494.2</ele>
        <time>2024-04-21T13:50:00.993Z</time>
      </trkpt>
      <trkpt lat="43.03235" lon="1.11992">
        <ele>494.2</ele>
        <time>2024-04-21T13:50:01.993Z</time>
      </trkpt>
      <trkpt lat="43.03237" lon="1.1199">
        <ele>493.8</ele>
        <time>2024-04-21T13:50:02.993Z</time>
      </trkpt>
      <trkpt lat="43.03239" lon="1.11987">
        <ele>493.6</ele>
        <time>2024-04-21T13:50:03.993Z</time>
      </trkpt>
      <trkpt lat="43.0324" lon="1.11984">
        <ele>493.6</ele>
        <time>2024-04-21T13:50:04.993Z</time>
      </trkpt>
      <trkpt lat="43.0324" lon="1.11982">
        <ele>493.4</ele>
        <time>2024-04-21T13:50:05.993Z</time>
      </trkpt>
      <trkpt lat="43.0324" lon="1.11981">
        <ele>493.4</ele>
        <time>2024-04-21T13:50:06.993Z</time>
      </trkpt>
      <trkpt lat="43.03241" lon="1.1198">
        <ele>493</ele>
        <time>2024-04-21T13:50:07.993Z</time>
      </trkpt>
      <trkpt lat="43.03241" lon="1.11979">
        <ele>493</ele>
        <time>2024-04-21T13:50:08.993Z</time>
      </trkpt>
      <trkpt lat="43.03243" lon="1.11978">
        <ele>492.6</ele>
        <time>2024-04-21T13:50:09.993Z</time>
      </trkpt>
      <trkpt lat="43.03244" lon="1.11976">
        <ele>492.6</ele>
        <time>2024-04-21T13:50:10.993Z</time>
      </trkpt>
      <trkpt lat="43.03246" lon="1.1197">
        <ele>492</ele>
        <time>2024-04-21T13:50:11.993Z</time>
      </trkpt>
      <trkpt lat="43.03247" lon="1.11967">
        <ele>492</ele>
        <time>2024-04-21T13:50:12.993Z</time>
      </trkpt>
      <trkpt lat="43.03248" lon="1.11963">
        <ele>491.6</ele>
        <time>2024-04-21T13:50:13.993Z</time>
      </trkpt>
      <trkpt lat="43.0325" lon="1.1196">
        <ele>491.6</ele>
        <time>2024-04-21T13:50:14.993Z</time>
      </trkpt>
      <trkpt lat="43.03251" lon="1.11956">
        <ele>491.4</ele>
        <time>2024-04-21T13:50:15.993Z</time>
      </trkpt>
      <trkpt lat="43.03252" lon="1.11953">
        <ele>491</ele>
        <time>2024-04-21T13:50:16.993Z</time>
      </trkpt>
      <trkpt lat="43.03253" lon="1.11949">
        <ele>490.8</ele>
        <time>2024-04-21T13:50:17.993Z</time>
      </trkpt>
      <trkpt lat="43.03255" lon="1.11946">
        <ele>490.4</ele>
        <time>2024-04-21T13:50:18.993Z</time>
      </trkpt>
      <trkpt lat="43.03257" lon="1.11944">
        <ele>489.8</ele>
        <time>2024-04-21T13:50:19.993Z</time>
      </trkpt>
      <trkpt lat="43.0326" lon="1.11942">
        <ele>489.2</ele>
        <time>2024-04-21T13:50:20.993Z</time>
      </trkpt>
      <trkpt lat="43.03263" lon="1.11939">
        <ele>488.8</ele>
        <time>2024-04-21T13:50:21.993Z</time>
      </trkpt>
      <trkpt lat="43.03267" lon="1.11936">
        <ele>488.2</ele>
        <time>2024-04-21T13:50:22.993Z</time>
      </trkpt>
      <trkpt lat="43.0327" lon="1.11935">
        <ele>488.2</ele>
        <time>2024-04-21T13:50:23.993Z</time>
      </trkpt>
      <trkpt lat="43.03272" lon="1.11934">
        <ele>487.8</ele>
        <time>2024-04-21T13:50:24.993Z</time>
      </trkpt>
      <trkpt lat="43.03275" lon="1.11934">
        <ele>487.8</ele>
        <time>2024-04-21T13:50:25.993Z</time>
      </trkpt>
      <trkpt lat="43.03276" lon="1.11934">
        <ele>487.8</ele>
        <time>2024-04-21T13:50:26.993Z</time>
      </trkpt>
      <trkpt lat="43.03277" lon="1.11934">
        <ele>487.8</ele>
        <time>2024-04-21T13:50:27.993Z</time>
      </trkpt>
      <trkpt lat="43.03279" lon="1.11934">
        <ele>487.8</ele>
        <time>2024-04-21T13:50:28.993Z</time>
      </trkpt>
      <trkpt lat="43.03281" lon="1.11935">
        <ele>487.8</ele>
        <time>2024-04-21T13:50:29.993Z</time>
      </trkpt>
      <trkpt lat="43.03284" lon="1.11936">
        <ele>488.2</ele>
        <time>2024-04-21T13:50:30.993Z</time>
      </trkpt>
      <trkpt lat="43.03286" lon="1.11936">
        <ele>488.2</ele>
        <time>2024-04-21T13:50:31.993Z</time>
      </trkpt>
      <trkpt lat="43.03288" lon="1.11936">
        <ele>488.2</ele>
        <time>2024-04-21T13:50:32.993Z</time>
      </trkpt>
      <trkpt lat="43.0329" lon="1.11937">
        <ele>488.4</ele>
        <time>2024-04-21T13:50:33.993Z</time>
      </trkpt>
      <trkpt lat="43.03292" lon="1.11938">
        <ele>488.4</ele>
        <time>2024-04-21T13:50:34.993Z</time>
      </trkpt>
      <trkpt lat="43.03294" lon="1.1194">
        <ele>488.2</ele>
        <time>2024-04-21T13:50:35.993Z</time>
      </trkpt>
      <trkpt lat="43.03295" lon="1.11941">
        <ele>488.2</ele>
        <time>2024-04-21T13:50:36.993Z</time>
      </trkpt>
      <trkpt lat="43.03297" lon="1.11943">
        <ele>487.8</ele>
        <time>2024-04-21T13:50:37.993Z</time>
      </trkpt>
      <trkpt lat="43.03299" lon="1.11944">
        <ele>487.8</ele>
        <time>2024-04-21T13:50:38.993Z</time>
      </trkpt>
      <trkpt lat="43.03301" lon="1.11944">
        <ele>487.6</ele>
        <time>2024-04-21T13:50:39.993Z</time>
      </trkpt>
      <trkpt lat="43.03303" lon="1.11944">
        <ele>487.6</ele>
        <time>2024-04-21T13:50:40.993Z</time>
      </trkpt>
      <trkpt lat="43.03305" lon="1.11945">
        <ele>487.4</ele>
        <time>2024-04-21T13:50:41.993Z</time>
      </trkpt>
      <trkpt lat="43.03308" lon="1.11944">
        <ele>487.2</ele>
        <time>2024-04-21T13:50:42.993Z</time>
      </trkpt>
      <trkpt lat="43.03311" lon="1.11943">
        <ele>487.2</ele>
        <time>2024-04-21T13:50:43.993Z</time>
      </trkpt>
      <trkpt lat="43.03313" lon="1.11939">
        <ele>487.2</ele>
        <time>2024-04-21T13:50:44.993Z</time>
      </trkpt>
      <trkpt lat="43.03315" lon="1.11936">
        <ele>487.2</ele>
        <time>2024-04-21T13:50:45.993Z</time>
      </trkpt>
      <trkpt lat="43.03316" lon="1.11934">
        <ele>487.2</ele>
        <time>2024-04-21T13:50:46.993Z</time>
      </trkpt>
      <trkpt lat="43.03317" lon="1.11932">
        <ele>487</ele>
        <time>2024-04-21T13:50:47.993Z</time>
      </trkpt>
      <trkpt lat="43.03319" lon="1.11929">
        <ele>487</ele>
        <time>2024-04-21T13:50:48.993Z</time>
      </trkpt>
      <trkpt lat="43.0332" lon="1.11927">
        <ele>487.2</ele>
        <time>2024-04-21T13:50:49.993Z</time>
      </trkpt>
      <trkpt lat="43.03322" lon="1.11924">
        <ele>487.2</ele>
        <time>2024-04-21T13:50:50.993Z</time>
      </trkpt>
      <trkpt lat="43.03324" lon="1.11922">
        <ele>487.2</ele>
        <time>2024-04-21T13:50:51.993Z</time>
      </trkpt>
      <trkpt lat="43.03325" lon="1.1192">
        <ele>487.2</ele>
        <time>2024-04-21T13:50:52.993Z</time>
      </trkpt>
      <trkpt lat="43.03327" lon="1.11919">
        <ele>487.2</ele>
        <time>2024-04-21T13:50:53.993Z</time>
      </trkpt>
      <trkpt lat="43.03329" lon="1.11916">
        <ele>487.2</ele>
        <time>2024-04-21T13:50:54.993Z</time>
      </trkpt>
      <trkpt lat="43.03332" lon="1.11914">
        <ele>487.2</ele>
        <time>2024-04-21T13:50:55.993Z</time>
      </trkpt>
      <trkpt lat="43.03335" lon="1.11912">
        <ele>487.2</ele>
        <time>2024-04-21T13:50:56.993Z</time>
      </trkpt>
      <trkpt lat="43.03338" lon="1.11909">
        <ele>486.8</ele>
        <time>2024-04-21T13:50:57.993Z</time>
      </trkpt>
      <trkpt lat="43.0334" lon="1.11907">
        <ele>486.8</ele>
        <time>2024-04-21T13:50:58.993Z</time>
      </trkpt>
      <trkpt lat="43.03341" lon="1.11905">
        <ele>486.8</ele>
        <time>2024-04-21T13:50:59.993Z</time>
      </trkpt>
      <trkpt lat="43.03343" lon="1.11903">
        <ele>486.6</ele>
        <time>2024-04-21T13:51:00.993Z</time>
      </trkpt>
      <trkpt lat="43.03344" lon="1.11902">
        <ele>486.6</ele>
        <time>2024-04-21T13:51:01.993Z</time>
      </trkpt>
      <trkpt lat="43.03345" lon="1.119">
        <ele>486.4</ele>
        <time>2024-04-21T13:51:02.993Z</time>
      </trkpt>
      <trkpt lat="43.03347" lon="1.11899">
        <ele>486</ele>
        <time>2024-04-21T13:51:03.993Z</time>
      </trkpt>
      <trkpt lat="43.03348" lon="1.11897">
        <ele>486</ele>
        <time>2024-04-21T13:51:04.993Z</time>
      </trkpt>
      <trkpt lat="43.03349" lon="1.11895">
        <ele>486</ele>
        <time>2024-04-21T13:51:05.993Z</time>
      </trkpt>
      <trkpt lat="43.03349" lon="1.11894">
        <ele>486</ele>
        <time>2024-04-21T13:51:06.993Z</time>
      </trkpt>
      <trkpt lat="43.0335" lon="1.11891">
        <ele>486</ele>
        <time>2024-04-21T13:51:07.993Z</time>
      </trkpt>
      <trkpt lat="43.0335" lon="1.11888">
        <ele>486</ele>
        <time>2024-04-21T13:51:08.993Z</time>
      </trkpt>
      <trkpt lat="43.03351" lon="1.11886">
        <ele>486</ele>
        <time>2024-04-21T13:51:09.993Z</time>
      </trkpt>
      <trkpt lat="43.03352" lon="1.11884">
        <ele>486</ele>
        <time>2024-04-21T13:51:10.993Z</time>
      </trkpt>
      <trkpt lat="43.03354" lon="1.11882">
        <ele>486</ele>
        <time>2024-04-21T13:51:11.993Z</time>
      </trkpt>
      <trkpt lat="43.03355" lon="1.1188">
        <ele>486.4</ele>
        <time>2024-04-21T13:51:12.993Z</time>
      </trkpt>
      <trkpt lat="43.03355" lon="1.11877">
        <ele>486.4</ele>
        <time>2024-04-21T13:51:13.993Z</time>
      </trkpt>
      <trkpt lat="43.03356" lon="1.11876">
        <ele>486.4</ele>
        <time>2024-04-21T13:51:14.993Z</time>
      </trkpt>
      <trkpt lat="43.03357" lon="1.11874">
        <ele>486.4</ele>
        <time>2024-04-21T13:51:15.993Z</time>
      </trkpt>
      <trkpt lat="43.03358" lon="1.11871">
        <ele>486.4</ele>
        <time>2024-04-21T13:51:16.993Z</time>
      </trkpt>
      <trkpt lat="43.03358" lon="1.1187">
        <ele>486.4</ele>
        <time>2024-04-21T13:51:17.993Z</time>
      </trkpt>
      <trkpt lat="43.03359" lon="1.11867">
        <ele>486.4</ele>
        <time>2024-04-21T13:51:18.993Z</time>
      </trkpt>
      <trkpt lat="43.03359" lon="1.11865">
        <ele>486.4</ele>
        <time>2024-04-21T13:51:19.993Z</time>
      </trkpt>
      <trkpt lat="43.0336" lon="1.11862">
        <ele>486.4</ele>
        <time>2024-04-21T13:51:20.993Z</time>
      </trkpt>
      <trkpt lat="43.0336" lon="1.1186">
        <ele>486.4</ele>
        <time>2024-04-21T13:51:21.993Z</time>
      </trkpt>
      <trkpt lat="43.03361" lon="1.11857">
        <ele>486.4</ele>
        <time>2024-04-21T13:51:22.993Z</time>
      </trkpt>
      <trkpt lat="43.03362" lon="1.11854">
        <ele>486.4</ele>
        <time>2024-04-21T13:51:23.993Z</time>
      </trkpt>
      <trkpt lat="43.03363" lon="1.11851">
        <ele>486.4</ele>
        <time>2024-04-21T13:51:24.993Z</time>
      </trkpt>
      <trkpt lat="43.03363" lon="1.11847">
        <ele>486.4</ele>
        <time>2024-04-21T13:51:25.993Z</time>
      </trkpt>
      <trkpt lat="43.03364" lon="1.11843">
        <ele>486.6</ele>
        <time>2024-04-21T13:51:26.993Z</time>
      </trkpt>
      <trkpt lat="43.03365" lon="1.1184">
        <ele>486.6</ele>
        <time>2024-04-21T13:51:27.993Z</time>
      </trkpt>
      <trkpt lat="43.03365" lon="1.11837">
        <ele>486.6</ele>
        <time>2024-04-21T13:51:28.993Z</time>
      </trkpt>
      <trkpt lat="43.03365" lon="1.11835">
        <ele>486.6</ele>
        <time>2024-04-21T13:51:29.993Z</time>
      </trkpt>
      <trkpt lat="43.03365" lon="1.11833">
        <ele>486.6</ele>
        <time>2024-04-21T13:51:30.993Z</time>
      </trkpt>
      <trkpt lat="43.03366" lon="1.1183">
        <ele>486.6</ele>
        <time>2024-04-21T13:51:31.993Z</time>
      </trkpt>
      <trkpt lat="43.03367" lon="1.11828">
        <ele>486.2</ele>
        <time>2024-04-21T13:51:32.993Z</time>
      </trkpt>
      <trkpt lat="43.03369" lon="1.11825">
        <ele>486.2</ele>
        <time>2024-04-21T13:51:33.993Z</time>
      </trkpt>
      <trkpt lat="43.03371" lon="1.11823">
        <ele>486.2</ele>
        <time>2024-04-21T13:51:34.993Z</time>
      </trkpt>
      <trkpt lat="43.03374" lon="1.11821">
        <ele>486.2</ele>
        <time>2024-04-21T13:51:35.993Z</time>
      </trkpt>
      <trkpt lat="43.03376" lon="1.1182">
        <ele>486.2</ele>
        <time>2024-04-21T13:51:36.993Z</time>
      </trkpt>
      <trkpt lat="43.03377" lon="1.11819">
        <ele>486.2</ele>
        <time>2024-04-21T13:51:37.993Z</time>
      </trkpt>
      <trkpt lat="43.03378" lon="1.11819">
        <ele>486.2</ele>
        <time>2024-04-21T13:51:38.993Z</time>
      </trkpt>
      <trkpt lat="43.03379" lon="1.11818">
        <ele>486.2</ele>
        <time>2024-04-21T13:51:39.993Z</time>
      </trkpt>
      <trkpt lat="43.03379" lon="1.11817">
        <ele>486</ele>
        <time>2024-04-21T13:51:40.993Z</time>
      </trkpt>
      <trkpt lat="43.0338" lon="1.11815">
        <ele>486</ele>
        <time>2024-04-21T13:51:41.993Z</time>
      </trkpt>
      <trkpt lat="43.03381" lon="1.11814">
        <ele>485.8</ele>
        <time>2024-04-21T13:51:42.993Z</time>
      </trkpt>
      <trkpt lat="43.03383" lon="1.11813">
        <ele>485.8</ele>
        <time>2024-04-21T13:51:43.993Z</time>
      </trkpt>
      <trkpt lat="43.03385" lon="1.11811">
        <ele>485.8</ele>
        <time>2024-04-21T13:51:44.993Z</time>
      </trkpt>
      <trkpt lat="43.03386" lon="1.1181">
        <ele>485.4</ele>
        <time>2024-04-21T13:51:45.993Z</time>
      </trkpt>
      <trkpt lat="43.03386" lon="1.11809">
        <ele>485.2</ele>
        <time>2024-04-21T13:51:46.993Z</time>
      </trkpt>
      <trkpt lat="43.03388" lon="1.11808">
        <ele>485.2</ele>
        <time>2024-04-21T13:51:47.993Z</time>
      </trkpt>
      <trkpt lat="43.0339" lon="1.11806">
        <ele>485.2</ele>
        <time>2024-04-21T13:51:48.993Z</time>
      </trkpt>
      <trkpt lat="43.03392" lon="1.11804">
        <ele>485</ele>
        <time>2024-04-21T13:51:49.993Z</time>
      </trkpt>
      <trkpt lat="43.03394" lon="1.11802">
        <ele>485</ele>
        <time>2024-04-21T13:51:50.993Z</time>
      </trkpt>
      <trkpt lat="43.03396" lon="1.11801">
        <ele>485</ele>
        <time>2024-04-21T13:51:51.993Z</time>
      </trkpt>
      <trkpt lat="43.03397" lon="1.11799">
        <ele>485</ele>
        <time>2024-04-21T13:51:52.993Z</time>
      </trkpt>
      <trkpt lat="43.03398" lon="1.11797">
        <ele>485</ele>
        <time>2024-04-21T13:51:53.993Z</time>
      </trkpt>
      <trkpt lat="43.03399" lon="1.11795">
        <ele>484.6</ele>
        <time>2024-04-21T13:51:54.993Z</time>
      </trkpt>
      <trkpt lat="43.034" lon="1.11793">
        <ele>484.6</ele>
        <time>2024-04-21T13:51:55.993Z</time>
      </trkpt>
      <trkpt lat="43.03401" lon="1.11791">
        <ele>484.6</ele>
        <time>2024-04-21T13:51:56.993Z</time>
      </trkpt>
      <trkpt lat="43.03402" lon="1.1179">
        <ele>484.6</ele>
        <time>2024-04-21T13:51:57.993Z</time>
      </trkpt>
      <trkpt lat="43.03404" lon="1.11789">
        <ele>484.6</ele>
        <time>2024-04-21T13:51:58.993Z</time>
      </trkpt>
      <trkpt lat="43.03405" lon="1.11788">
        <ele>485</ele>
        <time>2024-04-21T13:51:59.993Z</time>
      </trkpt>
      <trkpt lat="43.03405" lon="1.11787">
        <ele>485</ele>
        <time>2024-04-21T13:52:00.993Z</time>
      </trkpt>
      <trkpt lat="43.03406" lon="1.11786">
        <ele>485</ele>
        <time>2024-04-21T13:52:01.993Z</time>
      </trkpt>
      <trkpt lat="43.03406" lon="1.11786">
        <ele>485</ele>
        <time>2024-04-21T13:52:02.993Z</time>
      </trkpt>
      <trkpt lat="43.03407" lon="1.11786">
        <ele>485</ele>
        <time>2024-04-21T13:52:03.993Z</time>
      </trkpt>
      <trkpt lat="43.03407" lon="1.11784">
        <ele>485</ele>
        <time>2024-04-21T13:52:04.993Z</time>
      </trkpt>
      <trkpt lat="43.03408" lon="1.11782">
        <ele>485</ele>
        <time>2024-04-21T13:52:05.993Z</time>
      </trkpt>
      <trkpt lat="43.03408" lon="1.1178">
        <ele>485</ele>
        <time>2024-04-21T13:52:06.993Z</time>
      </trkpt>
      <trkpt lat="43.03407" lon="1.11777">
        <ele>485</ele>
        <time>2024-04-21T13:52:07.993Z</time>
      </trkpt>
      <trkpt lat="43.03408" lon="1.11774">
        <ele>485</ele>
        <time>2024-04-21T13:52:08.993Z</time>
      </trkpt>
      <trkpt lat="43.03408" lon="1.11772">
        <ele>485</ele>
        <time>2024-04-21T13:52:09.993Z</time>
      </trkpt>
      <trkpt lat="43.03408" lon="1.11769">
        <ele>485</ele>
        <time>2024-04-21T13:52:10.993Z</time>
      </trkpt>
      <trkpt lat="43.03409" lon="1.11766">
        <ele>485</ele>
        <time>2024-04-21T13:52:11.993Z</time>
      </trkpt>
      <trkpt lat="43.0341" lon="1.11764">
        <ele>485.2</ele>
        <time>2024-04-21T13:52:12.993Z</time>
      </trkpt>
      <trkpt lat="43.0341" lon="1.11761">
        <ele>485.2</ele>
        <time>2024-04-21T13:52:13.993Z</time>
      </trkpt>
      <trkpt lat="43.03411" lon="1.11759">
        <ele>485.4</ele>
        <time>2024-04-21T13:52:14.993Z</time>
      </trkpt>
      <trkpt lat="43.03411" lon="1.11756">
        <ele>485.4</ele>
        <time>2024-04-21T13:52:15.993Z</time>
      </trkpt>
      <trkpt lat="43.03412" lon="1.11754">
        <ele>485.4</ele>
        <time>2024-04-21T13:52:16.993Z</time>
      </trkpt>
      <trkpt lat="43.03412" lon="1.11752">
        <ele>485.4</ele>
        <time>2024-04-21T13:52:17.993Z</time>
      </trkpt>
      <trkpt lat="43.03412" lon="1.1175">
        <ele>485.4</ele>
        <time>2024-04-21T13:52:18.993Z</time>
      </trkpt>
      <trkpt lat="43.03412" lon="1.11748">
        <ele>485.4</ele>
        <time>2024-04-21T13:52:19.993Z</time>
      </trkpt>
      <trkpt lat="43.03412" lon="1.11746">
        <ele>485.4</ele>
        <time>2024-04-21T13:52:20.993Z</time>
      </trkpt>
      <trkpt lat="43.03412" lon="1.11743">
        <ele>485.4</ele>
        <time>2024-04-21T13:52:21.993Z</time>
      </trkpt>
      <trkpt lat="43.03412" lon="1.1174">
        <ele>485.4</ele>
        <time>2024-04-21T13:52:22.993Z</time>
      </trkpt>
      <trkpt lat="43.03411" lon="1.11737">
        <ele>485.4</ele>
        <time>2024-04-21T13:52:23.993Z</time>
      </trkpt>
      <trkpt lat="43.03412" lon="1.11735">
        <ele>485.4</ele>
        <time>2024-04-21T13:52:24.993Z</time>
      </trkpt>
      <trkpt lat="43.03412" lon="1.11732">
        <ele>485.4</ele>
        <time>2024-04-21T13:52:25.993Z</time>
      </trkpt>
      <trkpt lat="43.03413" lon="1.1173">
        <ele>485.4</ele>
        <time>2024-04-21T13:52:26.993Z</time>
      </trkpt>
      <trkpt lat="43.03414" lon="1.11727">
        <ele>485.4</ele>
        <time>2024-04-21T13:52:27.993Z</time>
      </trkpt>
      <trkpt lat="43.03416" lon="1.11724">
        <ele>485.4</ele>
        <time>2024-04-21T13:52:28.993Z</time>
      </trkpt>
      <trkpt lat="43.03417" lon="1.11721">
        <ele>485.4</ele>
        <time>2024-04-21T13:52:29.993Z</time>
      </trkpt>
      <trkpt lat="43.03418" lon="1.11718">
        <ele>485.4</ele>
        <time>2024-04-21T13:52:30.993Z</time>
      </trkpt>
      <trkpt lat="43.03418" lon="1.11716">
        <ele>485.4</ele>
        <time>2024-04-21T13:52:31.993Z</time>
      </trkpt>
      <trkpt lat="43.03419" lon="1.11713">
        <ele>485.6</ele>
        <time>2024-04-21T13:52:32.993Z</time>
      </trkpt>
      <trkpt lat="43.03419" lon="1.11711">
        <ele>485.6</ele>
        <time>2024-04-21T13:52:33.993Z</time>
      </trkpt>
      <trkpt lat="43.03419" lon="1.11708">
        <ele>486</ele>
        <time>2024-04-21T13:52:34.993Z</time>
      </trkpt>
      <trkpt lat="43.03419" lon="1.11704">
        <ele>486</ele>
        <time>2024-04-21T13:52:35.993Z</time>
      </trkpt>
      <trkpt lat="43.03419" lon="1.11699">
        <ele>486</ele>
        <time>2024-04-21T13:52:36.993Z</time>
      </trkpt>
      <trkpt lat="43.03419" lon="1.11696">
        <ele>486.6</ele>
        <time>2024-04-21T13:52:37.993Z</time>
      </trkpt>
      <trkpt lat="43.03419" lon="1.11693">
        <ele>486.6</ele>
        <time>2024-04-21T13:52:38.993Z</time>
      </trkpt>
      <trkpt lat="43.03419" lon="1.11691">
        <ele>487</ele>
        <time>2024-04-21T13:52:39.993Z</time>
      </trkpt>
      <trkpt lat="43.03419" lon="1.11688">
        <ele>487.2</ele>
        <time>2024-04-21T13:52:40.993Z</time>
      </trkpt>
      <trkpt lat="43.0342" lon="1.11685">
        <ele>487.6</ele>
        <time>2024-04-21T13:52:41.993Z</time>
      </trkpt>
      <trkpt lat="43.0342" lon="1.11683">
        <ele>487.8</ele>
        <time>2024-04-21T13:52:42.993Z</time>
      </trkpt>
      <trkpt lat="43.03421" lon="1.1168">
        <ele>487.8</ele>
        <time>2024-04-21T13:52:43.993Z</time>
      </trkpt>
      <trkpt lat="43.03422" lon="1.11678">
        <ele>487.8</ele>
        <time>2024-04-21T13:52:44.993Z</time>
      </trkpt>
      <trkpt lat="43.03423" lon="1.11676">
        <ele>488</ele>
        <time>2024-04-21T13:52:45.993Z</time>
      </trkpt>
      <trkpt lat="43.03423" lon="1.11674">
        <ele>488</ele>
        <time>2024-04-21T13:52:46.993Z</time>
      </trkpt>
      <trkpt lat="43.03424" lon="1.11671">
        <ele>488.2</ele>
        <time>2024-04-21T13:52:47.993Z</time>
      </trkpt>
      <trkpt lat="43.03426" lon="1.11668">
        <ele>488.2</ele>
        <time>2024-04-21T13:52:48.993Z</time>
      </trkpt>
      <trkpt lat="43.03428" lon="1.11664">
        <ele>488.8</ele>
        <time>2024-04-21T13:52:49.993Z</time>
      </trkpt>
      <trkpt lat="43.0343" lon="1.1166">
        <ele>488.6</ele>
        <time>2024-04-21T13:52:50.993Z</time>
      </trkpt>
      <trkpt lat="43.03431" lon="1.11656">
        <ele>488.2</ele>
        <time>2024-04-21T13:52:51.993Z</time>
      </trkpt>
      <trkpt lat="43.03432" lon="1.11652">
        <ele>488</ele>
        <time>2024-04-21T13:52:52.993Z</time>
      </trkpt>
      <trkpt lat="43.03432" lon="1.11648">
        <ele>487.4</ele>
        <time>2024-04-21T13:52:53.993Z</time>
      </trkpt>
      <trkpt lat="43.03431" lon="1.11644">
        <ele>487.4</ele>
        <time>2024-04-21T13:52:54.993Z</time>
      </trkpt>
      <trkpt lat="43.0343" lon="1.11641">
        <ele>487</ele>
        <time>2024-04-21T13:52:55.993Z</time>
      </trkpt>
      <trkpt lat="43.03429" lon="1.11638">
        <ele>487</ele>
        <time>2024-04-21T13:52:56.993Z</time>
      </trkpt>
      <trkpt lat="43.03429" lon="1.11634">
        <ele>486.6</ele>
        <time>2024-04-21T13:52:57.993Z</time>
      </trkpt>
      <trkpt lat="43.0343" lon="1.11631">
        <ele>486.2</ele>
        <time>2024-04-21T13:52:58.993Z</time>
      </trkpt>
      <trkpt lat="43.0343" lon="1.11627">
        <ele>485.6</ele>
        <time>2024-04-21T13:52:59.993Z</time>
      </trkpt>
      <trkpt lat="43.03432" lon="1.11623">
        <ele>485.2</ele>
        <time>2024-04-21T13:53:00.993Z</time>
      </trkpt>
      <trkpt lat="43.03433" lon="1.1162">
        <ele>484.8</ele>
        <time>2024-04-21T13:53:01.993Z</time>
      </trkpt>
      <trkpt lat="43.03435" lon="1.11616">
        <ele>484.8</ele>
        <time>2024-04-21T13:53:02.993Z</time>
      </trkpt>
      <trkpt lat="43.03437" lon="1.11611">
        <ele>483.4</ele>
        <time>2024-04-21T13:53:03.993Z</time>
      </trkpt>
      <trkpt lat="43.03439" lon="1.11608">
        <ele>483</ele>
        <time>2024-04-21T13:53:04.993Z</time>
      </trkpt>
      <trkpt lat="43.03441" lon="1.11605">
        <ele>482.6</ele>
        <time>2024-04-21T13:53:05.993Z</time>
      </trkpt>
      <trkpt lat="43.03442" lon="1.11602">
        <ele>482.6</ele>
        <time>2024-04-21T13:53:06.993Z</time>
      </trkpt>
      <trkpt lat="43.03443" lon="1.116">
        <ele>482.6</ele>
        <time>2024-04-21T13:53:07.993Z</time>
      </trkpt>
      <trkpt lat="43.03444" lon="1.11598">
        <ele>482.6</ele>
        <time>2024-04-21T13:53:08.993Z</time>
      </trkpt>
      <trkpt lat="43.03445" lon="1.11596">
        <ele>482.6</ele>
        <time>2024-04-21T13:53:09.993Z</time>
      </trkpt>
      <trkpt lat="43.03446" lon="1.11595">
        <ele>482.6</ele>
        <time>2024-04-21T13:53:10.993Z</time>
      </trkpt>
      <trkpt lat="43.03448" lon="1.11593">
        <ele>482.4</ele>
        <time>2024-04-21T13:53:11.993Z</time>
      </trkpt>
      <trkpt lat="43.03451" lon="1.11591">
        <ele>482</ele>
        <time>2024-04-21T13:53:12.993Z</time>
      </trkpt>
      <trkpt lat="43.03453" lon="1.1159">
        <ele>482</ele>
        <time>2024-04-21T13:53:13.993Z</time>
      </trkpt>
      <trkpt lat="43.03455" lon="1.11589">
        <ele>482.4</ele>
        <time>2024-04-21T13:53:14.993Z</time>
      </trkpt>
      <trkpt lat="43.03456" lon="1.11587">
        <ele>482.4</ele>
        <time>2024-04-21T13:53:15.993Z</time>
      </trkpt>
      <trkpt lat="43.03458" lon="1.11584">
        <ele>482.4</ele>
        <time>2024-04-21T13:53:16.993Z</time>
      </trkpt>
      <trkpt lat="43.03461" lon="1.11582">
        <ele>482.4</ele>
        <time>2024-04-21T13:53:17.993Z</time>
      </trkpt>
      <trkpt lat="43.03462" lon="1.1158">
        <ele>482.4</ele>
        <time>2024-04-21T13:53:18.993Z</time>
      </trkpt>
      <trkpt lat="43.03464" lon="1.11579">
        <ele>482.4</ele>
        <time>2024-04-21T13:53:19.993Z</time>
      </trkpt>
      <trkpt lat="43.03467" lon="1.11577">
        <ele>482.4</ele>
        <time>2024-04-21T13:53:20.993Z</time>
      </trkpt>
      <trkpt lat="43.03469" lon="1.11576">
        <ele>482.6</ele>
        <time>2024-04-21T13:53:21.993Z</time>
      </trkpt>
      <trkpt lat="43.03472" lon="1.11573">
        <ele>482.6</ele>
        <time>2024-04-21T13:53:22.993Z</time>
      </trkpt>
      <trkpt lat="43.03474" lon="1.11571">
        <ele>482.6</ele>
        <time>2024-04-21T13:53:23.993Z</time>
      </trkpt>
      <trkpt lat="43.03476" lon="1.11568">
        <ele>482.6</ele>
        <time>2024-04-21T13:53:24.993Z</time>
      </trkpt>
      <trkpt lat="43.03478" lon="1.11564">
        <ele>482.8</ele>
        <time>2024-04-21T13:53:25.993Z</time>
      </trkpt>
      <trkpt lat="43.03479" lon="1.11562">
        <ele>482.8</ele>
        <time>2024-04-21T13:53:26.993Z</time>
      </trkpt>
      <trkpt lat="43.03479" lon="1.11562">
        <ele>482.8</ele>
        <time>2024-04-21T13:53:27.993Z</time>
      </trkpt>
      <trkpt lat="43.03481" lon="1.1156">
        <ele>482.8</ele>
        <time>2024-04-21T13:53:28.993Z</time>
      </trkpt>
      <trkpt lat="43.03482" lon="1.11558">
        <ele>482.8</ele>
        <time>2024-04-21T13:53:29.993Z</time>
      </trkpt>
      <trkpt lat="43.03484" lon="1.11557">
        <ele>482.8</ele>
        <time>2024-04-21T13:53:30.993Z</time>
      </trkpt>
      <trkpt lat="43.03485" lon="1.11555">
        <ele>483</ele>
        <time>2024-04-21T13:53:31.993Z</time>
      </trkpt>
      <trkpt lat="43.03487" lon="1.11553">
        <ele>483</ele>
        <time>2024-04-21T13:53:32.993Z</time>
      </trkpt>
      <trkpt lat="43.03489" lon="1.11549">
        <ele>482.8</ele>
        <time>2024-04-21T13:53:33.993Z</time>
      </trkpt>
      <trkpt lat="43.03491" lon="1.11545">
        <ele>482.2</ele>
        <time>2024-04-21T13:53:34.993Z</time>
      </trkpt>
      <trkpt lat="43.03492" lon="1.11541">
        <ele>482.4</ele>
        <time>2024-04-21T13:53:35.993Z</time>
      </trkpt>
      <trkpt lat="43.03493" lon="1.11536">
        <ele>482</ele>
        <time>2024-04-21T13:53:36.993Z</time>
      </trkpt>
      <trkpt lat="43.03495" lon="1.11532">
        <ele>481.6</ele>
        <time>2024-04-21T13:53:37.993Z</time>
      </trkpt>
      <trkpt lat="43.03496" lon="1.11528">
        <ele>481.2</ele>
        <time>2024-04-21T13:53:38.993Z</time>
      </trkpt>
      <trkpt lat="43.03498" lon="1.11523">
        <ele>480.8</ele>
        <time>2024-04-21T13:53:39.993Z</time>
      </trkpt>
      <trkpt lat="43.035" lon="1.11519">
        <ele>480.4</ele>
        <time>2024-04-21T13:53:40.993Z</time>
      </trkpt>
      <trkpt lat="43.03501" lon="1.11516">
        <ele>480.2</ele>
        <time>2024-04-21T13:53:41.993Z</time>
      </trkpt>
      <trkpt lat="43.03502" lon="1.11512">
        <ele>480</ele>
        <time>2024-04-21T13:53:42.993Z</time>
      </trkpt>
      <trkpt lat="43.03503" lon="1.11508">
        <ele>479.4</ele>
        <time>2024-04-21T13:53:43.993Z</time>
      </trkpt>
      <trkpt lat="43.03505" lon="1.11503">
        <ele>479.4</ele>
        <time>2024-04-21T13:53:44.993Z</time>
      </trkpt>
      <trkpt lat="43.03506" lon="1.11498">
        <ele>478.8</ele>
        <time>2024-04-21T13:53:45.993Z</time>
      </trkpt>
      <trkpt lat="43.03507" lon="1.11493">
        <ele>478.8</ele>
        <time>2024-04-21T13:53:46.993Z</time>
      </trkpt>
      <trkpt lat="43.03509" lon="1.11489">
        <ele>477.8</ele>
        <time>2024-04-21T13:53:47.993Z</time>
      </trkpt>
      <trkpt lat="43.03511" lon="1.11482">
        <ele>477.2</ele>
        <time>2024-04-21T13:53:48.993Z</time>
      </trkpt>
      <trkpt lat="43.03512" lon="1.11477">
        <ele>476.8</ele>
        <time>2024-04-21T13:53:49.993Z</time>
      </trkpt>
      <trkpt lat="43.03513" lon="1.11472">
        <ele>476.4</ele>
        <time>2024-04-21T13:53:50.993Z</time>
      </trkpt>
      <trkpt lat="43.03514" lon="1.11468">
        <ele>475.8</ele>
        <time>2024-04-21T13:53:51.993Z</time>
      </trkpt>
      <trkpt lat="43.03515" lon="1.11464">
        <ele>475.4</ele>
        <time>2024-04-21T13:53:52.993Z</time>
      </trkpt>
      <trkpt lat="43.03516" lon="1.1146">
        <ele>474.6</ele>
        <time>2024-04-21T13:53:53.993Z</time>
      </trkpt>
      <trkpt lat="43.03519" lon="1.11452">
        <ele>474</ele>
        <time>2024-04-21T13:53:54.993Z</time>
      </trkpt>
      <trkpt lat="43.0352" lon="1.11447">
        <ele>473.4</ele>
        <time>2024-04-21T13:53:55.993Z</time>
      </trkpt>
      <trkpt lat="43.03521" lon="1.11444">
        <ele>473.2</ele>
        <time>2024-04-21T13:53:56.993Z</time>
      </trkpt>
      <trkpt lat="43.03521" lon="1.11441">
        <ele>473.2</ele>
        <time>2024-04-21T13:53:57.993Z</time>
      </trkpt>
      <trkpt lat="43.03522" lon="1.11437">
        <ele>472.8</ele>
        <time>2024-04-21T13:53:58.993Z</time>
      </trkpt>
      <trkpt lat="43.03523" lon="1.11432">
        <ele>472.6</ele>
        <time>2024-04-21T13:53:59.993Z</time>
      </trkpt>
      <trkpt lat="43.03525" lon="1.11426">
        <ele>472</ele>
        <time>2024-04-21T13:54:00.993Z</time>
      </trkpt>
      <trkpt lat="43.03525" lon="1.11421">
        <ele>471.8</ele>
        <time>2024-04-21T13:54:01.993Z</time>
      </trkpt>
      <trkpt lat="43.03527" lon="1.11416">
        <ele>471.4</ele>
        <time>2024-04-21T13:54:02.993Z</time>
      </trkpt>
      <trkpt lat="43.03527" lon="1.1141">
        <ele>471.2</ele>
        <time>2024-04-21T13:54:03.993Z</time>
      </trkpt>
      <trkpt lat="43.03529" lon="1.11406">
        <ele>471.2</ele>
        <time>2024-04-21T13:54:04.993Z</time>
      </trkpt>
      <trkpt lat="43.0353" lon="1.11401">
        <ele>471</ele>
        <time>2024-04-21T13:54:05.993Z</time>
      </trkpt>
      <trkpt lat="43.03532" lon="1.11396">
        <ele>470.6</ele>
        <time>2024-04-21T13:54:06.993Z</time>
      </trkpt>
      <trkpt lat="43.03533" lon="1.11392">
        <ele>470.2</ele>
        <time>2024-04-21T13:54:07.993Z</time>
      </trkpt>
      <trkpt lat="43.03534" lon="1.11387">
        <ele>469.8</ele>
        <time>2024-04-21T13:54:08.993Z</time>
      </trkpt>
      <trkpt lat="43.03536" lon="1.11382">
        <ele>469</ele>
        <time>2024-04-21T13:54:09.993Z</time>
      </trkpt>
      <trkpt lat="43.03537" lon="1.11378">
        <ele>468.6</ele>
        <time>2024-04-21T13:54:10.993Z</time>
      </trkpt>
      <trkpt lat="43.03538" lon="1.11373">
        <ele>468.2</ele>
        <time>2024-04-21T13:54:11.993Z</time>
      </trkpt>
      <trkpt lat="43.0354" lon="1.11368">
        <ele>468.2</ele>
        <time>2024-04-21T13:54:12.993Z</time>
      </trkpt>
      <trkpt lat="43.03541" lon="1.11364">
        <ele>468</ele>
        <time>2024-04-21T13:54:13.993Z</time>
      </trkpt>
      <trkpt lat="43.03542" lon="1.11359">
        <ele>467.6</ele>
        <time>2024-04-21T13:54:14.993Z</time>
      </trkpt>
      <trkpt lat="43.03543" lon="1.11355">
        <ele>466.8</ele>
        <time>2024-04-21T13:54:15.993Z</time>
      </trkpt>
      <trkpt lat="43.03545" lon="1.1135">
        <ele>466.4</ele>
        <time>2024-04-21T13:54:16.993Z</time>
      </trkpt>
      <trkpt lat="43.03546" lon="1.11345">
        <ele>466.4</ele>
        <time>2024-04-21T13:54:17.993Z</time>
      </trkpt>
      <trkpt lat="43.03547" lon="1.11341">
        <ele>465.8</ele>
        <time>2024-04-21T13:54:18.993Z</time>
      </trkpt>
      <trkpt lat="43.03548" lon="1.11337">
        <ele>465.6</ele>
        <time>2024-04-21T13:54:19.993Z</time>
      </trkpt>
      <trkpt lat="43.03549" lon="1.11332">
        <ele>465.4</ele>
        <time>2024-04-21T13:54:20.993Z</time>
      </trkpt>
      <trkpt lat="43.03551" lon="1.11328">
        <ele>465</ele>
        <time>2024-04-21T13:54:21.993Z</time>
      </trkpt>
      <trkpt lat="43.03552" lon="1.11323">
        <ele>464.2</ele>
        <time>2024-04-21T13:54:22.993Z</time>
      </trkpt>
      <trkpt lat="43.03553" lon="1.11318">
        <ele>463.6</ele>
        <time>2024-04-21T13:54:23.993Z</time>
      </trkpt>
      <trkpt lat="43.03554" lon="1.11314">
        <ele>463.6</ele>
        <time>2024-04-21T13:54:24.993Z</time>
      </trkpt>
      <trkpt lat="43.03555" lon="1.11311">
        <ele>463.2</ele>
        <time>2024-04-21T13:54:25.993Z</time>
      </trkpt>
      <trkpt lat="43.03556" lon="1.11307">
        <ele>462.4</ele>
        <time>2024-04-21T13:54:26.993Z</time>
      </trkpt>
      <trkpt lat="43.03558" lon="1.11304">
        <ele>461.8</ele>
        <time>2024-04-21T13:54:27.993Z</time>
      </trkpt>
      <trkpt lat="43.0356" lon="1.113">
        <ele>461</ele>
        <time>2024-04-21T13:54:28.993Z</time>
      </trkpt>
      <trkpt lat="43.03561" lon="1.11297">
        <ele>460.8</ele>
        <time>2024-04-21T13:54:29.993Z</time>
      </trkpt>
      <trkpt lat="43.03563" lon="1.11296">
        <ele>460.4</ele>
        <time>2024-04-21T13:54:30.993Z</time>
      </trkpt>
      <trkpt lat="43.03565" lon="1.11294">
        <ele>460.4</ele>
        <time>2024-04-21T13:54:31.993Z</time>
      </trkpt>
      <trkpt lat="43.03567" lon="1.11292">
        <ele>460</ele>
        <time>2024-04-21T13:54:32.993Z</time>
      </trkpt>
      <trkpt lat="43.03569" lon="1.11291">
        <ele>460</ele>
        <time>2024-04-21T13:54:33.993Z</time>
      </trkpt>
      <trkpt lat="43.03571" lon="1.11288">
        <ele>460</ele>
        <time>2024-04-21T13:54:34.993Z</time>
      </trkpt>
      <trkpt lat="43.03572" lon="1.11284">
        <ele>459.6</ele>
        <time>2024-04-21T13:54:35.993Z</time>
      </trkpt>
      <trkpt lat="43.03571" lon="1.11279">
        <ele>458.6</ele>
        <time>2024-04-21T13:54:36.993Z</time>
      </trkpt>
      <trkpt lat="43.0357" lon="1.11275">
        <ele>458.6</ele>
        <time>2024-04-21T13:54:37.993Z</time>
      </trkpt>
      <trkpt lat="43.03569" lon="1.11271">
        <ele>458.4</ele>
        <time>2024-04-21T13:54:38.993Z</time>
      </trkpt>
      <trkpt lat="43.03568" lon="1.11267">
        <ele>458</ele>
        <time>2024-04-21T13:54:39.993Z</time>
      </trkpt>
      <trkpt lat="43.03566" lon="1.11263">
        <ele>458</ele>
        <time>2024-04-21T13:54:40.993Z</time>
      </trkpt>
      <trkpt lat="43.03564" lon="1.11259">
        <ele>457.8</ele>
        <time>2024-04-21T13:54:41.993Z</time>
      </trkpt>
      <trkpt lat="43.03562" lon="1.11255">
        <ele>457.6</ele>
        <time>2024-04-21T13:54:42.993Z</time>
      </trkpt>
      <trkpt lat="43.0356" lon="1.11251">
        <ele>457.6</ele>
        <time>2024-04-21T13:54:43.993Z</time>
      </trkpt>
      <trkpt lat="43.03558" lon="1.11248">
        <ele>457.4</ele>
        <time>2024-04-21T13:54:44.993Z</time>
      </trkpt>
      <trkpt lat="43.03557" lon="1.11244">
        <ele>457</ele>
        <time>2024-04-21T13:54:45.993Z</time>
      </trkpt>
      <trkpt lat="43.03556" lon="1.11241">
        <ele>456.6</ele>
        <time>2024-04-21T13:54:46.993Z</time>
      </trkpt>
      <trkpt lat="43.03554" lon="1.11238">
        <ele>456.6</ele>
        <time>2024-04-21T13:54:47.993Z</time>
      </trkpt>
      <trkpt lat="43.03553" lon="1.11235">
        <ele>456.6</ele>
        <time>2024-04-21T13:54:48.993Z</time>
      </trkpt>
      <trkpt lat="43.03552" lon="1.11231">
        <ele>456.6</ele>
        <time>2024-04-21T13:54:49.993Z</time>
      </trkpt>
      <trkpt lat="43.03551" lon="1.11227">
        <ele>456.2</ele>
        <time>2024-04-21T13:54:50.993Z</time>
      </trkpt>
      <trkpt lat="43.03551" lon="1.11224">
        <ele>456.2</ele>
        <time>2024-04-21T13:54:51.993Z</time>
      </trkpt>
      <trkpt lat="43.03551" lon="1.11221">
        <ele>455.6</ele>
        <time>2024-04-21T13:54:52.993Z</time>
      </trkpt>
      <trkpt lat="43.03551" lon="1.11217">
        <ele>455.2</ele>
        <time>2024-04-21T13:54:53.993Z</time>
      </trkpt>
      <trkpt lat="43.03551" lon="1.11214">
        <ele>454.8</ele>
        <time>2024-04-21T13:54:54.993Z</time>
      </trkpt>
      <trkpt lat="43.03551" lon="1.11212">
        <ele>454.8</ele>
        <time>2024-04-21T13:54:55.993Z</time>
      </trkpt>
      <trkpt lat="43.0355" lon="1.1121">
        <ele>454.4</ele>
        <time>2024-04-21T13:54:56.993Z</time>
      </trkpt>
      <trkpt lat="43.03548" lon="1.11209">
        <ele>454</ele>
        <time>2024-04-21T13:54:57.993Z</time>
      </trkpt>
      <trkpt lat="43.03546" lon="1.11209">
        <ele>453.8</ele>
        <time>2024-04-21T13:54:58.993Z</time>
      </trkpt>
      <trkpt lat="43.03545" lon="1.1121">
        <ele>453.4</ele>
        <time>2024-04-21T13:54:59.993Z</time>
      </trkpt>
      <trkpt lat="43.03544" lon="1.11213">
        <ele>453.4</ele>
        <time>2024-04-21T13:55:00.993Z</time>
      </trkpt>
      <trkpt lat="43.03544" lon="1.11216">
        <ele>453.2</ele>
        <time>2024-04-21T13:55:01.993Z</time>
      </trkpt>
      <trkpt lat="43.03545" lon="1.11219">
        <ele>453.2</ele>
        <time>2024-04-21T13:55:02.993Z</time>
      </trkpt>
      <trkpt lat="43.03547" lon="1.11222">
        <ele>453</ele>
        <time>2024-04-21T13:55:03.993Z</time>
      </trkpt>
      <trkpt lat="43.03548" lon="1.11225">
        <ele>453</ele>
        <time>2024-04-21T13:55:04.993Z</time>
      </trkpt>
      <trkpt lat="43.03548" lon="1.11229">
        <ele>452.6</ele>
        <time>2024-04-21T13:55:05.993Z</time>
      </trkpt>
      <trkpt lat="43.03548" lon="1.11233">
        <ele>452.6</ele>
        <time>2024-04-21T13:55:06.993Z</time>
      </trkpt>
      <trkpt lat="43.03547" lon="1.11237">
        <ele>452.6</ele>
        <time>2024-04-21T13:55:07.993Z</time>
      </trkpt>
      <trkpt lat="43.03546" lon="1.1124">
        <ele>452</ele>
        <time>2024-04-21T13:55:08.993Z</time>
      </trkpt>
      <trkpt lat="43.03545" lon="1.11242">
        <ele>451.8</ele>
        <time>2024-04-21T13:55:09.993Z</time>
      </trkpt>
      <trkpt lat="43.03545" lon="1.11244">
        <ele>451.6</ele>
        <time>2024-04-21T13:55:10.993Z</time>
      </trkpt>
      <trkpt lat="43.03544" lon="1.11247">
        <ele>451.6</ele>
        <time>2024-04-21T13:55:11.993Z</time>
      </trkpt>
      <trkpt lat="43.03542" lon="1.1125">
        <ele>450.8</ele>
        <time>2024-04-21T13:55:12.993Z</time>
      </trkpt>
      <trkpt lat="43.0354" lon="1.11254">
        <ele>450.2</ele>
        <time>2024-04-21T13:55:13.993Z</time>
      </trkpt>
      <trkpt lat="43.03538" lon="1.11256">
        <ele>449.6</ele>
        <time>2024-04-21T13:55:14.993Z</time>
      </trkpt>
      <trkpt lat="43.03535" lon="1.11259">
        <ele>449.6</ele>
        <time>2024-04-21T13:55:15.993Z</time>
      </trkpt>
      <trkpt lat="43.03531" lon="1.11261">
        <ele>449.2</ele>
        <time>2024-04-21T13:55:16.993Z</time>
      </trkpt>
      <trkpt lat="43.03527" lon="1.11262">
        <ele>448.8</ele>
        <time>2024-04-21T13:55:17.993Z</time>
      </trkpt>
      <trkpt lat="43.03524" lon="1.11263">
        <ele>448.4</ele>
        <time>2024-04-21T13:55:18.993Z</time>
      </trkpt>
      <trkpt lat="43.0352" lon="1.11264">
        <ele>448</ele>
        <time>2024-04-21T13:55:19.993Z</time>
      </trkpt>
      <trkpt lat="43.03517" lon="1.11265">
        <ele>448</ele>
        <time>2024-04-21T13:55:20.993Z</time>
      </trkpt>
      <trkpt lat="43.03514" lon="1.11266">
        <ele>447.6</ele>
        <time>2024-04-21T13:55:21.993Z</time>
      </trkpt>
      <trkpt lat="43.03511" lon="1.11266">
        <ele>447.8</ele>
        <time>2024-04-21T13:55:22.993Z</time>
      </trkpt>
      <trkpt lat="43.03507" lon="1.11267">
        <ele>447.8</ele>
        <time>2024-04-21T13:55:23.993Z</time>
      </trkpt>
      <trkpt lat="43.03503" lon="1.11268">
        <ele>447.2</ele>
        <time>2024-04-21T13:55:24.993Z</time>
      </trkpt>
      <trkpt lat="43.035" lon="1.1127">
        <ele>447.2</ele>
        <time>2024-04-21T13:55:25.993Z</time>
      </trkpt>
      <trkpt lat="43.03497" lon="1.11273">
        <ele>447</ele>
        <time>2024-04-21T13:55:26.993Z</time>
      </trkpt>
      <trkpt lat="43.03495" lon="1.11276">
        <ele>447</ele>
        <time>2024-04-21T13:55:27.993Z</time>
      </trkpt>
      <trkpt lat="43.03492" lon="1.1128">
        <ele>446.4</ele>
        <time>2024-04-21T13:55:28.993Z</time>
      </trkpt>
      <trkpt lat="43.0349" lon="1.11285">
        <ele>446</ele>
        <time>2024-04-21T13:55:29.993Z</time>
      </trkpt>
      <trkpt lat="43.03488" lon="1.1129">
        <ele>445.6</ele>
        <time>2024-04-21T13:55:30.993Z</time>
      </trkpt>
      <trkpt lat="43.03486" lon="1.11295">
        <ele>445.2</ele>
        <time>2024-04-21T13:55:31.993Z</time>
      </trkpt>
      <trkpt lat="43.03485" lon="1.113">
        <ele>444.6</ele>
        <time>2024-04-21T13:55:32.993Z</time>
      </trkpt>
      <trkpt lat="43.03483" lon="1.11305">
        <ele>444</ele>
        <time>2024-04-21T13:55:33.993Z</time>
      </trkpt>
      <trkpt lat="43.0348" lon="1.1131">
        <ele>443.6</ele>
        <time>2024-04-21T13:55:34.993Z</time>
      </trkpt>
      <trkpt lat="43.03478" lon="1.11314">
        <ele>443.4</ele>
        <time>2024-04-21T13:55:35.993Z</time>
      </trkpt>
      <trkpt lat="43.03475" lon="1.11317">
        <ele>442.8</ele>
        <time>2024-04-21T13:55:36.993Z</time>
      </trkpt>
      <trkpt lat="43.03472" lon="1.1132">
        <ele>442.2</ele>
        <time>2024-04-21T13:55:37.993Z</time>
      </trkpt>
      <trkpt lat="43.03469" lon="1.11323">
        <ele>441.8</ele>
        <time>2024-04-21T13:55:38.993Z</time>
      </trkpt>
      <trkpt lat="43.03466" lon="1.11325">
        <ele>441.8</ele>
        <time>2024-04-21T13:55:39.993Z</time>
      </trkpt>
      <trkpt lat="43.03463" lon="1.11327">
        <ele>441.6</ele>
        <time>2024-04-21T13:55:40.993Z</time>
      </trkpt>
      <trkpt lat="43.03459" lon="1.11331">
        <ele>441.2</ele>
        <time>2024-04-21T13:55:41.993Z</time>
      </trkpt>
      <trkpt lat="43.03456" lon="1.11334">
        <ele>440.8</ele>
        <time>2024-04-21T13:55:42.993Z</time>
      </trkpt>
      <trkpt lat="43.03453" lon="1.11337">
        <ele>440.6</ele>
        <time>2024-04-21T13:55:43.993Z</time>
      </trkpt>
      <trkpt lat="43.03451" lon="1.1134">
        <ele>440</ele>
        <time>2024-04-21T13:55:44.993Z</time>
      </trkpt>
      <trkpt lat="43.03448" lon="1.11343">
        <ele>439.6</ele>
        <time>2024-04-21T13:55:45.993Z</time>
      </trkpt>
      <trkpt lat="43.03445" lon="1.11345">
        <ele>439.2</ele>
        <time>2024-04-21T13:55:46.993Z</time>
      </trkpt>
      <trkpt lat="43.03442" lon="1.11347">
        <ele>439</ele>
        <time>2024-04-21T13:55:47.993Z</time>
      </trkpt>
      <trkpt lat="43.03438" lon="1.11348">
        <ele>438.6</ele>
        <time>2024-04-21T13:55:48.993Z</time>
      </trkpt>
      <trkpt lat="43.03435" lon="1.11348">
        <ele>438.6</ele>
        <time>2024-04-21T13:55:49.993Z</time>
      </trkpt>
      <trkpt lat="43.03432" lon="1.11348">
        <ele>438</ele>
        <time>2024-04-21T13:55:50.993Z</time>
      </trkpt>
      <trkpt lat="43.03431" lon="1.11348">
        <ele>437.6</ele>
        <time>2024-04-21T13:55:51.993Z</time>
      </trkpt>
      <trkpt lat="43.03429" lon="1.11347">
        <ele>437.6</ele>
        <time>2024-04-21T13:55:52.993Z</time>
      </trkpt>
      <trkpt lat="43.03427" lon="1.11345">
        <ele>437.2</ele>
        <time>2024-04-21T13:55:53.993Z</time>
      </trkpt>
      <trkpt lat="43.03426" lon="1.11341">
        <ele>437.2</ele>
        <time>2024-04-21T13:55:54.993Z</time>
      </trkpt>
      <trkpt lat="43.03426" lon="1.11338">
        <ele>437</ele>
        <time>2024-04-21T13:55:55.993Z</time>
      </trkpt>
      <trkpt lat="43.03427" lon="1.11334">
        <ele>436.8</ele>
        <time>2024-04-21T13:55:56.993Z</time>
      </trkpt>
      <trkpt lat="43.03428" lon="1.1133">
        <ele>436.4</ele>
        <time>2024-04-21T13:55:57.993Z</time>
      </trkpt>
      <trkpt lat="43.03428" lon="1.11326">
        <ele>436</ele>
        <time>2024-04-21T13:55:58.993Z</time>
      </trkpt>
      <trkpt lat="43.03428" lon="1.11322">
        <ele>435.4</ele>
        <time>2024-04-21T13:55:59.993Z</time>
      </trkpt>
      <trkpt lat="43.03428" lon="1.11318">
        <ele>435</ele>
        <time>2024-04-21T13:56:00.993Z</time>
      </trkpt>
      <trkpt lat="43.03428" lon="1.11314">
        <ele>435</ele>
        <time>2024-04-21T13:56:01.993Z</time>
      </trkpt>
      <trkpt lat="43.03428" lon="1.11309">
        <ele>434.8</ele>
        <time>2024-04-21T13:56:02.993Z</time>
      </trkpt>
      <trkpt lat="43.03428" lon="1.11305">
        <ele>434.8</ele>
        <time>2024-04-21T13:56:03.993Z</time>
      </trkpt>
      <trkpt lat="43.03428" lon="1.113">
        <ele>434.4</ele>
        <time>2024-04-21T13:56:04.993Z</time>
      </trkpt>
      <trkpt lat="43.03428" lon="1.11296">
        <ele>434</ele>
        <time>2024-04-21T13:56:05.993Z</time>
      </trkpt>
      <trkpt lat="43.03427" lon="1.11292">
        <ele>433.6</ele>
        <time>2024-04-21T13:56:06.993Z</time>
      </trkpt>
      <trkpt lat="43.03422" lon="1.11285">
        <ele>433.2</ele>
        <time>2024-04-21T13:56:07.993Z</time>
      </trkpt>
      <trkpt lat="43.0342" lon="1.11277">
        <ele>433.2</ele>
        <time>2024-04-21T13:56:08.993Z</time>
      </trkpt>
      <trkpt lat="43.03418" lon="1.11273">
        <ele>432.8</ele>
        <time>2024-04-21T13:56:09.993Z</time>
      </trkpt>
      <trkpt lat="43.03415" lon="1.1127">
        <ele>432.2</ele>
        <time>2024-04-21T13:56:10.993Z</time>
      </trkpt>
      <trkpt lat="43.03412" lon="1.11267">
        <ele>432</ele>
        <time>2024-04-21T13:56:11.993Z</time>
      </trkpt>
      <trkpt lat="43.03409" lon="1.11264">
        <ele>431.8</ele>
        <time>2024-04-21T13:56:12.993Z</time>
      </trkpt>
      <trkpt lat="43.03407" lon="1.11262">
        <ele>431.4</ele>
        <time>2024-04-21T13:56:13.993Z</time>
      </trkpt>
      <trkpt lat="43.03404" lon="1.11259">
        <ele>431.4</ele>
        <time>2024-04-21T13:56:14.993Z</time>
      </trkpt>
      <trkpt lat="43.034" lon="1.11256">
        <ele>431</ele>
        <time>2024-04-21T13:56:15.993Z</time>
      </trkpt>
      <trkpt lat="43.03396" lon="1.11253">
        <ele>430.6</ele>
        <time>2024-04-21T13:56:16.993Z</time>
      </trkpt>
      <trkpt lat="43.03392" lon="1.11249">
        <ele>430</ele>
        <time>2024-04-21T13:56:17.993Z</time>
      </trkpt>
      <trkpt lat="43.03388" lon="1.11247">
        <ele>430</ele>
        <time>2024-04-21T13:56:18.993Z</time>
      </trkpt>
      <trkpt lat="43.03382" lon="1.11246">
        <ele>430</ele>
        <time>2024-04-21T13:56:19.993Z</time>
      </trkpt>
      <trkpt lat="43.03379" lon="1.11245">
        <ele>428.6</ele>
        <time>2024-04-21T13:56:20.993Z</time>
      </trkpt>
      <trkpt lat="43.03375" lon="1.11245">
        <ele>429</ele>
        <time>2024-04-21T13:56:21.993Z</time>
      </trkpt>
      <trkpt lat="43.03371" lon="1.11246">
        <ele>428.6</ele>
        <time>2024-04-21T13:56:22.993Z</time>
      </trkpt>
      <trkpt lat="43.03367" lon="1.11246">
        <ele>427.8</ele>
        <time>2024-04-21T13:56:23.993Z</time>
      </trkpt>
      <trkpt lat="43.03364" lon="1.11246">
        <ele>427.4</ele>
        <time>2024-04-21T13:56:24.993Z</time>
      </trkpt>
      <trkpt lat="43.03361" lon="1.11245">
        <ele>427</ele>
        <time>2024-04-21T13:56:25.993Z</time>
      </trkpt>
      <trkpt lat="43.03358" lon="1.11245">
        <ele>427</ele>
        <time>2024-04-21T13:56:26.993Z</time>
      </trkpt>
      <trkpt lat="43.03355" lon="1.11241">
        <ele>426.4</ele>
        <time>2024-04-21T13:56:27.993Z</time>
      </trkpt>
      <trkpt lat="43.03356" lon="1.11238">
        <ele>426</ele>
        <time>2024-04-21T13:56:28.993Z</time>
      </trkpt>
      <trkpt lat="43.03356" lon="1.11236">
        <ele>426</ele>
        <time>2024-04-21T13:56:29.993Z</time>
      </trkpt>
      <trkpt lat="43.03358" lon="1.11235">
        <ele>425.6</ele>
        <time>2024-04-21T13:56:30.993Z</time>
      </trkpt>
      <trkpt lat="43.0336" lon="1.11234">
        <ele>425.4</ele>
        <time>2024-04-21T13:56:31.993Z</time>
      </trkpt>
      <trkpt lat="43.03363" lon="1.11233">
        <ele>425.4</ele>
        <time>2024-04-21T13:56:32.993Z</time>
      </trkpt>
      <trkpt lat="43.03365" lon="1.11233">
        <ele>425.4</ele>
        <time>2024-04-21T13:56:33.993Z</time>
      </trkpt>
      <trkpt lat="43.03368" lon="1.11233">
        <ele>425.4</ele>
        <time>2024-04-21T13:56:34.993Z</time>
      </trkpt>
      <trkpt lat="43.03371" lon="1.11233">
        <ele>425.2</ele>
        <time>2024-04-21T13:56:35.993Z</time>
      </trkpt>
      <trkpt lat="43.03373" lon="1.11233">
        <ele>425.2</ele>
        <time>2024-04-21T13:56:36.993Z</time>
      </trkpt>
      <trkpt lat="43.03376" lon="1.11233">
        <ele>424.8</ele>
        <time>2024-04-21T13:56:37.993Z</time>
      </trkpt>
      <trkpt lat="43.03378" lon="1.11233">
        <ele>424.4</ele>
        <time>2024-04-21T13:56:38.993Z</time>
      </trkpt>
      <trkpt lat="43.03379" lon="1.11233">
        <ele>424.2</ele>
        <time>2024-04-21T13:56:39.993Z</time>
      </trkpt>
      <trkpt lat="43.03382" lon="1.11232">
        <ele>424.2</ele>
        <time>2024-04-21T13:56:40.993Z</time>
      </trkpt>
      <trkpt lat="43.03385" lon="1.11231">
        <ele>424.2</ele>
        <time>2024-04-21T13:56:41.993Z</time>
      </trkpt>
      <trkpt lat="43.03388" lon="1.11231">
        <ele>424</ele>
        <time>2024-04-21T13:56:42.993Z</time>
      </trkpt>
      <trkpt lat="43.0339" lon="1.11231">
        <ele>423.6</ele>
        <time>2024-04-21T13:56:43.993Z</time>
      </trkpt>
      <trkpt lat="43.03393" lon="1.11231">
        <ele>423</ele>
        <time>2024-04-21T13:56:44.993Z</time>
      </trkpt>
      <trkpt lat="43.03395" lon="1.11231">
        <ele>423</ele>
        <time>2024-04-21T13:56:45.993Z</time>
      </trkpt>
      <trkpt lat="43.03398" lon="1.11231">
        <ele>423</ele>
        <time>2024-04-21T13:56:46.993Z</time>
      </trkpt>
      <trkpt lat="43.034" lon="1.11231">
        <ele>422.8</ele>
        <time>2024-04-21T13:56:47.993Z</time>
      </trkpt>
      <trkpt lat="43.03401" lon="1.1123">
        <ele>422.4</ele>
        <time>2024-04-21T13:56:48.993Z</time>
      </trkpt>
      <trkpt lat="43.03403" lon="1.11227">
        <ele>422.4</ele>
        <time>2024-04-21T13:56:49.993Z</time>
      </trkpt>
      <trkpt lat="43.03404" lon="1.11224">
        <ele>422.4</ele>
        <time>2024-04-21T13:56:50.993Z</time>
      </trkpt>
      <trkpt lat="43.03404" lon="1.1122">
        <ele>422</ele>
        <time>2024-04-21T13:56:51.993Z</time>
      </trkpt>
      <trkpt lat="43.03401" lon="1.11217">
        <ele>421.6</ele>
        <time>2024-04-21T13:56:52.993Z</time>
      </trkpt>
      <trkpt lat="43.03399" lon="1.11215">
        <ele>421.6</ele>
        <time>2024-04-21T13:56:53.993Z</time>
      </trkpt>
      <trkpt lat="43.03396" lon="1.11215">
        <ele>421.2</ele>
        <time>2024-04-21T13:56:54.993Z</time>
      </trkpt>
      <trkpt lat="43.03394" lon="1.11214">
        <ele>421.2</ele>
        <time>2024-04-21T13:56:55.993Z</time>
      </trkpt>
      <trkpt lat="43.03391" lon="1.11215">
        <ele>421</ele>
        <time>2024-04-21T13:56:56.993Z</time>
      </trkpt>
      <trkpt lat="43.03389" lon="1.11215">
        <ele>420.8</ele>
        <time>2024-04-21T13:56:57.993Z</time>
      </trkpt>
      <trkpt lat="43.03387" lon="1.11215">
        <ele>420.6</ele>
        <time>2024-04-21T13:56:58.993Z</time>
      </trkpt>
      <trkpt lat="43.03384" lon="1.11214">
        <ele>420.4</ele>
        <time>2024-04-21T13:56:59.993Z</time>
      </trkpt>
      <trkpt lat="43.03381" lon="1.11213">
        <ele>420</ele>
        <time>2024-04-21T13:57:00.993Z</time>
      </trkpt>
      <trkpt lat="43.03378" lon="1.11213">
        <ele>420</ele>
        <time>2024-04-21T13:57:01.993Z</time>
      </trkpt>
      <trkpt lat="43.03375" lon="1.11212">
        <ele>419.4</ele>
        <time>2024-04-21T13:57:02.993Z</time>
      </trkpt>
      <trkpt lat="43.03371" lon="1.11212">
        <ele>419.4</ele>
        <time>2024-04-21T13:57:03.993Z</time>
      </trkpt>
      <trkpt lat="43.03368" lon="1.11211">
        <ele>419</ele>
        <time>2024-04-21T13:57:04.993Z</time>
      </trkpt>
      <trkpt lat="43.03364" lon="1.1121">
        <ele>418.8</ele>
        <time>2024-04-21T13:57:05.993Z</time>
      </trkpt>
      <trkpt lat="43.03361" lon="1.11209">
        <ele>418.4</ele>
        <time>2024-04-21T13:57:06.993Z</time>
      </trkpt>
      <trkpt lat="43.03358" lon="1.11209">
        <ele>418</ele>
        <time>2024-04-21T13:57:07.993Z</time>
      </trkpt>
      <trkpt lat="43.03354" lon="1.11209">
        <ele>417.8</ele>
        <time>2024-04-21T13:57:08.993Z</time>
      </trkpt>
      <trkpt lat="43.03351" lon="1.11208">
        <ele>417.8</ele>
        <time>2024-04-21T13:57:09.993Z</time>
      </trkpt>
      <trkpt lat="43.03348" lon="1.11208">
        <ele>417</ele>
        <time>2024-04-21T13:57:10.993Z</time>
      </trkpt>
      <trkpt lat="43.03344" lon="1.11207">
        <ele>416.8</ele>
        <time>2024-04-21T13:57:11.993Z</time>
      </trkpt>
      <trkpt lat="43.03341" lon="1.11207">
        <ele>416.6</ele>
        <time>2024-04-21T13:57:12.993Z</time>
      </trkpt>
      <trkpt lat="43.03338" lon="1.11207">
        <ele>416.2</ele>
        <time>2024-04-21T13:57:13.993Z</time>
      </trkpt>
      <trkpt lat="43.03335" lon="1.11206">
        <ele>415.8</ele>
        <time>2024-04-21T13:57:14.993Z</time>
      </trkpt>
      <trkpt lat="43.03332" lon="1.11206">
        <ele>415.8</ele>
        <time>2024-04-21T13:57:15.993Z</time>
      </trkpt>
      <trkpt lat="43.0333" lon="1.11207">
        <ele>415.6</ele>
        <time>2024-04-21T13:57:16.993Z</time>
      </trkpt>
      <trkpt lat="43.03327" lon="1.11207">
        <ele>415.2</ele>
        <time>2024-04-21T13:57:17.993Z</time>
      </trkpt>
      <trkpt lat="43.03324" lon="1.11209">
        <ele>414.8</ele>
        <time>2024-04-21T13:57:18.993Z</time>
      </trkpt>
      <trkpt lat="43.03321" lon="1.1121">
        <ele>414.8</ele>
        <time>2024-04-21T13:57:19.993Z</time>
      </trkpt>
      <trkpt lat="43.03319" lon="1.11212">
        <ele>414.4</ele>
        <time>2024-04-21T13:57:20.993Z</time>
      </trkpt>
      <trkpt lat="43.03316" lon="1.11214">
        <ele>414</ele>
        <time>2024-04-21T13:57:21.993Z</time>
      </trkpt>
      <trkpt lat="43.03313" lon="1.11216">
        <ele>413.8</ele>
        <time>2024-04-21T13:57:22.993Z</time>
      </trkpt>
      <trkpt lat="43.03311" lon="1.11219">
        <ele>413.8</ele>
        <time>2024-04-21T13:57:23.993Z</time>
      </trkpt>
      <trkpt lat="43.03308" lon="1.11222">
        <ele>413</ele>
        <time>2024-04-21T13:57:24.993Z</time>
      </trkpt>
      <trkpt lat="43.03306" lon="1.11225">
        <ele>412.6</ele>
        <time>2024-04-21T13:57:25.993Z</time>
      </trkpt>
      <trkpt lat="43.03304" lon="1.11228">
        <ele>412.2</ele>
        <time>2024-04-21T13:57:26.993Z</time>
      </trkpt>
      <trkpt lat="43.03303" lon="1.11231">
        <ele>411.8</ele>
        <time>2024-04-21T13:57:27.993Z</time>
      </trkpt>
      <trkpt lat="43.03301" lon="1.11234">
        <ele>411.4</ele>
        <time>2024-04-21T13:57:28.993Z</time>
      </trkpt>
      <trkpt lat="43.03301" lon="1.11236">
        <ele>411</ele>
        <time>2024-04-21T13:57:29.993Z</time>
      </trkpt>
      <trkpt lat="43.03301" lon="1.11236">
        <ele>411</ele>
        <time>2024-04-21T13:57:30.993Z</time>
      </trkpt>
      <trkpt lat="43.033" lon="1.11239">
        <ele>410.6</ele>
        <time>2024-04-21T13:57:31.993Z</time>
      </trkpt>
      <trkpt lat="43.03299" lon="1.11246">
        <ele>410.2</ele>
        <time>2024-04-21T13:57:32.993Z</time>
      </trkpt>
      <trkpt lat="43.03297" lon="1.1125">
        <ele>410.2</ele>
        <time>2024-04-21T13:57:33.993Z</time>
      </trkpt>
      <trkpt lat="43.03296" lon="1.11255">
        <ele>409.8</ele>
        <time>2024-04-21T13:57:34.993Z</time>
      </trkpt>
      <trkpt lat="43.03294" lon="1.1126">
        <ele>409.8</ele>
        <time>2024-04-21T13:57:35.993Z</time>
      </trkpt>
      <trkpt lat="43.03292" lon="1.11265">
        <ele>409.2</ele>
        <time>2024-04-21T13:57:36.993Z</time>
      </trkpt>
      <trkpt lat="43.0329" lon="1.11269">
        <ele>409.2</ele>
        <time>2024-04-21T13:57:37.993Z</time>
      </trkpt>
      <trkpt lat="43.03289" lon="1.11273">
        <ele>408.8</ele>
        <time>2024-04-21T13:57:38.993Z</time>
      </trkpt>
      <trkpt lat="43.03287" lon="1.11277">
        <ele>408.8</ele>
        <time>2024-04-21T13:57:39.993Z</time>
      </trkpt>
      <trkpt lat="43.03285" lon="1.11281">
        <ele>408.2</ele>
        <time>2024-04-21T13:57:40.993Z</time>
      </trkpt>
      <trkpt lat="43.03283" lon="1.11285">
        <ele>408.2</ele>
        <time>2024-04-21T13:57:41.993Z</time>
      </trkpt>
      <trkpt lat="43.03281" lon="1.11289">
        <ele>408</ele>
        <time>2024-04-21T13:57:42.993Z</time>
      </trkpt>
      <trkpt lat="43.03279" lon="1.11293">
        <ele>407.6</ele>
        <time>2024-04-21T13:57:43.993Z</time>
      </trkpt>
      <trkpt lat="43.03277" lon="1.11296">
        <ele>407.2</ele>
        <time>2024-04-21T13:57:44.993Z</time>
      </trkpt>
      <trkpt lat="43.03274" lon="1.113">
        <ele>407.2</ele>
        <time>2024-04-21T13:57:45.993Z</time>
      </trkpt>
      <trkpt lat="43.03271" lon="1.11304">
        <ele>407</ele>
        <time>2024-04-21T13:57:46.993Z</time>
      </trkpt>
      <trkpt lat="43.03268" lon="1.11307">
        <ele>406.6</ele>
        <time>2024-04-21T13:57:47.993Z</time>
      </trkpt>
      <trkpt lat="43.03265" lon="1.1131">
        <ele>406.4</ele>
        <time>2024-04-21T13:57:48.993Z</time>
      </trkpt>
      <trkpt lat="43.03261" lon="1.11314">
        <ele>405.2</ele>
        <time>2024-04-21T13:57:49.993Z</time>
      </trkpt>
      <trkpt lat="43.03258" lon="1.11317">
        <ele>405</ele>
        <time>2024-04-21T13:57:50.993Z</time>
      </trkpt>
      <trkpt lat="43.03254" lon="1.1132">
        <ele>405</ele>
        <time>2024-04-21T13:57:51.993Z</time>
      </trkpt>
      <trkpt lat="43.0325" lon="1.11322">
        <ele>404.2</ele>
        <time>2024-04-21T13:57:52.993Z</time>
      </trkpt>
      <trkpt lat="43.03247" lon="1.11325">
        <ele>403.6</ele>
        <time>2024-04-21T13:57:53.993Z</time>
      </trkpt>
      <trkpt lat="43.03243" lon="1.1133">
        <ele>403.2</ele>
        <time>2024-04-21T13:57:54.993Z</time>
      </trkpt>
      <trkpt lat="43.0324" lon="1.11331">
        <ele>403</ele>
        <time>2024-04-21T13:57:55.993Z</time>
      </trkpt>
      <trkpt lat="43.03238" lon="1.11336">
        <ele>402.4</ele>
        <time>2024-04-21T13:57:56.993Z</time>
      </trkpt>
      <trkpt lat="43.03235" lon="1.1134">
        <ele>402</ele>
        <time>2024-04-21T13:57:57.993Z</time>
      </trkpt>
      <trkpt lat="43.03232" lon="1.11344">
        <ele>401.6</ele>
        <time>2024-04-21T13:57:58.993Z</time>
      </trkpt>
      <trkpt lat="43.03229" lon="1.11348">
        <ele>400.8</ele>
        <time>2024-04-21T13:57:59.993Z</time>
      </trkpt>
      <trkpt lat="43.03226" lon="1.11352">
        <ele>400.2</ele>
        <time>2024-04-21T13:58:00.993Z</time>
      </trkpt>
      <trkpt lat="43.0322" lon="1.11361">
        <ele>400</ele>
        <time>2024-04-21T13:58:01.993Z</time>
      </trkpt>
      <trkpt lat="43.03218" lon="1.11364">
        <ele>399.6</ele>
        <time>2024-04-21T13:58:02.993Z</time>
      </trkpt>
      <trkpt lat="43.03215" lon="1.11368">
        <ele>399</ele>
        <time>2024-04-21T13:58:03.993Z</time>
      </trkpt>
      <trkpt lat="43.03214" lon="1.11373">
        <ele>398.2</ele>
        <time>2024-04-21T13:58:04.993Z</time>
      </trkpt>
      <trkpt lat="43.03211" lon="1.11377">
        <ele>397.8</ele>
        <time>2024-04-21T13:58:05.993Z</time>
      </trkpt>
      <trkpt lat="43.03209" lon="1.1138">
        <ele>397.8</ele>
        <time>2024-04-21T13:58:06.993Z</time>
      </trkpt>
      <trkpt lat="43.03206" lon="1.11383">
        <ele>397</ele>
        <time>2024-04-21T13:58:07.993Z</time>
      </trkpt>
      <trkpt lat="43.03204" lon="1.11386">
        <ele>396.2</ele>
        <time>2024-04-21T13:58:08.993Z</time>
      </trkpt>
      <trkpt lat="43.03201" lon="1.11389">
        <ele>396</ele>
        <time>2024-04-21T13:58:09.993Z</time>
      </trkpt>
      <trkpt lat="43.03198" lon="1.11392">
        <ele>395.6</ele>
        <time>2024-04-21T13:58:10.993Z</time>
      </trkpt>
      <trkpt lat="43.03194" lon="1.11394">
        <ele>395</ele>
        <time>2024-04-21T13:58:11.993Z</time>
      </trkpt>
      <trkpt lat="43.0319" lon="1.11396">
        <ele>394.8</ele>
        <time>2024-04-21T13:58:12.993Z</time>
      </trkpt>
      <trkpt lat="43.03187" lon="1.11397">
        <ele>394</ele>
        <time>2024-04-21T13:58:13.993Z</time>
      </trkpt>
      <trkpt lat="43.03182" lon="1.11399">
        <ele>393.4</ele>
        <time>2024-04-21T13:58:14.993Z</time>
      </trkpt>
      <trkpt lat="43.03178" lon="1.11402">
        <ele>392.8</ele>
        <time>2024-04-21T13:58:15.993Z</time>
      </trkpt>
      <trkpt lat="43.03174" lon="1.11404">
        <ele>392.4</ele>
        <time>2024-04-21T13:58:16.993Z</time>
      </trkpt>
      <trkpt lat="43.03171" lon="1.11407">
        <ele>391.8</ele>
        <time>2024-04-21T13:58:17.993Z</time>
      </trkpt>
      <trkpt lat="43.03168" lon="1.11409">
        <ele>391.8</ele>
        <time>2024-04-21T13:58:18.993Z</time>
      </trkpt>
      <trkpt lat="43.03165" lon="1.11411">
        <ele>391.4</ele>
        <time>2024-04-21T13:58:19.993Z</time>
      </trkpt>
      <trkpt lat="43.03162" lon="1.11413">
        <ele>390.8</ele>
        <time>2024-04-21T13:58:20.993Z</time>
      </trkpt>
      <trkpt lat="43.03159" lon="1.11415">
        <ele>390.6</ele>
        <time>2024-04-21T13:58:21.993Z</time>
      </trkpt>
      <trkpt lat="43.03156" lon="1.11417">
        <ele>390.6</ele>
        <time>2024-04-21T13:58:22.993Z</time>
      </trkpt>
      <trkpt lat="43.03154" lon="1.1142">
        <ele>390.2</ele>
        <time>2024-04-21T13:58:23.993Z</time>
      </trkpt>
      <trkpt lat="43.03151" lon="1.11422">
        <ele>389.8</ele>
        <time>2024-04-21T13:58:24.993Z</time>
      </trkpt>
      <trkpt lat="43.03148" lon="1.11425">
        <ele>389.8</ele>
        <time>2024-04-21T13:58:25.993Z</time>
      </trkpt>
      <trkpt lat="43.03145" lon="1.11427">
        <ele>389.6</ele>
        <time>2024-04-21T13:58:26.993Z</time>
      </trkpt>
      <trkpt lat="43.03142" lon="1.1143">
        <ele>389</ele>
        <time>2024-04-21T13:58:27.993Z</time>
      </trkpt>
      <trkpt lat="43.03139" lon="1.11433">
        <ele>388.4</ele>
        <time>2024-04-21T13:58:28.993Z</time>
      </trkpt>
      <trkpt lat="43.03136" lon="1.11437">
        <ele>388.4</ele>
        <time>2024-04-21T13:58:29.993Z</time>
      </trkpt>
      <trkpt lat="43.03133" lon="1.11441">
        <ele>388.4</ele>
        <time>2024-04-21T13:58:30.993Z</time>
      </trkpt>
      <trkpt lat="43.0313" lon="1.11446">
        <ele>387.6</ele>
        <time>2024-04-21T13:58:31.993Z</time>
      </trkpt>
      <trkpt lat="43.03127" lon="1.1145">
        <ele>386.6</ele>
        <time>2024-04-21T13:58:32.993Z</time>
      </trkpt>
      <trkpt lat="43.03124" lon="1.11454">
        <ele>386.4</ele>
        <time>2024-04-21T13:58:33.993Z</time>
      </trkpt>
      <trkpt lat="43.03122" lon="1.11458">
        <ele>385.4</ele>
        <time>2024-04-21T13:58:34.993Z</time>
      </trkpt>
      <trkpt lat="43.03119" lon="1.11461">
        <ele>384.8</ele>
        <time>2024-04-21T13:58:35.993Z</time>
      </trkpt>
      <trkpt lat="43.03115" lon="1.11464">
        <ele>384.4</ele>
        <time>2024-04-21T13:58:36.993Z</time>
      </trkpt>
      <trkpt lat="43.03112" lon="1.11468">
        <ele>384</ele>
        <time>2024-04-21T13:58:37.993Z</time>
      </trkpt>
      <trkpt lat="43.03109" lon="1.11471">
        <ele>383.6</ele>
        <time>2024-04-21T13:58:38.993Z</time>
      </trkpt>
      <trkpt lat="43.03107" lon="1.11473">
        <ele>383</ele>
        <time>2024-04-21T13:58:39.993Z</time>
      </trkpt>
      <trkpt lat="43.03104" lon="1.11476">
        <ele>383</ele>
        <time>2024-04-21T13:58:40.993Z</time>
      </trkpt>
      <trkpt lat="43.03102" lon="1.11478">
        <ele>382.4</ele>
        <time>2024-04-21T13:58:41.993Z</time>
      </trkpt>
      <trkpt lat="43.031" lon="1.11479">
        <ele>382.2</ele>
        <time>2024-04-21T13:58:42.993Z</time>
      </trkpt>
      <trkpt lat="43.03098" lon="1.1148">
        <ele>381.8</ele>
        <time>2024-04-21T13:58:43.993Z</time>
      </trkpt>
      <trkpt lat="43.03095" lon="1.11482">
        <ele>381.4</ele>
        <time>2024-04-21T13:58:44.993Z</time>
      </trkpt>
      <trkpt lat="43.03093" lon="1.11484">
        <ele>381</ele>
        <time>2024-04-21T13:58:45.993Z</time>
      </trkpt>
      <trkpt lat="43.0309" lon="1.11486">
        <ele>381</ele>
        <time>2024-04-21T13:58:46.993Z</time>
      </trkpt>
      <trkpt lat="43.03087" lon="1.11487">
        <ele>380.4</ele>
        <time>2024-04-21T13:58:47.993Z</time>
      </trkpt>
      <trkpt lat="43.03084" lon="1.11487">
        <ele>380.2</ele>
        <time>2024-04-21T13:58:48.993Z</time>
      </trkpt>
      <trkpt lat="43.0308" lon="1.11486">
        <ele>379.8</ele>
        <time>2024-04-21T13:58:49.993Z</time>
      </trkpt>
      <trkpt lat="43.03076" lon="1.11485">
        <ele>379.4</ele>
        <time>2024-04-21T13:58:50.993Z</time>
      </trkpt>
      <trkpt lat="43.03071" lon="1.11482">
        <ele>379.2</ele>
        <time>2024-04-21T13:58:51.993Z</time>
      </trkpt>
      <trkpt lat="43.03066" lon="1.11481">
        <ele>379.2</ele>
        <time>2024-04-21T13:58:52.993Z</time>
      </trkpt>
      <trkpt lat="43.03061" lon="1.11479">
        <ele>378.8</ele>
        <time>2024-04-21T13:58:53.993Z</time>
      </trkpt>
      <trkpt lat="43.03055" lon="1.11477">
        <ele>378</ele>
        <time>2024-04-21T13:58:54.993Z</time>
      </trkpt>
      <trkpt lat="43.03049" lon="1.11474">
        <ele>377.4</ele>
        <time>2024-04-21T13:58:55.993Z</time>
      </trkpt>
      <trkpt lat="43.03043" lon="1.11471">
        <ele>376.8</ele>
        <time>2024-04-21T13:58:56.993Z</time>
      </trkpt>
      <trkpt lat="43.03036" lon="1.11469">
        <ele>376.2</ele>
        <time>2024-04-21T13:58:57.993Z</time>
      </trkpt>
      <trkpt lat="43.03029" lon="1.11465">
        <ele>375.6</ele>
        <time>2024-04-21T13:58:58.993Z</time>
      </trkpt>
      <trkpt lat="43.03023" lon="1.11461">
        <ele>374.8</ele>
        <time>2024-04-21T13:58:59.993Z</time>
      </trkpt>
      <trkpt lat="43.03016" lon="1.11456">
        <ele>374.4</ele>
        <time>2024-04-21T13:59:00.993Z</time>
      </trkpt>
      <trkpt lat="43.0301" lon="1.11451">
        <ele>374.2</ele>
        <time>2024-04-21T13:59:01.993Z</time>
      </trkpt>
      <trkpt lat="43.03003" lon="1.11446">
        <ele>373.8</ele>
        <time>2024-04-21T13:59:02.993Z</time>
      </trkpt>
      <trkpt lat="43.02996" lon="1.11442">
        <ele>373.6</ele>
        <time>2024-04-21T13:59:03.993Z</time>
      </trkpt>
      <trkpt lat="43.0299" lon="1.11438">
        <ele>373.6</ele>
        <time>2024-04-21T13:59:04.993Z</time>
      </trkpt>
      <trkpt lat="43.02984" lon="1.11434">
        <ele>373.2</ele>
        <time>2024-04-21T13:59:05.993Z</time>
      </trkpt>
      <trkpt lat="43.02977" lon="1.11431">
        <ele>373.2</ele>
        <time>2024-04-21T13:59:06.993Z</time>
      </trkpt>
      <trkpt lat="43.0297" lon="1.11429">
        <ele>372.8</ele>
        <time>2024-04-21T13:59:07.993Z</time>
      </trkpt>
      <trkpt lat="43.02963" lon="1.11427">
        <ele>372.8</ele>
        <time>2024-04-21T13:59:08.993Z</time>
      </trkpt>
      <trkpt lat="43.02956" lon="1.11426">
        <ele>372.6</ele>
        <time>2024-04-21T13:59:09.993Z</time>
      </trkpt>
      <trkpt lat="43.0295" lon="1.11424">
        <ele>372.6</ele>
        <time>2024-04-21T13:59:10.993Z</time>
      </trkpt>
      <trkpt lat="43.02944" lon="1.11423">
        <ele>372.2</ele>
        <time>2024-04-21T13:59:11.993Z</time>
      </trkpt>
      <trkpt lat="43.02938" lon="1.11423">
        <ele>372.2</ele>
        <time>2024-04-21T13:59:12.993Z</time>
      </trkpt>
      <trkpt lat="43.02932" lon="1.11424">
        <ele>372.2</ele>
        <time>2024-04-21T13:59:13.993Z</time>
      </trkpt>
      <trkpt lat="43.02925" lon="1.11425">
        <ele>372.2</ele>
        <time>2024-04-21T13:59:14.993Z</time>
      </trkpt>
      <trkpt lat="43.0292" lon="1.11427">
        <ele>372.2</ele>
        <time>2024-04-21T13:59:15.993Z</time>
      </trkpt>
      <trkpt lat="43.02915" lon="1.11429">
        <ele>372.2</ele>
        <time>2024-04-21T13:59:16.993Z</time>
      </trkpt>
      <trkpt lat="43.0291" lon="1.11432">
        <ele>372.4</ele>
        <time>2024-04-21T13:59:17.993Z</time>
      </trkpt>
      <trkpt lat="43.02905" lon="1.11435">
        <ele>372.4</ele>
        <time>2024-04-21T13:59:18.993Z</time>
      </trkpt>
      <trkpt lat="43.02901" lon="1.11437">
        <ele>372.4</ele>
        <time>2024-04-21T13:59:19.993Z</time>
      </trkpt>
      <trkpt lat="43.02896" lon="1.1144">
        <ele>372.4</ele>
        <time>2024-04-21T13:59:20.993Z</time>
      </trkpt>
      <trkpt lat="43.02891" lon="1.11443">
        <ele>372.4</ele>
        <time>2024-04-21T13:59:21.993Z</time>
      </trkpt>
      <trkpt lat="43.02887" lon="1.11446">
        <ele>372.4</ele>
        <time>2024-04-21T13:59:22.993Z</time>
      </trkpt>
      <trkpt lat="43.02883" lon="1.11448">
        <ele>372.4</ele>
        <time>2024-04-21T13:59:23.993Z</time>
      </trkpt>
      <trkpt lat="43.02879" lon="1.11452">
        <ele>372.4</ele>
        <time>2024-04-21T13:59:24.993Z</time>
      </trkpt>
      <trkpt lat="43.02876" lon="1.11455">
        <ele>372.2</ele>
        <time>2024-04-21T13:59:25.993Z</time>
      </trkpt>
      <trkpt lat="43.02872" lon="1.11457">
        <ele>372.2</ele>
        <time>2024-04-21T13:59:26.993Z</time>
      </trkpt>
      <trkpt lat="43.02868" lon="1.1146">
        <ele>372.2</ele>
        <time>2024-04-21T13:59:27.993Z</time>
      </trkpt>
      <trkpt lat="43.02864" lon="1.11462">
        <ele>372.2</ele>
        <time>2024-04-21T13:59:28.993Z</time>
      </trkpt>
      <trkpt lat="43.02861" lon="1.11461">
        <ele>372.2</ele>
        <time>2024-04-21T13:59:29.993Z</time>
      </trkpt>
      <trkpt lat="43.02857" lon="1.1146">
        <ele>372.4</ele>
        <time>2024-04-21T13:59:30.993Z</time>
      </trkpt>
      <trkpt lat="43.02854" lon="1.11458">
        <ele>372.4</ele>
        <time>2024-04-21T13:59:31.993Z</time>
      </trkpt>
      <trkpt lat="43.0285" lon="1.11455">
        <ele>372.2</ele>
        <time>2024-04-21T13:59:32.993Z</time>
      </trkpt>
      <trkpt lat="43.02848" lon="1.11451">
        <ele>372.2</ele>
        <time>2024-04-21T13:59:33.993Z</time>
      </trkpt>
      <trkpt lat="43.02845" lon="1.11446">
        <ele>372.2</ele>
        <time>2024-04-21T13:59:34.993Z</time>
      </trkpt>
      <trkpt lat="43.02843" lon="1.11442">
        <ele>372.2</ele>
        <time>2024-04-21T13:59:35.993Z</time>
      </trkpt>
      <trkpt lat="43.02839" lon="1.11437">
        <ele>372.2</ele>
        <time>2024-04-21T13:59:36.993Z</time>
      </trkpt>
      <trkpt lat="43.02836" lon="1.11432">
        <ele>371.8</ele>
        <time>2024-04-21T13:59:37.993Z</time>
      </trkpt>
      <trkpt lat="43.02833" lon="1.11426">
        <ele>371.8</ele>
        <time>2024-04-21T13:59:38.993Z</time>
      </trkpt>
      <trkpt lat="43.0283" lon="1.1142">
        <ele>371.6</ele>
        <time>2024-04-21T13:59:39.993Z</time>
      </trkpt>
      <trkpt lat="43.02827" lon="1.11414">
        <ele>371.6</ele>
        <time>2024-04-21T13:59:40.993Z</time>
      </trkpt>
      <trkpt lat="43.02823" lon="1.11409">
        <ele>371.2</ele>
        <time>2024-04-21T13:59:41.993Z</time>
      </trkpt>
      <trkpt lat="43.02821" lon="1.11402">
        <ele>371.2</ele>
        <time>2024-04-21T13:59:42.993Z</time>
      </trkpt>
      <trkpt lat="43.02818" lon="1.11396">
        <ele>371.2</ele>
        <time>2024-04-21T13:59:43.993Z</time>
      </trkpt>
      <trkpt lat="43.02815" lon="1.1139">
        <ele>370.6</ele>
        <time>2024-04-21T13:59:44.993Z</time>
      </trkpt>
      <trkpt lat="43.02811" lon="1.11385">
        <ele>370.4</ele>
        <time>2024-04-21T13:59:45.993Z</time>
      </trkpt>
      <trkpt lat="43.02807" lon="1.11381">
        <ele>370</ele>
        <time>2024-04-21T13:59:46.993Z</time>
      </trkpt>
      <trkpt lat="43.02803" lon="1.11377">
        <ele>369.6</ele>
        <time>2024-04-21T13:59:47.993Z</time>
      </trkpt>
      <trkpt lat="43.02799" lon="1.11373">
        <ele>369.6</ele>
        <time>2024-04-21T13:59:48.993Z</time>
      </trkpt>
      <trkpt lat="43.02796" lon="1.11368">
        <ele>369.4</ele>
        <time>2024-04-21T13:59:49.993Z</time>
      </trkpt>
      <trkpt lat="43.02792" lon="1.11364">
        <ele>369.4</ele>
        <time>2024-04-21T13:59:50.993Z</time>
      </trkpt>
      <trkpt lat="43.02789" lon="1.1136">
        <ele>369</ele>
        <time>2024-04-21T13:59:51.993Z</time>
      </trkpt>
      <trkpt lat="43.02785" lon="1.11354">
        <ele>368.8</ele>
        <time>2024-04-21T13:59:52.993Z</time>
      </trkpt>
      <trkpt lat="43.02781" lon="1.11349">
        <ele>368.6</ele>
        <time>2024-04-21T13:59:53.993Z</time>
      </trkpt>
      <trkpt lat="43.02776" lon="1.11344">
        <ele>368.2</ele>
        <time>2024-04-21T13:59:54.993Z</time>
      </trkpt>
      <trkpt lat="43.02772" lon="1.1134">
        <ele>368</ele>
        <time>2024-04-21T13:59:55.993Z</time>
      </trkpt>
      <trkpt lat="43.02772" lon="1.1134">
        <ele>367.8</ele>
        <time>2024-04-21T13:59:56.993Z</time>
      </trkpt>
      <trkpt lat="43.02768" lon="1.11334">
        <ele>367.8</ele>
        <time>2024-04-21T13:59:57.993Z</time>
      </trkpt>
      <trkpt lat="43.02763" lon="1.1133">
        <ele>367.4</ele>
        <time>2024-04-21T13:59:58.993Z</time>
      </trkpt>
      <trkpt lat="43.02759" lon="1.11325">
        <ele>367</ele>
        <time>2024-04-21T13:59:59.993Z</time>
      </trkpt>
      <trkpt lat="43.02755" lon="1.11321">
        <ele>366.8</ele>
        <time>2024-04-21T14:00:00.993Z</time>
      </trkpt>
      <trkpt lat="43.02752" lon="1.11319">
        <ele>366.2</ele>
        <time>2024-04-21T14:00:01.993Z</time>
      </trkpt>
      <trkpt lat="43.02749" lon="1.11316">
        <ele>366.2</ele>
        <time>2024-04-21T14:00:02.993Z</time>
      </trkpt>
      <trkpt lat="43.02747" lon="1.11313">
        <ele>366</ele>
        <time>2024-04-21T14:00:03.993Z</time>
      </trkpt>
      <trkpt lat="43.02745" lon="1.11311">
        <ele>365.8</ele>
        <time>2024-04-21T14:00:04.993Z</time>
      </trkpt>
      <trkpt lat="43.02743" lon="1.11309">
        <ele>365.8</ele>
        <time>2024-04-21T14:00:05.993Z</time>
      </trkpt>
      <trkpt lat="43.02741" lon="1.11308">
        <ele>365.6</ele>
        <time>2024-04-21T14:00:06.993Z</time>
      </trkpt>
      <trkpt lat="43.02741" lon="1.11306">
        <ele>365.2</ele>
        <time>2024-04-21T14:00:07.993Z</time>
      </trkpt>
      <trkpt lat="43.0274" lon="1.11304">
        <ele>364.8</ele>
        <time>2024-04-21T14:00:08.993Z</time>
      </trkpt>
      <trkpt lat="43.02741" lon="1.11302">
        <ele>364.8</ele>
        <time>2024-04-21T14:00:09.993Z</time>
      </trkpt>
      <trkpt lat="43.02742" lon="1.11299">
        <ele>364.6</ele>
        <time>2024-04-21T14:00:10.993Z</time>
      </trkpt>
      <trkpt lat="43.02744" lon="1.11297">
        <ele>364.6</ele>
        <time>2024-04-21T14:00:11.993Z</time>
      </trkpt>
      <trkpt lat="43.02747" lon="1.11295">
        <ele>364.2</ele>
        <time>2024-04-21T14:00:12.993Z</time>
      </trkpt>
      <trkpt lat="43.0275" lon="1.11292">
        <ele>364.2</ele>
        <time>2024-04-21T14:00:13.993Z</time>
      </trkpt>
      <trkpt lat="43.02753" lon="1.11288">
        <ele>364.2</ele>
        <time>2024-04-21T14:00:14.993Z</time>
      </trkpt>
      <trkpt lat="43.02756" lon="1.11285">
        <ele>363.8</ele>
        <time>2024-04-21T14:00:15.993Z</time>
      </trkpt>
      <trkpt lat="43.02759" lon="1.11281">
        <ele>363.8</ele>
        <time>2024-04-21T14:00:16.993Z</time>
      </trkpt>
      <trkpt lat="43.02762" lon="1.11278">
        <ele>363.6</ele>
        <time>2024-04-21T14:00:17.993Z</time>
      </trkpt>
      <trkpt lat="43.02766" lon="1.11275">
        <ele>363.8</ele>
        <time>2024-04-21T14:00:18.993Z</time>
      </trkpt>
      <trkpt lat="43.02769" lon="1.11271">
        <ele>363.8</ele>
        <time>2024-04-21T14:00:19.993Z</time>
      </trkpt>
      <trkpt lat="43.02772" lon="1.11268">
        <ele>364.2</ele>
        <time>2024-04-21T14:00:20.993Z</time>
      </trkpt>
      <trkpt lat="43.02775" lon="1.11264">
        <ele>364.2</ele>
        <time>2024-04-21T14:00:21.993Z</time>
      </trkpt>
      <trkpt lat="43.02779" lon="1.1126">
        <ele>363.8</ele>
        <time>2024-04-21T14:00:22.993Z</time>
      </trkpt>
      <trkpt lat="43.02782" lon="1.11254">
        <ele>363.8</ele>
        <time>2024-04-21T14:00:23.993Z</time>
      </trkpt>
      <trkpt lat="43.02784" lon="1.1125">
        <ele>363.6</ele>
        <time>2024-04-21T14:00:24.993Z</time>
      </trkpt>
      <trkpt lat="43.02791" lon="1.1124">
        <ele>363.2</ele>
        <time>2024-04-21T14:00:25.993Z</time>
      </trkpt>
      <trkpt lat="43.02793" lon="1.11235">
        <ele>363.2</ele>
        <time>2024-04-21T14:00:26.993Z</time>
      </trkpt>
      <trkpt lat="43.02796" lon="1.1123">
        <ele>363</ele>
        <time>2024-04-21T14:00:27.993Z</time>
      </trkpt>
      <trkpt lat="43.02798" lon="1.11225">
        <ele>363</ele>
        <time>2024-04-21T14:00:28.993Z</time>
      </trkpt>
      <trkpt lat="43.02802" lon="1.1122">
        <ele>363</ele>
        <time>2024-04-21T14:00:29.993Z</time>
      </trkpt>
      <trkpt lat="43.02805" lon="1.11215">
        <ele>363</ele>
        <time>2024-04-21T14:00:30.993Z</time>
      </trkpt>
      <trkpt lat="43.02808" lon="1.11209">
        <ele>363</ele>
        <time>2024-04-21T14:00:31.993Z</time>
      </trkpt>
      <trkpt lat="43.02811" lon="1.11204">
        <ele>363</ele>
        <time>2024-04-21T14:00:32.993Z</time>
      </trkpt>
      <trkpt lat="43.02815" lon="1.11199">
        <ele>363.2</ele>
        <time>2024-04-21T14:00:33.993Z</time>
      </trkpt>
      <trkpt lat="43.02818" lon="1.11193">
        <ele>363.2</ele>
        <time>2024-04-21T14:00:34.993Z</time>
      </trkpt>
      <trkpt lat="43.02822" lon="1.11188">
        <ele>363</ele>
        <time>2024-04-21T14:00:35.993Z</time>
      </trkpt>
      <trkpt lat="43.02826" lon="1.11183">
        <ele>363</ele>
        <time>2024-04-21T14:00:36.993Z</time>
      </trkpt>
      <trkpt lat="43.02828" lon="1.11177">
        <ele>363</ele>
        <time>2024-04-21T14:00:37.993Z</time>
      </trkpt>
      <trkpt lat="43.02831" lon="1.11172">
        <ele>363</ele>
        <time>2024-04-21T14:00:38.993Z</time>
      </trkpt>
      <trkpt lat="43.02834" lon="1.11167">
        <ele>363</ele>
        <time>2024-04-21T14:00:39.993Z</time>
      </trkpt>
      <trkpt lat="43.02838" lon="1.11161">
        <ele>363</ele>
        <time>2024-04-21T14:00:40.993Z</time>
      </trkpt>
      <trkpt lat="43.02842" lon="1.11156">
        <ele>363.2</ele>
        <time>2024-04-21T14:00:41.993Z</time>
      </trkpt>
      <trkpt lat="43.02845" lon="1.1115">
        <ele>363.2</ele>
        <time>2024-04-21T14:00:42.993Z</time>
      </trkpt>
      <trkpt lat="43.02849" lon="1.11145">
        <ele>363</ele>
        <time>2024-04-21T14:00:43.993Z</time>
      </trkpt>
      <trkpt lat="43.02852" lon="1.11141">
        <ele>363</ele>
        <time>2024-04-21T14:00:44.993Z</time>
      </trkpt>
      <trkpt lat="43.02856" lon="1.11136">
        <ele>363</ele>
        <time>2024-04-21T14:00:45.993Z</time>
      </trkpt>
      <trkpt lat="43.02859" lon="1.11132">
        <ele>363</ele>
        <time>2024-04-21T14:00:46.993Z</time>
      </trkpt>
      <trkpt lat="43.02863" lon="1.11127">
        <ele>363</ele>
        <time>2024-04-21T14:00:47.993Z</time>
      </trkpt>
      <trkpt lat="43.02867" lon="1.11123">
        <ele>363.2</ele>
        <time>2024-04-21T14:00:48.993Z</time>
      </trkpt>
      <trkpt lat="43.0287" lon="1.11117">
        <ele>363.2</ele>
        <time>2024-04-21T14:00:49.993Z</time>
      </trkpt>
      <trkpt lat="43.02874" lon="1.11112">
        <ele>363.2</ele>
        <time>2024-04-21T14:00:50.993Z</time>
      </trkpt>
      <trkpt lat="43.02878" lon="1.11107">
        <ele>363.2</ele>
        <time>2024-04-21T14:00:51.993Z</time>
      </trkpt>
      <trkpt lat="43.02882" lon="1.11103">
        <ele>363.2</ele>
        <time>2024-04-21T14:00:52.993Z</time>
      </trkpt>
      <trkpt lat="43.02886" lon="1.11098">
        <ele>363.4</ele>
        <time>2024-04-21T14:00:53.993Z</time>
      </trkpt>
      <trkpt lat="43.02889" lon="1.11093">
        <ele>363.4</ele>
        <time>2024-04-21T14:00:54.993Z</time>
      </trkpt>
      <trkpt lat="43.02893" lon="1.11087">
        <ele>363.4</ele>
        <time>2024-04-21T14:00:55.993Z</time>
      </trkpt>
      <trkpt lat="43.02897" lon="1.11083">
        <ele>363.4</ele>
        <time>2024-04-21T14:00:56.993Z</time>
      </trkpt>
      <trkpt lat="43.02902" lon="1.11078">
        <ele>363.4</ele>
        <time>2024-04-21T14:00:57.993Z</time>
      </trkpt>
      <trkpt lat="43.02906" lon="1.11074">
        <ele>363.4</ele>
        <time>2024-04-21T14:00:58.993Z</time>
      </trkpt>
      <trkpt lat="43.02911" lon="1.1107">
        <ele>363.4</ele>
        <time>2024-04-21T14:00:59.993Z</time>
      </trkpt>
      <trkpt lat="43.02915" lon="1.11065">
        <ele>363.2</ele>
        <time>2024-04-21T14:01:00.993Z</time>
      </trkpt>
      <trkpt lat="43.0292" lon="1.11061">
        <ele>363.2</ele>
        <time>2024-04-21T14:01:01.993Z</time>
      </trkpt>
      <trkpt lat="43.02924" lon="1.11056">
        <ele>363.2</ele>
        <time>2024-04-21T14:01:02.993Z</time>
      </trkpt>
      <trkpt lat="43.02929" lon="1.11052">
        <ele>363.2</ele>
        <time>2024-04-21T14:01:03.993Z</time>
      </trkpt>
      <trkpt lat="43.02935" lon="1.11047">
        <ele>363.2</ele>
        <time>2024-04-21T14:01:04.993Z</time>
      </trkpt>
      <trkpt lat="43.02939" lon="1.11043">
        <ele>363</ele>
        <time>2024-04-21T14:01:05.993Z</time>
      </trkpt>
      <trkpt lat="43.02944" lon="1.11039">
        <ele>363</ele>
        <time>2024-04-21T14:01:06.993Z</time>
      </trkpt>
      <trkpt lat="43.02949" lon="1.11035">
        <ele>363</ele>
        <time>2024-04-21T14:01:07.993Z</time>
      </trkpt>
      <trkpt lat="43.02953" lon="1.11031">
        <ele>362.8</ele>
        <time>2024-04-21T14:01:08.993Z</time>
      </trkpt>
      <trkpt lat="43.02958" lon="1.11026">
        <ele>362.8</ele>
        <time>2024-04-21T14:01:09.993Z</time>
      </trkpt>
      <trkpt lat="43.02962" lon="1.11023">
        <ele>362.8</ele>
        <time>2024-04-21T14:01:10.993Z</time>
      </trkpt>
      <trkpt lat="43.02967" lon="1.11018">
        <ele>362.4</ele>
        <time>2024-04-21T14:01:11.993Z</time>
      </trkpt>
      <trkpt lat="43.02972" lon="1.11015">
        <ele>362.4</ele>
        <time>2024-04-21T14:01:12.993Z</time>
      </trkpt>
      <trkpt lat="43.02977" lon="1.11012">
        <ele>362.4</ele>
        <time>2024-04-21T14:01:13.993Z</time>
      </trkpt>
      <trkpt lat="43.02982" lon="1.11008">
        <ele>362.2</ele>
        <time>2024-04-21T14:01:14.993Z</time>
      </trkpt>
      <trkpt lat="43.02987" lon="1.11004">
        <ele>362.2</ele>
        <time>2024-04-21T14:01:15.993Z</time>
      </trkpt>
      <trkpt lat="43.02991" lon="1.11001">
        <ele>362.2</ele>
        <time>2024-04-21T14:01:16.993Z</time>
      </trkpt>
      <trkpt lat="43.02996" lon="1.10998">
        <ele>362.2</ele>
        <time>2024-04-21T14:01:17.993Z</time>
      </trkpt>
      <trkpt lat="43.03" lon="1.10994">
        <ele>362.2</ele>
        <time>2024-04-21T14:01:18.993Z</time>
      </trkpt>
      <trkpt lat="43.03005" lon="1.10991">
        <ele>362.2</ele>
        <time>2024-04-21T14:01:19.993Z</time>
      </trkpt>
      <trkpt lat="43.0301" lon="1.10987">
        <ele>361.8</ele>
        <time>2024-04-21T14:01:20.993Z</time>
      </trkpt>
      <trkpt lat="43.03015" lon="1.10983">
        <ele>361.8</ele>
        <time>2024-04-21T14:01:21.993Z</time>
      </trkpt>
      <trkpt lat="43.03019" lon="1.1098">
        <ele>361.8</ele>
        <time>2024-04-21T14:01:22.993Z</time>
      </trkpt>
      <trkpt lat="43.03024" lon="1.10977">
        <ele>361.8</ele>
        <time>2024-04-21T14:01:23.993Z</time>
      </trkpt>
      <trkpt lat="43.03029" lon="1.10975">
        <ele>362.2</ele>
        <time>2024-04-21T14:01:24.993Z</time>
      </trkpt>
      <trkpt lat="43.03034" lon="1.10972">
        <ele>362.2</ele>
        <time>2024-04-21T14:01:25.993Z</time>
      </trkpt>
      <trkpt lat="43.03038" lon="1.10968">
        <ele>362.2</ele>
        <time>2024-04-21T14:01:26.993Z</time>
      </trkpt>
      <trkpt lat="43.03043" lon="1.10965">
        <ele>362.2</ele>
        <time>2024-04-21T14:01:27.993Z</time>
      </trkpt>
      <trkpt lat="43.03047" lon="1.10962">
        <ele>362</ele>
        <time>2024-04-21T14:01:28.993Z</time>
      </trkpt>
      <trkpt lat="43.03052" lon="1.10959">
        <ele>362</ele>
        <time>2024-04-21T14:01:29.993Z</time>
      </trkpt>
      <trkpt lat="43.03057" lon="1.10956">
        <ele>362</ele>
        <time>2024-04-21T14:01:30.993Z</time>
      </trkpt>
      <trkpt lat="43.03061" lon="1.10953">
        <ele>362</ele>
        <time>2024-04-21T14:01:31.993Z</time>
      </trkpt>
      <trkpt lat="43.03066" lon="1.1095">
        <ele>362</ele>
        <time>2024-04-21T14:01:32.993Z</time>
      </trkpt>
      <trkpt lat="43.03071" lon="1.10947">
        <ele>362</ele>
        <time>2024-04-21T14:01:33.993Z</time>
      </trkpt>
      <trkpt lat="43.03075" lon="1.10944">
        <ele>362</ele>
        <time>2024-04-21T14:01:34.993Z</time>
      </trkpt>
      <trkpt lat="43.0308" lon="1.1094">
        <ele>362</ele>
        <time>2024-04-21T14:01:35.993Z</time>
      </trkpt>
      <trkpt lat="43.03085" lon="1.10937">
        <ele>362</ele>
        <time>2024-04-21T14:01:36.993Z</time>
      </trkpt>
      <trkpt lat="43.0309" lon="1.10933">
        <ele>362</ele>
        <time>2024-04-21T14:01:37.993Z</time>
      </trkpt>
      <trkpt lat="43.03094" lon="1.1093">
        <ele>362</ele>
        <time>2024-04-21T14:01:38.993Z</time>
      </trkpt>
      <trkpt lat="43.03099" lon="1.10927">
        <ele>362</ele>
        <time>2024-04-21T14:01:39.993Z</time>
      </trkpt>
      <trkpt lat="43.03103" lon="1.10924">
        <ele>362</ele>
        <time>2024-04-21T14:01:40.993Z</time>
      </trkpt>
      <trkpt lat="43.03108" lon="1.10921">
        <ele>362</ele>
        <time>2024-04-21T14:01:41.993Z</time>
      </trkpt>
      <trkpt lat="43.03112" lon="1.10918">
        <ele>362</ele>
        <time>2024-04-21T14:01:42.993Z</time>
      </trkpt>
      <trkpt lat="43.03117" lon="1.10915">
        <ele>361.6</ele>
        <time>2024-04-21T14:01:43.993Z</time>
      </trkpt>
      <trkpt lat="43.03122" lon="1.10912">
        <ele>361.6</ele>
        <time>2024-04-21T14:01:44.993Z</time>
      </trkpt>
      <trkpt lat="43.03127" lon="1.10908">
        <ele>361.6</ele>
        <time>2024-04-21T14:01:45.993Z</time>
      </trkpt>
      <trkpt lat="43.03131" lon="1.10905">
        <ele>361.6</ele>
        <time>2024-04-21T14:01:46.993Z</time>
      </trkpt>
      <trkpt lat="43.03136" lon="1.10902">
        <ele>361.6</ele>
        <time>2024-04-21T14:01:47.993Z</time>
      </trkpt>
      <trkpt lat="43.03141" lon="1.10899">
        <ele>361.6</ele>
        <time>2024-04-21T14:01:48.993Z</time>
      </trkpt>
      <trkpt lat="43.03146" lon="1.10896">
        <ele>362</ele>
        <time>2024-04-21T14:01:49.993Z</time>
      </trkpt>
      <trkpt lat="43.03151" lon="1.10892">
        <ele>362</ele>
        <time>2024-04-21T14:01:50.993Z</time>
      </trkpt>
      <trkpt lat="43.03155" lon="1.10889">
        <ele>362</ele>
        <time>2024-04-21T14:01:51.993Z</time>
      </trkpt>
      <trkpt lat="43.0316" lon="1.10887">
        <ele>362</ele>
        <time>2024-04-21T14:01:52.993Z</time>
      </trkpt>
      <trkpt lat="43.03165" lon="1.10884">
        <ele>362</ele>
        <time>2024-04-21T14:01:53.993Z</time>
      </trkpt>
      <trkpt lat="43.03169" lon="1.1088">
        <ele>362</ele>
        <time>2024-04-21T14:01:54.993Z</time>
      </trkpt>
      <trkpt lat="43.03174" lon="1.10877">
        <ele>362</ele>
        <time>2024-04-21T14:01:55.993Z</time>
      </trkpt>
      <trkpt lat="43.03178" lon="1.10873">
        <ele>362</ele>
        <time>2024-04-21T14:01:56.993Z</time>
      </trkpt>
      <trkpt lat="43.03183" lon="1.10869">
        <ele>361.6</ele>
        <time>2024-04-21T14:01:57.993Z</time>
      </trkpt>
      <trkpt lat="43.03187" lon="1.10865">
        <ele>361.6</ele>
        <time>2024-04-21T14:01:58.993Z</time>
      </trkpt>
      <trkpt lat="43.03193" lon="1.10862">
        <ele>361.6</ele>
        <time>2024-04-21T14:01:59.993Z</time>
      </trkpt>
      <trkpt lat="43.03198" lon="1.10858">
        <ele>361.6</ele>
        <time>2024-04-21T14:02:00.993Z</time>
      </trkpt>
      <trkpt lat="43.03202" lon="1.10854">
        <ele>361.6</ele>
        <time>2024-04-21T14:02:01.993Z</time>
      </trkpt>
      <trkpt lat="43.03206" lon="1.1085">
        <ele>361.6</ele>
        <time>2024-04-21T14:02:02.993Z</time>
      </trkpt>
      <trkpt lat="43.03211" lon="1.10846">
        <ele>361.6</ele>
        <time>2024-04-21T14:02:03.993Z</time>
      </trkpt>
      <trkpt lat="43.03216" lon="1.10843">
        <ele>361.6</ele>
        <time>2024-04-21T14:02:04.993Z</time>
      </trkpt>
      <trkpt lat="43.0322" lon="1.10838">
        <ele>361.6</ele>
        <time>2024-04-21T14:02:05.993Z</time>
      </trkpt>
      <trkpt lat="43.03225" lon="1.10835">
        <ele>361.6</ele>
        <time>2024-04-21T14:02:06.993Z</time>
      </trkpt>
      <trkpt lat="43.0323" lon="1.10832">
        <ele>361.6</ele>
        <time>2024-04-21T14:02:07.993Z</time>
      </trkpt>
      <trkpt lat="43.03235" lon="1.10828">
        <ele>361.6</ele>
        <time>2024-04-21T14:02:08.993Z</time>
      </trkpt>
      <trkpt lat="43.03239" lon="1.10824">
        <ele>361.6</ele>
        <time>2024-04-21T14:02:09.993Z</time>
      </trkpt>
      <trkpt lat="43.03244" lon="1.10821">
        <ele>362</ele>
        <time>2024-04-21T14:02:10.993Z</time>
      </trkpt>
      <trkpt lat="43.03248" lon="1.10818">
        <ele>362</ele>
        <time>2024-04-21T14:02:11.993Z</time>
      </trkpt>
      <trkpt lat="43.03253" lon="1.10813">
        <ele>362</ele>
        <time>2024-04-21T14:02:12.993Z</time>
      </trkpt>
      <trkpt lat="43.03258" lon="1.1081">
        <ele>362</ele>
        <time>2024-04-21T14:02:13.993Z</time>
      </trkpt>
      <trkpt lat="43.03262" lon="1.10806">
        <ele>362</ele>
        <time>2024-04-21T14:02:14.993Z</time>
      </trkpt>
      <trkpt lat="43.03267" lon="1.10802">
        <ele>362</ele>
        <time>2024-04-21T14:02:15.993Z</time>
      </trkpt>
      <trkpt lat="43.03271" lon="1.10799">
        <ele>362</ele>
        <time>2024-04-21T14:02:16.993Z</time>
      </trkpt>
      <trkpt lat="43.03276" lon="1.10796">
        <ele>361.8</ele>
        <time>2024-04-21T14:02:17.993Z</time>
      </trkpt>
      <trkpt lat="43.03281" lon="1.10792">
        <ele>361.8</ele>
        <time>2024-04-21T14:02:18.993Z</time>
      </trkpt>
      <trkpt lat="43.03285" lon="1.10788">
        <ele>361.6</ele>
        <time>2024-04-21T14:02:19.993Z</time>
      </trkpt>
      <trkpt lat="43.0329" lon="1.10784">
        <ele>361.6</ele>
        <time>2024-04-21T14:02:20.993Z</time>
      </trkpt>
      <trkpt lat="43.03294" lon="1.10781">
        <ele>361.6</ele>
        <time>2024-04-21T14:02:21.993Z</time>
      </trkpt>
      <trkpt lat="43.03299" lon="1.10778">
        <ele>361.6</ele>
        <time>2024-04-21T14:02:22.993Z</time>
      </trkpt>
      <trkpt lat="43.03303" lon="1.10774">
        <ele>361.6</ele>
        <time>2024-04-21T14:02:23.993Z</time>
      </trkpt>
      <trkpt lat="43.03308" lon="1.10771">
        <ele>361.6</ele>
        <time>2024-04-21T14:02:24.993Z</time>
      </trkpt>
      <trkpt lat="43.03312" lon="1.10768">
        <ele>361.6</ele>
        <time>2024-04-21T14:02:25.993Z</time>
      </trkpt>
      <trkpt lat="43.03317" lon="1.10764">
        <ele>361.6</ele>
        <time>2024-04-21T14:02:26.993Z</time>
      </trkpt>
      <trkpt lat="43.0332" lon="1.10761">
        <ele>361.6</ele>
        <time>2024-04-21T14:02:27.993Z</time>
      </trkpt>
      <trkpt lat="43.03325" lon="1.10757">
        <ele>361.8</ele>
        <time>2024-04-21T14:02:28.993Z</time>
      </trkpt>
      <trkpt lat="43.03329" lon="1.10753">
        <ele>361.8</ele>
        <time>2024-04-21T14:02:29.993Z</time>
      </trkpt>
      <trkpt lat="43.03333" lon="1.10748">
        <ele>361.8</ele>
        <time>2024-04-21T14:02:30.993Z</time>
      </trkpt>
      <trkpt lat="43.03338" lon="1.10744">
        <ele>361.8</ele>
        <time>2024-04-21T14:02:31.993Z</time>
      </trkpt>
      <trkpt lat="43.03342" lon="1.1074">
        <ele>362</ele>
        <time>2024-04-21T14:02:32.993Z</time>
      </trkpt>
      <trkpt lat="43.03347" lon="1.10735">
        <ele>362</ele>
        <time>2024-04-21T14:02:33.993Z</time>
      </trkpt>
      <trkpt lat="43.03351" lon="1.10731">
        <ele>362</ele>
        <time>2024-04-21T14:02:34.993Z</time>
      </trkpt>
      <trkpt lat="43.03356" lon="1.10727">
        <ele>362</ele>
        <time>2024-04-21T14:02:35.993Z</time>
      </trkpt>
      <trkpt lat="43.0336" lon="1.10722">
        <ele>362</ele>
        <time>2024-04-21T14:02:36.993Z</time>
      </trkpt>
      <trkpt lat="43.03364" lon="1.10717">
        <ele>362.2</ele>
        <time>2024-04-21T14:02:37.993Z</time>
      </trkpt>
      <trkpt lat="43.03369" lon="1.10713">
        <ele>362.2</ele>
        <time>2024-04-21T14:02:38.993Z</time>
      </trkpt>
      <trkpt lat="43.03373" lon="1.10709">
        <ele>362.2</ele>
        <time>2024-04-21T14:02:39.993Z</time>
      </trkpt>
      <trkpt lat="43.03377" lon="1.10704">
        <ele>362.2</ele>
        <time>2024-04-21T14:02:40.993Z</time>
      </trkpt>
      <trkpt lat="43.0338" lon="1.107">
        <ele>362.2</ele>
        <time>2024-04-21T14:02:41.993Z</time>
      </trkpt>
      <trkpt lat="43.03383" lon="1.10694">
        <ele>362.2</ele>
        <time>2024-04-21T14:02:42.993Z</time>
      </trkpt>
      <trkpt lat="43.03387" lon="1.10688">
        <ele>362.2</ele>
        <time>2024-04-21T14:02:43.993Z</time>
      </trkpt>
      <trkpt lat="43.03391" lon="1.10683">
        <ele>362.2</ele>
        <time>2024-04-21T14:02:44.993Z</time>
      </trkpt>
      <trkpt lat="43.03395" lon="1.10678">
        <ele>362.2</ele>
        <time>2024-04-21T14:02:45.993Z</time>
      </trkpt>
      <trkpt lat="43.03398" lon="1.10672">
        <ele>362.2</ele>
        <time>2024-04-21T14:02:46.993Z</time>
      </trkpt>
      <trkpt lat="43.03401" lon="1.10666">
        <ele>362.2</ele>
        <time>2024-04-21T14:02:47.993Z</time>
      </trkpt>
      <trkpt lat="43.03405" lon="1.1066">
        <ele>362.2</ele>
        <time>2024-04-21T14:02:48.993Z</time>
      </trkpt>
      <trkpt lat="43.03408" lon="1.10655">
        <ele>362.2</ele>
        <time>2024-04-21T14:02:49.993Z</time>
      </trkpt>
      <trkpt lat="43.03411" lon="1.1065">
        <ele>362.2</ele>
        <time>2024-04-21T14:02:50.993Z</time>
      </trkpt>
      <trkpt lat="43.03414" lon="1.10645">
        <ele>362.6</ele>
        <time>2024-04-21T14:02:51.993Z</time>
      </trkpt>
      <trkpt lat="43.03418" lon="1.1064">
        <ele>362.6</ele>
        <time>2024-04-21T14:02:52.993Z</time>
      </trkpt>
      <trkpt lat="43.03421" lon="1.10635">
        <ele>362.6</ele>
        <time>2024-04-21T14:02:53.993Z</time>
      </trkpt>
      <trkpt lat="43.03424" lon="1.1063">
        <ele>362.4</ele>
        <time>2024-04-21T14:02:54.993Z</time>
      </trkpt>
      <trkpt lat="43.03427" lon="1.10625">
        <ele>362.4</ele>
        <time>2024-04-21T14:02:55.993Z</time>
      </trkpt>
      <trkpt lat="43.0343" lon="1.10618">
        <ele>362</ele>
        <time>2024-04-21T14:02:56.993Z</time>
      </trkpt>
      <trkpt lat="43.03433" lon="1.10613">
        <ele>362</ele>
        <time>2024-04-21T14:02:57.993Z</time>
      </trkpt>
      <trkpt lat="43.03437" lon="1.10609">
        <ele>362.4</ele>
        <time>2024-04-21T14:02:58.993Z</time>
      </trkpt>
      <trkpt lat="43.03441" lon="1.10604">
        <ele>362.2</ele>
        <time>2024-04-21T14:02:59.993Z</time>
      </trkpt>
      <trkpt lat="43.03444" lon="1.10598">
        <ele>362.2</ele>
        <time>2024-04-21T14:03:00.993Z</time>
      </trkpt>
      <trkpt lat="43.03448" lon="1.10592">
        <ele>362.2</ele>
        <time>2024-04-21T14:03:01.993Z</time>
      </trkpt>
      <trkpt lat="43.03451" lon="1.10587">
        <ele>362.2</ele>
        <time>2024-04-21T14:03:02.993Z</time>
      </trkpt>
      <trkpt lat="43.03454" lon="1.10582">
        <ele>361.8</ele>
        <time>2024-04-21T14:03:03.993Z</time>
      </trkpt>
      <trkpt lat="43.03458" lon="1.10577">
        <ele>361.8</ele>
        <time>2024-04-21T14:03:04.993Z</time>
      </trkpt>
      <trkpt lat="43.03461" lon="1.10573">
        <ele>361.8</ele>
        <time>2024-04-21T14:03:05.993Z</time>
      </trkpt>
      <trkpt lat="43.03464" lon="1.10567">
        <ele>361.8</ele>
        <time>2024-04-21T14:03:06.993Z</time>
      </trkpt>
      <trkpt lat="43.03468" lon="1.10563">
        <ele>361.8</ele>
        <time>2024-04-21T14:03:07.993Z</time>
      </trkpt>
      <trkpt lat="43.03471" lon="1.10557">
        <ele>361.8</ele>
        <time>2024-04-21T14:03:08.993Z</time>
      </trkpt>
      <trkpt lat="43.03475" lon="1.10552">
        <ele>361.8</ele>
        <time>2024-04-21T14:03:09.993Z</time>
      </trkpt>
      <trkpt lat="43.03478" lon="1.10547">
        <ele>361.8</ele>
        <time>2024-04-21T14:03:10.993Z</time>
      </trkpt>
      <trkpt lat="43.03481" lon="1.10542">
        <ele>361.8</ele>
        <time>2024-04-21T14:03:11.993Z</time>
      </trkpt>
      <trkpt lat="43.03484" lon="1.10539">
        <ele>361.6</ele>
        <time>2024-04-21T14:03:12.993Z</time>
      </trkpt>
      <trkpt lat="43.03487" lon="1.10534">
        <ele>361.6</ele>
        <time>2024-04-21T14:03:13.993Z</time>
      </trkpt>
      <trkpt lat="43.0349" lon="1.10528">
        <ele>361.6</ele>
        <time>2024-04-21T14:03:14.993Z</time>
      </trkpt>
      <trkpt lat="43.03493" lon="1.10524">
        <ele>362</ele>
        <time>2024-04-21T14:03:15.993Z</time>
      </trkpt>
      <trkpt lat="43.03496" lon="1.10518">
        <ele>362.2</ele>
        <time>2024-04-21T14:03:16.993Z</time>
      </trkpt>
      <trkpt lat="43.03499" lon="1.10512">
        <ele>362.2</ele>
        <time>2024-04-21T14:03:17.993Z</time>
      </trkpt>
      <trkpt lat="43.03502" lon="1.10507">
        <ele>362.8</ele>
        <time>2024-04-21T14:03:18.993Z</time>
      </trkpt>
      <trkpt lat="43.03505" lon="1.105">
        <ele>362.8</ele>
        <time>2024-04-21T14:03:19.993Z</time>
      </trkpt>
      <trkpt lat="43.03508" lon="1.10494">
        <ele>362.4</ele>
        <time>2024-04-21T14:03:20.993Z</time>
      </trkpt>
      <trkpt lat="43.03511" lon="1.10488">
        <ele>362.4</ele>
        <time>2024-04-21T14:03:21.993Z</time>
      </trkpt>
      <trkpt lat="43.03513" lon="1.10481">
        <ele>362.4</ele>
        <time>2024-04-21T14:03:22.993Z</time>
      </trkpt>
      <trkpt lat="43.03516" lon="1.10476">
        <ele>362.4</ele>
        <time>2024-04-21T14:03:23.993Z</time>
      </trkpt>
      <trkpt lat="43.03519" lon="1.10469">
        <ele>362.4</ele>
        <time>2024-04-21T14:03:24.993Z</time>
      </trkpt>
      <trkpt lat="43.03522" lon="1.10463">
        <ele>362.6</ele>
        <time>2024-04-21T14:03:25.993Z</time>
      </trkpt>
      <trkpt lat="43.03525" lon="1.10457">
        <ele>362.6</ele>
        <time>2024-04-21T14:03:26.993Z</time>
      </trkpt>
      <trkpt lat="43.03528" lon="1.10451">
        <ele>362.6</ele>
        <time>2024-04-21T14:03:27.993Z</time>
      </trkpt>
      <trkpt lat="43.0353" lon="1.10444">
        <ele>362.6</ele>
        <time>2024-04-21T14:03:28.993Z</time>
      </trkpt>
      <trkpt lat="43.03533" lon="1.10439">
        <ele>362.6</ele>
        <time>2024-04-21T14:03:29.993Z</time>
      </trkpt>
      <trkpt lat="43.03535" lon="1.10432">
        <ele>362.6</ele>
        <time>2024-04-21T14:03:30.993Z</time>
      </trkpt>
      <trkpt lat="43.03538" lon="1.10426">
        <ele>362.6</ele>
        <time>2024-04-21T14:03:31.993Z</time>
      </trkpt>
      <trkpt lat="43.03541" lon="1.1042">
        <ele>363</ele>
        <time>2024-04-21T14:03:32.993Z</time>
      </trkpt>
      <trkpt lat="43.03544" lon="1.10415">
        <ele>363</ele>
        <time>2024-04-21T14:03:33.993Z</time>
      </trkpt>
      <trkpt lat="43.03546" lon="1.10409">
        <ele>363</ele>
        <time>2024-04-21T14:03:34.993Z</time>
      </trkpt>
      <trkpt lat="43.03549" lon="1.10403">
        <ele>363</ele>
        <time>2024-04-21T14:03:35.993Z</time>
      </trkpt>
      <trkpt lat="43.03551" lon="1.10397">
        <ele>363</ele>
        <time>2024-04-21T14:03:36.993Z</time>
      </trkpt>
      <trkpt lat="43.03554" lon="1.10391">
        <ele>363</ele>
        <time>2024-04-21T14:03:37.993Z</time>
      </trkpt>
      <trkpt lat="43.03556" lon="1.10385">
        <ele>363</ele>
        <time>2024-04-21T14:03:38.993Z</time>
      </trkpt>
      <trkpt lat="43.03559" lon="1.1038">
        <ele>363</ele>
        <time>2024-04-21T14:03:39.993Z</time>
      </trkpt>
      <trkpt lat="43.03562" lon="1.10374">
        <ele>363.2</ele>
        <time>2024-04-21T14:03:40.993Z</time>
      </trkpt>
      <trkpt lat="43.03564" lon="1.10369">
        <ele>363.2</ele>
        <time>2024-04-21T14:03:41.993Z</time>
      </trkpt>
      <trkpt lat="43.03567" lon="1.10363">
        <ele>363.2</ele>
        <time>2024-04-21T14:03:42.993Z</time>
      </trkpt>
      <trkpt lat="43.0357" lon="1.10357">
        <ele>363.2</ele>
        <time>2024-04-21T14:03:43.993Z</time>
      </trkpt>
      <trkpt lat="43.03572" lon="1.10352">
        <ele>363</ele>
        <time>2024-04-21T14:03:44.993Z</time>
      </trkpt>
      <trkpt lat="43.03575" lon="1.10345">
        <ele>363</ele>
        <time>2024-04-21T14:03:45.993Z</time>
      </trkpt>
      <trkpt lat="43.03577" lon="1.10339">
        <ele>363</ele>
        <time>2024-04-21T14:03:46.993Z</time>
      </trkpt>
      <trkpt lat="43.0358" lon="1.10333">
        <ele>363</ele>
        <time>2024-04-21T14:03:47.993Z</time>
      </trkpt>
      <trkpt lat="43.03582" lon="1.10327">
        <ele>363.2</ele>
        <time>2024-04-21T14:03:48.993Z</time>
      </trkpt>
      <trkpt lat="43.03584" lon="1.10321">
        <ele>363.2</ele>
        <time>2024-04-21T14:03:49.993Z</time>
      </trkpt>
      <trkpt lat="43.03587" lon="1.10314">
        <ele>363.2</ele>
        <time>2024-04-21T14:03:50.993Z</time>
      </trkpt>
      <trkpt lat="43.0359" lon="1.10308">
        <ele>363.4</ele>
        <time>2024-04-21T14:03:51.993Z</time>
      </trkpt>
      <trkpt lat="43.03593" lon="1.10303">
        <ele>363.4</ele>
        <time>2024-04-21T14:03:52.993Z</time>
      </trkpt>
      <trkpt lat="43.03596" lon="1.10297">
        <ele>363.4</ele>
        <time>2024-04-21T14:03:53.993Z</time>
      </trkpt>
      <trkpt lat="43.03598" lon="1.1029">
        <ele>363.4</ele>
        <time>2024-04-21T14:03:54.993Z</time>
      </trkpt>
      <trkpt lat="43.03599" lon="1.10284">
        <ele>363.4</ele>
        <time>2024-04-21T14:03:55.993Z</time>
      </trkpt>
      <trkpt lat="43.03602" lon="1.10278">
        <ele>363.4</ele>
        <time>2024-04-21T14:03:56.993Z</time>
      </trkpt>
      <trkpt lat="43.03604" lon="1.10272">
        <ele>363.4</ele>
        <time>2024-04-21T14:03:57.993Z</time>
      </trkpt>
      <trkpt lat="43.03605" lon="1.10266">
        <ele>363.6</ele>
        <time>2024-04-21T14:03:58.993Z</time>
      </trkpt>
      <trkpt lat="43.03606" lon="1.10259">
        <ele>363.6</ele>
        <time>2024-04-21T14:03:59.993Z</time>
      </trkpt>
      <trkpt lat="43.03607" lon="1.10252">
        <ele>363.4</ele>
        <time>2024-04-21T14:04:00.993Z</time>
      </trkpt>
      <trkpt lat="43.03608" lon="1.10246">
        <ele>363.4</ele>
        <time>2024-04-21T14:04:01.993Z</time>
      </trkpt>
      <trkpt lat="43.03608" lon="1.10239">
        <ele>363.4</ele>
        <time>2024-04-21T14:04:02.993Z</time>
      </trkpt>
      <trkpt lat="43.03609" lon="1.10231">
        <ele>363.4</ele>
        <time>2024-04-21T14:04:03.993Z</time>
      </trkpt>
      <trkpt lat="43.0361" lon="1.10225">
        <ele>363.4</ele>
        <time>2024-04-21T14:04:04.993Z</time>
      </trkpt>
      <trkpt lat="43.0361" lon="1.10218">
        <ele>363.4</ele>
        <time>2024-04-21T14:04:05.993Z</time>
      </trkpt>
      <trkpt lat="43.03611" lon="1.10211">
        <ele>363.2</ele>
        <time>2024-04-21T14:04:06.993Z</time>
      </trkpt>
      <trkpt lat="43.03612" lon="1.10203">
        <ele>363.2</ele>
        <time>2024-04-21T14:04:07.993Z</time>
      </trkpt>
      <trkpt lat="43.03613" lon="1.10196">
        <ele>363.2</ele>
        <time>2024-04-21T14:04:08.993Z</time>
      </trkpt>
      <trkpt lat="43.03615" lon="1.1019">
        <ele>363.2</ele>
        <time>2024-04-21T14:04:09.993Z</time>
      </trkpt>
      <trkpt lat="43.03617" lon="1.10183">
        <ele>363.2</ele>
        <time>2024-04-21T14:04:10.993Z</time>
      </trkpt>
      <trkpt lat="43.03619" lon="1.10176">
        <ele>363</ele>
        <time>2024-04-21T14:04:11.993Z</time>
      </trkpt>
      <trkpt lat="43.03621" lon="1.10169">
        <ele>363</ele>
        <time>2024-04-21T14:04:12.993Z</time>
      </trkpt>
      <trkpt lat="43.03623" lon="1.10163">
        <ele>363</ele>
        <time>2024-04-21T14:04:13.993Z</time>
      </trkpt>
      <trkpt lat="43.03626" lon="1.10158">
        <ele>363</ele>
        <time>2024-04-21T14:04:14.993Z</time>
      </trkpt>
      <trkpt lat="43.03629" lon="1.10152">
        <ele>363</ele>
        <time>2024-04-21T14:04:15.993Z</time>
      </trkpt>
      <trkpt lat="43.03632" lon="1.10146">
        <ele>363</ele>
        <time>2024-04-21T14:04:16.993Z</time>
      </trkpt>
      <trkpt lat="43.03636" lon="1.10141">
        <ele>363</ele>
        <time>2024-04-21T14:04:17.993Z</time>
      </trkpt>
      <trkpt lat="43.03639" lon="1.10136">
        <ele>363</ele>
        <time>2024-04-21T14:04:18.993Z</time>
      </trkpt>
      <trkpt lat="43.03642" lon="1.10131">
        <ele>363</ele>
        <time>2024-04-21T14:04:19.993Z</time>
      </trkpt>
      <trkpt lat="43.03646" lon="1.10127">
        <ele>363</ele>
        <time>2024-04-21T14:04:20.993Z</time>
      </trkpt>
      <trkpt lat="43.0365" lon="1.10124">
        <ele>363</ele>
        <time>2024-04-21T14:04:21.993Z</time>
      </trkpt>
      <trkpt lat="43.03655" lon="1.10123">
        <ele>363.2</ele>
        <time>2024-04-21T14:04:22.993Z</time>
      </trkpt>
      <trkpt lat="43.03659" lon="1.10122">
        <ele>363.2</ele>
        <time>2024-04-21T14:04:23.993Z</time>
      </trkpt>
      <trkpt lat="43.03662" lon="1.10121">
        <ele>363.2</ele>
        <time>2024-04-21T14:04:24.993Z</time>
      </trkpt>
      <trkpt lat="43.03667" lon="1.10122">
        <ele>363.2</ele>
        <time>2024-04-21T14:04:25.993Z</time>
      </trkpt>
      <trkpt lat="43.03667" lon="1.10122">
        <ele>363.2</ele>
        <time>2024-04-21T14:04:26.993Z</time>
      </trkpt>
      <trkpt lat="43.03671" lon="1.10123">
        <ele>363.2</ele>
        <time>2024-04-21T14:04:27.993Z</time>
      </trkpt>
      <trkpt lat="43.03674" lon="1.10124">
        <ele>363.2</ele>
        <time>2024-04-21T14:04:28.993Z</time>
      </trkpt>
      <trkpt lat="43.03678" lon="1.10124">
        <ele>363.2</ele>
        <time>2024-04-21T14:04:29.993Z</time>
      </trkpt>
      <trkpt lat="43.03681" lon="1.10124">
        <ele>363.2</ele>
        <time>2024-04-21T14:04:30.993Z</time>
      </trkpt>
      <trkpt lat="43.03685" lon="1.10125">
        <ele>363.4</ele>
        <time>2024-04-21T14:04:31.993Z</time>
      </trkpt>
      <trkpt lat="43.03688" lon="1.10125">
        <ele>363.4</ele>
        <time>2024-04-21T14:04:32.993Z</time>
      </trkpt>
      <trkpt lat="43.03692" lon="1.10124">
        <ele>363.8</ele>
        <time>2024-04-21T14:04:33.993Z</time>
      </trkpt>
      <trkpt lat="43.03695" lon="1.10122">
        <ele>363.8</ele>
        <time>2024-04-21T14:04:34.993Z</time>
      </trkpt>
      <trkpt lat="43.03698" lon="1.10119">
        <ele>363.8</ele>
        <time>2024-04-21T14:04:35.993Z</time>
      </trkpt>
      <trkpt lat="43.03699" lon="1.10114">
        <ele>363.6</ele>
        <time>2024-04-21T14:04:36.993Z</time>
      </trkpt>
      <trkpt lat="43.037" lon="1.10109">
        <ele>363.6</ele>
        <time>2024-04-21T14:04:37.993Z</time>
      </trkpt>
      <trkpt lat="43.037" lon="1.10103">
        <ele>363.6</ele>
        <time>2024-04-21T14:04:38.993Z</time>
      </trkpt>
      <trkpt lat="43.03699" lon="1.10095">
        <ele>363.6</ele>
        <time>2024-04-21T14:04:39.993Z</time>
      </trkpt>
      <trkpt lat="43.03699" lon="1.10089">
        <ele>363.2</ele>
        <time>2024-04-21T14:04:40.993Z</time>
      </trkpt>
      <trkpt lat="43.03699" lon="1.10083">
        <ele>363.2</ele>
        <time>2024-04-21T14:04:41.993Z</time>
      </trkpt>
      <trkpt lat="43.037" lon="1.10077">
        <ele>363.2</ele>
        <time>2024-04-21T14:04:42.993Z</time>
      </trkpt>
      <trkpt lat="43.03701" lon="1.10071">
        <ele>362.8</ele>
        <time>2024-04-21T14:04:43.993Z</time>
      </trkpt>
      <trkpt lat="43.03701" lon="1.10065">
        <ele>362.8</ele>
        <time>2024-04-21T14:04:44.993Z</time>
      </trkpt>
      <trkpt lat="43.03701" lon="1.10058">
        <ele>362.6</ele>
        <time>2024-04-21T14:04:45.993Z</time>
      </trkpt>
      <trkpt lat="43.03702" lon="1.10052">
        <ele>362.6</ele>
        <time>2024-04-21T14:04:46.993Z</time>
      </trkpt>
      <trkpt lat="43.03702" lon="1.10045">
        <ele>362.2</ele>
        <time>2024-04-21T14:04:47.993Z</time>
      </trkpt>
      <trkpt lat="43.03703" lon="1.10038">
        <ele>362.2</ele>
        <time>2024-04-21T14:04:48.993Z</time>
      </trkpt>
      <trkpt lat="43.03703" lon="1.10031">
        <ele>362</ele>
        <time>2024-04-21T14:04:49.993Z</time>
      </trkpt>
      <trkpt lat="43.03704" lon="1.10025">
        <ele>362</ele>
        <time>2024-04-21T14:04:50.993Z</time>
      </trkpt>
      <trkpt lat="43.03704" lon="1.10018">
        <ele>361.6</ele>
        <time>2024-04-21T14:04:51.993Z</time>
      </trkpt>
      <trkpt lat="43.03704" lon="1.1001">
        <ele>361.6</ele>
        <time>2024-04-21T14:04:52.993Z</time>
      </trkpt>
      <trkpt lat="43.03705" lon="1.10003">
        <ele>361.6</ele>
        <time>2024-04-21T14:04:53.993Z</time>
      </trkpt>
      <trkpt lat="43.03705" lon="1.09996">
        <ele>361.6</ele>
        <time>2024-04-21T14:04:54.993Z</time>
      </trkpt>
      <trkpt lat="43.03706" lon="1.0999">
        <ele>361.4</ele>
        <time>2024-04-21T14:04:55.993Z</time>
      </trkpt>
      <trkpt lat="43.03706" lon="1.09975">
        <ele>361.4</ele>
        <time>2024-04-21T14:04:56.993Z</time>
      </trkpt>
      <trkpt lat="43.03706" lon="1.09968">
        <ele>361.4</ele>
        <time>2024-04-21T14:04:57.993Z</time>
      </trkpt>
      <trkpt lat="43.03705" lon="1.0996">
        <ele>361</ele>
        <time>2024-04-21T14:04:58.993Z</time>
      </trkpt>
      <trkpt lat="43.03705" lon="1.09952">
        <ele>361</ele>
        <time>2024-04-21T14:04:59.993Z</time>
      </trkpt>
      <trkpt lat="43.03706" lon="1.09944">
        <ele>360.6</ele>
        <time>2024-04-21T14:05:00.993Z</time>
      </trkpt>
      <trkpt lat="43.03707" lon="1.09936">
        <ele>360.4</ele>
        <time>2024-04-21T14:05:01.993Z</time>
      </trkpt>
      <trkpt lat="43.03708" lon="1.09929">
        <ele>360.4</ele>
        <time>2024-04-21T14:05:02.993Z</time>
      </trkpt>
      <trkpt lat="43.0371" lon="1.09921">
        <ele>360.2</ele>
        <time>2024-04-21T14:05:03.993Z</time>
      </trkpt>
      <trkpt lat="43.03713" lon="1.09914">
        <ele>359.8</ele>
        <time>2024-04-21T14:05:04.993Z</time>
      </trkpt>
      <trkpt lat="43.03715" lon="1.09907">
        <ele>359.8</ele>
        <time>2024-04-21T14:05:05.993Z</time>
      </trkpt>
      <trkpt lat="43.03718" lon="1.099">
        <ele>359.8</ele>
        <time>2024-04-21T14:05:06.993Z</time>
      </trkpt>
      <trkpt lat="43.0372" lon="1.09893">
        <ele>359.8</ele>
        <time>2024-04-21T14:05:07.993Z</time>
      </trkpt>
      <trkpt lat="43.03722" lon="1.09887">
        <ele>359.8</ele>
        <time>2024-04-21T14:05:08.993Z</time>
      </trkpt>
      <trkpt lat="43.03724" lon="1.0988">
        <ele>359.6</ele>
        <time>2024-04-21T14:05:09.993Z</time>
      </trkpt>
      <trkpt lat="43.03726" lon="1.09874">
        <ele>359.6</ele>
        <time>2024-04-21T14:05:10.993Z</time>
      </trkpt>
      <trkpt lat="43.03729" lon="1.09867">
        <ele>359.2</ele>
        <time>2024-04-21T14:05:11.993Z</time>
      </trkpt>
      <trkpt lat="43.03731" lon="1.09861">
        <ele>359.2</ele>
        <time>2024-04-21T14:05:12.993Z</time>
      </trkpt>
      <trkpt lat="43.03733" lon="1.09854">
        <ele>359.2</ele>
        <time>2024-04-21T14:05:13.993Z</time>
      </trkpt>
      <trkpt lat="43.03735" lon="1.09847">
        <ele>359.2</ele>
        <time>2024-04-21T14:05:14.993Z</time>
      </trkpt>
      <trkpt lat="43.03737" lon="1.09841">
        <ele>359</ele>
        <time>2024-04-21T14:05:15.993Z</time>
      </trkpt>
      <trkpt lat="43.03739" lon="1.09835">
        <ele>358.6</ele>
        <time>2024-04-21T14:05:16.993Z</time>
      </trkpt>
      <trkpt lat="43.03741" lon="1.09828">
        <ele>358.6</ele>
        <time>2024-04-21T14:05:17.993Z</time>
      </trkpt>
      <trkpt lat="43.03743" lon="1.09821">
        <ele>358.4</ele>
        <time>2024-04-21T14:05:18.993Z</time>
      </trkpt>
      <trkpt lat="43.03745" lon="1.09814">
        <ele>358.4</ele>
        <time>2024-04-21T14:05:19.993Z</time>
      </trkpt>
      <trkpt lat="43.03747" lon="1.09808">
        <ele>358.4</ele>
        <time>2024-04-21T14:05:20.993Z</time>
      </trkpt>
      <trkpt lat="43.03748" lon="1.09801">
        <ele>358.4</ele>
        <time>2024-04-21T14:05:21.993Z</time>
      </trkpt>
      <trkpt lat="43.03751" lon="1.09796">
        <ele>358.4</ele>
        <time>2024-04-21T14:05:22.993Z</time>
      </trkpt>
      <trkpt lat="43.03753" lon="1.0979">
        <ele>358.4</ele>
        <time>2024-04-21T14:05:23.993Z</time>
      </trkpt>
      <trkpt lat="43.03754" lon="1.09784">
        <ele>358.2</ele>
        <time>2024-04-21T14:05:24.993Z</time>
      </trkpt>
      <trkpt lat="43.03756" lon="1.09778">
        <ele>358.2</ele>
        <time>2024-04-21T14:05:25.993Z</time>
      </trkpt>
      <trkpt lat="43.03758" lon="1.09772">
        <ele>358.2</ele>
        <time>2024-04-21T14:05:26.993Z</time>
      </trkpt>
      <trkpt lat="43.03761" lon="1.09766">
        <ele>358.2</ele>
        <time>2024-04-21T14:05:27.993Z</time>
      </trkpt>
      <trkpt lat="43.03763" lon="1.0976">
        <ele>358.4</ele>
        <time>2024-04-21T14:05:28.993Z</time>
      </trkpt>
      <trkpt lat="43.03765" lon="1.09753">
        <ele>358.4</ele>
        <time>2024-04-21T14:05:29.993Z</time>
      </trkpt>
      <trkpt lat="43.03767" lon="1.09747">
        <ele>358.4</ele>
        <time>2024-04-21T14:05:30.993Z</time>
      </trkpt>
      <trkpt lat="43.03769" lon="1.09741">
        <ele>358.4</ele>
        <time>2024-04-21T14:05:31.993Z</time>
      </trkpt>
      <trkpt lat="43.03771" lon="1.09735">
        <ele>358.4</ele>
        <time>2024-04-21T14:05:32.993Z</time>
      </trkpt>
      <trkpt lat="43.03773" lon="1.09729">
        <ele>358.4</ele>
        <time>2024-04-21T14:05:33.993Z</time>
      </trkpt>
      <trkpt lat="43.03774" lon="1.09723">
        <ele>358.4</ele>
        <time>2024-04-21T14:05:34.993Z</time>
      </trkpt>
      <trkpt lat="43.03776" lon="1.09717">
        <ele>358.4</ele>
        <time>2024-04-21T14:05:35.993Z</time>
      </trkpt>
      <trkpt lat="43.03779" lon="1.09711">
        <ele>358.2</ele>
        <time>2024-04-21T14:05:36.993Z</time>
      </trkpt>
      <trkpt lat="43.03781" lon="1.09705">
        <ele>358.2</ele>
        <time>2024-04-21T14:05:37.993Z</time>
      </trkpt>
      <trkpt lat="43.03783" lon="1.09699">
        <ele>358.2</ele>
        <time>2024-04-21T14:05:38.993Z</time>
      </trkpt>
      <trkpt lat="43.03785" lon="1.09693">
        <ele>358.4</ele>
        <time>2024-04-21T14:05:39.993Z</time>
      </trkpt>
      <trkpt lat="43.03787" lon="1.09687">
        <ele>358.4</ele>
        <time>2024-04-21T14:05:40.993Z</time>
      </trkpt>
      <trkpt lat="43.03789" lon="1.09681">
        <ele>358.4</ele>
        <time>2024-04-21T14:05:41.993Z</time>
      </trkpt>
      <trkpt lat="43.03792" lon="1.09674">
        <ele>358</ele>
        <time>2024-04-21T14:05:42.993Z</time>
      </trkpt>
      <trkpt lat="43.03794" lon="1.09669">
        <ele>358</ele>
        <time>2024-04-21T14:05:43.993Z</time>
      </trkpt>
      <trkpt lat="43.03796" lon="1.09663">
        <ele>358</ele>
        <time>2024-04-21T14:05:44.993Z</time>
      </trkpt>
      <trkpt lat="43.03798" lon="1.09657">
        <ele>358</ele>
        <time>2024-04-21T14:05:45.993Z</time>
      </trkpt>
      <trkpt lat="43.038" lon="1.09651">
        <ele>358</ele>
        <time>2024-04-21T14:05:46.993Z</time>
      </trkpt>
      <trkpt lat="43.03802" lon="1.09646">
        <ele>358</ele>
        <time>2024-04-21T14:05:47.993Z</time>
      </trkpt>
      <trkpt lat="43.03804" lon="1.09639">
        <ele>358</ele>
        <time>2024-04-21T14:05:48.993Z</time>
      </trkpt>
      <trkpt lat="43.03806" lon="1.09634">
        <ele>358</ele>
        <time>2024-04-21T14:05:49.993Z</time>
      </trkpt>
      <trkpt lat="43.03808" lon="1.09628">
        <ele>358</ele>
        <time>2024-04-21T14:05:50.993Z</time>
      </trkpt>
      <trkpt lat="43.0381" lon="1.09622">
        <ele>358.4</ele>
        <time>2024-04-21T14:05:51.993Z</time>
      </trkpt>
      <trkpt lat="43.03812" lon="1.09616">
        <ele>358.4</ele>
        <time>2024-04-21T14:05:52.993Z</time>
      </trkpt>
      <trkpt lat="43.03813" lon="1.0961">
        <ele>358.4</ele>
        <time>2024-04-21T14:05:53.993Z</time>
      </trkpt>
      <trkpt lat="43.03815" lon="1.09604">
        <ele>358.4</ele>
        <time>2024-04-21T14:05:54.993Z</time>
      </trkpt>
      <trkpt lat="43.03817" lon="1.09598">
        <ele>358.4</ele>
        <time>2024-04-21T14:05:55.993Z</time>
      </trkpt>
      <trkpt lat="43.03818" lon="1.09593">
        <ele>358.4</ele>
        <time>2024-04-21T14:05:56.993Z</time>
      </trkpt>
      <trkpt lat="43.03821" lon="1.09587">
        <ele>358.2</ele>
        <time>2024-04-21T14:05:57.993Z</time>
      </trkpt>
      <trkpt lat="43.03823" lon="1.09582">
        <ele>358.2</ele>
        <time>2024-04-21T14:05:58.993Z</time>
      </trkpt>
      <trkpt lat="43.03825" lon="1.09576">
        <ele>358.2</ele>
        <time>2024-04-21T14:05:59.993Z</time>
      </trkpt>
      <trkpt lat="43.03827" lon="1.0957">
        <ele>358.2</ele>
        <time>2024-04-21T14:06:00.993Z</time>
      </trkpt>
      <trkpt lat="43.03828" lon="1.09564">
        <ele>358</ele>
        <time>2024-04-21T14:06:01.993Z</time>
      </trkpt>
      <trkpt lat="43.0383" lon="1.09558">
        <ele>358</ele>
        <time>2024-04-21T14:06:02.993Z</time>
      </trkpt>
      <trkpt lat="43.03832" lon="1.09552">
        <ele>358</ele>
        <time>2024-04-21T14:06:03.993Z</time>
      </trkpt>
      <trkpt lat="43.03834" lon="1.09547">
        <ele>358</ele>
        <time>2024-04-21T14:06:04.993Z</time>
      </trkpt>
      <trkpt lat="43.03835" lon="1.0954">
        <ele>358</ele>
        <time>2024-04-21T14:06:05.993Z</time>
      </trkpt>
      <trkpt lat="43.03836" lon="1.09534">
        <ele>358</ele>
        <time>2024-04-21T14:06:06.993Z</time>
      </trkpt>
      <trkpt lat="43.03838" lon="1.09528">
        <ele>358</ele>
        <time>2024-04-21T14:06:07.993Z</time>
      </trkpt>
      <trkpt lat="43.03839" lon="1.09521">
        <ele>358</ele>
        <time>2024-04-21T14:06:08.993Z</time>
      </trkpt>
      <trkpt lat="43.0384" lon="1.09515">
        <ele>358</ele>
        <time>2024-04-21T14:06:09.993Z</time>
      </trkpt>
      <trkpt lat="43.03841" lon="1.09509">
        <ele>358</ele>
        <time>2024-04-21T14:06:10.993Z</time>
      </trkpt>
      <trkpt lat="43.03842" lon="1.09503">
        <ele>357.6</ele>
        <time>2024-04-21T14:06:11.993Z</time>
      </trkpt>
      <trkpt lat="43.03843" lon="1.09497">
        <ele>357.6</ele>
        <time>2024-04-21T14:06:12.993Z</time>
      </trkpt>
      <trkpt lat="43.03844" lon="1.09491">
        <ele>357.6</ele>
        <time>2024-04-21T14:06:13.993Z</time>
      </trkpt>
      <trkpt lat="43.03845" lon="1.09484">
        <ele>357.6</ele>
        <time>2024-04-21T14:06:14.993Z</time>
      </trkpt>
      <trkpt lat="43.03845" lon="1.09478">
        <ele>357.6</ele>
        <time>2024-04-21T14:06:15.993Z</time>
      </trkpt>
      <trkpt lat="43.03846" lon="1.09472">
        <ele>357.6</ele>
        <time>2024-04-21T14:06:16.993Z</time>
      </trkpt>
      <trkpt lat="43.03847" lon="1.09465">
        <ele>357.6</ele>
        <time>2024-04-21T14:06:17.993Z</time>
      </trkpt>
      <trkpt lat="43.03848" lon="1.09459">
        <ele>357.6</ele>
        <time>2024-04-21T14:06:18.993Z</time>
      </trkpt>
      <trkpt lat="43.03849" lon="1.09452">
        <ele>358</ele>
        <time>2024-04-21T14:06:19.993Z</time>
      </trkpt>
      <trkpt lat="43.03849" lon="1.09445">
        <ele>358</ele>
        <time>2024-04-21T14:06:20.993Z</time>
      </trkpt>
      <trkpt lat="43.0385" lon="1.09438">
        <ele>358</ele>
        <time>2024-04-21T14:06:21.993Z</time>
      </trkpt>
      <trkpt lat="43.0385" lon="1.09432">
        <ele>357.6</ele>
        <time>2024-04-21T14:06:22.993Z</time>
      </trkpt>
      <trkpt lat="43.03852" lon="1.09425">
        <ele>358</ele>
        <time>2024-04-21T14:06:23.993Z</time>
      </trkpt>
      <trkpt lat="43.03852" lon="1.09419">
        <ele>358</ele>
        <time>2024-04-21T14:06:24.993Z</time>
      </trkpt>
      <trkpt lat="43.03853" lon="1.09412">
        <ele>358</ele>
        <time>2024-04-21T14:06:25.993Z</time>
      </trkpt>
      <trkpt lat="43.03853" lon="1.09405">
        <ele>358</ele>
        <time>2024-04-21T14:06:26.993Z</time>
      </trkpt>
      <trkpt lat="43.03854" lon="1.09398">
        <ele>358</ele>
        <time>2024-04-21T14:06:27.993Z</time>
      </trkpt>
      <trkpt lat="43.03855" lon="1.09391">
        <ele>358</ele>
        <time>2024-04-21T14:06:28.993Z</time>
      </trkpt>
      <trkpt lat="43.03856" lon="1.09384">
        <ele>358</ele>
        <time>2024-04-21T14:06:29.993Z</time>
      </trkpt>
      <trkpt lat="43.03856" lon="1.09377">
        <ele>357.8</ele>
        <time>2024-04-21T14:06:30.993Z</time>
      </trkpt>
      <trkpt lat="43.03857" lon="1.0937">
        <ele>357.8</ele>
        <time>2024-04-21T14:06:31.993Z</time>
      </trkpt>
      <trkpt lat="43.03857" lon="1.09363">
        <ele>357.8</ele>
        <time>2024-04-21T14:06:32.993Z</time>
      </trkpt>
      <trkpt lat="43.03858" lon="1.09356">
        <ele>357.8</ele>
        <time>2024-04-21T14:06:33.993Z</time>
      </trkpt>
      <trkpt lat="43.03859" lon="1.0935">
        <ele>357.8</ele>
        <time>2024-04-21T14:06:34.993Z</time>
      </trkpt>
      <trkpt lat="43.03859" lon="1.09343">
        <ele>357.8</ele>
        <time>2024-04-21T14:06:35.993Z</time>
      </trkpt>
      <trkpt lat="43.0386" lon="1.09337">
        <ele>357.6</ele>
        <time>2024-04-21T14:06:36.993Z</time>
      </trkpt>
      <trkpt lat="43.0386" lon="1.0933">
        <ele>357.6</ele>
        <time>2024-04-21T14:06:37.993Z</time>
      </trkpt>
      <trkpt lat="43.03861" lon="1.09324">
        <ele>357.6</ele>
        <time>2024-04-21T14:06:38.993Z</time>
      </trkpt>
      <trkpt lat="43.03862" lon="1.09317">
        <ele>357.6</ele>
        <time>2024-04-21T14:06:39.993Z</time>
      </trkpt>
      <trkpt lat="43.03863" lon="1.0931">
        <ele>357.6</ele>
        <time>2024-04-21T14:06:40.993Z</time>
      </trkpt>
      <trkpt lat="43.03864" lon="1.09304">
        <ele>357.6</ele>
        <time>2024-04-21T14:06:41.993Z</time>
      </trkpt>
      <trkpt lat="43.03865" lon="1.09298">
        <ele>357.6</ele>
        <time>2024-04-21T14:06:42.993Z</time>
      </trkpt>
      <trkpt lat="43.03866" lon="1.09291">
        <ele>357.6</ele>
        <time>2024-04-21T14:06:43.993Z</time>
      </trkpt>
      <trkpt lat="43.03867" lon="1.09285">
        <ele>357.6</ele>
        <time>2024-04-21T14:06:44.993Z</time>
      </trkpt>
      <trkpt lat="43.03868" lon="1.09279">
        <ele>357.6</ele>
        <time>2024-04-21T14:06:45.993Z</time>
      </trkpt>
      <trkpt lat="43.0387" lon="1.09272">
        <ele>357.6</ele>
        <time>2024-04-21T14:06:46.993Z</time>
      </trkpt>
      <trkpt lat="43.03871" lon="1.09267">
        <ele>357.6</ele>
        <time>2024-04-21T14:06:47.993Z</time>
      </trkpt>
      <trkpt lat="43.03873" lon="1.09262">
        <ele>357.8</ele>
        <time>2024-04-21T14:06:48.993Z</time>
      </trkpt>
      <trkpt lat="43.03874" lon="1.09256">
        <ele>357.8</ele>
        <time>2024-04-21T14:06:49.993Z</time>
      </trkpt>
      <trkpt lat="43.03875" lon="1.0925">
        <ele>357.6</ele>
        <time>2024-04-21T14:06:50.993Z</time>
      </trkpt>
      <trkpt lat="43.03877" lon="1.09244">
        <ele>357.6</ele>
        <time>2024-04-21T14:06:51.993Z</time>
      </trkpt>
      <trkpt lat="43.03878" lon="1.09238">
        <ele>357.6</ele>
        <time>2024-04-21T14:06:52.993Z</time>
      </trkpt>
      <trkpt lat="43.03879" lon="1.09233">
        <ele>357.6</ele>
        <time>2024-04-21T14:06:53.993Z</time>
      </trkpt>
      <trkpt lat="43.0388" lon="1.09228">
        <ele>357.6</ele>
        <time>2024-04-21T14:06:54.993Z</time>
      </trkpt>
      <trkpt lat="43.03881" lon="1.09223">
        <ele>357.8</ele>
        <time>2024-04-21T14:06:55.993Z</time>
      </trkpt>
      <trkpt lat="43.03883" lon="1.09218">
        <ele>357.8</ele>
        <time>2024-04-21T14:06:56.993Z</time>
      </trkpt>
      <trkpt lat="43.03885" lon="1.09213">
        <ele>357.8</ele>
        <time>2024-04-21T14:06:57.993Z</time>
      </trkpt>
      <trkpt lat="43.03887" lon="1.09208">
        <ele>357.8</ele>
        <time>2024-04-21T14:06:58.993Z</time>
      </trkpt>
      <trkpt lat="43.03889" lon="1.09203">
        <ele>357.8</ele>
        <time>2024-04-21T14:06:59.993Z</time>
      </trkpt>
      <trkpt lat="43.0389" lon="1.09198">
        <ele>357.8</ele>
        <time>2024-04-21T14:07:00.993Z</time>
      </trkpt>
      <trkpt lat="43.03893" lon="1.09193">
        <ele>357.8</ele>
        <time>2024-04-21T14:07:01.993Z</time>
      </trkpt>
      <trkpt lat="43.03896" lon="1.09188">
        <ele>357.8</ele>
        <time>2024-04-21T14:07:02.993Z</time>
      </trkpt>
      <trkpt lat="43.03898" lon="1.09182">
        <ele>357.8</ele>
        <time>2024-04-21T14:07:03.993Z</time>
      </trkpt>
      <trkpt lat="43.03901" lon="1.09178">
        <ele>357.8</ele>
        <time>2024-04-21T14:07:04.993Z</time>
      </trkpt>
      <trkpt lat="43.03903" lon="1.09172">
        <ele>357.8</ele>
        <time>2024-04-21T14:07:05.993Z</time>
      </trkpt>
      <trkpt lat="43.03905" lon="1.09166">
        <ele>357.8</ele>
        <time>2024-04-21T14:07:06.993Z</time>
      </trkpt>
      <trkpt lat="43.03907" lon="1.0916">
        <ele>357.8</ele>
        <time>2024-04-21T14:07:07.993Z</time>
      </trkpt>
      <trkpt lat="43.03909" lon="1.09154">
        <ele>357.8</ele>
        <time>2024-04-21T14:07:08.993Z</time>
      </trkpt>
      <trkpt lat="43.03912" lon="1.09148">
        <ele>357.8</ele>
        <time>2024-04-21T14:07:09.993Z</time>
      </trkpt>
      <trkpt lat="43.03914" lon="1.09142">
        <ele>357.6</ele>
        <time>2024-04-21T14:07:10.993Z</time>
      </trkpt>
      <trkpt lat="43.03916" lon="1.09137">
        <ele>357.6</ele>
        <time>2024-04-21T14:07:11.993Z</time>
      </trkpt>
      <trkpt lat="43.03918" lon="1.09131">
        <ele>357.6</ele>
        <time>2024-04-21T14:07:12.993Z</time>
      </trkpt>
      <trkpt lat="43.0392" lon="1.09124">
        <ele>357.6</ele>
        <time>2024-04-21T14:07:13.993Z</time>
      </trkpt>
      <trkpt lat="43.03922" lon="1.09118">
        <ele>357.6</ele>
        <time>2024-04-21T14:07:14.993Z</time>
      </trkpt>
      <trkpt lat="43.03925" lon="1.09111">
        <ele>357.6</ele>
        <time>2024-04-21T14:07:15.993Z</time>
      </trkpt>
      <trkpt lat="43.03927" lon="1.09106">
        <ele>357.6</ele>
        <time>2024-04-21T14:07:16.993Z</time>
      </trkpt>
      <trkpt lat="43.03929" lon="1.09099">
        <ele>357.2</ele>
        <time>2024-04-21T14:07:17.993Z</time>
      </trkpt>
      <trkpt lat="43.03931" lon="1.09093">
        <ele>357.2</ele>
        <time>2024-04-21T14:07:18.993Z</time>
      </trkpt>
      <trkpt lat="43.03933" lon="1.09087">
        <ele>357.2</ele>
        <time>2024-04-21T14:07:19.993Z</time>
      </trkpt>
      <trkpt lat="43.03934" lon="1.0908">
        <ele>357.2</ele>
        <time>2024-04-21T14:07:20.993Z</time>
      </trkpt>
      <trkpt lat="43.03936" lon="1.09074">
        <ele>357.2</ele>
        <time>2024-04-21T14:07:21.993Z</time>
      </trkpt>
      <trkpt lat="43.03937" lon="1.09068">
        <ele>357.2</ele>
        <time>2024-04-21T14:07:22.993Z</time>
      </trkpt>
      <trkpt lat="43.03937" lon="1.09062">
        <ele>357.2</ele>
        <time>2024-04-21T14:07:23.993Z</time>
      </trkpt>
      <trkpt lat="43.03938" lon="1.09055">
        <ele>357.2</ele>
        <time>2024-04-21T14:07:24.993Z</time>
      </trkpt>
      <trkpt lat="43.03939" lon="1.09049">
        <ele>357</ele>
        <time>2024-04-21T14:07:25.993Z</time>
      </trkpt>
      <trkpt lat="43.03939" lon="1.09043">
        <ele>357</ele>
        <time>2024-04-21T14:07:26.993Z</time>
      </trkpt>
      <trkpt lat="43.03938" lon="1.09037">
        <ele>357</ele>
        <time>2024-04-21T14:07:27.993Z</time>
      </trkpt>
      <trkpt lat="43.03939" lon="1.0903">
        <ele>357</ele>
        <time>2024-04-21T14:07:28.993Z</time>
      </trkpt>
      <trkpt lat="43.03938" lon="1.09025">
        <ele>357</ele>
        <time>2024-04-21T14:07:29.993Z</time>
      </trkpt>
      <trkpt lat="43.03937" lon="1.09018">
        <ele>357</ele>
        <time>2024-04-21T14:07:30.993Z</time>
      </trkpt>
      <trkpt lat="43.03937" lon="1.09013">
        <ele>357</ele>
        <time>2024-04-21T14:07:31.993Z</time>
      </trkpt>
      <trkpt lat="43.03936" lon="1.09007">
        <ele>357</ele>
        <time>2024-04-21T14:07:32.993Z</time>
      </trkpt>
      <trkpt lat="43.03936" lon="1.09001">
        <ele>357</ele>
        <time>2024-04-21T14:07:33.993Z</time>
      </trkpt>
      <trkpt lat="43.03935" lon="1.08995">
        <ele>357</ele>
        <time>2024-04-21T14:07:34.993Z</time>
      </trkpt>
      <trkpt lat="43.03934" lon="1.0899">
        <ele>357</ele>
        <time>2024-04-21T14:07:35.993Z</time>
      </trkpt>
      <trkpt lat="43.03933" lon="1.08983">
        <ele>357.4</ele>
        <time>2024-04-21T14:07:36.993Z</time>
      </trkpt>
      <trkpt lat="43.03933" lon="1.08977">
        <ele>357.4</ele>
        <time>2024-04-21T14:07:37.993Z</time>
      </trkpt>
      <trkpt lat="43.03932" lon="1.08971">
        <ele>357.4</ele>
        <time>2024-04-21T14:07:38.993Z</time>
      </trkpt>
      <trkpt lat="43.0393" lon="1.08964">
        <ele>357.4</ele>
        <time>2024-04-21T14:07:39.993Z</time>
      </trkpt>
      <trkpt lat="43.03929" lon="1.08958">
        <ele>357.4</ele>
        <time>2024-04-21T14:07:40.993Z</time>
      </trkpt>
      <trkpt lat="43.03927" lon="1.08952">
        <ele>357.4</ele>
        <time>2024-04-21T14:07:41.993Z</time>
      </trkpt>
      <trkpt lat="43.03924" lon="1.08946">
        <ele>357.4</ele>
        <time>2024-04-21T14:07:42.993Z</time>
      </trkpt>
      <trkpt lat="43.03923" lon="1.08941">
        <ele>357.4</ele>
        <time>2024-04-21T14:07:43.993Z</time>
      </trkpt>
      <trkpt lat="43.03922" lon="1.08935">
        <ele>357.4</ele>
        <time>2024-04-21T14:07:44.993Z</time>
      </trkpt>
      <trkpt lat="43.03921" lon="1.08929">
        <ele>357.4</ele>
        <time>2024-04-21T14:07:45.993Z</time>
      </trkpt>
      <trkpt lat="43.03921" lon="1.08922">
        <ele>357.4</ele>
        <time>2024-04-21T14:07:46.993Z</time>
      </trkpt>
      <trkpt lat="43.0392" lon="1.08917">
        <ele>357.4</ele>
        <time>2024-04-21T14:07:47.993Z</time>
      </trkpt>
      <trkpt lat="43.03921" lon="1.08911">
        <ele>357.4</ele>
        <time>2024-04-21T14:07:48.993Z</time>
      </trkpt>
      <trkpt lat="43.03921" lon="1.08904">
        <ele>357.2</ele>
        <time>2024-04-21T14:07:49.993Z</time>
      </trkpt>
      <trkpt lat="43.0392" lon="1.08898">
        <ele>357.2</ele>
        <time>2024-04-21T14:07:50.993Z</time>
      </trkpt>
      <trkpt lat="43.0392" lon="1.08892">
        <ele>357.2</ele>
        <time>2024-04-21T14:07:51.993Z</time>
      </trkpt>
      <trkpt lat="43.0392" lon="1.08886">
        <ele>357.2</ele>
        <time>2024-04-21T14:07:52.993Z</time>
      </trkpt>
      <trkpt lat="43.03921" lon="1.08879">
        <ele>357.2</ele>
        <time>2024-04-21T14:07:53.993Z</time>
      </trkpt>
      <trkpt lat="43.03921" lon="1.08873">
        <ele>357.6</ele>
        <time>2024-04-21T14:07:54.993Z</time>
      </trkpt>
      <trkpt lat="43.03922" lon="1.08868">
        <ele>357.6</ele>
        <time>2024-04-21T14:07:55.993Z</time>
      </trkpt>
      <trkpt lat="43.03923" lon="1.08862">
        <ele>357.6</ele>
        <time>2024-04-21T14:07:56.993Z</time>
      </trkpt>
      <trkpt lat="43.03925" lon="1.08858">
        <ele>358</ele>
        <time>2024-04-21T14:07:57.993Z</time>
      </trkpt>
      <trkpt lat="43.03926" lon="1.08853">
        <ele>358.2</ele>
        <time>2024-04-21T14:07:58.993Z</time>
      </trkpt>
      <trkpt lat="43.03928" lon="1.0885">
        <ele>358.6</ele>
        <time>2024-04-21T14:07:59.993Z</time>
      </trkpt>
      <trkpt lat="43.0393" lon="1.08845">
        <ele>359</ele>
        <time>2024-04-21T14:08:00.993Z</time>
      </trkpt>
      <trkpt lat="43.03932" lon="1.08841">
        <ele>359.2</ele>
        <time>2024-04-21T14:08:01.993Z</time>
      </trkpt>
      <trkpt lat="43.03934" lon="1.08838">
        <ele>359.2</ele>
        <time>2024-04-21T14:08:02.993Z</time>
      </trkpt>
      <trkpt lat="43.03935" lon="1.08836">
        <ele>359.6</ele>
        <time>2024-04-21T14:08:03.993Z</time>
      </trkpt>
      <trkpt lat="43.03938" lon="1.08833">
        <ele>359.8</ele>
        <time>2024-04-21T14:08:04.993Z</time>
      </trkpt>
      <trkpt lat="43.0394" lon="1.0883">
        <ele>359.8</ele>
        <time>2024-04-21T14:08:05.993Z</time>
      </trkpt>
      <trkpt lat="43.03943" lon="1.08827">
        <ele>360.2</ele>
        <time>2024-04-21T14:08:06.993Z</time>
      </trkpt>
      <trkpt lat="43.03945" lon="1.08824">
        <ele>360.6</ele>
        <time>2024-04-21T14:08:07.993Z</time>
      </trkpt>
      <trkpt lat="43.03948" lon="1.08821">
        <ele>360.6</ele>
        <time>2024-04-21T14:08:08.993Z</time>
      </trkpt>
      <trkpt lat="43.03951" lon="1.08819">
        <ele>361</ele>
        <time>2024-04-21T14:08:09.993Z</time>
      </trkpt>
      <trkpt lat="43.03954" lon="1.08817">
        <ele>361.2</ele>
        <time>2024-04-21T14:08:10.993Z</time>
      </trkpt>
      <trkpt lat="43.03956" lon="1.08814">
        <ele>361.4</ele>
        <time>2024-04-21T14:08:11.993Z</time>
      </trkpt>
      <trkpt lat="43.03959" lon="1.08812">
        <ele>361.8</ele>
        <time>2024-04-21T14:08:12.993Z</time>
      </trkpt>
      <trkpt lat="43.03961" lon="1.08809">
        <ele>362.2</ele>
        <time>2024-04-21T14:08:13.993Z</time>
      </trkpt>
      <trkpt lat="43.03963" lon="1.08807">
        <ele>362.6</ele>
        <time>2024-04-21T14:08:14.993Z</time>
      </trkpt>
      <trkpt lat="43.03966" lon="1.08804">
        <ele>362.8</ele>
        <time>2024-04-21T14:08:15.993Z</time>
      </trkpt>
      <trkpt lat="43.03968" lon="1.08802">
        <ele>362.8</ele>
        <time>2024-04-21T14:08:16.993Z</time>
      </trkpt>
      <trkpt lat="43.03971" lon="1.088">
        <ele>363.2</ele>
        <time>2024-04-21T14:08:17.993Z</time>
      </trkpt>
      <trkpt lat="43.03973" lon="1.08798">
        <ele>363.2</ele>
        <time>2024-04-21T14:08:18.993Z</time>
      </trkpt>
      <trkpt lat="43.03976" lon="1.08795">
        <ele>363.6</ele>
        <time>2024-04-21T14:08:19.993Z</time>
      </trkpt>
      <trkpt lat="43.03978" lon="1.08793">
        <ele>363.8</ele>
        <time>2024-04-21T14:08:20.993Z</time>
      </trkpt>
      <trkpt lat="43.03981" lon="1.08791">
        <ele>363.8</ele>
        <time>2024-04-21T14:08:21.993Z</time>
      </trkpt>
      <trkpt lat="43.03983" lon="1.08788">
        <ele>364.2</ele>
        <time>2024-04-21T14:08:22.993Z</time>
      </trkpt>
      <trkpt lat="43.03985" lon="1.08786">
        <ele>364.2</ele>
        <time>2024-04-21T14:08:23.993Z</time>
      </trkpt>
      <trkpt lat="43.03988" lon="1.08784">
        <ele>364.2</ele>
        <time>2024-04-21T14:08:24.993Z</time>
      </trkpt>
      <trkpt lat="43.0399" lon="1.08782">
        <ele>364.2</ele>
        <time>2024-04-21T14:08:25.993Z</time>
      </trkpt>
      <trkpt lat="43.03992" lon="1.08779">
        <ele>364.4</ele>
        <time>2024-04-21T14:08:26.993Z</time>
      </trkpt>
      <trkpt lat="43.03994" lon="1.08777">
        <ele>364.4</ele>
        <time>2024-04-21T14:08:27.993Z</time>
      </trkpt>
      <trkpt lat="43.03996" lon="1.08775">
        <ele>365</ele>
        <time>2024-04-21T14:08:28.993Z</time>
      </trkpt>
      <trkpt lat="43.03999" lon="1.08773">
        <ele>365.2</ele>
        <time>2024-04-21T14:08:29.993Z</time>
      </trkpt>
      <trkpt lat="43.04001" lon="1.08771">
        <ele>365.4</ele>
        <time>2024-04-21T14:08:30.993Z</time>
      </trkpt>
      <trkpt lat="43.04003" lon="1.08769">
        <ele>365.4</ele>
        <time>2024-04-21T14:08:31.993Z</time>
      </trkpt>
      <trkpt lat="43.04005" lon="1.08767">
        <ele>365.8</ele>
        <time>2024-04-21T14:08:32.993Z</time>
      </trkpt>
      <trkpt lat="43.04008" lon="1.08765">
        <ele>366</ele>
        <time>2024-04-21T14:08:33.993Z</time>
      </trkpt>
      <trkpt lat="43.0401" lon="1.08763">
        <ele>366</ele>
        <time>2024-04-21T14:08:34.993Z</time>
      </trkpt>
      <trkpt lat="43.04013" lon="1.08761">
        <ele>366.2</ele>
        <time>2024-04-21T14:08:35.993Z</time>
      </trkpt>
      <trkpt lat="43.04015" lon="1.08758">
        <ele>366.2</ele>
        <time>2024-04-21T14:08:36.993Z</time>
      </trkpt>
      <trkpt lat="43.04017" lon="1.08756">
        <ele>366.4</ele>
        <time>2024-04-21T14:08:37.993Z</time>
      </trkpt>
      <trkpt lat="43.04019" lon="1.08753">
        <ele>366.4</ele>
        <time>2024-04-21T14:08:38.993Z</time>
      </trkpt>
      <trkpt lat="43.04022" lon="1.08751">
        <ele>366.4</ele>
        <time>2024-04-21T14:08:39.993Z</time>
      </trkpt>
      <trkpt lat="43.04024" lon="1.08748">
        <ele>366.4</ele>
        <time>2024-04-21T14:08:40.993Z</time>
      </trkpt>
      <trkpt lat="43.04026" lon="1.08745">
        <ele>366.8</ele>
        <time>2024-04-21T14:08:41.993Z</time>
      </trkpt>
      <trkpt lat="43.04028" lon="1.08742">
        <ele>366.8</ele>
        <time>2024-04-21T14:08:42.993Z</time>
      </trkpt>
      <trkpt lat="43.0403" lon="1.08738">
        <ele>367.2</ele>
        <time>2024-04-21T14:08:43.993Z</time>
      </trkpt>
      <trkpt lat="43.04031" lon="1.08735">
        <ele>367.2</ele>
        <time>2024-04-21T14:08:44.993Z</time>
      </trkpt>
      <trkpt lat="43.04033" lon="1.08732">
        <ele>367.2</ele>
        <time>2024-04-21T14:08:45.993Z</time>
      </trkpt>
      <trkpt lat="43.04035" lon="1.08729">
        <ele>367.4</ele>
        <time>2024-04-21T14:08:46.993Z</time>
      </trkpt>
      <trkpt lat="43.04037" lon="1.08725">
        <ele>367.8</ele>
        <time>2024-04-21T14:08:47.993Z</time>
      </trkpt>
      <trkpt lat="43.04038" lon="1.08722">
        <ele>367.8</ele>
        <time>2024-04-21T14:08:48.993Z</time>
      </trkpt>
      <trkpt lat="43.04038" lon="1.08722">
        <ele>368</ele>
        <time>2024-04-21T14:08:49.993Z</time>
      </trkpt>
      <trkpt lat="43.0404" lon="1.08719">
        <ele>368.4</ele>
        <time>2024-04-21T14:08:50.993Z</time>
      </trkpt>
      <trkpt lat="43.04041" lon="1.08715">
        <ele>368.6</ele>
        <time>2024-04-21T14:08:51.993Z</time>
      </trkpt>
      <trkpt lat="43.04042" lon="1.08712">
        <ele>368.6</ele>
        <time>2024-04-21T14:08:52.993Z</time>
      </trkpt>
      <trkpt lat="43.04044" lon="1.08709">
        <ele>369</ele>
        <time>2024-04-21T14:08:53.993Z</time>
      </trkpt>
      <trkpt lat="43.04045" lon="1.08706">
        <ele>369</ele>
        <time>2024-04-21T14:08:54.993Z</time>
      </trkpt>
      <trkpt lat="43.04046" lon="1.08702">
        <ele>369</ele>
        <time>2024-04-21T14:08:55.993Z</time>
      </trkpt>
      <trkpt lat="43.04047" lon="1.08699">
        <ele>369.2</ele>
        <time>2024-04-21T14:08:56.993Z</time>
      </trkpt>
      <trkpt lat="43.04048" lon="1.08695">
        <ele>369.2</ele>
        <time>2024-04-21T14:08:57.993Z</time>
      </trkpt>
      <trkpt lat="43.04049" lon="1.08692">
        <ele>369.6</ele>
        <time>2024-04-21T14:08:58.993Z</time>
      </trkpt>
      <trkpt lat="43.0405" lon="1.08688">
        <ele>369.8</ele>
        <time>2024-04-21T14:08:59.993Z</time>
      </trkpt>
      <trkpt lat="43.0405" lon="1.08684">
        <ele>369.8</ele>
        <time>2024-04-21T14:09:00.993Z</time>
      </trkpt>
      <trkpt lat="43.04051" lon="1.08681">
        <ele>370.2</ele>
        <time>2024-04-21T14:09:01.993Z</time>
      </trkpt>
      <trkpt lat="43.04051" lon="1.08677">
        <ele>370.2</ele>
        <time>2024-04-21T14:09:02.993Z</time>
      </trkpt>
      <trkpt lat="43.04051" lon="1.08674">
        <ele>370.6</ele>
        <time>2024-04-21T14:09:03.993Z</time>
      </trkpt>
      <trkpt lat="43.04052" lon="1.0867">
        <ele>370.6</ele>
        <time>2024-04-21T14:09:04.993Z</time>
      </trkpt>
      <trkpt lat="43.04052" lon="1.08667">
        <ele>370.8</ele>
        <time>2024-04-21T14:09:05.993Z</time>
      </trkpt>
      <trkpt lat="43.04052" lon="1.08663">
        <ele>371</ele>
        <time>2024-04-21T14:09:06.993Z</time>
      </trkpt>
      <trkpt lat="43.04052" lon="1.08659">
        <ele>371.4</ele>
        <time>2024-04-21T14:09:07.993Z</time>
      </trkpt>
      <trkpt lat="43.04052" lon="1.08656">
        <ele>371.6</ele>
        <time>2024-04-21T14:09:08.993Z</time>
      </trkpt>
      <trkpt lat="43.04052" lon="1.08653">
        <ele>371.6</ele>
        <time>2024-04-21T14:09:09.993Z</time>
      </trkpt>
      <trkpt lat="43.04052" lon="1.08649">
        <ele>371.8</ele>
        <time>2024-04-21T14:09:10.993Z</time>
      </trkpt>
      <trkpt lat="43.04052" lon="1.08645">
        <ele>371.8</ele>
        <time>2024-04-21T14:09:11.993Z</time>
      </trkpt>
      <trkpt lat="43.04052" lon="1.08642">
        <ele>372.2</ele>
        <time>2024-04-21T14:09:12.993Z</time>
      </trkpt>
      <trkpt lat="43.04051" lon="1.08639">
        <ele>372.2</ele>
        <time>2024-04-21T14:09:13.993Z</time>
      </trkpt>
      <trkpt lat="43.04051" lon="1.08635">
        <ele>372.6</ele>
        <time>2024-04-21T14:09:14.993Z</time>
      </trkpt>
      <trkpt lat="43.04051" lon="1.08632">
        <ele>372.6</ele>
        <time>2024-04-21T14:09:15.993Z</time>
      </trkpt>
      <trkpt lat="43.04051" lon="1.08629">
        <ele>372.8</ele>
        <time>2024-04-21T14:09:16.993Z</time>
      </trkpt>
      <trkpt lat="43.04051" lon="1.08625">
        <ele>372.8</ele>
        <time>2024-04-21T14:09:17.993Z</time>
      </trkpt>
      <trkpt lat="43.04051" lon="1.08622">
        <ele>373.4</ele>
        <time>2024-04-21T14:09:18.993Z</time>
      </trkpt>
      <trkpt lat="43.04051" lon="1.08618">
        <ele>373.4</ele>
        <time>2024-04-21T14:09:19.993Z</time>
      </trkpt>
      <trkpt lat="43.04051" lon="1.08615">
        <ele>373.6</ele>
        <time>2024-04-21T14:09:20.993Z</time>
      </trkpt>
      <trkpt lat="43.04051" lon="1.08612">
        <ele>373.6</ele>
        <time>2024-04-21T14:09:21.993Z</time>
      </trkpt>
      <trkpt lat="43.04051" lon="1.08608">
        <ele>373.8</ele>
        <time>2024-04-21T14:09:22.993Z</time>
      </trkpt>
      <trkpt lat="43.0405" lon="1.08601">
        <ele>373.8</ele>
        <time>2024-04-21T14:09:23.993Z</time>
      </trkpt>
      <trkpt lat="43.0405" lon="1.08598">
        <ele>374</ele>
        <time>2024-04-21T14:09:24.993Z</time>
      </trkpt>
      <trkpt lat="43.0405" lon="1.08595">
        <ele>374</ele>
        <time>2024-04-21T14:09:25.993Z</time>
      </trkpt>
      <trkpt lat="43.0405" lon="1.08592">
        <ele>374.4</ele>
        <time>2024-04-21T14:09:26.993Z</time>
      </trkpt>
      <trkpt lat="43.0405" lon="1.08589">
        <ele>374.8</ele>
        <time>2024-04-21T14:09:27.993Z</time>
      </trkpt>
      <trkpt lat="43.0405" lon="1.08585">
        <ele>374.8</ele>
        <time>2024-04-21T14:09:28.993Z</time>
      </trkpt>
      <trkpt lat="43.04049" lon="1.08582">
        <ele>375</ele>
        <time>2024-04-21T14:09:29.993Z</time>
      </trkpt>
      <trkpt lat="43.04049" lon="1.08578">
        <ele>375</ele>
        <time>2024-04-21T14:09:30.993Z</time>
      </trkpt>
      <trkpt lat="43.04048" lon="1.08575">
        <ele>375.6</ele>
        <time>2024-04-21T14:09:31.993Z</time>
      </trkpt>
      <trkpt lat="43.04048" lon="1.08572">
        <ele>376</ele>
        <time>2024-04-21T14:09:32.993Z</time>
      </trkpt>
      <trkpt lat="43.04047" lon="1.08569">
        <ele>376.2</ele>
        <time>2024-04-21T14:09:33.993Z</time>
      </trkpt>
      <trkpt lat="43.04047" lon="1.08565">
        <ele>376.6</ele>
        <time>2024-04-21T14:09:34.993Z</time>
      </trkpt>
      <trkpt lat="43.04046" lon="1.08562">
        <ele>376.6</ele>
        <time>2024-04-21T14:09:35.993Z</time>
      </trkpt>
      <trkpt lat="43.04046" lon="1.08559">
        <ele>376.8</ele>
        <time>2024-04-21T14:09:36.993Z</time>
      </trkpt>
      <trkpt lat="43.04045" lon="1.08557">
        <ele>377</ele>
        <time>2024-04-21T14:09:37.993Z</time>
      </trkpt>
      <trkpt lat="43.04044" lon="1.08554">
        <ele>377.2</ele>
        <time>2024-04-21T14:09:38.993Z</time>
      </trkpt>
      <trkpt lat="43.04043" lon="1.08551">
        <ele>377.6</ele>
        <time>2024-04-21T14:09:39.993Z</time>
      </trkpt>
      <trkpt lat="43.04042" lon="1.08548">
        <ele>377.6</ele>
        <time>2024-04-21T14:09:40.993Z</time>
      </trkpt>
      <trkpt lat="43.04041" lon="1.08545">
        <ele>378</ele>
        <time>2024-04-21T14:09:41.993Z</time>
      </trkpt>
      <trkpt lat="43.0404" lon="1.08542">
        <ele>378.4</ele>
        <time>2024-04-21T14:09:42.993Z</time>
      </trkpt>
      <trkpt lat="43.0404" lon="1.08538">
        <ele>378.6</ele>
        <time>2024-04-21T14:09:43.993Z</time>
      </trkpt>
      <trkpt lat="43.04039" lon="1.08535">
        <ele>378.8</ele>
        <time>2024-04-21T14:09:44.993Z</time>
      </trkpt>
      <trkpt lat="43.04038" lon="1.08531">
        <ele>379</ele>
        <time>2024-04-21T14:09:45.993Z</time>
      </trkpt>
      <trkpt lat="43.04038" lon="1.08528">
        <ele>379</ele>
        <time>2024-04-21T14:09:46.993Z</time>
      </trkpt>
      <trkpt lat="43.04038" lon="1.08524">
        <ele>379.4</ele>
        <time>2024-04-21T14:09:47.993Z</time>
      </trkpt>
      <trkpt lat="43.04038" lon="1.0852">
        <ele>379.4</ele>
        <time>2024-04-21T14:09:48.993Z</time>
      </trkpt>
      <trkpt lat="43.04038" lon="1.08517">
        <ele>379.6</ele>
        <time>2024-04-21T14:09:49.993Z</time>
      </trkpt>
      <trkpt lat="43.04039" lon="1.08513">
        <ele>379.6</ele>
        <time>2024-04-21T14:09:50.993Z</time>
      </trkpt>
      <trkpt lat="43.0404" lon="1.0851">
        <ele>380</ele>
        <time>2024-04-21T14:09:51.993Z</time>
      </trkpt>
      <trkpt lat="43.04041" lon="1.08506">
        <ele>380.2</ele>
        <time>2024-04-21T14:09:52.993Z</time>
      </trkpt>
      <trkpt lat="43.04042" lon="1.08502">
        <ele>380.2</ele>
        <time>2024-04-21T14:09:53.993Z</time>
      </trkpt>
      <trkpt lat="43.04043" lon="1.08499">
        <ele>380.2</ele>
        <time>2024-04-21T14:09:54.993Z</time>
      </trkpt>
      <trkpt lat="43.04044" lon="1.08496">
        <ele>380.4</ele>
        <time>2024-04-21T14:09:55.993Z</time>
      </trkpt>
      <trkpt lat="43.04046" lon="1.08493">
        <ele>380.4</ele>
        <time>2024-04-21T14:09:56.993Z</time>
      </trkpt>
      <trkpt lat="43.04047" lon="1.0849">
        <ele>380.8</ele>
        <time>2024-04-21T14:09:57.993Z</time>
      </trkpt>
      <trkpt lat="43.04049" lon="1.08487">
        <ele>381.4</ele>
        <time>2024-04-21T14:09:58.993Z</time>
      </trkpt>
      <trkpt lat="43.04051" lon="1.08484">
        <ele>381.8</ele>
        <time>2024-04-21T14:09:59.993Z</time>
      </trkpt>
      <trkpt lat="43.04053" lon="1.08481">
        <ele>382</ele>
        <time>2024-04-21T14:10:00.993Z</time>
      </trkpt>
      <trkpt lat="43.04055" lon="1.08478">
        <ele>382</ele>
        <time>2024-04-21T14:10:01.993Z</time>
      </trkpt>
      <trkpt lat="43.04057" lon="1.08475">
        <ele>382.4</ele>
        <time>2024-04-21T14:10:02.993Z</time>
      </trkpt>
      <trkpt lat="43.04058" lon="1.08472">
        <ele>382.6</ele>
        <time>2024-04-21T14:10:03.993Z</time>
      </trkpt>
      <trkpt lat="43.04059" lon="1.08469">
        <ele>382.8</ele>
        <time>2024-04-21T14:10:04.993Z</time>
      </trkpt>
      <trkpt lat="43.04061" lon="1.08465">
        <ele>383.2</ele>
        <time>2024-04-21T14:10:05.993Z</time>
      </trkpt>
      <trkpt lat="43.04063" lon="1.08462">
        <ele>383.2</ele>
        <time>2024-04-21T14:10:06.993Z</time>
      </trkpt>
      <trkpt lat="43.04064" lon="1.08458">
        <ele>383.4</ele>
        <time>2024-04-21T14:10:07.993Z</time>
      </trkpt>
      <trkpt lat="43.04066" lon="1.08455">
        <ele>383.6</ele>
        <time>2024-04-21T14:10:08.993Z</time>
      </trkpt>
      <trkpt lat="43.04067" lon="1.08452">
        <ele>383.8</ele>
        <time>2024-04-21T14:10:09.993Z</time>
      </trkpt>
      <trkpt lat="43.04068" lon="1.08448">
        <ele>383.8</ele>
        <time>2024-04-21T14:10:10.993Z</time>
      </trkpt>
      <trkpt lat="43.04069" lon="1.08445">
        <ele>384.2</ele>
        <time>2024-04-21T14:10:11.993Z</time>
      </trkpt>
      <trkpt lat="43.0407" lon="1.08441">
        <ele>384.2</ele>
        <time>2024-04-21T14:10:12.993Z</time>
      </trkpt>
      <trkpt lat="43.04071" lon="1.08437">
        <ele>384.2</ele>
        <time>2024-04-21T14:10:13.993Z</time>
      </trkpt>
      <trkpt lat="43.04071" lon="1.08433">
        <ele>384.6</ele>
        <time>2024-04-21T14:10:14.993Z</time>
      </trkpt>
      <trkpt lat="43.04071" lon="1.0843">
        <ele>385</ele>
        <time>2024-04-21T14:10:15.993Z</time>
      </trkpt>
      <trkpt lat="43.04071" lon="1.08426">
        <ele>385.2</ele>
        <time>2024-04-21T14:10:16.993Z</time>
      </trkpt>
      <trkpt lat="43.04071" lon="1.08422">
        <ele>385.2</ele>
        <time>2024-04-21T14:10:17.993Z</time>
      </trkpt>
      <trkpt lat="43.0407" lon="1.08418">
        <ele>385.6</ele>
        <time>2024-04-21T14:10:18.993Z</time>
      </trkpt>
      <trkpt lat="43.0407" lon="1.08414">
        <ele>385.6</ele>
        <time>2024-04-21T14:10:19.993Z</time>
      </trkpt>
      <trkpt lat="43.04069" lon="1.08411">
        <ele>386</ele>
        <time>2024-04-21T14:10:20.993Z</time>
      </trkpt>
      <trkpt lat="43.04069" lon="1.08407">
        <ele>386</ele>
        <time>2024-04-21T14:10:21.993Z</time>
      </trkpt>
      <trkpt lat="43.04068" lon="1.08404">
        <ele>386.4</ele>
        <time>2024-04-21T14:10:22.993Z</time>
      </trkpt>
      <trkpt lat="43.04068" lon="1.084">
        <ele>386.8</ele>
        <time>2024-04-21T14:10:23.993Z</time>
      </trkpt>
      <trkpt lat="43.04068" lon="1.08396">
        <ele>387</ele>
        <time>2024-04-21T14:10:24.993Z</time>
      </trkpt>
      <trkpt lat="43.04067" lon="1.08393">
        <ele>387</ele>
        <time>2024-04-21T14:10:25.993Z</time>
      </trkpt>
      <trkpt lat="43.04067" lon="1.0839">
        <ele>387.4</ele>
        <time>2024-04-21T14:10:26.993Z</time>
      </trkpt>
      <trkpt lat="43.04067" lon="1.08386">
        <ele>387.4</ele>
        <time>2024-04-21T14:10:27.993Z</time>
      </trkpt>
      <trkpt lat="43.04067" lon="1.08383">
        <ele>387.8</ele>
        <time>2024-04-21T14:10:28.993Z</time>
      </trkpt>
      <trkpt lat="43.04068" lon="1.08379">
        <ele>388</ele>
        <time>2024-04-21T14:10:29.993Z</time>
      </trkpt>
      <trkpt lat="43.04069" lon="1.08375">
        <ele>388</ele>
        <time>2024-04-21T14:10:30.993Z</time>
      </trkpt>
      <trkpt lat="43.04069" lon="1.08372">
        <ele>388.4</ele>
        <time>2024-04-21T14:10:31.993Z</time>
      </trkpt>
      <trkpt lat="43.0407" lon="1.08368">
        <ele>388.4</ele>
        <time>2024-04-21T14:10:32.993Z</time>
      </trkpt>
      <trkpt lat="43.04071" lon="1.08365">
        <ele>388.6</ele>
        <time>2024-04-21T14:10:33.993Z</time>
      </trkpt>
      <trkpt lat="43.04072" lon="1.08362">
        <ele>388.6</ele>
        <time>2024-04-21T14:10:34.993Z</time>
      </trkpt>
      <trkpt lat="43.04074" lon="1.08359">
        <ele>389</ele>
        <time>2024-04-21T14:10:35.993Z</time>
      </trkpt>
      <trkpt lat="43.04076" lon="1.08356">
        <ele>389</ele>
        <time>2024-04-21T14:10:36.993Z</time>
      </trkpt>
      <trkpt lat="43.04077" lon="1.08352">
        <ele>389</ele>
        <time>2024-04-21T14:10:37.993Z</time>
      </trkpt>
      <trkpt lat="43.04079" lon="1.08349">
        <ele>389.4</ele>
        <time>2024-04-21T14:10:38.993Z</time>
      </trkpt>
      <trkpt lat="43.04081" lon="1.08347">
        <ele>389.6</ele>
        <time>2024-04-21T14:10:39.993Z</time>
      </trkpt>
      <trkpt lat="43.04083" lon="1.08344">
        <ele>389.8</ele>
        <time>2024-04-21T14:10:40.993Z</time>
      </trkpt>
      <trkpt lat="43.04085" lon="1.08342">
        <ele>389.8</ele>
        <time>2024-04-21T14:10:41.993Z</time>
      </trkpt>
      <trkpt lat="43.04087" lon="1.08339">
        <ele>390.2</ele>
        <time>2024-04-21T14:10:42.993Z</time>
      </trkpt>
      <trkpt lat="43.0409" lon="1.08337">
        <ele>390.2</ele>
        <time>2024-04-21T14:10:43.993Z</time>
      </trkpt>
      <trkpt lat="43.04092" lon="1.08335">
        <ele>390.6</ele>
        <time>2024-04-21T14:10:44.993Z</time>
      </trkpt>
      <trkpt lat="43.04095" lon="1.08333">
        <ele>390.6</ele>
        <time>2024-04-21T14:10:45.993Z</time>
      </trkpt>
      <trkpt lat="43.04098" lon="1.08331">
        <ele>391</ele>
        <time>2024-04-21T14:10:46.993Z</time>
      </trkpt>
      <trkpt lat="43.041" lon="1.0833">
        <ele>391.2</ele>
        <time>2024-04-21T14:10:47.993Z</time>
      </trkpt>
      <trkpt lat="43.04103" lon="1.08328">
        <ele>391.2</ele>
        <time>2024-04-21T14:10:48.993Z</time>
      </trkpt>
      <trkpt lat="43.04106" lon="1.08326">
        <ele>391.4</ele>
        <time>2024-04-21T14:10:49.993Z</time>
      </trkpt>
      <trkpt lat="43.04109" lon="1.08324">
        <ele>391.4</ele>
        <time>2024-04-21T14:10:50.993Z</time>
      </trkpt>
      <trkpt lat="43.04111" lon="1.08323">
        <ele>391.8</ele>
        <time>2024-04-21T14:10:51.993Z</time>
      </trkpt>
      <trkpt lat="43.04114" lon="1.08321">
        <ele>391.8</ele>
        <time>2024-04-21T14:10:52.993Z</time>
      </trkpt>
      <trkpt lat="43.04117" lon="1.08319">
        <ele>392.2</ele>
        <time>2024-04-21T14:10:53.993Z</time>
      </trkpt>
      <trkpt lat="43.04119" lon="1.08317">
        <ele>392.2</ele>
        <time>2024-04-21T14:10:54.993Z</time>
      </trkpt>
      <trkpt lat="43.04122" lon="1.08314">
        <ele>392.2</ele>
        <time>2024-04-21T14:10:55.993Z</time>
      </trkpt>
      <trkpt lat="43.04125" lon="1.08312">
        <ele>392.4</ele>
        <time>2024-04-21T14:10:56.993Z</time>
      </trkpt>
      <trkpt lat="43.04127" lon="1.08309">
        <ele>392.6</ele>
        <time>2024-04-21T14:10:57.993Z</time>
      </trkpt>
      <trkpt lat="43.0413" lon="1.08306">
        <ele>392.6</ele>
        <time>2024-04-21T14:10:58.993Z</time>
      </trkpt>
      <trkpt lat="43.04132" lon="1.08303">
        <ele>392.6</ele>
        <time>2024-04-21T14:10:59.993Z</time>
      </trkpt>
      <trkpt lat="43.04134" lon="1.083">
        <ele>393</ele>
        <time>2024-04-21T14:11:00.993Z</time>
      </trkpt>
      <trkpt lat="43.04136" lon="1.08297">
        <ele>393.2</ele>
        <time>2024-04-21T14:11:01.993Z</time>
      </trkpt>
      <trkpt lat="43.04138" lon="1.08293">
        <ele>393.2</ele>
        <time>2024-04-21T14:11:02.993Z</time>
      </trkpt>
      <trkpt lat="43.0414" lon="1.0829">
        <ele>393.2</ele>
        <time>2024-04-21T14:11:03.993Z</time>
      </trkpt>
      <trkpt lat="43.04142" lon="1.08286">
        <ele>393.4</ele>
        <time>2024-04-21T14:11:04.993Z</time>
      </trkpt>
      <trkpt lat="43.04143" lon="1.08282">
        <ele>393.4</ele>
        <time>2024-04-21T14:11:05.993Z</time>
      </trkpt>
      <trkpt lat="43.04145" lon="1.08278">
        <ele>393.8</ele>
        <time>2024-04-21T14:11:06.993Z</time>
      </trkpt>
      <trkpt lat="43.04146" lon="1.08274">
        <ele>393.8</ele>
        <time>2024-04-21T14:11:07.993Z</time>
      </trkpt>
      <trkpt lat="43.04147" lon="1.0827">
        <ele>393.8</ele>
        <time>2024-04-21T14:11:08.993Z</time>
      </trkpt>
      <trkpt lat="43.04148" lon="1.08266">
        <ele>394</ele>
        <time>2024-04-21T14:11:09.993Z</time>
      </trkpt>
      <trkpt lat="43.04149" lon="1.08261">
        <ele>394</ele>
        <time>2024-04-21T14:11:10.993Z</time>
      </trkpt>
      <trkpt lat="43.0415" lon="1.08256">
        <ele>394.2</ele>
        <time>2024-04-21T14:11:11.993Z</time>
      </trkpt>
      <trkpt lat="43.04151" lon="1.08252">
        <ele>394.2</ele>
        <time>2024-04-21T14:11:12.993Z</time>
      </trkpt>
      <trkpt lat="43.04152" lon="1.08247">
        <ele>394.4</ele>
        <time>2024-04-21T14:11:13.993Z</time>
      </trkpt>
      <trkpt lat="43.04152" lon="1.08242">
        <ele>394.4</ele>
        <time>2024-04-21T14:11:14.993Z</time>
      </trkpt>
      <trkpt lat="43.04151" lon="1.08237">
        <ele>394.2</ele>
        <time>2024-04-21T14:11:15.993Z</time>
      </trkpt>
      <trkpt lat="43.04151" lon="1.08231">
        <ele>394.2</ele>
        <time>2024-04-21T14:11:16.993Z</time>
      </trkpt>
      <trkpt lat="43.04151" lon="1.08225">
        <ele>394.2</ele>
        <time>2024-04-21T14:11:17.993Z</time>
      </trkpt>
      <trkpt lat="43.0415" lon="1.0822">
        <ele>394.2</ele>
        <time>2024-04-21T14:11:18.993Z</time>
      </trkpt>
      <trkpt lat="43.04149" lon="1.08214">
        <ele>394.2</ele>
        <time>2024-04-21T14:11:19.993Z</time>
      </trkpt>
      <trkpt lat="43.04148" lon="1.08208">
        <ele>394.2</ele>
        <time>2024-04-21T14:11:20.993Z</time>
      </trkpt>
      <trkpt lat="43.04147" lon="1.08203">
        <ele>394.2</ele>
        <time>2024-04-21T14:11:21.993Z</time>
      </trkpt>
      <trkpt lat="43.04145" lon="1.08198">
        <ele>394.2</ele>
        <time>2024-04-21T14:11:22.993Z</time>
      </trkpt>
      <trkpt lat="43.04143" lon="1.08192">
        <ele>394.2</ele>
        <time>2024-04-21T14:11:23.993Z</time>
      </trkpt>
      <trkpt lat="43.04141" lon="1.08187">
        <ele>394.2</ele>
        <time>2024-04-21T14:11:24.993Z</time>
      </trkpt>
      <trkpt lat="43.0414" lon="1.08181">
        <ele>394.2</ele>
        <time>2024-04-21T14:11:25.993Z</time>
      </trkpt>
      <trkpt lat="43.04138" lon="1.08176">
        <ele>394.2</ele>
        <time>2024-04-21T14:11:26.993Z</time>
      </trkpt>
      <trkpt lat="43.04135" lon="1.08171">
        <ele>393.8</ele>
        <time>2024-04-21T14:11:27.993Z</time>
      </trkpt>
      <trkpt lat="43.04133" lon="1.08165">
        <ele>393.8</ele>
        <time>2024-04-21T14:11:28.993Z</time>
      </trkpt>
      <trkpt lat="43.04133" lon="1.08159">
        <ele>393.8</ele>
        <time>2024-04-21T14:11:29.993Z</time>
      </trkpt>
      <trkpt lat="43.04131" lon="1.08153">
        <ele>393.8</ele>
        <time>2024-04-21T14:11:30.993Z</time>
      </trkpt>
      <trkpt lat="43.04129" lon="1.08148">
        <ele>393.8</ele>
        <time>2024-04-21T14:11:31.993Z</time>
      </trkpt>
      <trkpt lat="43.04128" lon="1.08142">
        <ele>393.8</ele>
        <time>2024-04-21T14:11:32.993Z</time>
      </trkpt>
      <trkpt lat="43.04126" lon="1.08137">
        <ele>393.4</ele>
        <time>2024-04-21T14:11:33.993Z</time>
      </trkpt>
      <trkpt lat="43.04124" lon="1.08131">
        <ele>393.4</ele>
        <time>2024-04-21T14:11:34.993Z</time>
      </trkpt>
      <trkpt lat="43.04122" lon="1.08125">
        <ele>393.2</ele>
        <time>2024-04-21T14:11:35.993Z</time>
      </trkpt>
      <trkpt lat="43.0412" lon="1.08119">
        <ele>393</ele>
        <time>2024-04-21T14:11:36.993Z</time>
      </trkpt>
      <trkpt lat="43.04117" lon="1.08113">
        <ele>393</ele>
        <time>2024-04-21T14:11:37.993Z</time>
      </trkpt>
      <trkpt lat="43.04115" lon="1.08107">
        <ele>393</ele>
        <time>2024-04-21T14:11:38.993Z</time>
      </trkpt>
      <trkpt lat="43.04114" lon="1.081">
        <ele>392.6</ele>
        <time>2024-04-21T14:11:39.993Z</time>
      </trkpt>
      <trkpt lat="43.04111" lon="1.08094">
        <ele>392.4</ele>
        <time>2024-04-21T14:11:40.993Z</time>
      </trkpt>
      <trkpt lat="43.04109" lon="1.08087">
        <ele>392.4</ele>
        <time>2024-04-21T14:11:41.993Z</time>
      </trkpt>
      <trkpt lat="43.04107" lon="1.0808">
        <ele>392</ele>
        <time>2024-04-21T14:11:42.993Z</time>
      </trkpt>
      <trkpt lat="43.04105" lon="1.08073">
        <ele>391.8</ele>
        <time>2024-04-21T14:11:43.993Z</time>
      </trkpt>
      <trkpt lat="43.04103" lon="1.08067">
        <ele>391.8</ele>
        <time>2024-04-21T14:11:44.993Z</time>
      </trkpt>
      <trkpt lat="43.04101" lon="1.0806">
        <ele>391.8</ele>
        <time>2024-04-21T14:11:45.993Z</time>
      </trkpt>
      <trkpt lat="43.04098" lon="1.08054">
        <ele>391.8</ele>
        <time>2024-04-21T14:11:46.993Z</time>
      </trkpt>
      <trkpt lat="43.04096" lon="1.08046">
        <ele>391.8</ele>
        <time>2024-04-21T14:11:47.993Z</time>
      </trkpt>
      <trkpt lat="43.04094" lon="1.0804">
        <ele>391.8</ele>
        <time>2024-04-21T14:11:48.993Z</time>
      </trkpt>
      <trkpt lat="43.04092" lon="1.08033">
        <ele>391.6</ele>
        <time>2024-04-21T14:11:49.993Z</time>
      </trkpt>
      <trkpt lat="43.0409" lon="1.08025">
        <ele>391.6</ele>
        <time>2024-04-21T14:11:50.993Z</time>
      </trkpt>
      <trkpt lat="43.04088" lon="1.08018">
        <ele>391.2</ele>
        <time>2024-04-21T14:11:51.993Z</time>
      </trkpt>
      <trkpt lat="43.04085" lon="1.08011">
        <ele>391.2</ele>
        <time>2024-04-21T14:11:52.993Z</time>
      </trkpt>
      <trkpt lat="43.04083" lon="1.08004">
        <ele>390.8</ele>
        <time>2024-04-21T14:11:53.993Z</time>
      </trkpt>
      <trkpt lat="43.0408" lon="1.07997">
        <ele>390.8</ele>
        <time>2024-04-21T14:11:54.993Z</time>
      </trkpt>
      <trkpt lat="43.04078" lon="1.07989">
        <ele>390.8</ele>
        <time>2024-04-21T14:11:55.993Z</time>
      </trkpt>
      <trkpt lat="43.04075" lon="1.07982">
        <ele>390.8</ele>
        <time>2024-04-21T14:11:56.993Z</time>
      </trkpt>
      <trkpt lat="43.04072" lon="1.07975">
        <ele>390.6</ele>
        <time>2024-04-21T14:11:57.993Z</time>
      </trkpt>
      <trkpt lat="43.0407" lon="1.07967">
        <ele>390.6</ele>
        <time>2024-04-21T14:11:58.993Z</time>
      </trkpt>
      <trkpt lat="43.04067" lon="1.0796">
        <ele>390.2</ele>
        <time>2024-04-21T14:11:59.993Z</time>
      </trkpt>
      <trkpt lat="43.04065" lon="1.07953">
        <ele>390.2</ele>
        <time>2024-04-21T14:12:00.993Z</time>
      </trkpt>
      <trkpt lat="43.04063" lon="1.07945">
        <ele>390.2</ele>
        <time>2024-04-21T14:12:01.993Z</time>
      </trkpt>
      <trkpt lat="43.0406" lon="1.07938">
        <ele>390</ele>
        <time>2024-04-21T14:12:02.993Z</time>
      </trkpt>
      <trkpt lat="43.04057" lon="1.07932">
        <ele>390</ele>
        <time>2024-04-21T14:12:03.993Z</time>
      </trkpt>
      <trkpt lat="43.04055" lon="1.07925">
        <ele>390</ele>
        <time>2024-04-21T14:12:04.993Z</time>
      </trkpt>
      <trkpt lat="43.04053" lon="1.07918">
        <ele>389.6</ele>
        <time>2024-04-21T14:12:05.993Z</time>
      </trkpt>
      <trkpt lat="43.04051" lon="1.07911">
        <ele>389.6</ele>
        <time>2024-04-21T14:12:06.993Z</time>
      </trkpt>
      <trkpt lat="43.04048" lon="1.07905">
        <ele>389.4</ele>
        <time>2024-04-21T14:12:07.993Z</time>
      </trkpt>
      <trkpt lat="43.04047" lon="1.07897">
        <ele>389.4</ele>
        <time>2024-04-21T14:12:08.993Z</time>
      </trkpt>
      <trkpt lat="43.04045" lon="1.07891">
        <ele>389.4</ele>
        <time>2024-04-21T14:12:09.993Z</time>
      </trkpt>
      <trkpt lat="43.04043" lon="1.07884">
        <ele>389.2</ele>
        <time>2024-04-21T14:12:10.993Z</time>
      </trkpt>
      <trkpt lat="43.04041" lon="1.07877">
        <ele>389.2</ele>
        <time>2024-04-21T14:12:11.993Z</time>
      </trkpt>
      <trkpt lat="43.0404" lon="1.07869">
        <ele>389.2</ele>
        <time>2024-04-21T14:12:12.993Z</time>
      </trkpt>
      <trkpt lat="43.04039" lon="1.07862">
        <ele>389.2</ele>
        <time>2024-04-21T14:12:13.993Z</time>
      </trkpt>
      <trkpt lat="43.04039" lon="1.07855">
        <ele>389</ele>
        <time>2024-04-21T14:12:14.993Z</time>
      </trkpt>
      <trkpt lat="43.04038" lon="1.07848">
        <ele>389</ele>
        <time>2024-04-21T14:12:15.993Z</time>
      </trkpt>
      <trkpt lat="43.04038" lon="1.07842">
        <ele>389</ele>
        <time>2024-04-21T14:12:16.993Z</time>
      </trkpt>
      <trkpt lat="43.04038" lon="1.07834">
        <ele>389</ele>
        <time>2024-04-21T14:12:17.993Z</time>
      </trkpt>
      <trkpt lat="43.04037" lon="1.07828">
        <ele>389</ele>
        <time>2024-04-21T14:12:18.993Z</time>
      </trkpt>
      <trkpt lat="43.04037" lon="1.07821">
        <ele>388.6</ele>
        <time>2024-04-21T14:12:19.993Z</time>
      </trkpt>
      <trkpt lat="43.04037" lon="1.07815">
        <ele>388.6</ele>
        <time>2024-04-21T14:12:20.993Z</time>
      </trkpt>
      <trkpt lat="43.04036" lon="1.0781">
        <ele>388.6</ele>
        <time>2024-04-21T14:12:21.993Z</time>
      </trkpt>
      <trkpt lat="43.04036" lon="1.07804">
        <ele>388.6</ele>
        <time>2024-04-21T14:12:22.993Z</time>
      </trkpt>
      <trkpt lat="43.04037" lon="1.07798">
        <ele>388.6</ele>
        <time>2024-04-21T14:12:23.993Z</time>
      </trkpt>
      <trkpt lat="43.04037" lon="1.07792">
        <ele>388.4</ele>
        <time>2024-04-21T14:12:24.993Z</time>
      </trkpt>
      <trkpt lat="43.04037" lon="1.07787">
        <ele>388.4</ele>
        <time>2024-04-21T14:12:25.993Z</time>
      </trkpt>
      <trkpt lat="43.04038" lon="1.07781">
        <ele>388.4</ele>
        <time>2024-04-21T14:12:26.993Z</time>
      </trkpt>
      <trkpt lat="43.04038" lon="1.07775">
        <ele>388.4</ele>
        <time>2024-04-21T14:12:27.993Z</time>
      </trkpt>
      <trkpt lat="43.04038" lon="1.07769">
        <ele>388.4</ele>
        <time>2024-04-21T14:12:28.993Z</time>
      </trkpt>
      <trkpt lat="43.04038" lon="1.07763">
        <ele>388.4</ele>
        <time>2024-04-21T14:12:29.993Z</time>
      </trkpt>
      <trkpt lat="43.04038" lon="1.07757">
        <ele>388.4</ele>
        <time>2024-04-21T14:12:30.993Z</time>
      </trkpt>
      <trkpt lat="43.04038" lon="1.07751">
        <ele>388.4</ele>
        <time>2024-04-21T14:12:31.993Z</time>
      </trkpt>
      <trkpt lat="43.04039" lon="1.07745">
        <ele>388</ele>
        <time>2024-04-21T14:12:32.993Z</time>
      </trkpt>
      <trkpt lat="43.04038" lon="1.07738">
        <ele>387.8</ele>
        <time>2024-04-21T14:12:33.993Z</time>
      </trkpt>
      <trkpt lat="43.04037" lon="1.07731">
        <ele>387.8</ele>
        <time>2024-04-21T14:12:34.993Z</time>
      </trkpt>
      <trkpt lat="43.04036" lon="1.07726">
        <ele>387.4</ele>
        <time>2024-04-21T14:12:35.993Z</time>
      </trkpt>
      <trkpt lat="43.04034" lon="1.0772">
        <ele>387.4</ele>
        <time>2024-04-21T14:12:36.993Z</time>
      </trkpt>
      <trkpt lat="43.04034" lon="1.07715">
        <ele>387.2</ele>
        <time>2024-04-21T14:12:37.993Z</time>
      </trkpt>
      <trkpt lat="43.04031" lon="1.07711">
        <ele>386.8</ele>
        <time>2024-04-21T14:12:38.993Z</time>
      </trkpt>
      <trkpt lat="43.04029" lon="1.07708">
        <ele>386.8</ele>
        <time>2024-04-21T14:12:39.993Z</time>
      </trkpt>
      <trkpt lat="43.04026" lon="1.07707">
        <ele>386.6</ele>
        <time>2024-04-21T14:12:40.993Z</time>
      </trkpt>
      <trkpt lat="43.04021" lon="1.07708">
        <ele>386.6</ele>
        <time>2024-04-21T14:12:41.993Z</time>
      </trkpt>
      <trkpt lat="43.04017" lon="1.07708">
        <ele>386</ele>
        <time>2024-04-21T14:12:42.993Z</time>
      </trkpt>
      <trkpt lat="43.04012" lon="1.07708">
        <ele>386</ele>
        <time>2024-04-21T14:12:43.993Z</time>
      </trkpt>
      <trkpt lat="43.04007" lon="1.07709">
        <ele>385.8</ele>
        <time>2024-04-21T14:12:44.993Z</time>
      </trkpt>
      <trkpt lat="43.04003" lon="1.07708">
        <ele>385.4</ele>
        <time>2024-04-21T14:12:45.993Z</time>
      </trkpt>
      <trkpt lat="43.03998" lon="1.07709">
        <ele>385</ele>
        <time>2024-04-21T14:12:46.993Z</time>
      </trkpt>
      <trkpt lat="43.03992" lon="1.07709">
        <ele>384.6</ele>
        <time>2024-04-21T14:12:47.993Z</time>
      </trkpt>
      <trkpt lat="43.03987" lon="1.07708">
        <ele>383.8</ele>
        <time>2024-04-21T14:12:48.993Z</time>
      </trkpt>
      <trkpt lat="43.03982" lon="1.07707">
        <ele>383.2</ele>
        <time>2024-04-21T14:12:49.993Z</time>
      </trkpt>
      <trkpt lat="43.03976" lon="1.07707">
        <ele>382.8</ele>
        <time>2024-04-21T14:12:50.993Z</time>
      </trkpt>
      <trkpt lat="43.03971" lon="1.07706">
        <ele>382</ele>
        <time>2024-04-21T14:12:51.993Z</time>
      </trkpt>
      <trkpt lat="43.03967" lon="1.07704">
        <ele>381.4</ele>
        <time>2024-04-21T14:12:52.993Z</time>
      </trkpt>
      <trkpt lat="43.03963" lon="1.07702">
        <ele>380.6</ele>
        <time>2024-04-21T14:12:53.993Z</time>
      </trkpt>
      <trkpt lat="43.0396" lon="1.077">
        <ele>380.4</ele>
        <time>2024-04-21T14:12:54.993Z</time>
      </trkpt>
      <trkpt lat="43.03956" lon="1.077">
        <ele>379.8</ele>
        <time>2024-04-21T14:12:55.993Z</time>
      </trkpt>
      <trkpt lat="43.03953" lon="1.07701">
        <ele>379.8</ele>
        <time>2024-04-21T14:12:56.993Z</time>
      </trkpt>
      <trkpt lat="43.0395" lon="1.07702">
        <ele>379.4</ele>
        <time>2024-04-21T14:12:57.993Z</time>
      </trkpt>
      <trkpt lat="43.03948" lon="1.07706">
        <ele>379</ele>
        <time>2024-04-21T14:12:58.993Z</time>
      </trkpt>
      <trkpt lat="43.03945" lon="1.0771">
        <ele>378.4</ele>
        <time>2024-04-21T14:12:59.993Z</time>
      </trkpt>
      <trkpt lat="43.03942" lon="1.07715">
        <ele>378.4</ele>
        <time>2024-04-21T14:13:00.993Z</time>
      </trkpt>
      <trkpt lat="43.0394" lon="1.07719">
        <ele>378.4</ele>
        <time>2024-04-21T14:13:01.993Z</time>
      </trkpt>
      <trkpt lat="43.03937" lon="1.07724">
        <ele>378</ele>
        <time>2024-04-21T14:13:02.993Z</time>
      </trkpt>
      <trkpt lat="43.03935" lon="1.07729">
        <ele>377.6</ele>
        <time>2024-04-21T14:13:03.993Z</time>
      </trkpt>
      <trkpt lat="43.03933" lon="1.07734">
        <ele>377.6</ele>
        <time>2024-04-21T14:13:04.993Z</time>
      </trkpt>
      <trkpt lat="43.03931" lon="1.07739">
        <ele>377.2</ele>
        <time>2024-04-21T14:13:05.993Z</time>
      </trkpt>
      <trkpt lat="43.03929" lon="1.07745">
        <ele>377.2</ele>
        <time>2024-04-21T14:13:06.993Z</time>
      </trkpt>
      <trkpt lat="43.03927" lon="1.07751">
        <ele>376.8</ele>
        <time>2024-04-21T14:13:07.993Z</time>
      </trkpt>
      <trkpt lat="43.03925" lon="1.07757">
        <ele>376.8</ele>
        <time>2024-04-21T14:13:08.993Z</time>
      </trkpt>
      <trkpt lat="43.03924" lon="1.07763">
        <ele>376.2</ele>
        <time>2024-04-21T14:13:09.993Z</time>
      </trkpt>
      <trkpt lat="43.03922" lon="1.0777">
        <ele>376.2</ele>
        <time>2024-04-21T14:13:10.993Z</time>
      </trkpt>
      <trkpt lat="43.03921" lon="1.07777">
        <ele>375.8</ele>
        <time>2024-04-21T14:13:11.993Z</time>
      </trkpt>
      <trkpt lat="43.0392" lon="1.07784">
        <ele>375.8</ele>
        <time>2024-04-21T14:13:12.993Z</time>
      </trkpt>
      <trkpt lat="43.03918" lon="1.07791">
        <ele>375.8</ele>
        <time>2024-04-21T14:13:13.993Z</time>
      </trkpt>
      <trkpt lat="43.03917" lon="1.07796">
        <ele>376.2</ele>
        <time>2024-04-21T14:13:14.993Z</time>
      </trkpt>
      <trkpt lat="43.03916" lon="1.07802">
        <ele>376.2</ele>
        <time>2024-04-21T14:13:15.993Z</time>
      </trkpt>
      <trkpt lat="43.03917" lon="1.07806">
        <ele>376.2</ele>
        <time>2024-04-21T14:13:16.993Z</time>
      </trkpt>
      <trkpt lat="43.03917" lon="1.07812">
        <ele>376.2</ele>
        <time>2024-04-21T14:13:17.993Z</time>
      </trkpt>
      <trkpt lat="43.03916" lon="1.07818">
        <ele>376.2</ele>
        <time>2024-04-21T14:13:18.993Z</time>
      </trkpt>
      <trkpt lat="43.03916" lon="1.07825">
        <ele>375.8</ele>
        <time>2024-04-21T14:13:19.993Z</time>
      </trkpt>
      <trkpt lat="43.03916" lon="1.07825">
        <ele>375.8</ele>
        <time>2024-04-21T14:13:20.993Z</time>
      </trkpt>
      <trkpt lat="43.03915" lon="1.0783">
        <ele>375.8</ele>
        <time>2024-04-21T14:13:21.993Z</time>
      </trkpt>
      <trkpt lat="43.03914" lon="1.07835">
        <ele>376</ele>
        <time>2024-04-21T14:13:22.993Z</time>
      </trkpt>
      <trkpt lat="43.03914" lon="1.07841">
        <ele>376.4</ele>
        <time>2024-04-21T14:13:23.993Z</time>
      </trkpt>
      <trkpt lat="43.03914" lon="1.07845">
        <ele>376.6</ele>
        <time>2024-04-21T14:13:24.993Z</time>
      </trkpt>
      <trkpt lat="43.03913" lon="1.0785">
        <ele>376.2</ele>
        <time>2024-04-21T14:13:25.993Z</time>
      </trkpt>
      <trkpt lat="43.03912" lon="1.07855">
        <ele>376.2</ele>
        <time>2024-04-21T14:13:26.993Z</time>
      </trkpt>
      <trkpt lat="43.03911" lon="1.0786">
        <ele>376.6</ele>
        <time>2024-04-21T14:13:27.993Z</time>
      </trkpt>
      <trkpt lat="43.0391" lon="1.07865">
        <ele>376.6</ele>
        <time>2024-04-21T14:13:28.993Z</time>
      </trkpt>
      <trkpt lat="43.0391" lon="1.0787">
        <ele>376.6</ele>
        <time>2024-04-21T14:13:29.993Z</time>
      </trkpt>
      <trkpt lat="43.03909" lon="1.07876">
        <ele>376.6</ele>
        <time>2024-04-21T14:13:30.993Z</time>
      </trkpt>
      <trkpt lat="43.03908" lon="1.07882">
        <ele>376.2</ele>
        <time>2024-04-21T14:13:31.993Z</time>
      </trkpt>
      <trkpt lat="43.03907" lon="1.07887">
        <ele>375.6</ele>
        <time>2024-04-21T14:13:32.993Z</time>
      </trkpt>
      <trkpt lat="43.03906" lon="1.07893">
        <ele>374.6</ele>
        <time>2024-04-21T14:13:33.993Z</time>
      </trkpt>
      <trkpt lat="43.03905" lon="1.07898">
        <ele>374.2</ele>
        <time>2024-04-21T14:13:34.993Z</time>
      </trkpt>
      <trkpt lat="43.03904" lon="1.07903">
        <ele>374.2</ele>
        <time>2024-04-21T14:13:35.993Z</time>
      </trkpt>
      <trkpt lat="43.03903" lon="1.07909">
        <ele>373.6</ele>
        <time>2024-04-21T14:13:36.993Z</time>
      </trkpt>
      <trkpt lat="43.03902" lon="1.07914">
        <ele>372.8</ele>
        <time>2024-04-21T14:13:37.993Z</time>
      </trkpt>
      <trkpt lat="43.03901" lon="1.0792">
        <ele>372</ele>
        <time>2024-04-21T14:13:38.993Z</time>
      </trkpt>
      <trkpt lat="43.03899" lon="1.07925">
        <ele>371.4</ele>
        <time>2024-04-21T14:13:39.993Z</time>
      </trkpt>
      <trkpt lat="43.03898" lon="1.07931">
        <ele>370.8</ele>
        <time>2024-04-21T14:13:40.993Z</time>
      </trkpt>
      <trkpt lat="43.03897" lon="1.07936">
        <ele>370.2</ele>
        <time>2024-04-21T14:13:41.993Z</time>
      </trkpt>
      <trkpt lat="43.03895" lon="1.07942">
        <ele>369.8</ele>
        <time>2024-04-21T14:13:42.993Z</time>
      </trkpt>
      <trkpt lat="43.03894" lon="1.0795">
        <ele>369.2</ele>
        <time>2024-04-21T14:13:43.993Z</time>
      </trkpt>
      <trkpt lat="43.03891" lon="1.07955">
        <ele>368.6</ele>
        <time>2024-04-21T14:13:44.993Z</time>
      </trkpt>
      <trkpt lat="43.03888" lon="1.07959">
        <ele>368</ele>
        <time>2024-04-21T14:13:45.993Z</time>
      </trkpt>
      <trkpt lat="43.03885" lon="1.07963">
        <ele>367.2</ele>
        <time>2024-04-21T14:13:46.993Z</time>
      </trkpt>
      <trkpt lat="43.03876" lon="1.0797">
        <ele>366.6</ele>
        <time>2024-04-21T14:13:47.993Z</time>
      </trkpt>
      <trkpt lat="43.03872" lon="1.07972">
        <ele>366</ele>
        <time>2024-04-21T14:13:48.993Z</time>
      </trkpt>
      <trkpt lat="43.03867" lon="1.07974">
        <ele>365.6</ele>
        <time>2024-04-21T14:13:49.993Z</time>
      </trkpt>
      <trkpt lat="43.03861" lon="1.07974">
        <ele>365</ele>
        <time>2024-04-21T14:13:50.993Z</time>
      </trkpt>
      <trkpt lat="43.03856" lon="1.07975">
        <ele>364.2</ele>
        <time>2024-04-21T14:13:51.993Z</time>
      </trkpt>
      <trkpt lat="43.03849" lon="1.07975">
        <ele>363.4</ele>
        <time>2024-04-21T14:13:52.993Z</time>
      </trkpt>
      <trkpt lat="43.03843" lon="1.07975">
        <ele>363</ele>
        <time>2024-04-21T14:13:53.993Z</time>
      </trkpt>
      <trkpt lat="43.03836" lon="1.07976">
        <ele>361.8</ele>
        <time>2024-04-21T14:13:54.993Z</time>
      </trkpt>
      <trkpt lat="43.03829" lon="1.07975">
        <ele>361.4</ele>
        <time>2024-04-21T14:13:55.993Z</time>
      </trkpt>
      <trkpt lat="43.03822" lon="1.07976">
        <ele>361.4</ele>
        <time>2024-04-21T14:13:56.993Z</time>
      </trkpt>
      <trkpt lat="43.03815" lon="1.07976">
        <ele>360.6</ele>
        <time>2024-04-21T14:13:57.993Z</time>
      </trkpt>
      <trkpt lat="43.03808" lon="1.07976">
        <ele>360</ele>
        <time>2024-04-21T14:13:58.993Z</time>
      </trkpt>
      <trkpt lat="43.03801" lon="1.07976">
        <ele>360.6</ele>
        <time>2024-04-21T14:13:59.993Z</time>
      </trkpt>
      <trkpt lat="43.03793" lon="1.07976">
        <ele>360</ele>
        <time>2024-04-21T14:14:00.993Z</time>
      </trkpt>
      <trkpt lat="43.03787" lon="1.07976">
        <ele>360</ele>
        <time>2024-04-21T14:14:01.993Z</time>
      </trkpt>
      <trkpt lat="43.0378" lon="1.07975">
        <ele>360</ele>
        <time>2024-04-21T14:14:02.993Z</time>
      </trkpt>
      <trkpt lat="43.03774" lon="1.07975">
        <ele>359.6</ele>
        <time>2024-04-21T14:14:03.993Z</time>
      </trkpt>
      <trkpt lat="43.03767" lon="1.07974">
        <ele>359.2</ele>
        <time>2024-04-21T14:14:04.993Z</time>
      </trkpt>
      <trkpt lat="43.03761" lon="1.07974">
        <ele>359.2</ele>
        <time>2024-04-21T14:14:05.993Z</time>
      </trkpt>
      <trkpt lat="43.03755" lon="1.07974">
        <ele>359.2</ele>
        <time>2024-04-21T14:14:06.993Z</time>
      </trkpt>
      <trkpt lat="43.03749" lon="1.07973">
        <ele>358.8</ele>
        <time>2024-04-21T14:14:07.993Z</time>
      </trkpt>
      <trkpt lat="43.03743" lon="1.07972">
        <ele>358.8</ele>
        <time>2024-04-21T14:14:08.993Z</time>
      </trkpt>
      <trkpt lat="43.03738" lon="1.07972">
        <ele>358.8</ele>
        <time>2024-04-21T14:14:09.993Z</time>
      </trkpt>
      <trkpt lat="43.03732" lon="1.07971">
        <ele>358.8</ele>
        <time>2024-04-21T14:14:10.993Z</time>
      </trkpt>
      <trkpt lat="43.03726" lon="1.07972">
        <ele>359.2</ele>
        <time>2024-04-21T14:14:11.993Z</time>
      </trkpt>
      <trkpt lat="43.03721" lon="1.07973">
        <ele>358.4</ele>
        <time>2024-04-21T14:14:12.993Z</time>
      </trkpt>
      <trkpt lat="43.03715" lon="1.07974">
        <ele>358.6</ele>
        <time>2024-04-21T14:14:13.993Z</time>
      </trkpt>
      <trkpt lat="43.0371" lon="1.07974">
        <ele>358.4</ele>
        <time>2024-04-21T14:14:14.993Z</time>
      </trkpt>
      <trkpt lat="43.03704" lon="1.07974">
        <ele>358.4</ele>
        <time>2024-04-21T14:14:15.993Z</time>
      </trkpt>
      <trkpt lat="43.03699" lon="1.07975">
        <ele>357.8</ele>
        <time>2024-04-21T14:14:16.993Z</time>
      </trkpt>
      <trkpt lat="43.03693" lon="1.07975">
        <ele>357.8</ele>
        <time>2024-04-21T14:14:17.993Z</time>
      </trkpt>
      <trkpt lat="43.03688" lon="1.07976">
        <ele>358.4</ele>
        <time>2024-04-21T14:14:18.993Z</time>
      </trkpt>
      <trkpt lat="43.03683" lon="1.07977">
        <ele>358.8</ele>
        <time>2024-04-21T14:14:19.993Z</time>
      </trkpt>
      <trkpt lat="43.03678" lon="1.07976">
        <ele>359.4</ele>
        <time>2024-04-21T14:14:20.993Z</time>
      </trkpt>
      <trkpt lat="43.03672" lon="1.07978">
        <ele>359.6</ele>
        <time>2024-04-21T14:14:21.993Z</time>
      </trkpt>
      <trkpt lat="43.03667" lon="1.07977">
        <ele>358.8</ele>
        <time>2024-04-21T14:14:22.993Z</time>
      </trkpt>
      <trkpt lat="43.03662" lon="1.07978">
        <ele>358.4</ele>
        <time>2024-04-21T14:14:23.993Z</time>
      </trkpt>
      <trkpt lat="43.03658" lon="1.07978">
        <ele>358.6</ele>
        <time>2024-04-21T14:14:24.993Z</time>
      </trkpt>
      <trkpt lat="43.03653" lon="1.07979">
        <ele>358</ele>
        <time>2024-04-21T14:14:25.993Z</time>
      </trkpt>
      <trkpt lat="43.03648" lon="1.07978">
        <ele>358.4</ele>
        <time>2024-04-21T14:14:26.993Z</time>
      </trkpt>
      <trkpt lat="43.03644" lon="1.07979">
        <ele>358.4</ele>
        <time>2024-04-21T14:14:27.993Z</time>
      </trkpt>
      <trkpt lat="43.03639" lon="1.07979">
        <ele>358.4</ele>
        <time>2024-04-21T14:14:28.993Z</time>
      </trkpt>
      <trkpt lat="43.03634" lon="1.0798">
        <ele>357.6</ele>
        <time>2024-04-21T14:14:29.993Z</time>
      </trkpt>
      <trkpt lat="43.0363" lon="1.07981">
        <ele>357.8</ele>
        <time>2024-04-21T14:14:30.993Z</time>
      </trkpt>
      <trkpt lat="43.03625" lon="1.07981">
        <ele>357.8</ele>
        <time>2024-04-21T14:14:31.993Z</time>
      </trkpt>
      <trkpt lat="43.0362" lon="1.07982">
        <ele>357.8</ele>
        <time>2024-04-21T14:14:32.993Z</time>
      </trkpt>
      <trkpt lat="43.03615" lon="1.07981">
        <ele>357.8</ele>
        <time>2024-04-21T14:14:33.993Z</time>
      </trkpt>
      <trkpt lat="43.03611" lon="1.07979">
        <ele>357.8</ele>
        <time>2024-04-21T14:14:34.993Z</time>
      </trkpt>
      <trkpt lat="43.03607" lon="1.07974">
        <ele>357.2</ele>
        <time>2024-04-21T14:14:35.993Z</time>
      </trkpt>
      <trkpt lat="43.03603" lon="1.0797">
        <ele>356.8</ele>
        <time>2024-04-21T14:14:36.993Z</time>
      </trkpt>
      <trkpt lat="43.03599" lon="1.07965">
        <ele>356.4</ele>
        <time>2024-04-21T14:14:37.993Z</time>
      </trkpt>
      <trkpt lat="43.03594" lon="1.07963">
        <ele>356.4</ele>
        <time>2024-04-21T14:14:38.993Z</time>
      </trkpt>
      <trkpt lat="43.03588" lon="1.07962">
        <ele>356.6</ele>
        <time>2024-04-21T14:14:39.993Z</time>
      </trkpt>
      <trkpt lat="43.03583" lon="1.07961">
        <ele>356</ele>
        <time>2024-04-21T14:14:40.993Z</time>
      </trkpt>
      <trkpt lat="43.03578" lon="1.07957">
        <ele>355.8</ele>
        <time>2024-04-21T14:14:41.993Z</time>
      </trkpt>
      <trkpt lat="43.03575" lon="1.07952">
        <ele>355.6</ele>
        <time>2024-04-21T14:14:42.993Z</time>
      </trkpt>
      <trkpt lat="43.03571" lon="1.07947">
        <ele>355.6</ele>
        <time>2024-04-21T14:14:43.993Z</time>
      </trkpt>
      <trkpt lat="43.03569" lon="1.07941">
        <ele>355.6</ele>
        <time>2024-04-21T14:14:44.993Z</time>
      </trkpt>
      <trkpt lat="43.03567" lon="1.07935">
        <ele>355.6</ele>
        <time>2024-04-21T14:14:45.993Z</time>
      </trkpt>
      <trkpt lat="43.03565" lon="1.07929">
        <ele>355.4</ele>
        <time>2024-04-21T14:14:46.993Z</time>
      </trkpt>
      <trkpt lat="43.03563" lon="1.07924">
        <ele>355.4</ele>
        <time>2024-04-21T14:14:47.993Z</time>
      </trkpt>
      <trkpt lat="43.03562" lon="1.07918">
        <ele>355.4</ele>
        <time>2024-04-21T14:14:48.993Z</time>
      </trkpt>
      <trkpt lat="43.0356" lon="1.07912">
        <ele>355.4</ele>
        <time>2024-04-21T14:14:49.993Z</time>
      </trkpt>
      <trkpt lat="43.03559" lon="1.07905">
        <ele>355.4</ele>
        <time>2024-04-21T14:14:50.993Z</time>
      </trkpt>
      <trkpt lat="43.03559" lon="1.07899">
        <ele>355.4</ele>
        <time>2024-04-21T14:14:51.993Z</time>
      </trkpt>
      <trkpt lat="43.03558" lon="1.07892">
        <ele>355.4</ele>
        <time>2024-04-21T14:14:52.993Z</time>
      </trkpt>
      <trkpt lat="43.03558" lon="1.07886">
        <ele>354.6</ele>
        <time>2024-04-21T14:14:53.993Z</time>
      </trkpt>
      <trkpt lat="43.03557" lon="1.0788">
        <ele>354.6</ele>
        <time>2024-04-21T14:14:54.993Z</time>
      </trkpt>
      <trkpt lat="43.03556" lon="1.07874">
        <ele>354.6</ele>
        <time>2024-04-21T14:14:55.993Z</time>
      </trkpt>
      <trkpt lat="43.03556" lon="1.07868">
        <ele>354.6</ele>
        <time>2024-04-21T14:14:56.993Z</time>
      </trkpt>
      <trkpt lat="43.03555" lon="1.07862">
        <ele>354.6</ele>
        <time>2024-04-21T14:14:57.993Z</time>
      </trkpt>
      <trkpt lat="43.03555" lon="1.07855">
        <ele>354.6</ele>
        <time>2024-04-21T14:14:58.993Z</time>
      </trkpt>
      <trkpt lat="43.03555" lon="1.07849">
        <ele>354.6</ele>
        <time>2024-04-21T14:14:59.993Z</time>
      </trkpt>
      <trkpt lat="43.03555" lon="1.07843">
        <ele>355</ele>
        <time>2024-04-21T14:15:00.993Z</time>
      </trkpt>
      <trkpt lat="43.03555" lon="1.07836">
        <ele>355</ele>
        <time>2024-04-21T14:15:01.993Z</time>
      </trkpt>
      <trkpt lat="43.03556" lon="1.0783">
        <ele>355</ele>
        <time>2024-04-21T14:15:02.993Z</time>
      </trkpt>
      <trkpt lat="43.03556" lon="1.07824">
        <ele>355</ele>
        <time>2024-04-21T14:15:03.993Z</time>
      </trkpt>
      <trkpt lat="43.03556" lon="1.07817">
        <ele>354.4</ele>
        <time>2024-04-21T14:15:04.993Z</time>
      </trkpt>
      <trkpt lat="43.03557" lon="1.0781">
        <ele>354.4</ele>
        <time>2024-04-21T14:15:05.993Z</time>
      </trkpt>
      <trkpt lat="43.03558" lon="1.07804">
        <ele>354.2</ele>
        <time>2024-04-21T14:15:06.993Z</time>
      </trkpt>
      <trkpt lat="43.03558" lon="1.07797">
        <ele>354.2</ele>
        <time>2024-04-21T14:15:07.993Z</time>
      </trkpt>
      <trkpt lat="43.03558" lon="1.07792">
        <ele>354.2</ele>
        <time>2024-04-21T14:15:08.993Z</time>
      </trkpt>
      <trkpt lat="43.03558" lon="1.07785">
        <ele>354.6</ele>
        <time>2024-04-21T14:15:09.993Z</time>
      </trkpt>
      <trkpt lat="43.03558" lon="1.07779">
        <ele>354.2</ele>
        <time>2024-04-21T14:15:10.993Z</time>
      </trkpt>
      <trkpt lat="43.03558" lon="1.07773">
        <ele>354.2</ele>
        <time>2024-04-21T14:15:11.993Z</time>
      </trkpt>
      <trkpt lat="43.03557" lon="1.07767">
        <ele>354</ele>
        <time>2024-04-21T14:15:12.993Z</time>
      </trkpt>
      <trkpt lat="43.03557" lon="1.07761">
        <ele>354.2</ele>
        <time>2024-04-21T14:15:13.993Z</time>
      </trkpt>
      <trkpt lat="43.03556" lon="1.07755">
        <ele>354.2</ele>
        <time>2024-04-21T14:15:14.993Z</time>
      </trkpt>
      <trkpt lat="43.03555" lon="1.07749">
        <ele>354.4</ele>
        <time>2024-04-21T14:15:15.993Z</time>
      </trkpt>
      <trkpt lat="43.03555" lon="1.07743">
        <ele>354.4</ele>
        <time>2024-04-21T14:15:16.993Z</time>
      </trkpt>
      <trkpt lat="43.03554" lon="1.07737">
        <ele>354.8</ele>
        <time>2024-04-21T14:15:17.993Z</time>
      </trkpt>
      <trkpt lat="43.03552" lon="1.07731">
        <ele>354.8</ele>
        <time>2024-04-21T14:15:18.993Z</time>
      </trkpt>
      <trkpt lat="43.03551" lon="1.07725">
        <ele>354.2</ele>
        <time>2024-04-21T14:15:19.993Z</time>
      </trkpt>
      <trkpt lat="43.0355" lon="1.07718">
        <ele>354.2</ele>
        <time>2024-04-21T14:15:20.993Z</time>
      </trkpt>
      <trkpt lat="43.0355" lon="1.07712">
        <ele>354.2</ele>
        <time>2024-04-21T14:15:21.993Z</time>
      </trkpt>
      <trkpt lat="43.0355" lon="1.07706">
        <ele>354.2</ele>
        <time>2024-04-21T14:15:22.993Z</time>
      </trkpt>
      <trkpt lat="43.0355" lon="1.077">
        <ele>354.2</ele>
        <time>2024-04-21T14:15:23.993Z</time>
      </trkpt>
      <trkpt lat="43.0355" lon="1.07693">
        <ele>354</ele>
        <time>2024-04-21T14:15:24.993Z</time>
      </trkpt>
      <trkpt lat="43.03551" lon="1.07687">
        <ele>354.2</ele>
        <time>2024-04-21T14:15:25.993Z</time>
      </trkpt>
      <trkpt lat="43.03552" lon="1.07681">
        <ele>354.4</ele>
        <time>2024-04-21T14:15:26.993Z</time>
      </trkpt>
      <trkpt lat="43.03553" lon="1.07675">
        <ele>354.6</ele>
        <time>2024-04-21T14:15:27.993Z</time>
      </trkpt>
      <trkpt lat="43.03555" lon="1.07669">
        <ele>354.4</ele>
        <time>2024-04-21T14:15:28.993Z</time>
      </trkpt>
      <trkpt lat="43.03556" lon="1.07663">
        <ele>354.2</ele>
        <time>2024-04-21T14:15:29.993Z</time>
      </trkpt>
      <trkpt lat="43.03557" lon="1.07657">
        <ele>354.4</ele>
        <time>2024-04-21T14:15:30.993Z</time>
      </trkpt>
      <trkpt lat="43.03558" lon="1.07652">
        <ele>354.4</ele>
        <time>2024-04-21T14:15:31.993Z</time>
      </trkpt>
      <trkpt lat="43.03559" lon="1.07646">
        <ele>354.8</ele>
        <time>2024-04-21T14:15:32.993Z</time>
      </trkpt>
      <trkpt lat="43.03561" lon="1.0764">
        <ele>354.4</ele>
        <time>2024-04-21T14:15:33.993Z</time>
      </trkpt>
      <trkpt lat="43.03561" lon="1.07634">
        <ele>354.2</ele>
        <time>2024-04-21T14:15:34.993Z</time>
      </trkpt>
      <trkpt lat="43.03562" lon="1.07628">
        <ele>354.2</ele>
        <time>2024-04-21T14:15:35.993Z</time>
      </trkpt>
      <trkpt lat="43.03563" lon="1.07622">
        <ele>353.8</ele>
        <time>2024-04-21T14:15:36.993Z</time>
      </trkpt>
      <trkpt lat="43.03564" lon="1.07616">
        <ele>354.4</ele>
        <time>2024-04-21T14:15:37.993Z</time>
      </trkpt>
      <trkpt lat="43.03565" lon="1.07611">
        <ele>354</ele>
        <time>2024-04-21T14:15:38.993Z</time>
      </trkpt>
      <trkpt lat="43.03566" lon="1.07605">
        <ele>354</ele>
        <time>2024-04-21T14:15:39.993Z</time>
      </trkpt>
      <trkpt lat="43.03567" lon="1.07599">
        <ele>354</ele>
        <time>2024-04-21T14:15:40.993Z</time>
      </trkpt>
      <trkpt lat="43.03568" lon="1.07594">
        <ele>354</ele>
        <time>2024-04-21T14:15:41.993Z</time>
      </trkpt>
      <trkpt lat="43.0357" lon="1.07588">
        <ele>354</ele>
        <time>2024-04-21T14:15:42.993Z</time>
      </trkpt>
      <trkpt lat="43.03572" lon="1.07583">
        <ele>353.4</ele>
        <time>2024-04-21T14:15:43.993Z</time>
      </trkpt>
      <trkpt lat="43.03574" lon="1.07578">
        <ele>353.4</ele>
        <time>2024-04-21T14:15:44.993Z</time>
      </trkpt>
      <trkpt lat="43.03576" lon="1.07573">
        <ele>353.4</ele>
        <time>2024-04-21T14:15:45.993Z</time>
      </trkpt>
      <trkpt lat="43.03578" lon="1.07568">
        <ele>353.2</ele>
        <time>2024-04-21T14:15:46.993Z</time>
      </trkpt>
      <trkpt lat="43.03581" lon="1.07563">
        <ele>353.2</ele>
        <time>2024-04-21T14:15:47.993Z</time>
      </trkpt>
      <trkpt lat="43.03583" lon="1.07557">
        <ele>352.8</ele>
        <time>2024-04-21T14:15:48.993Z</time>
      </trkpt>
      <trkpt lat="43.03585" lon="1.07552">
        <ele>352.8</ele>
        <time>2024-04-21T14:15:49.993Z</time>
      </trkpt>
      <trkpt lat="43.03587" lon="1.07547">
        <ele>352.8</ele>
        <time>2024-04-21T14:15:50.993Z</time>
      </trkpt>
      <trkpt lat="43.03589" lon="1.07542">
        <ele>352.2</ele>
        <time>2024-04-21T14:15:51.993Z</time>
      </trkpt>
      <trkpt lat="43.03591" lon="1.07537">
        <ele>352.8</ele>
        <time>2024-04-21T14:15:52.993Z</time>
      </trkpt>
      <trkpt lat="43.03593" lon="1.07531">
        <ele>352.8</ele>
        <time>2024-04-21T14:15:53.993Z</time>
      </trkpt>
      <trkpt lat="43.03595" lon="1.07526">
        <ele>353</ele>
        <time>2024-04-21T14:15:54.993Z</time>
      </trkpt>
      <trkpt lat="43.03596" lon="1.0752">
        <ele>353</ele>
        <time>2024-04-21T14:15:55.993Z</time>
      </trkpt>
      <trkpt lat="43.03598" lon="1.07515">
        <ele>353</ele>
        <time>2024-04-21T14:15:56.993Z</time>
      </trkpt>
      <trkpt lat="43.036" lon="1.07509">
        <ele>352.6</ele>
        <time>2024-04-21T14:15:57.993Z</time>
      </trkpt>
      <trkpt lat="43.03601" lon="1.07503">
        <ele>352.8</ele>
        <time>2024-04-21T14:15:58.993Z</time>
      </trkpt>
      <trkpt lat="43.03603" lon="1.07498">
        <ele>352.8</ele>
        <time>2024-04-21T14:15:59.993Z</time>
      </trkpt>
      <trkpt lat="43.03605" lon="1.07492">
        <ele>352.8</ele>
        <time>2024-04-21T14:16:00.993Z</time>
      </trkpt>
      <trkpt lat="43.03607" lon="1.07487">
        <ele>352.8</ele>
        <time>2024-04-21T14:16:01.993Z</time>
      </trkpt>
      <trkpt lat="43.03609" lon="1.07481">
        <ele>352.8</ele>
        <time>2024-04-21T14:16:02.993Z</time>
      </trkpt>
      <trkpt lat="43.0361" lon="1.07476">
        <ele>352.8</ele>
        <time>2024-04-21T14:16:03.993Z</time>
      </trkpt>
      <trkpt lat="43.03612" lon="1.07471">
        <ele>353.2</ele>
        <time>2024-04-21T14:16:04.993Z</time>
      </trkpt>
      <trkpt lat="43.03614" lon="1.07465">
        <ele>353.2</ele>
        <time>2024-04-21T14:16:05.993Z</time>
      </trkpt>
      <trkpt lat="43.03615" lon="1.07459">
        <ele>353.2</ele>
        <time>2024-04-21T14:16:06.993Z</time>
      </trkpt>
      <trkpt lat="43.03617" lon="1.07454">
        <ele>353.2</ele>
        <time>2024-04-21T14:16:07.993Z</time>
      </trkpt>
      <trkpt lat="43.03619" lon="1.07448">
        <ele>353.2</ele>
        <time>2024-04-21T14:16:08.993Z</time>
      </trkpt>
      <trkpt lat="43.0362" lon="1.07443">
        <ele>353.2</ele>
        <time>2024-04-21T14:16:09.993Z</time>
      </trkpt>
      <trkpt lat="43.03621" lon="1.07436">
        <ele>353.2</ele>
        <time>2024-04-21T14:16:10.993Z</time>
      </trkpt>
      <trkpt lat="43.03622" lon="1.0743">
        <ele>352.8</ele>
        <time>2024-04-21T14:16:11.993Z</time>
      </trkpt>
      <trkpt lat="43.03623" lon="1.07424">
        <ele>352.8</ele>
        <time>2024-04-21T14:16:12.993Z</time>
      </trkpt>
      <trkpt lat="43.03623" lon="1.07418">
        <ele>352.6</ele>
        <time>2024-04-21T14:16:13.993Z</time>
      </trkpt>
      <trkpt lat="43.03624" lon="1.07412">
        <ele>352.8</ele>
        <time>2024-04-21T14:16:14.993Z</time>
      </trkpt>
      <trkpt lat="43.03625" lon="1.07406">
        <ele>352.8</ele>
        <time>2024-04-21T14:16:15.993Z</time>
      </trkpt>
      <trkpt lat="43.03626" lon="1.074">
        <ele>352.8</ele>
        <time>2024-04-21T14:16:16.993Z</time>
      </trkpt>
      <trkpt lat="43.03627" lon="1.07394">
        <ele>353.2</ele>
        <time>2024-04-21T14:16:17.993Z</time>
      </trkpt>
      <trkpt lat="43.03628" lon="1.07388">
        <ele>353.2</ele>
        <time>2024-04-21T14:16:18.993Z</time>
      </trkpt>
      <trkpt lat="43.03629" lon="1.07383">
        <ele>353.6</ele>
        <time>2024-04-21T14:16:19.993Z</time>
      </trkpt>
      <trkpt lat="43.0363" lon="1.07378">
        <ele>353.6</ele>
        <time>2024-04-21T14:16:20.993Z</time>
      </trkpt>
      <trkpt lat="43.0363" lon="1.07372">
        <ele>353</ele>
        <time>2024-04-21T14:16:21.993Z</time>
      </trkpt>
      <trkpt lat="43.03632" lon="1.07367">
        <ele>353</ele>
        <time>2024-04-21T14:16:22.993Z</time>
      </trkpt>
      <trkpt lat="43.03633" lon="1.07362">
        <ele>353</ele>
        <time>2024-04-21T14:16:23.993Z</time>
      </trkpt>
      <trkpt lat="43.03635" lon="1.07356">
        <ele>353</ele>
        <time>2024-04-21T14:16:24.993Z</time>
      </trkpt>
      <trkpt lat="43.03637" lon="1.07351">
        <ele>353</ele>
        <time>2024-04-21T14:16:25.993Z</time>
      </trkpt>
      <trkpt lat="43.03638" lon="1.07346">
        <ele>353</ele>
        <time>2024-04-21T14:16:26.993Z</time>
      </trkpt>
      <trkpt lat="43.03639" lon="1.0734">
        <ele>353</ele>
        <time>2024-04-21T14:16:27.993Z</time>
      </trkpt>
      <trkpt lat="43.03641" lon="1.07335">
        <ele>353</ele>
        <time>2024-04-21T14:16:28.993Z</time>
      </trkpt>
      <trkpt lat="43.03642" lon="1.07329">
        <ele>353.4</ele>
        <time>2024-04-21T14:16:29.993Z</time>
      </trkpt>
      <trkpt lat="43.03644" lon="1.07324">
        <ele>353.4</ele>
        <time>2024-04-21T14:16:30.993Z</time>
      </trkpt>
      <trkpt lat="43.03645" lon="1.07319">
        <ele>353</ele>
        <time>2024-04-21T14:16:31.993Z</time>
      </trkpt>
      <trkpt lat="43.03647" lon="1.07313">
        <ele>353</ele>
        <time>2024-04-21T14:16:32.993Z</time>
      </trkpt>
      <trkpt lat="43.03648" lon="1.07308">
        <ele>353</ele>
        <time>2024-04-21T14:16:33.993Z</time>
      </trkpt>
      <trkpt lat="43.03649" lon="1.07302">
        <ele>353</ele>
        <time>2024-04-21T14:16:34.993Z</time>
      </trkpt>
      <trkpt lat="43.03651" lon="1.07296">
        <ele>353</ele>
        <time>2024-04-21T14:16:35.993Z</time>
      </trkpt>
      <trkpt lat="43.03652" lon="1.07291">
        <ele>353</ele>
        <time>2024-04-21T14:16:36.993Z</time>
      </trkpt>
      <trkpt lat="43.03653" lon="1.07286">
        <ele>352.8</ele>
        <time>2024-04-21T14:16:37.993Z</time>
      </trkpt>
      <trkpt lat="43.03654" lon="1.0728">
        <ele>352.8</ele>
        <time>2024-04-21T14:16:38.993Z</time>
      </trkpt>
      <trkpt lat="43.03656" lon="1.07275">
        <ele>353</ele>
        <time>2024-04-21T14:16:39.993Z</time>
      </trkpt>
      <trkpt lat="43.03657" lon="1.07269">
        <ele>353</ele>
        <time>2024-04-21T14:16:40.993Z</time>
      </trkpt>
      <trkpt lat="43.03657" lon="1.07263">
        <ele>353</ele>
        <time>2024-04-21T14:16:41.993Z</time>
      </trkpt>
      <trkpt lat="43.03658" lon="1.07257">
        <ele>353</ele>
        <time>2024-04-21T14:16:42.993Z</time>
      </trkpt>
      <trkpt lat="43.03658" lon="1.07251">
        <ele>352.6</ele>
        <time>2024-04-21T14:16:43.993Z</time>
      </trkpt>
      <trkpt lat="43.03658" lon="1.07245">
        <ele>352.6</ele>
        <time>2024-04-21T14:16:44.993Z</time>
      </trkpt>
      <trkpt lat="43.03658" lon="1.0724">
        <ele>352.6</ele>
        <time>2024-04-21T14:16:45.993Z</time>
      </trkpt>
      <trkpt lat="43.03656" lon="1.07234">
        <ele>352.6</ele>
        <time>2024-04-21T14:16:46.993Z</time>
      </trkpt>
      <trkpt lat="43.03656" lon="1.07228">
        <ele>352.4</ele>
        <time>2024-04-21T14:16:47.993Z</time>
      </trkpt>
      <trkpt lat="43.03656" lon="1.07221">
        <ele>352.6</ele>
        <time>2024-04-21T14:16:48.993Z</time>
      </trkpt>
      <trkpt lat="43.03655" lon="1.07216">
        <ele>352.6</ele>
        <time>2024-04-21T14:16:49.993Z</time>
      </trkpt>
      <trkpt lat="43.03655" lon="1.0721">
        <ele>352.6</ele>
        <time>2024-04-21T14:16:50.993Z</time>
      </trkpt>
      <trkpt lat="43.03655" lon="1.07204">
        <ele>353</ele>
        <time>2024-04-21T14:16:51.993Z</time>
      </trkpt>
      <trkpt lat="43.03656" lon="1.07198">
        <ele>353</ele>
        <time>2024-04-21T14:16:52.993Z</time>
      </trkpt>
      <trkpt lat="43.03657" lon="1.07193">
        <ele>353</ele>
        <time>2024-04-21T14:16:53.993Z</time>
      </trkpt>
      <trkpt lat="43.03657" lon="1.07186">
        <ele>352.6</ele>
        <time>2024-04-21T14:16:54.993Z</time>
      </trkpt>
      <trkpt lat="43.03658" lon="1.0718">
        <ele>352.6</ele>
        <time>2024-04-21T14:16:55.993Z</time>
      </trkpt>
      <trkpt lat="43.03659" lon="1.07174">
        <ele>352.6</ele>
        <time>2024-04-21T14:16:56.993Z</time>
      </trkpt>
      <trkpt lat="43.0366" lon="1.07169">
        <ele>352.6</ele>
        <time>2024-04-21T14:16:57.993Z</time>
      </trkpt>
      <trkpt lat="43.03662" lon="1.07163">
        <ele>352.6</ele>
        <time>2024-04-21T14:16:58.993Z</time>
      </trkpt>
      <trkpt lat="43.03663" lon="1.07158">
        <ele>352.2</ele>
        <time>2024-04-21T14:16:59.993Z</time>
      </trkpt>
      <trkpt lat="43.03665" lon="1.07153">
        <ele>352.2</ele>
        <time>2024-04-21T14:17:00.993Z</time>
      </trkpt>
      <trkpt lat="43.03667" lon="1.07148">
        <ele>352.2</ele>
        <time>2024-04-21T14:17:01.993Z</time>
      </trkpt>
      <trkpt lat="43.03666" lon="1.07143">
        <ele>351.8</ele>
        <time>2024-04-21T14:17:02.993Z</time>
      </trkpt>
      <trkpt lat="43.03664" lon="1.07139">
        <ele>351.8</ele>
        <time>2024-04-21T14:17:03.993Z</time>
      </trkpt>
      <trkpt lat="43.03661" lon="1.07135">
        <ele>351.8</ele>
        <time>2024-04-21T14:17:04.993Z</time>
      </trkpt>
      <trkpt lat="43.03659" lon="1.0713">
        <ele>351.8</ele>
        <time>2024-04-21T14:17:05.993Z</time>
      </trkpt>
      <trkpt lat="43.03656" lon="1.07127">
        <ele>351.4</ele>
        <time>2024-04-21T14:17:06.993Z</time>
      </trkpt>
      <trkpt lat="43.03652" lon="1.07123">
        <ele>351.4</ele>
        <time>2024-04-21T14:17:07.993Z</time>
      </trkpt>
      <trkpt lat="43.0365" lon="1.0712">
        <ele>351.4</ele>
        <time>2024-04-21T14:17:08.993Z</time>
      </trkpt>
      <trkpt lat="43.03647" lon="1.07118">
        <ele>351.4</ele>
        <time>2024-04-21T14:17:09.993Z</time>
      </trkpt>
      <trkpt lat="43.03644" lon="1.07116">
        <ele>351.6</ele>
        <time>2024-04-21T14:17:10.993Z</time>
      </trkpt>
      <trkpt lat="43.03642" lon="1.07114">
        <ele>351.6</ele>
        <time>2024-04-21T14:17:11.993Z</time>
      </trkpt>
      <trkpt lat="43.03639" lon="1.07112">
        <ele>352</ele>
        <time>2024-04-21T14:17:12.993Z</time>
      </trkpt>
      <trkpt lat="43.03636" lon="1.0711">
        <ele>352</ele>
        <time>2024-04-21T14:17:13.993Z</time>
      </trkpt>
      <trkpt lat="43.03633" lon="1.07108">
        <ele>352.2</ele>
        <time>2024-04-21T14:17:14.993Z</time>
      </trkpt>
      <trkpt lat="43.03631" lon="1.07106">
        <ele>352.2</ele>
        <time>2024-04-21T14:17:15.993Z</time>
      </trkpt>
      <trkpt lat="43.03628" lon="1.07105">
        <ele>352.2</ele>
        <time>2024-04-21T14:17:16.993Z</time>
      </trkpt>
      <trkpt lat="43.03626" lon="1.07103">
        <ele>352.6</ele>
        <time>2024-04-21T14:17:17.993Z</time>
      </trkpt>
      <trkpt lat="43.03623" lon="1.07102">
        <ele>352.6</ele>
        <time>2024-04-21T14:17:18.993Z</time>
      </trkpt>
      <trkpt lat="43.0362" lon="1.071">
        <ele>352.6</ele>
        <time>2024-04-21T14:17:19.993Z</time>
      </trkpt>
      <trkpt lat="43.03618" lon="1.07098">
        <ele>352.6</ele>
        <time>2024-04-21T14:17:20.993Z</time>
      </trkpt>
      <trkpt lat="43.03616" lon="1.07096">
        <ele>352.6</ele>
        <time>2024-04-21T14:17:21.993Z</time>
      </trkpt>
      <trkpt lat="43.03613" lon="1.07095">
        <ele>352.8</ele>
        <time>2024-04-21T14:17:22.993Z</time>
      </trkpt>
      <trkpt lat="43.0361" lon="1.07094">
        <ele>353.2</ele>
        <time>2024-04-21T14:17:23.993Z</time>
      </trkpt>
      <trkpt lat="43.03607" lon="1.07092">
        <ele>353.2</ele>
        <time>2024-04-21T14:17:24.993Z</time>
      </trkpt>
      <trkpt lat="43.03605" lon="1.0709">
        <ele>352.8</ele>
        <time>2024-04-21T14:17:25.993Z</time>
      </trkpt>
      <trkpt lat="43.03603" lon="1.07087">
        <ele>352.8</ele>
        <time>2024-04-21T14:17:26.993Z</time>
      </trkpt>
      <trkpt lat="43.03601" lon="1.07084">
        <ele>352.8</ele>
        <time>2024-04-21T14:17:27.993Z</time>
      </trkpt>
      <trkpt lat="43.036" lon="1.0708">
        <ele>352.8</ele>
        <time>2024-04-21T14:17:28.993Z</time>
      </trkpt>
      <trkpt lat="43.03599" lon="1.07077">
        <ele>352.6</ele>
        <time>2024-04-21T14:17:29.993Z</time>
      </trkpt>
      <trkpt lat="43.03598" lon="1.07074">
        <ele>352.6</ele>
        <time>2024-04-21T14:17:30.993Z</time>
      </trkpt>
      <trkpt lat="43.03598" lon="1.0707">
        <ele>352.6</ele>
        <time>2024-04-21T14:17:31.993Z</time>
      </trkpt>
      <trkpt lat="43.03599" lon="1.07066">
        <ele>352.6</ele>
        <time>2024-04-21T14:17:32.993Z</time>
      </trkpt>
      <trkpt lat="43.036" lon="1.07062">
        <ele>352.6</ele>
        <time>2024-04-21T14:17:33.993Z</time>
      </trkpt>
      <trkpt lat="43.036" lon="1.07062">
        <ele>352.6</ele>
        <time>2024-04-21T14:17:34.993Z</time>
      </trkpt>
      <trkpt lat="43.03601" lon="1.07058">
        <ele>352.6</ele>
        <time>2024-04-21T14:17:35.993Z</time>
      </trkpt>
      <trkpt lat="43.03602" lon="1.07054">
        <ele>352.6</ele>
        <time>2024-04-21T14:17:36.993Z</time>
      </trkpt>
      <trkpt lat="43.03603" lon="1.0705">
        <ele>352.6</ele>
        <time>2024-04-21T14:17:37.993Z</time>
      </trkpt>
      <trkpt lat="43.03605" lon="1.07046">
        <ele>352.6</ele>
        <time>2024-04-21T14:17:38.993Z</time>
      </trkpt>
      <trkpt lat="43.03607" lon="1.07043">
        <ele>352.6</ele>
        <time>2024-04-21T14:17:39.993Z</time>
      </trkpt>
      <trkpt lat="43.03608" lon="1.0704">
        <ele>352.6</ele>
        <time>2024-04-21T14:17:40.993Z</time>
      </trkpt>
      <trkpt lat="43.0361" lon="1.07036">
        <ele>352.6</ele>
        <time>2024-04-21T14:17:41.993Z</time>
      </trkpt>
      <trkpt lat="43.03612" lon="1.07032">
        <ele>352.6</ele>
        <time>2024-04-21T14:17:42.993Z</time>
      </trkpt>
      <trkpt lat="43.03614" lon="1.07029">
        <ele>352.6</ele>
        <time>2024-04-21T14:17:43.993Z</time>
      </trkpt>
      <trkpt lat="43.03616" lon="1.07025">
        <ele>352.6</ele>
        <time>2024-04-21T14:17:44.993Z</time>
      </trkpt>
      <trkpt lat="43.03617" lon="1.07022">
        <ele>352.2</ele>
        <time>2024-04-21T14:17:45.993Z</time>
      </trkpt>
      <trkpt lat="43.03619" lon="1.07018">
        <ele>352.2</ele>
        <time>2024-04-21T14:17:46.993Z</time>
      </trkpt>
      <trkpt lat="43.03621" lon="1.07015">
        <ele>352.2</ele>
        <time>2024-04-21T14:17:47.993Z</time>
      </trkpt>
      <trkpt lat="43.03623" lon="1.07011">
        <ele>352.2</ele>
        <time>2024-04-21T14:17:48.993Z</time>
      </trkpt>
      <trkpt lat="43.03624" lon="1.07006">
        <ele>352.2</ele>
        <time>2024-04-21T14:17:49.993Z</time>
      </trkpt>
      <trkpt lat="43.03625" lon="1.07002">
        <ele>352.2</ele>
        <time>2024-04-21T14:17:50.993Z</time>
      </trkpt>
      <trkpt lat="43.03627" lon="1.06998">
        <ele>352.2</ele>
        <time>2024-04-21T14:17:51.993Z</time>
      </trkpt>
      <trkpt lat="43.03628" lon="1.06995">
        <ele>352.2</ele>
        <time>2024-04-21T14:17:52.993Z</time>
      </trkpt>
      <trkpt lat="43.03629" lon="1.0699">
        <ele>352.2</ele>
        <time>2024-04-21T14:17:53.993Z</time>
      </trkpt>
      <trkpt lat="43.03631" lon="1.06986">
        <ele>352.2</ele>
        <time>2024-04-21T14:17:54.993Z</time>
      </trkpt>
      <trkpt lat="43.03632" lon="1.06982">
        <ele>352.2</ele>
        <time>2024-04-21T14:17:55.993Z</time>
      </trkpt>
      <trkpt lat="43.03634" lon="1.06977">
        <ele>352.2</ele>
        <time>2024-04-21T14:17:56.993Z</time>
      </trkpt>
      <trkpt lat="43.03636" lon="1.06973">
        <ele>352.2</ele>
        <time>2024-04-21T14:17:57.993Z</time>
      </trkpt>
      <trkpt lat="43.03638" lon="1.06969">
        <ele>352.2</ele>
        <time>2024-04-21T14:17:58.993Z</time>
      </trkpt>
      <trkpt lat="43.03639" lon="1.06964">
        <ele>352.2</ele>
        <time>2024-04-21T14:17:59.993Z</time>
      </trkpt>
      <trkpt lat="43.03641" lon="1.0696">
        <ele>352.2</ele>
        <time>2024-04-21T14:18:00.993Z</time>
      </trkpt>
      <trkpt lat="43.03643" lon="1.06955">
        <ele>352.2</ele>
        <time>2024-04-21T14:18:01.993Z</time>
      </trkpt>
      <trkpt lat="43.03645" lon="1.06951">
        <ele>352.2</ele>
        <time>2024-04-21T14:18:02.993Z</time>
      </trkpt>
      <trkpt lat="43.03647" lon="1.06946">
        <ele>352.2</ele>
        <time>2024-04-21T14:18:03.993Z</time>
      </trkpt>
      <trkpt lat="43.03649" lon="1.06942">
        <ele>352.2</ele>
        <time>2024-04-21T14:18:04.993Z</time>
      </trkpt>
      <trkpt lat="43.03651" lon="1.06938">
        <ele>352.2</ele>
        <time>2024-04-21T14:18:05.993Z</time>
      </trkpt>
      <trkpt lat="43.03652" lon="1.06933">
        <ele>352.2</ele>
        <time>2024-04-21T14:18:06.993Z</time>
      </trkpt>
      <trkpt lat="43.03654" lon="1.06928">
        <ele>352.2</ele>
        <time>2024-04-21T14:18:07.993Z</time>
      </trkpt>
      <trkpt lat="43.03657" lon="1.0692">
        <ele>352.2</ele>
        <time>2024-04-21T14:18:08.993Z</time>
      </trkpt>
      <trkpt lat="43.03658" lon="1.06916">
        <ele>352</ele>
        <time>2024-04-21T14:18:09.993Z</time>
      </trkpt>
      <trkpt lat="43.0366" lon="1.06912">
        <ele>352</ele>
        <time>2024-04-21T14:18:10.993Z</time>
      </trkpt>
      <trkpt lat="43.03661" lon="1.06908">
        <ele>352</ele>
        <time>2024-04-21T14:18:11.993Z</time>
      </trkpt>
      <trkpt lat="43.03663" lon="1.06904">
        <ele>351.8</ele>
        <time>2024-04-21T14:18:12.993Z</time>
      </trkpt>
      <trkpt lat="43.03665" lon="1.069">
        <ele>351.6</ele>
        <time>2024-04-21T14:18:13.993Z</time>
      </trkpt>
      <trkpt lat="43.03666" lon="1.06896">
        <ele>351.4</ele>
        <time>2024-04-21T14:18:14.993Z</time>
      </trkpt>
      <trkpt lat="43.03668" lon="1.06892">
        <ele>351.6</ele>
        <time>2024-04-21T14:18:15.993Z</time>
      </trkpt>
      <trkpt lat="43.0367" lon="1.06888">
        <ele>352</ele>
        <time>2024-04-21T14:18:16.993Z</time>
      </trkpt>
      <trkpt lat="43.03672" lon="1.06885">
        <ele>352</ele>
        <time>2024-04-21T14:18:17.993Z</time>
      </trkpt>
      <trkpt lat="43.03673" lon="1.0688">
        <ele>352</ele>
        <time>2024-04-21T14:18:18.993Z</time>
      </trkpt>
      <trkpt lat="43.03675" lon="1.06876">
        <ele>352</ele>
        <time>2024-04-21T14:18:19.993Z</time>
      </trkpt>
      <trkpt lat="43.03677" lon="1.06872">
        <ele>352</ele>
        <time>2024-04-21T14:18:20.993Z</time>
      </trkpt>
      <trkpt lat="43.03678" lon="1.06867">
        <ele>352.2</ele>
        <time>2024-04-21T14:18:21.993Z</time>
      </trkpt>
      <trkpt lat="43.0368" lon="1.06863">
        <ele>352.2</ele>
        <time>2024-04-21T14:18:22.993Z</time>
      </trkpt>
      <trkpt lat="43.03682" lon="1.06858">
        <ele>352.2</ele>
        <time>2024-04-21T14:18:23.993Z</time>
      </trkpt>
      <trkpt lat="43.03684" lon="1.06854">
        <ele>352.2</ele>
        <time>2024-04-21T14:18:24.993Z</time>
      </trkpt>
      <trkpt lat="43.03685" lon="1.0685">
        <ele>352.2</ele>
        <time>2024-04-21T14:18:25.993Z</time>
      </trkpt>
      <trkpt lat="43.03687" lon="1.06847">
        <ele>352.2</ele>
        <time>2024-04-21T14:18:26.993Z</time>
      </trkpt>
      <trkpt lat="43.03689" lon="1.06843">
        <ele>352.2</ele>
        <time>2024-04-21T14:18:27.993Z</time>
      </trkpt>
      <trkpt lat="43.03691" lon="1.06839">
        <ele>352.2</ele>
        <time>2024-04-21T14:18:28.993Z</time>
      </trkpt>
      <trkpt lat="43.03693" lon="1.06835">
        <ele>352</ele>
        <time>2024-04-21T14:18:29.993Z</time>
      </trkpt>
      <trkpt lat="43.03695" lon="1.06832">
        <ele>352</ele>
        <time>2024-04-21T14:18:30.993Z</time>
      </trkpt>
      <trkpt lat="43.03696" lon="1.06828">
        <ele>352</ele>
        <time>2024-04-21T14:18:31.993Z</time>
      </trkpt>
      <trkpt lat="43.03698" lon="1.06824">
        <ele>352</ele>
        <time>2024-04-21T14:18:32.993Z</time>
      </trkpt>
      <trkpt lat="43.037" lon="1.0682">
        <ele>352</ele>
        <time>2024-04-21T14:18:33.993Z</time>
      </trkpt>
      <trkpt lat="43.03702" lon="1.06816">
        <ele>352</ele>
        <time>2024-04-21T14:18:34.993Z</time>
      </trkpt>
      <trkpt lat="43.03703" lon="1.06814">
        <ele>352</ele>
        <time>2024-04-21T14:18:35.993Z</time>
      </trkpt>
      <trkpt lat="43.03705" lon="1.06807">
        <ele>352</ele>
        <time>2024-04-21T14:18:36.993Z</time>
      </trkpt>
      <trkpt lat="43.03707" lon="1.06802">
        <ele>351.6</ele>
        <time>2024-04-21T14:18:37.993Z</time>
      </trkpt>
      <trkpt lat="43.03708" lon="1.06797">
        <ele>351.6</ele>
        <time>2024-04-21T14:18:38.993Z</time>
      </trkpt>
      <trkpt lat="43.0371" lon="1.06792">
        <ele>351.4</ele>
        <time>2024-04-21T14:18:39.993Z</time>
      </trkpt>
      <trkpt lat="43.03712" lon="1.06787">
        <ele>351.4</ele>
        <time>2024-04-21T14:18:40.993Z</time>
      </trkpt>
      <trkpt lat="43.03714" lon="1.06782">
        <ele>351.4</ele>
        <time>2024-04-21T14:18:41.993Z</time>
      </trkpt>
      <trkpt lat="43.03716" lon="1.06778">
        <ele>351.4</ele>
        <time>2024-04-21T14:18:42.993Z</time>
      </trkpt>
      <trkpt lat="43.03719" lon="1.06774">
        <ele>351.6</ele>
        <time>2024-04-21T14:18:43.993Z</time>
      </trkpt>
      <trkpt lat="43.03721" lon="1.0677">
        <ele>351.6</ele>
        <time>2024-04-21T14:18:44.993Z</time>
      </trkpt>
      <trkpt lat="43.03723" lon="1.06766">
        <ele>351.6</ele>
        <time>2024-04-21T14:18:45.993Z</time>
      </trkpt>
      <trkpt lat="43.03724" lon="1.06761">
        <ele>351.2</ele>
        <time>2024-04-21T14:18:46.993Z</time>
      </trkpt>
      <trkpt lat="43.03726" lon="1.06757">
        <ele>351.2</ele>
        <time>2024-04-21T14:18:47.993Z</time>
      </trkpt>
      <trkpt lat="43.03728" lon="1.06753">
        <ele>351.2</ele>
        <time>2024-04-21T14:18:48.993Z</time>
      </trkpt>
      <trkpt lat="43.0373" lon="1.06749">
        <ele>351.2</ele>
        <time>2024-04-21T14:18:49.993Z</time>
      </trkpt>
      <trkpt lat="43.03731" lon="1.06745">
        <ele>351.6</ele>
        <time>2024-04-21T14:18:50.993Z</time>
      </trkpt>
      <trkpt lat="43.03733" lon="1.06741">
        <ele>351.8</ele>
        <time>2024-04-21T14:18:51.993Z</time>
      </trkpt>
      <trkpt lat="43.03734" lon="1.06737">
        <ele>351.6</ele>
        <time>2024-04-21T14:18:52.993Z</time>
      </trkpt>
      <trkpt lat="43.03736" lon="1.06732">
        <ele>351.6</ele>
        <time>2024-04-21T14:18:53.993Z</time>
      </trkpt>
      <trkpt lat="43.03738" lon="1.06727">
        <ele>351.2</ele>
        <time>2024-04-21T14:18:54.993Z</time>
      </trkpt>
      <trkpt lat="43.0374" lon="1.06724">
        <ele>351.2</ele>
        <time>2024-04-21T14:18:55.993Z</time>
      </trkpt>
      <trkpt lat="43.03742" lon="1.0672">
        <ele>350.8</ele>
        <time>2024-04-21T14:18:56.993Z</time>
      </trkpt>
      <trkpt lat="43.03745" lon="1.06718">
        <ele>350.8</ele>
        <time>2024-04-21T14:18:57.993Z</time>
      </trkpt>
      <trkpt lat="43.03747" lon="1.06715">
        <ele>350.8</ele>
        <time>2024-04-21T14:18:58.993Z</time>
      </trkpt>
      <trkpt lat="43.0375" lon="1.06713">
        <ele>350.2</ele>
        <time>2024-04-21T14:18:59.993Z</time>
      </trkpt>
      <trkpt lat="43.03753" lon="1.06712">
        <ele>350.4</ele>
        <time>2024-04-21T14:19:00.993Z</time>
      </trkpt>
      <trkpt lat="43.03756" lon="1.0671">
        <ele>350.4</ele>
        <time>2024-04-21T14:19:01.993Z</time>
      </trkpt>
      <trkpt lat="43.03758" lon="1.06708">
        <ele>350.8</ele>
        <time>2024-04-21T14:19:02.993Z</time>
      </trkpt>
      <trkpt lat="43.03761" lon="1.06706">
        <ele>350.8</ele>
        <time>2024-04-21T14:19:03.993Z</time>
      </trkpt>
      <trkpt lat="43.03764" lon="1.06705">
        <ele>350.4</ele>
        <time>2024-04-21T14:19:04.993Z</time>
      </trkpt>
      <trkpt lat="43.03767" lon="1.06704">
        <ele>350.6</ele>
        <time>2024-04-21T14:19:05.993Z</time>
      </trkpt>
      <trkpt lat="43.0377" lon="1.06703">
        <ele>350.6</ele>
        <time>2024-04-21T14:19:06.993Z</time>
      </trkpt>
      <trkpt lat="43.03773" lon="1.06703">
        <ele>350.6</ele>
        <time>2024-04-21T14:19:07.993Z</time>
      </trkpt>
      <trkpt lat="43.03776" lon="1.06702">
        <ele>350.8</ele>
        <time>2024-04-21T14:19:08.993Z</time>
      </trkpt>
      <trkpt lat="43.0378" lon="1.06702">
        <ele>350.8</ele>
        <time>2024-04-21T14:19:09.993Z</time>
      </trkpt>
      <trkpt lat="43.03783" lon="1.06702">
        <ele>350.8</ele>
        <time>2024-04-21T14:19:10.993Z</time>
      </trkpt>
      <trkpt lat="43.03786" lon="1.06702">
        <ele>350.8</ele>
        <time>2024-04-21T14:19:11.993Z</time>
      </trkpt>
      <trkpt lat="43.03789" lon="1.06702">
        <ele>350.8</ele>
        <time>2024-04-21T14:19:12.993Z</time>
      </trkpt>
      <trkpt lat="43.03793" lon="1.06703">
        <ele>351.2</ele>
        <time>2024-04-21T14:19:13.993Z</time>
      </trkpt>
      <trkpt lat="43.03796" lon="1.06703">
        <ele>351.2</ele>
        <time>2024-04-21T14:19:14.993Z</time>
      </trkpt>
      <trkpt lat="43.038" lon="1.06703">
        <ele>351.2</ele>
        <time>2024-04-21T14:19:15.993Z</time>
      </trkpt>
      <trkpt lat="43.03803" lon="1.06704">
        <ele>351.2</ele>
        <time>2024-04-21T14:19:16.993Z</time>
      </trkpt>
      <trkpt lat="43.03806" lon="1.06704">
        <ele>351.2</ele>
        <time>2024-04-21T14:19:17.993Z</time>
      </trkpt>
      <trkpt lat="43.0381" lon="1.06704">
        <ele>351.2</ele>
        <time>2024-04-21T14:19:18.993Z</time>
      </trkpt>
      <trkpt lat="43.03814" lon="1.06705">
        <ele>351.4</ele>
        <time>2024-04-21T14:19:19.993Z</time>
      </trkpt>
      <trkpt lat="43.03817" lon="1.06705">
        <ele>351.4</ele>
        <time>2024-04-21T14:19:20.993Z</time>
      </trkpt>
      <trkpt lat="43.0382" lon="1.06705">
        <ele>351.4</ele>
        <time>2024-04-21T14:19:21.993Z</time>
      </trkpt>
      <trkpt lat="43.03824" lon="1.06705">
        <ele>351.4</ele>
        <time>2024-04-21T14:19:22.993Z</time>
      </trkpt>
      <trkpt lat="43.03827" lon="1.06705">
        <ele>351.4</ele>
        <time>2024-04-21T14:19:23.993Z</time>
      </trkpt>
      <trkpt lat="43.03831" lon="1.06704">
        <ele>351.2</ele>
        <time>2024-04-21T14:19:24.993Z</time>
      </trkpt>
      <trkpt lat="43.03834" lon="1.06704">
        <ele>351.2</ele>
        <time>2024-04-21T14:19:25.993Z</time>
      </trkpt>
      <trkpt lat="43.03838" lon="1.06704">
        <ele>351.2</ele>
        <time>2024-04-21T14:19:26.993Z</time>
      </trkpt>
      <trkpt lat="43.03841" lon="1.06703">
        <ele>351.2</ele>
        <time>2024-04-21T14:19:27.993Z</time>
      </trkpt>
      <trkpt lat="43.03844" lon="1.06703">
        <ele>351.2</ele>
        <time>2024-04-21T14:19:28.993Z</time>
      </trkpt>
      <trkpt lat="43.03848" lon="1.06702">
        <ele>351.2</ele>
        <time>2024-04-21T14:19:29.993Z</time>
      </trkpt>
      <trkpt lat="43.03851" lon="1.06701">
        <ele>350.8</ele>
        <time>2024-04-21T14:19:30.993Z</time>
      </trkpt>
      <trkpt lat="43.03854" lon="1.06701">
        <ele>350.8</ele>
        <time>2024-04-21T14:19:31.993Z</time>
      </trkpt>
      <trkpt lat="43.03857" lon="1.06701">
        <ele>350.8</ele>
        <time>2024-04-21T14:19:32.993Z</time>
      </trkpt>
      <trkpt lat="43.0386" lon="1.06701">
        <ele>350.8</ele>
        <time>2024-04-21T14:19:33.993Z</time>
      </trkpt>
      <trkpt lat="43.03864" lon="1.06701">
        <ele>351.2</ele>
        <time>2024-04-21T14:19:34.993Z</time>
      </trkpt>
      <trkpt lat="43.03867" lon="1.06702">
        <ele>351.2</ele>
        <time>2024-04-21T14:19:35.993Z</time>
      </trkpt>
      <trkpt lat="43.03871" lon="1.06703">
        <ele>351.4</ele>
        <time>2024-04-21T14:19:36.993Z</time>
      </trkpt>
      <trkpt lat="43.03874" lon="1.06705">
        <ele>351.4</ele>
        <time>2024-04-21T14:19:37.993Z</time>
      </trkpt>
      <trkpt lat="43.03877" lon="1.06706">
        <ele>351.4</ele>
        <time>2024-04-21T14:19:38.993Z</time>
      </trkpt>
      <trkpt lat="43.03881" lon="1.06708">
        <ele>351.4</ele>
        <time>2024-04-21T14:19:39.993Z</time>
      </trkpt>
      <trkpt lat="43.03884" lon="1.06709">
        <ele>351.4</ele>
        <time>2024-04-21T14:19:40.993Z</time>
      </trkpt>
      <trkpt lat="43.03887" lon="1.06711">
        <ele>351</ele>
        <time>2024-04-21T14:19:41.993Z</time>
      </trkpt>
      <trkpt lat="43.0389" lon="1.06714">
        <ele>351.2</ele>
        <time>2024-04-21T14:19:42.993Z</time>
      </trkpt>
      <trkpt lat="43.03893" lon="1.06717">
        <ele>351.2</ele>
        <time>2024-04-21T14:19:43.993Z</time>
      </trkpt>
      <trkpt lat="43.03896" lon="1.0672">
        <ele>351.2</ele>
        <time>2024-04-21T14:19:44.993Z</time>
      </trkpt>
      <trkpt lat="43.03899" lon="1.06723">
        <ele>351.6</ele>
        <time>2024-04-21T14:19:45.993Z</time>
      </trkpt>
      <trkpt lat="43.03902" lon="1.06726">
        <ele>351.6</ele>
        <time>2024-04-21T14:19:46.993Z</time>
      </trkpt>
      <trkpt lat="43.03905" lon="1.06729">
        <ele>351.6</ele>
        <time>2024-04-21T14:19:47.993Z</time>
      </trkpt>
      <trkpt lat="43.03907" lon="1.06732">
        <ele>351.6</ele>
        <time>2024-04-21T14:19:48.993Z</time>
      </trkpt>
      <trkpt lat="43.0391" lon="1.06735">
        <ele>351.4</ele>
        <time>2024-04-21T14:19:49.993Z</time>
      </trkpt>
      <trkpt lat="43.03913" lon="1.06738">
        <ele>351.4</ele>
        <time>2024-04-21T14:19:50.993Z</time>
      </trkpt>
      <trkpt lat="43.03917" lon="1.06741">
        <ele>351.8</ele>
        <time>2024-04-21T14:19:51.993Z</time>
      </trkpt>
      <trkpt lat="43.0392" lon="1.06744">
        <ele>351.8</ele>
        <time>2024-04-21T14:19:52.993Z</time>
      </trkpt>
      <trkpt lat="43.03923" lon="1.06747">
        <ele>351.8</ele>
        <time>2024-04-21T14:19:53.993Z</time>
      </trkpt>
      <trkpt lat="43.03926" lon="1.0675">
        <ele>351.8</ele>
        <time>2024-04-21T14:19:54.993Z</time>
      </trkpt>
      <trkpt lat="43.0393" lon="1.06753">
        <ele>351.8</ele>
        <time>2024-04-21T14:19:55.993Z</time>
      </trkpt>
      <trkpt lat="43.03933" lon="1.06756">
        <ele>351.8</ele>
        <time>2024-04-21T14:19:56.993Z</time>
      </trkpt>
      <trkpt lat="43.03936" lon="1.06758">
        <ele>351.8</ele>
        <time>2024-04-21T14:19:57.993Z</time>
      </trkpt>
      <trkpt lat="43.03939" lon="1.06761">
        <ele>351.6</ele>
        <time>2024-04-21T14:19:58.993Z</time>
      </trkpt>
      <trkpt lat="43.03943" lon="1.06764">
        <ele>351.6</ele>
        <time>2024-04-21T14:19:59.993Z</time>
      </trkpt>
      <trkpt lat="43.03946" lon="1.06767">
        <ele>351.4</ele>
        <time>2024-04-21T14:20:00.993Z</time>
      </trkpt>
      <trkpt lat="43.0395" lon="1.0677">
        <ele>351.4</ele>
        <time>2024-04-21T14:20:01.993Z</time>
      </trkpt>
      <trkpt lat="43.03953" lon="1.06773">
        <ele>351.4</ele>
        <time>2024-04-21T14:20:02.993Z</time>
      </trkpt>
      <trkpt lat="43.03957" lon="1.06776">
        <ele>351</ele>
        <time>2024-04-21T14:20:03.993Z</time>
      </trkpt>
      <trkpt lat="43.03961" lon="1.06778">
        <ele>350.8</ele>
        <time>2024-04-21T14:20:04.993Z</time>
      </trkpt>
      <trkpt lat="43.03965" lon="1.0678">
        <ele>350.8</ele>
        <time>2024-04-21T14:20:05.993Z</time>
      </trkpt>
      <trkpt lat="43.03968" lon="1.06782">
        <ele>350.8</ele>
        <time>2024-04-21T14:20:06.993Z</time>
      </trkpt>
      <trkpt lat="43.03972" lon="1.06784">
        <ele>350.8</ele>
        <time>2024-04-21T14:20:07.993Z</time>
      </trkpt>
      <trkpt lat="43.03976" lon="1.06786">
        <ele>350.8</ele>
        <time>2024-04-21T14:20:08.993Z</time>
      </trkpt>
      <trkpt lat="43.03979" lon="1.06788">
        <ele>350.8</ele>
        <time>2024-04-21T14:20:09.993Z</time>
      </trkpt>
      <trkpt lat="43.03983" lon="1.0679">
        <ele>350.8</ele>
        <time>2024-04-21T14:20:10.993Z</time>
      </trkpt>
      <trkpt lat="43.03987" lon="1.06791">
        <ele>350.8</ele>
        <time>2024-04-21T14:20:11.993Z</time>
      </trkpt>
      <trkpt lat="43.03991" lon="1.06793">
        <ele>350.8</ele>
        <time>2024-04-21T14:20:12.993Z</time>
      </trkpt>
      <trkpt lat="43.03995" lon="1.06794">
        <ele>350.8</ele>
        <time>2024-04-21T14:20:13.993Z</time>
      </trkpt>
      <trkpt lat="43.03999" lon="1.06796">
        <ele>350.4</ele>
        <time>2024-04-21T14:20:14.993Z</time>
      </trkpt>
      <trkpt lat="43.04003" lon="1.06797">
        <ele>350.4</ele>
        <time>2024-04-21T14:20:15.993Z</time>
      </trkpt>
      <trkpt lat="43.04007" lon="1.06798">
        <ele>350.4</ele>
        <time>2024-04-21T14:20:16.993Z</time>
      </trkpt>
      <trkpt lat="43.04011" lon="1.068">
        <ele>350.4</ele>
        <time>2024-04-21T14:20:17.993Z</time>
      </trkpt>
      <trkpt lat="43.04015" lon="1.06801">
        <ele>350.4</ele>
        <time>2024-04-21T14:20:18.993Z</time>
      </trkpt>
      <trkpt lat="43.04019" lon="1.06803">
        <ele>350.4</ele>
        <time>2024-04-21T14:20:19.993Z</time>
      </trkpt>
      <trkpt lat="43.04023" lon="1.06806">
        <ele>350.4</ele>
        <time>2024-04-21T14:20:20.993Z</time>
      </trkpt>
      <trkpt lat="43.04027" lon="1.06808">
        <ele>350.4</ele>
        <time>2024-04-21T14:20:21.993Z</time>
      </trkpt>
      <trkpt lat="43.04031" lon="1.06811">
        <ele>350.4</ele>
        <time>2024-04-21T14:20:22.993Z</time>
      </trkpt>
      <trkpt lat="43.04035" lon="1.06814">
        <ele>350.6</ele>
        <time>2024-04-21T14:20:23.993Z</time>
      </trkpt>
      <trkpt lat="43.04038" lon="1.06817">
        <ele>350.6</ele>
        <time>2024-04-21T14:20:24.993Z</time>
      </trkpt>
      <trkpt lat="43.04042" lon="1.0682">
        <ele>350.6</ele>
        <time>2024-04-21T14:20:25.993Z</time>
      </trkpt>
      <trkpt lat="43.04045" lon="1.06823">
        <ele>350.6</ele>
        <time>2024-04-21T14:20:26.993Z</time>
      </trkpt>
      <trkpt lat="43.04048" lon="1.06826">
        <ele>350.6</ele>
        <time>2024-04-21T14:20:27.993Z</time>
      </trkpt>
      <trkpt lat="43.04051" lon="1.0683">
        <ele>350.8</ele>
        <time>2024-04-21T14:20:28.993Z</time>
      </trkpt>
      <trkpt lat="43.04054" lon="1.06833">
        <ele>350.8</ele>
        <time>2024-04-21T14:20:29.993Z</time>
      </trkpt>
      <trkpt lat="43.04057" lon="1.06837">
        <ele>350.8</ele>
        <time>2024-04-21T14:20:30.993Z</time>
      </trkpt>
      <trkpt lat="43.04059" lon="1.06841">
        <ele>350.8</ele>
        <time>2024-04-21T14:20:31.993Z</time>
      </trkpt>
      <trkpt lat="43.04062" lon="1.06844">
        <ele>350.8</ele>
        <time>2024-04-21T14:20:32.993Z</time>
      </trkpt>
      <trkpt lat="43.04065" lon="1.06848">
        <ele>350.8</ele>
        <time>2024-04-21T14:20:33.993Z</time>
      </trkpt>
      <trkpt lat="43.04067" lon="1.06851">
        <ele>350.8</ele>
        <time>2024-04-21T14:20:34.993Z</time>
      </trkpt>
      <trkpt lat="43.0407" lon="1.06855">
        <ele>350.8</ele>
        <time>2024-04-21T14:20:35.993Z</time>
      </trkpt>
      <trkpt lat="43.04073" lon="1.06859">
        <ele>350.6</ele>
        <time>2024-04-21T14:20:36.993Z</time>
      </trkpt>
      <trkpt lat="43.04076" lon="1.06862">
        <ele>350.6</ele>
        <time>2024-04-21T14:20:37.993Z</time>
      </trkpt>
      <trkpt lat="43.0408" lon="1.06865">
        <ele>350.6</ele>
        <time>2024-04-21T14:20:38.993Z</time>
      </trkpt>
      <trkpt lat="43.04083" lon="1.06868">
        <ele>350.6</ele>
        <time>2024-04-21T14:20:39.993Z</time>
      </trkpt>
      <trkpt lat="43.04087" lon="1.06871">
        <ele>351</ele>
        <time>2024-04-21T14:20:40.993Z</time>
      </trkpt>
      <trkpt lat="43.04091" lon="1.06874">
        <ele>351</ele>
        <time>2024-04-21T14:20:41.993Z</time>
      </trkpt>
      <trkpt lat="43.04094" lon="1.06876">
        <ele>351</ele>
        <time>2024-04-21T14:20:42.993Z</time>
      </trkpt>
      <trkpt lat="43.04098" lon="1.06878">
        <ele>351</ele>
        <time>2024-04-21T14:20:43.993Z</time>
      </trkpt>
      <trkpt lat="43.04102" lon="1.0688">
        <ele>351</ele>
        <time>2024-04-21T14:20:44.993Z</time>
      </trkpt>
      <trkpt lat="43.04105" lon="1.06882">
        <ele>351</ele>
        <time>2024-04-21T14:20:45.993Z</time>
      </trkpt>
      <trkpt lat="43.04109" lon="1.06884">
        <ele>351</ele>
        <time>2024-04-21T14:20:46.993Z</time>
      </trkpt>
      <trkpt lat="43.04112" lon="1.06887">
        <ele>351</ele>
        <time>2024-04-21T14:20:47.993Z</time>
      </trkpt>
      <trkpt lat="43.04116" lon="1.06889">
        <ele>351</ele>
        <time>2024-04-21T14:20:48.993Z</time>
      </trkpt>
      <trkpt lat="43.0412" lon="1.06891">
        <ele>351</ele>
        <time>2024-04-21T14:20:49.993Z</time>
      </trkpt>
      <trkpt lat="43.04123" lon="1.06893">
        <ele>351</ele>
        <time>2024-04-21T14:20:50.993Z</time>
      </trkpt>
      <trkpt lat="43.04127" lon="1.06896">
        <ele>351</ele>
        <time>2024-04-21T14:20:51.993Z</time>
      </trkpt>
      <trkpt lat="43.0413" lon="1.06898">
        <ele>351</ele>
        <time>2024-04-21T14:20:52.993Z</time>
      </trkpt>
      <trkpt lat="43.04134" lon="1.069">
        <ele>351</ele>
        <time>2024-04-21T14:20:53.993Z</time>
      </trkpt>
      <trkpt lat="43.04137" lon="1.06902">
        <ele>351.2</ele>
        <time>2024-04-21T14:20:54.993Z</time>
      </trkpt>
      <trkpt lat="43.0414" lon="1.06904">
        <ele>351.6</ele>
        <time>2024-04-21T14:20:55.993Z</time>
      </trkpt>
      <trkpt lat="43.04142" lon="1.06906">
        <ele>351.8</ele>
        <time>2024-04-21T14:20:56.993Z</time>
      </trkpt>
      <trkpt lat="43.04144" lon="1.06908">
        <ele>352.2</ele>
        <time>2024-04-21T14:20:57.993Z</time>
      </trkpt>
      <trkpt lat="43.04146" lon="1.06909">
        <ele>352.2</ele>
        <time>2024-04-21T14:20:58.993Z</time>
      </trkpt>
      <trkpt lat="43.04148" lon="1.06912">
        <ele>352.2</ele>
        <time>2024-04-21T14:20:59.993Z</time>
      </trkpt>
      <trkpt lat="43.04151" lon="1.06915">
        <ele>352.2</ele>
        <time>2024-04-21T14:21:00.993Z</time>
      </trkpt>
      <trkpt lat="43.04154" lon="1.06919">
        <ele>352.4</ele>
        <time>2024-04-21T14:21:01.993Z</time>
      </trkpt>
      <trkpt lat="43.04157" lon="1.06923">
        <ele>352.4</ele>
        <time>2024-04-21T14:21:02.993Z</time>
      </trkpt>
      <trkpt lat="43.0416" lon="1.06926">
        <ele>352.6</ele>
        <time>2024-04-21T14:21:03.993Z</time>
      </trkpt>
      <trkpt lat="43.04163" lon="1.0693">
        <ele>352.6</ele>
        <time>2024-04-21T14:21:04.993Z</time>
      </trkpt>
      <trkpt lat="43.04167" lon="1.06933">
        <ele>352.6</ele>
        <time>2024-04-21T14:21:05.993Z</time>
      </trkpt>
      <trkpt lat="43.0417" lon="1.06937">
        <ele>352.4</ele>
        <time>2024-04-21T14:21:06.993Z</time>
      </trkpt>
      <trkpt lat="43.04174" lon="1.0694">
        <ele>352.4</ele>
        <time>2024-04-21T14:21:07.993Z</time>
      </trkpt>
      <trkpt lat="43.04177" lon="1.06943">
        <ele>352.4</ele>
        <time>2024-04-21T14:21:08.993Z</time>
      </trkpt>
      <trkpt lat="43.0418" lon="1.06945">
        <ele>352.4</ele>
        <time>2024-04-21T14:21:09.993Z</time>
      </trkpt>
      <trkpt lat="43.04183" lon="1.06948">
        <ele>352.4</ele>
        <time>2024-04-21T14:21:10.993Z</time>
      </trkpt>
      <trkpt lat="43.04186" lon="1.0695">
        <ele>352.6</ele>
        <time>2024-04-21T14:21:11.993Z</time>
      </trkpt>
      <trkpt lat="43.04189" lon="1.06952">
        <ele>352.6</ele>
        <time>2024-04-21T14:21:12.993Z</time>
      </trkpt>
      <trkpt lat="43.04192" lon="1.06953">
        <ele>352.6</ele>
        <time>2024-04-21T14:21:13.993Z</time>
      </trkpt>
      <trkpt lat="43.04196" lon="1.06953">
        <ele>352.2</ele>
        <time>2024-04-21T14:21:14.993Z</time>
      </trkpt>
      <trkpt lat="43.04198" lon="1.06952">
        <ele>352.6</ele>
        <time>2024-04-21T14:21:15.993Z</time>
      </trkpt>
      <trkpt lat="43.04201" lon="1.0695">
        <ele>352.6</ele>
        <time>2024-04-21T14:21:16.993Z</time>
      </trkpt>
      <trkpt lat="43.04203" lon="1.06948">
        <ele>352.8</ele>
        <time>2024-04-21T14:21:17.993Z</time>
      </trkpt>
      <trkpt lat="43.04205" lon="1.06945">
        <ele>353</ele>
        <time>2024-04-21T14:21:18.993Z</time>
      </trkpt>
      <trkpt lat="43.04206" lon="1.06942">
        <ele>353.2</ele>
        <time>2024-04-21T14:21:19.993Z</time>
      </trkpt>
      <trkpt lat="43.04207" lon="1.06939">
        <ele>353.2</ele>
        <time>2024-04-21T14:21:20.993Z</time>
      </trkpt>
      <trkpt lat="43.04208" lon="1.06936">
        <ele>353.6</ele>
        <time>2024-04-21T14:21:21.993Z</time>
      </trkpt>
      <trkpt lat="43.04209" lon="1.06934">
        <ele>353.8</ele>
        <time>2024-04-21T14:21:22.993Z</time>
      </trkpt>
      <trkpt lat="43.04211" lon="1.06931">
        <ele>353.8</ele>
        <time>2024-04-21T14:21:23.993Z</time>
      </trkpt>
      <trkpt lat="43.04213" lon="1.06929">
        <ele>353.6</ele>
        <time>2024-04-21T14:21:24.993Z</time>
      </trkpt>
      <trkpt lat="43.04214" lon="1.06927">
        <ele>353.6</ele>
        <time>2024-04-21T14:21:25.993Z</time>
      </trkpt>
      <trkpt lat="43.04216" lon="1.06925">
        <ele>354</ele>
        <time>2024-04-21T14:21:26.993Z</time>
      </trkpt>
      <trkpt lat="43.04218" lon="1.06923">
        <ele>354.2</ele>
        <time>2024-04-21T14:21:27.993Z</time>
      </trkpt>
      <trkpt lat="43.0422" lon="1.06922">
        <ele>354.2</ele>
        <time>2024-04-21T14:21:28.993Z</time>
      </trkpt>
      <trkpt lat="43.04222" lon="1.06921">
        <ele>354.6</ele>
        <time>2024-04-21T14:21:29.993Z</time>
      </trkpt>
      <trkpt lat="43.04224" lon="1.0692">
        <ele>354.6</ele>
        <time>2024-04-21T14:21:30.993Z</time>
      </trkpt>
      <trkpt lat="43.04227" lon="1.0692">
        <ele>354.6</ele>
        <time>2024-04-21T14:21:31.993Z</time>
      </trkpt>
      <trkpt lat="43.04228" lon="1.0692">
        <ele>355</ele>
        <time>2024-04-21T14:21:32.993Z</time>
      </trkpt>
      <trkpt lat="43.0423" lon="1.06921">
        <ele>355.2</ele>
        <time>2024-04-21T14:21:33.993Z</time>
      </trkpt>
      <trkpt lat="43.04232" lon="1.06921">
        <ele>355.8</ele>
        <time>2024-04-21T14:21:34.993Z</time>
      </trkpt>
      <trkpt lat="43.04234" lon="1.06921">
        <ele>356</ele>
        <time>2024-04-21T14:21:35.993Z</time>
      </trkpt>
      <trkpt lat="43.04237" lon="1.06921">
        <ele>356</ele>
        <time>2024-04-21T14:21:36.993Z</time>
      </trkpt>
      <trkpt lat="43.04238" lon="1.06921">
        <ele>356</ele>
        <time>2024-04-21T14:21:37.993Z</time>
      </trkpt>
      <trkpt lat="43.04241" lon="1.06921">
        <ele>356.4</ele>
        <time>2024-04-21T14:21:38.993Z</time>
      </trkpt>
      <trkpt lat="43.04243" lon="1.06921">
        <ele>356.8</ele>
        <time>2024-04-21T14:21:39.993Z</time>
      </trkpt>
      <trkpt lat="43.04244" lon="1.06922">
        <ele>357.2</ele>
        <time>2024-04-21T14:21:40.993Z</time>
      </trkpt>
      <trkpt lat="43.04246" lon="1.06923">
        <ele>357.2</ele>
        <time>2024-04-21T14:21:41.993Z</time>
      </trkpt>
      <trkpt lat="43.04248" lon="1.06924">
        <ele>357.4</ele>
        <time>2024-04-21T14:21:42.993Z</time>
      </trkpt>
      <trkpt lat="43.04249" lon="1.06925">
        <ele>357.4</ele>
        <time>2024-04-21T14:21:43.993Z</time>
      </trkpt>
      <trkpt lat="43.04251" lon="1.06925">
        <ele>357.4</ele>
        <time>2024-04-21T14:21:44.993Z</time>
      </trkpt>
      <trkpt lat="43.04253" lon="1.06926">
        <ele>357.6</ele>
        <time>2024-04-21T14:21:45.993Z</time>
      </trkpt>
      <trkpt lat="43.04255" lon="1.06925">
        <ele>357.6</ele>
        <time>2024-04-21T14:21:46.993Z</time>
      </trkpt>
      <trkpt lat="43.04255" lon="1.06925">
        <ele>357.8</ele>
        <time>2024-04-21T14:21:47.993Z</time>
      </trkpt>
      <trkpt lat="43.04256" lon="1.06924">
        <ele>357.8</ele>
        <time>2024-04-21T14:21:48.993Z</time>
      </trkpt>
      <trkpt lat="43.04258" lon="1.06922">
        <ele>358.2</ele>
        <time>2024-04-21T14:21:49.993Z</time>
      </trkpt>
      <trkpt lat="43.04259" lon="1.06919">
        <ele>358.2</ele>
        <time>2024-04-21T14:21:50.993Z</time>
      </trkpt>
      <trkpt lat="43.04261" lon="1.06915">
        <ele>358.2</ele>
        <time>2024-04-21T14:21:51.993Z</time>
      </trkpt>
      <trkpt lat="43.04262" lon="1.06911">
        <ele>358.2</ele>
        <time>2024-04-21T14:21:52.993Z</time>
      </trkpt>
      <trkpt lat="43.04263" lon="1.06907">
        <ele>358.2</ele>
        <time>2024-04-21T14:21:53.993Z</time>
      </trkpt>
      <trkpt lat="43.04264" lon="1.06902">
        <ele>357.8</ele>
        <time>2024-04-21T14:21:54.993Z</time>
      </trkpt>
      <trkpt lat="43.04265" lon="1.06897">
        <ele>357.8</ele>
        <time>2024-04-21T14:21:55.993Z</time>
      </trkpt>
      <trkpt lat="43.04266" lon="1.06892">
        <ele>357.8</ele>
        <time>2024-04-21T14:21:56.993Z</time>
      </trkpt>
      <trkpt lat="43.04267" lon="1.06887">
        <ele>357.6</ele>
        <time>2024-04-21T14:21:57.993Z</time>
      </trkpt>
      <trkpt lat="43.04268" lon="1.06882">
        <ele>357.6</ele>
        <time>2024-04-21T14:21:58.993Z</time>
      </trkpt>
      <trkpt lat="43.04269" lon="1.06876">
        <ele>357.6</ele>
        <time>2024-04-21T14:21:59.993Z</time>
      </trkpt>
      <trkpt lat="43.04271" lon="1.06871">
        <ele>357.4</ele>
        <time>2024-04-21T14:22:00.993Z</time>
      </trkpt>
      <trkpt lat="43.04272" lon="1.06866">
        <ele>357.4</ele>
        <time>2024-04-21T14:22:01.993Z</time>
      </trkpt>
      <trkpt lat="43.04275" lon="1.06861">
        <ele>357.4</ele>
        <time>2024-04-21T14:22:02.993Z</time>
      </trkpt>
      <trkpt lat="43.04278" lon="1.06856">
        <ele>357.4</ele>
        <time>2024-04-21T14:22:03.993Z</time>
      </trkpt>
      <trkpt lat="43.04281" lon="1.06851">
        <ele>357.4</ele>
        <time>2024-04-21T14:22:04.993Z</time>
      </trkpt>
      <trkpt lat="43.04284" lon="1.06847">
        <ele>357.4</ele>
        <time>2024-04-21T14:22:05.993Z</time>
      </trkpt>
      <trkpt lat="43.04287" lon="1.06841">
        <ele>357.4</ele>
        <time>2024-04-21T14:22:06.993Z</time>
      </trkpt>
      <trkpt lat="43.0429" lon="1.06836">
        <ele>357.4</ele>
        <time>2024-04-21T14:22:07.993Z</time>
      </trkpt>
      <trkpt lat="43.04294" lon="1.06831">
        <ele>357.4</ele>
        <time>2024-04-21T14:22:08.993Z</time>
      </trkpt>
      <trkpt lat="43.04297" lon="1.06825">
        <ele>357.2</ele>
        <time>2024-04-21T14:22:09.993Z</time>
      </trkpt>
      <trkpt lat="43.043" lon="1.06819">
        <ele>357.2</ele>
        <time>2024-04-21T14:22:10.993Z</time>
      </trkpt>
      <trkpt lat="43.04302" lon="1.06813">
        <ele>357.2</ele>
        <time>2024-04-21T14:22:11.993Z</time>
      </trkpt>
      <trkpt lat="43.04305" lon="1.06807">
        <ele>357.2</ele>
        <time>2024-04-21T14:22:12.993Z</time>
      </trkpt>
      <trkpt lat="43.04307" lon="1.068">
        <ele>357.2</ele>
        <time>2024-04-21T14:22:13.993Z</time>
      </trkpt>
      <trkpt lat="43.0431" lon="1.06793">
        <ele>356.8</ele>
        <time>2024-04-21T14:22:14.993Z</time>
      </trkpt>
      <trkpt lat="43.04313" lon="1.06787">
        <ele>356.8</ele>
        <time>2024-04-21T14:22:15.993Z</time>
      </trkpt>
      <trkpt lat="43.04316" lon="1.0678">
        <ele>356.8</ele>
        <time>2024-04-21T14:22:16.993Z</time>
      </trkpt>
      <trkpt lat="43.04318" lon="1.06773">
        <ele>356.4</ele>
        <time>2024-04-21T14:22:17.993Z</time>
      </trkpt>
      <trkpt lat="43.04322" lon="1.06758">
        <ele>356.4</ele>
        <time>2024-04-21T14:22:18.993Z</time>
      </trkpt>
      <trkpt lat="43.04324" lon="1.06751">
        <ele>356</ele>
        <time>2024-04-21T14:22:19.993Z</time>
      </trkpt>
      <trkpt lat="43.04326" lon="1.06743">
        <ele>355.6</ele>
        <time>2024-04-21T14:22:20.993Z</time>
      </trkpt>
      <trkpt lat="43.04327" lon="1.06735">
        <ele>355.6</ele>
        <time>2024-04-21T14:22:21.993Z</time>
      </trkpt>
      <trkpt lat="43.04328" lon="1.06727">
        <ele>355.6</ele>
        <time>2024-04-21T14:22:22.993Z</time>
      </trkpt>
      <trkpt lat="43.04329" lon="1.0672">
        <ele>355.6</ele>
        <time>2024-04-21T14:22:23.993Z</time>
      </trkpt>
      <trkpt lat="43.04329" lon="1.06712">
        <ele>355.6</ele>
        <time>2024-04-21T14:22:24.993Z</time>
      </trkpt>
      <trkpt lat="43.04331" lon="1.06705">
        <ele>355.6</ele>
        <time>2024-04-21T14:22:25.993Z</time>
      </trkpt>
      <trkpt lat="43.04331" lon="1.06697">
        <ele>355.6</ele>
        <time>2024-04-21T14:22:26.993Z</time>
      </trkpt>
      <trkpt lat="43.04332" lon="1.06689">
        <ele>355.6</ele>
        <time>2024-04-21T14:22:27.993Z</time>
      </trkpt>
      <trkpt lat="43.04332" lon="1.06682">
        <ele>355.6</ele>
        <time>2024-04-21T14:22:28.993Z</time>
      </trkpt>
      <trkpt lat="43.04332" lon="1.06675">
        <ele>355.4</ele>
        <time>2024-04-21T14:22:29.993Z</time>
      </trkpt>
      <trkpt lat="43.04333" lon="1.06667">
        <ele>355.4</ele>
        <time>2024-04-21T14:22:30.993Z</time>
      </trkpt>
      <trkpt lat="43.04333" lon="1.0666">
        <ele>355.4</ele>
        <time>2024-04-21T14:22:31.993Z</time>
      </trkpt>
      <trkpt lat="43.04333" lon="1.06653">
        <ele>355.4</ele>
        <time>2024-04-21T14:22:32.993Z</time>
      </trkpt>
      <trkpt lat="43.04333" lon="1.06646">
        <ele>355.4</ele>
        <time>2024-04-21T14:22:33.993Z</time>
      </trkpt>
      <trkpt lat="43.04334" lon="1.06639">
        <ele>355.4</ele>
        <time>2024-04-21T14:22:34.993Z</time>
      </trkpt>
      <trkpt lat="43.04334" lon="1.06632">
        <ele>355</ele>
        <time>2024-04-21T14:22:35.993Z</time>
      </trkpt>
      <trkpt lat="43.04334" lon="1.06625">
        <ele>355</ele>
        <time>2024-04-21T14:22:36.993Z</time>
      </trkpt>
      <trkpt lat="43.04334" lon="1.06619">
        <ele>355</ele>
        <time>2024-04-21T14:22:37.993Z</time>
      </trkpt>
      <trkpt lat="43.04334" lon="1.06612">
        <ele>354.8</ele>
        <time>2024-04-21T14:22:38.993Z</time>
      </trkpt>
      <trkpt lat="43.04334" lon="1.06605">
        <ele>354.8</ele>
        <time>2024-04-21T14:22:39.993Z</time>
      </trkpt>
      <trkpt lat="43.04334" lon="1.06598">
        <ele>354.6</ele>
        <time>2024-04-21T14:22:40.993Z</time>
      </trkpt>
      <trkpt lat="43.04334" lon="1.06592">
        <ele>354.6</ele>
        <time>2024-04-21T14:22:41.993Z</time>
      </trkpt>
      <trkpt lat="43.04334" lon="1.06585">
        <ele>354.6</ele>
        <time>2024-04-21T14:22:42.993Z</time>
      </trkpt>
      <trkpt lat="43.04334" lon="1.06578">
        <ele>354.4</ele>
        <time>2024-04-21T14:22:43.993Z</time>
      </trkpt>
      <trkpt lat="43.04334" lon="1.06571">
        <ele>354.4</ele>
        <time>2024-04-21T14:22:44.993Z</time>
      </trkpt>
      <trkpt lat="43.04334" lon="1.06563">
        <ele>354.4</ele>
        <time>2024-04-21T14:22:45.993Z</time>
      </trkpt>
      <trkpt lat="43.04335" lon="1.06557">
        <ele>354.4</ele>
        <time>2024-04-21T14:22:46.993Z</time>
      </trkpt>
      <trkpt lat="43.04335" lon="1.0655">
        <ele>354.4</ele>
        <time>2024-04-21T14:22:47.993Z</time>
      </trkpt>
      <trkpt lat="43.04335" lon="1.06542">
        <ele>354.4</ele>
        <time>2024-04-21T14:22:48.993Z</time>
      </trkpt>
      <trkpt lat="43.04335" lon="1.06535">
        <ele>354.4</ele>
        <time>2024-04-21T14:22:49.993Z</time>
      </trkpt>
      <trkpt lat="43.04336" lon="1.06528">
        <ele>354.4</ele>
        <time>2024-04-21T14:22:50.993Z</time>
      </trkpt>
      <trkpt lat="43.04336" lon="1.0652">
        <ele>354.4</ele>
        <time>2024-04-21T14:22:51.993Z</time>
      </trkpt>
      <trkpt lat="43.04336" lon="1.06512">
        <ele>354.4</ele>
        <time>2024-04-21T14:22:52.993Z</time>
      </trkpt>
      <trkpt lat="43.04336" lon="1.06505">
        <ele>354.4</ele>
        <time>2024-04-21T14:22:53.993Z</time>
      </trkpt>
      <trkpt lat="43.04336" lon="1.06497">
        <ele>354.4</ele>
        <time>2024-04-21T14:22:54.993Z</time>
      </trkpt>
      <trkpt lat="43.04336" lon="1.0649">
        <ele>354.4</ele>
        <time>2024-04-21T14:22:55.993Z</time>
      </trkpt>
      <trkpt lat="43.04336" lon="1.06482">
        <ele>354.4</ele>
        <time>2024-04-21T14:22:56.993Z</time>
      </trkpt>
      <trkpt lat="43.04336" lon="1.06475">
        <ele>354.4</ele>
        <time>2024-04-21T14:22:57.993Z</time>
      </trkpt>
      <trkpt lat="43.04336" lon="1.06467">
        <ele>354.4</ele>
        <time>2024-04-21T14:22:58.993Z</time>
      </trkpt>
      <trkpt lat="43.04336" lon="1.0646">
        <ele>354.4</ele>
        <time>2024-04-21T14:22:59.993Z</time>
      </trkpt>
      <trkpt lat="43.04337" lon="1.06453">
        <ele>354.4</ele>
        <time>2024-04-21T14:23:00.993Z</time>
      </trkpt>
      <trkpt lat="43.04337" lon="1.06445">
        <ele>354.4</ele>
        <time>2024-04-21T14:23:01.993Z</time>
      </trkpt>
      <trkpt lat="43.04337" lon="1.06437">
        <ele>354.4</ele>
        <time>2024-04-21T14:23:02.993Z</time>
      </trkpt>
      <trkpt lat="43.04337" lon="1.0643">
        <ele>354.4</ele>
        <time>2024-04-21T14:23:03.993Z</time>
      </trkpt>
      <trkpt lat="43.04337" lon="1.06423">
        <ele>354.4</ele>
        <time>2024-04-21T14:23:04.993Z</time>
      </trkpt>
      <trkpt lat="43.04337" lon="1.06415">
        <ele>354.2</ele>
        <time>2024-04-21T14:23:05.993Z</time>
      </trkpt>
      <trkpt lat="43.04337" lon="1.06408">
        <ele>354.2</ele>
        <time>2024-04-21T14:23:06.993Z</time>
      </trkpt>
      <trkpt lat="43.04337" lon="1.06401">
        <ele>354.2</ele>
        <time>2024-04-21T14:23:07.993Z</time>
      </trkpt>
      <trkpt lat="43.04337" lon="1.06394">
        <ele>354.2</ele>
        <time>2024-04-21T14:23:08.993Z</time>
      </trkpt>
      <trkpt lat="43.04336" lon="1.06387">
        <ele>354.2</ele>
        <time>2024-04-21T14:23:09.993Z</time>
      </trkpt>
      <trkpt lat="43.04337" lon="1.0638">
        <ele>354.2</ele>
        <time>2024-04-21T14:23:10.993Z</time>
      </trkpt>
      <trkpt lat="43.04338" lon="1.06373">
        <ele>354.2</ele>
        <time>2024-04-21T14:23:11.993Z</time>
      </trkpt>
      <trkpt lat="43.04339" lon="1.06367">
        <ele>354.2</ele>
        <time>2024-04-21T14:23:12.993Z</time>
      </trkpt>
      <trkpt lat="43.04339" lon="1.0636">
        <ele>354.2</ele>
        <time>2024-04-21T14:23:13.993Z</time>
      </trkpt>
      <trkpt lat="43.0434" lon="1.06353">
        <ele>354.2</ele>
        <time>2024-04-21T14:23:14.993Z</time>
      </trkpt>
      <trkpt lat="43.04341" lon="1.06346">
        <ele>354.2</ele>
        <time>2024-04-21T14:23:15.993Z</time>
      </trkpt>
      <trkpt lat="43.04342" lon="1.06339">
        <ele>354.2</ele>
        <time>2024-04-21T14:23:16.993Z</time>
      </trkpt>
      <trkpt lat="43.04343" lon="1.06332">
        <ele>354.2</ele>
        <time>2024-04-21T14:23:17.993Z</time>
      </trkpt>
      <trkpt lat="43.04344" lon="1.06325">
        <ele>354.2</ele>
        <time>2024-04-21T14:23:18.993Z</time>
      </trkpt>
      <trkpt lat="43.04345" lon="1.06318">
        <ele>354.2</ele>
        <time>2024-04-21T14:23:19.993Z</time>
      </trkpt>
      <trkpt lat="43.04346" lon="1.0631">
        <ele>354.2</ele>
        <time>2024-04-21T14:23:20.993Z</time>
      </trkpt>
      <trkpt lat="43.04348" lon="1.06303">
        <ele>354.2</ele>
        <time>2024-04-21T14:23:21.993Z</time>
      </trkpt>
      <trkpt lat="43.04349" lon="1.06295">
        <ele>353.8</ele>
        <time>2024-04-21T14:23:22.993Z</time>
      </trkpt>
      <trkpt lat="43.04351" lon="1.06288">
        <ele>353.8</ele>
        <time>2024-04-21T14:23:23.993Z</time>
      </trkpt>
      <trkpt lat="43.04352" lon="1.06281">
        <ele>353.4</ele>
        <time>2024-04-21T14:23:24.993Z</time>
      </trkpt>
      <trkpt lat="43.04352" lon="1.06273">
        <ele>353.4</ele>
        <time>2024-04-21T14:23:25.993Z</time>
      </trkpt>
      <trkpt lat="43.04353" lon="1.06266">
        <ele>353.4</ele>
        <time>2024-04-21T14:23:26.993Z</time>
      </trkpt>
      <trkpt lat="43.04354" lon="1.06259">
        <ele>353.8</ele>
        <time>2024-04-21T14:23:27.993Z</time>
      </trkpt>
      <trkpt lat="43.04354" lon="1.06252">
        <ele>353.8</ele>
        <time>2024-04-21T14:23:28.993Z</time>
      </trkpt>
      <trkpt lat="43.04354" lon="1.06244">
        <ele>353.8</ele>
        <time>2024-04-21T14:23:29.993Z</time>
      </trkpt>
      <trkpt lat="43.04355" lon="1.06236">
        <ele>353.4</ele>
        <time>2024-04-21T14:23:30.993Z</time>
      </trkpt>
      <trkpt lat="43.04355" lon="1.06229">
        <ele>353.4</ele>
        <time>2024-04-21T14:23:31.993Z</time>
      </trkpt>
      <trkpt lat="43.04356" lon="1.06222">
        <ele>353.4</ele>
        <time>2024-04-21T14:23:32.993Z</time>
      </trkpt>
      <trkpt lat="43.04356" lon="1.06214">
        <ele>353</ele>
        <time>2024-04-21T14:23:33.993Z</time>
      </trkpt>
      <trkpt lat="43.04356" lon="1.06208">
        <ele>353</ele>
        <time>2024-04-21T14:23:34.993Z</time>
      </trkpt>
      <trkpt lat="43.04356" lon="1.062">
        <ele>353</ele>
        <time>2024-04-21T14:23:35.993Z</time>
      </trkpt>
      <trkpt lat="43.04357" lon="1.06193">
        <ele>353</ele>
        <time>2024-04-21T14:23:36.993Z</time>
      </trkpt>
      <trkpt lat="43.04357" lon="1.06186">
        <ele>353</ele>
        <time>2024-04-21T14:23:37.993Z</time>
      </trkpt>
      <trkpt lat="43.04358" lon="1.06179">
        <ele>353</ele>
        <time>2024-04-21T14:23:38.993Z</time>
      </trkpt>
      <trkpt lat="43.04358" lon="1.06171">
        <ele>353</ele>
        <time>2024-04-21T14:23:39.993Z</time>
      </trkpt>
      <trkpt lat="43.04358" lon="1.06163">
        <ele>353</ele>
        <time>2024-04-21T14:23:40.993Z</time>
      </trkpt>
      <trkpt lat="43.04359" lon="1.06155">
        <ele>352.8</ele>
        <time>2024-04-21T14:23:41.993Z</time>
      </trkpt>
      <trkpt lat="43.04359" lon="1.06147">
        <ele>352.8</ele>
        <time>2024-04-21T14:23:42.993Z</time>
      </trkpt>
      <trkpt lat="43.04359" lon="1.0614">
        <ele>352.8</ele>
        <time>2024-04-21T14:23:43.993Z</time>
      </trkpt>
      <trkpt lat="43.0436" lon="1.06133">
        <ele>352.2</ele>
        <time>2024-04-21T14:23:44.993Z</time>
      </trkpt>
      <trkpt lat="43.0436" lon="1.06125">
        <ele>352</ele>
        <time>2024-04-21T14:23:45.993Z</time>
      </trkpt>
      <trkpt lat="43.0436" lon="1.06117">
        <ele>352</ele>
        <time>2024-04-21T14:23:46.993Z</time>
      </trkpt>
      <trkpt lat="43.04361" lon="1.06109">
        <ele>351.8</ele>
        <time>2024-04-21T14:23:47.993Z</time>
      </trkpt>
      <trkpt lat="43.04361" lon="1.06102">
        <ele>351.8</ele>
        <time>2024-04-21T14:23:48.993Z</time>
      </trkpt>
      <trkpt lat="43.04361" lon="1.06094">
        <ele>351.8</ele>
        <time>2024-04-21T14:23:49.993Z</time>
      </trkpt>
      <trkpt lat="43.04362" lon="1.06087">
        <ele>351.8</ele>
        <time>2024-04-21T14:23:50.993Z</time>
      </trkpt>
      <trkpt lat="43.04362" lon="1.0608">
        <ele>351.6</ele>
        <time>2024-04-21T14:23:51.993Z</time>
      </trkpt>
      <trkpt lat="43.04362" lon="1.06072">
        <ele>351.6</ele>
        <time>2024-04-21T14:23:52.993Z</time>
      </trkpt>
      <trkpt lat="43.04362" lon="1.06065">
        <ele>351.6</ele>
        <time>2024-04-21T14:23:53.993Z</time>
      </trkpt>
      <trkpt lat="43.04362" lon="1.06058">
        <ele>351.6</ele>
        <time>2024-04-21T14:23:54.993Z</time>
      </trkpt>
      <trkpt lat="43.04362" lon="1.06051">
        <ele>351.6</ele>
        <time>2024-04-21T14:23:55.993Z</time>
      </trkpt>
      <trkpt lat="43.04363" lon="1.06044">
        <ele>351.6</ele>
        <time>2024-04-21T14:23:56.993Z</time>
      </trkpt>
      <trkpt lat="43.04362" lon="1.06037">
        <ele>351.6</ele>
        <time>2024-04-21T14:23:57.993Z</time>
      </trkpt>
      <trkpt lat="43.04363" lon="1.0603">
        <ele>351.6</ele>
        <time>2024-04-21T14:23:58.993Z</time>
      </trkpt>
      <trkpt lat="43.04363" lon="1.06023">
        <ele>351.2</ele>
        <time>2024-04-21T14:23:59.993Z</time>
      </trkpt>
      <trkpt lat="43.04363" lon="1.06016">
        <ele>351</ele>
        <time>2024-04-21T14:24:00.993Z</time>
      </trkpt>
      <trkpt lat="43.04364" lon="1.06009">
        <ele>351</ele>
        <time>2024-04-21T14:24:01.993Z</time>
      </trkpt>
      <trkpt lat="43.04364" lon="1.06002">
        <ele>350.8</ele>
        <time>2024-04-21T14:24:02.993Z</time>
      </trkpt>
      <trkpt lat="43.04363" lon="1.05995">
        <ele>350.4</ele>
        <time>2024-04-21T14:24:03.993Z</time>
      </trkpt>
      <trkpt lat="43.04363" lon="1.05988">
        <ele>350.4</ele>
        <time>2024-04-21T14:24:04.993Z</time>
      </trkpt>
      <trkpt lat="43.04361" lon="1.05981">
        <ele>350.4</ele>
        <time>2024-04-21T14:24:05.993Z</time>
      </trkpt>
      <trkpt lat="43.0436" lon="1.05974">
        <ele>350.4</ele>
        <time>2024-04-21T14:24:06.993Z</time>
      </trkpt>
      <trkpt lat="43.04358" lon="1.05967">
        <ele>350.2</ele>
        <time>2024-04-21T14:24:07.993Z</time>
      </trkpt>
      <trkpt lat="43.04357" lon="1.05961">
        <ele>350.2</ele>
        <time>2024-04-21T14:24:08.993Z</time>
      </trkpt>
      <trkpt lat="43.04355" lon="1.05954">
        <ele>350.2</ele>
        <time>2024-04-21T14:24:09.993Z</time>
      </trkpt>
      <trkpt lat="43.04352" lon="1.05947">
        <ele>350.2</ele>
        <time>2024-04-21T14:24:10.993Z</time>
      </trkpt>
      <trkpt lat="43.0435" lon="1.05941">
        <ele>350.2</ele>
        <time>2024-04-21T14:24:11.993Z</time>
      </trkpt>
      <trkpt lat="43.04347" lon="1.05934">
        <ele>350.2</ele>
        <time>2024-04-21T14:24:12.993Z</time>
      </trkpt>
      <trkpt lat="43.04344" lon="1.05928">
        <ele>349.8</ele>
        <time>2024-04-21T14:24:13.993Z</time>
      </trkpt>
      <trkpt lat="43.04341" lon="1.05921">
        <ele>349.8</ele>
        <time>2024-04-21T14:24:14.993Z</time>
      </trkpt>
      <trkpt lat="43.04337" lon="1.05915">
        <ele>349.8</ele>
        <time>2024-04-21T14:24:15.993Z</time>
      </trkpt>
      <trkpt lat="43.04335" lon="1.05909">
        <ele>349.8</ele>
        <time>2024-04-21T14:24:16.993Z</time>
      </trkpt>
      <trkpt lat="43.04332" lon="1.05904">
        <ele>349.8</ele>
        <time>2024-04-21T14:24:17.993Z</time>
      </trkpt>
      <trkpt lat="43.04329" lon="1.05898">
        <ele>349.8</ele>
        <time>2024-04-21T14:24:18.993Z</time>
      </trkpt>
      <trkpt lat="43.04325" lon="1.05893">
        <ele>349.6</ele>
        <time>2024-04-21T14:24:19.993Z</time>
      </trkpt>
      <trkpt lat="43.04321" lon="1.05888">
        <ele>349.6</ele>
        <time>2024-04-21T14:24:20.993Z</time>
      </trkpt>
      <trkpt lat="43.04317" lon="1.05884">
        <ele>349.6</ele>
        <time>2024-04-21T14:24:21.993Z</time>
      </trkpt>
      <trkpt lat="43.04313" lon="1.0588">
        <ele>349.2</ele>
        <time>2024-04-21T14:24:22.993Z</time>
      </trkpt>
      <trkpt lat="43.04309" lon="1.05877">
        <ele>349.2</ele>
        <time>2024-04-21T14:24:23.993Z</time>
      </trkpt>
      <trkpt lat="43.04304" lon="1.05873">
        <ele>348.6</ele>
        <time>2024-04-21T14:24:24.993Z</time>
      </trkpt>
      <trkpt lat="43.04298" lon="1.05871">
        <ele>348.6</ele>
        <time>2024-04-21T14:24:25.993Z</time>
      </trkpt>
      <trkpt lat="43.04294" lon="1.05869">
        <ele>348.6</ele>
        <time>2024-04-21T14:24:26.993Z</time>
      </trkpt>
      <trkpt lat="43.04288" lon="1.05868">
        <ele>348.6</ele>
        <time>2024-04-21T14:24:27.993Z</time>
      </trkpt>
      <trkpt lat="43.04283" lon="1.05866">
        <ele>348.6</ele>
        <time>2024-04-21T14:24:28.993Z</time>
      </trkpt>
      <trkpt lat="43.04277" lon="1.05867">
        <ele>348.6</ele>
        <time>2024-04-21T14:24:29.993Z</time>
      </trkpt>
      <trkpt lat="43.04272" lon="1.05867">
        <ele>348.6</ele>
        <time>2024-04-21T14:24:30.993Z</time>
      </trkpt>
      <trkpt lat="43.04267" lon="1.05867">
        <ele>348.6</ele>
        <time>2024-04-21T14:24:31.993Z</time>
      </trkpt>
      <trkpt lat="43.04261" lon="1.05868">
        <ele>348.6</ele>
        <time>2024-04-21T14:24:32.993Z</time>
      </trkpt>
      <trkpt lat="43.04256" lon="1.05869">
        <ele>348.6</ele>
        <time>2024-04-21T14:24:33.993Z</time>
      </trkpt>
      <trkpt lat="43.0425" lon="1.05869">
        <ele>348.6</ele>
        <time>2024-04-21T14:24:34.993Z</time>
      </trkpt>
      <trkpt lat="43.04245" lon="1.0587">
        <ele>348.6</ele>
        <time>2024-04-21T14:24:35.993Z</time>
      </trkpt>
      <trkpt lat="43.04239" lon="1.05871">
        <ele>348.6</ele>
        <time>2024-04-21T14:24:36.993Z</time>
      </trkpt>
      <trkpt lat="43.04233" lon="1.05871">
        <ele>348.6</ele>
        <time>2024-04-21T14:24:37.993Z</time>
      </trkpt>
      <trkpt lat="43.04227" lon="1.05872">
        <ele>348.6</ele>
        <time>2024-04-21T14:24:38.993Z</time>
      </trkpt>
      <trkpt lat="43.04222" lon="1.05873">
        <ele>348.6</ele>
        <time>2024-04-21T14:24:39.993Z</time>
      </trkpt>
      <trkpt lat="43.04215" lon="1.05873">
        <ele>348.6</ele>
        <time>2024-04-21T14:24:40.993Z</time>
      </trkpt>
      <trkpt lat="43.04209" lon="1.05873">
        <ele>348.6</ele>
        <time>2024-04-21T14:24:41.993Z</time>
      </trkpt>
      <trkpt lat="43.04203" lon="1.05874">
        <ele>348.6</ele>
        <time>2024-04-21T14:24:42.993Z</time>
      </trkpt>
      <trkpt lat="43.04197" lon="1.05874">
        <ele>348.6</ele>
        <time>2024-04-21T14:24:43.993Z</time>
      </trkpt>
      <trkpt lat="43.04191" lon="1.05873">
        <ele>348.6</ele>
        <time>2024-04-21T14:24:44.993Z</time>
      </trkpt>
      <trkpt lat="43.04185" lon="1.05871">
        <ele>348.2</ele>
        <time>2024-04-21T14:24:45.993Z</time>
      </trkpt>
      <trkpt lat="43.04178" lon="1.0587">
        <ele>348.2</ele>
        <time>2024-04-21T14:24:46.993Z</time>
      </trkpt>
      <trkpt lat="43.04173" lon="1.05866">
        <ele>348</ele>
        <time>2024-04-21T14:24:47.993Z</time>
      </trkpt>
      <trkpt lat="43.04166" lon="1.05863">
        <ele>348</ele>
        <time>2024-04-21T14:24:48.993Z</time>
      </trkpt>
      <trkpt lat="43.0416" lon="1.0586">
        <ele>347.8</ele>
        <time>2024-04-21T14:24:49.993Z</time>
      </trkpt>
      <trkpt lat="43.04155" lon="1.05855">
        <ele>347.8</ele>
        <time>2024-04-21T14:24:50.993Z</time>
      </trkpt>
      <trkpt lat="43.0415" lon="1.05851">
        <ele>347.4</ele>
        <time>2024-04-21T14:24:51.993Z</time>
      </trkpt>
      <trkpt lat="43.04145" lon="1.05846">
        <ele>347.4</ele>
        <time>2024-04-21T14:24:52.993Z</time>
      </trkpt>
      <trkpt lat="43.0414" lon="1.05842">
        <ele>347.4</ele>
        <time>2024-04-21T14:24:53.993Z</time>
      </trkpt>
      <trkpt lat="43.04135" lon="1.05837">
        <ele>347.4</ele>
        <time>2024-04-21T14:24:54.993Z</time>
      </trkpt>
      <trkpt lat="43.04131" lon="1.05831">
        <ele>347.4</ele>
        <time>2024-04-21T14:24:55.993Z</time>
      </trkpt>
      <trkpt lat="43.04127" lon="1.05826">
        <ele>347.4</ele>
        <time>2024-04-21T14:24:56.993Z</time>
      </trkpt>
      <trkpt lat="43.04122" lon="1.05821">
        <ele>347.2</ele>
        <time>2024-04-21T14:24:57.993Z</time>
      </trkpt>
      <trkpt lat="43.04118" lon="1.05815">
        <ele>347.2</ele>
        <time>2024-04-21T14:24:58.993Z</time>
      </trkpt>
      <trkpt lat="43.04113" lon="1.05809">
        <ele>347.2</ele>
        <time>2024-04-21T14:24:59.993Z</time>
      </trkpt>
      <trkpt lat="43.04108" lon="1.05804">
        <ele>347.2</ele>
        <time>2024-04-21T14:25:00.993Z</time>
      </trkpt>
      <trkpt lat="43.04104" lon="1.05797">
        <ele>347.2</ele>
        <time>2024-04-21T14:25:01.993Z</time>
      </trkpt>
      <trkpt lat="43.041" lon="1.05791">
        <ele>347.2</ele>
        <time>2024-04-21T14:25:02.993Z</time>
      </trkpt>
      <trkpt lat="43.04096" lon="1.05785">
        <ele>347</ele>
        <time>2024-04-21T14:25:03.993Z</time>
      </trkpt>
      <trkpt lat="43.04092" lon="1.0578">
        <ele>347</ele>
        <time>2024-04-21T14:25:04.993Z</time>
      </trkpt>
      <trkpt lat="43.04089" lon="1.05773">
        <ele>347</ele>
        <time>2024-04-21T14:25:05.993Z</time>
      </trkpt>
      <trkpt lat="43.04085" lon="1.05767">
        <ele>347</ele>
        <time>2024-04-21T14:25:06.993Z</time>
      </trkpt>
      <trkpt lat="43.04081" lon="1.05761">
        <ele>347</ele>
        <time>2024-04-21T14:25:07.993Z</time>
      </trkpt>
      <trkpt lat="43.04077" lon="1.05755">
        <ele>347</ele>
        <time>2024-04-21T14:25:08.993Z</time>
      </trkpt>
      <trkpt lat="43.04074" lon="1.05749">
        <ele>347</ele>
        <time>2024-04-21T14:25:09.993Z</time>
      </trkpt>
      <trkpt lat="43.0407" lon="1.05743">
        <ele>347</ele>
        <time>2024-04-21T14:25:10.993Z</time>
      </trkpt>
      <trkpt lat="43.04066" lon="1.05737">
        <ele>347</ele>
        <time>2024-04-21T14:25:11.993Z</time>
      </trkpt>
      <trkpt lat="43.04062" lon="1.05731">
        <ele>346.6</ele>
        <time>2024-04-21T14:25:12.993Z</time>
      </trkpt>
      <trkpt lat="43.04058" lon="1.05725">
        <ele>346.6</ele>
        <time>2024-04-21T14:25:13.993Z</time>
      </trkpt>
      <trkpt lat="43.04055" lon="1.05718">
        <ele>346.6</ele>
        <time>2024-04-21T14:25:14.993Z</time>
      </trkpt>
      <trkpt lat="43.04051" lon="1.05712">
        <ele>346.6</ele>
        <time>2024-04-21T14:25:15.993Z</time>
      </trkpt>
      <trkpt lat="43.04047" lon="1.05705">
        <ele>346.6</ele>
        <time>2024-04-21T14:25:16.993Z</time>
      </trkpt>
      <trkpt lat="43.04044" lon="1.05699">
        <ele>346.8</ele>
        <time>2024-04-21T14:25:17.993Z</time>
      </trkpt>
      <trkpt lat="43.04041" lon="1.05692">
        <ele>346.8</ele>
        <time>2024-04-21T14:25:18.993Z</time>
      </trkpt>
      <trkpt lat="43.04038" lon="1.05685">
        <ele>346.8</ele>
        <time>2024-04-21T14:25:19.993Z</time>
      </trkpt>
      <trkpt lat="43.04035" lon="1.05678">
        <ele>346.6</ele>
        <time>2024-04-21T14:25:20.993Z</time>
      </trkpt>
      <trkpt lat="43.04033" lon="1.05671">
        <ele>346.6</ele>
        <time>2024-04-21T14:25:21.993Z</time>
      </trkpt>
      <trkpt lat="43.04032" lon="1.05664">
        <ele>346.6</ele>
        <time>2024-04-21T14:25:22.993Z</time>
      </trkpt>
      <trkpt lat="43.0403" lon="1.05657">
        <ele>346.6</ele>
        <time>2024-04-21T14:25:23.993Z</time>
      </trkpt>
      <trkpt lat="43.04029" lon="1.05649">
        <ele>346.6</ele>
        <time>2024-04-21T14:25:24.993Z</time>
      </trkpt>
      <trkpt lat="43.04028" lon="1.05642">
        <ele>346.6</ele>
        <time>2024-04-21T14:25:25.993Z</time>
      </trkpt>
      <trkpt lat="43.04027" lon="1.05635">
        <ele>346.6</ele>
        <time>2024-04-21T14:25:26.993Z</time>
      </trkpt>
      <trkpt lat="43.04026" lon="1.05628">
        <ele>346.6</ele>
        <time>2024-04-21T14:25:27.993Z</time>
      </trkpt>
      <trkpt lat="43.04026" lon="1.0562">
        <ele>346.6</ele>
        <time>2024-04-21T14:25:28.993Z</time>
      </trkpt>
      <trkpt lat="43.04026" lon="1.05613">
        <ele>346.6</ele>
        <time>2024-04-21T14:25:29.993Z</time>
      </trkpt>
      <trkpt lat="43.04025" lon="1.05605">
        <ele>346.6</ele>
        <time>2024-04-21T14:25:30.993Z</time>
      </trkpt>
      <trkpt lat="43.04025" lon="1.05598">
        <ele>346.6</ele>
        <time>2024-04-21T14:25:31.993Z</time>
      </trkpt>
      <trkpt lat="43.04025" lon="1.0559">
        <ele>346.4</ele>
        <time>2024-04-21T14:25:32.993Z</time>
      </trkpt>
      <trkpt lat="43.04024" lon="1.05583">
        <ele>346.4</ele>
        <time>2024-04-21T14:25:33.993Z</time>
      </trkpt>
      <trkpt lat="43.04025" lon="1.05576">
        <ele>346.4</ele>
        <time>2024-04-21T14:25:34.993Z</time>
      </trkpt>
      <trkpt lat="43.04024" lon="1.05568">
        <ele>346.4</ele>
        <time>2024-04-21T14:25:35.993Z</time>
      </trkpt>
      <trkpt lat="43.04024" lon="1.05561">
        <ele>346.2</ele>
        <time>2024-04-21T14:25:36.993Z</time>
      </trkpt>
      <trkpt lat="43.04024" lon="1.05553">
        <ele>346.2</ele>
        <time>2024-04-21T14:25:37.993Z</time>
      </trkpt>
      <trkpt lat="43.04024" lon="1.05546">
        <ele>346.6</ele>
        <time>2024-04-21T14:25:38.993Z</time>
      </trkpt>
      <trkpt lat="43.04023" lon="1.05538">
        <ele>346.6</ele>
        <time>2024-04-21T14:25:39.993Z</time>
      </trkpt>
      <trkpt lat="43.04022" lon="1.05531">
        <ele>346.6</ele>
        <time>2024-04-21T14:25:40.993Z</time>
      </trkpt>
      <trkpt lat="43.04022" lon="1.05524">
        <ele>346.2</ele>
        <time>2024-04-21T14:25:41.993Z</time>
      </trkpt>
      <trkpt lat="43.04022" lon="1.05516">
        <ele>346.2</ele>
        <time>2024-04-21T14:25:42.993Z</time>
      </trkpt>
      <trkpt lat="43.04022" lon="1.05509">
        <ele>346.2</ele>
        <time>2024-04-21T14:25:43.993Z</time>
      </trkpt>
      <trkpt lat="43.04021" lon="1.05501">
        <ele>346.2</ele>
        <time>2024-04-21T14:25:44.993Z</time>
      </trkpt>
      <trkpt lat="43.04021" lon="1.05494">
        <ele>346.2</ele>
        <time>2024-04-21T14:25:45.993Z</time>
      </trkpt>
      <trkpt lat="43.04021" lon="1.05486">
        <ele>346.2</ele>
        <time>2024-04-21T14:25:46.993Z</time>
      </trkpt>
      <trkpt lat="43.0402" lon="1.05479">
        <ele>346.2</ele>
        <time>2024-04-21T14:25:47.993Z</time>
      </trkpt>
      <trkpt lat="43.0402" lon="1.05471">
        <ele>346.2</ele>
        <time>2024-04-21T14:25:48.993Z</time>
      </trkpt>
      <trkpt lat="43.0402" lon="1.05463">
        <ele>346.2</ele>
        <time>2024-04-21T14:25:49.993Z</time>
      </trkpt>
      <trkpt lat="43.0402" lon="1.05456">
        <ele>346.2</ele>
        <time>2024-04-21T14:25:50.993Z</time>
      </trkpt>
      <trkpt lat="43.04019" lon="1.05448">
        <ele>346.2</ele>
        <time>2024-04-21T14:25:51.993Z</time>
      </trkpt>
      <trkpt lat="43.04019" lon="1.05441">
        <ele>346.2</ele>
        <time>2024-04-21T14:25:52.993Z</time>
      </trkpt>
      <trkpt lat="43.04019" lon="1.05433">
        <ele>346.2</ele>
        <time>2024-04-21T14:25:53.993Z</time>
      </trkpt>
      <trkpt lat="43.04019" lon="1.05433">
        <ele>346.2</ele>
        <time>2024-04-21T14:25:54.993Z</time>
      </trkpt>
      <trkpt lat="43.04019" lon="1.05426">
        <ele>346.2</ele>
        <time>2024-04-21T14:25:55.993Z</time>
      </trkpt>
      <trkpt lat="43.04019" lon="1.05419">
        <ele>346.2</ele>
        <time>2024-04-21T14:25:56.993Z</time>
      </trkpt>
      <trkpt lat="43.04018" lon="1.05412">
        <ele>346.2</ele>
        <time>2024-04-21T14:25:57.993Z</time>
      </trkpt>
      <trkpt lat="43.04018" lon="1.05404">
        <ele>346.2</ele>
        <time>2024-04-21T14:25:58.993Z</time>
      </trkpt>
      <trkpt lat="43.04018" lon="1.05397">
        <ele>346.2</ele>
        <time>2024-04-21T14:25:59.993Z</time>
      </trkpt>
      <trkpt lat="43.04018" lon="1.0539">
        <ele>346.2</ele>
        <time>2024-04-21T14:26:00.993Z</time>
      </trkpt>
      <trkpt lat="43.04017" lon="1.05382">
        <ele>346.2</ele>
        <time>2024-04-21T14:26:01.993Z</time>
      </trkpt>
      <trkpt lat="43.04017" lon="1.05375">
        <ele>346.2</ele>
        <time>2024-04-21T14:26:02.993Z</time>
      </trkpt>
      <trkpt lat="43.04017" lon="1.05367">
        <ele>345.6</ele>
        <time>2024-04-21T14:26:03.993Z</time>
      </trkpt>
      <trkpt lat="43.04016" lon="1.0536">
        <ele>346</ele>
        <time>2024-04-21T14:26:04.993Z</time>
      </trkpt>
      <trkpt lat="43.04016" lon="1.05352">
        <ele>346</ele>
        <time>2024-04-21T14:26:05.993Z</time>
      </trkpt>
      <trkpt lat="43.04016" lon="1.05345">
        <ele>346</ele>
        <time>2024-04-21T14:26:06.993Z</time>
      </trkpt>
      <trkpt lat="43.04015" lon="1.05337">
        <ele>346</ele>
        <time>2024-04-21T14:26:07.993Z</time>
      </trkpt>
      <trkpt lat="43.04014" lon="1.0533">
        <ele>346</ele>
        <time>2024-04-21T14:26:08.993Z</time>
      </trkpt>
      <trkpt lat="43.04014" lon="1.05322">
        <ele>345.6</ele>
        <time>2024-04-21T14:26:09.993Z</time>
      </trkpt>
      <trkpt lat="43.04013" lon="1.05314">
        <ele>345.6</ele>
        <time>2024-04-21T14:26:10.993Z</time>
      </trkpt>
      <trkpt lat="43.04013" lon="1.05307">
        <ele>345.6</ele>
        <time>2024-04-21T14:26:11.993Z</time>
      </trkpt>
      <trkpt lat="43.04013" lon="1.05299">
        <ele>345.6</ele>
        <time>2024-04-21T14:26:12.993Z</time>
      </trkpt>
      <trkpt lat="43.04012" lon="1.05292">
        <ele>345.8</ele>
        <time>2024-04-21T14:26:13.993Z</time>
      </trkpt>
      <trkpt lat="43.04012" lon="1.05285">
        <ele>345.8</ele>
        <time>2024-04-21T14:26:14.993Z</time>
      </trkpt>
      <trkpt lat="43.04011" lon="1.05277">
        <ele>345.8</ele>
        <time>2024-04-21T14:26:15.993Z</time>
      </trkpt>
      <trkpt lat="43.0401" lon="1.0527">
        <ele>345.8</ele>
        <time>2024-04-21T14:26:16.993Z</time>
      </trkpt>
      <trkpt lat="43.0401" lon="1.05262">
        <ele>345.8</ele>
        <time>2024-04-21T14:26:17.993Z</time>
      </trkpt>
      <trkpt lat="43.0401" lon="1.05255">
        <ele>345.8</ele>
        <time>2024-04-21T14:26:18.993Z</time>
      </trkpt>
      <trkpt lat="43.04009" lon="1.05248">
        <ele>345.8</ele>
        <time>2024-04-21T14:26:19.993Z</time>
      </trkpt>
      <trkpt lat="43.04009" lon="1.05241">
        <ele>345.6</ele>
        <time>2024-04-21T14:26:20.993Z</time>
      </trkpt>
      <trkpt lat="43.04008" lon="1.05233">
        <ele>345.6</ele>
        <time>2024-04-21T14:26:21.993Z</time>
      </trkpt>
      <trkpt lat="43.04008" lon="1.05225">
        <ele>345.6</ele>
        <time>2024-04-21T14:26:22.993Z</time>
      </trkpt>
      <trkpt lat="43.04008" lon="1.05218">
        <ele>345.8</ele>
        <time>2024-04-21T14:26:23.993Z</time>
      </trkpt>
      <trkpt lat="43.04007" lon="1.05211">
        <ele>345.8</ele>
        <time>2024-04-21T14:26:24.993Z</time>
      </trkpt>
      <trkpt lat="43.04007" lon="1.05203">
        <ele>345.8</ele>
        <time>2024-04-21T14:26:25.993Z</time>
      </trkpt>
      <trkpt lat="43.04006" lon="1.05196">
        <ele>345.8</ele>
        <time>2024-04-21T14:26:26.993Z</time>
      </trkpt>
      <trkpt lat="43.04005" lon="1.05188">
        <ele>345.8</ele>
        <time>2024-04-21T14:26:27.993Z</time>
      </trkpt>
      <trkpt lat="43.04004" lon="1.0518">
        <ele>345.8</ele>
        <time>2024-04-21T14:26:28.993Z</time>
      </trkpt>
      <trkpt lat="43.04004" lon="1.05173">
        <ele>345.4</ele>
        <time>2024-04-21T14:26:29.993Z</time>
      </trkpt>
      <trkpt lat="43.04002" lon="1.05158">
        <ele>345.4</ele>
        <time>2024-04-21T14:26:30.993Z</time>
      </trkpt>
      <trkpt lat="43.04001" lon="1.05151">
        <ele>345.4</ele>
        <time>2024-04-21T14:26:31.993Z</time>
      </trkpt>
      <trkpt lat="43.04001" lon="1.05144">
        <ele>345.4</ele>
        <time>2024-04-21T14:26:32.993Z</time>
      </trkpt>
      <trkpt lat="43.04" lon="1.05136">
        <ele>345.2</ele>
        <time>2024-04-21T14:26:33.993Z</time>
      </trkpt>
      <trkpt lat="43.03999" lon="1.05129">
        <ele>345.2</ele>
        <time>2024-04-21T14:26:34.993Z</time>
      </trkpt>
      <trkpt lat="43.03998" lon="1.05122">
        <ele>345.2</ele>
        <time>2024-04-21T14:26:35.993Z</time>
      </trkpt>
      <trkpt lat="43.03997" lon="1.05114">
        <ele>345.4</ele>
        <time>2024-04-21T14:26:36.993Z</time>
      </trkpt>
      <trkpt lat="43.03996" lon="1.05107">
        <ele>345.4</ele>
        <time>2024-04-21T14:26:37.993Z</time>
      </trkpt>
      <trkpt lat="43.03995" lon="1.051">
        <ele>345.4</ele>
        <time>2024-04-21T14:26:38.993Z</time>
      </trkpt>
      <trkpt lat="43.03994" lon="1.05092">
        <ele>345.4</ele>
        <time>2024-04-21T14:26:39.993Z</time>
      </trkpt>
      <trkpt lat="43.03993" lon="1.05085">
        <ele>345.6</ele>
        <time>2024-04-21T14:26:40.993Z</time>
      </trkpt>
      <trkpt lat="43.03993" lon="1.05077">
        <ele>345.6</ele>
        <time>2024-04-21T14:26:41.993Z</time>
      </trkpt>
      <trkpt lat="43.03991" lon="1.0507">
        <ele>345.6</ele>
        <time>2024-04-21T14:26:42.993Z</time>
      </trkpt>
      <trkpt lat="43.03991" lon="1.05063">
        <ele>345.6</ele>
        <time>2024-04-21T14:26:43.993Z</time>
      </trkpt>
      <trkpt lat="43.03989" lon="1.05056">
        <ele>345.6</ele>
        <time>2024-04-21T14:26:44.993Z</time>
      </trkpt>
      <trkpt lat="43.03989" lon="1.05049">
        <ele>345.6</ele>
        <time>2024-04-21T14:26:45.993Z</time>
      </trkpt>
      <trkpt lat="43.03989" lon="1.05041">
        <ele>345.8</ele>
        <time>2024-04-21T14:26:46.993Z</time>
      </trkpt>
      <trkpt lat="43.03988" lon="1.05033">
        <ele>345.8</ele>
        <time>2024-04-21T14:26:47.993Z</time>
      </trkpt>
      <trkpt lat="43.03988" lon="1.05025">
        <ele>345.6</ele>
        <time>2024-04-21T14:26:48.993Z</time>
      </trkpt>
      <trkpt lat="43.03988" lon="1.05018">
        <ele>345.6</ele>
        <time>2024-04-21T14:26:49.993Z</time>
      </trkpt>
      <trkpt lat="43.03989" lon="1.0501">
        <ele>345.6</ele>
        <time>2024-04-21T14:26:50.993Z</time>
      </trkpt>
      <trkpt lat="43.0399" lon="1.05002">
        <ele>345.6</ele>
        <time>2024-04-21T14:26:51.993Z</time>
      </trkpt>
      <trkpt lat="43.03991" lon="1.04995">
        <ele>345.6</ele>
        <time>2024-04-21T14:26:52.993Z</time>
      </trkpt>
      <trkpt lat="43.03992" lon="1.04988">
        <ele>345.6</ele>
        <time>2024-04-21T14:26:53.993Z</time>
      </trkpt>
      <trkpt lat="43.03993" lon="1.0498">
        <ele>345.6</ele>
        <time>2024-04-21T14:26:54.993Z</time>
      </trkpt>
      <trkpt lat="43.03994" lon="1.04973">
        <ele>346</ele>
        <time>2024-04-21T14:26:55.993Z</time>
      </trkpt>
      <trkpt lat="43.03996" lon="1.04967">
        <ele>346</ele>
        <time>2024-04-21T14:26:56.993Z</time>
      </trkpt>
      <trkpt lat="43.03996" lon="1.0496">
        <ele>346</ele>
        <time>2024-04-21T14:26:57.993Z</time>
      </trkpt>
      <trkpt lat="43.03998" lon="1.04953">
        <ele>346</ele>
        <time>2024-04-21T14:26:58.993Z</time>
      </trkpt>
      <trkpt lat="43.03999" lon="1.04946">
        <ele>346.2</ele>
        <time>2024-04-21T14:26:59.993Z</time>
      </trkpt>
      <trkpt lat="43.03999" lon="1.04939">
        <ele>346.2</ele>
        <time>2024-04-21T14:27:00.993Z</time>
      </trkpt>
      <trkpt lat="43.04" lon="1.04931">
        <ele>345.8</ele>
        <time>2024-04-21T14:27:01.993Z</time>
      </trkpt>
      <trkpt lat="43.04" lon="1.04924">
        <ele>345.8</ele>
        <time>2024-04-21T14:27:02.993Z</time>
      </trkpt>
      <trkpt lat="43.04" lon="1.04918">
        <ele>345.4</ele>
        <time>2024-04-21T14:27:03.993Z</time>
      </trkpt>
      <trkpt lat="43.04001" lon="1.0491">
        <ele>345.4</ele>
        <time>2024-04-21T14:27:04.993Z</time>
      </trkpt>
      <trkpt lat="43.04" lon="1.04904">
        <ele>345.4</ele>
        <time>2024-04-21T14:27:05.993Z</time>
      </trkpt>
      <trkpt lat="43.03999" lon="1.04897">
        <ele>345.4</ele>
        <time>2024-04-21T14:27:06.993Z</time>
      </trkpt>
      <trkpt lat="43.03999" lon="1.04889">
        <ele>345.4</ele>
        <time>2024-04-21T14:27:07.993Z</time>
      </trkpt>
      <trkpt lat="43.03998" lon="1.04882">
        <ele>345.4</ele>
        <time>2024-04-21T14:27:08.993Z</time>
      </trkpt>
      <trkpt lat="43.03997" lon="1.04875">
        <ele>345.4</ele>
        <time>2024-04-21T14:27:09.993Z</time>
      </trkpt>
      <trkpt lat="43.03996" lon="1.04868">
        <ele>345.2</ele>
        <time>2024-04-21T14:27:10.993Z</time>
      </trkpt>
      <trkpt lat="43.03995" lon="1.04861">
        <ele>345.2</ele>
        <time>2024-04-21T14:27:11.993Z</time>
      </trkpt>
      <trkpt lat="43.03994" lon="1.04855">
        <ele>345.2</ele>
        <time>2024-04-21T14:27:12.993Z</time>
      </trkpt>
      <trkpt lat="43.03993" lon="1.04849">
        <ele>345.2</ele>
        <time>2024-04-21T14:27:13.993Z</time>
      </trkpt>
      <trkpt lat="43.03992" lon="1.04842">
        <ele>345.2</ele>
        <time>2024-04-21T14:27:14.993Z</time>
      </trkpt>
      <trkpt lat="43.03992" lon="1.04835">
        <ele>345.2</ele>
        <time>2024-04-21T14:27:15.993Z</time>
      </trkpt>
      <trkpt lat="43.0399" lon="1.04828">
        <ele>345.2</ele>
        <time>2024-04-21T14:27:16.993Z</time>
      </trkpt>
      <trkpt lat="43.0399" lon="1.0482">
        <ele>345.2</ele>
        <time>2024-04-21T14:27:17.993Z</time>
      </trkpt>
      <trkpt lat="43.03989" lon="1.04813">
        <ele>345.2</ele>
        <time>2024-04-21T14:27:18.993Z</time>
      </trkpt>
      <trkpt lat="43.03989" lon="1.04806">
        <ele>345.2</ele>
        <time>2024-04-21T14:27:19.993Z</time>
      </trkpt>
      <trkpt lat="43.03989" lon="1.048">
        <ele>344.8</ele>
        <time>2024-04-21T14:27:20.993Z</time>
      </trkpt>
      <trkpt lat="43.03988" lon="1.04793">
        <ele>345.2</ele>
        <time>2024-04-21T14:27:21.993Z</time>
      </trkpt>
      <trkpt lat="43.03988" lon="1.04786">
        <ele>345.2</ele>
        <time>2024-04-21T14:27:22.993Z</time>
      </trkpt>
      <trkpt lat="43.03988" lon="1.04779">
        <ele>345.2</ele>
        <time>2024-04-21T14:27:23.993Z</time>
      </trkpt>
      <trkpt lat="43.03988" lon="1.04772">
        <ele>345.2</ele>
        <time>2024-04-21T14:27:24.993Z</time>
      </trkpt>
      <trkpt lat="43.03988" lon="1.04765">
        <ele>345.2</ele>
        <time>2024-04-21T14:27:25.993Z</time>
      </trkpt>
      <trkpt lat="43.03988" lon="1.04759">
        <ele>345.2</ele>
        <time>2024-04-21T14:27:26.993Z</time>
      </trkpt>
      <trkpt lat="43.03989" lon="1.04753">
        <ele>345.2</ele>
        <time>2024-04-21T14:27:27.993Z</time>
      </trkpt>
      <trkpt lat="43.03988" lon="1.04746">
        <ele>345.2</ele>
        <time>2024-04-21T14:27:28.993Z</time>
      </trkpt>
      <trkpt lat="43.03988" lon="1.0474">
        <ele>345.2</ele>
        <time>2024-04-21T14:27:29.993Z</time>
      </trkpt>
      <trkpt lat="43.03988" lon="1.04733">
        <ele>345.2</ele>
        <time>2024-04-21T14:27:30.993Z</time>
      </trkpt>
      <trkpt lat="43.03988" lon="1.04727">
        <ele>345.2</ele>
        <time>2024-04-21T14:27:31.993Z</time>
      </trkpt>
      <trkpt lat="43.03988" lon="1.04721">
        <ele>345.2</ele>
        <time>2024-04-21T14:27:32.993Z</time>
      </trkpt>
      <trkpt lat="43.03988" lon="1.04714">
        <ele>345.2</ele>
        <time>2024-04-21T14:27:33.993Z</time>
      </trkpt>
      <trkpt lat="43.03988" lon="1.04707">
        <ele>345.2</ele>
        <time>2024-04-21T14:27:34.993Z</time>
      </trkpt>
      <trkpt lat="43.03988" lon="1.04701">
        <ele>345.2</ele>
        <time>2024-04-21T14:27:35.993Z</time>
      </trkpt>
      <trkpt lat="43.03988" lon="1.04695">
        <ele>345.2</ele>
        <time>2024-04-21T14:27:36.993Z</time>
      </trkpt>
      <trkpt lat="43.03987" lon="1.04688">
        <ele>345.2</ele>
        <time>2024-04-21T14:27:37.993Z</time>
      </trkpt>
      <trkpt lat="43.03987" lon="1.04682">
        <ele>344.8</ele>
        <time>2024-04-21T14:27:38.993Z</time>
      </trkpt>
      <trkpt lat="43.03988" lon="1.04676">
        <ele>344.8</ele>
        <time>2024-04-21T14:27:39.993Z</time>
      </trkpt>
      <trkpt lat="43.03987" lon="1.04669">
        <ele>344.8</ele>
        <time>2024-04-21T14:27:40.993Z</time>
      </trkpt>
      <trkpt lat="43.03987" lon="1.04664">
        <ele>344.8</ele>
        <time>2024-04-21T14:27:41.993Z</time>
      </trkpt>
      <trkpt lat="43.03987" lon="1.04657">
        <ele>344.6</ele>
        <time>2024-04-21T14:27:42.993Z</time>
      </trkpt>
      <trkpt lat="43.03987" lon="1.04651">
        <ele>344.6</ele>
        <time>2024-04-21T14:27:43.993Z</time>
      </trkpt>
      <trkpt lat="43.03987" lon="1.04645">
        <ele>344.4</ele>
        <time>2024-04-21T14:27:44.993Z</time>
      </trkpt>
      <trkpt lat="43.03987" lon="1.04639">
        <ele>344.4</ele>
        <time>2024-04-21T14:27:45.993Z</time>
      </trkpt>
      <trkpt lat="43.03987" lon="1.04633">
        <ele>344.4</ele>
        <time>2024-04-21T14:27:46.993Z</time>
      </trkpt>
      <trkpt lat="43.03986" lon="1.04627">
        <ele>344.4</ele>
        <time>2024-04-21T14:27:47.993Z</time>
      </trkpt>
      <trkpt lat="43.03986" lon="1.0462">
        <ele>344.4</ele>
        <time>2024-04-21T14:27:48.993Z</time>
      </trkpt>
      <trkpt lat="43.03987" lon="1.04614">
        <ele>344.4</ele>
        <time>2024-04-21T14:27:49.993Z</time>
      </trkpt>
      <trkpt lat="43.03986" lon="1.04607">
        <ele>344.2</ele>
        <time>2024-04-21T14:27:50.993Z</time>
      </trkpt>
      <trkpt lat="43.03987" lon="1.046">
        <ele>344.2</ele>
        <time>2024-04-21T14:27:51.993Z</time>
      </trkpt>
      <trkpt lat="43.03987" lon="1.04594">
        <ele>344.2</ele>
        <time>2024-04-21T14:27:52.993Z</time>
      </trkpt>
      <trkpt lat="43.03987" lon="1.04587">
        <ele>344.2</ele>
        <time>2024-04-21T14:27:53.993Z</time>
      </trkpt>
      <trkpt lat="43.03986" lon="1.0458">
        <ele>344.2</ele>
        <time>2024-04-21T14:27:54.993Z</time>
      </trkpt>
      <trkpt lat="43.03987" lon="1.04573">
        <ele>344.2</ele>
        <time>2024-04-21T14:27:55.993Z</time>
      </trkpt>
      <trkpt lat="43.03986" lon="1.04566">
        <ele>344.2</ele>
        <time>2024-04-21T14:27:56.993Z</time>
      </trkpt>
      <trkpt lat="43.03986" lon="1.04559">
        <ele>344.2</ele>
        <time>2024-04-21T14:27:57.993Z</time>
      </trkpt>
      <trkpt lat="43.03986" lon="1.04553">
        <ele>344.4</ele>
        <time>2024-04-21T14:27:58.993Z</time>
      </trkpt>
      <trkpt lat="43.03986" lon="1.04546">
        <ele>344.4</ele>
        <time>2024-04-21T14:27:59.993Z</time>
      </trkpt>
      <trkpt lat="43.03986" lon="1.04539">
        <ele>344.4</ele>
        <time>2024-04-21T14:28:00.993Z</time>
      </trkpt>
      <trkpt lat="43.03986" lon="1.04532">
        <ele>344.4</ele>
        <time>2024-04-21T14:28:01.993Z</time>
      </trkpt>
      <trkpt lat="43.03986" lon="1.04525">
        <ele>344.4</ele>
        <time>2024-04-21T14:28:02.993Z</time>
      </trkpt>
      <trkpt lat="43.03986" lon="1.04518">
        <ele>344.2</ele>
        <time>2024-04-21T14:28:03.993Z</time>
      </trkpt>
      <trkpt lat="43.03986" lon="1.0451">
        <ele>344.2</ele>
        <time>2024-04-21T14:28:04.993Z</time>
      </trkpt>
      <trkpt lat="43.03986" lon="1.04504">
        <ele>344.2</ele>
        <time>2024-04-21T14:28:05.993Z</time>
      </trkpt>
      <trkpt lat="43.03986" lon="1.04497">
        <ele>344.2</ele>
        <time>2024-04-21T14:28:06.993Z</time>
      </trkpt>
      <trkpt lat="43.03986" lon="1.0449">
        <ele>344.2</ele>
        <time>2024-04-21T14:28:07.993Z</time>
      </trkpt>
      <trkpt lat="43.03986" lon="1.04483">
        <ele>344.2</ele>
        <time>2024-04-21T14:28:08.993Z</time>
      </trkpt>
      <trkpt lat="43.03986" lon="1.04476">
        <ele>344.2</ele>
        <time>2024-04-21T14:28:09.993Z</time>
      </trkpt>
      <trkpt lat="43.03986" lon="1.04469">
        <ele>343.8</ele>
        <time>2024-04-21T14:28:10.993Z</time>
      </trkpt>
      <trkpt lat="43.03986" lon="1.04463">
        <ele>343.8</ele>
        <time>2024-04-21T14:28:11.993Z</time>
      </trkpt>
      <trkpt lat="43.03985" lon="1.04456">
        <ele>343.8</ele>
        <time>2024-04-21T14:28:12.993Z</time>
      </trkpt>
      <trkpt lat="43.03985" lon="1.04449">
        <ele>344</ele>
        <time>2024-04-21T14:28:13.993Z</time>
      </trkpt>
      <trkpt lat="43.03985" lon="1.04442">
        <ele>344</ele>
        <time>2024-04-21T14:28:14.993Z</time>
      </trkpt>
      <trkpt lat="43.03985" lon="1.04436">
        <ele>344</ele>
        <time>2024-04-21T14:28:15.993Z</time>
      </trkpt>
      <trkpt lat="43.03985" lon="1.04429">
        <ele>343.8</ele>
        <time>2024-04-21T14:28:16.993Z</time>
      </trkpt>
      <trkpt lat="43.03985" lon="1.04423">
        <ele>343.8</ele>
        <time>2024-04-21T14:28:17.993Z</time>
      </trkpt>
      <trkpt lat="43.03985" lon="1.04416">
        <ele>343.8</ele>
        <time>2024-04-21T14:28:18.993Z</time>
      </trkpt>
      <trkpt lat="43.03984" lon="1.04409">
        <ele>343.6</ele>
        <time>2024-04-21T14:28:19.993Z</time>
      </trkpt>
      <trkpt lat="43.03984" lon="1.04403">
        <ele>343.6</ele>
        <time>2024-04-21T14:28:20.993Z</time>
      </trkpt>
      <trkpt lat="43.03984" lon="1.04395">
        <ele>343.6</ele>
        <time>2024-04-21T14:28:21.993Z</time>
      </trkpt>
      <trkpt lat="43.03984" lon="1.04388">
        <ele>343.6</ele>
        <time>2024-04-21T14:28:22.993Z</time>
      </trkpt>
      <trkpt lat="43.03983" lon="1.04382">
        <ele>343.4</ele>
        <time>2024-04-21T14:28:23.993Z</time>
      </trkpt>
      <trkpt lat="43.03984" lon="1.04375">
        <ele>343.4</ele>
        <time>2024-04-21T14:28:24.993Z</time>
      </trkpt>
      <trkpt lat="43.03984" lon="1.04368">
        <ele>343.4</ele>
        <time>2024-04-21T14:28:25.993Z</time>
      </trkpt>
      <trkpt lat="43.03983" lon="1.04362">
        <ele>343.4</ele>
        <time>2024-04-21T14:28:26.993Z</time>
      </trkpt>
      <trkpt lat="43.03982" lon="1.04355">
        <ele>343</ele>
        <time>2024-04-21T14:28:27.993Z</time>
      </trkpt>
      <trkpt lat="43.03982" lon="1.04348">
        <ele>343</ele>
        <time>2024-04-21T14:28:28.993Z</time>
      </trkpt>
      <trkpt lat="43.03982" lon="1.04342">
        <ele>343</ele>
        <time>2024-04-21T14:28:29.993Z</time>
      </trkpt>
      <trkpt lat="43.03981" lon="1.04335">
        <ele>343</ele>
        <time>2024-04-21T14:28:30.993Z</time>
      </trkpt>
      <trkpt lat="43.03981" lon="1.04328">
        <ele>343</ele>
        <time>2024-04-21T14:28:31.993Z</time>
      </trkpt>
      <trkpt lat="43.0398" lon="1.04321">
        <ele>343</ele>
        <time>2024-04-21T14:28:32.993Z</time>
      </trkpt>
      <trkpt lat="43.0398" lon="1.04314">
        <ele>343</ele>
        <time>2024-04-21T14:28:33.993Z</time>
      </trkpt>
      <trkpt lat="43.03979" lon="1.04308">
        <ele>343</ele>
        <time>2024-04-21T14:28:34.993Z</time>
      </trkpt>
      <trkpt lat="43.03979" lon="1.04301">
        <ele>343</ele>
        <time>2024-04-21T14:28:35.993Z</time>
      </trkpt>
      <trkpt lat="43.03978" lon="1.04294">
        <ele>343</ele>
        <time>2024-04-21T14:28:36.993Z</time>
      </trkpt>
      <trkpt lat="43.03977" lon="1.04287">
        <ele>343</ele>
        <time>2024-04-21T14:28:37.993Z</time>
      </trkpt>
      <trkpt lat="43.03977" lon="1.04279">
        <ele>343</ele>
        <time>2024-04-21T14:28:38.993Z</time>
      </trkpt>
      <trkpt lat="43.03976" lon="1.04272">
        <ele>343</ele>
        <time>2024-04-21T14:28:39.993Z</time>
      </trkpt>
      <trkpt lat="43.03976" lon="1.04264">
        <ele>343</ele>
        <time>2024-04-21T14:28:40.993Z</time>
      </trkpt>
      <trkpt lat="43.03975" lon="1.04257">
        <ele>343</ele>
        <time>2024-04-21T14:28:41.993Z</time>
      </trkpt>
      <trkpt lat="43.03975" lon="1.0425">
        <ele>342.8</ele>
        <time>2024-04-21T14:28:42.993Z</time>
      </trkpt>
      <trkpt lat="43.03975" lon="1.04242">
        <ele>342.8</ele>
        <time>2024-04-21T14:28:43.993Z</time>
      </trkpt>
      <trkpt lat="43.03975" lon="1.04235">
        <ele>342.8</ele>
        <time>2024-04-21T14:28:44.993Z</time>
      </trkpt>
      <trkpt lat="43.03976" lon="1.04228">
        <ele>342.8</ele>
        <time>2024-04-21T14:28:45.993Z</time>
      </trkpt>
      <trkpt lat="43.03976" lon="1.04221">
        <ele>342.6</ele>
        <time>2024-04-21T14:28:46.993Z</time>
      </trkpt>
      <trkpt lat="43.03978" lon="1.04214">
        <ele>342.6</ele>
        <time>2024-04-21T14:28:47.993Z</time>
      </trkpt>
      <trkpt lat="43.03979" lon="1.04206">
        <ele>342.6</ele>
        <time>2024-04-21T14:28:48.993Z</time>
      </trkpt>
      <trkpt lat="43.03981" lon="1.042">
        <ele>342.6</ele>
        <time>2024-04-21T14:28:49.993Z</time>
      </trkpt>
      <trkpt lat="43.03983" lon="1.04193">
        <ele>342.6</ele>
        <time>2024-04-21T14:28:50.993Z</time>
      </trkpt>
      <trkpt lat="43.03985" lon="1.04186">
        <ele>342.6</ele>
        <time>2024-04-21T14:28:51.993Z</time>
      </trkpt>
      <trkpt lat="43.03986" lon="1.04179">
        <ele>342.6</ele>
        <time>2024-04-21T14:28:52.993Z</time>
      </trkpt>
      <trkpt lat="43.03988" lon="1.04173">
        <ele>342.8</ele>
        <time>2024-04-21T14:28:53.993Z</time>
      </trkpt>
      <trkpt lat="43.03991" lon="1.04166">
        <ele>343</ele>
        <time>2024-04-21T14:28:54.993Z</time>
      </trkpt>
      <trkpt lat="43.03993" lon="1.04159">
        <ele>343</ele>
        <time>2024-04-21T14:28:55.993Z</time>
      </trkpt>
      <trkpt lat="43.03994" lon="1.04152">
        <ele>343</ele>
        <time>2024-04-21T14:28:56.993Z</time>
      </trkpt>
      <trkpt lat="43.03996" lon="1.04145">
        <ele>343</ele>
        <time>2024-04-21T14:28:57.993Z</time>
      </trkpt>
      <trkpt lat="43.03998" lon="1.04138">
        <ele>342.6</ele>
        <time>2024-04-21T14:28:58.993Z</time>
      </trkpt>
      <trkpt lat="43.03999" lon="1.04132">
        <ele>342.6</ele>
        <time>2024-04-21T14:28:59.993Z</time>
      </trkpt>
      <trkpt lat="43.03999" lon="1.04132">
        <ele>342.8</ele>
        <time>2024-04-21T14:29:00.993Z</time>
      </trkpt>
      <trkpt lat="43.04" lon="1.04125">
        <ele>342.8</ele>
        <time>2024-04-21T14:29:01.993Z</time>
      </trkpt>
      <trkpt lat="43.04" lon="1.04118">
        <ele>343.2</ele>
        <time>2024-04-21T14:29:02.993Z</time>
      </trkpt>
      <trkpt lat="43.03999" lon="1.04112">
        <ele>343.2</ele>
        <time>2024-04-21T14:29:03.993Z</time>
      </trkpt>
      <trkpt lat="43.03997" lon="1.04105">
        <ele>343</ele>
        <time>2024-04-21T14:29:04.993Z</time>
      </trkpt>
      <trkpt lat="43.03995" lon="1.04099">
        <ele>342.8</ele>
        <time>2024-04-21T14:29:05.993Z</time>
      </trkpt>
      <trkpt lat="43.03993" lon="1.04093">
        <ele>342.8</ele>
        <time>2024-04-21T14:29:06.993Z</time>
      </trkpt>
      <trkpt lat="43.0399" lon="1.04088">
        <ele>342.8</ele>
        <time>2024-04-21T14:29:07.993Z</time>
      </trkpt>
      <trkpt lat="43.03988" lon="1.04082">
        <ele>342.8</ele>
        <time>2024-04-21T14:29:08.993Z</time>
      </trkpt>
      <trkpt lat="43.03985" lon="1.04077">
        <ele>342.4</ele>
        <time>2024-04-21T14:29:09.993Z</time>
      </trkpt>
      <trkpt lat="43.03982" lon="1.04072">
        <ele>342.4</ele>
        <time>2024-04-21T14:29:10.993Z</time>
      </trkpt>
      <trkpt lat="43.03979" lon="1.04066">
        <ele>342.4</ele>
        <time>2024-04-21T14:29:11.993Z</time>
      </trkpt>
      <trkpt lat="43.03977" lon="1.04061">
        <ele>342.2</ele>
        <time>2024-04-21T14:29:12.993Z</time>
      </trkpt>
      <trkpt lat="43.03975" lon="1.04055">
        <ele>342.2</ele>
        <time>2024-04-21T14:29:13.993Z</time>
      </trkpt>
      <trkpt lat="43.03972" lon="1.0405">
        <ele>342.2</ele>
        <time>2024-04-21T14:29:14.993Z</time>
      </trkpt>
      <trkpt lat="43.0397" lon="1.04045">
        <ele>342.2</ele>
        <time>2024-04-21T14:29:15.993Z</time>
      </trkpt>
      <trkpt lat="43.03968" lon="1.0404">
        <ele>342.2</ele>
        <time>2024-04-21T14:29:16.993Z</time>
      </trkpt>
      <trkpt lat="43.03966" lon="1.04034">
        <ele>342.2</ele>
        <time>2024-04-21T14:29:17.993Z</time>
      </trkpt>
      <trkpt lat="43.03965" lon="1.04027">
        <ele>342.2</ele>
        <time>2024-04-21T14:29:18.993Z</time>
      </trkpt>
      <trkpt lat="43.03963" lon="1.04021">
        <ele>342.2</ele>
        <time>2024-04-21T14:29:19.993Z</time>
      </trkpt>
      <trkpt lat="43.03961" lon="1.04015">
        <ele>342.2</ele>
        <time>2024-04-21T14:29:20.993Z</time>
      </trkpt>
      <trkpt lat="43.0396" lon="1.04009">
        <ele>342.2</ele>
        <time>2024-04-21T14:29:21.993Z</time>
      </trkpt>
      <trkpt lat="43.03959" lon="1.04003">
        <ele>342</ele>
        <time>2024-04-21T14:29:22.993Z</time>
      </trkpt>
      <trkpt lat="43.03957" lon="1.03997">
        <ele>342</ele>
        <time>2024-04-21T14:29:23.993Z</time>
      </trkpt>
      <trkpt lat="43.03956" lon="1.03991">
        <ele>342</ele>
        <time>2024-04-21T14:29:24.993Z</time>
      </trkpt>
      <trkpt lat="43.03955" lon="1.03985">
        <ele>342</ele>
        <time>2024-04-21T14:29:25.993Z</time>
      </trkpt>
      <trkpt lat="43.03953" lon="1.03979">
        <ele>341.6</ele>
        <time>2024-04-21T14:29:26.993Z</time>
      </trkpt>
      <trkpt lat="43.03951" lon="1.03972">
        <ele>341.6</ele>
        <time>2024-04-21T14:29:27.993Z</time>
      </trkpt>
      <trkpt lat="43.0395" lon="1.03966">
        <ele>341.6</ele>
        <time>2024-04-21T14:29:28.993Z</time>
      </trkpt>
      <trkpt lat="43.03949" lon="1.03959">
        <ele>341.6</ele>
        <time>2024-04-21T14:29:29.993Z</time>
      </trkpt>
      <trkpt lat="43.03947" lon="1.03953">
        <ele>341.6</ele>
        <time>2024-04-21T14:29:30.993Z</time>
      </trkpt>
      <trkpt lat="43.03945" lon="1.03948">
        <ele>341.2</ele>
        <time>2024-04-21T14:29:31.993Z</time>
      </trkpt>
      <trkpt lat="43.03941" lon="1.03936">
        <ele>341.2</ele>
        <time>2024-04-21T14:29:32.993Z</time>
      </trkpt>
      <trkpt lat="43.03938" lon="1.0393">
        <ele>341.2</ele>
        <time>2024-04-21T14:29:33.993Z</time>
      </trkpt>
      <trkpt lat="43.03936" lon="1.03923">
        <ele>341.2</ele>
        <time>2024-04-21T14:29:34.993Z</time>
      </trkpt>
      <trkpt lat="43.03933" lon="1.03918">
        <ele>341.2</ele>
        <time>2024-04-21T14:29:35.993Z</time>
      </trkpt>
      <trkpt lat="43.03931" lon="1.03912">
        <ele>341</ele>
        <time>2024-04-21T14:29:36.993Z</time>
      </trkpt>
      <trkpt lat="43.0393" lon="1.03906">
        <ele>341</ele>
        <time>2024-04-21T14:29:37.993Z</time>
      </trkpt>
      <trkpt lat="43.03927" lon="1.03901">
        <ele>341</ele>
        <time>2024-04-21T14:29:38.993Z</time>
      </trkpt>
      <trkpt lat="43.03926" lon="1.03895">
        <ele>340.8</ele>
        <time>2024-04-21T14:29:39.993Z</time>
      </trkpt>
      <trkpt lat="43.03924" lon="1.03889">
        <ele>340.8</ele>
        <time>2024-04-21T14:29:40.993Z</time>
      </trkpt>
      <trkpt lat="43.03922" lon="1.03883">
        <ele>340.6</ele>
        <time>2024-04-21T14:29:41.993Z</time>
      </trkpt>
      <trkpt lat="43.03921" lon="1.03877">
        <ele>340.8</ele>
        <time>2024-04-21T14:29:42.993Z</time>
      </trkpt>
      <trkpt lat="43.03919" lon="1.03871">
        <ele>340.8</ele>
        <time>2024-04-21T14:29:43.993Z</time>
      </trkpt>
      <trkpt lat="43.03918" lon="1.03864">
        <ele>341.2</ele>
        <time>2024-04-21T14:29:44.993Z</time>
      </trkpt>
      <trkpt lat="43.03917" lon="1.03858">
        <ele>341.2</ele>
        <time>2024-04-21T14:29:45.993Z</time>
      </trkpt>
      <trkpt lat="43.03916" lon="1.03852">
        <ele>341.4</ele>
        <time>2024-04-21T14:29:46.993Z</time>
      </trkpt>
      <trkpt lat="43.03915" lon="1.03846">
        <ele>341.4</ele>
        <time>2024-04-21T14:29:47.993Z</time>
      </trkpt>
      <trkpt lat="43.03913" lon="1.0384">
        <ele>341.4</ele>
        <time>2024-04-21T14:29:48.993Z</time>
      </trkpt>
      <trkpt lat="43.03911" lon="1.03834">
        <ele>341.8</ele>
        <time>2024-04-21T14:29:49.993Z</time>
      </trkpt>
      <trkpt lat="43.03909" lon="1.03829">
        <ele>341.8</ele>
        <time>2024-04-21T14:29:50.993Z</time>
      </trkpt>
      <trkpt lat="43.03908" lon="1.03823">
        <ele>341.8</ele>
        <time>2024-04-21T14:29:51.993Z</time>
      </trkpt>
      <trkpt lat="43.03907" lon="1.03817">
        <ele>341.8</ele>
        <time>2024-04-21T14:29:52.993Z</time>
      </trkpt>
      <trkpt lat="43.03905" lon="1.03811">
        <ele>341.4</ele>
        <time>2024-04-21T14:29:53.993Z</time>
      </trkpt>
      <trkpt lat="43.03904" lon="1.03805">
        <ele>341</ele>
        <time>2024-04-21T14:29:54.993Z</time>
      </trkpt>
      <trkpt lat="43.03903" lon="1.03799">
        <ele>341</ele>
        <time>2024-04-21T14:29:55.993Z</time>
      </trkpt>
      <trkpt lat="43.03902" lon="1.03792">
        <ele>341</ele>
        <time>2024-04-21T14:29:56.993Z</time>
      </trkpt>
      <trkpt lat="43.039" lon="1.03785">
        <ele>341</ele>
        <time>2024-04-21T14:29:57.993Z</time>
      </trkpt>
      <trkpt lat="43.039" lon="1.03779">
        <ele>341</ele>
        <time>2024-04-21T14:29:58.993Z</time>
      </trkpt>
      <trkpt lat="43.039" lon="1.03773">
        <ele>341</ele>
        <time>2024-04-21T14:29:59.993Z</time>
      </trkpt>
      <trkpt lat="43.03899" lon="1.03766">
        <ele>341</ele>
        <time>2024-04-21T14:30:00.993Z</time>
      </trkpt>
      <trkpt lat="43.03899" lon="1.0376">
        <ele>341</ele>
        <time>2024-04-21T14:30:01.993Z</time>
      </trkpt>
      <trkpt lat="43.03898" lon="1.03752">
        <ele>341</ele>
        <time>2024-04-21T14:30:02.993Z</time>
      </trkpt>
      <trkpt lat="43.03898" lon="1.03746">
        <ele>340.8</ele>
        <time>2024-04-21T14:30:03.993Z</time>
      </trkpt>
      <trkpt lat="43.03897" lon="1.03738">
        <ele>340.8</ele>
        <time>2024-04-21T14:30:04.993Z</time>
      </trkpt>
      <trkpt lat="43.03898" lon="1.03732">
        <ele>340.4</ele>
        <time>2024-04-21T14:30:05.993Z</time>
      </trkpt>
      <trkpt lat="43.03897" lon="1.03724">
        <ele>340.4</ele>
        <time>2024-04-21T14:30:06.993Z</time>
      </trkpt>
      <trkpt lat="43.03896" lon="1.03718">
        <ele>340.4</ele>
        <time>2024-04-21T14:30:07.993Z</time>
      </trkpt>
      <trkpt lat="43.03896" lon="1.03711">
        <ele>340.2</ele>
        <time>2024-04-21T14:30:08.993Z</time>
      </trkpt>
      <trkpt lat="43.03896" lon="1.03705">
        <ele>340.2</ele>
        <time>2024-04-21T14:30:09.993Z</time>
      </trkpt>
      <trkpt lat="43.03895" lon="1.03698">
        <ele>340.2</ele>
        <time>2024-04-21T14:30:10.993Z</time>
      </trkpt>
      <trkpt lat="43.03895" lon="1.03692">
        <ele>339.8</ele>
        <time>2024-04-21T14:30:11.993Z</time>
      </trkpt>
      <trkpt lat="43.03895" lon="1.03685">
        <ele>339.8</ele>
        <time>2024-04-21T14:30:12.993Z</time>
      </trkpt>
      <trkpt lat="43.03894" lon="1.03679">
        <ele>339.8</ele>
        <time>2024-04-21T14:30:13.993Z</time>
      </trkpt>
      <trkpt lat="43.03894" lon="1.03672">
        <ele>339.8</ele>
        <time>2024-04-21T14:30:14.993Z</time>
      </trkpt>
      <trkpt lat="43.03893" lon="1.03666">
        <ele>339.6</ele>
        <time>2024-04-21T14:30:15.993Z</time>
      </trkpt>
      <trkpt lat="43.03893" lon="1.0366">
        <ele>339.6</ele>
        <time>2024-04-21T14:30:16.993Z</time>
      </trkpt>
      <trkpt lat="43.03893" lon="1.03653">
        <ele>339.6</ele>
        <time>2024-04-21T14:30:17.993Z</time>
      </trkpt>
      <trkpt lat="43.03892" lon="1.03647">
        <ele>339.6</ele>
        <time>2024-04-21T14:30:18.993Z</time>
      </trkpt>
      <trkpt lat="43.03892" lon="1.0364">
        <ele>340</ele>
        <time>2024-04-21T14:30:19.993Z</time>
      </trkpt>
      <trkpt lat="43.03892" lon="1.03633">
        <ele>340</ele>
        <time>2024-04-21T14:30:20.993Z</time>
      </trkpt>
      <trkpt lat="43.03892" lon="1.03626">
        <ele>339.6</ele>
        <time>2024-04-21T14:30:21.993Z</time>
      </trkpt>
      <trkpt lat="43.03892" lon="1.0362">
        <ele>339.6</ele>
        <time>2024-04-21T14:30:22.993Z</time>
      </trkpt>
      <trkpt lat="43.03892" lon="1.03613">
        <ele>339.6</ele>
        <time>2024-04-21T14:30:23.993Z</time>
      </trkpt>
      <trkpt lat="43.03892" lon="1.03606">
        <ele>339.6</ele>
        <time>2024-04-21T14:30:24.993Z</time>
      </trkpt>
      <trkpt lat="43.03892" lon="1.03599">
        <ele>339.6</ele>
        <time>2024-04-21T14:30:25.993Z</time>
      </trkpt>
      <trkpt lat="43.03893" lon="1.03592">
        <ele>339.6</ele>
        <time>2024-04-21T14:30:26.993Z</time>
      </trkpt>
      <trkpt lat="43.03893" lon="1.03585">
        <ele>339.2</ele>
        <time>2024-04-21T14:30:27.993Z</time>
      </trkpt>
      <trkpt lat="43.03894" lon="1.03578">
        <ele>339.2</ele>
        <time>2024-04-21T14:30:28.993Z</time>
      </trkpt>
      <trkpt lat="43.03894" lon="1.03571">
        <ele>339.2</ele>
        <time>2024-04-21T14:30:29.993Z</time>
      </trkpt>
      <trkpt lat="43.03894" lon="1.03565">
        <ele>339.2</ele>
        <time>2024-04-21T14:30:30.993Z</time>
      </trkpt>
      <trkpt lat="43.03895" lon="1.03558">
        <ele>338.8</ele>
        <time>2024-04-21T14:30:31.993Z</time>
      </trkpt>
      <trkpt lat="43.03895" lon="1.03551">
        <ele>338.4</ele>
        <time>2024-04-21T14:30:32.993Z</time>
      </trkpt>
      <trkpt lat="43.03895" lon="1.03545">
        <ele>338.4</ele>
        <time>2024-04-21T14:30:33.993Z</time>
      </trkpt>
      <trkpt lat="43.03896" lon="1.03539">
        <ele>338.4</ele>
        <time>2024-04-21T14:30:34.993Z</time>
      </trkpt>
      <trkpt lat="43.03897" lon="1.03532">
        <ele>338.4</ele>
        <time>2024-04-21T14:30:35.993Z</time>
      </trkpt>
      <trkpt lat="43.03898" lon="1.03525">
        <ele>338.4</ele>
        <time>2024-04-21T14:30:36.993Z</time>
      </trkpt>
      <trkpt lat="43.03898" lon="1.03519">
        <ele>338.4</ele>
        <time>2024-04-21T14:30:37.993Z</time>
      </trkpt>
      <trkpt lat="43.03899" lon="1.03512">
        <ele>338.4</ele>
        <time>2024-04-21T14:30:38.993Z</time>
      </trkpt>
      <trkpt lat="43.03899" lon="1.03506">
        <ele>338.2</ele>
        <time>2024-04-21T14:30:39.993Z</time>
      </trkpt>
      <trkpt lat="43.039" lon="1.035">
        <ele>338.2</ele>
        <time>2024-04-21T14:30:40.993Z</time>
      </trkpt>
      <trkpt lat="43.03901" lon="1.03493">
        <ele>338.2</ele>
        <time>2024-04-21T14:30:41.993Z</time>
      </trkpt>
      <trkpt lat="43.03902" lon="1.03488">
        <ele>338</ele>
        <time>2024-04-21T14:30:42.993Z</time>
      </trkpt>
      <trkpt lat="43.03902" lon="1.03481">
        <ele>338</ele>
        <time>2024-04-21T14:30:43.993Z</time>
      </trkpt>
      <trkpt lat="43.03903" lon="1.03475">
        <ele>338</ele>
        <time>2024-04-21T14:30:44.993Z</time>
      </trkpt>
      <trkpt lat="43.03904" lon="1.03469">
        <ele>338</ele>
        <time>2024-04-21T14:30:45.993Z</time>
      </trkpt>
      <trkpt lat="43.03905" lon="1.03463">
        <ele>338</ele>
        <time>2024-04-21T14:30:46.993Z</time>
      </trkpt>
      <trkpt lat="43.03906" lon="1.03457">
        <ele>338</ele>
        <time>2024-04-21T14:30:47.993Z</time>
      </trkpt>
      <trkpt lat="43.03907" lon="1.03451">
        <ele>338</ele>
        <time>2024-04-21T14:30:48.993Z</time>
      </trkpt>
      <trkpt lat="43.03908" lon="1.03444">
        <ele>338</ele>
        <time>2024-04-21T14:30:49.993Z</time>
      </trkpt>
      <trkpt lat="43.03909" lon="1.03437">
        <ele>338</ele>
        <time>2024-04-21T14:30:50.993Z</time>
      </trkpt>
      <trkpt lat="43.0391" lon="1.03431">
        <ele>337.8</ele>
        <time>2024-04-21T14:30:51.993Z</time>
      </trkpt>
      <trkpt lat="43.03911" lon="1.03425">
        <ele>337.8</ele>
        <time>2024-04-21T14:30:52.993Z</time>
      </trkpt>
      <trkpt lat="43.03913" lon="1.03419">
        <ele>337.8</ele>
        <time>2024-04-21T14:30:53.993Z</time>
      </trkpt>
      <trkpt lat="43.03914" lon="1.03413">
        <ele>337.8</ele>
        <time>2024-04-21T14:30:54.993Z</time>
      </trkpt>
      <trkpt lat="43.03915" lon="1.03406">
        <ele>337.8</ele>
        <time>2024-04-21T14:30:55.993Z</time>
      </trkpt>
      <trkpt lat="43.03916" lon="1.034">
        <ele>337.8</ele>
        <time>2024-04-21T14:30:56.993Z</time>
      </trkpt>
      <trkpt lat="43.03917" lon="1.03394">
        <ele>337.8</ele>
        <time>2024-04-21T14:30:57.993Z</time>
      </trkpt>
      <trkpt lat="43.03918" lon="1.03388">
        <ele>338.2</ele>
        <time>2024-04-21T14:30:58.993Z</time>
      </trkpt>
      <trkpt lat="43.0392" lon="1.03382">
        <ele>338.2</ele>
        <time>2024-04-21T14:30:59.993Z</time>
      </trkpt>
      <trkpt lat="43.03921" lon="1.03375">
        <ele>338.2</ele>
        <time>2024-04-21T14:31:00.993Z</time>
      </trkpt>
      <trkpt lat="43.03923" lon="1.03368">
        <ele>338.2</ele>
        <time>2024-04-21T14:31:01.993Z</time>
      </trkpt>
      <trkpt lat="43.03925" lon="1.03361">
        <ele>338.2</ele>
        <time>2024-04-21T14:31:02.993Z</time>
      </trkpt>
      <trkpt lat="43.03926" lon="1.03355">
        <ele>337.8</ele>
        <time>2024-04-21T14:31:03.993Z</time>
      </trkpt>
      <trkpt lat="43.03928" lon="1.03349">
        <ele>337.8</ele>
        <time>2024-04-21T14:31:04.993Z</time>
      </trkpt>
      <trkpt lat="43.03929" lon="1.03343">
        <ele>338</ele>
        <time>2024-04-21T14:31:05.993Z</time>
      </trkpt>
      <trkpt lat="43.03931" lon="1.03337">
        <ele>338</ele>
        <time>2024-04-21T14:31:06.993Z</time>
      </trkpt>
      <trkpt lat="43.03932" lon="1.0333">
        <ele>337.8</ele>
        <time>2024-04-21T14:31:07.993Z</time>
      </trkpt>
      <trkpt lat="43.03934" lon="1.03324">
        <ele>337.8</ele>
        <time>2024-04-21T14:31:08.993Z</time>
      </trkpt>
      <trkpt lat="43.03936" lon="1.03318">
        <ele>337.8</ele>
        <time>2024-04-21T14:31:09.993Z</time>
      </trkpt>
      <trkpt lat="43.03937" lon="1.03312">
        <ele>337.8</ele>
        <time>2024-04-21T14:31:10.993Z</time>
      </trkpt>
      <trkpt lat="43.03939" lon="1.03307">
        <ele>337.8</ele>
        <time>2024-04-21T14:31:11.993Z</time>
      </trkpt>
      <trkpt lat="43.0394" lon="1.033">
        <ele>337.8</ele>
        <time>2024-04-21T14:31:12.993Z</time>
      </trkpt>
      <trkpt lat="43.03941" lon="1.03294">
        <ele>337.8</ele>
        <time>2024-04-21T14:31:13.993Z</time>
      </trkpt>
      <trkpt lat="43.03943" lon="1.03288">
        <ele>337.6</ele>
        <time>2024-04-21T14:31:14.993Z</time>
      </trkpt>
      <trkpt lat="43.03945" lon="1.03282">
        <ele>337.6</ele>
        <time>2024-04-21T14:31:15.993Z</time>
      </trkpt>
      <trkpt lat="43.03947" lon="1.03276">
        <ele>338.2</ele>
        <time>2024-04-21T14:31:16.993Z</time>
      </trkpt>
      <trkpt lat="43.03949" lon="1.0327">
        <ele>338.2</ele>
        <time>2024-04-21T14:31:17.993Z</time>
      </trkpt>
      <trkpt lat="43.03951" lon="1.03263">
        <ele>338</ele>
        <time>2024-04-21T14:31:18.993Z</time>
      </trkpt>
      <trkpt lat="43.03952" lon="1.03257">
        <ele>338</ele>
        <time>2024-04-21T14:31:19.993Z</time>
      </trkpt>
      <trkpt lat="43.03954" lon="1.03252">
        <ele>338</ele>
        <time>2024-04-21T14:31:20.993Z</time>
      </trkpt>
      <trkpt lat="43.03956" lon="1.03245">
        <ele>337.6</ele>
        <time>2024-04-21T14:31:21.993Z</time>
      </trkpt>
      <trkpt lat="43.03957" lon="1.03239">
        <ele>337.6</ele>
        <time>2024-04-21T14:31:22.993Z</time>
      </trkpt>
      <trkpt lat="43.03959" lon="1.03233">
        <ele>337.4</ele>
        <time>2024-04-21T14:31:23.993Z</time>
      </trkpt>
      <trkpt lat="43.0396" lon="1.03227">
        <ele>337.4</ele>
        <time>2024-04-21T14:31:24.993Z</time>
      </trkpt>
      <trkpt lat="43.03962" lon="1.03222">
        <ele>337.4</ele>
        <time>2024-04-21T14:31:25.993Z</time>
      </trkpt>
      <trkpt lat="43.03963" lon="1.03215">
        <ele>337.6</ele>
        <time>2024-04-21T14:31:26.993Z</time>
      </trkpt>
      <trkpt lat="43.03965" lon="1.03209">
        <ele>337.8</ele>
        <time>2024-04-21T14:31:27.993Z</time>
      </trkpt>
      <trkpt lat="43.03966" lon="1.03203">
        <ele>337.8</ele>
        <time>2024-04-21T14:31:28.993Z</time>
      </trkpt>
      <trkpt lat="43.03967" lon="1.03197">
        <ele>338</ele>
        <time>2024-04-21T14:31:29.993Z</time>
      </trkpt>
      <trkpt lat="43.03969" lon="1.03191">
        <ele>338</ele>
        <time>2024-04-21T14:31:30.993Z</time>
      </trkpt>
      <trkpt lat="43.0397" lon="1.03184">
        <ele>338</ele>
        <time>2024-04-21T14:31:31.993Z</time>
      </trkpt>
      <trkpt lat="43.03971" lon="1.03178">
        <ele>338</ele>
        <time>2024-04-21T14:31:32.993Z</time>
      </trkpt>
      <trkpt lat="43.03973" lon="1.03172">
        <ele>338</ele>
        <time>2024-04-21T14:31:33.993Z</time>
      </trkpt>
      <trkpt lat="43.03974" lon="1.03165">
        <ele>338</ele>
        <time>2024-04-21T14:31:34.993Z</time>
      </trkpt>
      <trkpt lat="43.03976" lon="1.03158">
        <ele>338</ele>
        <time>2024-04-21T14:31:35.993Z</time>
      </trkpt>
      <trkpt lat="43.03977" lon="1.03152">
        <ele>338</ele>
        <time>2024-04-21T14:31:36.993Z</time>
      </trkpt>
      <trkpt lat="43.03978" lon="1.03145">
        <ele>338</ele>
        <time>2024-04-21T14:31:37.993Z</time>
      </trkpt>
      <trkpt lat="43.0398" lon="1.03139">
        <ele>338</ele>
        <time>2024-04-21T14:31:38.993Z</time>
      </trkpt>
      <trkpt lat="43.0398" lon="1.03132">
        <ele>338</ele>
        <time>2024-04-21T14:31:39.993Z</time>
      </trkpt>
      <trkpt lat="43.03981" lon="1.03125">
        <ele>338</ele>
        <time>2024-04-21T14:31:40.993Z</time>
      </trkpt>
      <trkpt lat="43.03983" lon="1.03119">
        <ele>338</ele>
        <time>2024-04-21T14:31:41.993Z</time>
      </trkpt>
      <trkpt lat="43.03983" lon="1.03113">
        <ele>338</ele>
        <time>2024-04-21T14:31:42.993Z</time>
      </trkpt>
      <trkpt lat="43.03983" lon="1.03107">
        <ele>337.8</ele>
        <time>2024-04-21T14:31:43.993Z</time>
      </trkpt>
      <trkpt lat="43.03983" lon="1.031">
        <ele>337.8</ele>
        <time>2024-04-21T14:31:44.993Z</time>
      </trkpt>
      <trkpt lat="43.03981" lon="1.03094">
        <ele>337.8</ele>
        <time>2024-04-21T14:31:45.993Z</time>
      </trkpt>
      <trkpt lat="43.03979" lon="1.03089">
        <ele>337.8</ele>
        <time>2024-04-21T14:31:46.993Z</time>
      </trkpt>
      <trkpt lat="43.03976" lon="1.03085">
        <ele>337.8</ele>
        <time>2024-04-21T14:31:47.993Z</time>
      </trkpt>
      <trkpt lat="43.03972" lon="1.03081">
        <ele>338.4</ele>
        <time>2024-04-21T14:31:48.993Z</time>
      </trkpt>
      <trkpt lat="43.03969" lon="1.03076">
        <ele>338.4</ele>
        <time>2024-04-21T14:31:49.993Z</time>
      </trkpt>
      <trkpt lat="43.03965" lon="1.03074">
        <ele>338.4</ele>
        <time>2024-04-21T14:31:50.993Z</time>
      </trkpt>
      <trkpt lat="43.03961" lon="1.03071">
        <ele>338.6</ele>
        <time>2024-04-21T14:31:51.993Z</time>
      </trkpt>
      <trkpt lat="43.03957" lon="1.03068">
        <ele>338.6</ele>
        <time>2024-04-21T14:31:52.993Z</time>
      </trkpt>
      <trkpt lat="43.03953" lon="1.03065">
        <ele>338.6</ele>
        <time>2024-04-21T14:31:53.993Z</time>
      </trkpt>
      <trkpt lat="43.0395" lon="1.03062">
        <ele>339.2</ele>
        <time>2024-04-21T14:31:54.993Z</time>
      </trkpt>
      <trkpt lat="43.03946" lon="1.03058">
        <ele>339.2</ele>
        <time>2024-04-21T14:31:55.993Z</time>
      </trkpt>
      <trkpt lat="43.03942" lon="1.03055">
        <ele>339.6</ele>
        <time>2024-04-21T14:31:56.993Z</time>
      </trkpt>
      <trkpt lat="43.03939" lon="1.03052">
        <ele>339.6</ele>
        <time>2024-04-21T14:31:57.993Z</time>
      </trkpt>
      <trkpt lat="43.03935" lon="1.03049">
        <ele>339.8</ele>
        <time>2024-04-21T14:31:58.993Z</time>
      </trkpt>
      <trkpt lat="43.03931" lon="1.03046">
        <ele>339.8</ele>
        <time>2024-04-21T14:31:59.993Z</time>
      </trkpt>
      <trkpt lat="43.03927" lon="1.03042">
        <ele>339.8</ele>
        <time>2024-04-21T14:32:00.993Z</time>
      </trkpt>
      <trkpt lat="43.03923" lon="1.03038">
        <ele>339.8</ele>
        <time>2024-04-21T14:32:01.993Z</time>
      </trkpt>
      <trkpt lat="43.03919" lon="1.03035">
        <ele>339.8</ele>
        <time>2024-04-21T14:32:02.993Z</time>
      </trkpt>
      <trkpt lat="43.03915" lon="1.03032">
        <ele>339.8</ele>
        <time>2024-04-21T14:32:03.993Z</time>
      </trkpt>
      <trkpt lat="43.03911" lon="1.03028">
        <ele>339.4</ele>
        <time>2024-04-21T14:32:04.993Z</time>
      </trkpt>
      <trkpt lat="43.03907" lon="1.03025">
        <ele>339.4</ele>
        <time>2024-04-21T14:32:05.993Z</time>
      </trkpt>
      <trkpt lat="43.03903" lon="1.03021">
        <ele>339.4</ele>
        <time>2024-04-21T14:32:06.993Z</time>
      </trkpt>
      <trkpt lat="43.03899" lon="1.03018">
        <ele>339.4</ele>
        <time>2024-04-21T14:32:07.993Z</time>
      </trkpt>
      <trkpt lat="43.03895" lon="1.03014">
        <ele>339.4</ele>
        <time>2024-04-21T14:32:08.993Z</time>
      </trkpt>
      <trkpt lat="43.03892" lon="1.0301">
        <ele>339.4</ele>
        <time>2024-04-21T14:32:09.993Z</time>
      </trkpt>
      <trkpt lat="43.03888" lon="1.03007">
        <ele>339.4</ele>
        <time>2024-04-21T14:32:10.993Z</time>
      </trkpt>
      <trkpt lat="43.03885" lon="1.03003">
        <ele>339.8</ele>
        <time>2024-04-21T14:32:11.993Z</time>
      </trkpt>
      <trkpt lat="43.03882" lon="1.02999">
        <ele>339.8</ele>
        <time>2024-04-21T14:32:12.993Z</time>
      </trkpt>
      <trkpt lat="43.03879" lon="1.02995">
        <ele>339.8</ele>
        <time>2024-04-21T14:32:13.993Z</time>
      </trkpt>
      <trkpt lat="43.03876" lon="1.02989">
        <ele>339.8</ele>
        <time>2024-04-21T14:32:14.993Z</time>
      </trkpt>
      <trkpt lat="43.03873" lon="1.02983">
        <ele>339.8</ele>
        <time>2024-04-21T14:32:15.993Z</time>
      </trkpt>
      <trkpt lat="43.03871" lon="1.02976">
        <ele>339.6</ele>
        <time>2024-04-21T14:32:16.993Z</time>
      </trkpt>
      <trkpt lat="43.0387" lon="1.02968">
        <ele>339.6</ele>
        <time>2024-04-21T14:32:17.993Z</time>
      </trkpt>
      <trkpt lat="43.0387" lon="1.02961">
        <ele>339.2</ele>
        <time>2024-04-21T14:32:18.993Z</time>
      </trkpt>
      <trkpt lat="43.0387" lon="1.02954">
        <ele>339</ele>
        <time>2024-04-21T14:32:19.993Z</time>
      </trkpt>
      <trkpt lat="43.0387" lon="1.02947">
        <ele>339</ele>
        <time>2024-04-21T14:32:20.993Z</time>
      </trkpt>
      <trkpt lat="43.03869" lon="1.0294">
        <ele>339</ele>
        <time>2024-04-21T14:32:21.993Z</time>
      </trkpt>
      <trkpt lat="43.03867" lon="1.02934">
        <ele>339</ele>
        <time>2024-04-21T14:32:22.993Z</time>
      </trkpt>
      <trkpt lat="43.03864" lon="1.02928">
        <ele>339</ele>
        <time>2024-04-21T14:32:23.993Z</time>
      </trkpt>
      <trkpt lat="43.03861" lon="1.02923">
        <ele>338.8</ele>
        <time>2024-04-21T14:32:24.993Z</time>
      </trkpt>
      <trkpt lat="43.03856" lon="1.0292">
        <ele>338.4</ele>
        <time>2024-04-21T14:32:25.993Z</time>
      </trkpt>
      <trkpt lat="43.03851" lon="1.02918">
        <ele>338.4</ele>
        <time>2024-04-21T14:32:26.993Z</time>
      </trkpt>
      <trkpt lat="43.03846" lon="1.02916">
        <ele>338.4</ele>
        <time>2024-04-21T14:32:27.993Z</time>
      </trkpt>
      <trkpt lat="43.03841" lon="1.02914">
        <ele>338.4</ele>
        <time>2024-04-21T14:32:28.993Z</time>
      </trkpt>
      <trkpt lat="43.03836" lon="1.02913">
        <ele>338.4</ele>
        <time>2024-04-21T14:32:29.993Z</time>
      </trkpt>
      <trkpt lat="43.03831" lon="1.02912">
        <ele>338.4</ele>
        <time>2024-04-21T14:32:30.993Z</time>
      </trkpt>
      <trkpt lat="43.03826" lon="1.0291">
        <ele>338.4</ele>
        <time>2024-04-21T14:32:31.993Z</time>
      </trkpt>
      <trkpt lat="43.03822" lon="1.02909">
        <ele>338.4</ele>
        <time>2024-04-21T14:32:32.993Z</time>
      </trkpt>
      <trkpt lat="43.03817" lon="1.02908">
        <ele>338.4</ele>
        <time>2024-04-21T14:32:33.993Z</time>
      </trkpt>
      <trkpt lat="43.03813" lon="1.02906">
        <ele>338.4</ele>
        <time>2024-04-21T14:32:34.993Z</time>
      </trkpt>
      <trkpt lat="43.03808" lon="1.02905">
        <ele>338.4</ele>
        <time>2024-04-21T14:32:35.993Z</time>
      </trkpt>
      <trkpt lat="43.03803" lon="1.02904">
        <ele>338.4</ele>
        <time>2024-04-21T14:32:36.993Z</time>
      </trkpt>
      <trkpt lat="43.03798" lon="1.02903">
        <ele>338.4</ele>
        <time>2024-04-21T14:32:37.993Z</time>
      </trkpt>
      <trkpt lat="43.03793" lon="1.02902">
        <ele>338.6</ele>
        <time>2024-04-21T14:32:38.993Z</time>
      </trkpt>
      <trkpt lat="43.03788" lon="1.02902">
        <ele>338.6</ele>
        <time>2024-04-21T14:32:39.993Z</time>
      </trkpt>
      <trkpt lat="43.03784" lon="1.02901">
        <ele>338.4</ele>
        <time>2024-04-21T14:32:40.993Z</time>
      </trkpt>
      <trkpt lat="43.03779" lon="1.02901">
        <ele>338.4</ele>
        <time>2024-04-21T14:32:41.993Z</time>
      </trkpt>
      <trkpt lat="43.03774" lon="1.02901">
        <ele>338.4</ele>
        <time>2024-04-21T14:32:42.993Z</time>
      </trkpt>
      <trkpt lat="43.03769" lon="1.02901">
        <ele>338.4</ele>
        <time>2024-04-21T14:32:43.993Z</time>
      </trkpt>
      <trkpt lat="43.03764" lon="1.02903">
        <ele>338.4</ele>
        <time>2024-04-21T14:32:44.993Z</time>
      </trkpt>
      <trkpt lat="43.03759" lon="1.02904">
        <ele>338.4</ele>
        <time>2024-04-21T14:32:45.993Z</time>
      </trkpt>
      <trkpt lat="43.03754" lon="1.02905">
        <ele>338.4</ele>
        <time>2024-04-21T14:32:46.993Z</time>
      </trkpt>
      <trkpt lat="43.03749" lon="1.02906">
        <ele>338.4</ele>
        <time>2024-04-21T14:32:47.993Z</time>
      </trkpt>
      <trkpt lat="43.03744" lon="1.02907">
        <ele>338.4</ele>
        <time>2024-04-21T14:32:48.993Z</time>
      </trkpt>
      <trkpt lat="43.03739" lon="1.02909">
        <ele>338.4</ele>
        <time>2024-04-21T14:32:49.993Z</time>
      </trkpt>
      <trkpt lat="43.03734" lon="1.02911">
        <ele>338.4</ele>
        <time>2024-04-21T14:32:50.993Z</time>
      </trkpt>
      <trkpt lat="43.03729" lon="1.02913">
        <ele>338.4</ele>
        <time>2024-04-21T14:32:51.993Z</time>
      </trkpt>
      <trkpt lat="43.03724" lon="1.02914">
        <ele>338.4</ele>
        <time>2024-04-21T14:32:52.993Z</time>
      </trkpt>
      <trkpt lat="43.03719" lon="1.02916">
        <ele>338.4</ele>
        <time>2024-04-21T14:32:53.993Z</time>
      </trkpt>
      <trkpt lat="43.03714" lon="1.02918">
        <ele>338.4</ele>
        <time>2024-04-21T14:32:54.993Z</time>
      </trkpt>
      <trkpt lat="43.03709" lon="1.0292">
        <ele>338.4</ele>
        <time>2024-04-21T14:32:55.993Z</time>
      </trkpt>
      <trkpt lat="43.03704" lon="1.02922">
        <ele>338.4</ele>
        <time>2024-04-21T14:32:56.993Z</time>
      </trkpt>
      <trkpt lat="43.03698" lon="1.02923">
        <ele>338.2</ele>
        <time>2024-04-21T14:32:57.993Z</time>
      </trkpt>
      <trkpt lat="43.03693" lon="1.02925">
        <ele>337.8</ele>
        <time>2024-04-21T14:32:58.993Z</time>
      </trkpt>
      <trkpt lat="43.03687" lon="1.02926">
        <ele>337.8</ele>
        <time>2024-04-21T14:32:59.993Z</time>
      </trkpt>
      <trkpt lat="43.03682" lon="1.02928">
        <ele>337.8</ele>
        <time>2024-04-21T14:33:00.993Z</time>
      </trkpt>
      <trkpt lat="43.03677" lon="1.0293">
        <ele>337.6</ele>
        <time>2024-04-21T14:33:01.993Z</time>
      </trkpt>
      <trkpt lat="43.03671" lon="1.02932">
        <ele>337.6</ele>
        <time>2024-04-21T14:33:02.993Z</time>
      </trkpt>
      <trkpt lat="43.03665" lon="1.02934">
        <ele>337.6</ele>
        <time>2024-04-21T14:33:03.993Z</time>
      </trkpt>
      <trkpt lat="43.0366" lon="1.02936">
        <ele>337.6</ele>
        <time>2024-04-21T14:33:04.993Z</time>
      </trkpt>
      <trkpt lat="43.03654" lon="1.02937">
        <ele>337.6</ele>
        <time>2024-04-21T14:33:05.993Z</time>
      </trkpt>
      <trkpt lat="43.03648" lon="1.02939">
        <ele>337.6</ele>
        <time>2024-04-21T14:33:06.993Z</time>
      </trkpt>
      <trkpt lat="43.03643" lon="1.02942">
        <ele>337.6</ele>
        <time>2024-04-21T14:33:07.993Z</time>
      </trkpt>
      <trkpt lat="43.03637" lon="1.02944">
        <ele>337.8</ele>
        <time>2024-04-21T14:33:08.993Z</time>
      </trkpt>
      <trkpt lat="43.03632" lon="1.02945">
        <ele>337.8</ele>
        <time>2024-04-21T14:33:09.993Z</time>
      </trkpt>
      <trkpt lat="43.03627" lon="1.02947">
        <ele>337.6</ele>
        <time>2024-04-21T14:33:10.993Z</time>
      </trkpt>
      <trkpt lat="43.03622" lon="1.02949">
        <ele>337.2</ele>
        <time>2024-04-21T14:33:11.993Z</time>
      </trkpt>
      <trkpt lat="43.03617" lon="1.02951">
        <ele>337.2</ele>
        <time>2024-04-21T14:33:12.993Z</time>
      </trkpt>
      <trkpt lat="43.03612" lon="1.02953">
        <ele>337.2</ele>
        <time>2024-04-21T14:33:13.993Z</time>
      </trkpt>
      <trkpt lat="43.03607" lon="1.02955">
        <ele>337.2</ele>
        <time>2024-04-21T14:33:14.993Z</time>
      </trkpt>
      <trkpt lat="43.03602" lon="1.02957">
        <ele>337.2</ele>
        <time>2024-04-21T14:33:15.993Z</time>
      </trkpt>
      <trkpt lat="43.03597" lon="1.02959">
        <ele>337.6</ele>
        <time>2024-04-21T14:33:16.993Z</time>
      </trkpt>
      <trkpt lat="43.03592" lon="1.02961">
        <ele>337.6</ele>
        <time>2024-04-21T14:33:17.993Z</time>
      </trkpt>
      <trkpt lat="43.03587" lon="1.02962">
        <ele>337.2</ele>
        <time>2024-04-21T14:33:18.993Z</time>
      </trkpt>
      <trkpt lat="43.03582" lon="1.02963">
        <ele>337.2</ele>
        <time>2024-04-21T14:33:19.993Z</time>
      </trkpt>
      <trkpt lat="43.03578" lon="1.02965">
        <ele>337.2</ele>
        <time>2024-04-21T14:33:20.993Z</time>
      </trkpt>
      <trkpt lat="43.03578" lon="1.02965">
        <ele>337.4</ele>
        <time>2024-04-21T14:33:21.993Z</time>
      </trkpt>
      <trkpt lat="43.03573" lon="1.02968">
        <ele>337.4</ele>
        <time>2024-04-21T14:33:22.993Z</time>
      </trkpt>
      <trkpt lat="43.03569" lon="1.0297">
        <ele>337.2</ele>
        <time>2024-04-21T14:33:23.993Z</time>
      </trkpt>
      <trkpt lat="43.03565" lon="1.02976">
        <ele>337.2</ele>
        <time>2024-04-21T14:33:24.993Z</time>
      </trkpt>
      <trkpt lat="43.03561" lon="1.0298">
        <ele>337.2</ele>
        <time>2024-04-21T14:33:25.993Z</time>
      </trkpt>
      <trkpt lat="43.03558" lon="1.02983">
        <ele>337.2</ele>
        <time>2024-04-21T14:33:26.993Z</time>
      </trkpt>
      <trkpt lat="43.03554" lon="1.02985">
        <ele>337.2</ele>
        <time>2024-04-21T14:33:27.993Z</time>
      </trkpt>
      <trkpt lat="43.0355" lon="1.02987">
        <ele>337.2</ele>
        <time>2024-04-21T14:33:28.993Z</time>
      </trkpt>
      <trkpt lat="43.03546" lon="1.02989">
        <ele>337.2</ele>
        <time>2024-04-21T14:33:29.993Z</time>
      </trkpt>
      <trkpt lat="43.03541" lon="1.0299">
        <ele>337.2</ele>
        <time>2024-04-21T14:33:30.993Z</time>
      </trkpt>
      <trkpt lat="43.03537" lon="1.02991">
        <ele>336.8</ele>
        <time>2024-04-21T14:33:31.993Z</time>
      </trkpt>
      <trkpt lat="43.03532" lon="1.02992">
        <ele>336.8</ele>
        <time>2024-04-21T14:33:32.993Z</time>
      </trkpt>
      <trkpt lat="43.03528" lon="1.02995">
        <ele>336.8</ele>
        <time>2024-04-21T14:33:33.993Z</time>
      </trkpt>
      <trkpt lat="43.03523" lon="1.02996">
        <ele>337</ele>
        <time>2024-04-21T14:33:34.993Z</time>
      </trkpt>
      <trkpt lat="43.03519" lon="1.02997">
        <ele>337</ele>
        <time>2024-04-21T14:33:35.993Z</time>
      </trkpt>
      <trkpt lat="43.03515" lon="1.02999">
        <ele>337.4</ele>
        <time>2024-04-21T14:33:36.993Z</time>
      </trkpt>
      <trkpt lat="43.0351" lon="1.03">
        <ele>337.4</ele>
        <time>2024-04-21T14:33:37.993Z</time>
      </trkpt>
      <trkpt lat="43.03506" lon="1.03001">
        <ele>337.6</ele>
        <time>2024-04-21T14:33:38.993Z</time>
      </trkpt>
      <trkpt lat="43.03502" lon="1.03003">
        <ele>337.6</ele>
        <time>2024-04-21T14:33:39.993Z</time>
      </trkpt>
      <trkpt lat="43.03497" lon="1.03004">
        <ele>337.6</ele>
        <time>2024-04-21T14:33:40.993Z</time>
      </trkpt>
      <trkpt lat="43.03493" lon="1.03004">
        <ele>337.8</ele>
        <time>2024-04-21T14:33:41.993Z</time>
      </trkpt>
      <trkpt lat="43.03489" lon="1.03006">
        <ele>337.6</ele>
        <time>2024-04-21T14:33:42.993Z</time>
      </trkpt>
      <trkpt lat="43.03484" lon="1.03006">
        <ele>337.6</ele>
        <time>2024-04-21T14:33:43.993Z</time>
      </trkpt>
      <trkpt lat="43.0348" lon="1.03006">
        <ele>337.6</ele>
        <time>2024-04-21T14:33:44.993Z</time>
      </trkpt>
      <trkpt lat="43.03476" lon="1.03007">
        <ele>337.6</ele>
        <time>2024-04-21T14:33:45.993Z</time>
      </trkpt>
      <trkpt lat="43.03472" lon="1.03007">
        <ele>337.6</ele>
        <time>2024-04-21T14:33:46.993Z</time>
      </trkpt>
      <trkpt lat="43.03469" lon="1.03007">
        <ele>337.6</ele>
        <time>2024-04-21T14:33:47.993Z</time>
      </trkpt>
      <trkpt lat="43.03465" lon="1.03008">
        <ele>337.6</ele>
        <time>2024-04-21T14:33:48.993Z</time>
      </trkpt>
      <trkpt lat="43.03461" lon="1.03009">
        <ele>337.6</ele>
        <time>2024-04-21T14:33:49.993Z</time>
      </trkpt>
      <trkpt lat="43.03458" lon="1.03009">
        <ele>337.6</ele>
        <time>2024-04-21T14:33:50.993Z</time>
      </trkpt>
      <trkpt lat="43.03455" lon="1.03009">
        <ele>337.6</ele>
        <time>2024-04-21T14:33:51.993Z</time>
      </trkpt>
      <trkpt lat="43.03454" lon="1.03009">
        <ele>337.6</ele>
        <time>2024-04-21T14:33:52.993Z</time>
      </trkpt>
      <trkpt lat="43.03454" lon="1.03009">
        <ele>337.6</ele>
        <time>2024-04-21T14:33:53.993Z</time>
      </trkpt>
      <trkpt lat="43.03454" lon="1.03009">
        <ele>337.6</ele>
        <time>2024-04-21T14:33:54.993Z</time>
      </trkpt>
      <trkpt lat="43.03453" lon="1.03007">
        <ele>337.4</ele>
        <time>2024-04-21T14:33:55.993Z</time>
      </trkpt>
      <trkpt lat="43.03453" lon="1.03005">
        <ele>337.4</ele>
        <time>2024-04-21T14:33:56.993Z</time>
      </trkpt>
      <trkpt lat="43.03453" lon="1.03003">
        <ele>337.4</ele>
        <time>2024-04-21T14:33:57.993Z</time>
      </trkpt>
      <trkpt lat="43.03453" lon="1.03002">
        <ele>337.2</ele>
        <time>2024-04-21T14:33:58.993Z</time>
      </trkpt>
      <trkpt lat="43.03453" lon="1.03001">
        <ele>337.2</ele>
        <time>2024-04-21T14:33:59.993Z</time>
      </trkpt>
      <trkpt lat="43.03452" lon="1.03">
        <ele>337.2</ele>
        <time>2024-04-21T14:34:00.993Z</time>
      </trkpt>
      <trkpt lat="43.03452" lon="1.03">
        <ele>337.2</ele>
        <time>2024-04-21T14:34:01.993Z</time>
      </trkpt>
      <trkpt lat="43.03452" lon="1.03">
        <ele>337.2</ele>
        <time>2024-04-21T14:34:02.993Z</time>
      </trkpt>
      <trkpt lat="43.03451" lon="1.02999">
        <ele>337.2</ele>
        <time>2024-04-21T14:34:03.993Z</time>
      </trkpt>
      <trkpt lat="43.0345" lon="1.02997">
        <ele>337.4</ele>
        <time>2024-04-21T14:34:04.993Z</time>
      </trkpt>
      <trkpt lat="43.03448" lon="1.02995">
        <ele>337.4</ele>
        <time>2024-04-21T14:34:05.993Z</time>
      </trkpt>
      <trkpt lat="43.03446" lon="1.02993">
        <ele>337.8</ele>
        <time>2024-04-21T14:34:06.993Z</time>
      </trkpt>
      <trkpt lat="43.03444" lon="1.02992">
        <ele>337.8</ele>
        <time>2024-04-21T14:34:07.993Z</time>
      </trkpt>
      <trkpt lat="43.03441" lon="1.02991">
        <ele>337.8</ele>
        <time>2024-04-21T14:34:08.993Z</time>
      </trkpt>
      <trkpt lat="43.03438" lon="1.0299">
        <ele>338</ele>
        <time>2024-04-21T14:34:09.993Z</time>
      </trkpt>
      <trkpt lat="43.03434" lon="1.02989">
        <ele>338</ele>
        <time>2024-04-21T14:34:10.993Z</time>
      </trkpt>
      <trkpt lat="43.03431" lon="1.02988">
        <ele>338.2</ele>
        <time>2024-04-21T14:34:11.993Z</time>
      </trkpt>
      <trkpt lat="43.03427" lon="1.02987">
        <ele>338.2</ele>
        <time>2024-04-21T14:34:12.993Z</time>
      </trkpt>
      <trkpt lat="43.03424" lon="1.02986">
        <ele>338.2</ele>
        <time>2024-04-21T14:34:13.993Z</time>
      </trkpt>
      <trkpt lat="43.0342" lon="1.02985">
        <ele>338.2</ele>
        <time>2024-04-21T14:34:14.993Z</time>
      </trkpt>
      <trkpt lat="43.03417" lon="1.02983">
        <ele>338.4</ele>
        <time>2024-04-21T14:34:15.993Z</time>
      </trkpt>
      <trkpt lat="43.03413" lon="1.02981">
        <ele>338.4</ele>
        <time>2024-04-21T14:34:16.993Z</time>
      </trkpt>
      <trkpt lat="43.0341" lon="1.02979">
        <ele>338.4</ele>
        <time>2024-04-21T14:34:17.993Z</time>
      </trkpt>
      <trkpt lat="43.03406" lon="1.02978">
        <ele>338.8</ele>
        <time>2024-04-21T14:34:18.993Z</time>
      </trkpt>
      <trkpt lat="43.03402" lon="1.02975">
        <ele>338.8</ele>
        <time>2024-04-21T14:34:19.993Z</time>
      </trkpt>
      <trkpt lat="43.03399" lon="1.02973">
        <ele>338.8</ele>
        <time>2024-04-21T14:34:20.993Z</time>
      </trkpt>
      <trkpt lat="43.03396" lon="1.02971">
        <ele>338.8</ele>
        <time>2024-04-21T14:34:21.993Z</time>
      </trkpt>
      <trkpt lat="43.03393" lon="1.02968">
        <ele>339.2</ele>
        <time>2024-04-21T14:34:22.993Z</time>
      </trkpt>
      <trkpt lat="43.03389" lon="1.02966">
        <ele>339.2</ele>
        <time>2024-04-21T14:34:23.993Z</time>
      </trkpt>
      <trkpt lat="43.03386" lon="1.02963">
        <ele>339.4</ele>
        <time>2024-04-21T14:34:24.993Z</time>
      </trkpt>
      <trkpt lat="43.03383" lon="1.02961">
        <ele>339.4</ele>
        <time>2024-04-21T14:34:25.993Z</time>
      </trkpt>
      <trkpt lat="43.03379" lon="1.02959">
        <ele>339.4</ele>
        <time>2024-04-21T14:34:26.993Z</time>
      </trkpt>
      <trkpt lat="43.03376" lon="1.02956">
        <ele>339.8</ele>
        <time>2024-04-21T14:34:27.993Z</time>
      </trkpt>
      <trkpt lat="43.03373" lon="1.02954">
        <ele>339.8</ele>
        <time>2024-04-21T14:34:28.993Z</time>
      </trkpt>
      <trkpt lat="43.0337" lon="1.02951">
        <ele>339.8</ele>
        <time>2024-04-21T14:34:29.993Z</time>
      </trkpt>
      <trkpt lat="43.03367" lon="1.02949">
        <ele>339.8</ele>
        <time>2024-04-21T14:34:30.993Z</time>
      </trkpt>
      <trkpt lat="43.03364" lon="1.02947">
        <ele>340</ele>
        <time>2024-04-21T14:34:31.993Z</time>
      </trkpt>
      <trkpt lat="43.03361" lon="1.02944">
        <ele>340</ele>
        <time>2024-04-21T14:34:32.993Z</time>
      </trkpt>
      <trkpt lat="43.03358" lon="1.0294">
        <ele>340</ele>
        <time>2024-04-21T14:34:33.993Z</time>
      </trkpt>
      <trkpt lat="43.03355" lon="1.02937">
        <ele>340</ele>
        <time>2024-04-21T14:34:34.993Z</time>
      </trkpt>
      <trkpt lat="43.03352" lon="1.02933">
        <ele>340</ele>
        <time>2024-04-21T14:34:35.993Z</time>
      </trkpt>
      <trkpt lat="43.03349" lon="1.0293">
        <ele>340</ele>
        <time>2024-04-21T14:34:36.993Z</time>
      </trkpt>
      <trkpt lat="43.03347" lon="1.02926">
        <ele>340.4</ele>
        <time>2024-04-21T14:34:37.993Z</time>
      </trkpt>
      <trkpt lat="43.03344" lon="1.02921">
        <ele>340.4</ele>
        <time>2024-04-21T14:34:38.993Z</time>
      </trkpt>
      <trkpt lat="43.03343" lon="1.02916">
        <ele>340.4</ele>
        <time>2024-04-21T14:34:39.993Z</time>
      </trkpt>
      <trkpt lat="43.03341" lon="1.02911">
        <ele>340.2</ele>
        <time>2024-04-21T14:34:40.993Z</time>
      </trkpt>
      <trkpt lat="43.03338" lon="1.02906">
        <ele>340.2</ele>
        <time>2024-04-21T14:34:41.993Z</time>
      </trkpt>
      <trkpt lat="43.03335" lon="1.02901">
        <ele>340</ele>
        <time>2024-04-21T14:34:42.993Z</time>
      </trkpt>
      <trkpt lat="43.03332" lon="1.02896">
        <ele>340</ele>
        <time>2024-04-21T14:34:43.993Z</time>
      </trkpt>
      <trkpt lat="43.03328" lon="1.02893">
        <ele>339.8</ele>
        <time>2024-04-21T14:34:44.993Z</time>
      </trkpt>
      <trkpt lat="43.03323" lon="1.0289">
        <ele>339.8</ele>
        <time>2024-04-21T14:34:45.993Z</time>
      </trkpt>
      <trkpt lat="43.03319" lon="1.02889">
        <ele>339.8</ele>
        <time>2024-04-21T14:34:46.993Z</time>
      </trkpt>
      <trkpt lat="43.03315" lon="1.02888">
        <ele>339.8</ele>
        <time>2024-04-21T14:34:47.993Z</time>
      </trkpt>
      <trkpt lat="43.0331" lon="1.0289">
        <ele>339.8</ele>
        <time>2024-04-21T14:34:48.993Z</time>
      </trkpt>
      <trkpt lat="43.03307" lon="1.02893">
        <ele>339.8</ele>
        <time>2024-04-21T14:34:49.993Z</time>
      </trkpt>
      <trkpt lat="43.03303" lon="1.02896">
        <ele>339.8</ele>
        <time>2024-04-21T14:34:50.993Z</time>
      </trkpt>
      <trkpt lat="43.033" lon="1.029">
        <ele>340</ele>
        <time>2024-04-21T14:34:51.993Z</time>
      </trkpt>
      <trkpt lat="43.03298" lon="1.02905">
        <ele>340</ele>
        <time>2024-04-21T14:34:52.993Z</time>
      </trkpt>
      <trkpt lat="43.03296" lon="1.0291">
        <ele>340</ele>
        <time>2024-04-21T14:34:53.993Z</time>
      </trkpt>
      <trkpt lat="43.03294" lon="1.02915">
        <ele>340</ele>
        <time>2024-04-21T14:34:54.993Z</time>
      </trkpt>
      <trkpt lat="43.03292" lon="1.0292">
        <ele>340.2</ele>
        <time>2024-04-21T14:34:55.993Z</time>
      </trkpt>
      <trkpt lat="43.0329" lon="1.02925">
        <ele>340.2</ele>
        <time>2024-04-21T14:34:56.993Z</time>
      </trkpt>
      <trkpt lat="43.03286" lon="1.0293">
        <ele>340.2</ele>
        <time>2024-04-21T14:34:57.993Z</time>
      </trkpt>
      <trkpt lat="43.03283" lon="1.02935">
        <ele>340</ele>
        <time>2024-04-21T14:34:58.993Z</time>
      </trkpt>
      <trkpt lat="43.03279" lon="1.02939">
        <ele>340</ele>
        <time>2024-04-21T14:34:59.993Z</time>
      </trkpt>
      <trkpt lat="43.03275" lon="1.02943">
        <ele>340</ele>
        <time>2024-04-21T14:35:00.993Z</time>
      </trkpt>
      <trkpt lat="43.03271" lon="1.02948">
        <ele>340</ele>
        <time>2024-04-21T14:35:01.993Z</time>
      </trkpt>
      <trkpt lat="43.03267" lon="1.02954">
        <ele>340</ele>
        <time>2024-04-21T14:35:02.993Z</time>
      </trkpt>
      <trkpt lat="43.03264" lon="1.02959">
        <ele>340</ele>
        <time>2024-04-21T14:35:03.993Z</time>
      </trkpt>
      <trkpt lat="43.0326" lon="1.02964">
        <ele>340</ele>
        <time>2024-04-21T14:35:04.993Z</time>
      </trkpt>
      <trkpt lat="43.03257" lon="1.0297">
        <ele>340</ele>
        <time>2024-04-21T14:35:05.993Z</time>
      </trkpt>
      <trkpt lat="43.03255" lon="1.02976">
        <ele>340</ele>
        <time>2024-04-21T14:35:06.993Z</time>
      </trkpt>
      <trkpt lat="43.03253" lon="1.02982">
        <ele>340</ele>
        <time>2024-04-21T14:35:07.993Z</time>
      </trkpt>
      <trkpt lat="43.03252" lon="1.02987">
        <ele>340</ele>
        <time>2024-04-21T14:35:08.993Z</time>
      </trkpt>
      <trkpt lat="43.03251" lon="1.02991">
        <ele>340</ele>
        <time>2024-04-21T14:35:09.993Z</time>
      </trkpt>
      <trkpt lat="43.03253" lon="1.02993">
        <ele>340.2</ele>
        <time>2024-04-21T14:35:10.993Z</time>
      </trkpt>
      <trkpt lat="43.03255" lon="1.0299">
        <ele>340.2</ele>
        <time>2024-04-21T14:35:11.993Z</time>
      </trkpt>
      <trkpt lat="43.03257" lon="1.0299">
        <ele>340.2</ele>
        <time>2024-04-21T14:35:12.993Z</time>
      </trkpt>
      <trkpt lat="43.03259" lon="1.02992">
        <ele>340.4</ele>
        <time>2024-04-21T14:35:13.993Z</time>
      </trkpt>
      <trkpt lat="43.03259" lon="1.02994">
        <ele>340.4</ele>
        <time>2024-04-21T14:35:14.993Z</time>
      </trkpt>
      <trkpt lat="43.03259" lon="1.02997">
        <ele>340.4</ele>
        <time>2024-04-21T14:35:15.993Z</time>
      </trkpt>
      <trkpt lat="43.03259" lon="1.03001">
        <ele>340.4</ele>
        <time>2024-04-21T14:35:16.993Z</time>
      </trkpt>
      <trkpt lat="43.03258" lon="1.03004">
        <ele>340.4</ele>
        <time>2024-04-21T14:35:17.993Z</time>
      </trkpt>
      <trkpt lat="43.03256" lon="1.03008">
        <ele>340.4</ele>
        <time>2024-04-21T14:35:18.993Z</time>
      </trkpt>
      <trkpt lat="43.03256" lon="1.03013">
        <ele>340.4</ele>
        <time>2024-04-21T14:35:19.993Z</time>
      </trkpt>
      <trkpt lat="43.03255" lon="1.03018">
        <ele>340.8</ele>
        <time>2024-04-21T14:35:20.993Z</time>
      </trkpt>
      <trkpt lat="43.03255" lon="1.03023">
        <ele>340.8</ele>
        <time>2024-04-21T14:35:21.993Z</time>
      </trkpt>
      <trkpt lat="43.03255" lon="1.03029">
        <ele>340.8</ele>
        <time>2024-04-21T14:35:22.993Z</time>
      </trkpt>
      <trkpt lat="43.03255" lon="1.03033">
        <ele>340.8</ele>
        <time>2024-04-21T14:35:23.993Z</time>
      </trkpt>
      <trkpt lat="43.03255" lon="1.03038">
        <ele>340.8</ele>
        <time>2024-04-21T14:35:24.993Z</time>
      </trkpt>
      <trkpt lat="43.03256" lon="1.03043">
        <ele>340.8</ele>
        <time>2024-04-21T14:35:25.993Z</time>
      </trkpt>
      <trkpt lat="43.03256" lon="1.03048">
        <ele>340.8</ele>
        <time>2024-04-21T14:35:26.993Z</time>
      </trkpt>
      <trkpt lat="43.03257" lon="1.03054">
        <ele>340.8</ele>
        <time>2024-04-21T14:35:27.993Z</time>
      </trkpt>
      <trkpt lat="43.03258" lon="1.0306">
        <ele>340.6</ele>
        <time>2024-04-21T14:35:28.993Z</time>
      </trkpt>
      <trkpt lat="43.03259" lon="1.03065">
        <ele>340.6</ele>
        <time>2024-04-21T14:35:29.993Z</time>
      </trkpt>
      <trkpt lat="43.03261" lon="1.03072">
        <ele>340.2</ele>
        <time>2024-04-21T14:35:30.993Z</time>
      </trkpt>
      <trkpt lat="43.03262" lon="1.03079">
        <ele>340.2</ele>
        <time>2024-04-21T14:35:31.993Z</time>
      </trkpt>
      <trkpt lat="43.03263" lon="1.03086">
        <ele>340.2</ele>
        <time>2024-04-21T14:35:32.993Z</time>
      </trkpt>
      <trkpt lat="43.03264" lon="1.03092">
        <ele>340.2</ele>
        <time>2024-04-21T14:35:33.993Z</time>
      </trkpt>
      <trkpt lat="43.03265" lon="1.03099">
        <ele>340.2</ele>
        <time>2024-04-21T14:35:34.993Z</time>
      </trkpt>
      <trkpt lat="43.03266" lon="1.03106">
        <ele>340.2</ele>
        <time>2024-04-21T14:35:35.993Z</time>
      </trkpt>
      <trkpt lat="43.03267" lon="1.03112">
        <ele>340.2</ele>
        <time>2024-04-21T14:35:36.993Z</time>
      </trkpt>
      <trkpt lat="43.03268" lon="1.03119">
        <ele>340</ele>
        <time>2024-04-21T14:35:37.993Z</time>
      </trkpt>
      <trkpt lat="43.03269" lon="1.03126">
        <ele>340</ele>
        <time>2024-04-21T14:35:38.993Z</time>
      </trkpt>
      <trkpt lat="43.0327" lon="1.03132">
        <ele>339.6</ele>
        <time>2024-04-21T14:35:39.993Z</time>
      </trkpt>
      <trkpt lat="43.03271" lon="1.03139">
        <ele>339.6</ele>
        <time>2024-04-21T14:35:40.993Z</time>
      </trkpt>
      <trkpt lat="43.03272" lon="1.03145">
        <ele>339.6</ele>
        <time>2024-04-21T14:35:41.993Z</time>
      </trkpt>
      <trkpt lat="43.03273" lon="1.03151">
        <ele>339.6</ele>
        <time>2024-04-21T14:35:42.993Z</time>
      </trkpt>
      <trkpt lat="43.03274" lon="1.03157">
        <ele>339.6</ele>
        <time>2024-04-21T14:35:43.993Z</time>
      </trkpt>
      <trkpt lat="43.03276" lon="1.03164">
        <ele>339.6</ele>
        <time>2024-04-21T14:35:44.993Z</time>
      </trkpt>
      <trkpt lat="43.03276" lon="1.03171">
        <ele>339.6</ele>
        <time>2024-04-21T14:35:45.993Z</time>
      </trkpt>
      <trkpt lat="43.03277" lon="1.03178">
        <ele>339.8</ele>
        <time>2024-04-21T14:35:46.993Z</time>
      </trkpt>
      <trkpt lat="43.03278" lon="1.03184">
        <ele>339.8</ele>
        <time>2024-04-21T14:35:47.993Z</time>
      </trkpt>
      <trkpt lat="43.03279" lon="1.03191">
        <ele>339.8</ele>
        <time>2024-04-21T14:35:48.993Z</time>
      </trkpt>
      <trkpt lat="43.0328" lon="1.03198">
        <ele>339.6</ele>
        <time>2024-04-21T14:35:49.993Z</time>
      </trkpt>
      <trkpt lat="43.03281" lon="1.03204">
        <ele>339.6</ele>
        <time>2024-04-21T14:35:50.993Z</time>
      </trkpt>
      <trkpt lat="43.03282" lon="1.03212">
        <ele>339.6</ele>
        <time>2024-04-21T14:35:51.993Z</time>
      </trkpt>
      <trkpt lat="43.03283" lon="1.03219">
        <ele>339.6</ele>
        <time>2024-04-21T14:35:52.993Z</time>
      </trkpt>
      <trkpt lat="43.03284" lon="1.03226">
        <ele>339.6</ele>
        <time>2024-04-21T14:35:53.993Z</time>
      </trkpt>
      <trkpt lat="43.03285" lon="1.03233">
        <ele>339.6</ele>
        <time>2024-04-21T14:35:54.993Z</time>
      </trkpt>
      <trkpt lat="43.03286" lon="1.0324">
        <ele>339.6</ele>
        <time>2024-04-21T14:35:55.993Z</time>
      </trkpt>
      <trkpt lat="43.03286" lon="1.03246">
        <ele>339.6</ele>
        <time>2024-04-21T14:35:56.993Z</time>
      </trkpt>
      <trkpt lat="43.03287" lon="1.03253">
        <ele>339.8</ele>
        <time>2024-04-21T14:35:57.993Z</time>
      </trkpt>
      <trkpt lat="43.03288" lon="1.0326">
        <ele>339.8</ele>
        <time>2024-04-21T14:35:58.993Z</time>
      </trkpt>
      <trkpt lat="43.03289" lon="1.03267">
        <ele>339.6</ele>
        <time>2024-04-21T14:35:59.993Z</time>
      </trkpt>
      <trkpt lat="43.0329" lon="1.03274">
        <ele>339.2</ele>
        <time>2024-04-21T14:36:00.993Z</time>
      </trkpt>
      <trkpt lat="43.03291" lon="1.03281">
        <ele>339.8</ele>
        <time>2024-04-21T14:36:01.993Z</time>
      </trkpt>
      <trkpt lat="43.03291" lon="1.03288">
        <ele>339.8</ele>
        <time>2024-04-21T14:36:02.993Z</time>
      </trkpt>
      <trkpt lat="43.03293" lon="1.03294">
        <ele>339.8</ele>
        <time>2024-04-21T14:36:03.993Z</time>
      </trkpt>
      <trkpt lat="43.03293" lon="1.03299">
        <ele>340.4</ele>
        <time>2024-04-21T14:36:04.993Z</time>
      </trkpt>
      <trkpt lat="43.03294" lon="1.03307">
        <ele>340.4</ele>
        <time>2024-04-21T14:36:05.993Z</time>
      </trkpt>
      <trkpt lat="43.03296" lon="1.03313">
        <ele>340</ele>
        <time>2024-04-21T14:36:06.993Z</time>
      </trkpt>
      <trkpt lat="43.03297" lon="1.0332">
        <ele>339.8</ele>
        <time>2024-04-21T14:36:07.993Z</time>
      </trkpt>
      <trkpt lat="43.03297" lon="1.03326">
        <ele>339.8</ele>
        <time>2024-04-21T14:36:08.993Z</time>
      </trkpt>
      <trkpt lat="43.03298" lon="1.03333">
        <ele>340.2</ele>
        <time>2024-04-21T14:36:09.993Z</time>
      </trkpt>
      <trkpt lat="43.03299" lon="1.0334">
        <ele>340.2</ele>
        <time>2024-04-21T14:36:10.993Z</time>
      </trkpt>
      <trkpt lat="43.03299" lon="1.03347">
        <ele>340.2</ele>
        <time>2024-04-21T14:36:11.993Z</time>
      </trkpt>
      <trkpt lat="43.033" lon="1.03353">
        <ele>340.2</ele>
        <time>2024-04-21T14:36:12.993Z</time>
      </trkpt>
      <trkpt lat="43.03301" lon="1.0336">
        <ele>340.2</ele>
        <time>2024-04-21T14:36:13.993Z</time>
      </trkpt>
      <trkpt lat="43.03302" lon="1.03366">
        <ele>340.4</ele>
        <time>2024-04-21T14:36:14.993Z</time>
      </trkpt>
      <trkpt lat="43.03303" lon="1.03373">
        <ele>340.4</ele>
        <time>2024-04-21T14:36:15.993Z</time>
      </trkpt>
      <trkpt lat="43.03303" lon="1.03379">
        <ele>340.2</ele>
        <time>2024-04-21T14:36:16.993Z</time>
      </trkpt>
      <trkpt lat="43.03305" lon="1.03387">
        <ele>340.2</ele>
        <time>2024-04-21T14:36:17.993Z</time>
      </trkpt>
      <trkpt lat="43.03306" lon="1.03394">
        <ele>340.2</ele>
        <time>2024-04-21T14:36:18.993Z</time>
      </trkpt>
      <trkpt lat="43.03307" lon="1.03401">
        <ele>340.2</ele>
        <time>2024-04-21T14:36:19.993Z</time>
      </trkpt>
      <trkpt lat="43.03308" lon="1.03409">
        <ele>340.4</ele>
        <time>2024-04-21T14:36:20.993Z</time>
      </trkpt>
      <trkpt lat="43.03308" lon="1.03416">
        <ele>340.6</ele>
        <time>2024-04-21T14:36:21.993Z</time>
      </trkpt>
      <trkpt lat="43.03309" lon="1.03423">
        <ele>340.8</ele>
        <time>2024-04-21T14:36:22.993Z</time>
      </trkpt>
      <trkpt lat="43.03309" lon="1.0343">
        <ele>340.6</ele>
        <time>2024-04-21T14:36:23.993Z</time>
      </trkpt>
      <trkpt lat="43.0331" lon="1.03436">
        <ele>340.6</ele>
        <time>2024-04-21T14:36:24.993Z</time>
      </trkpt>
      <trkpt lat="43.03311" lon="1.03442">
        <ele>340.6</ele>
        <time>2024-04-21T14:36:25.993Z</time>
      </trkpt>
      <trkpt lat="43.03313" lon="1.03449">
        <ele>340.8</ele>
        <time>2024-04-21T14:36:26.993Z</time>
      </trkpt>
      <trkpt lat="43.03313" lon="1.03456">
        <ele>341.2</ele>
        <time>2024-04-21T14:36:27.993Z</time>
      </trkpt>
      <trkpt lat="43.03314" lon="1.03463">
        <ele>341.2</ele>
        <time>2024-04-21T14:36:28.993Z</time>
      </trkpt>
      <trkpt lat="43.03314" lon="1.0347">
        <ele>341.4</ele>
        <time>2024-04-21T14:36:29.993Z</time>
      </trkpt>
      <trkpt lat="43.03315" lon="1.03476">
        <ele>341.2</ele>
        <time>2024-04-21T14:36:30.993Z</time>
      </trkpt>
      <trkpt lat="43.03316" lon="1.03483">
        <ele>341.2</ele>
        <time>2024-04-21T14:36:31.993Z</time>
      </trkpt>
      <trkpt lat="43.03316" lon="1.03489">
        <ele>341.6</ele>
        <time>2024-04-21T14:36:32.993Z</time>
      </trkpt>
      <trkpt lat="43.03317" lon="1.03496">
        <ele>341.6</ele>
        <time>2024-04-21T14:36:33.993Z</time>
      </trkpt>
      <trkpt lat="43.03318" lon="1.03503">
        <ele>341.4</ele>
        <time>2024-04-21T14:36:34.993Z</time>
      </trkpt>
      <trkpt lat="43.03319" lon="1.0351">
        <ele>341.4</ele>
        <time>2024-04-21T14:36:35.993Z</time>
      </trkpt>
      <trkpt lat="43.0332" lon="1.03516">
        <ele>341.6</ele>
        <time>2024-04-21T14:36:36.993Z</time>
      </trkpt>
      <trkpt lat="43.03321" lon="1.03523">
        <ele>341.6</ele>
        <time>2024-04-21T14:36:37.993Z</time>
      </trkpt>
      <trkpt lat="43.03321" lon="1.0353">
        <ele>341.6</ele>
        <time>2024-04-21T14:36:38.993Z</time>
      </trkpt>
      <trkpt lat="43.03322" lon="1.03536">
        <ele>341.6</ele>
        <time>2024-04-21T14:36:39.993Z</time>
      </trkpt>
      <trkpt lat="43.03323" lon="1.03543">
        <ele>341.8</ele>
        <time>2024-04-21T14:36:40.993Z</time>
      </trkpt>
      <trkpt lat="43.03324" lon="1.03549">
        <ele>341.8</ele>
        <time>2024-04-21T14:36:41.993Z</time>
      </trkpt>
      <trkpt lat="43.03325" lon="1.03555">
        <ele>341.8</ele>
        <time>2024-04-21T14:36:42.993Z</time>
      </trkpt>
      <trkpt lat="43.03325" lon="1.03561">
        <ele>341.8</ele>
        <time>2024-04-21T14:36:43.993Z</time>
      </trkpt>
      <trkpt lat="43.03326" lon="1.03567">
        <ele>341.8</ele>
        <time>2024-04-21T14:36:44.993Z</time>
      </trkpt>
      <trkpt lat="43.03327" lon="1.03573">
        <ele>341.8</ele>
        <time>2024-04-21T14:36:45.993Z</time>
      </trkpt>
      <trkpt lat="43.03328" lon="1.03579">
        <ele>341.8</ele>
        <time>2024-04-21T14:36:46.993Z</time>
      </trkpt>
      <trkpt lat="43.03328" lon="1.03586">
        <ele>342</ele>
        <time>2024-04-21T14:36:47.993Z</time>
      </trkpt>
      <trkpt lat="43.03329" lon="1.03592">
        <ele>342</ele>
        <time>2024-04-21T14:36:48.993Z</time>
      </trkpt>
      <trkpt lat="43.0333" lon="1.03599">
        <ele>342.4</ele>
        <time>2024-04-21T14:36:49.993Z</time>
      </trkpt>
      <trkpt lat="43.0333" lon="1.03605">
        <ele>342.6</ele>
        <time>2024-04-21T14:36:50.993Z</time>
      </trkpt>
      <trkpt lat="43.03331" lon="1.03611">
        <ele>342.4</ele>
        <time>2024-04-21T14:36:51.993Z</time>
      </trkpt>
      <trkpt lat="43.03331" lon="1.03617">
        <ele>342.4</ele>
        <time>2024-04-21T14:36:52.993Z</time>
      </trkpt>
      <trkpt lat="43.03333" lon="1.03623">
        <ele>342.4</ele>
        <time>2024-04-21T14:36:53.993Z</time>
      </trkpt>
      <trkpt lat="43.03333" lon="1.03629">
        <ele>342.6</ele>
        <time>2024-04-21T14:36:54.993Z</time>
      </trkpt>
      <trkpt lat="43.03334" lon="1.03634">
        <ele>342.6</ele>
        <time>2024-04-21T14:36:55.993Z</time>
      </trkpt>
      <trkpt lat="43.03334" lon="1.0364">
        <ele>342.6</ele>
        <time>2024-04-21T14:36:56.993Z</time>
      </trkpt>
      <trkpt lat="43.03335" lon="1.03646">
        <ele>342.6</ele>
        <time>2024-04-21T14:36:57.993Z</time>
      </trkpt>
      <trkpt lat="43.03335" lon="1.03651">
        <ele>342.8</ele>
        <time>2024-04-21T14:36:58.993Z</time>
      </trkpt>
      <trkpt lat="43.03335" lon="1.03656">
        <ele>342.8</ele>
        <time>2024-04-21T14:36:59.993Z</time>
      </trkpt>
      <trkpt lat="43.03336" lon="1.03661">
        <ele>342.4</ele>
        <time>2024-04-21T14:37:00.993Z</time>
      </trkpt>
      <trkpt lat="43.03336" lon="1.03665">
        <ele>342.6</ele>
        <time>2024-04-21T14:37:01.993Z</time>
      </trkpt>
      <trkpt lat="43.03336" lon="1.03669">
        <ele>342.8</ele>
        <time>2024-04-21T14:37:02.993Z</time>
      </trkpt>
      <trkpt lat="43.03335" lon="1.03672">
        <ele>342.8</ele>
        <time>2024-04-21T14:37:03.993Z</time>
      </trkpt>
      <trkpt lat="43.03334" lon="1.03675">
        <ele>342.8</ele>
        <time>2024-04-21T14:37:04.993Z</time>
      </trkpt>
      <trkpt lat="43.03333" lon="1.03676">
        <ele>343.2</ele>
        <time>2024-04-21T14:37:05.993Z</time>
      </trkpt>
      <trkpt lat="43.03333" lon="1.03677">
        <ele>343.2</ele>
        <time>2024-04-21T14:37:06.993Z</time>
      </trkpt>
      <trkpt lat="43.03332" lon="1.03677">
        <ele>343.2</ele>
        <time>2024-04-21T14:37:07.993Z</time>
      </trkpt>
      <trkpt lat="43.03331" lon="1.03678">
        <ele>343.4</ele>
        <time>2024-04-21T14:37:08.993Z</time>
      </trkpt>
      <trkpt lat="43.0333" lon="1.0368">
        <ele>343.4</ele>
        <time>2024-04-21T14:37:09.993Z</time>
      </trkpt>
      <trkpt lat="43.03328" lon="1.03682">
        <ele>343.4</ele>
        <time>2024-04-21T14:37:10.993Z</time>
      </trkpt>
      <trkpt lat="43.03327" lon="1.03685">
        <ele>343.4</ele>
        <time>2024-04-21T14:37:11.993Z</time>
      </trkpt>
      <trkpt lat="43.03327" lon="1.03688">
        <ele>343.8</ele>
        <time>2024-04-21T14:37:12.993Z</time>
      </trkpt>
      <trkpt lat="43.03328" lon="1.03692">
        <ele>343.8</ele>
        <time>2024-04-21T14:37:13.993Z</time>
      </trkpt>
      <trkpt lat="43.03328" lon="1.03697">
        <ele>343.8</ele>
        <time>2024-04-21T14:37:14.993Z</time>
      </trkpt>
      <trkpt lat="43.03328" lon="1.03702">
        <ele>343.8</ele>
        <time>2024-04-21T14:37:15.993Z</time>
      </trkpt>
      <trkpt lat="43.03328" lon="1.03708">
        <ele>343.8</ele>
        <time>2024-04-21T14:37:16.993Z</time>
      </trkpt>
      <trkpt lat="43.03328" lon="1.03713">
        <ele>343.8</ele>
        <time>2024-04-21T14:37:17.993Z</time>
      </trkpt>
      <trkpt lat="43.03329" lon="1.03719">
        <ele>343.8</ele>
        <time>2024-04-21T14:37:18.993Z</time>
      </trkpt>
      <trkpt lat="43.0333" lon="1.03725">
        <ele>343.8</ele>
        <time>2024-04-21T14:37:19.993Z</time>
      </trkpt>
      <trkpt lat="43.03331" lon="1.0373">
        <ele>343.8</ele>
        <time>2024-04-21T14:37:20.993Z</time>
      </trkpt>
      <trkpt lat="43.03332" lon="1.03736">
        <ele>344</ele>
        <time>2024-04-21T14:37:21.993Z</time>
      </trkpt>
      <trkpt lat="43.03333" lon="1.03742">
        <ele>344</ele>
        <time>2024-04-21T14:37:22.993Z</time>
      </trkpt>
      <trkpt lat="43.03333" lon="1.03748">
        <ele>344</ele>
        <time>2024-04-21T14:37:23.993Z</time>
      </trkpt>
      <trkpt lat="43.03334" lon="1.03754">
        <ele>344</ele>
        <time>2024-04-21T14:37:24.993Z</time>
      </trkpt>
      <trkpt lat="43.03334" lon="1.03761">
        <ele>344</ele>
        <time>2024-04-21T14:37:25.993Z</time>
      </trkpt>
      <trkpt lat="43.03335" lon="1.03767">
        <ele>344</ele>
        <time>2024-04-21T14:37:26.993Z</time>
      </trkpt>
      <trkpt lat="43.03337" lon="1.03773">
        <ele>344</ele>
        <time>2024-04-21T14:37:27.993Z</time>
      </trkpt>
      <trkpt lat="43.03337" lon="1.0378">
        <ele>344.2</ele>
        <time>2024-04-21T14:37:28.993Z</time>
      </trkpt>
      <trkpt lat="43.03338" lon="1.03787">
        <ele>344.2</ele>
        <time>2024-04-21T14:37:29.993Z</time>
      </trkpt>
      <trkpt lat="43.03339" lon="1.03795">
        <ele>344.2</ele>
        <time>2024-04-21T14:37:30.993Z</time>
      </trkpt>
      <trkpt lat="43.0334" lon="1.03802">
        <ele>344.2</ele>
        <time>2024-04-21T14:37:31.993Z</time>
      </trkpt>
      <trkpt lat="43.03341" lon="1.03809">
        <ele>344.2</ele>
        <time>2024-04-21T14:37:32.993Z</time>
      </trkpt>
      <trkpt lat="43.03342" lon="1.03817">
        <ele>344.2</ele>
        <time>2024-04-21T14:37:33.993Z</time>
      </trkpt>
      <trkpt lat="43.03344" lon="1.03823">
        <ele>344.2</ele>
        <time>2024-04-21T14:37:34.993Z</time>
      </trkpt>
      <trkpt lat="43.03345" lon="1.03831">
        <ele>344.2</ele>
        <time>2024-04-21T14:37:35.993Z</time>
      </trkpt>
      <trkpt lat="43.03345" lon="1.03839">
        <ele>344.4</ele>
        <time>2024-04-21T14:37:36.993Z</time>
      </trkpt>
      <trkpt lat="43.03346" lon="1.03846">
        <ele>344.4</ele>
        <time>2024-04-21T14:37:37.993Z</time>
      </trkpt>
      <trkpt lat="43.03347" lon="1.03854">
        <ele>344.6</ele>
        <time>2024-04-21T14:37:38.993Z</time>
      </trkpt>
      <trkpt lat="43.03347" lon="1.03861">
        <ele>344.6</ele>
        <time>2024-04-21T14:37:39.993Z</time>
      </trkpt>
      <trkpt lat="43.03349" lon="1.03868">
        <ele>344.6</ele>
        <time>2024-04-21T14:37:40.993Z</time>
      </trkpt>
      <trkpt lat="43.0335" lon="1.03875">
        <ele>344.6</ele>
        <time>2024-04-21T14:37:41.993Z</time>
      </trkpt>
      <trkpt lat="43.0335" lon="1.03882">
        <ele>344.6</ele>
        <time>2024-04-21T14:37:42.993Z</time>
      </trkpt>
      <trkpt lat="43.03352" lon="1.03889">
        <ele>344.8</ele>
        <time>2024-04-21T14:37:43.993Z</time>
      </trkpt>
      <trkpt lat="43.03353" lon="1.03897">
        <ele>344.8</ele>
        <time>2024-04-21T14:37:44.993Z</time>
      </trkpt>
      <trkpt lat="43.03353" lon="1.03904">
        <ele>344.8</ele>
        <time>2024-04-21T14:37:45.993Z</time>
      </trkpt>
      <trkpt lat="43.03355" lon="1.03912">
        <ele>344.8</ele>
        <time>2024-04-21T14:37:46.993Z</time>
      </trkpt>
      <trkpt lat="43.03355" lon="1.03919">
        <ele>345.2</ele>
        <time>2024-04-21T14:37:47.993Z</time>
      </trkpt>
      <trkpt lat="43.03356" lon="1.03926">
        <ele>345.2</ele>
        <time>2024-04-21T14:37:48.993Z</time>
      </trkpt>
      <trkpt lat="43.03357" lon="1.03934">
        <ele>345.2</ele>
        <time>2024-04-21T14:37:49.993Z</time>
      </trkpt>
      <trkpt lat="43.03358" lon="1.03942">
        <ele>345.2</ele>
        <time>2024-04-21T14:37:50.993Z</time>
      </trkpt>
      <trkpt lat="43.03359" lon="1.03949">
        <ele>345.2</ele>
        <time>2024-04-21T14:37:51.993Z</time>
      </trkpt>
      <trkpt lat="43.03359" lon="1.03956">
        <ele>345.2</ele>
        <time>2024-04-21T14:37:52.993Z</time>
      </trkpt>
      <trkpt lat="43.0336" lon="1.03964">
        <ele>345.2</ele>
        <time>2024-04-21T14:37:53.993Z</time>
      </trkpt>
      <trkpt lat="43.03361" lon="1.03972">
        <ele>345.2</ele>
        <time>2024-04-21T14:37:54.993Z</time>
      </trkpt>
      <trkpt lat="43.03362" lon="1.03979">
        <ele>345.2</ele>
        <time>2024-04-21T14:37:55.993Z</time>
      </trkpt>
      <trkpt lat="43.03363" lon="1.03986">
        <ele>345.2</ele>
        <time>2024-04-21T14:37:56.993Z</time>
      </trkpt>
      <trkpt lat="43.03364" lon="1.03993">
        <ele>345.6</ele>
        <time>2024-04-21T14:37:57.993Z</time>
      </trkpt>
      <trkpt lat="43.03365" lon="1.04001">
        <ele>345.6</ele>
        <time>2024-04-21T14:37:58.993Z</time>
      </trkpt>
      <trkpt lat="43.03366" lon="1.04008">
        <ele>345.6</ele>
        <time>2024-04-21T14:37:59.993Z</time>
      </trkpt>
      <trkpt lat="43.03367" lon="1.04015">
        <ele>345.6</ele>
        <time>2024-04-21T14:38:00.993Z</time>
      </trkpt>
      <trkpt lat="43.03367" lon="1.04015">
        <ele>345.6</ele>
        <time>2024-04-21T14:38:01.993Z</time>
      </trkpt>
      <trkpt lat="43.03368" lon="1.04023">
        <ele>345.6</ele>
        <time>2024-04-21T14:38:02.993Z</time>
      </trkpt>
      <trkpt lat="43.03368" lon="1.0403">
        <ele>345.6</ele>
        <time>2024-04-21T14:38:03.993Z</time>
      </trkpt>
      <trkpt lat="43.03369" lon="1.04038">
        <ele>345.6</ele>
        <time>2024-04-21T14:38:04.993Z</time>
      </trkpt>
      <trkpt lat="43.0337" lon="1.04046">
        <ele>345.6</ele>
        <time>2024-04-21T14:38:05.993Z</time>
      </trkpt>
      <trkpt lat="43.03371" lon="1.04053">
        <ele>345.6</ele>
        <time>2024-04-21T14:38:06.993Z</time>
      </trkpt>
      <trkpt lat="43.03372" lon="1.04061">
        <ele>345.6</ele>
        <time>2024-04-21T14:38:07.993Z</time>
      </trkpt>
      <trkpt lat="43.03373" lon="1.04069">
        <ele>345.6</ele>
        <time>2024-04-21T14:38:08.993Z</time>
      </trkpt>
      <trkpt lat="43.03374" lon="1.04076">
        <ele>345.6</ele>
        <time>2024-04-21T14:38:09.993Z</time>
      </trkpt>
      <trkpt lat="43.03375" lon="1.04084">
        <ele>345.6</ele>
        <time>2024-04-21T14:38:10.993Z</time>
      </trkpt>
      <trkpt lat="43.03376" lon="1.04091">
        <ele>345.6</ele>
        <time>2024-04-21T14:38:11.993Z</time>
      </trkpt>
      <trkpt lat="43.03377" lon="1.04098">
        <ele>345.6</ele>
        <time>2024-04-21T14:38:12.993Z</time>
      </trkpt>
      <trkpt lat="43.03378" lon="1.04106">
        <ele>345.6</ele>
        <time>2024-04-21T14:38:13.993Z</time>
      </trkpt>
      <trkpt lat="43.03378" lon="1.04113">
        <ele>345.6</ele>
        <time>2024-04-21T14:38:14.993Z</time>
      </trkpt>
      <trkpt lat="43.03379" lon="1.04121">
        <ele>345.6</ele>
        <time>2024-04-21T14:38:15.993Z</time>
      </trkpt>
      <trkpt lat="43.0338" lon="1.04129">
        <ele>345.8</ele>
        <time>2024-04-21T14:38:16.993Z</time>
      </trkpt>
      <trkpt lat="43.03381" lon="1.04136">
        <ele>345.8</ele>
        <time>2024-04-21T14:38:17.993Z</time>
      </trkpt>
      <trkpt lat="43.03382" lon="1.04144">
        <ele>345.8</ele>
        <time>2024-04-21T14:38:18.993Z</time>
      </trkpt>
      <trkpt lat="43.03383" lon="1.04151">
        <ele>345.8</ele>
        <time>2024-04-21T14:38:19.993Z</time>
      </trkpt>
      <trkpt lat="43.03384" lon="1.04158">
        <ele>346</ele>
        <time>2024-04-21T14:38:20.993Z</time>
      </trkpt>
      <trkpt lat="43.03385" lon="1.04166">
        <ele>346</ele>
        <time>2024-04-21T14:38:21.993Z</time>
      </trkpt>
      <trkpt lat="43.03386" lon="1.04174">
        <ele>346</ele>
        <time>2024-04-21T14:38:22.993Z</time>
      </trkpt>
      <trkpt lat="43.03387" lon="1.04182">
        <ele>346</ele>
        <time>2024-04-21T14:38:23.993Z</time>
      </trkpt>
      <trkpt lat="43.03388" lon="1.04189">
        <ele>346</ele>
        <time>2024-04-21T14:38:24.993Z</time>
      </trkpt>
      <trkpt lat="43.03389" lon="1.04197">
        <ele>346.2</ele>
        <time>2024-04-21T14:38:25.993Z</time>
      </trkpt>
      <trkpt lat="43.0339" lon="1.04205">
        <ele>346.2</ele>
        <time>2024-04-21T14:38:26.993Z</time>
      </trkpt>
      <trkpt lat="43.03392" lon="1.04212">
        <ele>346.2</ele>
        <time>2024-04-21T14:38:27.993Z</time>
      </trkpt>
      <trkpt lat="43.03392" lon="1.0422">
        <ele>346.2</ele>
        <time>2024-04-21T14:38:28.993Z</time>
      </trkpt>
      <trkpt lat="43.03393" lon="1.04228">
        <ele>346.2</ele>
        <time>2024-04-21T14:38:29.993Z</time>
      </trkpt>
      <trkpt lat="43.03394" lon="1.04236">
        <ele>346.2</ele>
        <time>2024-04-21T14:38:30.993Z</time>
      </trkpt>
      <trkpt lat="43.03395" lon="1.04243">
        <ele>346.2</ele>
        <time>2024-04-21T14:38:31.993Z</time>
      </trkpt>
      <trkpt lat="43.03396" lon="1.04251">
        <ele>346.2</ele>
        <time>2024-04-21T14:38:32.993Z</time>
      </trkpt>
      <trkpt lat="43.03397" lon="1.04259">
        <ele>346.2</ele>
        <time>2024-04-21T14:38:33.993Z</time>
      </trkpt>
      <trkpt lat="43.03399" lon="1.04273">
        <ele>346.2</ele>
        <time>2024-04-21T14:38:34.993Z</time>
      </trkpt>
      <trkpt lat="43.034" lon="1.04281">
        <ele>346.2</ele>
        <time>2024-04-21T14:38:35.993Z</time>
      </trkpt>
      <trkpt lat="43.03401" lon="1.04289">
        <ele>346.2</ele>
        <time>2024-04-21T14:38:36.993Z</time>
      </trkpt>
      <trkpt lat="43.03401" lon="1.04296">
        <ele>346.2</ele>
        <time>2024-04-21T14:38:37.993Z</time>
      </trkpt>
      <trkpt lat="43.03402" lon="1.04304">
        <ele>346.2</ele>
        <time>2024-04-21T14:38:38.993Z</time>
      </trkpt>
      <trkpt lat="43.03403" lon="1.04311">
        <ele>346.6</ele>
        <time>2024-04-21T14:38:39.993Z</time>
      </trkpt>
      <trkpt lat="43.03404" lon="1.04319">
        <ele>346.6</ele>
        <time>2024-04-21T14:38:40.993Z</time>
      </trkpt>
      <trkpt lat="43.03405" lon="1.04326">
        <ele>346.6</ele>
        <time>2024-04-21T14:38:41.993Z</time>
      </trkpt>
      <trkpt lat="43.03406" lon="1.04334">
        <ele>346.6</ele>
        <time>2024-04-21T14:38:42.993Z</time>
      </trkpt>
      <trkpt lat="43.03407" lon="1.04341">
        <ele>346.6</ele>
        <time>2024-04-21T14:38:43.993Z</time>
      </trkpt>
      <trkpt lat="43.03407" lon="1.04349">
        <ele>346.6</ele>
        <time>2024-04-21T14:38:44.993Z</time>
      </trkpt>
      <trkpt lat="43.03408" lon="1.04357">
        <ele>346.6</ele>
        <time>2024-04-21T14:38:45.993Z</time>
      </trkpt>
      <trkpt lat="43.0341" lon="1.04364">
        <ele>346.6</ele>
        <time>2024-04-21T14:38:46.993Z</time>
      </trkpt>
      <trkpt lat="43.0341" lon="1.04373">
        <ele>346.6</ele>
        <time>2024-04-21T14:38:47.993Z</time>
      </trkpt>
      <trkpt lat="43.03411" lon="1.04381">
        <ele>346.8</ele>
        <time>2024-04-21T14:38:48.993Z</time>
      </trkpt>
      <trkpt lat="43.03412" lon="1.04389">
        <ele>346.8</ele>
        <time>2024-04-21T14:38:49.993Z</time>
      </trkpt>
      <trkpt lat="43.03413" lon="1.04396">
        <ele>346.8</ele>
        <time>2024-04-21T14:38:50.993Z</time>
      </trkpt>
      <trkpt lat="43.03414" lon="1.04404">
        <ele>346.8</ele>
        <time>2024-04-21T14:38:51.993Z</time>
      </trkpt>
      <trkpt lat="43.03416" lon="1.04412">
        <ele>346.8</ele>
        <time>2024-04-21T14:38:52.993Z</time>
      </trkpt>
      <trkpt lat="43.03417" lon="1.0442">
        <ele>346.8</ele>
        <time>2024-04-21T14:38:53.993Z</time>
      </trkpt>
      <trkpt lat="43.03418" lon="1.04428">
        <ele>346.8</ele>
        <time>2024-04-21T14:38:54.993Z</time>
      </trkpt>
      <trkpt lat="43.03419" lon="1.04435">
        <ele>346.8</ele>
        <time>2024-04-21T14:38:55.993Z</time>
      </trkpt>
      <trkpt lat="43.0342" lon="1.04443">
        <ele>346.8</ele>
        <time>2024-04-21T14:38:56.993Z</time>
      </trkpt>
      <trkpt lat="43.03421" lon="1.04451">
        <ele>346.6</ele>
        <time>2024-04-21T14:38:57.993Z</time>
      </trkpt>
      <trkpt lat="43.03422" lon="1.04459">
        <ele>346.6</ele>
        <time>2024-04-21T14:38:58.993Z</time>
      </trkpt>
      <trkpt lat="43.03423" lon="1.04467">
        <ele>346.6</ele>
        <time>2024-04-21T14:38:59.993Z</time>
      </trkpt>
      <trkpt lat="43.03424" lon="1.04475">
        <ele>346.2</ele>
        <time>2024-04-21T14:39:00.993Z</time>
      </trkpt>
      <trkpt lat="43.03425" lon="1.04482">
        <ele>346.2</ele>
        <time>2024-04-21T14:39:01.993Z</time>
      </trkpt>
      <trkpt lat="43.03426" lon="1.0449">
        <ele>346.6</ele>
        <time>2024-04-21T14:39:02.993Z</time>
      </trkpt>
      <trkpt lat="43.03427" lon="1.04498">
        <ele>346.6</ele>
        <time>2024-04-21T14:39:03.993Z</time>
      </trkpt>
      <trkpt lat="43.03428" lon="1.04506">
        <ele>346.6</ele>
        <time>2024-04-21T14:39:04.993Z</time>
      </trkpt>
      <trkpt lat="43.03429" lon="1.04513">
        <ele>346.6</ele>
        <time>2024-04-21T14:39:05.993Z</time>
      </trkpt>
      <trkpt lat="43.0343" lon="1.04521">
        <ele>346.6</ele>
        <time>2024-04-21T14:39:06.993Z</time>
      </trkpt>
      <trkpt lat="43.03431" lon="1.04529">
        <ele>346.6</ele>
        <time>2024-04-21T14:39:07.993Z</time>
      </trkpt>
      <trkpt lat="43.03432" lon="1.04537">
        <ele>346.6</ele>
        <time>2024-04-21T14:39:08.993Z</time>
      </trkpt>
      <trkpt lat="43.03432" lon="1.04545">
        <ele>346.8</ele>
        <time>2024-04-21T14:39:09.993Z</time>
      </trkpt>
      <trkpt lat="43.03433" lon="1.04553">
        <ele>346.8</ele>
        <time>2024-04-21T14:39:10.993Z</time>
      </trkpt>
      <trkpt lat="43.03434" lon="1.04561">
        <ele>346.8</ele>
        <time>2024-04-21T14:39:11.993Z</time>
      </trkpt>
      <trkpt lat="43.03435" lon="1.04569">
        <ele>346.8</ele>
        <time>2024-04-21T14:39:12.993Z</time>
      </trkpt>
      <trkpt lat="43.03436" lon="1.04577">
        <ele>346.8</ele>
        <time>2024-04-21T14:39:13.993Z</time>
      </trkpt>
      <trkpt lat="43.03437" lon="1.04585">
        <ele>346.8</ele>
        <time>2024-04-21T14:39:14.993Z</time>
      </trkpt>
      <trkpt lat="43.03438" lon="1.04592">
        <ele>346.8</ele>
        <time>2024-04-21T14:39:15.993Z</time>
      </trkpt>
      <trkpt lat="43.03439" lon="1.04601">
        <ele>346.8</ele>
        <time>2024-04-21T14:39:16.993Z</time>
      </trkpt>
      <trkpt lat="43.0344" lon="1.04609">
        <ele>346.8</ele>
        <time>2024-04-21T14:39:17.993Z</time>
      </trkpt>
      <trkpt lat="43.03441" lon="1.04616">
        <ele>346.8</ele>
        <time>2024-04-21T14:39:18.993Z</time>
      </trkpt>
      <trkpt lat="43.03442" lon="1.04624">
        <ele>347.4</ele>
        <time>2024-04-21T14:39:19.993Z</time>
      </trkpt>
      <trkpt lat="43.03443" lon="1.04632">
        <ele>347.4</ele>
        <time>2024-04-21T14:39:20.993Z</time>
      </trkpt>
      <trkpt lat="43.03444" lon="1.0464">
        <ele>347.4</ele>
        <time>2024-04-21T14:39:21.993Z</time>
      </trkpt>
      <trkpt lat="43.03445" lon="1.04647">
        <ele>347.2</ele>
        <time>2024-04-21T14:39:22.993Z</time>
      </trkpt>
      <trkpt lat="43.03446" lon="1.04655">
        <ele>347.2</ele>
        <time>2024-04-21T14:39:23.993Z</time>
      </trkpt>
      <trkpt lat="43.03447" lon="1.04663">
        <ele>347</ele>
        <time>2024-04-21T14:39:24.993Z</time>
      </trkpt>
      <trkpt lat="43.03448" lon="1.0467">
        <ele>347</ele>
        <time>2024-04-21T14:39:25.993Z</time>
      </trkpt>
      <trkpt lat="43.03448" lon="1.04678">
        <ele>347</ele>
        <time>2024-04-21T14:39:26.993Z</time>
      </trkpt>
      <trkpt lat="43.03449" lon="1.04685">
        <ele>346.6</ele>
        <time>2024-04-21T14:39:27.993Z</time>
      </trkpt>
      <trkpt lat="43.0345" lon="1.04693">
        <ele>346.6</ele>
        <time>2024-04-21T14:39:28.993Z</time>
      </trkpt>
      <trkpt lat="43.03451" lon="1.047">
        <ele>346.6</ele>
        <time>2024-04-21T14:39:29.993Z</time>
      </trkpt>
      <trkpt lat="43.03452" lon="1.04708">
        <ele>346.6</ele>
        <time>2024-04-21T14:39:30.993Z</time>
      </trkpt>
      <trkpt lat="43.03453" lon="1.04715">
        <ele>346.6</ele>
        <time>2024-04-21T14:39:31.993Z</time>
      </trkpt>
      <trkpt lat="43.03454" lon="1.04723">
        <ele>346.6</ele>
        <time>2024-04-21T14:39:32.993Z</time>
      </trkpt>
      <trkpt lat="43.03456" lon="1.0473">
        <ele>346.6</ele>
        <time>2024-04-21T14:39:33.993Z</time>
      </trkpt>
      <trkpt lat="43.03456" lon="1.04738">
        <ele>346.6</ele>
        <time>2024-04-21T14:39:34.993Z</time>
      </trkpt>
      <trkpt lat="43.03457" lon="1.04745">
        <ele>346.8</ele>
        <time>2024-04-21T14:39:35.993Z</time>
      </trkpt>
      <trkpt lat="43.03457" lon="1.04753">
        <ele>346.6</ele>
        <time>2024-04-21T14:39:36.993Z</time>
      </trkpt>
      <trkpt lat="43.03458" lon="1.0476">
        <ele>346.4</ele>
        <time>2024-04-21T14:39:37.993Z</time>
      </trkpt>
      <trkpt lat="43.0346" lon="1.04767">
        <ele>346.4</ele>
        <time>2024-04-21T14:39:38.993Z</time>
      </trkpt>
      <trkpt lat="43.0346" lon="1.04774">
        <ele>346.4</ele>
        <time>2024-04-21T14:39:39.993Z</time>
      </trkpt>
      <trkpt lat="43.03461" lon="1.04782">
        <ele>346.4</ele>
        <time>2024-04-21T14:39:40.993Z</time>
      </trkpt>
      <trkpt lat="43.03462" lon="1.04789">
        <ele>346.6</ele>
        <time>2024-04-21T14:39:41.993Z</time>
      </trkpt>
      <trkpt lat="43.03463" lon="1.04797">
        <ele>346.8</ele>
        <time>2024-04-21T14:39:42.993Z</time>
      </trkpt>
      <trkpt lat="43.03464" lon="1.04805">
        <ele>346.8</ele>
        <time>2024-04-21T14:39:43.993Z</time>
      </trkpt>
      <trkpt lat="43.03465" lon="1.04812">
        <ele>346.8</ele>
        <time>2024-04-21T14:39:44.993Z</time>
      </trkpt>
      <trkpt lat="43.03466" lon="1.0482">
        <ele>347.2</ele>
        <time>2024-04-21T14:39:45.993Z</time>
      </trkpt>
      <trkpt lat="43.03467" lon="1.04828">
        <ele>347.2</ele>
        <time>2024-04-21T14:39:46.993Z</time>
      </trkpt>
      <trkpt lat="43.03468" lon="1.04835">
        <ele>346.8</ele>
        <time>2024-04-21T14:39:47.993Z</time>
      </trkpt>
      <trkpt lat="43.03469" lon="1.04842">
        <ele>346.8</ele>
        <time>2024-04-21T14:39:48.993Z</time>
      </trkpt>
      <trkpt lat="43.0347" lon="1.0485">
        <ele>347</ele>
        <time>2024-04-21T14:39:49.993Z</time>
      </trkpt>
      <trkpt lat="43.03471" lon="1.04857">
        <ele>347</ele>
        <time>2024-04-21T14:39:50.993Z</time>
      </trkpt>
      <trkpt lat="43.03472" lon="1.04864">
        <ele>347</ele>
        <time>2024-04-21T14:39:51.993Z</time>
      </trkpt>
      <trkpt lat="43.03473" lon="1.04872">
        <ele>347</ele>
        <time>2024-04-21T14:39:52.993Z</time>
      </trkpt>
      <trkpt lat="43.03474" lon="1.04879">
        <ele>347</ele>
        <time>2024-04-21T14:39:53.993Z</time>
      </trkpt>
      <trkpt lat="43.03474" lon="1.04886">
        <ele>347.6</ele>
        <time>2024-04-21T14:39:54.993Z</time>
      </trkpt>
      <trkpt lat="43.03475" lon="1.04894">
        <ele>347.6</ele>
        <time>2024-04-21T14:39:55.993Z</time>
      </trkpt>
      <trkpt lat="43.03476" lon="1.04901">
        <ele>347.8</ele>
        <time>2024-04-21T14:39:56.993Z</time>
      </trkpt>
      <trkpt lat="43.03477" lon="1.04908">
        <ele>347.8</ele>
        <time>2024-04-21T14:39:57.993Z</time>
      </trkpt>
      <trkpt lat="43.03478" lon="1.04915">
        <ele>348.2</ele>
        <time>2024-04-21T14:39:58.993Z</time>
      </trkpt>
      <trkpt lat="43.03479" lon="1.04922">
        <ele>348.2</ele>
        <time>2024-04-21T14:39:59.993Z</time>
      </trkpt>
      <trkpt lat="43.0348" lon="1.0493">
        <ele>348.2</ele>
        <time>2024-04-21T14:40:00.993Z</time>
      </trkpt>
      <trkpt lat="43.0348" lon="1.04937">
        <ele>348.2</ele>
        <time>2024-04-21T14:40:01.993Z</time>
      </trkpt>
      <trkpt lat="43.03482" lon="1.04944">
        <ele>348.2</ele>
        <time>2024-04-21T14:40:02.993Z</time>
      </trkpt>
      <trkpt lat="43.03482" lon="1.04951">
        <ele>348.2</ele>
        <time>2024-04-21T14:40:03.993Z</time>
      </trkpt>
      <trkpt lat="43.03483" lon="1.04958">
        <ele>348.4</ele>
        <time>2024-04-21T14:40:04.993Z</time>
      </trkpt>
      <trkpt lat="43.03484" lon="1.04965">
        <ele>348.4</ele>
        <time>2024-04-21T14:40:05.993Z</time>
      </trkpt>
      <trkpt lat="43.03485" lon="1.04972">
        <ele>348.6</ele>
        <time>2024-04-21T14:40:06.993Z</time>
      </trkpt>
      <trkpt lat="43.03486" lon="1.0498">
        <ele>348.6</ele>
        <time>2024-04-21T14:40:07.993Z</time>
      </trkpt>
      <trkpt lat="43.03486" lon="1.04987">
        <ele>348.6</ele>
        <time>2024-04-21T14:40:08.993Z</time>
      </trkpt>
      <trkpt lat="43.03487" lon="1.04994">
        <ele>349</ele>
        <time>2024-04-21T14:40:09.993Z</time>
      </trkpt>
      <trkpt lat="43.03488" lon="1.05001">
        <ele>349</ele>
        <time>2024-04-21T14:40:10.993Z</time>
      </trkpt>
      <trkpt lat="43.03489" lon="1.05008">
        <ele>349</ele>
        <time>2024-04-21T14:40:11.993Z</time>
      </trkpt>
      <trkpt lat="43.03489" lon="1.05015">
        <ele>349</ele>
        <time>2024-04-21T14:40:12.993Z</time>
      </trkpt>
      <trkpt lat="43.0349" lon="1.05022">
        <ele>349</ele>
        <time>2024-04-21T14:40:13.993Z</time>
      </trkpt>
      <trkpt lat="43.03491" lon="1.05028">
        <ele>349</ele>
        <time>2024-04-21T14:40:14.993Z</time>
      </trkpt>
      <trkpt lat="43.03492" lon="1.05036">
        <ele>349</ele>
        <time>2024-04-21T14:40:15.993Z</time>
      </trkpt>
      <trkpt lat="43.03493" lon="1.05043">
        <ele>349</ele>
        <time>2024-04-21T14:40:16.993Z</time>
      </trkpt>
      <trkpt lat="43.03494" lon="1.05049">
        <ele>349</ele>
        <time>2024-04-21T14:40:17.993Z</time>
      </trkpt>
      <trkpt lat="43.03494" lon="1.05057">
        <ele>349.2</ele>
        <time>2024-04-21T14:40:18.993Z</time>
      </trkpt>
      <trkpt lat="43.03495" lon="1.05064">
        <ele>349.2</ele>
        <time>2024-04-21T14:40:19.993Z</time>
      </trkpt>
      <trkpt lat="43.03496" lon="1.05071">
        <ele>349.2</ele>
        <time>2024-04-21T14:40:20.993Z</time>
      </trkpt>
      <trkpt lat="43.03497" lon="1.05078">
        <ele>349.2</ele>
        <time>2024-04-21T14:40:21.993Z</time>
      </trkpt>
      <trkpt lat="43.03498" lon="1.05085">
        <ele>349.2</ele>
        <time>2024-04-21T14:40:22.993Z</time>
      </trkpt>
      <trkpt lat="43.03499" lon="1.05092">
        <ele>349.2</ele>
        <time>2024-04-21T14:40:23.993Z</time>
      </trkpt>
      <trkpt lat="43.03499" lon="1.051">
        <ele>349.2</ele>
        <time>2024-04-21T14:40:24.993Z</time>
      </trkpt>
      <trkpt lat="43.03499" lon="1.05107">
        <ele>349.2</ele>
        <time>2024-04-21T14:40:25.993Z</time>
      </trkpt>
      <trkpt lat="43.035" lon="1.05114">
        <ele>349.4</ele>
        <time>2024-04-21T14:40:26.993Z</time>
      </trkpt>
      <trkpt lat="43.03501" lon="1.05121">
        <ele>349.4</ele>
        <time>2024-04-21T14:40:27.993Z</time>
      </trkpt>
      <trkpt lat="43.03502" lon="1.05128">
        <ele>349.6</ele>
        <time>2024-04-21T14:40:28.993Z</time>
      </trkpt>
      <trkpt lat="43.03502" lon="1.05135">
        <ele>349.6</ele>
        <time>2024-04-21T14:40:29.993Z</time>
      </trkpt>
      <trkpt lat="43.03503" lon="1.05142">
        <ele>349.6</ele>
        <time>2024-04-21T14:40:30.993Z</time>
      </trkpt>
      <trkpt lat="43.03504" lon="1.05149">
        <ele>350</ele>
        <time>2024-04-21T14:40:31.993Z</time>
      </trkpt>
      <trkpt lat="43.03504" lon="1.05156">
        <ele>350</ele>
        <time>2024-04-21T14:40:32.993Z</time>
      </trkpt>
      <trkpt lat="43.03505" lon="1.05163">
        <ele>350</ele>
        <time>2024-04-21T14:40:33.993Z</time>
      </trkpt>
      <trkpt lat="43.03506" lon="1.0517">
        <ele>350</ele>
        <time>2024-04-21T14:40:34.993Z</time>
      </trkpt>
      <trkpt lat="43.03506" lon="1.05177">
        <ele>350.2</ele>
        <time>2024-04-21T14:40:35.993Z</time>
      </trkpt>
      <trkpt lat="43.03507" lon="1.05185">
        <ele>350.2</ele>
        <time>2024-04-21T14:40:36.993Z</time>
      </trkpt>
      <trkpt lat="43.03508" lon="1.05192">
        <ele>350.2</ele>
        <time>2024-04-21T14:40:37.993Z</time>
      </trkpt>
      <trkpt lat="43.03508" lon="1.05199">
        <ele>350.2</ele>
        <time>2024-04-21T14:40:38.993Z</time>
      </trkpt>
      <trkpt lat="43.03509" lon="1.05206">
        <ele>350.2</ele>
        <time>2024-04-21T14:40:39.993Z</time>
      </trkpt>
      <trkpt lat="43.0351" lon="1.05213">
        <ele>350.6</ele>
        <time>2024-04-21T14:40:40.993Z</time>
      </trkpt>
      <trkpt lat="43.03511" lon="1.0522">
        <ele>350.6</ele>
        <time>2024-04-21T14:40:41.993Z</time>
      </trkpt>
      <trkpt lat="43.03512" lon="1.05227">
        <ele>350.6</ele>
        <time>2024-04-21T14:40:42.993Z</time>
      </trkpt>
      <trkpt lat="43.03513" lon="1.05234">
        <ele>350.6</ele>
        <time>2024-04-21T14:40:43.993Z</time>
      </trkpt>
      <trkpt lat="43.03514" lon="1.05241">
        <ele>350.6</ele>
        <time>2024-04-21T14:40:44.993Z</time>
      </trkpt>
      <trkpt lat="43.03514" lon="1.05248">
        <ele>350.6</ele>
        <time>2024-04-21T14:40:45.993Z</time>
      </trkpt>
      <trkpt lat="43.03515" lon="1.05256">
        <ele>350.6</ele>
        <time>2024-04-21T14:40:46.993Z</time>
      </trkpt>
      <trkpt lat="43.03516" lon="1.05263">
        <ele>350.6</ele>
        <time>2024-04-21T14:40:47.993Z</time>
      </trkpt>
      <trkpt lat="43.03517" lon="1.0527">
        <ele>350.6</ele>
        <time>2024-04-21T14:40:48.993Z</time>
      </trkpt>
      <trkpt lat="43.03518" lon="1.05277">
        <ele>350.6</ele>
        <time>2024-04-21T14:40:49.993Z</time>
      </trkpt>
      <trkpt lat="43.0352" lon="1.05284">
        <ele>350.6</ele>
        <time>2024-04-21T14:40:50.993Z</time>
      </trkpt>
      <trkpt lat="43.03521" lon="1.05291">
        <ele>350.6</ele>
        <time>2024-04-21T14:40:51.993Z</time>
      </trkpt>
      <trkpt lat="43.03523" lon="1.05299">
        <ele>350.6</ele>
        <time>2024-04-21T14:40:52.993Z</time>
      </trkpt>
      <trkpt lat="43.03524" lon="1.05306">
        <ele>350.6</ele>
        <time>2024-04-21T14:40:53.993Z</time>
      </trkpt>
      <trkpt lat="43.03525" lon="1.05313">
        <ele>350.6</ele>
        <time>2024-04-21T14:40:54.993Z</time>
      </trkpt>
      <trkpt lat="43.03526" lon="1.05321">
        <ele>350.6</ele>
        <time>2024-04-21T14:40:55.993Z</time>
      </trkpt>
      <trkpt lat="43.03527" lon="1.05328">
        <ele>350.6</ele>
        <time>2024-04-21T14:40:56.993Z</time>
      </trkpt>
      <trkpt lat="43.03528" lon="1.05336">
        <ele>350.6</ele>
        <time>2024-04-21T14:40:57.993Z</time>
      </trkpt>
      <trkpt lat="43.0353" lon="1.05343">
        <ele>350.6</ele>
        <time>2024-04-21T14:40:58.993Z</time>
      </trkpt>
      <trkpt lat="43.03531" lon="1.05351">
        <ele>350.6</ele>
        <time>2024-04-21T14:40:59.993Z</time>
      </trkpt>
      <trkpt lat="43.03532" lon="1.05358">
        <ele>350.6</ele>
        <time>2024-04-21T14:41:00.993Z</time>
      </trkpt>
      <trkpt lat="43.03533" lon="1.05365">
        <ele>350.6</ele>
        <time>2024-04-21T14:41:01.993Z</time>
      </trkpt>
      <trkpt lat="43.03534" lon="1.05373">
        <ele>350.6</ele>
        <time>2024-04-21T14:41:02.993Z</time>
      </trkpt>
      <trkpt lat="43.03535" lon="1.0538">
        <ele>350.6</ele>
        <time>2024-04-21T14:41:03.993Z</time>
      </trkpt>
      <trkpt lat="43.03536" lon="1.05388">
        <ele>350.6</ele>
        <time>2024-04-21T14:41:04.993Z</time>
      </trkpt>
      <trkpt lat="43.03537" lon="1.05395">
        <ele>350.6</ele>
        <time>2024-04-21T14:41:05.993Z</time>
      </trkpt>
      <trkpt lat="43.03538" lon="1.05403">
        <ele>350.4</ele>
        <time>2024-04-21T14:41:06.993Z</time>
      </trkpt>
      <trkpt lat="43.03539" lon="1.0541">
        <ele>350.4</ele>
        <time>2024-04-21T14:41:07.993Z</time>
      </trkpt>
      <trkpt lat="43.0354" lon="1.05418">
        <ele>350</ele>
        <time>2024-04-21T14:41:08.993Z</time>
      </trkpt>
      <trkpt lat="43.0354" lon="1.05426">
        <ele>350</ele>
        <time>2024-04-21T14:41:09.993Z</time>
      </trkpt>
      <trkpt lat="43.03541" lon="1.05433">
        <ele>350</ele>
        <time>2024-04-21T14:41:10.993Z</time>
      </trkpt>
      <trkpt lat="43.03541" lon="1.05442">
        <ele>350.2</ele>
        <time>2024-04-21T14:41:11.993Z</time>
      </trkpt>
      <trkpt lat="43.03542" lon="1.05449">
        <ele>350</ele>
        <time>2024-04-21T14:41:12.993Z</time>
      </trkpt>
      <trkpt lat="43.03544" lon="1.05456">
        <ele>350.4</ele>
        <time>2024-04-21T14:41:13.993Z</time>
      </trkpt>
      <trkpt lat="43.03545" lon="1.05463">
        <ele>350.4</ele>
        <time>2024-04-21T14:41:14.993Z</time>
      </trkpt>
      <trkpt lat="43.03546" lon="1.05471">
        <ele>350.6</ele>
        <time>2024-04-21T14:41:15.993Z</time>
      </trkpt>
      <trkpt lat="43.03547" lon="1.05478">
        <ele>350.6</ele>
        <time>2024-04-21T14:41:16.993Z</time>
      </trkpt>
      <trkpt lat="43.03547" lon="1.05486">
        <ele>350.6</ele>
        <time>2024-04-21T14:41:17.993Z</time>
      </trkpt>
      <trkpt lat="43.03548" lon="1.05493">
        <ele>350.4</ele>
        <time>2024-04-21T14:41:18.993Z</time>
      </trkpt>
      <trkpt lat="43.03549" lon="1.05501">
        <ele>350.4</ele>
        <time>2024-04-21T14:41:19.993Z</time>
      </trkpt>
      <trkpt lat="43.0355" lon="1.05509">
        <ele>350.2</ele>
        <time>2024-04-21T14:41:20.993Z</time>
      </trkpt>
      <trkpt lat="43.03551" lon="1.05517">
        <ele>350.2</ele>
        <time>2024-04-21T14:41:21.993Z</time>
      </trkpt>
      <trkpt lat="43.03552" lon="1.05524">
        <ele>350.2</ele>
        <time>2024-04-21T14:41:22.993Z</time>
      </trkpt>
      <trkpt lat="43.03553" lon="1.05531">
        <ele>349.8</ele>
        <time>2024-04-21T14:41:23.993Z</time>
      </trkpt>
      <trkpt lat="43.03554" lon="1.05539">
        <ele>349.8</ele>
        <time>2024-04-21T14:41:24.993Z</time>
      </trkpt>
      <trkpt lat="43.03554" lon="1.05546">
        <ele>349.8</ele>
        <time>2024-04-21T14:41:25.993Z</time>
      </trkpt>
      <trkpt lat="43.03555" lon="1.05553">
        <ele>349.8</ele>
        <time>2024-04-21T14:41:26.993Z</time>
      </trkpt>
      <trkpt lat="43.03557" lon="1.0556">
        <ele>350</ele>
        <time>2024-04-21T14:41:27.993Z</time>
      </trkpt>
      <trkpt lat="43.03559" lon="1.05567">
        <ele>350</ele>
        <time>2024-04-21T14:41:28.993Z</time>
      </trkpt>
      <trkpt lat="43.0356" lon="1.05574">
        <ele>350</ele>
        <time>2024-04-21T14:41:29.993Z</time>
      </trkpt>
      <trkpt lat="43.03562" lon="1.05581">
        <ele>350</ele>
        <time>2024-04-21T14:41:30.993Z</time>
      </trkpt>
      <trkpt lat="43.03564" lon="1.05588">
        <ele>350</ele>
        <time>2024-04-21T14:41:31.993Z</time>
      </trkpt>
      <trkpt lat="43.03566" lon="1.05594">
        <ele>350</ele>
        <time>2024-04-21T14:41:32.993Z</time>
      </trkpt>
      <trkpt lat="43.03568" lon="1.05601">
        <ele>350</ele>
        <time>2024-04-21T14:41:33.993Z</time>
      </trkpt>
      <trkpt lat="43.03569" lon="1.05607">
        <ele>350</ele>
        <time>2024-04-21T14:41:34.993Z</time>
      </trkpt>
      <trkpt lat="43.03571" lon="1.05614">
        <ele>350</ele>
        <time>2024-04-21T14:41:35.993Z</time>
      </trkpt>
      <trkpt lat="43.03573" lon="1.0562">
        <ele>350</ele>
        <time>2024-04-21T14:41:36.993Z</time>
      </trkpt>
      <trkpt lat="43.03575" lon="1.05626">
        <ele>350.2</ele>
        <time>2024-04-21T14:41:37.993Z</time>
      </trkpt>
      <trkpt lat="43.03578" lon="1.05633">
        <ele>350.2</ele>
        <time>2024-04-21T14:41:38.993Z</time>
      </trkpt>
      <trkpt lat="43.0358" lon="1.05638">
        <ele>350.6</ele>
        <time>2024-04-21T14:41:39.993Z</time>
      </trkpt>
      <trkpt lat="43.03582" lon="1.05644">
        <ele>350.6</ele>
        <time>2024-04-21T14:41:40.993Z</time>
      </trkpt>
      <trkpt lat="43.03584" lon="1.05649">
        <ele>350.6</ele>
        <time>2024-04-21T14:41:41.993Z</time>
      </trkpt>
      <trkpt lat="43.03584" lon="1.05654">
        <ele>350.8</ele>
        <time>2024-04-21T14:41:42.993Z</time>
      </trkpt>
      <trkpt lat="43.03583" lon="1.05659">
        <ele>350.8</ele>
        <time>2024-04-21T14:41:43.993Z</time>
      </trkpt>
      <trkpt lat="43.03581" lon="1.05663">
        <ele>350.8</ele>
        <time>2024-04-21T14:41:44.993Z</time>
      </trkpt>
      <trkpt lat="43.03579" lon="1.05668">
        <ele>350.8</ele>
        <time>2024-04-21T14:41:45.993Z</time>
      </trkpt>
      <trkpt lat="43.03578" lon="1.05672">
        <ele>351</ele>
        <time>2024-04-21T14:41:46.993Z</time>
      </trkpt>
      <trkpt lat="43.03576" lon="1.05677">
        <ele>351</ele>
        <time>2024-04-21T14:41:47.993Z</time>
      </trkpt>
      <trkpt lat="43.03575" lon="1.05682">
        <ele>351</ele>
        <time>2024-04-21T14:41:48.993Z</time>
      </trkpt>
      <trkpt lat="43.03575" lon="1.05686">
        <ele>351</ele>
        <time>2024-04-21T14:41:49.993Z</time>
      </trkpt>
      <trkpt lat="43.03574" lon="1.05691">
        <ele>351.2</ele>
        <time>2024-04-21T14:41:50.993Z</time>
      </trkpt>
      <trkpt lat="43.03572" lon="1.05694">
        <ele>351.2</ele>
        <time>2024-04-21T14:41:51.993Z</time>
      </trkpt>
      <trkpt lat="43.0357" lon="1.05696">
        <ele>351.2</ele>
        <time>2024-04-21T14:41:52.993Z</time>
      </trkpt>
      <trkpt lat="43.0357" lon="1.05699">
        <ele>351.6</ele>
        <time>2024-04-21T14:41:53.993Z</time>
      </trkpt>
      <trkpt lat="43.03572" lon="1.057">
        <ele>352</ele>
        <time>2024-04-21T14:41:54.993Z</time>
      </trkpt>
      <trkpt lat="43.03574" lon="1.05699">
        <ele>352</ele>
        <time>2024-04-21T14:41:55.993Z</time>
      </trkpt>
      <trkpt lat="43.03575" lon="1.05696">
        <ele>352.2</ele>
        <time>2024-04-21T14:41:56.993Z</time>
      </trkpt>
      <trkpt lat="43.03576" lon="1.05692">
        <ele>352</ele>
        <time>2024-04-21T14:41:57.993Z</time>
      </trkpt>
      <trkpt lat="43.03577" lon="1.05687">
        <ele>352</ele>
        <time>2024-04-21T14:41:58.993Z</time>
      </trkpt>
      <trkpt lat="43.03578" lon="1.05682">
        <ele>351.6</ele>
        <time>2024-04-21T14:41:59.993Z</time>
      </trkpt>
      <trkpt lat="43.03579" lon="1.05677">
        <ele>351.6</ele>
        <time>2024-04-21T14:42:00.993Z</time>
      </trkpt>
      <trkpt lat="43.0358" lon="1.05672">
        <ele>351.2</ele>
        <time>2024-04-21T14:42:01.993Z</time>
      </trkpt>
      <trkpt lat="43.03582" lon="1.05667">
        <ele>351.2</ele>
        <time>2024-04-21T14:42:02.993Z</time>
      </trkpt>
      <trkpt lat="43.03585" lon="1.05663">
        <ele>351.2</ele>
        <time>2024-04-21T14:42:03.993Z</time>
      </trkpt>
      <trkpt lat="43.03589" lon="1.05661">
        <ele>351.2</ele>
        <time>2024-04-21T14:42:04.993Z</time>
      </trkpt>
      <trkpt lat="43.03593" lon="1.05668">
        <ele>351</ele>
        <time>2024-04-21T14:42:05.993Z</time>
      </trkpt>
      <trkpt lat="43.03596" lon="1.05671">
        <ele>351</ele>
        <time>2024-04-21T14:42:06.993Z</time>
      </trkpt>
      <trkpt lat="43.03598" lon="1.05676">
        <ele>351</ele>
        <time>2024-04-21T14:42:07.993Z</time>
      </trkpt>
      <trkpt lat="43.03601" lon="1.0568">
        <ele>351</ele>
        <time>2024-04-21T14:42:08.993Z</time>
      </trkpt>
      <trkpt lat="43.03603" lon="1.05684">
        <ele>351</ele>
        <time>2024-04-21T14:42:09.993Z</time>
      </trkpt>
      <trkpt lat="43.03606" lon="1.05687">
        <ele>351</ele>
        <time>2024-04-21T14:42:10.993Z</time>
      </trkpt>
      <trkpt lat="43.03608" lon="1.05692">
        <ele>351</ele>
        <time>2024-04-21T14:42:11.993Z</time>
      </trkpt>
      <trkpt lat="43.03611" lon="1.05696">
        <ele>351</ele>
        <time>2024-04-21T14:42:12.993Z</time>
      </trkpt>
      <trkpt lat="43.03614" lon="1.05699">
        <ele>351</ele>
        <time>2024-04-21T14:42:13.993Z</time>
      </trkpt>
      <trkpt lat="43.03616" lon="1.05703">
        <ele>351</ele>
        <time>2024-04-21T14:42:14.993Z</time>
      </trkpt>
      <trkpt lat="43.03619" lon="1.05707">
        <ele>351</ele>
        <time>2024-04-21T14:42:15.993Z</time>
      </trkpt>
      <trkpt lat="43.03622" lon="1.05711">
        <ele>351</ele>
        <time>2024-04-21T14:42:16.993Z</time>
      </trkpt>
      <trkpt lat="43.03625" lon="1.05715">
        <ele>351.2</ele>
        <time>2024-04-21T14:42:17.993Z</time>
      </trkpt>
      <trkpt lat="43.03627" lon="1.0572">
        <ele>351.2</ele>
        <time>2024-04-21T14:42:18.993Z</time>
      </trkpt>
      <trkpt lat="43.03631" lon="1.05723">
        <ele>351.6</ele>
        <time>2024-04-21T14:42:19.993Z</time>
      </trkpt>
      <trkpt lat="43.03634" lon="1.05727">
        <ele>351.6</ele>
        <time>2024-04-21T14:42:20.993Z</time>
      </trkpt>
      <trkpt lat="43.03637" lon="1.05731">
        <ele>351.8</ele>
        <time>2024-04-21T14:42:21.993Z</time>
      </trkpt>
      <trkpt lat="43.0364" lon="1.05735">
        <ele>351.8</ele>
        <time>2024-04-21T14:42:22.993Z</time>
      </trkpt>
      <trkpt lat="43.03643" lon="1.05738">
        <ele>351.8</ele>
        <time>2024-04-21T14:42:23.993Z</time>
      </trkpt>
      <trkpt lat="43.03646" lon="1.05743">
        <ele>352.2</ele>
        <time>2024-04-21T14:42:24.993Z</time>
      </trkpt>
      <trkpt lat="43.03649" lon="1.05747">
        <ele>352.2</ele>
        <time>2024-04-21T14:42:25.993Z</time>
      </trkpt>
      <trkpt lat="43.03652" lon="1.05751">
        <ele>352.4</ele>
        <time>2024-04-21T14:42:26.993Z</time>
      </trkpt>
      <trkpt lat="43.03656" lon="1.05755">
        <ele>352.4</ele>
        <time>2024-04-21T14:42:27.993Z</time>
      </trkpt>
      <trkpt lat="43.03659" lon="1.0576">
        <ele>352.6</ele>
        <time>2024-04-21T14:42:28.993Z</time>
      </trkpt>
      <trkpt lat="43.03662" lon="1.05765">
        <ele>352.6</ele>
        <time>2024-04-21T14:42:29.993Z</time>
      </trkpt>
      <trkpt lat="43.03665" lon="1.05769">
        <ele>352.8</ele>
        <time>2024-04-21T14:42:30.993Z</time>
      </trkpt>
      <trkpt lat="43.03669" lon="1.05774">
        <ele>352.8</ele>
        <time>2024-04-21T14:42:31.993Z</time>
      </trkpt>
      <trkpt lat="43.03672" lon="1.05778">
        <ele>352.8</ele>
        <time>2024-04-21T14:42:32.993Z</time>
      </trkpt>
      <trkpt lat="43.03675" lon="1.05782">
        <ele>352.8</ele>
        <time>2024-04-21T14:42:33.993Z</time>
      </trkpt>
      <trkpt lat="43.03679" lon="1.05786">
        <ele>352.8</ele>
        <time>2024-04-21T14:42:34.993Z</time>
      </trkpt>
      <trkpt lat="43.03683" lon="1.0579">
        <ele>352.8</ele>
        <time>2024-04-21T14:42:35.993Z</time>
      </trkpt>
      <trkpt lat="43.03683" lon="1.0579">
        <ele>352.8</ele>
        <time>2024-04-21T14:42:36.993Z</time>
      </trkpt>
      <trkpt lat="43.03687" lon="1.05794">
        <ele>352.8</ele>
        <time>2024-04-21T14:42:37.993Z</time>
      </trkpt>
      <trkpt lat="43.03691" lon="1.05798">
        <ele>352.8</ele>
        <time>2024-04-21T14:42:38.993Z</time>
      </trkpt>
      <trkpt lat="43.03694" lon="1.05802">
        <ele>352.8</ele>
        <time>2024-04-21T14:42:39.993Z</time>
      </trkpt>
      <trkpt lat="43.03698" lon="1.05806">
        <ele>352.8</ele>
        <time>2024-04-21T14:42:40.993Z</time>
      </trkpt>
      <trkpt lat="43.03701" lon="1.05811">
        <ele>352.8</ele>
        <time>2024-04-21T14:42:41.993Z</time>
      </trkpt>
      <trkpt lat="43.03705" lon="1.05815">
        <ele>352.8</ele>
        <time>2024-04-21T14:42:42.993Z</time>
      </trkpt>
      <trkpt lat="43.03709" lon="1.05818">
        <ele>353.4</ele>
        <time>2024-04-21T14:42:43.993Z</time>
      </trkpt>
      <trkpt lat="43.03713" lon="1.05821">
        <ele>353.4</ele>
        <time>2024-04-21T14:42:44.993Z</time>
      </trkpt>
      <trkpt lat="43.03717" lon="1.05825">
        <ele>353.4</ele>
        <time>2024-04-21T14:42:45.993Z</time>
      </trkpt>
      <trkpt lat="43.0372" lon="1.05828">
        <ele>353.4</ele>
        <time>2024-04-21T14:42:46.993Z</time>
      </trkpt>
      <trkpt lat="43.03724" lon="1.05831">
        <ele>353.4</ele>
        <time>2024-04-21T14:42:47.993Z</time>
      </trkpt>
      <trkpt lat="43.03728" lon="1.05835">
        <ele>353.4</ele>
        <time>2024-04-21T14:42:48.993Z</time>
      </trkpt>
      <trkpt lat="43.03732" lon="1.05838">
        <ele>353.4</ele>
        <time>2024-04-21T14:42:49.993Z</time>
      </trkpt>
      <trkpt lat="43.03736" lon="1.05842">
        <ele>353.4</ele>
        <time>2024-04-21T14:42:50.993Z</time>
      </trkpt>
      <trkpt lat="43.0374" lon="1.05846">
        <ele>353.4</ele>
        <time>2024-04-21T14:42:51.993Z</time>
      </trkpt>
      <trkpt lat="43.03744" lon="1.0585">
        <ele>353</ele>
        <time>2024-04-21T14:42:52.993Z</time>
      </trkpt>
      <trkpt lat="43.03748" lon="1.05854">
        <ele>353.2</ele>
        <time>2024-04-21T14:42:53.993Z</time>
      </trkpt>
      <trkpt lat="43.03752" lon="1.05858">
        <ele>353.2</ele>
        <time>2024-04-21T14:42:54.993Z</time>
      </trkpt>
      <trkpt lat="43.03756" lon="1.05862">
        <ele>353</ele>
        <time>2024-04-21T14:42:55.993Z</time>
      </trkpt>
      <trkpt lat="43.03761" lon="1.05866">
        <ele>352.6</ele>
        <time>2024-04-21T14:42:56.993Z</time>
      </trkpt>
      <trkpt lat="43.03765" lon="1.05871">
        <ele>352.2</ele>
        <time>2024-04-21T14:42:57.993Z</time>
      </trkpt>
      <trkpt lat="43.0377" lon="1.05876">
        <ele>351.6</ele>
        <time>2024-04-21T14:42:58.993Z</time>
      </trkpt>
      <trkpt lat="43.03775" lon="1.05882">
        <ele>351.2</ele>
        <time>2024-04-21T14:42:59.993Z</time>
      </trkpt>
      <trkpt lat="43.03781" lon="1.05887">
        <ele>350.6</ele>
        <time>2024-04-21T14:43:00.993Z</time>
      </trkpt>
      <trkpt lat="43.03787" lon="1.05895">
        <ele>350</ele>
        <time>2024-04-21T14:43:01.993Z</time>
      </trkpt>
      <trkpt lat="43.03793" lon="1.05901">
        <ele>349.6</ele>
        <time>2024-04-21T14:43:02.993Z</time>
      </trkpt>
      <trkpt lat="43.038" lon="1.05907">
        <ele>349.2</ele>
        <time>2024-04-21T14:43:03.993Z</time>
      </trkpt>
      <trkpt lat="43.03807" lon="1.05911">
        <ele>348.8</ele>
        <time>2024-04-21T14:43:04.993Z</time>
      </trkpt>
      <trkpt lat="43.03822" lon="1.0591">
        <ele>348.4</ele>
        <time>2024-04-21T14:43:05.993Z</time>
      </trkpt>
      <trkpt lat="43.03829" lon="1.05909">
        <ele>348.4</ele>
        <time>2024-04-21T14:43:06.993Z</time>
      </trkpt>
      <trkpt lat="43.03836" lon="1.05907">
        <ele>348.4</ele>
        <time>2024-04-21T14:43:07.993Z</time>
      </trkpt>
      <trkpt lat="43.03838" lon="1.05906">
        <ele>348</ele>
        <time>2024-04-21T14:43:08.993Z</time>
      </trkpt>
      <trkpt lat="43.03841" lon="1.05906">
        <ele>348.2</ele>
        <time>2024-04-21T14:43:09.993Z</time>
      </trkpt>
      <trkpt lat="43.03844" lon="1.05905">
        <ele>348.6</ele>
        <time>2024-04-21T14:43:10.993Z</time>
      </trkpt>
      <trkpt lat="43.03852" lon="1.05903">
        <ele>348.6</ele>
        <time>2024-04-21T14:43:11.993Z</time>
      </trkpt>
      <trkpt lat="43.03855" lon="1.05905">
        <ele>348.6</ele>
        <time>2024-04-21T14:43:12.993Z</time>
      </trkpt>
      <trkpt lat="43.03857" lon="1.05908">
        <ele>348.6</ele>
        <time>2024-04-21T14:43:13.993Z</time>
      </trkpt>
      <trkpt lat="43.03859" lon="1.05911">
        <ele>349</ele>
        <time>2024-04-21T14:43:14.993Z</time>
      </trkpt>
      <trkpt lat="43.03862" lon="1.05916">
        <ele>349</ele>
        <time>2024-04-21T14:43:15.993Z</time>
      </trkpt>
      <trkpt lat="43.03863" lon="1.05921">
        <ele>349.6</ele>
        <time>2024-04-21T14:43:16.993Z</time>
      </trkpt>
      <trkpt lat="43.03866" lon="1.05926">
        <ele>349.6</ele>
        <time>2024-04-21T14:43:17.993Z</time>
      </trkpt>
      <trkpt lat="43.03867" lon="1.05931">
        <ele>349.8</ele>
        <time>2024-04-21T14:43:18.993Z</time>
      </trkpt>
      <trkpt lat="43.03869" lon="1.05937">
        <ele>349.8</ele>
        <time>2024-04-21T14:43:19.993Z</time>
      </trkpt>
      <trkpt lat="43.03871" lon="1.05943">
        <ele>349.8</ele>
        <time>2024-04-21T14:43:20.993Z</time>
      </trkpt>
      <trkpt lat="43.03872" lon="1.05949">
        <ele>349.8</ele>
        <time>2024-04-21T14:43:21.993Z</time>
      </trkpt>
      <trkpt lat="43.03874" lon="1.05954">
        <ele>349.8</ele>
        <time>2024-04-21T14:43:22.993Z</time>
      </trkpt>
      <trkpt lat="43.03875" lon="1.0596">
        <ele>349.8</ele>
        <time>2024-04-21T14:43:23.993Z</time>
      </trkpt>
      <trkpt lat="43.03875" lon="1.05966">
        <ele>349.8</ele>
        <time>2024-04-21T14:43:24.993Z</time>
      </trkpt>
      <trkpt lat="43.03876" lon="1.05972">
        <ele>349.8</ele>
        <time>2024-04-21T14:43:25.993Z</time>
      </trkpt>
      <trkpt lat="43.03878" lon="1.05978">
        <ele>349.8</ele>
        <time>2024-04-21T14:43:26.993Z</time>
      </trkpt>
      <trkpt lat="43.03879" lon="1.05984">
        <ele>349.8</ele>
        <time>2024-04-21T14:43:27.993Z</time>
      </trkpt>
      <trkpt lat="43.0388" lon="1.0599">
        <ele>349.8</ele>
        <time>2024-04-21T14:43:28.993Z</time>
      </trkpt>
      <trkpt lat="43.03881" lon="1.05996">
        <ele>350</ele>
        <time>2024-04-21T14:43:29.993Z</time>
      </trkpt>
      <trkpt lat="43.03881" lon="1.06003">
        <ele>350</ele>
        <time>2024-04-21T14:43:30.993Z</time>
      </trkpt>
      <trkpt lat="43.03882" lon="1.06009">
        <ele>350</ele>
        <time>2024-04-21T14:43:31.993Z</time>
      </trkpt>
      <trkpt lat="43.03883" lon="1.06016">
        <ele>349.8</ele>
        <time>2024-04-21T14:43:32.993Z</time>
      </trkpt>
      <trkpt lat="43.03884" lon="1.06023">
        <ele>350</ele>
        <time>2024-04-21T14:43:33.993Z</time>
      </trkpt>
      <trkpt lat="43.03885" lon="1.06029">
        <ele>350</ele>
        <time>2024-04-21T14:43:34.993Z</time>
      </trkpt>
      <trkpt lat="43.03886" lon="1.06036">
        <ele>350</ele>
        <time>2024-04-21T14:43:35.993Z</time>
      </trkpt>
      <trkpt lat="43.03887" lon="1.06043">
        <ele>350</ele>
        <time>2024-04-21T14:43:36.993Z</time>
      </trkpt>
      <trkpt lat="43.03887" lon="1.0605">
        <ele>350</ele>
        <time>2024-04-21T14:43:37.993Z</time>
      </trkpt>
      <trkpt lat="43.03888" lon="1.06057">
        <ele>350</ele>
        <time>2024-04-21T14:43:38.993Z</time>
      </trkpt>
      <trkpt lat="43.03889" lon="1.06063">
        <ele>350.4</ele>
        <time>2024-04-21T14:43:39.993Z</time>
      </trkpt>
      <trkpt lat="43.03889" lon="1.0607">
        <ele>350.4</ele>
        <time>2024-04-21T14:43:40.993Z</time>
      </trkpt>
      <trkpt lat="43.03889" lon="1.06078">
        <ele>350.4</ele>
        <time>2024-04-21T14:43:41.993Z</time>
      </trkpt>
      <trkpt lat="43.0389" lon="1.06085">
        <ele>350.6</ele>
        <time>2024-04-21T14:43:42.993Z</time>
      </trkpt>
      <trkpt lat="43.0389" lon="1.06091">
        <ele>350.6</ele>
        <time>2024-04-21T14:43:43.993Z</time>
      </trkpt>
      <trkpt lat="43.0389" lon="1.06098">
        <ele>350.6</ele>
        <time>2024-04-21T14:43:44.993Z</time>
      </trkpt>
      <trkpt lat="43.0389" lon="1.06105">
        <ele>350.6</ele>
        <time>2024-04-21T14:43:45.993Z</time>
      </trkpt>
      <trkpt lat="43.0389" lon="1.06112">
        <ele>350.6</ele>
        <time>2024-04-21T14:43:46.993Z</time>
      </trkpt>
      <trkpt lat="43.0389" lon="1.06119">
        <ele>350.4</ele>
        <time>2024-04-21T14:43:47.993Z</time>
      </trkpt>
      <trkpt lat="43.0389" lon="1.06126">
        <ele>350.4</ele>
        <time>2024-04-21T14:43:48.993Z</time>
      </trkpt>
      <trkpt lat="43.0389" lon="1.06133">
        <ele>350.6</ele>
        <time>2024-04-21T14:43:49.993Z</time>
      </trkpt>
      <trkpt lat="43.0389" lon="1.0614">
        <ele>350.6</ele>
        <time>2024-04-21T14:43:50.993Z</time>
      </trkpt>
      <trkpt lat="43.03889" lon="1.06147">
        <ele>350.6</ele>
        <time>2024-04-21T14:43:51.993Z</time>
      </trkpt>
      <trkpt lat="43.03889" lon="1.06155">
        <ele>350.6</ele>
        <time>2024-04-21T14:43:52.993Z</time>
      </trkpt>
      <trkpt lat="43.03888" lon="1.06161">
        <ele>350.6</ele>
        <time>2024-04-21T14:43:53.993Z</time>
      </trkpt>
      <trkpt lat="43.03887" lon="1.06168">
        <ele>350.6</ele>
        <time>2024-04-21T14:43:54.993Z</time>
      </trkpt>
      <trkpt lat="43.03887" lon="1.06174">
        <ele>350.6</ele>
        <time>2024-04-21T14:43:55.993Z</time>
      </trkpt>
      <trkpt lat="43.03886" lon="1.0618">
        <ele>350.4</ele>
        <time>2024-04-21T14:43:56.993Z</time>
      </trkpt>
      <trkpt lat="43.03885" lon="1.06187">
        <ele>350.4</ele>
        <time>2024-04-21T14:43:57.993Z</time>
      </trkpt>
      <trkpt lat="43.03884" lon="1.06193">
        <ele>350.4</ele>
        <time>2024-04-21T14:43:58.993Z</time>
      </trkpt>
      <trkpt lat="43.03883" lon="1.062">
        <ele>350.4</ele>
        <time>2024-04-21T14:43:59.993Z</time>
      </trkpt>
      <trkpt lat="43.03882" lon="1.06207">
        <ele>350.6</ele>
        <time>2024-04-21T14:44:00.993Z</time>
      </trkpt>
      <trkpt lat="43.03881" lon="1.06213">
        <ele>350.6</ele>
        <time>2024-04-21T14:44:01.993Z</time>
      </trkpt>
      <trkpt lat="43.0388" lon="1.0622">
        <ele>350.6</ele>
        <time>2024-04-21T14:44:02.993Z</time>
      </trkpt>
      <trkpt lat="43.03879" lon="1.06226">
        <ele>350.6</ele>
        <time>2024-04-21T14:44:03.993Z</time>
      </trkpt>
      <trkpt lat="43.03878" lon="1.06233">
        <ele>350.6</ele>
        <time>2024-04-21T14:44:04.993Z</time>
      </trkpt>
      <trkpt lat="43.03876" lon="1.0624">
        <ele>350.6</ele>
        <time>2024-04-21T14:44:05.993Z</time>
      </trkpt>
      <trkpt lat="43.03875" lon="1.06247">
        <ele>350.2</ele>
        <time>2024-04-21T14:44:06.993Z</time>
      </trkpt>
      <trkpt lat="43.03874" lon="1.06254">
        <ele>350.2</ele>
        <time>2024-04-21T14:44:07.993Z</time>
      </trkpt>
      <trkpt lat="43.03872" lon="1.0626">
        <ele>350.2</ele>
        <time>2024-04-21T14:44:08.993Z</time>
      </trkpt>
      <trkpt lat="43.0387" lon="1.06267">
        <ele>350.2</ele>
        <time>2024-04-21T14:44:09.993Z</time>
      </trkpt>
      <trkpt lat="43.03869" lon="1.06274">
        <ele>350.2</ele>
        <time>2024-04-21T14:44:10.993Z</time>
      </trkpt>
      <trkpt lat="43.03867" lon="1.0628">
        <ele>350.6</ele>
        <time>2024-04-21T14:44:11.993Z</time>
      </trkpt>
      <trkpt lat="43.03866" lon="1.06286">
        <ele>350.6</ele>
        <time>2024-04-21T14:44:12.993Z</time>
      </trkpt>
      <trkpt lat="43.03865" lon="1.06292">
        <ele>350.6</ele>
        <time>2024-04-21T14:44:13.993Z</time>
      </trkpt>
      <trkpt lat="43.03864" lon="1.06298">
        <ele>350.8</ele>
        <time>2024-04-21T14:44:14.993Z</time>
      </trkpt>
      <trkpt lat="43.03864" lon="1.06304">
        <ele>351.2</ele>
        <time>2024-04-21T14:44:15.993Z</time>
      </trkpt>
      <trkpt lat="43.03864" lon="1.0631">
        <ele>351.2</ele>
        <time>2024-04-21T14:44:16.993Z</time>
      </trkpt>
      <trkpt lat="43.03864" lon="1.06316">
        <ele>351.2</ele>
        <time>2024-04-21T14:44:17.993Z</time>
      </trkpt>
      <trkpt lat="43.03864" lon="1.06323">
        <ele>351.2</ele>
        <time>2024-04-21T14:44:18.993Z</time>
      </trkpt>
      <trkpt lat="43.03863" lon="1.06329">
        <ele>351.6</ele>
        <time>2024-04-21T14:44:19.993Z</time>
      </trkpt>
      <trkpt lat="43.03863" lon="1.06336">
        <ele>351.6</ele>
        <time>2024-04-21T14:44:20.993Z</time>
      </trkpt>
      <trkpt lat="43.03862" lon="1.06342">
        <ele>351.6</ele>
        <time>2024-04-21T14:44:21.993Z</time>
      </trkpt>
      <trkpt lat="43.03861" lon="1.06348">
        <ele>352</ele>
        <time>2024-04-21T14:44:22.993Z</time>
      </trkpt>
      <trkpt lat="43.0386" lon="1.06354">
        <ele>352</ele>
        <time>2024-04-21T14:44:23.993Z</time>
      </trkpt>
      <trkpt lat="43.03858" lon="1.06359">
        <ele>352</ele>
        <time>2024-04-21T14:44:24.993Z</time>
      </trkpt>
      <trkpt lat="43.03856" lon="1.06365">
        <ele>352.2</ele>
        <time>2024-04-21T14:44:25.993Z</time>
      </trkpt>
      <trkpt lat="43.03853" lon="1.0637">
        <ele>352.2</ele>
        <time>2024-04-21T14:44:26.993Z</time>
      </trkpt>
      <trkpt lat="43.03851" lon="1.06375">
        <ele>352</ele>
        <time>2024-04-21T14:44:27.993Z</time>
      </trkpt>
      <trkpt lat="43.03848" lon="1.0638">
        <ele>352</ele>
        <time>2024-04-21T14:44:28.993Z</time>
      </trkpt>
      <trkpt lat="43.03846" lon="1.06385">
        <ele>352</ele>
        <time>2024-04-21T14:44:29.993Z</time>
      </trkpt>
      <trkpt lat="43.03843" lon="1.0639">
        <ele>352</ele>
        <time>2024-04-21T14:44:30.993Z</time>
      </trkpt>
      <trkpt lat="43.03841" lon="1.06395">
        <ele>352.4</ele>
        <time>2024-04-21T14:44:31.993Z</time>
      </trkpt>
      <trkpt lat="43.03839" lon="1.064">
        <ele>352.4</ele>
        <time>2024-04-21T14:44:32.993Z</time>
      </trkpt>
      <trkpt lat="43.03836" lon="1.06405">
        <ele>352.6</ele>
        <time>2024-04-21T14:44:33.993Z</time>
      </trkpt>
      <trkpt lat="43.03833" lon="1.06409">
        <ele>352.6</ele>
        <time>2024-04-21T14:44:34.993Z</time>
      </trkpt>
      <trkpt lat="43.03829" lon="1.06413">
        <ele>352.6</ele>
        <time>2024-04-21T14:44:35.993Z</time>
      </trkpt>
      <trkpt lat="43.03826" lon="1.06417">
        <ele>353</ele>
        <time>2024-04-21T14:44:36.993Z</time>
      </trkpt>
      <trkpt lat="43.03822" lon="1.06422">
        <ele>352.8</ele>
        <time>2024-04-21T14:44:37.993Z</time>
      </trkpt>
      <trkpt lat="43.03819" lon="1.06426">
        <ele>352.8</ele>
        <time>2024-04-21T14:44:38.993Z</time>
      </trkpt>
      <trkpt lat="43.03815" lon="1.06431">
        <ele>352.8</ele>
        <time>2024-04-21T14:44:39.993Z</time>
      </trkpt>
      <trkpt lat="43.03812" lon="1.06436">
        <ele>352.8</ele>
        <time>2024-04-21T14:44:40.993Z</time>
      </trkpt>
      <trkpt lat="43.03809" lon="1.06441">
        <ele>353</ele>
        <time>2024-04-21T14:44:41.993Z</time>
      </trkpt>
      <trkpt lat="43.03805" lon="1.06446">
        <ele>353</ele>
        <time>2024-04-21T14:44:42.993Z</time>
      </trkpt>
      <trkpt lat="43.03802" lon="1.06451">
        <ele>353</ele>
        <time>2024-04-21T14:44:43.993Z</time>
      </trkpt>
      <trkpt lat="43.03799" lon="1.06457">
        <ele>353.4</ele>
        <time>2024-04-21T14:44:44.993Z</time>
      </trkpt>
      <trkpt lat="43.03795" lon="1.06462">
        <ele>353.4</ele>
        <time>2024-04-21T14:44:45.993Z</time>
      </trkpt>
      <trkpt lat="43.03792" lon="1.06467">
        <ele>353.4</ele>
        <time>2024-04-21T14:44:46.993Z</time>
      </trkpt>
      <trkpt lat="43.03789" lon="1.06473">
        <ele>353.4</ele>
        <time>2024-04-21T14:44:47.993Z</time>
      </trkpt>
      <trkpt lat="43.03785" lon="1.06478">
        <ele>353.8</ele>
        <time>2024-04-21T14:44:48.993Z</time>
      </trkpt>
      <trkpt lat="43.03782" lon="1.06484">
        <ele>353.8</ele>
        <time>2024-04-21T14:44:49.993Z</time>
      </trkpt>
      <trkpt lat="43.03779" lon="1.06488">
        <ele>354</ele>
        <time>2024-04-21T14:44:50.993Z</time>
      </trkpt>
      <trkpt lat="43.03776" lon="1.06494">
        <ele>354</ele>
        <time>2024-04-21T14:44:51.993Z</time>
      </trkpt>
      <trkpt lat="43.03773" lon="1.065">
        <ele>354</ele>
        <time>2024-04-21T14:44:52.993Z</time>
      </trkpt>
      <trkpt lat="43.0377" lon="1.06505">
        <ele>354</ele>
        <time>2024-04-21T14:44:53.993Z</time>
      </trkpt>
      <trkpt lat="43.03767" lon="1.0651">
        <ele>354.2</ele>
        <time>2024-04-21T14:44:54.993Z</time>
      </trkpt>
      <trkpt lat="43.03764" lon="1.06516">
        <ele>354</ele>
        <time>2024-04-21T14:44:55.993Z</time>
      </trkpt>
      <trkpt lat="43.03761" lon="1.06522">
        <ele>354</ele>
        <time>2024-04-21T14:44:56.993Z</time>
      </trkpt>
      <trkpt lat="43.03758" lon="1.06527">
        <ele>353.6</ele>
        <time>2024-04-21T14:44:57.993Z</time>
      </trkpt>
      <trkpt lat="43.03755" lon="1.06532">
        <ele>353.6</ele>
        <time>2024-04-21T14:44:58.993Z</time>
      </trkpt>
      <trkpt lat="43.03752" lon="1.06538">
        <ele>354.2</ele>
        <time>2024-04-21T14:44:59.993Z</time>
      </trkpt>
      <trkpt lat="43.03749" lon="1.06544">
        <ele>354.2</ele>
        <time>2024-04-21T14:45:00.993Z</time>
      </trkpt>
      <trkpt lat="43.03746" lon="1.0655">
        <ele>353.8</ele>
        <time>2024-04-21T14:45:01.993Z</time>
      </trkpt>
      <trkpt lat="43.03743" lon="1.06556">
        <ele>354</ele>
        <time>2024-04-21T14:45:02.993Z</time>
      </trkpt>
      <trkpt lat="43.0374" lon="1.06561">
        <ele>354</ele>
        <time>2024-04-21T14:45:03.993Z</time>
      </trkpt>
      <trkpt lat="43.03737" lon="1.06567">
        <ele>354</ele>
        <time>2024-04-21T14:45:04.993Z</time>
      </trkpt>
      <trkpt lat="43.03734" lon="1.06572">
        <ele>354</ele>
        <time>2024-04-21T14:45:05.993Z</time>
      </trkpt>
      <trkpt lat="43.03731" lon="1.06578">
        <ele>354</ele>
        <time>2024-04-21T14:45:06.993Z</time>
      </trkpt>
      <trkpt lat="43.03728" lon="1.06583">
        <ele>353.8</ele>
        <time>2024-04-21T14:45:07.993Z</time>
      </trkpt>
      <trkpt lat="43.03725" lon="1.06589">
        <ele>354</ele>
        <time>2024-04-21T14:45:08.993Z</time>
      </trkpt>
      <trkpt lat="43.03722" lon="1.06594">
        <ele>354</ele>
        <time>2024-04-21T14:45:09.993Z</time>
      </trkpt>
      <trkpt lat="43.03719" lon="1.066">
        <ele>354</ele>
        <time>2024-04-21T14:45:10.993Z</time>
      </trkpt>
      <trkpt lat="43.03717" lon="1.06607">
        <ele>354</ele>
        <time>2024-04-21T14:45:11.993Z</time>
      </trkpt>
      <trkpt lat="43.03714" lon="1.06613">
        <ele>354</ele>
        <time>2024-04-21T14:45:12.993Z</time>
      </trkpt>
      <trkpt lat="43.03712" lon="1.0662">
        <ele>354.4</ele>
        <time>2024-04-21T14:45:13.993Z</time>
      </trkpt>
      <trkpt lat="43.03709" lon="1.06626">
        <ele>353.6</ele>
        <time>2024-04-21T14:45:14.993Z</time>
      </trkpt>
      <trkpt lat="43.03706" lon="1.06631">
        <ele>353.6</ele>
        <time>2024-04-21T14:45:15.993Z</time>
      </trkpt>
      <trkpt lat="43.03704" lon="1.06637">
        <ele>354.2</ele>
        <time>2024-04-21T14:45:16.993Z</time>
      </trkpt>
      <trkpt lat="43.03701" lon="1.06642">
        <ele>354.2</ele>
        <time>2024-04-21T14:45:17.993Z</time>
      </trkpt>
      <trkpt lat="43.03698" lon="1.06648">
        <ele>354.4</ele>
        <time>2024-04-21T14:45:18.993Z</time>
      </trkpt>
      <trkpt lat="43.03696" lon="1.06654">
        <ele>354.4</ele>
        <time>2024-04-21T14:45:19.993Z</time>
      </trkpt>
      <trkpt lat="43.03693" lon="1.0666">
        <ele>354.4</ele>
        <time>2024-04-21T14:45:20.993Z</time>
      </trkpt>
      <trkpt lat="43.03691" lon="1.06666">
        <ele>354.4</ele>
        <time>2024-04-21T14:45:21.993Z</time>
      </trkpt>
      <trkpt lat="43.03688" lon="1.06673">
        <ele>354.4</ele>
        <time>2024-04-21T14:45:22.993Z</time>
      </trkpt>
      <trkpt lat="43.03686" lon="1.06679">
        <ele>354.4</ele>
        <time>2024-04-21T14:45:23.993Z</time>
      </trkpt>
      <trkpt lat="43.03683" lon="1.06685">
        <ele>354.4</ele>
        <time>2024-04-21T14:45:24.993Z</time>
      </trkpt>
      <trkpt lat="43.0368" lon="1.0669">
        <ele>354.6</ele>
        <time>2024-04-21T14:45:25.993Z</time>
      </trkpt>
      <trkpt lat="43.03677" lon="1.06696">
        <ele>354.6</ele>
        <time>2024-04-21T14:45:26.993Z</time>
      </trkpt>
      <trkpt lat="43.03674" lon="1.06701">
        <ele>354.2</ele>
        <time>2024-04-21T14:45:27.993Z</time>
      </trkpt>
      <trkpt lat="43.03672" lon="1.06706">
        <ele>354.4</ele>
        <time>2024-04-21T14:45:28.993Z</time>
      </trkpt>
      <trkpt lat="43.03669" lon="1.06713">
        <ele>354.4</ele>
        <time>2024-04-21T14:45:29.993Z</time>
      </trkpt>
      <trkpt lat="43.03666" lon="1.06719">
        <ele>354.4</ele>
        <time>2024-04-21T14:45:30.993Z</time>
      </trkpt>
      <trkpt lat="43.03664" lon="1.06725">
        <ele>354.4</ele>
        <time>2024-04-21T14:45:31.993Z</time>
      </trkpt>
      <trkpt lat="43.03661" lon="1.06731">
        <ele>354.4</ele>
        <time>2024-04-21T14:45:32.993Z</time>
      </trkpt>
      <trkpt lat="43.03659" lon="1.06737">
        <ele>354.4</ele>
        <time>2024-04-21T14:45:33.993Z</time>
      </trkpt>
      <trkpt lat="43.03656" lon="1.06743">
        <ele>354.6</ele>
        <time>2024-04-21T14:45:34.993Z</time>
      </trkpt>
      <trkpt lat="43.03653" lon="1.06749">
        <ele>354.6</ele>
        <time>2024-04-21T14:45:35.993Z</time>
      </trkpt>
      <trkpt lat="43.0365" lon="1.06755">
        <ele>354.6</ele>
        <time>2024-04-21T14:45:36.993Z</time>
      </trkpt>
      <trkpt lat="43.03647" lon="1.06762">
        <ele>354.6</ele>
        <time>2024-04-21T14:45:37.993Z</time>
      </trkpt>
      <trkpt lat="43.03644" lon="1.06767">
        <ele>355</ele>
        <time>2024-04-21T14:45:38.993Z</time>
      </trkpt>
      <trkpt lat="43.03641" lon="1.06774">
        <ele>355</ele>
        <time>2024-04-21T14:45:39.993Z</time>
      </trkpt>
      <trkpt lat="43.03639" lon="1.0678">
        <ele>354.4</ele>
        <time>2024-04-21T14:45:40.993Z</time>
      </trkpt>
      <trkpt lat="43.03637" lon="1.06786">
        <ele>354.8</ele>
        <time>2024-04-21T14:45:41.993Z</time>
      </trkpt>
      <trkpt lat="43.03634" lon="1.06792">
        <ele>354.8</ele>
        <time>2024-04-21T14:45:42.993Z</time>
      </trkpt>
      <trkpt lat="43.03631" lon="1.06798">
        <ele>354.8</ele>
        <time>2024-04-21T14:45:43.993Z</time>
      </trkpt>
      <trkpt lat="43.03629" lon="1.06804">
        <ele>355</ele>
        <time>2024-04-21T14:45:44.993Z</time>
      </trkpt>
      <trkpt lat="43.03626" lon="1.0681">
        <ele>355.2</ele>
        <time>2024-04-21T14:45:45.993Z</time>
      </trkpt>
      <trkpt lat="43.03623" lon="1.06817">
        <ele>355</ele>
        <time>2024-04-21T14:45:46.993Z</time>
      </trkpt>
      <trkpt lat="43.0362" lon="1.06822">
        <ele>355</ele>
        <time>2024-04-21T14:45:47.993Z</time>
      </trkpt>
      <trkpt lat="43.03618" lon="1.06829">
        <ele>355</ele>
        <time>2024-04-21T14:45:48.993Z</time>
      </trkpt>
      <trkpt lat="43.03615" lon="1.06835">
        <ele>355.2</ele>
        <time>2024-04-21T14:45:49.993Z</time>
      </trkpt>
      <trkpt lat="43.03612" lon="1.0684">
        <ele>354.8</ele>
        <time>2024-04-21T14:45:50.993Z</time>
      </trkpt>
      <trkpt lat="43.0361" lon="1.06846">
        <ele>354.6</ele>
        <time>2024-04-21T14:45:51.993Z</time>
      </trkpt>
      <trkpt lat="43.03606" lon="1.06852">
        <ele>354.6</ele>
        <time>2024-04-21T14:45:52.993Z</time>
      </trkpt>
      <trkpt lat="43.03604" lon="1.06857">
        <ele>354.8</ele>
        <time>2024-04-21T14:45:53.993Z</time>
      </trkpt>
      <trkpt lat="43.03601" lon="1.06864">
        <ele>355.2</ele>
        <time>2024-04-21T14:45:54.993Z</time>
      </trkpt>
      <trkpt lat="43.03599" lon="1.0687">
        <ele>354.8</ele>
        <time>2024-04-21T14:45:55.993Z</time>
      </trkpt>
      <trkpt lat="43.03596" lon="1.06875">
        <ele>354.8</ele>
        <time>2024-04-21T14:45:56.993Z</time>
      </trkpt>
      <trkpt lat="43.03593" lon="1.06882">
        <ele>354.4</ele>
        <time>2024-04-21T14:45:57.993Z</time>
      </trkpt>
      <trkpt lat="43.03591" lon="1.06888">
        <ele>354.8</ele>
        <time>2024-04-21T14:45:58.993Z</time>
      </trkpt>
      <trkpt lat="43.03588" lon="1.06894">
        <ele>354.8</ele>
        <time>2024-04-21T14:45:59.993Z</time>
      </trkpt>
      <trkpt lat="43.03586" lon="1.06899">
        <ele>354.8</ele>
        <time>2024-04-21T14:46:00.993Z</time>
      </trkpt>
      <trkpt lat="43.03583" lon="1.06905">
        <ele>355.2</ele>
        <time>2024-04-21T14:46:01.993Z</time>
      </trkpt>
      <trkpt lat="43.0358" lon="1.06911">
        <ele>355.2</ele>
        <time>2024-04-21T14:46:02.993Z</time>
      </trkpt>
      <trkpt lat="43.03577" lon="1.06916">
        <ele>355.2</ele>
        <time>2024-04-21T14:46:03.993Z</time>
      </trkpt>
      <trkpt lat="43.03575" lon="1.06923">
        <ele>355.4</ele>
        <time>2024-04-21T14:46:04.993Z</time>
      </trkpt>
      <trkpt lat="43.03573" lon="1.06929">
        <ele>355.4</ele>
        <time>2024-04-21T14:46:05.993Z</time>
      </trkpt>
      <trkpt lat="43.0357" lon="1.06935">
        <ele>355.4</ele>
        <time>2024-04-21T14:46:06.993Z</time>
      </trkpt>
      <trkpt lat="43.03568" lon="1.06941">
        <ele>355.4</ele>
        <time>2024-04-21T14:46:07.993Z</time>
      </trkpt>
      <trkpt lat="43.03566" lon="1.06948">
        <ele>355.4</ele>
        <time>2024-04-21T14:46:08.993Z</time>
      </trkpt>
      <trkpt lat="43.03563" lon="1.06954">
        <ele>355.4</ele>
        <time>2024-04-21T14:46:09.993Z</time>
      </trkpt>
      <trkpt lat="43.03561" lon="1.06959">
        <ele>355.4</ele>
        <time>2024-04-21T14:46:10.993Z</time>
      </trkpt>
      <trkpt lat="43.03558" lon="1.06966">
        <ele>355.4</ele>
        <time>2024-04-21T14:46:11.993Z</time>
      </trkpt>
      <trkpt lat="43.03556" lon="1.06972">
        <ele>355.4</ele>
        <time>2024-04-21T14:46:12.993Z</time>
      </trkpt>
      <trkpt lat="43.03553" lon="1.06978">
        <ele>355.4</ele>
        <time>2024-04-21T14:46:13.993Z</time>
      </trkpt>
      <trkpt lat="43.03551" lon="1.06985">
        <ele>355.4</ele>
        <time>2024-04-21T14:46:14.993Z</time>
      </trkpt>
      <trkpt lat="43.03548" lon="1.06992">
        <ele>355.4</ele>
        <time>2024-04-21T14:46:15.993Z</time>
      </trkpt>
      <trkpt lat="43.03547" lon="1.06999">
        <ele>355.4</ele>
        <time>2024-04-21T14:46:16.993Z</time>
      </trkpt>
      <trkpt lat="43.03544" lon="1.07004">
        <ele>355.4</ele>
        <time>2024-04-21T14:46:17.993Z</time>
      </trkpt>
      <trkpt lat="43.03542" lon="1.07011">
        <ele>355.4</ele>
        <time>2024-04-21T14:46:18.993Z</time>
      </trkpt>
      <trkpt lat="43.0354" lon="1.07017">
        <ele>355.2</ele>
        <time>2024-04-21T14:46:19.993Z</time>
      </trkpt>
      <trkpt lat="43.03537" lon="1.07024">
        <ele>355.2</ele>
        <time>2024-04-21T14:46:20.993Z</time>
      </trkpt>
      <trkpt lat="43.03535" lon="1.0703">
        <ele>355.2</ele>
        <time>2024-04-21T14:46:21.993Z</time>
      </trkpt>
      <trkpt lat="43.03533" lon="1.07036">
        <ele>355.2</ele>
        <time>2024-04-21T14:46:22.993Z</time>
      </trkpt>
      <trkpt lat="43.0353" lon="1.07043">
        <ele>355.2</ele>
        <time>2024-04-21T14:46:23.993Z</time>
      </trkpt>
      <trkpt lat="43.03528" lon="1.07049">
        <ele>355.2</ele>
        <time>2024-04-21T14:46:24.993Z</time>
      </trkpt>
      <trkpt lat="43.03526" lon="1.07056">
        <ele>355.2</ele>
        <time>2024-04-21T14:46:25.993Z</time>
      </trkpt>
      <trkpt lat="43.03524" lon="1.07062">
        <ele>355.6</ele>
        <time>2024-04-21T14:46:26.993Z</time>
      </trkpt>
      <trkpt lat="43.03522" lon="1.07069">
        <ele>355.6</ele>
        <time>2024-04-21T14:46:27.993Z</time>
      </trkpt>
      <trkpt lat="43.0352" lon="1.07075">
        <ele>355.6</ele>
        <time>2024-04-21T14:46:28.993Z</time>
      </trkpt>
      <trkpt lat="43.03519" lon="1.0708">
        <ele>355.6</ele>
        <time>2024-04-21T14:46:29.993Z</time>
      </trkpt>
      <trkpt lat="43.03517" lon="1.07086">
        <ele>355.6</ele>
        <time>2024-04-21T14:46:30.993Z</time>
      </trkpt>
      <trkpt lat="43.03514" lon="1.07093">
        <ele>355.6</ele>
        <time>2024-04-21T14:46:31.993Z</time>
      </trkpt>
      <trkpt lat="43.03512" lon="1.07098">
        <ele>355.6</ele>
        <time>2024-04-21T14:46:32.993Z</time>
      </trkpt>
      <trkpt lat="43.03511" lon="1.07104">
        <ele>355.6</ele>
        <time>2024-04-21T14:46:33.993Z</time>
      </trkpt>
      <trkpt lat="43.03509" lon="1.07111">
        <ele>355.4</ele>
        <time>2024-04-21T14:46:34.993Z</time>
      </trkpt>
      <trkpt lat="43.03507" lon="1.07117">
        <ele>355.4</ele>
        <time>2024-04-21T14:46:35.993Z</time>
      </trkpt>
      <trkpt lat="43.03505" lon="1.07123">
        <ele>355.4</ele>
        <time>2024-04-21T14:46:36.993Z</time>
      </trkpt>
      <trkpt lat="43.03503" lon="1.0713">
        <ele>355.4</ele>
        <time>2024-04-21T14:46:37.993Z</time>
      </trkpt>
      <trkpt lat="43.03501" lon="1.07136">
        <ele>355.4</ele>
        <time>2024-04-21T14:46:38.993Z</time>
      </trkpt>
      <trkpt lat="43.035" lon="1.07143">
        <ele>355.6</ele>
        <time>2024-04-21T14:46:39.993Z</time>
      </trkpt>
      <trkpt lat="43.03498" lon="1.07149">
        <ele>355.6</ele>
        <time>2024-04-21T14:46:40.993Z</time>
      </trkpt>
      <trkpt lat="43.03496" lon="1.07156">
        <ele>355.6</ele>
        <time>2024-04-21T14:46:41.993Z</time>
      </trkpt>
      <trkpt lat="43.03495" lon="1.07162">
        <ele>355.8</ele>
        <time>2024-04-21T14:46:42.993Z</time>
      </trkpt>
      <trkpt lat="43.03493" lon="1.07169">
        <ele>355.8</ele>
        <time>2024-04-21T14:46:43.993Z</time>
      </trkpt>
      <trkpt lat="43.03491" lon="1.07175">
        <ele>355.8</ele>
        <time>2024-04-21T14:46:44.993Z</time>
      </trkpt>
      <trkpt lat="43.03489" lon="1.07182">
        <ele>355.8</ele>
        <time>2024-04-21T14:46:45.993Z</time>
      </trkpt>
      <trkpt lat="43.03488" lon="1.07189">
        <ele>356.2</ele>
        <time>2024-04-21T14:46:46.993Z</time>
      </trkpt>
      <trkpt lat="43.03486" lon="1.07195">
        <ele>356.2</ele>
        <time>2024-04-21T14:46:47.993Z</time>
      </trkpt>
      <trkpt lat="43.03485" lon="1.07201">
        <ele>356.2</ele>
        <time>2024-04-21T14:46:48.993Z</time>
      </trkpt>
      <trkpt lat="43.03483" lon="1.07208">
        <ele>356</ele>
        <time>2024-04-21T14:46:49.993Z</time>
      </trkpt>
      <trkpt lat="43.03482" lon="1.07214">
        <ele>356</ele>
        <time>2024-04-21T14:46:50.993Z</time>
      </trkpt>
      <trkpt lat="43.0348" lon="1.0722">
        <ele>356</ele>
        <time>2024-04-21T14:46:51.993Z</time>
      </trkpt>
      <trkpt lat="43.03479" lon="1.07226">
        <ele>356</ele>
        <time>2024-04-21T14:46:52.993Z</time>
      </trkpt>
      <trkpt lat="43.03477" lon="1.07232">
        <ele>356</ele>
        <time>2024-04-21T14:46:53.993Z</time>
      </trkpt>
      <trkpt lat="43.03476" lon="1.07238">
        <ele>356</ele>
        <time>2024-04-21T14:46:54.993Z</time>
      </trkpt>
      <trkpt lat="43.03474" lon="1.07245">
        <ele>356</ele>
        <time>2024-04-21T14:46:55.993Z</time>
      </trkpt>
      <trkpt lat="43.03473" lon="1.07251">
        <ele>356.2</ele>
        <time>2024-04-21T14:46:56.993Z</time>
      </trkpt>
      <trkpt lat="43.03471" lon="1.07258">
        <ele>356.2</ele>
        <time>2024-04-21T14:46:57.993Z</time>
      </trkpt>
      <trkpt lat="43.03469" lon="1.07265">
        <ele>356.2</ele>
        <time>2024-04-21T14:46:58.993Z</time>
      </trkpt>
      <trkpt lat="43.03468" lon="1.07271">
        <ele>356.2</ele>
        <time>2024-04-21T14:46:59.993Z</time>
      </trkpt>
      <trkpt lat="43.03467" lon="1.07278">
        <ele>356.2</ele>
        <time>2024-04-21T14:47:00.993Z</time>
      </trkpt>
      <trkpt lat="43.03466" lon="1.07285">
        <ele>356.2</ele>
        <time>2024-04-21T14:47:01.993Z</time>
      </trkpt>
      <trkpt lat="43.03464" lon="1.07293">
        <ele>356.2</ele>
        <time>2024-04-21T14:47:02.993Z</time>
      </trkpt>
      <trkpt lat="43.03462" lon="1.07299">
        <ele>356.2</ele>
        <time>2024-04-21T14:47:03.993Z</time>
      </trkpt>
      <trkpt lat="43.03461" lon="1.07305">
        <ele>356.2</ele>
        <time>2024-04-21T14:47:04.993Z</time>
      </trkpt>
      <trkpt lat="43.03459" lon="1.07312">
        <ele>356.2</ele>
        <time>2024-04-21T14:47:05.993Z</time>
      </trkpt>
      <trkpt lat="43.03458" lon="1.07319">
        <ele>356.2</ele>
        <time>2024-04-21T14:47:06.993Z</time>
      </trkpt>
      <trkpt lat="43.03456" lon="1.07326">
        <ele>356.4</ele>
        <time>2024-04-21T14:47:07.993Z</time>
      </trkpt>
      <trkpt lat="43.03455" lon="1.07333">
        <ele>356.4</ele>
        <time>2024-04-21T14:47:08.993Z</time>
      </trkpt>
      <trkpt lat="43.03453" lon="1.0734">
        <ele>356.4</ele>
        <time>2024-04-21T14:47:09.993Z</time>
      </trkpt>
      <trkpt lat="43.03452" lon="1.07347">
        <ele>356.4</ele>
        <time>2024-04-21T14:47:10.993Z</time>
      </trkpt>
      <trkpt lat="43.03451" lon="1.07354">
        <ele>356.4</ele>
        <time>2024-04-21T14:47:11.993Z</time>
      </trkpt>
      <trkpt lat="43.03449" lon="1.07361">
        <ele>356.6</ele>
        <time>2024-04-21T14:47:12.993Z</time>
      </trkpt>
      <trkpt lat="43.03447" lon="1.07367">
        <ele>356.6</ele>
        <time>2024-04-21T14:47:13.993Z</time>
      </trkpt>
      <trkpt lat="43.03447" lon="1.07367">
        <ele>356.6</ele>
        <time>2024-04-21T14:47:14.993Z</time>
      </trkpt>
      <trkpt lat="43.03445" lon="1.07374">
        <ele>356.6</ele>
        <time>2024-04-21T14:47:15.993Z</time>
      </trkpt>
      <trkpt lat="43.03443" lon="1.07381">
        <ele>356.6</ele>
        <time>2024-04-21T14:47:16.993Z</time>
      </trkpt>
      <trkpt lat="43.03442" lon="1.07388">
        <ele>356.4</ele>
        <time>2024-04-21T14:47:17.993Z</time>
      </trkpt>
      <trkpt lat="43.0344" lon="1.07395">
        <ele>356.4</ele>
        <time>2024-04-21T14:47:18.993Z</time>
      </trkpt>
      <trkpt lat="43.03439" lon="1.07402">
        <ele>356.8</ele>
        <time>2024-04-21T14:47:19.993Z</time>
      </trkpt>
      <trkpt lat="43.03438" lon="1.07408">
        <ele>356.8</ele>
        <time>2024-04-21T14:47:20.993Z</time>
      </trkpt>
      <trkpt lat="43.03437" lon="1.07414">
        <ele>356.8</ele>
        <time>2024-04-21T14:47:21.993Z</time>
      </trkpt>
      <trkpt lat="43.03436" lon="1.0742">
        <ele>356.8</ele>
        <time>2024-04-21T14:47:22.993Z</time>
      </trkpt>
      <trkpt lat="43.03434" lon="1.07426">
        <ele>356.4</ele>
        <time>2024-04-21T14:47:23.993Z</time>
      </trkpt>
      <trkpt lat="43.03432" lon="1.07431">
        <ele>356.4</ele>
        <time>2024-04-21T14:47:24.993Z</time>
      </trkpt>
      <trkpt lat="43.03431" lon="1.07438">
        <ele>356.4</ele>
        <time>2024-04-21T14:47:25.993Z</time>
      </trkpt>
      <trkpt lat="43.03429" lon="1.07444">
        <ele>356.4</ele>
        <time>2024-04-21T14:47:26.993Z</time>
      </trkpt>
      <trkpt lat="43.03427" lon="1.0745">
        <ele>356.6</ele>
        <time>2024-04-21T14:47:27.993Z</time>
      </trkpt>
      <trkpt lat="43.03425" lon="1.07457">
        <ele>356.6</ele>
        <time>2024-04-21T14:47:28.993Z</time>
      </trkpt>
      <trkpt lat="43.03424" lon="1.07464">
        <ele>356.6</ele>
        <time>2024-04-21T14:47:29.993Z</time>
      </trkpt>
      <trkpt lat="43.03421" lon="1.0747">
        <ele>356.6</ele>
        <time>2024-04-21T14:47:30.993Z</time>
      </trkpt>
      <trkpt lat="43.03419" lon="1.07477">
        <ele>356.8</ele>
        <time>2024-04-21T14:47:31.993Z</time>
      </trkpt>
      <trkpt lat="43.03418" lon="1.07484">
        <ele>356.8</ele>
        <time>2024-04-21T14:47:32.993Z</time>
      </trkpt>
      <trkpt lat="43.03416" lon="1.07491">
        <ele>357.2</ele>
        <time>2024-04-21T14:47:33.993Z</time>
      </trkpt>
      <trkpt lat="43.03414" lon="1.07498">
        <ele>356.6</ele>
        <time>2024-04-21T14:47:34.993Z</time>
      </trkpt>
      <trkpt lat="43.03413" lon="1.07504">
        <ele>356.6</ele>
        <time>2024-04-21T14:47:35.993Z</time>
      </trkpt>
      <trkpt lat="43.03411" lon="1.07511">
        <ele>356.8</ele>
        <time>2024-04-21T14:47:36.993Z</time>
      </trkpt>
      <trkpt lat="43.03409" lon="1.07517">
        <ele>356.8</ele>
        <time>2024-04-21T14:47:37.993Z</time>
      </trkpt>
      <trkpt lat="43.03407" lon="1.07525">
        <ele>357.2</ele>
        <time>2024-04-21T14:47:38.993Z</time>
      </trkpt>
      <trkpt lat="43.03405" lon="1.07531">
        <ele>357.2</ele>
        <time>2024-04-21T14:47:39.993Z</time>
      </trkpt>
      <trkpt lat="43.03404" lon="1.07537">
        <ele>357.2</ele>
        <time>2024-04-21T14:47:40.993Z</time>
      </trkpt>
      <trkpt lat="43.03402" lon="1.07544">
        <ele>357.2</ele>
        <time>2024-04-21T14:47:41.993Z</time>
      </trkpt>
      <trkpt lat="43.034" lon="1.07549">
        <ele>356.6</ele>
        <time>2024-04-21T14:47:42.993Z</time>
      </trkpt>
      <trkpt lat="43.03398" lon="1.07556">
        <ele>357.2</ele>
        <time>2024-04-21T14:47:43.993Z</time>
      </trkpt>
      <trkpt lat="43.03397" lon="1.07562">
        <ele>357</ele>
        <time>2024-04-21T14:47:44.993Z</time>
      </trkpt>
      <trkpt lat="43.03395" lon="1.07569">
        <ele>357</ele>
        <time>2024-04-21T14:47:45.993Z</time>
      </trkpt>
      <trkpt lat="43.03394" lon="1.07575">
        <ele>357</ele>
        <time>2024-04-21T14:47:46.993Z</time>
      </trkpt>
      <trkpt lat="43.03391" lon="1.07588">
        <ele>357.2</ele>
        <time>2024-04-21T14:47:47.993Z</time>
      </trkpt>
      <trkpt lat="43.03389" lon="1.07594">
        <ele>357.2</ele>
        <time>2024-04-21T14:47:48.993Z</time>
      </trkpt>
      <trkpt lat="43.03388" lon="1.07601">
        <ele>357.2</ele>
        <time>2024-04-21T14:47:49.993Z</time>
      </trkpt>
      <trkpt lat="43.03386" lon="1.07607">
        <ele>357.2</ele>
        <time>2024-04-21T14:47:50.993Z</time>
      </trkpt>
      <trkpt lat="43.03384" lon="1.07614">
        <ele>357.2</ele>
        <time>2024-04-21T14:47:51.993Z</time>
      </trkpt>
      <trkpt lat="43.03383" lon="1.07621">
        <ele>357.2</ele>
        <time>2024-04-21T14:47:52.993Z</time>
      </trkpt>
      <trkpt lat="43.03381" lon="1.07627">
        <ele>357.2</ele>
        <time>2024-04-21T14:47:53.993Z</time>
      </trkpt>
      <trkpt lat="43.03379" lon="1.07634">
        <ele>357.6</ele>
        <time>2024-04-21T14:47:54.993Z</time>
      </trkpt>
      <trkpt lat="43.03378" lon="1.07641">
        <ele>357</ele>
        <time>2024-04-21T14:47:55.993Z</time>
      </trkpt>
      <trkpt lat="43.03376" lon="1.07647">
        <ele>357.2</ele>
        <time>2024-04-21T14:47:56.993Z</time>
      </trkpt>
      <trkpt lat="43.03375" lon="1.07654">
        <ele>356.8</ele>
        <time>2024-04-21T14:47:57.993Z</time>
      </trkpt>
      <trkpt lat="43.03373" lon="1.0766">
        <ele>356.8</ele>
        <time>2024-04-21T14:47:58.993Z</time>
      </trkpt>
      <trkpt lat="43.03371" lon="1.07667">
        <ele>356.6</ele>
        <time>2024-04-21T14:47:59.993Z</time>
      </trkpt>
      <trkpt lat="43.0337" lon="1.07674">
        <ele>356.6</ele>
        <time>2024-04-21T14:48:00.993Z</time>
      </trkpt>
      <trkpt lat="43.03369" lon="1.07681">
        <ele>356.8</ele>
        <time>2024-04-21T14:48:01.993Z</time>
      </trkpt>
      <trkpt lat="43.03367" lon="1.07688">
        <ele>356.8</ele>
        <time>2024-04-21T14:48:02.993Z</time>
      </trkpt>
      <trkpt lat="43.03365" lon="1.07694">
        <ele>356.8</ele>
        <time>2024-04-21T14:48:03.993Z</time>
      </trkpt>
      <trkpt lat="43.03364" lon="1.07701">
        <ele>356.8</ele>
        <time>2024-04-21T14:48:04.993Z</time>
      </trkpt>
      <trkpt lat="43.03361" lon="1.07708">
        <ele>356.8</ele>
        <time>2024-04-21T14:48:05.993Z</time>
      </trkpt>
      <trkpt lat="43.0336" lon="1.07715">
        <ele>356.8</ele>
        <time>2024-04-21T14:48:06.993Z</time>
      </trkpt>
      <trkpt lat="43.03358" lon="1.07722">
        <ele>356.8</ele>
        <time>2024-04-21T14:48:07.993Z</time>
      </trkpt>
      <trkpt lat="43.03356" lon="1.07729">
        <ele>357.2</ele>
        <time>2024-04-21T14:48:08.993Z</time>
      </trkpt>
      <trkpt lat="43.03354" lon="1.07736">
        <ele>357.2</ele>
        <time>2024-04-21T14:48:09.993Z</time>
      </trkpt>
      <trkpt lat="43.03351" lon="1.07742">
        <ele>357.8</ele>
        <time>2024-04-21T14:48:10.993Z</time>
      </trkpt>
      <trkpt lat="43.0335" lon="1.07749">
        <ele>357.4</ele>
        <time>2024-04-21T14:48:11.993Z</time>
      </trkpt>
      <trkpt lat="43.03349" lon="1.07755">
        <ele>358</ele>
        <time>2024-04-21T14:48:12.993Z</time>
      </trkpt>
      <trkpt lat="43.03347" lon="1.07763">
        <ele>358</ele>
        <time>2024-04-21T14:48:13.993Z</time>
      </trkpt>
      <trkpt lat="43.03346" lon="1.07769">
        <ele>358</ele>
        <time>2024-04-21T14:48:14.993Z</time>
      </trkpt>
      <trkpt lat="43.03344" lon="1.07776">
        <ele>357.6</ele>
        <time>2024-04-21T14:48:15.993Z</time>
      </trkpt>
      <trkpt lat="43.03342" lon="1.07783">
        <ele>357.6</ele>
        <time>2024-04-21T14:48:16.993Z</time>
      </trkpt>
      <trkpt lat="43.03341" lon="1.0779">
        <ele>357.6</ele>
        <time>2024-04-21T14:48:17.993Z</time>
      </trkpt>
      <trkpt lat="43.03339" lon="1.07796">
        <ele>358</ele>
        <time>2024-04-21T14:48:18.993Z</time>
      </trkpt>
      <trkpt lat="43.03337" lon="1.07803">
        <ele>358</ele>
        <time>2024-04-21T14:48:19.993Z</time>
      </trkpt>
      <trkpt lat="43.03335" lon="1.0781">
        <ele>358.2</ele>
        <time>2024-04-21T14:48:20.993Z</time>
      </trkpt>
      <trkpt lat="43.03333" lon="1.07816">
        <ele>358.2</ele>
        <time>2024-04-21T14:48:21.993Z</time>
      </trkpt>
      <trkpt lat="43.03332" lon="1.07823">
        <ele>357.6</ele>
        <time>2024-04-21T14:48:22.993Z</time>
      </trkpt>
      <trkpt lat="43.0333" lon="1.0783">
        <ele>357.6</ele>
        <time>2024-04-21T14:48:23.993Z</time>
      </trkpt>
      <trkpt lat="43.03329" lon="1.07836">
        <ele>357.6</ele>
        <time>2024-04-21T14:48:24.993Z</time>
      </trkpt>
      <trkpt lat="43.03327" lon="1.07842">
        <ele>357.6</ele>
        <time>2024-04-21T14:48:25.993Z</time>
      </trkpt>
      <trkpt lat="43.03325" lon="1.07849">
        <ele>358</ele>
        <time>2024-04-21T14:48:26.993Z</time>
      </trkpt>
      <trkpt lat="43.03324" lon="1.07855">
        <ele>358.4</ele>
        <time>2024-04-21T14:48:27.993Z</time>
      </trkpt>
      <trkpt lat="43.03323" lon="1.07862">
        <ele>357.8</ele>
        <time>2024-04-21T14:48:28.993Z</time>
      </trkpt>
      <trkpt lat="43.03321" lon="1.07868">
        <ele>357.8</ele>
        <time>2024-04-21T14:48:29.993Z</time>
      </trkpt>
      <trkpt lat="43.03319" lon="1.07875">
        <ele>357.8</ele>
        <time>2024-04-21T14:48:30.993Z</time>
      </trkpt>
      <trkpt lat="43.03317" lon="1.07881">
        <ele>357.8</ele>
        <time>2024-04-21T14:48:31.993Z</time>
      </trkpt>
      <trkpt lat="43.03316" lon="1.07887">
        <ele>358.2</ele>
        <time>2024-04-21T14:48:32.993Z</time>
      </trkpt>
      <trkpt lat="43.03314" lon="1.07893">
        <ele>358.6</ele>
        <time>2024-04-21T14:48:33.993Z</time>
      </trkpt>
      <trkpt lat="43.03312" lon="1.079">
        <ele>358.8</ele>
        <time>2024-04-21T14:48:34.993Z</time>
      </trkpt>
      <trkpt lat="43.03311" lon="1.07907">
        <ele>358.8</ele>
        <time>2024-04-21T14:48:35.993Z</time>
      </trkpt>
      <trkpt lat="43.0331" lon="1.07913">
        <ele>358.8</ele>
        <time>2024-04-21T14:48:36.993Z</time>
      </trkpt>
      <trkpt lat="43.03307" lon="1.0792">
        <ele>358.8</ele>
        <time>2024-04-21T14:48:37.993Z</time>
      </trkpt>
      <trkpt lat="43.03306" lon="1.07927">
        <ele>358.4</ele>
        <time>2024-04-21T14:48:38.993Z</time>
      </trkpt>
      <trkpt lat="43.03304" lon="1.07933">
        <ele>358.4</ele>
        <time>2024-04-21T14:48:39.993Z</time>
      </trkpt>
      <trkpt lat="43.03302" lon="1.0794">
        <ele>358.4</ele>
        <time>2024-04-21T14:48:40.993Z</time>
      </trkpt>
      <trkpt lat="43.03301" lon="1.07946">
        <ele>358.8</ele>
        <time>2024-04-21T14:48:41.993Z</time>
      </trkpt>
      <trkpt lat="43.03299" lon="1.07953">
        <ele>358.6</ele>
        <time>2024-04-21T14:48:42.993Z</time>
      </trkpt>
      <trkpt lat="43.03298" lon="1.0796">
        <ele>358.2</ele>
        <time>2024-04-21T14:48:43.993Z</time>
      </trkpt>
      <trkpt lat="43.03297" lon="1.07966">
        <ele>358</ele>
        <time>2024-04-21T14:48:44.993Z</time>
      </trkpt>
      <trkpt lat="43.03295" lon="1.07972">
        <ele>357.6</ele>
        <time>2024-04-21T14:48:45.993Z</time>
      </trkpt>
      <trkpt lat="43.03293" lon="1.07979">
        <ele>358.2</ele>
        <time>2024-04-21T14:48:46.993Z</time>
      </trkpt>
      <trkpt lat="43.03292" lon="1.07985">
        <ele>358.2</ele>
        <time>2024-04-21T14:48:47.993Z</time>
      </trkpt>
      <trkpt lat="43.0329" lon="1.07991">
        <ele>358.2</ele>
        <time>2024-04-21T14:48:48.993Z</time>
      </trkpt>
      <trkpt lat="43.03289" lon="1.07998">
        <ele>358.6</ele>
        <time>2024-04-21T14:48:49.993Z</time>
      </trkpt>
      <trkpt lat="43.03287" lon="1.08004">
        <ele>358.6</ele>
        <time>2024-04-21T14:48:50.993Z</time>
      </trkpt>
      <trkpt lat="43.03285" lon="1.08009">
        <ele>358.8</ele>
        <time>2024-04-21T14:48:51.993Z</time>
      </trkpt>
      <trkpt lat="43.03283" lon="1.08015">
        <ele>358.4</ele>
        <time>2024-04-21T14:48:52.993Z</time>
      </trkpt>
      <trkpt lat="43.03282" lon="1.08022">
        <ele>358.2</ele>
        <time>2024-04-21T14:48:53.993Z</time>
      </trkpt>
      <trkpt lat="43.03279" lon="1.08028">
        <ele>358.2</ele>
        <time>2024-04-21T14:48:54.993Z</time>
      </trkpt>
      <trkpt lat="43.03277" lon="1.08035">
        <ele>358.2</ele>
        <time>2024-04-21T14:48:55.993Z</time>
      </trkpt>
      <trkpt lat="43.03276" lon="1.08041">
        <ele>358.4</ele>
        <time>2024-04-21T14:48:56.993Z</time>
      </trkpt>
      <trkpt lat="43.03274" lon="1.08047">
        <ele>358.4</ele>
        <time>2024-04-21T14:48:57.993Z</time>
      </trkpt>
      <trkpt lat="43.03272" lon="1.08054">
        <ele>358.6</ele>
        <time>2024-04-21T14:48:58.993Z</time>
      </trkpt>
      <trkpt lat="43.0327" lon="1.0806">
        <ele>358.4</ele>
        <time>2024-04-21T14:48:59.993Z</time>
      </trkpt>
      <trkpt lat="43.03268" lon="1.08067">
        <ele>358.4</ele>
        <time>2024-04-21T14:49:00.993Z</time>
      </trkpt>
      <trkpt lat="43.03267" lon="1.08073">
        <ele>358.2</ele>
        <time>2024-04-21T14:49:01.993Z</time>
      </trkpt>
      <trkpt lat="43.03265" lon="1.08079">
        <ele>357.8</ele>
        <time>2024-04-21T14:49:02.993Z</time>
      </trkpt>
      <trkpt lat="43.03263" lon="1.08085">
        <ele>358.2</ele>
        <time>2024-04-21T14:49:03.993Z</time>
      </trkpt>
      <trkpt lat="43.03262" lon="1.08091">
        <ele>359</ele>
        <time>2024-04-21T14:49:04.993Z</time>
      </trkpt>
      <trkpt lat="43.03259" lon="1.08097">
        <ele>358.6</ele>
        <time>2024-04-21T14:49:05.993Z</time>
      </trkpt>
      <trkpt lat="43.03257" lon="1.08103">
        <ele>358</ele>
        <time>2024-04-21T14:49:06.993Z</time>
      </trkpt>
      <trkpt lat="43.03255" lon="1.08109">
        <ele>358</ele>
        <time>2024-04-21T14:49:07.993Z</time>
      </trkpt>
      <trkpt lat="43.03253" lon="1.08116">
        <ele>358</ele>
        <time>2024-04-21T14:49:08.993Z</time>
      </trkpt>
      <trkpt lat="43.03251" lon="1.08122">
        <ele>358</ele>
        <time>2024-04-21T14:49:09.993Z</time>
      </trkpt>
      <trkpt lat="43.03249" lon="1.08128">
        <ele>358.4</ele>
        <time>2024-04-21T14:49:10.993Z</time>
      </trkpt>
      <trkpt lat="43.03246" lon="1.08134">
        <ele>358.4</ele>
        <time>2024-04-21T14:49:11.993Z</time>
      </trkpt>
      <trkpt lat="43.03244" lon="1.0814">
        <ele>358.4</ele>
        <time>2024-04-21T14:49:12.993Z</time>
      </trkpt>
      <trkpt lat="43.03241" lon="1.08146">
        <ele>358.4</ele>
        <time>2024-04-21T14:49:13.993Z</time>
      </trkpt>
      <trkpt lat="43.03239" lon="1.08151">
        <ele>359</ele>
        <time>2024-04-21T14:49:14.993Z</time>
      </trkpt>
      <trkpt lat="43.03237" lon="1.08157">
        <ele>359.6</ele>
        <time>2024-04-21T14:49:15.993Z</time>
      </trkpt>
      <trkpt lat="43.03234" lon="1.08163">
        <ele>359</ele>
        <time>2024-04-21T14:49:16.993Z</time>
      </trkpt>
      <trkpt lat="43.03231" lon="1.08169">
        <ele>358.6</ele>
        <time>2024-04-21T14:49:17.993Z</time>
      </trkpt>
      <trkpt lat="43.03229" lon="1.08175">
        <ele>358.6</ele>
        <time>2024-04-21T14:49:18.993Z</time>
      </trkpt>
      <trkpt lat="43.03226" lon="1.08181">
        <ele>359.4</ele>
        <time>2024-04-21T14:49:19.993Z</time>
      </trkpt>
      <trkpt lat="43.03224" lon="1.08187">
        <ele>359.6</ele>
        <time>2024-04-21T14:49:20.993Z</time>
      </trkpt>
      <trkpt lat="43.03221" lon="1.08192">
        <ele>359.6</ele>
        <time>2024-04-21T14:49:21.993Z</time>
      </trkpt>
      <trkpt lat="43.03218" lon="1.08198">
        <ele>359.6</ele>
        <time>2024-04-21T14:49:22.993Z</time>
      </trkpt>
      <trkpt lat="43.03216" lon="1.08205">
        <ele>359.4</ele>
        <time>2024-04-21T14:49:23.993Z</time>
      </trkpt>
      <trkpt lat="43.03214" lon="1.08211">
        <ele>359.4</ele>
        <time>2024-04-21T14:49:24.993Z</time>
      </trkpt>
      <trkpt lat="43.03211" lon="1.08216">
        <ele>359.4</ele>
        <time>2024-04-21T14:49:25.993Z</time>
      </trkpt>
      <trkpt lat="43.03208" lon="1.08222">
        <ele>359.4</ele>
        <time>2024-04-21T14:49:26.993Z</time>
      </trkpt>
      <trkpt lat="43.03206" lon="1.08228">
        <ele>359.4</ele>
        <time>2024-04-21T14:49:27.993Z</time>
      </trkpt>
      <trkpt lat="43.03203" lon="1.08233">
        <ele>359.4</ele>
        <time>2024-04-21T14:49:28.993Z</time>
      </trkpt>
      <trkpt lat="43.03199" lon="1.08239">
        <ele>359.4</ele>
        <time>2024-04-21T14:49:29.993Z</time>
      </trkpt>
      <trkpt lat="43.03197" lon="1.08245">
        <ele>359.4</ele>
        <time>2024-04-21T14:49:30.993Z</time>
      </trkpt>
      <trkpt lat="43.03194" lon="1.08251">
        <ele>359.8</ele>
        <time>2024-04-21T14:49:31.993Z</time>
      </trkpt>
      <trkpt lat="43.0319" lon="1.08256">
        <ele>359.8</ele>
        <time>2024-04-21T14:49:32.993Z</time>
      </trkpt>
      <trkpt lat="43.03187" lon="1.08261">
        <ele>359.8</ele>
        <time>2024-04-21T14:49:33.993Z</time>
      </trkpt>
      <trkpt lat="43.03184" lon="1.08266">
        <ele>359.8</ele>
        <time>2024-04-21T14:49:34.993Z</time>
      </trkpt>
      <trkpt lat="43.03182" lon="1.08271">
        <ele>359.6</ele>
        <time>2024-04-21T14:49:35.993Z</time>
      </trkpt>
      <trkpt lat="43.03179" lon="1.08275">
        <ele>359.6</ele>
        <time>2024-04-21T14:49:36.993Z</time>
      </trkpt>
      <trkpt lat="43.03177" lon="1.08281">
        <ele>359.6</ele>
        <time>2024-04-21T14:49:37.993Z</time>
      </trkpt>
      <trkpt lat="43.03174" lon="1.08286">
        <ele>359.6</ele>
        <time>2024-04-21T14:49:38.993Z</time>
      </trkpt>
      <trkpt lat="43.03171" lon="1.08291">
        <ele>359.8</ele>
        <time>2024-04-21T14:49:39.993Z</time>
      </trkpt>
      <trkpt lat="43.03169" lon="1.08296">
        <ele>359.4</ele>
        <time>2024-04-21T14:49:40.993Z</time>
      </trkpt>
      <trkpt lat="43.03167" lon="1.083">
        <ele>359.4</ele>
        <time>2024-04-21T14:49:41.993Z</time>
      </trkpt>
      <trkpt lat="43.03164" lon="1.08304">
        <ele>359.4</ele>
        <time>2024-04-21T14:49:42.993Z</time>
      </trkpt>
      <trkpt lat="43.03162" lon="1.08307">
        <ele>359.4</ele>
        <time>2024-04-21T14:49:43.993Z</time>
      </trkpt>
      <trkpt lat="43.0316" lon="1.08311">
        <ele>359.4</ele>
        <time>2024-04-21T14:49:44.993Z</time>
      </trkpt>
      <trkpt lat="43.03158" lon="1.08314">
        <ele>359.4</ele>
        <time>2024-04-21T14:49:45.993Z</time>
      </trkpt>
      <trkpt lat="43.03157" lon="1.08318">
        <ele>359.4</ele>
        <time>2024-04-21T14:49:46.993Z</time>
      </trkpt>
      <trkpt lat="43.03155" lon="1.0832">
        <ele>359.4</ele>
        <time>2024-04-21T14:49:47.993Z</time>
      </trkpt>
      <trkpt lat="43.03155" lon="1.08323">
        <ele>359.6</ele>
        <time>2024-04-21T14:49:48.993Z</time>
      </trkpt>
      <trkpt lat="43.03154" lon="1.08325">
        <ele>359.6</ele>
        <time>2024-04-21T14:49:49.993Z</time>
      </trkpt>
      <trkpt lat="43.03153" lon="1.08327">
        <ele>359.6</ele>
        <time>2024-04-21T14:49:50.993Z</time>
      </trkpt>
      <trkpt lat="43.03152" lon="1.0833">
        <ele>359.8</ele>
        <time>2024-04-21T14:49:51.993Z</time>
      </trkpt>
      <trkpt lat="43.03149" lon="1.08333">
        <ele>359.8</ele>
        <time>2024-04-21T14:49:52.993Z</time>
      </trkpt>
      <trkpt lat="43.03147" lon="1.08337">
        <ele>359.8</ele>
        <time>2024-04-21T14:49:53.993Z</time>
      </trkpt>
      <trkpt lat="43.03145" lon="1.08342">
        <ele>359.8</ele>
        <time>2024-04-21T14:49:54.993Z</time>
      </trkpt>
      <trkpt lat="43.03142" lon="1.08345">
        <ele>359.8</ele>
        <time>2024-04-21T14:49:55.993Z</time>
      </trkpt>
      <trkpt lat="43.0314" lon="1.08349">
        <ele>359.8</ele>
        <time>2024-04-21T14:49:56.993Z</time>
      </trkpt>
      <trkpt lat="43.03137" lon="1.08354">
        <ele>359.8</ele>
        <time>2024-04-21T14:49:57.993Z</time>
      </trkpt>
      <trkpt lat="43.03135" lon="1.08358">
        <ele>359.8</ele>
        <time>2024-04-21T14:49:58.993Z</time>
      </trkpt>
      <trkpt lat="43.03132" lon="1.08362">
        <ele>359.8</ele>
        <time>2024-04-21T14:49:59.993Z</time>
      </trkpt>
      <trkpt lat="43.03129" lon="1.08367">
        <ele>359.8</ele>
        <time>2024-04-21T14:50:00.993Z</time>
      </trkpt>
      <trkpt lat="43.03127" lon="1.08372">
        <ele>359.8</ele>
        <time>2024-04-21T14:50:01.993Z</time>
      </trkpt>
      <trkpt lat="43.03124" lon="1.08377">
        <ele>359.8</ele>
        <time>2024-04-21T14:50:02.993Z</time>
      </trkpt>
      <trkpt lat="43.03121" lon="1.08382">
        <ele>359.8</ele>
        <time>2024-04-21T14:50:03.993Z</time>
      </trkpt>
      <trkpt lat="43.03118" lon="1.08387">
        <ele>359.8</ele>
        <time>2024-04-21T14:50:04.993Z</time>
      </trkpt>
      <trkpt lat="43.03115" lon="1.08392">
        <ele>359.8</ele>
        <time>2024-04-21T14:50:05.993Z</time>
      </trkpt>
      <trkpt lat="43.03112" lon="1.08397">
        <ele>360</ele>
        <time>2024-04-21T14:50:06.993Z</time>
      </trkpt>
      <trkpt lat="43.03109" lon="1.08402">
        <ele>360</ele>
        <time>2024-04-21T14:50:07.993Z</time>
      </trkpt>
      <trkpt lat="43.03106" lon="1.08407">
        <ele>360.4</ele>
        <time>2024-04-21T14:50:08.993Z</time>
      </trkpt>
      <trkpt lat="43.03103" lon="1.08412">
        <ele>360.2</ele>
        <time>2024-04-21T14:50:09.993Z</time>
      </trkpt>
      <trkpt lat="43.031" lon="1.08417">
        <ele>360.2</ele>
        <time>2024-04-21T14:50:10.993Z</time>
      </trkpt>
      <trkpt lat="43.03097" lon="1.08422">
        <ele>360.2</ele>
        <time>2024-04-21T14:50:11.993Z</time>
      </trkpt>
      <trkpt lat="43.03093" lon="1.08427">
        <ele>360.2</ele>
        <time>2024-04-21T14:50:12.993Z</time>
      </trkpt>
      <trkpt lat="43.03091" lon="1.08432">
        <ele>360.2</ele>
        <time>2024-04-21T14:50:13.993Z</time>
      </trkpt>
      <trkpt lat="43.03087" lon="1.08437">
        <ele>360.2</ele>
        <time>2024-04-21T14:50:14.993Z</time>
      </trkpt>
      <trkpt lat="43.03084" lon="1.08443">
        <ele>359.8</ele>
        <time>2024-04-21T14:50:15.993Z</time>
      </trkpt>
      <trkpt lat="43.03081" lon="1.08448">
        <ele>359.8</ele>
        <time>2024-04-21T14:50:16.993Z</time>
      </trkpt>
      <trkpt lat="43.03078" lon="1.08454">
        <ele>359.8</ele>
        <time>2024-04-21T14:50:17.993Z</time>
      </trkpt>
      <trkpt lat="43.03075" lon="1.08459">
        <ele>360.2</ele>
        <time>2024-04-21T14:50:18.993Z</time>
      </trkpt>
      <trkpt lat="43.03072" lon="1.08464">
        <ele>360.2</ele>
        <time>2024-04-21T14:50:19.993Z</time>
      </trkpt>
      <trkpt lat="43.03069" lon="1.08469">
        <ele>360.2</ele>
        <time>2024-04-21T14:50:20.993Z</time>
      </trkpt>
      <trkpt lat="43.03067" lon="1.08474">
        <ele>360.2</ele>
        <time>2024-04-21T14:50:21.993Z</time>
      </trkpt>
      <trkpt lat="43.03064" lon="1.08479">
        <ele>360.2</ele>
        <time>2024-04-21T14:50:22.993Z</time>
      </trkpt>
      <trkpt lat="43.03061" lon="1.08485">
        <ele>360.4</ele>
        <time>2024-04-21T14:50:23.993Z</time>
      </trkpt>
      <trkpt lat="43.03057" lon="1.0849">
        <ele>360</ele>
        <time>2024-04-21T14:50:24.993Z</time>
      </trkpt>
      <trkpt lat="43.03054" lon="1.08495">
        <ele>360</ele>
        <time>2024-04-21T14:50:25.993Z</time>
      </trkpt>
      <trkpt lat="43.03051" lon="1.08501">
        <ele>360</ele>
        <time>2024-04-21T14:50:26.993Z</time>
      </trkpt>
      <trkpt lat="43.03048" lon="1.08505">
        <ele>360</ele>
        <time>2024-04-21T14:50:27.993Z</time>
      </trkpt>
      <trkpt lat="43.03045" lon="1.08509">
        <ele>360.4</ele>
        <time>2024-04-21T14:50:28.993Z</time>
      </trkpt>
      <trkpt lat="43.03043" lon="1.08512">
        <ele>360.4</ele>
        <time>2024-04-21T14:50:29.993Z</time>
      </trkpt>
      <trkpt lat="43.03042" lon="1.08514">
        <ele>360.4</ele>
        <time>2024-04-21T14:50:30.993Z</time>
      </trkpt>
      <trkpt lat="43.0304" lon="1.08516">
        <ele>360.6</ele>
        <time>2024-04-21T14:50:31.993Z</time>
      </trkpt>
      <trkpt lat="43.0304" lon="1.08518">
        <ele>360.6</ele>
        <time>2024-04-21T14:50:32.993Z</time>
      </trkpt>
      <trkpt lat="43.03039" lon="1.08521">
        <ele>360.6</ele>
        <time>2024-04-21T14:50:33.993Z</time>
      </trkpt>
      <trkpt lat="43.03037" lon="1.08524">
        <ele>360.6</ele>
        <time>2024-04-21T14:50:34.993Z</time>
      </trkpt>
      <trkpt lat="43.03036" lon="1.08528">
        <ele>360.6</ele>
        <time>2024-04-21T14:50:35.993Z</time>
      </trkpt>
      <trkpt lat="43.03034" lon="1.08532">
        <ele>361</ele>
        <time>2024-04-21T14:50:36.993Z</time>
      </trkpt>
      <trkpt lat="43.03031" lon="1.08535">
        <ele>361</ele>
        <time>2024-04-21T14:50:37.993Z</time>
      </trkpt>
      <trkpt lat="43.03029" lon="1.08539">
        <ele>361</ele>
        <time>2024-04-21T14:50:38.993Z</time>
      </trkpt>
      <trkpt lat="43.03026" lon="1.08545">
        <ele>360.8</ele>
        <time>2024-04-21T14:50:39.993Z</time>
      </trkpt>
      <trkpt lat="43.03023" lon="1.0855">
        <ele>360.6</ele>
        <time>2024-04-21T14:50:40.993Z</time>
      </trkpt>
      <trkpt lat="43.0302" lon="1.08554">
        <ele>360.6</ele>
        <time>2024-04-21T14:50:41.993Z</time>
      </trkpt>
      <trkpt lat="43.03016" lon="1.08559">
        <ele>360.4</ele>
        <time>2024-04-21T14:50:42.993Z</time>
      </trkpt>
      <trkpt lat="43.03014" lon="1.08564">
        <ele>360.4</ele>
        <time>2024-04-21T14:50:43.993Z</time>
      </trkpt>
      <trkpt lat="43.03011" lon="1.08569">
        <ele>360.6</ele>
        <time>2024-04-21T14:50:44.993Z</time>
      </trkpt>
      <trkpt lat="43.03008" lon="1.08574">
        <ele>360.6</ele>
        <time>2024-04-21T14:50:45.993Z</time>
      </trkpt>
      <trkpt lat="43.03004" lon="1.08579">
        <ele>360.4</ele>
        <time>2024-04-21T14:50:46.993Z</time>
      </trkpt>
      <trkpt lat="43.03002" lon="1.08584">
        <ele>360.4</ele>
        <time>2024-04-21T14:50:47.993Z</time>
      </trkpt>
      <trkpt lat="43.02998" lon="1.08588">
        <ele>360.4</ele>
        <time>2024-04-21T14:50:48.993Z</time>
      </trkpt>
      <trkpt lat="43.02996" lon="1.08594">
        <ele>360.6</ele>
        <time>2024-04-21T14:50:49.993Z</time>
      </trkpt>
      <trkpt lat="43.02993" lon="1.08598">
        <ele>360.6</ele>
        <time>2024-04-21T14:50:50.993Z</time>
      </trkpt>
      <trkpt lat="43.0299" lon="1.08604">
        <ele>360.6</ele>
        <time>2024-04-21T14:50:51.993Z</time>
      </trkpt>
      <trkpt lat="43.02987" lon="1.08609">
        <ele>360.6</ele>
        <time>2024-04-21T14:50:52.993Z</time>
      </trkpt>
      <trkpt lat="43.02984" lon="1.08614">
        <ele>360.6</ele>
        <time>2024-04-21T14:50:53.993Z</time>
      </trkpt>
      <trkpt lat="43.02981" lon="1.08619">
        <ele>361</ele>
        <time>2024-04-21T14:50:54.993Z</time>
      </trkpt>
      <trkpt lat="43.02978" lon="1.08624">
        <ele>361</ele>
        <time>2024-04-21T14:50:55.993Z</time>
      </trkpt>
      <trkpt lat="43.02975" lon="1.08629">
        <ele>361</ele>
        <time>2024-04-21T14:50:56.993Z</time>
      </trkpt>
      <trkpt lat="43.02971" lon="1.08634">
        <ele>361</ele>
        <time>2024-04-21T14:50:57.993Z</time>
      </trkpt>
      <trkpt lat="43.02969" lon="1.08639">
        <ele>361</ele>
        <time>2024-04-21T14:50:58.993Z</time>
      </trkpt>
      <trkpt lat="43.02965" lon="1.08644">
        <ele>361</ele>
        <time>2024-04-21T14:50:59.993Z</time>
      </trkpt>
      <trkpt lat="43.02963" lon="1.08649">
        <ele>361.4</ele>
        <time>2024-04-21T14:51:00.993Z</time>
      </trkpt>
      <trkpt lat="43.0296" lon="1.08654">
        <ele>361.4</ele>
        <time>2024-04-21T14:51:01.993Z</time>
      </trkpt>
      <trkpt lat="43.02957" lon="1.0866">
        <ele>361.4</ele>
        <time>2024-04-21T14:51:02.993Z</time>
      </trkpt>
      <trkpt lat="43.02954" lon="1.08665">
        <ele>361.4</ele>
        <time>2024-04-21T14:51:03.993Z</time>
      </trkpt>
      <trkpt lat="43.02951" lon="1.0867">
        <ele>361.6</ele>
        <time>2024-04-21T14:51:04.993Z</time>
      </trkpt>
      <trkpt lat="43.02948" lon="1.08675">
        <ele>361.6</ele>
        <time>2024-04-21T14:51:05.993Z</time>
      </trkpt>
      <trkpt lat="43.02945" lon="1.0868">
        <ele>361.6</ele>
        <time>2024-04-21T14:51:06.993Z</time>
      </trkpt>
      <trkpt lat="43.02942" lon="1.08686">
        <ele>361.8</ele>
        <time>2024-04-21T14:51:07.993Z</time>
      </trkpt>
      <trkpt lat="43.0294" lon="1.08691">
        <ele>362.2</ele>
        <time>2024-04-21T14:51:08.993Z</time>
      </trkpt>
      <trkpt lat="43.02937" lon="1.08696">
        <ele>361.8</ele>
        <time>2024-04-21T14:51:09.993Z</time>
      </trkpt>
      <trkpt lat="43.02934" lon="1.08701">
        <ele>361.8</ele>
        <time>2024-04-21T14:51:10.993Z</time>
      </trkpt>
      <trkpt lat="43.02931" lon="1.08706">
        <ele>361.8</ele>
        <time>2024-04-21T14:51:11.993Z</time>
      </trkpt>
      <trkpt lat="43.02928" lon="1.08711">
        <ele>361.8</ele>
        <time>2024-04-21T14:51:12.993Z</time>
      </trkpt>
      <trkpt lat="43.02926" lon="1.08716">
        <ele>361.8</ele>
        <time>2024-04-21T14:51:13.993Z</time>
      </trkpt>
      <trkpt lat="43.02923" lon="1.0872">
        <ele>361.8</ele>
        <time>2024-04-21T14:51:14.993Z</time>
      </trkpt>
      <trkpt lat="43.02921" lon="1.08726">
        <ele>361.8</ele>
        <time>2024-04-21T14:51:15.993Z</time>
      </trkpt>
      <trkpt lat="43.02919" lon="1.0873">
        <ele>361.8</ele>
        <time>2024-04-21T14:51:16.993Z</time>
      </trkpt>
      <trkpt lat="43.02916" lon="1.08733">
        <ele>361.8</ele>
        <time>2024-04-21T14:51:17.993Z</time>
      </trkpt>
      <trkpt lat="43.02913" lon="1.08737">
        <ele>361.8</ele>
        <time>2024-04-21T14:51:18.993Z</time>
      </trkpt>
      <trkpt lat="43.0291" lon="1.08741">
        <ele>361.8</ele>
        <time>2024-04-21T14:51:19.993Z</time>
      </trkpt>
      <trkpt lat="43.02908" lon="1.08746">
        <ele>361.8</ele>
        <time>2024-04-21T14:51:20.993Z</time>
      </trkpt>
      <trkpt lat="43.02905" lon="1.08751">
        <ele>361.8</ele>
        <time>2024-04-21T14:51:21.993Z</time>
      </trkpt>
      <trkpt lat="43.02903" lon="1.08755">
        <ele>361.8</ele>
        <time>2024-04-21T14:51:22.993Z</time>
      </trkpt>
      <trkpt lat="43.029" lon="1.08759">
        <ele>361.8</ele>
        <time>2024-04-21T14:51:23.993Z</time>
      </trkpt>
      <trkpt lat="43.02897" lon="1.08764">
        <ele>361.8</ele>
        <time>2024-04-21T14:51:24.993Z</time>
      </trkpt>
      <trkpt lat="43.02894" lon="1.08769">
        <ele>361.8</ele>
        <time>2024-04-21T14:51:25.993Z</time>
      </trkpt>
      <trkpt lat="43.02892" lon="1.08773">
        <ele>361.8</ele>
        <time>2024-04-21T14:51:26.993Z</time>
      </trkpt>
      <trkpt lat="43.02889" lon="1.08777">
        <ele>362.2</ele>
        <time>2024-04-21T14:51:27.993Z</time>
      </trkpt>
      <trkpt lat="43.02886" lon="1.08782">
        <ele>362.2</ele>
        <time>2024-04-21T14:51:28.993Z</time>
      </trkpt>
      <trkpt lat="43.02882" lon="1.08787">
        <ele>362.2</ele>
        <time>2024-04-21T14:51:29.993Z</time>
      </trkpt>
      <trkpt lat="43.02879" lon="1.08793">
        <ele>362.2</ele>
        <time>2024-04-21T14:51:30.993Z</time>
      </trkpt>
      <trkpt lat="43.02876" lon="1.08798">
        <ele>362.2</ele>
        <time>2024-04-21T14:51:31.993Z</time>
      </trkpt>
      <trkpt lat="43.02873" lon="1.08804">
        <ele>362.2</ele>
        <time>2024-04-21T14:51:32.993Z</time>
      </trkpt>
      <trkpt lat="43.0287" lon="1.08809">
        <ele>362.2</ele>
        <time>2024-04-21T14:51:33.993Z</time>
      </trkpt>
      <trkpt lat="43.02867" lon="1.08813">
        <ele>362.2</ele>
        <time>2024-04-21T14:51:34.993Z</time>
      </trkpt>
      <trkpt lat="43.02864" lon="1.08819">
        <ele>362</ele>
        <time>2024-04-21T14:51:35.993Z</time>
      </trkpt>
      <trkpt lat="43.0286" lon="1.08824">
        <ele>362</ele>
        <time>2024-04-21T14:51:36.993Z</time>
      </trkpt>
      <trkpt lat="43.02856" lon="1.0883">
        <ele>362</ele>
        <time>2024-04-21T14:51:37.993Z</time>
      </trkpt>
      <trkpt lat="43.02854" lon="1.08834">
        <ele>362</ele>
        <time>2024-04-21T14:51:38.993Z</time>
      </trkpt>
      <trkpt lat="43.0285" lon="1.0884">
        <ele>362.4</ele>
        <time>2024-04-21T14:51:39.993Z</time>
      </trkpt>
      <trkpt lat="43.02848" lon="1.08845">
        <ele>362.4</ele>
        <time>2024-04-21T14:51:40.993Z</time>
      </trkpt>
      <trkpt lat="43.02845" lon="1.08851">
        <ele>362.4</ele>
        <time>2024-04-21T14:51:41.993Z</time>
      </trkpt>
      <trkpt lat="43.02841" lon="1.08856">
        <ele>362.4</ele>
        <time>2024-04-21T14:51:42.993Z</time>
      </trkpt>
      <trkpt lat="43.02841" lon="1.08856">
        <ele>362.4</ele>
        <time>2024-04-21T14:51:43.993Z</time>
      </trkpt>
      <trkpt lat="43.02839" lon="1.08861">
        <ele>362.4</ele>
        <time>2024-04-21T14:51:44.993Z</time>
      </trkpt>
      <trkpt lat="43.02836" lon="1.08866">
        <ele>362.4</ele>
        <time>2024-04-21T14:51:45.993Z</time>
      </trkpt>
      <trkpt lat="43.02832" lon="1.08872">
        <ele>362.4</ele>
        <time>2024-04-21T14:51:46.993Z</time>
      </trkpt>
      <trkpt lat="43.0283" lon="1.08877">
        <ele>362.6</ele>
        <time>2024-04-21T14:51:47.993Z</time>
      </trkpt>
      <trkpt lat="43.02827" lon="1.08883">
        <ele>362.6</ele>
        <time>2024-04-21T14:51:48.993Z</time>
      </trkpt>
      <trkpt lat="43.02824" lon="1.08888">
        <ele>363</ele>
        <time>2024-04-21T14:51:49.993Z</time>
      </trkpt>
      <trkpt lat="43.0282" lon="1.08894">
        <ele>363</ele>
        <time>2024-04-21T14:51:50.993Z</time>
      </trkpt>
      <trkpt lat="43.02817" lon="1.08898">
        <ele>363</ele>
        <time>2024-04-21T14:51:51.993Z</time>
      </trkpt>
      <trkpt lat="43.02813" lon="1.08903">
        <ele>363.4</ele>
        <time>2024-04-21T14:51:52.993Z</time>
      </trkpt>
      <trkpt lat="43.0281" lon="1.08909">
        <ele>363.6</ele>
        <time>2024-04-21T14:51:53.993Z</time>
      </trkpt>
      <trkpt lat="43.02806" lon="1.08913">
        <ele>363.6</ele>
        <time>2024-04-21T14:51:54.993Z</time>
      </trkpt>
      <trkpt lat="43.02803" lon="1.08919">
        <ele>363.6</ele>
        <time>2024-04-21T14:51:55.993Z</time>
      </trkpt>
      <trkpt lat="43.028" lon="1.08924">
        <ele>363.6</ele>
        <time>2024-04-21T14:51:56.993Z</time>
      </trkpt>
      <trkpt lat="43.02797" lon="1.0893">
        <ele>363.6</ele>
        <time>2024-04-21T14:51:57.993Z</time>
      </trkpt>
      <trkpt lat="43.02795" lon="1.08936">
        <ele>363.6</ele>
        <time>2024-04-21T14:51:58.993Z</time>
      </trkpt>
      <trkpt lat="43.02792" lon="1.08942">
        <ele>364</ele>
        <time>2024-04-21T14:51:59.993Z</time>
      </trkpt>
      <trkpt lat="43.02789" lon="1.08947">
        <ele>364</ele>
        <time>2024-04-21T14:52:00.993Z</time>
      </trkpt>
      <trkpt lat="43.02785" lon="1.08953">
        <ele>364</ele>
        <time>2024-04-21T14:52:01.993Z</time>
      </trkpt>
      <trkpt lat="43.02782" lon="1.08958">
        <ele>364</ele>
        <time>2024-04-21T14:52:02.993Z</time>
      </trkpt>
      <trkpt lat="43.02779" lon="1.08963">
        <ele>364</ele>
        <time>2024-04-21T14:52:03.993Z</time>
      </trkpt>
      <trkpt lat="43.02776" lon="1.08969">
        <ele>364</ele>
        <time>2024-04-21T14:52:04.993Z</time>
      </trkpt>
      <trkpt lat="43.02772" lon="1.08974">
        <ele>364</ele>
        <time>2024-04-21T14:52:05.993Z</time>
      </trkpt>
      <trkpt lat="43.02769" lon="1.08979">
        <ele>364</ele>
        <time>2024-04-21T14:52:06.993Z</time>
      </trkpt>
      <trkpt lat="43.02767" lon="1.08984">
        <ele>364</ele>
        <time>2024-04-21T14:52:07.993Z</time>
      </trkpt>
      <trkpt lat="43.02763" lon="1.08989">
        <ele>364.2</ele>
        <time>2024-04-21T14:52:08.993Z</time>
      </trkpt>
      <trkpt lat="43.02761" lon="1.08994">
        <ele>364.2</ele>
        <time>2024-04-21T14:52:09.993Z</time>
      </trkpt>
      <trkpt lat="43.02758" lon="1.08999">
        <ele>364.2</ele>
        <time>2024-04-21T14:52:10.993Z</time>
      </trkpt>
      <trkpt lat="43.02754" lon="1.09005">
        <ele>364.2</ele>
        <time>2024-04-21T14:52:11.993Z</time>
      </trkpt>
      <trkpt lat="43.02752" lon="1.09011">
        <ele>364.6</ele>
        <time>2024-04-21T14:52:12.993Z</time>
      </trkpt>
      <trkpt lat="43.02749" lon="1.09016">
        <ele>364.6</ele>
        <time>2024-04-21T14:52:13.993Z</time>
      </trkpt>
      <trkpt lat="43.02745" lon="1.09021">
        <ele>364.8</ele>
        <time>2024-04-21T14:52:14.993Z</time>
      </trkpt>
      <trkpt lat="43.02742" lon="1.09026">
        <ele>364.8</ele>
        <time>2024-04-21T14:52:15.993Z</time>
      </trkpt>
      <trkpt lat="43.02735" lon="1.09037">
        <ele>365.2</ele>
        <time>2024-04-21T14:52:16.993Z</time>
      </trkpt>
      <trkpt lat="43.02733" lon="1.09043">
        <ele>365.2</ele>
        <time>2024-04-21T14:52:17.993Z</time>
      </trkpt>
      <trkpt lat="43.02729" lon="1.09048">
        <ele>365.2</ele>
        <time>2024-04-21T14:52:18.993Z</time>
      </trkpt>
      <trkpt lat="43.02726" lon="1.09053">
        <ele>365.2</ele>
        <time>2024-04-21T14:52:19.993Z</time>
      </trkpt>
      <trkpt lat="43.02723" lon="1.09058">
        <ele>365.2</ele>
        <time>2024-04-21T14:52:20.993Z</time>
      </trkpt>
      <trkpt lat="43.02721" lon="1.09064">
        <ele>365.2</ele>
        <time>2024-04-21T14:52:21.993Z</time>
      </trkpt>
      <trkpt lat="43.02718" lon="1.0907">
        <ele>365.2</ele>
        <time>2024-04-21T14:52:22.993Z</time>
      </trkpt>
      <trkpt lat="43.02715" lon="1.09075">
        <ele>365.2</ele>
        <time>2024-04-21T14:52:23.993Z</time>
      </trkpt>
      <trkpt lat="43.02713" lon="1.0908">
        <ele>365</ele>
        <time>2024-04-21T14:52:24.993Z</time>
      </trkpt>
      <trkpt lat="43.02711" lon="1.09085">
        <ele>365</ele>
        <time>2024-04-21T14:52:25.993Z</time>
      </trkpt>
      <trkpt lat="43.02708" lon="1.09091">
        <ele>365</ele>
        <time>2024-04-21T14:52:26.993Z</time>
      </trkpt>
      <trkpt lat="43.02704" lon="1.09096">
        <ele>365</ele>
        <time>2024-04-21T14:52:27.993Z</time>
      </trkpt>
      <trkpt lat="43.02701" lon="1.09102">
        <ele>365</ele>
        <time>2024-04-21T14:52:28.993Z</time>
      </trkpt>
      <trkpt lat="43.02698" lon="1.09108">
        <ele>365.2</ele>
        <time>2024-04-21T14:52:29.993Z</time>
      </trkpt>
      <trkpt lat="43.02695" lon="1.09113">
        <ele>365.4</ele>
        <time>2024-04-21T14:52:30.993Z</time>
      </trkpt>
      <trkpt lat="43.02692" lon="1.09119">
        <ele>365.2</ele>
        <time>2024-04-21T14:52:31.993Z</time>
      </trkpt>
      <trkpt lat="43.0269" lon="1.09123">
        <ele>365.2</ele>
        <time>2024-04-21T14:52:32.993Z</time>
      </trkpt>
      <trkpt lat="43.02688" lon="1.09129">
        <ele>365.2</ele>
        <time>2024-04-21T14:52:33.993Z</time>
      </trkpt>
      <trkpt lat="43.02685" lon="1.09133">
        <ele>365.2</ele>
        <time>2024-04-21T14:52:34.993Z</time>
      </trkpt>
      <trkpt lat="43.02683" lon="1.09138">
        <ele>365.2</ele>
        <time>2024-04-21T14:52:35.993Z</time>
      </trkpt>
      <trkpt lat="43.02682" lon="1.09142">
        <ele>365.6</ele>
        <time>2024-04-21T14:52:36.993Z</time>
      </trkpt>
      <trkpt lat="43.02681" lon="1.09147">
        <ele>365.6</ele>
        <time>2024-04-21T14:52:37.993Z</time>
      </trkpt>
      <trkpt lat="43.02679" lon="1.0915">
        <ele>365.6</ele>
        <time>2024-04-21T14:52:38.993Z</time>
      </trkpt>
      <trkpt lat="43.02677" lon="1.09154">
        <ele>365.6</ele>
        <time>2024-04-21T14:52:39.993Z</time>
      </trkpt>
      <trkpt lat="43.02675" lon="1.09157">
        <ele>365.6</ele>
        <time>2024-04-21T14:52:40.993Z</time>
      </trkpt>
      <trkpt lat="43.02672" lon="1.09162">
        <ele>366</ele>
        <time>2024-04-21T14:52:41.993Z</time>
      </trkpt>
      <trkpt lat="43.0267" lon="1.09166">
        <ele>366</ele>
        <time>2024-04-21T14:52:42.993Z</time>
      </trkpt>
      <trkpt lat="43.02668" lon="1.0917">
        <ele>366</ele>
        <time>2024-04-21T14:52:43.993Z</time>
      </trkpt>
      <trkpt lat="43.02666" lon="1.09175">
        <ele>366</ele>
        <time>2024-04-21T14:52:44.993Z</time>
      </trkpt>
      <trkpt lat="43.02663" lon="1.09181">
        <ele>366</ele>
        <time>2024-04-21T14:52:45.993Z</time>
      </trkpt>
      <trkpt lat="43.02661" lon="1.09187">
        <ele>366.4</ele>
        <time>2024-04-21T14:52:46.993Z</time>
      </trkpt>
      <trkpt lat="43.02659" lon="1.09193">
        <ele>366.4</ele>
        <time>2024-04-21T14:52:47.993Z</time>
      </trkpt>
      <trkpt lat="43.02656" lon="1.09197">
        <ele>366.6</ele>
        <time>2024-04-21T14:52:48.993Z</time>
      </trkpt>
      <trkpt lat="43.02654" lon="1.09203">
        <ele>366.6</ele>
        <time>2024-04-21T14:52:49.993Z</time>
      </trkpt>
      <trkpt lat="43.02653" lon="1.09209">
        <ele>366.4</ele>
        <time>2024-04-21T14:52:50.993Z</time>
      </trkpt>
      <trkpt lat="43.0265" lon="1.09214">
        <ele>366.4</ele>
        <time>2024-04-21T14:52:51.993Z</time>
      </trkpt>
      <trkpt lat="43.02647" lon="1.09219">
        <ele>366.2</ele>
        <time>2024-04-21T14:52:52.993Z</time>
      </trkpt>
      <trkpt lat="43.02645" lon="1.09225">
        <ele>366.2</ele>
        <time>2024-04-21T14:52:53.993Z</time>
      </trkpt>
      <trkpt lat="43.02643" lon="1.09231">
        <ele>366.2</ele>
        <time>2024-04-21T14:52:54.993Z</time>
      </trkpt>
      <trkpt lat="43.02641" lon="1.09237">
        <ele>366.2</ele>
        <time>2024-04-21T14:52:55.993Z</time>
      </trkpt>
      <trkpt lat="43.02638" lon="1.09242">
        <ele>366.2</ele>
        <time>2024-04-21T14:52:56.993Z</time>
      </trkpt>
      <trkpt lat="43.02635" lon="1.09248">
        <ele>366.2</ele>
        <time>2024-04-21T14:52:57.993Z</time>
      </trkpt>
      <trkpt lat="43.02633" lon="1.09254">
        <ele>366.2</ele>
        <time>2024-04-21T14:52:58.993Z</time>
      </trkpt>
      <trkpt lat="43.02631" lon="1.0926">
        <ele>366.2</ele>
        <time>2024-04-21T14:52:59.993Z</time>
      </trkpt>
      <trkpt lat="43.02629" lon="1.09266">
        <ele>366.2</ele>
        <time>2024-04-21T14:53:00.993Z</time>
      </trkpt>
      <trkpt lat="43.02626" lon="1.09272">
        <ele>366.2</ele>
        <time>2024-04-21T14:53:01.993Z</time>
      </trkpt>
      <trkpt lat="43.02625" lon="1.09277">
        <ele>365.8</ele>
        <time>2024-04-21T14:53:02.993Z</time>
      </trkpt>
      <trkpt lat="43.02623" lon="1.09283">
        <ele>366.2</ele>
        <time>2024-04-21T14:53:03.993Z</time>
      </trkpt>
      <trkpt lat="43.0262" lon="1.09289">
        <ele>366.2</ele>
        <time>2024-04-21T14:53:04.993Z</time>
      </trkpt>
      <trkpt lat="43.02619" lon="1.09294">
        <ele>366.4</ele>
        <time>2024-04-21T14:53:05.993Z</time>
      </trkpt>
      <trkpt lat="43.02616" lon="1.093">
        <ele>366.2</ele>
        <time>2024-04-21T14:53:06.993Z</time>
      </trkpt>
      <trkpt lat="43.02614" lon="1.09305">
        <ele>366.6</ele>
        <time>2024-04-21T14:53:07.993Z</time>
      </trkpt>
      <trkpt lat="43.02612" lon="1.09309">
        <ele>366.6</ele>
        <time>2024-04-21T14:53:08.993Z</time>
      </trkpt>
      <trkpt lat="43.02611" lon="1.09315">
        <ele>366.8</ele>
        <time>2024-04-21T14:53:09.993Z</time>
      </trkpt>
      <trkpt lat="43.02609" lon="1.09321">
        <ele>366.8</ele>
        <time>2024-04-21T14:53:10.993Z</time>
      </trkpt>
      <trkpt lat="43.02606" lon="1.09327">
        <ele>366.8</ele>
        <time>2024-04-21T14:53:11.993Z</time>
      </trkpt>
      <trkpt lat="43.02605" lon="1.09333">
        <ele>366.8</ele>
        <time>2024-04-21T14:53:12.993Z</time>
      </trkpt>
      <trkpt lat="43.02604" lon="1.09338">
        <ele>367</ele>
        <time>2024-04-21T14:53:13.993Z</time>
      </trkpt>
      <trkpt lat="43.02602" lon="1.09344">
        <ele>367</ele>
        <time>2024-04-21T14:53:14.993Z</time>
      </trkpt>
      <trkpt lat="43.02601" lon="1.0935">
        <ele>367</ele>
        <time>2024-04-21T14:53:15.993Z</time>
      </trkpt>
      <trkpt lat="43.02599" lon="1.09356">
        <ele>367</ele>
        <time>2024-04-21T14:53:16.993Z</time>
      </trkpt>
      <trkpt lat="43.02596" lon="1.09361">
        <ele>367</ele>
        <time>2024-04-21T14:53:17.993Z</time>
      </trkpt>
      <trkpt lat="43.02595" lon="1.09367">
        <ele>367</ele>
        <time>2024-04-21T14:53:18.993Z</time>
      </trkpt>
      <trkpt lat="43.02593" lon="1.09373">
        <ele>367.4</ele>
        <time>2024-04-21T14:53:19.993Z</time>
      </trkpt>
      <trkpt lat="43.02591" lon="1.09379">
        <ele>367.4</ele>
        <time>2024-04-21T14:53:20.993Z</time>
      </trkpt>
      <trkpt lat="43.02589" lon="1.09385">
        <ele>367.4</ele>
        <time>2024-04-21T14:53:21.993Z</time>
      </trkpt>
      <trkpt lat="43.02587" lon="1.0939">
        <ele>367.4</ele>
        <time>2024-04-21T14:53:22.993Z</time>
      </trkpt>
      <trkpt lat="43.02586" lon="1.09396">
        <ele>367.4</ele>
        <time>2024-04-21T14:53:23.993Z</time>
      </trkpt>
      <trkpt lat="43.02584" lon="1.09402">
        <ele>367.4</ele>
        <time>2024-04-21T14:53:24.993Z</time>
      </trkpt>
      <trkpt lat="43.02582" lon="1.09408">
        <ele>367.4</ele>
        <time>2024-04-21T14:53:25.993Z</time>
      </trkpt>
      <trkpt lat="43.0258" lon="1.09414">
        <ele>367.4</ele>
        <time>2024-04-21T14:53:26.993Z</time>
      </trkpt>
      <trkpt lat="43.02578" lon="1.0942">
        <ele>367.4</ele>
        <time>2024-04-21T14:53:27.993Z</time>
      </trkpt>
      <trkpt lat="43.02577" lon="1.09426">
        <ele>367.4</ele>
        <time>2024-04-21T14:53:28.993Z</time>
      </trkpt>
      <trkpt lat="43.02575" lon="1.09432">
        <ele>367.4</ele>
        <time>2024-04-21T14:53:29.993Z</time>
      </trkpt>
      <trkpt lat="43.02573" lon="1.09438">
        <ele>367.4</ele>
        <time>2024-04-21T14:53:30.993Z</time>
      </trkpt>
      <trkpt lat="43.02571" lon="1.09444">
        <ele>367.4</ele>
        <time>2024-04-21T14:53:31.993Z</time>
      </trkpt>
      <trkpt lat="43.02569" lon="1.0945">
        <ele>367.4</ele>
        <time>2024-04-21T14:53:32.993Z</time>
      </trkpt>
      <trkpt lat="43.02568" lon="1.09456">
        <ele>367.4</ele>
        <time>2024-04-21T14:53:33.993Z</time>
      </trkpt>
      <trkpt lat="43.02566" lon="1.09462">
        <ele>367.4</ele>
        <time>2024-04-21T14:53:34.993Z</time>
      </trkpt>
      <trkpt lat="43.02565" lon="1.09469">
        <ele>367.4</ele>
        <time>2024-04-21T14:53:35.993Z</time>
      </trkpt>
      <trkpt lat="43.02563" lon="1.09475">
        <ele>367.4</ele>
        <time>2024-04-21T14:53:36.993Z</time>
      </trkpt>
      <trkpt lat="43.02562" lon="1.09482">
        <ele>367.4</ele>
        <time>2024-04-21T14:53:37.993Z</time>
      </trkpt>
      <trkpt lat="43.0256" lon="1.09488">
        <ele>367.4</ele>
        <time>2024-04-21T14:53:38.993Z</time>
      </trkpt>
      <trkpt lat="43.02559" lon="1.09495">
        <ele>367.6</ele>
        <time>2024-04-21T14:53:39.993Z</time>
      </trkpt>
      <trkpt lat="43.02557" lon="1.09502">
        <ele>367.6</ele>
        <time>2024-04-21T14:53:40.993Z</time>
      </trkpt>
      <trkpt lat="43.02556" lon="1.09508">
        <ele>367.6</ele>
        <time>2024-04-21T14:53:41.993Z</time>
      </trkpt>
      <trkpt lat="43.02554" lon="1.09515">
        <ele>367.6</ele>
        <time>2024-04-21T14:53:42.993Z</time>
      </trkpt>
      <trkpt lat="43.02553" lon="1.09521">
        <ele>367.6</ele>
        <time>2024-04-21T14:53:43.993Z</time>
      </trkpt>
      <trkpt lat="43.02551" lon="1.09528">
        <ele>367.6</ele>
        <time>2024-04-21T14:53:44.993Z</time>
      </trkpt>
      <trkpt lat="43.0255" lon="1.09534">
        <ele>367.6</ele>
        <time>2024-04-21T14:53:45.993Z</time>
      </trkpt>
      <trkpt lat="43.02548" lon="1.0954">
        <ele>367.6</ele>
        <time>2024-04-21T14:53:46.993Z</time>
      </trkpt>
      <trkpt lat="43.02548" lon="1.09546">
        <ele>367.6</ele>
        <time>2024-04-21T14:53:47.993Z</time>
      </trkpt>
      <trkpt lat="43.02547" lon="1.09552">
        <ele>367.6</ele>
        <time>2024-04-21T14:53:48.993Z</time>
      </trkpt>
      <trkpt lat="43.02546" lon="1.09559">
        <ele>367.6</ele>
        <time>2024-04-21T14:53:49.993Z</time>
      </trkpt>
      <trkpt lat="43.02545" lon="1.09565">
        <ele>367.8</ele>
        <time>2024-04-21T14:53:50.993Z</time>
      </trkpt>
      <trkpt lat="43.02544" lon="1.09572">
        <ele>367.8</ele>
        <time>2024-04-21T14:53:51.993Z</time>
      </trkpt>
      <trkpt lat="43.02544" lon="1.09578">
        <ele>367.8</ele>
        <time>2024-04-21T14:53:52.993Z</time>
      </trkpt>
      <trkpt lat="43.02542" lon="1.09586">
        <ele>367.8</ele>
        <time>2024-04-21T14:53:53.993Z</time>
      </trkpt>
      <trkpt lat="43.02541" lon="1.09593">
        <ele>367.8</ele>
        <time>2024-04-21T14:53:54.993Z</time>
      </trkpt>
      <trkpt lat="43.02539" lon="1.096">
        <ele>367.8</ele>
        <time>2024-04-21T14:53:55.993Z</time>
      </trkpt>
      <trkpt lat="43.02538" lon="1.09606">
        <ele>367.8</ele>
        <time>2024-04-21T14:53:56.993Z</time>
      </trkpt>
      <trkpt lat="43.02537" lon="1.09613">
        <ele>367.8</ele>
        <time>2024-04-21T14:53:57.993Z</time>
      </trkpt>
      <trkpt lat="43.02537" lon="1.0962">
        <ele>367.8</ele>
        <time>2024-04-21T14:53:58.993Z</time>
      </trkpt>
      <trkpt lat="43.02536" lon="1.09626">
        <ele>368</ele>
        <time>2024-04-21T14:53:59.993Z</time>
      </trkpt>
      <trkpt lat="43.02535" lon="1.09632">
        <ele>368</ele>
        <time>2024-04-21T14:54:00.993Z</time>
      </trkpt>
      <trkpt lat="43.02534" lon="1.09638">
        <ele>368</ele>
        <time>2024-04-21T14:54:01.993Z</time>
      </trkpt>
      <trkpt lat="43.02534" lon="1.09645">
        <ele>368</ele>
        <time>2024-04-21T14:54:02.993Z</time>
      </trkpt>
      <trkpt lat="43.02533" lon="1.09652">
        <ele>368.4</ele>
        <time>2024-04-21T14:54:03.993Z</time>
      </trkpt>
      <trkpt lat="43.02531" lon="1.09658">
        <ele>368.4</ele>
        <time>2024-04-21T14:54:04.993Z</time>
      </trkpt>
      <trkpt lat="43.0253" lon="1.09664">
        <ele>368.4</ele>
        <time>2024-04-21T14:54:05.993Z</time>
      </trkpt>
      <trkpt lat="43.02529" lon="1.09671">
        <ele>368.6</ele>
        <time>2024-04-21T14:54:06.993Z</time>
      </trkpt>
      <trkpt lat="43.02527" lon="1.09677">
        <ele>368.6</ele>
        <time>2024-04-21T14:54:07.993Z</time>
      </trkpt>
      <trkpt lat="43.02527" lon="1.09683">
        <ele>368.6</ele>
        <time>2024-04-21T14:54:08.993Z</time>
      </trkpt>
      <trkpt lat="43.02526" lon="1.09689">
        <ele>368.6</ele>
        <time>2024-04-21T14:54:09.993Z</time>
      </trkpt>
      <trkpt lat="43.02524" lon="1.09695">
        <ele>368.6</ele>
        <time>2024-04-21T14:54:10.993Z</time>
      </trkpt>
      <trkpt lat="43.02523" lon="1.09702">
        <ele>369</ele>
        <time>2024-04-21T14:54:11.993Z</time>
      </trkpt>
      <trkpt lat="43.02521" lon="1.09708">
        <ele>369</ele>
        <time>2024-04-21T14:54:12.993Z</time>
      </trkpt>
      <trkpt lat="43.0252" lon="1.09714">
        <ele>369</ele>
        <time>2024-04-21T14:54:13.993Z</time>
      </trkpt>
      <trkpt lat="43.02519" lon="1.0972">
        <ele>368.8</ele>
        <time>2024-04-21T14:54:14.993Z</time>
      </trkpt>
      <trkpt lat="43.02518" lon="1.09727">
        <ele>368.8</ele>
        <time>2024-04-21T14:54:15.993Z</time>
      </trkpt>
      <trkpt lat="43.02516" lon="1.09733">
        <ele>368.8</ele>
        <time>2024-04-21T14:54:16.993Z</time>
      </trkpt>
      <trkpt lat="43.02515" lon="1.0974">
        <ele>368.8</ele>
        <time>2024-04-21T14:54:17.993Z</time>
      </trkpt>
      <trkpt lat="43.02514" lon="1.09745">
        <ele>369</ele>
        <time>2024-04-21T14:54:18.993Z</time>
      </trkpt>
      <trkpt lat="43.02513" lon="1.09751">
        <ele>369.2</ele>
        <time>2024-04-21T14:54:19.993Z</time>
      </trkpt>
      <trkpt lat="43.02512" lon="1.09757">
        <ele>369.2</ele>
        <time>2024-04-21T14:54:20.993Z</time>
      </trkpt>
      <trkpt lat="43.02512" lon="1.09764">
        <ele>369.2</ele>
        <time>2024-04-21T14:54:21.993Z</time>
      </trkpt>
      <trkpt lat="43.02511" lon="1.0977">
        <ele>369.2</ele>
        <time>2024-04-21T14:54:22.993Z</time>
      </trkpt>
      <trkpt lat="43.02509" lon="1.09776">
        <ele>369.2</ele>
        <time>2024-04-21T14:54:23.993Z</time>
      </trkpt>
      <trkpt lat="43.02508" lon="1.09782">
        <ele>369.2</ele>
        <time>2024-04-21T14:54:24.993Z</time>
      </trkpt>
      <trkpt lat="43.02506" lon="1.09789">
        <ele>369.2</ele>
        <time>2024-04-21T14:54:25.993Z</time>
      </trkpt>
      <trkpt lat="43.02505" lon="1.09794">
        <ele>369.2</ele>
        <time>2024-04-21T14:54:26.993Z</time>
      </trkpt>
      <trkpt lat="43.02505" lon="1.09802">
        <ele>369.4</ele>
        <time>2024-04-21T14:54:27.993Z</time>
      </trkpt>
      <trkpt lat="43.02504" lon="1.09808">
        <ele>369.4</ele>
        <time>2024-04-21T14:54:28.993Z</time>
      </trkpt>
      <trkpt lat="43.02502" lon="1.09815">
        <ele>369.4</ele>
        <time>2024-04-21T14:54:29.993Z</time>
      </trkpt>
      <trkpt lat="43.02502" lon="1.09821">
        <ele>369.4</ele>
        <time>2024-04-21T14:54:30.993Z</time>
      </trkpt>
      <trkpt lat="43.02501" lon="1.09828">
        <ele>369.4</ele>
        <time>2024-04-21T14:54:31.993Z</time>
      </trkpt>
      <trkpt lat="43.025" lon="1.09834">
        <ele>369.4</ele>
        <time>2024-04-21T14:54:32.993Z</time>
      </trkpt>
      <trkpt lat="43.02498" lon="1.0984">
        <ele>369.4</ele>
        <time>2024-04-21T14:54:33.993Z</time>
      </trkpt>
      <trkpt lat="43.02497" lon="1.09846">
        <ele>369.6</ele>
        <time>2024-04-21T14:54:34.993Z</time>
      </trkpt>
      <trkpt lat="43.02496" lon="1.09853">
        <ele>369.6</ele>
        <time>2024-04-21T14:54:35.993Z</time>
      </trkpt>
      <trkpt lat="43.02495" lon="1.0986">
        <ele>369.6</ele>
        <time>2024-04-21T14:54:36.993Z</time>
      </trkpt>
      <trkpt lat="43.02494" lon="1.09866">
        <ele>369.6</ele>
        <time>2024-04-21T14:54:37.993Z</time>
      </trkpt>
      <trkpt lat="43.02492" lon="1.09872">
        <ele>369.6</ele>
        <time>2024-04-21T14:54:38.993Z</time>
      </trkpt>
      <trkpt lat="43.02492" lon="1.09878">
        <ele>369.6</ele>
        <time>2024-04-21T14:54:39.993Z</time>
      </trkpt>
      <trkpt lat="43.02491" lon="1.09884">
        <ele>369.6</ele>
        <time>2024-04-21T14:54:40.993Z</time>
      </trkpt>
      <trkpt lat="43.0249" lon="1.0989">
        <ele>369.6</ele>
        <time>2024-04-21T14:54:41.993Z</time>
      </trkpt>
      <trkpt lat="43.0249" lon="1.09896">
        <ele>369.6</ele>
        <time>2024-04-21T14:54:42.993Z</time>
      </trkpt>
      <trkpt lat="43.0249" lon="1.09902">
        <ele>369.6</ele>
        <time>2024-04-21T14:54:43.993Z</time>
      </trkpt>
      <trkpt lat="43.02491" lon="1.09908">
        <ele>369.6</ele>
        <time>2024-04-21T14:54:44.993Z</time>
      </trkpt>
      <trkpt lat="43.02489" lon="1.09915">
        <ele>369.6</ele>
        <time>2024-04-21T14:54:45.993Z</time>
      </trkpt>
      <trkpt lat="43.02488" lon="1.09921">
        <ele>370.2</ele>
        <time>2024-04-21T14:54:46.993Z</time>
      </trkpt>
      <trkpt lat="43.02489" lon="1.09927">
        <ele>370.2</ele>
        <time>2024-04-21T14:54:47.993Z</time>
      </trkpt>
      <trkpt lat="43.02489" lon="1.09932">
        <ele>370</ele>
        <time>2024-04-21T14:54:48.993Z</time>
      </trkpt>
      <trkpt lat="43.02488" lon="1.09938">
        <ele>370</ele>
        <time>2024-04-21T14:54:49.993Z</time>
      </trkpt>
      <trkpt lat="43.02486" lon="1.09945">
        <ele>370</ele>
        <time>2024-04-21T14:54:50.993Z</time>
      </trkpt>
      <trkpt lat="43.02485" lon="1.09951">
        <ele>370</ele>
        <time>2024-04-21T14:54:51.993Z</time>
      </trkpt>
      <trkpt lat="43.02486" lon="1.09956">
        <ele>370</ele>
        <time>2024-04-21T14:54:52.993Z</time>
      </trkpt>
      <trkpt lat="43.02484" lon="1.09963">
        <ele>370.2</ele>
        <time>2024-04-21T14:54:53.993Z</time>
      </trkpt>
      <trkpt lat="43.02483" lon="1.09969">
        <ele>370.4</ele>
        <time>2024-04-21T14:54:54.993Z</time>
      </trkpt>
      <trkpt lat="43.02482" lon="1.09975">
        <ele>370.4</ele>
        <time>2024-04-21T14:54:55.993Z</time>
      </trkpt>
      <trkpt lat="43.0248" lon="1.09981">
        <ele>370.4</ele>
        <time>2024-04-21T14:54:56.993Z</time>
      </trkpt>
      <trkpt lat="43.02479" lon="1.09988">
        <ele>370.4</ele>
        <time>2024-04-21T14:54:57.993Z</time>
      </trkpt>
      <trkpt lat="43.02477" lon="1.09994">
        <ele>370.4</ele>
        <time>2024-04-21T14:54:58.993Z</time>
      </trkpt>
      <trkpt lat="43.02476" lon="1.09999">
        <ele>370.4</ele>
        <time>2024-04-21T14:54:59.993Z</time>
      </trkpt>
      <trkpt lat="43.02474" lon="1.10006">
        <ele>370.4</ele>
        <time>2024-04-21T14:55:00.993Z</time>
      </trkpt>
      <trkpt lat="43.02473" lon="1.10012">
        <ele>370.4</ele>
        <time>2024-04-21T14:55:01.993Z</time>
      </trkpt>
      <trkpt lat="43.02471" lon="1.10018">
        <ele>370.4</ele>
        <time>2024-04-21T14:55:02.993Z</time>
      </trkpt>
      <trkpt lat="43.02472" lon="1.10022">
        <ele>370.4</ele>
        <time>2024-04-21T14:55:03.993Z</time>
      </trkpt>
      <trkpt lat="43.0247" lon="1.10029">
        <ele>370.4</ele>
        <time>2024-04-21T14:55:04.993Z</time>
      </trkpt>
      <trkpt lat="43.02468" lon="1.10034">
        <ele>370.4</ele>
        <time>2024-04-21T14:55:05.993Z</time>
      </trkpt>
      <trkpt lat="43.02465" lon="1.1004">
        <ele>370.4</ele>
        <time>2024-04-21T14:55:06.993Z</time>
      </trkpt>
      <trkpt lat="43.02462" lon="1.10046">
        <ele>371</ele>
        <time>2024-04-21T14:55:07.993Z</time>
      </trkpt>
      <trkpt lat="43.02461" lon="1.10052">
        <ele>371</ele>
        <time>2024-04-21T14:55:08.993Z</time>
      </trkpt>
      <trkpt lat="43.02459" lon="1.10058">
        <ele>371</ele>
        <time>2024-04-21T14:55:09.993Z</time>
      </trkpt>
      <trkpt lat="43.02458" lon="1.10064">
        <ele>371</ele>
        <time>2024-04-21T14:55:10.993Z</time>
      </trkpt>
      <trkpt lat="43.02456" lon="1.1007">
        <ele>371</ele>
        <time>2024-04-21T14:55:11.993Z</time>
      </trkpt>
      <trkpt lat="43.02453" lon="1.10076">
        <ele>371</ele>
        <time>2024-04-21T14:55:12.993Z</time>
      </trkpt>
      <trkpt lat="43.0245" lon="1.10082">
        <ele>371</ele>
        <time>2024-04-21T14:55:13.993Z</time>
      </trkpt>
      <trkpt lat="43.02448" lon="1.10088">
        <ele>371</ele>
        <time>2024-04-21T14:55:14.993Z</time>
      </trkpt>
      <trkpt lat="43.02446" lon="1.10094">
        <ele>371</ele>
        <time>2024-04-21T14:55:15.993Z</time>
      </trkpt>
      <trkpt lat="43.02444" lon="1.101">
        <ele>371</ele>
        <time>2024-04-21T14:55:16.993Z</time>
      </trkpt>
      <trkpt lat="43.02442" lon="1.10106">
        <ele>371</ele>
        <time>2024-04-21T14:55:17.993Z</time>
      </trkpt>
      <trkpt lat="43.0244" lon="1.10112">
        <ele>371</ele>
        <time>2024-04-21T14:55:18.993Z</time>
      </trkpt>
      <trkpt lat="43.02439" lon="1.10118">
        <ele>371</ele>
        <time>2024-04-21T14:55:19.993Z</time>
      </trkpt>
      <trkpt lat="43.02437" lon="1.10124">
        <ele>371</ele>
        <time>2024-04-21T14:55:20.993Z</time>
      </trkpt>
      <trkpt lat="43.02435" lon="1.1013">
        <ele>371.4</ele>
        <time>2024-04-21T14:55:21.993Z</time>
      </trkpt>
      <trkpt lat="43.02433" lon="1.10136">
        <ele>371.4</ele>
        <time>2024-04-21T14:55:22.993Z</time>
      </trkpt>
      <trkpt lat="43.02431" lon="1.10142">
        <ele>371.4</ele>
        <time>2024-04-21T14:55:23.993Z</time>
      </trkpt>
      <trkpt lat="43.02428" lon="1.10148">
        <ele>371.4</ele>
        <time>2024-04-21T14:55:24.993Z</time>
      </trkpt>
      <trkpt lat="43.02426" lon="1.10153">
        <ele>371.4</ele>
        <time>2024-04-21T14:55:25.993Z</time>
      </trkpt>
      <trkpt lat="43.02424" lon="1.10159">
        <ele>371.6</ele>
        <time>2024-04-21T14:55:26.993Z</time>
      </trkpt>
      <trkpt lat="43.02422" lon="1.10164">
        <ele>371.6</ele>
        <time>2024-04-21T14:55:27.993Z</time>
      </trkpt>
      <trkpt lat="43.0242" lon="1.10169">
        <ele>371.6</ele>
        <time>2024-04-21T14:55:28.993Z</time>
      </trkpt>
      <trkpt lat="43.02418" lon="1.10175">
        <ele>371.8</ele>
        <time>2024-04-21T14:55:29.993Z</time>
      </trkpt>
      <trkpt lat="43.02418" lon="1.1018">
        <ele>371.8</ele>
        <time>2024-04-21T14:55:30.993Z</time>
      </trkpt>
      <trkpt lat="43.02417" lon="1.10185">
        <ele>372</ele>
        <time>2024-04-21T14:55:31.993Z</time>
      </trkpt>
      <trkpt lat="43.02415" lon="1.1019">
        <ele>372</ele>
        <time>2024-04-21T14:55:32.993Z</time>
      </trkpt>
      <trkpt lat="43.02414" lon="1.10196">
        <ele>372</ele>
        <time>2024-04-21T14:55:33.993Z</time>
      </trkpt>
      <trkpt lat="43.02412" lon="1.10201">
        <ele>372</ele>
        <time>2024-04-21T14:55:34.993Z</time>
      </trkpt>
      <trkpt lat="43.02411" lon="1.10207">
        <ele>372</ele>
        <time>2024-04-21T14:55:35.993Z</time>
      </trkpt>
      <trkpt lat="43.0241" lon="1.10212">
        <ele>372</ele>
        <time>2024-04-21T14:55:36.993Z</time>
      </trkpt>
      <trkpt lat="43.02409" lon="1.10218">
        <ele>372.2</ele>
        <time>2024-04-21T14:55:37.993Z</time>
      </trkpt>
      <trkpt lat="43.02408" lon="1.10223">
        <ele>372.2</ele>
        <time>2024-04-21T14:55:38.993Z</time>
      </trkpt>
      <trkpt lat="43.02407" lon="1.10229">
        <ele>372.2</ele>
        <time>2024-04-21T14:55:39.993Z</time>
      </trkpt>
      <trkpt lat="43.02406" lon="1.10235">
        <ele>372.2</ele>
        <time>2024-04-21T14:55:40.993Z</time>
      </trkpt>
      <trkpt lat="43.02405" lon="1.10241">
        <ele>372.2</ele>
        <time>2024-04-21T14:55:41.993Z</time>
      </trkpt>
      <trkpt lat="43.02402" lon="1.10245">
        <ele>372.2</ele>
        <time>2024-04-21T14:55:42.993Z</time>
      </trkpt>
      <trkpt lat="43.024" lon="1.1025">
        <ele>372.6</ele>
        <time>2024-04-21T14:55:43.993Z</time>
      </trkpt>
      <trkpt lat="43.02398" lon="1.10256">
        <ele>372.6</ele>
        <time>2024-04-21T14:55:44.993Z</time>
      </trkpt>
      <trkpt lat="43.02397" lon="1.10261">
        <ele>372.8</ele>
        <time>2024-04-21T14:55:45.993Z</time>
      </trkpt>
      <trkpt lat="43.02395" lon="1.10266">
        <ele>372.8</ele>
        <time>2024-04-21T14:55:46.993Z</time>
      </trkpt>
      <trkpt lat="43.02393" lon="1.10271">
        <ele>372.8</ele>
        <time>2024-04-21T14:55:47.993Z</time>
      </trkpt>
      <trkpt lat="43.0239" lon="1.10276">
        <ele>372.8</ele>
        <time>2024-04-21T14:55:48.993Z</time>
      </trkpt>
      <trkpt lat="43.02388" lon="1.10281">
        <ele>372.8</ele>
        <time>2024-04-21T14:55:49.993Z</time>
      </trkpt>
      <trkpt lat="43.02385" lon="1.10285">
        <ele>372.6</ele>
        <time>2024-04-21T14:55:50.993Z</time>
      </trkpt>
      <trkpt lat="43.02382" lon="1.10289">
        <ele>372.6</ele>
        <time>2024-04-21T14:55:51.993Z</time>
      </trkpt>
      <trkpt lat="43.0238" lon="1.10293">
        <ele>372.6</ele>
        <time>2024-04-21T14:55:52.993Z</time>
      </trkpt>
      <trkpt lat="43.02377" lon="1.10298">
        <ele>372.6</ele>
        <time>2024-04-21T14:55:53.993Z</time>
      </trkpt>
      <trkpt lat="43.02375" lon="1.10302">
        <ele>372.2</ele>
        <time>2024-04-21T14:55:54.993Z</time>
      </trkpt>
      <trkpt lat="43.02372" lon="1.10306">
        <ele>372.4</ele>
        <time>2024-04-21T14:55:55.993Z</time>
      </trkpt>
      <trkpt lat="43.0237" lon="1.10311">
        <ele>373</ele>
        <time>2024-04-21T14:55:56.993Z</time>
      </trkpt>
      <trkpt lat="43.02368" lon="1.10317">
        <ele>373</ele>
        <time>2024-04-21T14:55:57.993Z</time>
      </trkpt>
      <trkpt lat="43.02365" lon="1.10322">
        <ele>373</ele>
        <time>2024-04-21T14:55:58.993Z</time>
      </trkpt>
      <trkpt lat="43.02363" lon="1.10327">
        <ele>372.4</ele>
        <time>2024-04-21T14:55:59.993Z</time>
      </trkpt>
      <trkpt lat="43.02361" lon="1.10333">
        <ele>372.4</ele>
        <time>2024-04-21T14:56:00.993Z</time>
      </trkpt>
      <trkpt lat="43.02358" lon="1.10338">
        <ele>372.4</ele>
        <time>2024-04-21T14:56:01.993Z</time>
      </trkpt>
      <trkpt lat="43.02356" lon="1.10343">
        <ele>372.4</ele>
        <time>2024-04-21T14:56:02.993Z</time>
      </trkpt>
      <trkpt lat="43.02354" lon="1.10349">
        <ele>372.4</ele>
        <time>2024-04-21T14:56:03.993Z</time>
      </trkpt>
      <trkpt lat="43.02352" lon="1.10354">
        <ele>372.6</ele>
        <time>2024-04-21T14:56:04.993Z</time>
      </trkpt>
      <trkpt lat="43.0235" lon="1.1036">
        <ele>372.6</ele>
        <time>2024-04-21T14:56:05.993Z</time>
      </trkpt>
      <trkpt lat="43.02347" lon="1.10365">
        <ele>372.6</ele>
        <time>2024-04-21T14:56:06.993Z</time>
      </trkpt>
      <trkpt lat="43.02345" lon="1.1037">
        <ele>372.6</ele>
        <time>2024-04-21T14:56:07.993Z</time>
      </trkpt>
      <trkpt lat="43.02343" lon="1.10376">
        <ele>372.6</ele>
        <time>2024-04-21T14:56:08.993Z</time>
      </trkpt>
      <trkpt lat="43.02341" lon="1.10381">
        <ele>372.6</ele>
        <time>2024-04-21T14:56:09.993Z</time>
      </trkpt>
      <trkpt lat="43.02339" lon="1.10386">
        <ele>373</ele>
        <time>2024-04-21T14:56:10.993Z</time>
      </trkpt>
      <trkpt lat="43.02338" lon="1.1039">
        <ele>373</ele>
        <time>2024-04-21T14:56:11.993Z</time>
      </trkpt>
      <trkpt lat="43.02334" lon="1.10395">
        <ele>373</ele>
        <time>2024-04-21T14:56:12.993Z</time>
      </trkpt>
      <trkpt lat="43.02331" lon="1.10401">
        <ele>373.2</ele>
        <time>2024-04-21T14:56:13.993Z</time>
      </trkpt>
      <trkpt lat="43.02327" lon="1.10406">
        <ele>373.2</ele>
        <time>2024-04-21T14:56:14.993Z</time>
      </trkpt>
      <trkpt lat="43.02324" lon="1.10411">
        <ele>373.2</ele>
        <time>2024-04-21T14:56:15.993Z</time>
      </trkpt>
      <trkpt lat="43.02322" lon="1.10417">
        <ele>373.2</ele>
        <time>2024-04-21T14:56:16.993Z</time>
      </trkpt>
      <trkpt lat="43.02319" lon="1.10422">
        <ele>373.2</ele>
        <time>2024-04-21T14:56:17.993Z</time>
      </trkpt>
      <trkpt lat="43.02319" lon="1.10422">
        <ele>373.2</ele>
        <time>2024-04-21T14:56:18.993Z</time>
      </trkpt>
      <trkpt lat="43.02316" lon="1.10428">
        <ele>373.2</ele>
        <time>2024-04-21T14:56:19.993Z</time>
      </trkpt>
      <trkpt lat="43.02314" lon="1.10433">
        <ele>373.2</ele>
        <time>2024-04-21T14:56:20.993Z</time>
      </trkpt>
      <trkpt lat="43.02311" lon="1.10439">
        <ele>373.2</ele>
        <time>2024-04-21T14:56:21.993Z</time>
      </trkpt>
      <trkpt lat="43.02309" lon="1.10443">
        <ele>373.4</ele>
        <time>2024-04-21T14:56:22.993Z</time>
      </trkpt>
      <trkpt lat="43.02305" lon="1.10449">
        <ele>373.4</ele>
        <time>2024-04-21T14:56:23.993Z</time>
      </trkpt>
      <trkpt lat="43.02302" lon="1.10454">
        <ele>373.4</ele>
        <time>2024-04-21T14:56:24.993Z</time>
      </trkpt>
      <trkpt lat="43.02299" lon="1.10459">
        <ele>373.4</ele>
        <time>2024-04-21T14:56:25.993Z</time>
      </trkpt>
      <trkpt lat="43.02297" lon="1.10464">
        <ele>373.4</ele>
        <time>2024-04-21T14:56:26.993Z</time>
      </trkpt>
      <trkpt lat="43.02293" lon="1.10469">
        <ele>373.4</ele>
        <time>2024-04-21T14:56:27.993Z</time>
      </trkpt>
      <trkpt lat="43.02291" lon="1.10475">
        <ele>373.2</ele>
        <time>2024-04-21T14:56:28.993Z</time>
      </trkpt>
      <trkpt lat="43.02286" lon="1.1048">
        <ele>373.2</ele>
        <time>2024-04-21T14:56:29.993Z</time>
      </trkpt>
      <trkpt lat="43.02284" lon="1.10485">
        <ele>373.2</ele>
        <time>2024-04-21T14:56:30.993Z</time>
      </trkpt>
      <trkpt lat="43.0228" lon="1.10491">
        <ele>373.2</ele>
        <time>2024-04-21T14:56:31.993Z</time>
      </trkpt>
      <trkpt lat="43.02277" lon="1.10497">
        <ele>373.4</ele>
        <time>2024-04-21T14:56:32.993Z</time>
      </trkpt>
      <trkpt lat="43.02274" lon="1.10502">
        <ele>373.4</ele>
        <time>2024-04-21T14:56:33.993Z</time>
      </trkpt>
      <trkpt lat="43.02271" lon="1.10508">
        <ele>373.4</ele>
        <time>2024-04-21T14:56:34.993Z</time>
      </trkpt>
      <trkpt lat="43.02268" lon="1.10513">
        <ele>373.4</ele>
        <time>2024-04-21T14:56:35.993Z</time>
      </trkpt>
      <trkpt lat="43.02265" lon="1.10519">
        <ele>373.4</ele>
        <time>2024-04-21T14:56:36.993Z</time>
      </trkpt>
      <trkpt lat="43.02261" lon="1.10523">
        <ele>373.4</ele>
        <time>2024-04-21T14:56:37.993Z</time>
      </trkpt>
      <trkpt lat="43.02258" lon="1.10528">
        <ele>373.6</ele>
        <time>2024-04-21T14:56:38.993Z</time>
      </trkpt>
      <trkpt lat="43.02255" lon="1.10533">
        <ele>373.6</ele>
        <time>2024-04-21T14:56:39.993Z</time>
      </trkpt>
      <trkpt lat="43.02251" lon="1.10538">
        <ele>373.6</ele>
        <time>2024-04-21T14:56:40.993Z</time>
      </trkpt>
      <trkpt lat="43.02248" lon="1.10543">
        <ele>373.6</ele>
        <time>2024-04-21T14:56:41.993Z</time>
      </trkpt>
      <trkpt lat="43.02245" lon="1.10549">
        <ele>373.6</ele>
        <time>2024-04-21T14:56:42.993Z</time>
      </trkpt>
      <trkpt lat="43.02241" lon="1.10554">
        <ele>373.6</ele>
        <time>2024-04-21T14:56:43.993Z</time>
      </trkpt>
      <trkpt lat="43.02237" lon="1.10559">
        <ele>373.6</ele>
        <time>2024-04-21T14:56:44.993Z</time>
      </trkpt>
      <trkpt lat="43.02235" lon="1.10564">
        <ele>373.8</ele>
        <time>2024-04-21T14:56:45.993Z</time>
      </trkpt>
      <trkpt lat="43.02232" lon="1.10569">
        <ele>373.8</ele>
        <time>2024-04-21T14:56:46.993Z</time>
      </trkpt>
      <trkpt lat="43.02229" lon="1.10574">
        <ele>373.8</ele>
        <time>2024-04-21T14:56:47.993Z</time>
      </trkpt>
      <trkpt lat="43.02222" lon="1.10584">
        <ele>374</ele>
        <time>2024-04-21T14:56:48.993Z</time>
      </trkpt>
      <trkpt lat="43.02219" lon="1.10588">
        <ele>374</ele>
        <time>2024-04-21T14:56:49.993Z</time>
      </trkpt>
      <trkpt lat="43.02214" lon="1.10593">
        <ele>374</ele>
        <time>2024-04-21T14:56:50.993Z</time>
      </trkpt>
      <trkpt lat="43.02209" lon="1.10598">
        <ele>374.2</ele>
        <time>2024-04-21T14:56:51.993Z</time>
      </trkpt>
      <trkpt lat="43.02206" lon="1.10602">
        <ele>374.2</ele>
        <time>2024-04-21T14:56:52.993Z</time>
      </trkpt>
      <trkpt lat="43.02203" lon="1.10607">
        <ele>374.2</ele>
        <time>2024-04-21T14:56:53.993Z</time>
      </trkpt>
      <trkpt lat="43.02198" lon="1.10612">
        <ele>374.2</ele>
        <time>2024-04-21T14:56:54.993Z</time>
      </trkpt>
      <trkpt lat="43.02194" lon="1.10616">
        <ele>374.2</ele>
        <time>2024-04-21T14:56:55.993Z</time>
      </trkpt>
      <trkpt lat="43.02191" lon="1.10621">
        <ele>374.2</ele>
        <time>2024-04-21T14:56:56.993Z</time>
      </trkpt>
      <trkpt lat="43.02188" lon="1.10625">
        <ele>374.6</ele>
        <time>2024-04-21T14:56:57.993Z</time>
      </trkpt>
      <trkpt lat="43.02185" lon="1.10629">
        <ele>374.6</ele>
        <time>2024-04-21T14:56:58.993Z</time>
      </trkpt>
      <trkpt lat="43.02181" lon="1.10634">
        <ele>374.2</ele>
        <time>2024-04-21T14:56:59.993Z</time>
      </trkpt>
      <trkpt lat="43.02177" lon="1.10638">
        <ele>374.2</ele>
        <time>2024-04-21T14:57:00.993Z</time>
      </trkpt>
      <trkpt lat="43.02173" lon="1.10642">
        <ele>374.2</ele>
        <time>2024-04-21T14:57:01.993Z</time>
      </trkpt>
      <trkpt lat="43.0217" lon="1.10646">
        <ele>374.2</ele>
        <time>2024-04-21T14:57:02.993Z</time>
      </trkpt>
      <trkpt lat="43.02167" lon="1.10651">
        <ele>374.2</ele>
        <time>2024-04-21T14:57:03.993Z</time>
      </trkpt>
      <trkpt lat="43.02163" lon="1.10655">
        <ele>374.2</ele>
        <time>2024-04-21T14:57:04.993Z</time>
      </trkpt>
      <trkpt lat="43.0216" lon="1.10659">
        <ele>374.2</ele>
        <time>2024-04-21T14:57:05.993Z</time>
      </trkpt>
      <trkpt lat="43.02157" lon="1.10665">
        <ele>374.6</ele>
        <time>2024-04-21T14:57:06.993Z</time>
      </trkpt>
      <trkpt lat="43.02154" lon="1.10668">
        <ele>374.6</ele>
        <time>2024-04-21T14:57:07.993Z</time>
      </trkpt>
      <trkpt lat="43.02151" lon="1.10673">
        <ele>374.6</ele>
        <time>2024-04-21T14:57:08.993Z</time>
      </trkpt>
      <trkpt lat="43.02147" lon="1.10677">
        <ele>374.6</ele>
        <time>2024-04-21T14:57:09.993Z</time>
      </trkpt>
      <trkpt lat="43.02144" lon="1.10681">
        <ele>374.6</ele>
        <time>2024-04-21T14:57:10.993Z</time>
      </trkpt>
      <trkpt lat="43.02139" lon="1.10685">
        <ele>374.8</ele>
        <time>2024-04-21T14:57:11.993Z</time>
      </trkpt>
      <trkpt lat="43.02136" lon="1.1069">
        <ele>374.8</ele>
        <time>2024-04-21T14:57:12.993Z</time>
      </trkpt>
      <trkpt lat="43.02133" lon="1.10695">
        <ele>375</ele>
        <time>2024-04-21T14:57:13.993Z</time>
      </trkpt>
      <trkpt lat="43.02129" lon="1.10699">
        <ele>375</ele>
        <time>2024-04-21T14:57:14.993Z</time>
      </trkpt>
      <trkpt lat="43.02124" lon="1.10703">
        <ele>375</ele>
        <time>2024-04-21T14:57:15.993Z</time>
      </trkpt>
      <trkpt lat="43.02122" lon="1.10708">
        <ele>375</ele>
        <time>2024-04-21T14:57:16.993Z</time>
      </trkpt>
      <trkpt lat="43.02118" lon="1.10711">
        <ele>375</ele>
        <time>2024-04-21T14:57:17.993Z</time>
      </trkpt>
      <trkpt lat="43.02114" lon="1.10717">
        <ele>375</ele>
        <time>2024-04-21T14:57:18.993Z</time>
      </trkpt>
      <trkpt lat="43.0211" lon="1.1072">
        <ele>375</ele>
        <time>2024-04-21T14:57:19.993Z</time>
      </trkpt>
      <trkpt lat="43.02106" lon="1.10726">
        <ele>375</ele>
        <time>2024-04-21T14:57:20.993Z</time>
      </trkpt>
      <trkpt lat="43.02104" lon="1.1073">
        <ele>375.2</ele>
        <time>2024-04-21T14:57:21.993Z</time>
      </trkpt>
      <trkpt lat="43.021" lon="1.10735">
        <ele>375.6</ele>
        <time>2024-04-21T14:57:22.993Z</time>
      </trkpt>
      <trkpt lat="43.02096" lon="1.10738">
        <ele>375.6</ele>
        <time>2024-04-21T14:57:23.993Z</time>
      </trkpt>
      <trkpt lat="43.02093" lon="1.10743">
        <ele>374.6</ele>
        <time>2024-04-21T14:57:24.993Z</time>
      </trkpt>
      <trkpt lat="43.02089" lon="1.10746">
        <ele>375</ele>
        <time>2024-04-21T14:57:25.993Z</time>
      </trkpt>
      <trkpt lat="43.02084" lon="1.1075">
        <ele>375</ele>
        <time>2024-04-21T14:57:26.993Z</time>
      </trkpt>
      <trkpt lat="43.02081" lon="1.10754">
        <ele>375.4</ele>
        <time>2024-04-21T14:57:27.993Z</time>
      </trkpt>
      <trkpt lat="43.02077" lon="1.10759">
        <ele>375.4</ele>
        <time>2024-04-21T14:57:28.993Z</time>
      </trkpt>
      <trkpt lat="43.02074" lon="1.10763">
        <ele>375.6</ele>
        <time>2024-04-21T14:57:29.993Z</time>
      </trkpt>
      <trkpt lat="43.0207" lon="1.10766">
        <ele>376</ele>
        <time>2024-04-21T14:57:30.993Z</time>
      </trkpt>
      <trkpt lat="43.02066" lon="1.1077">
        <ele>376</ele>
        <time>2024-04-21T14:57:31.993Z</time>
      </trkpt>
      <trkpt lat="43.02061" lon="1.10775">
        <ele>376</ele>
        <time>2024-04-21T14:57:32.993Z</time>
      </trkpt>
      <trkpt lat="43.02056" lon="1.10779">
        <ele>376</ele>
        <time>2024-04-21T14:57:33.993Z</time>
      </trkpt>
      <trkpt lat="43.02052" lon="1.10783">
        <ele>376</ele>
        <time>2024-04-21T14:57:34.993Z</time>
      </trkpt>
      <trkpt lat="43.02048" lon="1.10787">
        <ele>376</ele>
        <time>2024-04-21T14:57:35.993Z</time>
      </trkpt>
      <trkpt lat="43.02045" lon="1.1079">
        <ele>376.2</ele>
        <time>2024-04-21T14:57:36.993Z</time>
      </trkpt>
      <trkpt lat="43.02041" lon="1.10794">
        <ele>376.2</ele>
        <time>2024-04-21T14:57:37.993Z</time>
      </trkpt>
      <trkpt lat="43.02037" lon="1.10798">
        <ele>376.2</ele>
        <time>2024-04-21T14:57:38.993Z</time>
      </trkpt>
      <trkpt lat="43.02034" lon="1.10803">
        <ele>376.2</ele>
        <time>2024-04-21T14:57:39.993Z</time>
      </trkpt>
      <trkpt lat="43.02031" lon="1.10806">
        <ele>376.2</ele>
        <time>2024-04-21T14:57:40.993Z</time>
      </trkpt>
      <trkpt lat="43.02028" lon="1.10811">
        <ele>376.2</ele>
        <time>2024-04-21T14:57:41.993Z</time>
      </trkpt>
      <trkpt lat="43.02025" lon="1.10814">
        <ele>376.2</ele>
        <time>2024-04-21T14:57:42.993Z</time>
      </trkpt>
      <trkpt lat="43.02021" lon="1.10815">
        <ele>376.2</ele>
        <time>2024-04-21T14:57:43.993Z</time>
      </trkpt>
      <trkpt lat="43.02018" lon="1.10819">
        <ele>376</ele>
        <time>2024-04-21T14:57:44.993Z</time>
      </trkpt>
      <trkpt lat="43.02015" lon="1.10823">
        <ele>376</ele>
        <time>2024-04-21T14:57:45.993Z</time>
      </trkpt>
      <trkpt lat="43.02012" lon="1.10827">
        <ele>376</ele>
        <time>2024-04-21T14:57:46.993Z</time>
      </trkpt>
      <trkpt lat="43.02007" lon="1.10831">
        <ele>376</ele>
        <time>2024-04-21T14:57:47.993Z</time>
      </trkpt>
      <trkpt lat="43.02004" lon="1.10835">
        <ele>376</ele>
        <time>2024-04-21T14:57:48.993Z</time>
      </trkpt>
      <trkpt lat="43.02" lon="1.10839">
        <ele>376.2</ele>
        <time>2024-04-21T14:57:49.993Z</time>
      </trkpt>
      <trkpt lat="43.01997" lon="1.10843">
        <ele>376.2</ele>
        <time>2024-04-21T14:57:50.993Z</time>
      </trkpt>
      <trkpt lat="43.01993" lon="1.10847">
        <ele>376.4</ele>
        <time>2024-04-21T14:57:51.993Z</time>
      </trkpt>
      <trkpt lat="43.0199" lon="1.10851">
        <ele>376.2</ele>
        <time>2024-04-21T14:57:52.993Z</time>
      </trkpt>
      <trkpt lat="43.01987" lon="1.10855">
        <ele>376.2</ele>
        <time>2024-04-21T14:57:53.993Z</time>
      </trkpt>
      <trkpt lat="43.01983" lon="1.10858">
        <ele>376.2</ele>
        <time>2024-04-21T14:57:54.993Z</time>
      </trkpt>
      <trkpt lat="43.0198" lon="1.10862">
        <ele>376.4</ele>
        <time>2024-04-21T14:57:55.993Z</time>
      </trkpt>
      <trkpt lat="43.01976" lon="1.10865">
        <ele>376.4</ele>
        <time>2024-04-21T14:57:56.993Z</time>
      </trkpt>
      <trkpt lat="43.01972" lon="1.1087">
        <ele>376.4</ele>
        <time>2024-04-21T14:57:57.993Z</time>
      </trkpt>
      <trkpt lat="43.01969" lon="1.10874">
        <ele>376.4</ele>
        <time>2024-04-21T14:57:58.993Z</time>
      </trkpt>
      <trkpt lat="43.01965" lon="1.10878">
        <ele>376.4</ele>
        <time>2024-04-21T14:57:59.993Z</time>
      </trkpt>
      <trkpt lat="43.01962" lon="1.10882">
        <ele>376.8</ele>
        <time>2024-04-21T14:58:00.993Z</time>
      </trkpt>
      <trkpt lat="43.01958" lon="1.10886">
        <ele>376.8</ele>
        <time>2024-04-21T14:58:01.993Z</time>
      </trkpt>
      <trkpt lat="43.01955" lon="1.1089">
        <ele>376.8</ele>
        <time>2024-04-21T14:58:02.993Z</time>
      </trkpt>
      <trkpt lat="43.01952" lon="1.10894">
        <ele>376.6</ele>
        <time>2024-04-21T14:58:03.993Z</time>
      </trkpt>
      <trkpt lat="43.01948" lon="1.10898">
        <ele>376.8</ele>
        <time>2024-04-21T14:58:04.993Z</time>
      </trkpt>
      <trkpt lat="43.01945" lon="1.10902">
        <ele>376.8</ele>
        <time>2024-04-21T14:58:05.993Z</time>
      </trkpt>
      <trkpt lat="43.01941" lon="1.10906">
        <ele>377</ele>
        <time>2024-04-21T14:58:06.993Z</time>
      </trkpt>
      <trkpt lat="43.01938" lon="1.10911">
        <ele>377</ele>
        <time>2024-04-21T14:58:07.993Z</time>
      </trkpt>
      <trkpt lat="43.01934" lon="1.10915">
        <ele>377</ele>
        <time>2024-04-21T14:58:08.993Z</time>
      </trkpt>
      <trkpt lat="43.0193" lon="1.10919">
        <ele>376.6</ele>
        <time>2024-04-21T14:58:09.993Z</time>
      </trkpt>
      <trkpt lat="43.01926" lon="1.10924">
        <ele>376.6</ele>
        <time>2024-04-21T14:58:10.993Z</time>
      </trkpt>
      <trkpt lat="43.01922" lon="1.10928">
        <ele>376.6</ele>
        <time>2024-04-21T14:58:11.993Z</time>
      </trkpt>
      <trkpt lat="43.01919" lon="1.10933">
        <ele>376.6</ele>
        <time>2024-04-21T14:58:12.993Z</time>
      </trkpt>
      <trkpt lat="43.01915" lon="1.10936">
        <ele>376.6</ele>
        <time>2024-04-21T14:58:13.993Z</time>
      </trkpt>
      <trkpt lat="43.01911" lon="1.1094">
        <ele>377.2</ele>
        <time>2024-04-21T14:58:14.993Z</time>
      </trkpt>
      <trkpt lat="43.01907" lon="1.10944">
        <ele>377.4</ele>
        <time>2024-04-21T14:58:15.993Z</time>
      </trkpt>
      <trkpt lat="43.01904" lon="1.10948">
        <ele>377.4</ele>
        <time>2024-04-21T14:58:16.993Z</time>
      </trkpt>
      <trkpt lat="43.019" lon="1.10951">
        <ele>377.6</ele>
        <time>2024-04-21T14:58:17.993Z</time>
      </trkpt>
      <trkpt lat="43.01896" lon="1.10955">
        <ele>377.2</ele>
        <time>2024-04-21T14:58:18.993Z</time>
      </trkpt>
      <trkpt lat="43.01892" lon="1.1096">
        <ele>377.2</ele>
        <time>2024-04-21T14:58:19.993Z</time>
      </trkpt>
      <trkpt lat="43.01887" lon="1.10964">
        <ele>377.4</ele>
        <time>2024-04-21T14:58:20.993Z</time>
      </trkpt>
      <trkpt lat="43.01885" lon="1.10969">
        <ele>377.4</ele>
        <time>2024-04-21T14:58:21.993Z</time>
      </trkpt>
      <trkpt lat="43.01881" lon="1.10973">
        <ele>377.4</ele>
        <time>2024-04-21T14:58:22.993Z</time>
      </trkpt>
      <trkpt lat="43.01877" lon="1.10976">
        <ele>377.4</ele>
        <time>2024-04-21T14:58:23.993Z</time>
      </trkpt>
      <trkpt lat="43.01872" lon="1.1098">
        <ele>377.4</ele>
        <time>2024-04-21T14:58:24.993Z</time>
      </trkpt>
      <trkpt lat="43.01868" lon="1.10985">
        <ele>377.2</ele>
        <time>2024-04-21T14:58:25.993Z</time>
      </trkpt>
      <trkpt lat="43.01865" lon="1.10989">
        <ele>377.2</ele>
        <time>2024-04-21T14:58:26.993Z</time>
      </trkpt>
      <trkpt lat="43.01861" lon="1.10993">
        <ele>377.6</ele>
        <time>2024-04-21T14:58:27.993Z</time>
      </trkpt>
      <trkpt lat="43.01856" lon="1.10997">
        <ele>377.6</ele>
        <time>2024-04-21T14:58:28.993Z</time>
      </trkpt>
      <trkpt lat="43.01852" lon="1.11001">
        <ele>377.6</ele>
        <time>2024-04-21T14:58:29.993Z</time>
      </trkpt>
      <trkpt lat="43.01848" lon="1.11006">
        <ele>377.6</ele>
        <time>2024-04-21T14:58:30.993Z</time>
      </trkpt>
      <trkpt lat="43.01845" lon="1.11011">
        <ele>377.6</ele>
        <time>2024-04-21T14:58:31.993Z</time>
      </trkpt>
      <trkpt lat="43.01841" lon="1.11014">
        <ele>377.6</ele>
        <time>2024-04-21T14:58:32.993Z</time>
      </trkpt>
      <trkpt lat="43.01837" lon="1.11017">
        <ele>377.6</ele>
        <time>2024-04-21T14:58:33.993Z</time>
      </trkpt>
      <trkpt lat="43.01833" lon="1.11022">
        <ele>377.4</ele>
        <time>2024-04-21T14:58:34.993Z</time>
      </trkpt>
      <trkpt lat="43.0183" lon="1.11026">
        <ele>377.4</ele>
        <time>2024-04-21T14:58:35.993Z</time>
      </trkpt>
      <trkpt lat="43.01827" lon="1.1103">
        <ele>377.4</ele>
        <time>2024-04-21T14:58:36.993Z</time>
      </trkpt>
      <trkpt lat="43.01823" lon="1.11034">
        <ele>377.4</ele>
        <time>2024-04-21T14:58:37.993Z</time>
      </trkpt>
      <trkpt lat="43.01819" lon="1.11038">
        <ele>377.6</ele>
        <time>2024-04-21T14:58:38.993Z</time>
      </trkpt>
      <trkpt lat="43.01815" lon="1.11042">
        <ele>378</ele>
        <time>2024-04-21T14:58:39.993Z</time>
      </trkpt>
      <trkpt lat="43.01811" lon="1.11046">
        <ele>378</ele>
        <time>2024-04-21T14:58:40.993Z</time>
      </trkpt>
      <trkpt lat="43.01807" lon="1.11051">
        <ele>377.6</ele>
        <time>2024-04-21T14:58:41.993Z</time>
      </trkpt>
      <trkpt lat="43.01803" lon="1.11055">
        <ele>377.6</ele>
        <time>2024-04-21T14:58:42.993Z</time>
      </trkpt>
      <trkpt lat="43.01799" lon="1.11059">
        <ele>378</ele>
        <time>2024-04-21T14:58:43.993Z</time>
      </trkpt>
      <trkpt lat="43.01796" lon="1.11064">
        <ele>378</ele>
        <time>2024-04-21T14:58:44.993Z</time>
      </trkpt>
      <trkpt lat="43.01792" lon="1.11068">
        <ele>378</ele>
        <time>2024-04-21T14:58:45.993Z</time>
      </trkpt>
      <trkpt lat="43.01788" lon="1.11073">
        <ele>378</ele>
        <time>2024-04-21T14:58:46.993Z</time>
      </trkpt>
      <trkpt lat="43.01784" lon="1.11077">
        <ele>377.6</ele>
        <time>2024-04-21T14:58:47.993Z</time>
      </trkpt>
      <trkpt lat="43.0178" lon="1.11082">
        <ele>377.6</ele>
        <time>2024-04-21T14:58:48.993Z</time>
      </trkpt>
      <trkpt lat="43.01777" lon="1.11086">
        <ele>377.6</ele>
        <time>2024-04-21T14:58:49.993Z</time>
      </trkpt>
      <trkpt lat="43.01772" lon="1.1109">
        <ele>377.6</ele>
        <time>2024-04-21T14:58:50.993Z</time>
      </trkpt>
      <trkpt lat="43.01769" lon="1.11095">
        <ele>377.6</ele>
        <time>2024-04-21T14:58:51.993Z</time>
      </trkpt>
      <trkpt lat="43.01765" lon="1.11099">
        <ele>377.6</ele>
        <time>2024-04-21T14:58:52.993Z</time>
      </trkpt>
      <trkpt lat="43.01761" lon="1.11102">
        <ele>377.6</ele>
        <time>2024-04-21T14:58:53.993Z</time>
      </trkpt>
      <trkpt lat="43.01758" lon="1.11106">
        <ele>377.6</ele>
        <time>2024-04-21T14:58:54.993Z</time>
      </trkpt>
      <trkpt lat="43.01755" lon="1.11111">
        <ele>377.8</ele>
        <time>2024-04-21T14:58:55.993Z</time>
      </trkpt>
      <trkpt lat="43.01751" lon="1.11114">
        <ele>377.8</ele>
        <time>2024-04-21T14:58:56.993Z</time>
      </trkpt>
      <trkpt lat="43.01747" lon="1.11118">
        <ele>377.8</ele>
        <time>2024-04-21T14:58:57.993Z</time>
      </trkpt>
      <trkpt lat="43.01744" lon="1.11122">
        <ele>377.8</ele>
        <time>2024-04-21T14:58:58.993Z</time>
      </trkpt>
      <trkpt lat="43.01741" lon="1.11126">
        <ele>377.8</ele>
        <time>2024-04-21T14:58:59.993Z</time>
      </trkpt>
      <trkpt lat="43.01737" lon="1.11131">
        <ele>378</ele>
        <time>2024-04-21T14:59:00.993Z</time>
      </trkpt>
      <trkpt lat="43.01733" lon="1.11135">
        <ele>378</ele>
        <time>2024-04-21T14:59:01.993Z</time>
      </trkpt>
      <trkpt lat="43.01729" lon="1.1114">
        <ele>378</ele>
        <time>2024-04-21T14:59:02.993Z</time>
      </trkpt>
      <trkpt lat="43.01729" lon="1.1114">
        <ele>378.4</ele>
        <time>2024-04-21T14:59:03.993Z</time>
      </trkpt>
      <trkpt lat="43.01725" lon="1.11144">
        <ele>378.4</ele>
        <time>2024-04-21T14:59:04.993Z</time>
      </trkpt>
      <trkpt lat="43.01722" lon="1.11148">
        <ele>378.4</ele>
        <time>2024-04-21T14:59:05.993Z</time>
      </trkpt>
      <trkpt lat="43.01718" lon="1.11153">
        <ele>378.4</ele>
        <time>2024-04-21T14:59:06.993Z</time>
      </trkpt>
      <trkpt lat="43.01714" lon="1.11157">
        <ele>378.4</ele>
        <time>2024-04-21T14:59:07.993Z</time>
      </trkpt>
      <trkpt lat="43.01711" lon="1.11161">
        <ele>378.4</ele>
        <time>2024-04-21T14:59:08.993Z</time>
      </trkpt>
      <trkpt lat="43.01707" lon="1.11165">
        <ele>378.4</ele>
        <time>2024-04-21T14:59:09.993Z</time>
      </trkpt>
      <trkpt lat="43.01703" lon="1.1117">
        <ele>378.4</ele>
        <time>2024-04-21T14:59:10.993Z</time>
      </trkpt>
      <trkpt lat="43.01699" lon="1.11174">
        <ele>378.4</ele>
        <time>2024-04-21T14:59:11.993Z</time>
      </trkpt>
      <trkpt lat="43.01695" lon="1.11179">
        <ele>378.4</ele>
        <time>2024-04-21T14:59:12.993Z</time>
      </trkpt>
      <trkpt lat="43.01691" lon="1.11183">
        <ele>378.4</ele>
        <time>2024-04-21T14:59:13.993Z</time>
      </trkpt>
      <trkpt lat="43.01688" lon="1.11187">
        <ele>378.4</ele>
        <time>2024-04-21T14:59:14.993Z</time>
      </trkpt>
      <trkpt lat="43.01684" lon="1.11191">
        <ele>378.4</ele>
        <time>2024-04-21T14:59:15.993Z</time>
      </trkpt>
      <trkpt lat="43.0168" lon="1.11195">
        <ele>378.6</ele>
        <time>2024-04-21T14:59:16.993Z</time>
      </trkpt>
      <trkpt lat="43.01677" lon="1.11199">
        <ele>378.8</ele>
        <time>2024-04-21T14:59:17.993Z</time>
      </trkpt>
      <trkpt lat="43.01673" lon="1.11203">
        <ele>378.8</ele>
        <time>2024-04-21T14:59:18.993Z</time>
      </trkpt>
      <trkpt lat="43.01669" lon="1.11207">
        <ele>379</ele>
        <time>2024-04-21T14:59:19.993Z</time>
      </trkpt>
      <trkpt lat="43.01667" lon="1.11209">
        <ele>379</ele>
        <time>2024-04-21T14:59:20.993Z</time>
      </trkpt>
      <trkpt lat="43.01663" lon="1.11213">
        <ele>378.6</ele>
        <time>2024-04-21T14:59:21.993Z</time>
      </trkpt>
      <trkpt lat="43.0166" lon="1.11217">
        <ele>378.6</ele>
        <time>2024-04-21T14:59:22.993Z</time>
      </trkpt>
      <trkpt lat="43.01657" lon="1.1122">
        <ele>378.4</ele>
        <time>2024-04-21T14:59:23.993Z</time>
      </trkpt>
      <trkpt lat="43.01653" lon="1.11223">
        <ele>378.4</ele>
        <time>2024-04-21T14:59:24.993Z</time>
      </trkpt>
      <trkpt lat="43.01649" lon="1.11226">
        <ele>378.4</ele>
        <time>2024-04-21T14:59:25.993Z</time>
      </trkpt>
      <trkpt lat="43.01646" lon="1.1123">
        <ele>378.4</ele>
        <time>2024-04-21T14:59:26.993Z</time>
      </trkpt>
      <trkpt lat="43.01643" lon="1.11234">
        <ele>378.4</ele>
        <time>2024-04-21T14:59:27.993Z</time>
      </trkpt>
      <trkpt lat="43.0164" lon="1.11238">
        <ele>378.4</ele>
        <time>2024-04-21T14:59:28.993Z</time>
      </trkpt>
      <trkpt lat="43.01637" lon="1.11242">
        <ele>378.4</ele>
        <time>2024-04-21T14:59:29.993Z</time>
      </trkpt>
      <trkpt lat="43.01634" lon="1.11246">
        <ele>378.4</ele>
        <time>2024-04-21T14:59:30.993Z</time>
      </trkpt>
      <trkpt lat="43.0163" lon="1.11248">
        <ele>378.4</ele>
        <time>2024-04-21T14:59:31.993Z</time>
      </trkpt>
      <trkpt lat="43.01626" lon="1.11253">
        <ele>378.4</ele>
        <time>2024-04-21T14:59:32.993Z</time>
      </trkpt>
      <trkpt lat="43.01622" lon="1.11255">
        <ele>378.4</ele>
        <time>2024-04-21T14:59:33.993Z</time>
      </trkpt>
      <trkpt lat="43.0162" lon="1.11259">
        <ele>378.4</ele>
        <time>2024-04-21T14:59:34.993Z</time>
      </trkpt>
      <trkpt lat="43.01613" lon="1.11266">
        <ele>378.4</ele>
        <time>2024-04-21T14:59:35.993Z</time>
      </trkpt>
      <trkpt lat="43.0161" lon="1.11269">
        <ele>378.4</ele>
        <time>2024-04-21T14:59:36.993Z</time>
      </trkpt>
      <trkpt lat="43.01607" lon="1.11272">
        <ele>378.4</ele>
        <time>2024-04-21T14:59:37.993Z</time>
      </trkpt>
      <trkpt lat="43.01604" lon="1.11275">
        <ele>378.4</ele>
        <time>2024-04-21T14:59:38.993Z</time>
      </trkpt>
      <trkpt lat="43.01603" lon="1.1128">
        <ele>378.4</ele>
        <time>2024-04-21T14:59:39.993Z</time>
      </trkpt>
      <trkpt lat="43.016" lon="1.11283">
        <ele>378.4</ele>
        <time>2024-04-21T14:59:40.993Z</time>
      </trkpt>
      <trkpt lat="43.01596" lon="1.11287">
        <ele>378.4</ele>
        <time>2024-04-21T14:59:41.993Z</time>
      </trkpt>
      <trkpt lat="43.01592" lon="1.11291">
        <ele>378.4</ele>
        <time>2024-04-21T14:59:42.993Z</time>
      </trkpt>
      <trkpt lat="43.01588" lon="1.11295">
        <ele>378.4</ele>
        <time>2024-04-21T14:59:43.993Z</time>
      </trkpt>
      <trkpt lat="43.01585" lon="1.11299">
        <ele>378.4</ele>
        <time>2024-04-21T14:59:44.993Z</time>
      </trkpt>
      <trkpt lat="43.01581" lon="1.11303">
        <ele>378.4</ele>
        <time>2024-04-21T14:59:45.993Z</time>
      </trkpt>
      <trkpt lat="43.01578" lon="1.11306">
        <ele>378.4</ele>
        <time>2024-04-21T14:59:46.993Z</time>
      </trkpt>
      <trkpt lat="43.01576" lon="1.11311">
        <ele>378.4</ele>
        <time>2024-04-21T14:59:47.993Z</time>
      </trkpt>
      <trkpt lat="43.01573" lon="1.11313">
        <ele>378.2</ele>
        <time>2024-04-21T14:59:48.993Z</time>
      </trkpt>
      <trkpt lat="43.01571" lon="1.11317">
        <ele>378</ele>
        <time>2024-04-21T14:59:49.993Z</time>
      </trkpt>
      <trkpt lat="43.01568" lon="1.1132">
        <ele>378</ele>
        <time>2024-04-21T14:59:50.993Z</time>
      </trkpt>
      <trkpt lat="43.01565" lon="1.11322">
        <ele>378</ele>
        <time>2024-04-21T14:59:51.993Z</time>
      </trkpt>
      <trkpt lat="43.01561" lon="1.11326">
        <ele>378</ele>
        <time>2024-04-21T14:59:52.993Z</time>
      </trkpt>
      <trkpt lat="43.01559" lon="1.1133">
        <ele>378</ele>
        <time>2024-04-21T14:59:53.993Z</time>
      </trkpt>
      <trkpt lat="43.01556" lon="1.11333">
        <ele>378</ele>
        <time>2024-04-21T14:59:54.993Z</time>
      </trkpt>
      <trkpt lat="43.01553" lon="1.11337">
        <ele>378</ele>
        <time>2024-04-21T14:59:55.993Z</time>
      </trkpt>
      <trkpt lat="43.01551" lon="1.1134">
        <ele>378</ele>
        <time>2024-04-21T14:59:56.993Z</time>
      </trkpt>
      <trkpt lat="43.01546" lon="1.11343">
        <ele>378</ele>
        <time>2024-04-21T14:59:57.993Z</time>
      </trkpt>
      <trkpt lat="43.01542" lon="1.11348">
        <ele>378</ele>
        <time>2024-04-21T14:59:58.993Z</time>
      </trkpt>
      <trkpt lat="43.01539" lon="1.11352">
        <ele>378</ele>
        <time>2024-04-21T14:59:59.993Z</time>
      </trkpt>
      <trkpt lat="43.01535" lon="1.11356">
        <ele>378.2</ele>
        <time>2024-04-21T15:00:00.993Z</time>
      </trkpt>
      <trkpt lat="43.01532" lon="1.1136">
        <ele>378.2</ele>
        <time>2024-04-21T15:00:01.993Z</time>
      </trkpt>
      <trkpt lat="43.01528" lon="1.11364">
        <ele>378.2</ele>
        <time>2024-04-21T15:00:02.993Z</time>
      </trkpt>
      <trkpt lat="43.01524" lon="1.11369">
        <ele>377.8</ele>
        <time>2024-04-21T15:00:03.993Z</time>
      </trkpt>
      <trkpt lat="43.0152" lon="1.11373">
        <ele>377.8</ele>
        <time>2024-04-21T15:00:04.993Z</time>
      </trkpt>
      <trkpt lat="43.01517" lon="1.11377">
        <ele>377.8</ele>
        <time>2024-04-21T15:00:05.993Z</time>
      </trkpt>
      <trkpt lat="43.01514" lon="1.11382">
        <ele>377.8</ele>
        <time>2024-04-21T15:00:06.993Z</time>
      </trkpt>
      <trkpt lat="43.0151" lon="1.11386">
        <ele>377.8</ele>
        <time>2024-04-21T15:00:07.993Z</time>
      </trkpt>
      <trkpt lat="43.01506" lon="1.1139">
        <ele>377.8</ele>
        <time>2024-04-21T15:00:08.993Z</time>
      </trkpt>
      <trkpt lat="43.01503" lon="1.11394">
        <ele>377.8</ele>
        <time>2024-04-21T15:00:09.993Z</time>
      </trkpt>
      <trkpt lat="43.01499" lon="1.11397">
        <ele>377.8</ele>
        <time>2024-04-21T15:00:10.993Z</time>
      </trkpt>
      <trkpt lat="43.01496" lon="1.11401">
        <ele>377.8</ele>
        <time>2024-04-21T15:00:11.993Z</time>
      </trkpt>
      <trkpt lat="43.01492" lon="1.11404">
        <ele>377.8</ele>
        <time>2024-04-21T15:00:12.993Z</time>
      </trkpt>
      <trkpt lat="43.0149" lon="1.11407">
        <ele>377.8</ele>
        <time>2024-04-21T15:00:13.993Z</time>
      </trkpt>
      <trkpt lat="43.01486" lon="1.11411">
        <ele>377.8</ele>
        <time>2024-04-21T15:00:14.993Z</time>
      </trkpt>
      <trkpt lat="43.01482" lon="1.11414">
        <ele>377.8</ele>
        <time>2024-04-21T15:00:15.993Z</time>
      </trkpt>
      <trkpt lat="43.01479" lon="1.11418">
        <ele>377.8</ele>
        <time>2024-04-21T15:00:16.993Z</time>
      </trkpt>
      <trkpt lat="43.01476" lon="1.11422">
        <ele>377.8</ele>
        <time>2024-04-21T15:00:17.993Z</time>
      </trkpt>
      <trkpt lat="43.01473" lon="1.11425">
        <ele>377.8</ele>
        <time>2024-04-21T15:00:18.993Z</time>
      </trkpt>
      <trkpt lat="43.0147" lon="1.11429">
        <ele>377.8</ele>
        <time>2024-04-21T15:00:19.993Z</time>
      </trkpt>
      <trkpt lat="43.01466" lon="1.11433">
        <ele>377.8</ele>
        <time>2024-04-21T15:00:20.993Z</time>
      </trkpt>
      <trkpt lat="43.01462" lon="1.11435">
        <ele>377.8</ele>
        <time>2024-04-21T15:00:21.993Z</time>
      </trkpt>
      <trkpt lat="43.01459" lon="1.11439">
        <ele>377.8</ele>
        <time>2024-04-21T15:00:22.993Z</time>
      </trkpt>
      <trkpt lat="43.01455" lon="1.11442">
        <ele>377.8</ele>
        <time>2024-04-21T15:00:23.993Z</time>
      </trkpt>
      <trkpt lat="43.01451" lon="1.11446">
        <ele>377.8</ele>
        <time>2024-04-21T15:00:24.993Z</time>
      </trkpt>
      <trkpt lat="43.01448" lon="1.11449">
        <ele>377.8</ele>
        <time>2024-04-21T15:00:25.993Z</time>
      </trkpt>
      <trkpt lat="43.01445" lon="1.11454">
        <ele>377.4</ele>
        <time>2024-04-21T15:00:26.993Z</time>
      </trkpt>
      <trkpt lat="43.01441" lon="1.11457">
        <ele>377.4</ele>
        <time>2024-04-21T15:00:27.993Z</time>
      </trkpt>
      <trkpt lat="43.01437" lon="1.11461">
        <ele>377.2</ele>
        <time>2024-04-21T15:00:28.993Z</time>
      </trkpt>
      <trkpt lat="43.01434" lon="1.11464">
        <ele>377.4</ele>
        <time>2024-04-21T15:00:29.993Z</time>
      </trkpt>
      <trkpt lat="43.0143" lon="1.11467">
        <ele>377.4</ele>
        <time>2024-04-21T15:00:30.993Z</time>
      </trkpt>
      <trkpt lat="43.01428" lon="1.11471">
        <ele>377.2</ele>
        <time>2024-04-21T15:00:31.993Z</time>
      </trkpt>
      <trkpt lat="43.01425" lon="1.11475">
        <ele>377.2</ele>
        <time>2024-04-21T15:00:32.993Z</time>
      </trkpt>
      <trkpt lat="43.01422" lon="1.11478">
        <ele>377.2</ele>
        <time>2024-04-21T15:00:33.993Z</time>
      </trkpt>
      <trkpt lat="43.01419" lon="1.11482">
        <ele>377.2</ele>
        <time>2024-04-21T15:00:34.993Z</time>
      </trkpt>
      <trkpt lat="43.01416" lon="1.11485">
        <ele>377.2</ele>
        <time>2024-04-21T15:00:35.993Z</time>
      </trkpt>
      <trkpt lat="43.01413" lon="1.1149">
        <ele>377.2</ele>
        <time>2024-04-21T15:00:36.993Z</time>
      </trkpt>
      <trkpt lat="43.0141" lon="1.11494">
        <ele>377</ele>
        <time>2024-04-21T15:00:37.993Z</time>
      </trkpt>
      <trkpt lat="43.01406" lon="1.11497">
        <ele>377</ele>
        <time>2024-04-21T15:00:38.993Z</time>
      </trkpt>
      <trkpt lat="43.01403" lon="1.11501">
        <ele>377</ele>
        <time>2024-04-21T15:00:39.993Z</time>
      </trkpt>
      <trkpt lat="43.01399" lon="1.11504">
        <ele>377</ele>
        <time>2024-04-21T15:00:40.993Z</time>
      </trkpt>
      <trkpt lat="43.01396" lon="1.11508">
        <ele>377</ele>
        <time>2024-04-21T15:00:41.993Z</time>
      </trkpt>
      <trkpt lat="43.01393" lon="1.11512">
        <ele>377</ele>
        <time>2024-04-21T15:00:42.993Z</time>
      </trkpt>
      <trkpt lat="43.0139" lon="1.11515">
        <ele>377</ele>
        <time>2024-04-21T15:00:43.993Z</time>
      </trkpt>
      <trkpt lat="43.01386" lon="1.11519">
        <ele>377</ele>
        <time>2024-04-21T15:00:44.993Z</time>
      </trkpt>
      <trkpt lat="43.01383" lon="1.11523">
        <ele>377.4</ele>
        <time>2024-04-21T15:00:45.993Z</time>
      </trkpt>
      <trkpt lat="43.0138" lon="1.11527">
        <ele>377.4</ele>
        <time>2024-04-21T15:00:46.993Z</time>
      </trkpt>
      <trkpt lat="43.01377" lon="1.1153">
        <ele>377.4</ele>
        <time>2024-04-21T15:00:47.993Z</time>
      </trkpt>
      <trkpt lat="43.01373" lon="1.11534">
        <ele>377.4</ele>
        <time>2024-04-21T15:00:48.993Z</time>
      </trkpt>
      <trkpt lat="43.0137" lon="1.11538">
        <ele>377.2</ele>
        <time>2024-04-21T15:00:49.993Z</time>
      </trkpt>
      <trkpt lat="43.01367" lon="1.11542">
        <ele>377.2</ele>
        <time>2024-04-21T15:00:50.993Z</time>
      </trkpt>
      <trkpt lat="43.01364" lon="1.11546">
        <ele>377.2</ele>
        <time>2024-04-21T15:00:51.993Z</time>
      </trkpt>
      <trkpt lat="43.01361" lon="1.1155">
        <ele>377.2</ele>
        <time>2024-04-21T15:00:52.993Z</time>
      </trkpt>
      <trkpt lat="43.01357" lon="1.11554">
        <ele>377.2</ele>
        <time>2024-04-21T15:00:53.993Z</time>
      </trkpt>
      <trkpt lat="43.01354" lon="1.11558">
        <ele>376.8</ele>
        <time>2024-04-21T15:00:54.993Z</time>
      </trkpt>
      <trkpt lat="43.01351" lon="1.11562">
        <ele>377.2</ele>
        <time>2024-04-21T15:00:55.993Z</time>
      </trkpt>
      <trkpt lat="43.01347" lon="1.11565">
        <ele>377.2</ele>
        <time>2024-04-21T15:00:56.993Z</time>
      </trkpt>
      <trkpt lat="43.01345" lon="1.11569">
        <ele>377.2</ele>
        <time>2024-04-21T15:00:57.993Z</time>
      </trkpt>
      <trkpt lat="43.01342" lon="1.11573">
        <ele>377.4</ele>
        <time>2024-04-21T15:00:58.993Z</time>
      </trkpt>
      <trkpt lat="43.01339" lon="1.11576">
        <ele>377.6</ele>
        <time>2024-04-21T15:00:59.993Z</time>
      </trkpt>
      <trkpt lat="43.01336" lon="1.1158">
        <ele>377.4</ele>
        <time>2024-04-21T15:01:00.993Z</time>
      </trkpt>
      <trkpt lat="43.01333" lon="1.11584">
        <ele>377.4</ele>
        <time>2024-04-21T15:01:01.993Z</time>
      </trkpt>
      <trkpt lat="43.0133" lon="1.11588">
        <ele>377.6</ele>
        <time>2024-04-21T15:01:02.993Z</time>
      </trkpt>
      <trkpt lat="43.01326" lon="1.11593">
        <ele>377.6</ele>
        <time>2024-04-21T15:01:03.993Z</time>
      </trkpt>
      <trkpt lat="43.01323" lon="1.11597">
        <ele>378</ele>
        <time>2024-04-21T15:01:04.993Z</time>
      </trkpt>
      <trkpt lat="43.0132" lon="1.11602">
        <ele>378</ele>
        <time>2024-04-21T15:01:05.993Z</time>
      </trkpt>
      <trkpt lat="43.01316" lon="1.11606">
        <ele>378</ele>
        <time>2024-04-21T15:01:06.993Z</time>
      </trkpt>
      <trkpt lat="43.01314" lon="1.11611">
        <ele>378</ele>
        <time>2024-04-21T15:01:07.993Z</time>
      </trkpt>
      <trkpt lat="43.01311" lon="1.11614">
        <ele>378</ele>
        <time>2024-04-21T15:01:08.993Z</time>
      </trkpt>
      <trkpt lat="43.01308" lon="1.11619">
        <ele>378</ele>
        <time>2024-04-21T15:01:09.993Z</time>
      </trkpt>
      <trkpt lat="43.01305" lon="1.11622">
        <ele>378</ele>
        <time>2024-04-21T15:01:10.993Z</time>
      </trkpt>
      <trkpt lat="43.01303" lon="1.11627">
        <ele>378</ele>
        <time>2024-04-21T15:01:11.993Z</time>
      </trkpt>
      <trkpt lat="43.013" lon="1.11631">
        <ele>378</ele>
        <time>2024-04-21T15:01:12.993Z</time>
      </trkpt>
      <trkpt lat="43.01297" lon="1.11636">
        <ele>378</ele>
        <time>2024-04-21T15:01:13.993Z</time>
      </trkpt>
      <trkpt lat="43.01294" lon="1.1164">
        <ele>378.2</ele>
        <time>2024-04-21T15:01:14.993Z</time>
      </trkpt>
      <trkpt lat="43.01291" lon="1.11645">
        <ele>378.2</ele>
        <time>2024-04-21T15:01:15.993Z</time>
      </trkpt>
      <trkpt lat="43.01288" lon="1.11649">
        <ele>378.2</ele>
        <time>2024-04-21T15:01:16.993Z</time>
      </trkpt>
      <trkpt lat="43.01285" lon="1.11654">
        <ele>378.2</ele>
        <time>2024-04-21T15:01:17.993Z</time>
      </trkpt>
      <trkpt lat="43.01283" lon="1.11658">
        <ele>378.2</ele>
        <time>2024-04-21T15:01:18.993Z</time>
      </trkpt>
      <trkpt lat="43.0128" lon="1.11662">
        <ele>378.4</ele>
        <time>2024-04-21T15:01:19.993Z</time>
      </trkpt>
      <trkpt lat="43.01278" lon="1.11666">
        <ele>378.4</ele>
        <time>2024-04-21T15:01:20.993Z</time>
      </trkpt>
      <trkpt lat="43.01276" lon="1.1167">
        <ele>378.4</ele>
        <time>2024-04-21T15:01:21.993Z</time>
      </trkpt>
      <trkpt lat="43.01275" lon="1.11673">
        <ele>378.4</ele>
        <time>2024-04-21T15:01:22.993Z</time>
      </trkpt>
      <trkpt lat="43.01272" lon="1.11677">
        <ele>378.4</ele>
        <time>2024-04-21T15:01:23.993Z</time>
      </trkpt>
      <trkpt lat="43.01269" lon="1.11682">
        <ele>378.4</ele>
        <time>2024-04-21T15:01:24.993Z</time>
      </trkpt>
      <trkpt lat="43.01267" lon="1.11687">
        <ele>378.4</ele>
        <time>2024-04-21T15:01:25.993Z</time>
      </trkpt>
      <trkpt lat="43.01264" lon="1.11691">
        <ele>378.4</ele>
        <time>2024-04-21T15:01:26.993Z</time>
      </trkpt>
      <trkpt lat="43.01261" lon="1.11697">
        <ele>378.4</ele>
        <time>2024-04-21T15:01:27.993Z</time>
      </trkpt>
      <trkpt lat="43.01257" lon="1.11702">
        <ele>378.2</ele>
        <time>2024-04-21T15:01:28.993Z</time>
      </trkpt>
      <trkpt lat="43.01254" lon="1.11707">
        <ele>378.2</ele>
        <time>2024-04-21T15:01:29.993Z</time>
      </trkpt>
      <trkpt lat="43.01251" lon="1.11712">
        <ele>378.2</ele>
        <time>2024-04-21T15:01:30.993Z</time>
      </trkpt>
      <trkpt lat="43.01247" lon="1.11717">
        <ele>378.6</ele>
        <time>2024-04-21T15:01:31.993Z</time>
      </trkpt>
      <trkpt lat="43.01243" lon="1.11723">
        <ele>378.6</ele>
        <time>2024-04-21T15:01:32.993Z</time>
      </trkpt>
      <trkpt lat="43.0124" lon="1.11728">
        <ele>378.4</ele>
        <time>2024-04-21T15:01:33.993Z</time>
      </trkpt>
      <trkpt lat="43.01236" lon="1.11734">
        <ele>378.4</ele>
        <time>2024-04-21T15:01:34.993Z</time>
      </trkpt>
      <trkpt lat="43.01233" lon="1.11739">
        <ele>378.4</ele>
        <time>2024-04-21T15:01:35.993Z</time>
      </trkpt>
      <trkpt lat="43.0123" lon="1.11745">
        <ele>378.6</ele>
        <time>2024-04-21T15:01:36.993Z</time>
      </trkpt>
      <trkpt lat="43.01226" lon="1.11751">
        <ele>378.6</ele>
        <time>2024-04-21T15:01:37.993Z</time>
      </trkpt>
      <trkpt lat="43.01223" lon="1.11756">
        <ele>378.6</ele>
        <time>2024-04-21T15:01:38.993Z</time>
      </trkpt>
      <trkpt lat="43.0122" lon="1.11762">
        <ele>379</ele>
        <time>2024-04-21T15:01:39.993Z</time>
      </trkpt>
      <trkpt lat="43.01216" lon="1.11767">
        <ele>379</ele>
        <time>2024-04-21T15:01:40.993Z</time>
      </trkpt>
      <trkpt lat="43.01213" lon="1.11773">
        <ele>379</ele>
        <time>2024-04-21T15:01:41.993Z</time>
      </trkpt>
      <trkpt lat="43.0121" lon="1.11779">
        <ele>379</ele>
        <time>2024-04-21T15:01:42.993Z</time>
      </trkpt>
      <trkpt lat="43.01206" lon="1.11784">
        <ele>379</ele>
        <time>2024-04-21T15:01:43.993Z</time>
      </trkpt>
      <trkpt lat="43.01203" lon="1.1179">
        <ele>379</ele>
        <time>2024-04-21T15:01:44.993Z</time>
      </trkpt>
      <trkpt lat="43.012" lon="1.11795">
        <ele>379</ele>
        <time>2024-04-21T15:01:45.993Z</time>
      </trkpt>
      <trkpt lat="43.01197" lon="1.11799">
        <ele>379</ele>
        <time>2024-04-21T15:01:46.993Z</time>
      </trkpt>
      <trkpt lat="43.01194" lon="1.11805">
        <ele>379</ele>
        <time>2024-04-21T15:01:47.993Z</time>
      </trkpt>
      <trkpt lat="43.0119" lon="1.11811">
        <ele>379.4</ele>
        <time>2024-04-21T15:01:48.993Z</time>
      </trkpt>
      <trkpt lat="43.01187" lon="1.11816">
        <ele>379.8</ele>
        <time>2024-04-21T15:01:49.993Z</time>
      </trkpt>
      <trkpt lat="43.01185" lon="1.11821">
        <ele>379.8</ele>
        <time>2024-04-21T15:01:50.993Z</time>
      </trkpt>
      <trkpt lat="43.01182" lon="1.11827">
        <ele>379.8</ele>
        <time>2024-04-21T15:01:51.993Z</time>
      </trkpt>
      <trkpt lat="43.01179" lon="1.11833">
        <ele>379.8</ele>
        <time>2024-04-21T15:01:52.993Z</time>
      </trkpt>
      <trkpt lat="43.01176" lon="1.11839">
        <ele>379.8</ele>
        <time>2024-04-21T15:01:53.993Z</time>
      </trkpt>
      <trkpt lat="43.01173" lon="1.11844">
        <ele>379.8</ele>
        <time>2024-04-21T15:01:54.993Z</time>
      </trkpt>
      <trkpt lat="43.0117" lon="1.11849">
        <ele>380</ele>
        <time>2024-04-21T15:01:55.993Z</time>
      </trkpt>
      <trkpt lat="43.01167" lon="1.11855">
        <ele>380</ele>
        <time>2024-04-21T15:01:56.993Z</time>
      </trkpt>
      <trkpt lat="43.01164" lon="1.11861">
        <ele>379.8</ele>
        <time>2024-04-21T15:01:57.993Z</time>
      </trkpt>
      <trkpt lat="43.01161" lon="1.11867">
        <ele>379.6</ele>
        <time>2024-04-21T15:01:58.993Z</time>
      </trkpt>
      <trkpt lat="43.01158" lon="1.11872">
        <ele>379.6</ele>
        <time>2024-04-21T15:01:59.993Z</time>
      </trkpt>
      <trkpt lat="43.01155" lon="1.11877">
        <ele>379.6</ele>
        <time>2024-04-21T15:02:00.993Z</time>
      </trkpt>
      <trkpt lat="43.01152" lon="1.11881">
        <ele>379.8</ele>
        <time>2024-04-21T15:02:01.993Z</time>
      </trkpt>
      <trkpt lat="43.01149" lon="1.11886">
        <ele>379.8</ele>
        <time>2024-04-21T15:02:02.993Z</time>
      </trkpt>
      <trkpt lat="43.01146" lon="1.11891">
        <ele>379.8</ele>
        <time>2024-04-21T15:02:03.993Z</time>
      </trkpt>
      <trkpt lat="43.01143" lon="1.11896">
        <ele>380</ele>
        <time>2024-04-21T15:02:04.993Z</time>
      </trkpt>
      <trkpt lat="43.01141" lon="1.11901">
        <ele>380.2</ele>
        <time>2024-04-21T15:02:05.993Z</time>
      </trkpt>
      <trkpt lat="43.01138" lon="1.11906">
        <ele>380.2</ele>
        <time>2024-04-21T15:02:06.993Z</time>
      </trkpt>
      <trkpt lat="43.01136" lon="1.11912">
        <ele>380.2</ele>
        <time>2024-04-21T15:02:07.993Z</time>
      </trkpt>
      <trkpt lat="43.01133" lon="1.11918">
        <ele>380.6</ele>
        <time>2024-04-21T15:02:08.993Z</time>
      </trkpt>
      <trkpt lat="43.01131" lon="1.11924">
        <ele>380.6</ele>
        <time>2024-04-21T15:02:09.993Z</time>
      </trkpt>
      <trkpt lat="43.01128" lon="1.11929">
        <ele>380.6</ele>
        <time>2024-04-21T15:02:10.993Z</time>
      </trkpt>
      <trkpt lat="43.01126" lon="1.11934">
        <ele>380.8</ele>
        <time>2024-04-21T15:02:11.993Z</time>
      </trkpt>
      <trkpt lat="43.01123" lon="1.11939">
        <ele>380.8</ele>
        <time>2024-04-21T15:02:12.993Z</time>
      </trkpt>
      <trkpt lat="43.01121" lon="1.11944">
        <ele>380.8</ele>
        <time>2024-04-21T15:02:13.993Z</time>
      </trkpt>
      <trkpt lat="43.01117" lon="1.11949">
        <ele>380.8</ele>
        <time>2024-04-21T15:02:14.993Z</time>
      </trkpt>
      <trkpt lat="43.01115" lon="1.11954">
        <ele>380.8</ele>
        <time>2024-04-21T15:02:15.993Z</time>
      </trkpt>
      <trkpt lat="43.01112" lon="1.11959">
        <ele>380.8</ele>
        <time>2024-04-21T15:02:16.993Z</time>
      </trkpt>
      <trkpt lat="43.01109" lon="1.11964">
        <ele>380.8</ele>
        <time>2024-04-21T15:02:17.993Z</time>
      </trkpt>
      <trkpt lat="43.01106" lon="1.1197">
        <ele>380.8</ele>
        <time>2024-04-21T15:02:18.993Z</time>
      </trkpt>
      <trkpt lat="43.01104" lon="1.11975">
        <ele>380.8</ele>
        <time>2024-04-21T15:02:19.993Z</time>
      </trkpt>
      <trkpt lat="43.01101" lon="1.1198">
        <ele>380.8</ele>
        <time>2024-04-21T15:02:20.993Z</time>
      </trkpt>
      <trkpt lat="43.01099" lon="1.11984">
        <ele>381</ele>
        <time>2024-04-21T15:02:21.993Z</time>
      </trkpt>
      <trkpt lat="43.01098" lon="1.11988">
        <ele>381</ele>
        <time>2024-04-21T15:02:22.993Z</time>
      </trkpt>
      <trkpt lat="43.01096" lon="1.11991">
        <ele>381.4</ele>
        <time>2024-04-21T15:02:23.993Z</time>
      </trkpt>
      <trkpt lat="43.01095" lon="1.11993">
        <ele>381.4</ele>
        <time>2024-04-21T15:02:24.993Z</time>
      </trkpt>
      <trkpt lat="43.01095" lon="1.11995">
        <ele>381.4</ele>
        <time>2024-04-21T15:02:25.993Z</time>
      </trkpt>
      <trkpt lat="43.01094" lon="1.11998">
        <ele>381.4</ele>
        <time>2024-04-21T15:02:26.993Z</time>
      </trkpt>
      <trkpt lat="43.01093" lon="1.12">
        <ele>381.6</ele>
        <time>2024-04-21T15:02:27.993Z</time>
      </trkpt>
      <trkpt lat="43.01092" lon="1.12002">
        <ele>381.6</ele>
        <time>2024-04-21T15:02:28.993Z</time>
      </trkpt>
      <trkpt lat="43.0109" lon="1.12005">
        <ele>381.6</ele>
        <time>2024-04-21T15:02:29.993Z</time>
      </trkpt>
      <trkpt lat="43.01089" lon="1.12008">
        <ele>381.8</ele>
        <time>2024-04-21T15:02:30.993Z</time>
      </trkpt>
      <trkpt lat="43.01087" lon="1.12012">
        <ele>381.8</ele>
        <time>2024-04-21T15:02:31.993Z</time>
      </trkpt>
      <trkpt lat="43.01084" lon="1.12017">
        <ele>381.8</ele>
        <time>2024-04-21T15:02:32.993Z</time>
      </trkpt>
      <trkpt lat="43.01083" lon="1.12021">
        <ele>381.8</ele>
        <time>2024-04-21T15:02:33.993Z</time>
      </trkpt>
      <trkpt lat="43.01081" lon="1.12026">
        <ele>381.6</ele>
        <time>2024-04-21T15:02:34.993Z</time>
      </trkpt>
      <trkpt lat="43.01079" lon="1.1203">
        <ele>381.6</ele>
        <time>2024-04-21T15:02:35.993Z</time>
      </trkpt>
      <trkpt lat="43.01078" lon="1.12035">
        <ele>381.6</ele>
        <time>2024-04-21T15:02:36.993Z</time>
      </trkpt>
      <trkpt lat="43.01076" lon="1.12039">
        <ele>381.6</ele>
        <time>2024-04-21T15:02:37.993Z</time>
      </trkpt>
      <trkpt lat="43.01074" lon="1.12044">
        <ele>381.6</ele>
        <time>2024-04-21T15:02:38.993Z</time>
      </trkpt>
      <trkpt lat="43.01072" lon="1.12049">
        <ele>381.6</ele>
        <time>2024-04-21T15:02:39.993Z</time>
      </trkpt>
      <trkpt lat="43.0107" lon="1.12053">
        <ele>381.6</ele>
        <time>2024-04-21T15:02:40.993Z</time>
      </trkpt>
      <trkpt lat="43.01069" lon="1.12058">
        <ele>381.6</ele>
        <time>2024-04-21T15:02:41.993Z</time>
      </trkpt>
      <trkpt lat="43.01066" lon="1.12063">
        <ele>381.6</ele>
        <time>2024-04-21T15:02:42.993Z</time>
      </trkpt>
      <trkpt lat="43.01064" lon="1.12068">
        <ele>381.8</ele>
        <time>2024-04-21T15:02:43.993Z</time>
      </trkpt>
      <trkpt lat="43.01062" lon="1.12072">
        <ele>381.8</ele>
        <time>2024-04-21T15:02:44.993Z</time>
      </trkpt>
      <trkpt lat="43.0106" lon="1.12077">
        <ele>381.8</ele>
        <time>2024-04-21T15:02:45.993Z</time>
      </trkpt>
      <trkpt lat="43.01059" lon="1.12082">
        <ele>381.8</ele>
        <time>2024-04-21T15:02:46.993Z</time>
      </trkpt>
      <trkpt lat="43.01057" lon="1.12087">
        <ele>382.2</ele>
        <time>2024-04-21T15:02:47.993Z</time>
      </trkpt>
      <trkpt lat="43.01055" lon="1.12091">
        <ele>382.2</ele>
        <time>2024-04-21T15:02:48.993Z</time>
      </trkpt>
      <trkpt lat="43.01053" lon="1.12096">
        <ele>382.4</ele>
        <time>2024-04-21T15:02:49.993Z</time>
      </trkpt>
      <trkpt lat="43.01052" lon="1.12101">
        <ele>382.4</ele>
        <time>2024-04-21T15:02:50.993Z</time>
      </trkpt>
      <trkpt lat="43.0105" lon="1.12105">
        <ele>382.4</ele>
        <time>2024-04-21T15:02:51.993Z</time>
      </trkpt>
      <trkpt lat="43.01048" lon="1.1211">
        <ele>382.4</ele>
        <time>2024-04-21T15:02:52.993Z</time>
      </trkpt>
      <trkpt lat="43.01047" lon="1.12114">
        <ele>382.4</ele>
        <time>2024-04-21T15:02:53.993Z</time>
      </trkpt>
      <trkpt lat="43.01044" lon="1.12118">
        <ele>382.4</ele>
        <time>2024-04-21T15:02:54.993Z</time>
      </trkpt>
      <trkpt lat="43.01042" lon="1.12123">
        <ele>382.4</ele>
        <time>2024-04-21T15:02:55.993Z</time>
      </trkpt>
      <trkpt lat="43.01041" lon="1.12128">
        <ele>382.2</ele>
        <time>2024-04-21T15:02:56.993Z</time>
      </trkpt>
      <trkpt lat="43.01039" lon="1.12132">
        <ele>382.2</ele>
        <time>2024-04-21T15:02:57.993Z</time>
      </trkpt>
      <trkpt lat="43.01037" lon="1.12137">
        <ele>382.2</ele>
        <time>2024-04-21T15:02:58.993Z</time>
      </trkpt>
      <trkpt lat="43.01035" lon="1.12142">
        <ele>382.2</ele>
        <time>2024-04-21T15:02:59.993Z</time>
      </trkpt>
      <trkpt lat="43.01033" lon="1.12147">
        <ele>382.2</ele>
        <time>2024-04-21T15:03:00.993Z</time>
      </trkpt>
      <trkpt lat="43.01031" lon="1.12152">
        <ele>382.2</ele>
        <time>2024-04-21T15:03:01.993Z</time>
      </trkpt>
      <trkpt lat="43.01029" lon="1.12157">
        <ele>382.4</ele>
        <time>2024-04-21T15:03:02.993Z</time>
      </trkpt>
      <trkpt lat="43.01027" lon="1.12162">
        <ele>382.4</ele>
        <time>2024-04-21T15:03:03.993Z</time>
      </trkpt>
      <trkpt lat="43.01025" lon="1.12167">
        <ele>382.6</ele>
        <time>2024-04-21T15:03:04.993Z</time>
      </trkpt>
      <trkpt lat="43.01023" lon="1.12172">
        <ele>382.6</ele>
        <time>2024-04-21T15:03:05.993Z</time>
      </trkpt>
      <trkpt lat="43.01021" lon="1.12177">
        <ele>382.6</ele>
        <time>2024-04-21T15:03:06.993Z</time>
      </trkpt>
      <trkpt lat="43.01019" lon="1.12182">
        <ele>382.6</ele>
        <time>2024-04-21T15:03:07.993Z</time>
      </trkpt>
      <trkpt lat="43.01017" lon="1.12187">
        <ele>382.6</ele>
        <time>2024-04-21T15:03:08.993Z</time>
      </trkpt>
      <trkpt lat="43.01015" lon="1.12193">
        <ele>382.6</ele>
        <time>2024-04-21T15:03:09.993Z</time>
      </trkpt>
      <trkpt lat="43.01013" lon="1.12198">
        <ele>382.6</ele>
        <time>2024-04-21T15:03:10.993Z</time>
      </trkpt>
      <trkpt lat="43.01011" lon="1.12203">
        <ele>382.6</ele>
        <time>2024-04-21T15:03:11.993Z</time>
      </trkpt>
      <trkpt lat="43.01009" lon="1.12208">
        <ele>382.6</ele>
        <time>2024-04-21T15:03:12.993Z</time>
      </trkpt>
      <trkpt lat="43.01007" lon="1.12214">
        <ele>382.8</ele>
        <time>2024-04-21T15:03:13.993Z</time>
      </trkpt>
      <trkpt lat="43.01005" lon="1.12219">
        <ele>382.8</ele>
        <time>2024-04-21T15:03:14.993Z</time>
      </trkpt>
      <trkpt lat="43.01003" lon="1.12224">
        <ele>382.8</ele>
        <time>2024-04-21T15:03:15.993Z</time>
      </trkpt>
      <trkpt lat="43.01001" lon="1.1223">
        <ele>383.2</ele>
        <time>2024-04-21T15:03:16.993Z</time>
      </trkpt>
      <trkpt lat="43.00999" lon="1.12235">
        <ele>383.2</ele>
        <time>2024-04-21T15:03:17.993Z</time>
      </trkpt>
      <trkpt lat="43.00998" lon="1.12239">
        <ele>383.2</ele>
        <time>2024-04-21T15:03:18.993Z</time>
      </trkpt>
      <trkpt lat="43.00995" lon="1.12244">
        <ele>383.2</ele>
        <time>2024-04-21T15:03:19.993Z</time>
      </trkpt>
      <trkpt lat="43.00993" lon="1.12249">
        <ele>383.2</ele>
        <time>2024-04-21T15:03:20.993Z</time>
      </trkpt>
      <trkpt lat="43.00992" lon="1.12253">
        <ele>383.2</ele>
        <time>2024-04-21T15:03:21.993Z</time>
      </trkpt>
      <trkpt lat="43.0099" lon="1.12258">
        <ele>383.6</ele>
        <time>2024-04-21T15:03:22.993Z</time>
      </trkpt>
      <trkpt lat="43.00989" lon="1.12262">
        <ele>383.6</ele>
        <time>2024-04-21T15:03:23.993Z</time>
      </trkpt>
      <trkpt lat="43.00987" lon="1.12266">
        <ele>383.6</ele>
        <time>2024-04-21T15:03:24.993Z</time>
      </trkpt>
      <trkpt lat="43.00986" lon="1.12271">
        <ele>383.6</ele>
        <time>2024-04-21T15:03:25.993Z</time>
      </trkpt>
      <trkpt lat="43.00984" lon="1.12275">
        <ele>383.6</ele>
        <time>2024-04-21T15:03:26.993Z</time>
      </trkpt>
      <trkpt lat="43.00983" lon="1.12279">
        <ele>383.6</ele>
        <time>2024-04-21T15:03:27.993Z</time>
      </trkpt>
      <trkpt lat="43.00982" lon="1.12282">
        <ele>376</ele>
        <time>2024-04-21T15:03:28.752Z</time>
      </trkpt>
      <trkpt lat="43.00975" lon="1.123">
        <ele>376.3</ele>
        <time>2024-04-21T15:03:33.305Z</time>
      </trkpt>
      <trkpt lat="43.00966" lon="1.1232">
        <ele>376.3</ele>
        <time>2024-04-21T15:03:38.371Z</time>
      </trkpt>
      <trkpt lat="43.00921" lon="1.12434">
        <ele>378</ele>
        <time>2024-04-21T15:04:06.641Z</time>
      </trkpt>
    </trkseg>
  </trk>
</gpx>